<?xml version="1.0" encoding="UTF-8" standalone="no" ?>
<gpx xmlns="http://www.topografix.com/GPX/1/1" xmlns:xsi="http://www.w3.org/2001/XMLSchema-instance" xsi:schemaLocation="http://www.topografix.com/GPX/1/1 http://www.topografix.com/GPX/1/1/gpx.xsd" version="1.1" creator="VisuGPX - https://www.visugpx.com">
  <metadata>
    <name>Boucle de la Jordanne J2</name>
    <desc><![CDATA[

]]></desc>
  </metadata>
  <trk>
    <name><![CDATA[Boucle de la Jordanne J2]]></name>
    <trkseg>
      <trkpt lat="45.06362" lon="2.60416">
        <ele>1092.8000488281</ele>
        <time>2020-08-03T06:01:36.000Z</time>
      </trkpt>
      <trkpt lat="45.06359" lon="2.60419">
        <ele>1093</ele>
        <time>2020-08-03T06:01:40.000Z</time>
      </trkpt>
      <trkpt lat="45.06357" lon="2.60421">
        <ele>1092.5999755859</ele>
        <time>2020-08-03T06:01:44.000Z</time>
      </trkpt>
      <trkpt lat="45.06354" lon="2.60424">
        <ele>1092</ele>
        <time>2020-08-03T06:01:47.000Z</time>
      </trkpt>
      <trkpt lat="45.06353" lon="2.60426">
        <ele>1091.5999755859</ele>
        <time>2020-08-03T06:01:49.000Z</time>
      </trkpt>
      <trkpt lat="45.06353" lon="2.60432">
        <ele>1090.5999755859</ele>
        <time>2020-08-03T06:01:54.000Z</time>
      </trkpt>
      <trkpt lat="45.06353" lon="2.60433">
        <ele>1090.1999511719</ele>
        <time>2020-08-03T06:01:55.000Z</time>
      </trkpt>
      <trkpt lat="45.06351" lon="2.60437">
        <ele>1089.5999755859</ele>
        <time>2020-08-03T06:01:59.000Z</time>
      </trkpt>
      <trkpt lat="45.06347" lon="2.6044">
        <ele>1088.4000244141</ele>
        <time>2020-08-03T06:02:04.000Z</time>
      </trkpt>
      <trkpt lat="45.06346" lon="2.6044">
        <ele>1088</ele>
        <time>2020-08-03T06:02:05.000Z</time>
      </trkpt>
      <trkpt lat="45.06344" lon="2.60442">
        <ele>1087.1999511719</ele>
        <time>2020-08-03T06:02:07.000Z</time>
      </trkpt>
      <trkpt lat="45.06341" lon="2.60446">
        <ele>1086</ele>
        <time>2020-08-03T06:02:11.000Z</time>
      </trkpt>
      <trkpt lat="45.06338" lon="2.6045">
        <ele>1084.8000488281</ele>
        <time>2020-08-03T06:02:16.000Z</time>
      </trkpt>
      <trkpt lat="45.06337" lon="2.60451">
        <ele>1084.5999755859</ele>
        <time>2020-08-03T06:02:17.000Z</time>
      </trkpt>
      <trkpt lat="45.06333" lon="2.60454">
        <ele>1083.5999755859</ele>
        <time>2020-08-03T06:02:22.000Z</time>
      </trkpt>
      <trkpt lat="45.06329" lon="2.60457">
        <ele>1082.5999755859</ele>
        <time>2020-08-03T06:02:26.000Z</time>
      </trkpt>
      <trkpt lat="45.06328" lon="2.60457">
        <ele>1082.4000244141</ele>
        <time>2020-08-03T06:02:27.000Z</time>
      </trkpt>
      <trkpt lat="45.06323" lon="2.60462">
        <ele>1081.5999755859</ele>
        <time>2020-08-03T06:02:33.000Z</time>
      </trkpt>
      <trkpt lat="45.06322" lon="2.60464">
        <ele>1081.1999511719</ele>
        <time>2020-08-03T06:02:35.000Z</time>
      </trkpt>
      <trkpt lat="45.06319" lon="2.60466">
        <ele>1080.5999755859</ele>
        <time>2020-08-03T06:02:38.000Z</time>
      </trkpt>
      <trkpt lat="45.06318" lon="2.60466">
        <ele>1080.4000244141</ele>
        <time>2020-08-03T06:02:39.000Z</time>
      </trkpt>
      <trkpt lat="45.06314" lon="2.60468">
        <ele>1079.4000244141</ele>
        <time>2020-08-03T06:02:43.000Z</time>
      </trkpt>
      <trkpt lat="45.06306" lon="2.60473">
        <ele>1078.1999511719</ele>
        <time>2020-08-03T06:02:51.000Z</time>
      </trkpt>
      <trkpt lat="45.06305" lon="2.60475">
        <ele>1078</ele>
        <time>2020-08-03T06:02:53.000Z</time>
      </trkpt>
      <trkpt lat="45.06304" lon="2.60479">
        <ele>1077.1999511719</ele>
        <time>2020-08-03T06:02:57.000Z</time>
      </trkpt>
      <trkpt lat="45.06302" lon="2.60479">
        <ele>1077.1999511719</ele>
        <time>2020-08-03T06:02:59.000Z</time>
      </trkpt>
      <trkpt lat="45.06301" lon="2.6048">
        <ele>1077.1999511719</ele>
        <time>2020-08-03T06:03:00.000Z</time>
      </trkpt>
      <trkpt lat="45.06298" lon="2.60482">
        <ele>1077.4000244141</ele>
        <time>2020-08-03T06:03:05.000Z</time>
      </trkpt>
      <trkpt lat="45.06298" lon="2.60483">
        <ele>1077.4000244141</ele>
        <time>2020-08-03T06:03:06.000Z</time>
      </trkpt>
      <trkpt lat="45.06297" lon="2.60489">
        <ele>1076.5999755859</ele>
        <time>2020-08-03T06:03:11.000Z</time>
      </trkpt>
      <trkpt lat="45.06297" lon="2.6049">
        <ele>1076</ele>
        <time>2020-08-03T06:03:13.000Z</time>
      </trkpt>
      <trkpt lat="45.06298" lon="2.60492">
        <ele>1075.4000244141</ele>
        <time>2020-08-03T06:03:18.000Z</time>
      </trkpt>
      <trkpt lat="45.06298" lon="2.60492">
        <ele>1075.1999511719</ele>
        <time>2020-08-03T06:03:21.000Z</time>
      </trkpt>
      <trkpt lat="45.06296" lon="2.60492">
        <ele>1075</ele>
        <time>2020-08-03T06:03:23.000Z</time>
      </trkpt>
      <trkpt lat="45.06295" lon="2.60492">
        <ele>1075</ele>
        <time>2020-08-03T06:03:24.000Z</time>
      </trkpt>
      <trkpt lat="45.06293" lon="2.60493">
        <ele>1075.1999511719</ele>
        <time>2020-08-03T06:03:27.000Z</time>
      </trkpt>
      <trkpt lat="45.06291" lon="2.60495">
        <ele>1075.4000244141</ele>
        <time>2020-08-03T06:03:30.000Z</time>
      </trkpt>
      <trkpt lat="45.06288" lon="2.60498">
        <ele>1075</ele>
        <time>2020-08-03T06:03:34.000Z</time>
      </trkpt>
      <trkpt lat="45.06287" lon="2.60499">
        <ele>1074.5999755859</ele>
        <time>2020-08-03T06:03:36.000Z</time>
      </trkpt>
      <trkpt lat="45.06286" lon="2.60501">
        <ele>1074.1999511719</ele>
        <time>2020-08-03T06:03:40.000Z</time>
      </trkpt>
      <trkpt lat="45.06284" lon="2.60503">
        <ele>1074</ele>
        <time>2020-08-03T06:03:42.000Z</time>
      </trkpt>
      <trkpt lat="45.06284" lon="2.60504">
        <ele>1073.8000488281</ele>
        <time>2020-08-03T06:03:43.000Z</time>
      </trkpt>
      <trkpt lat="45.06281" lon="2.60507">
        <ele>1072.5999755859</ele>
        <time>2020-08-03T06:03:47.000Z</time>
      </trkpt>
      <trkpt lat="45.06279" lon="2.60511">
        <ele>1072.4000244141</ele>
        <time>2020-08-03T06:03:51.000Z</time>
      </trkpt>
      <trkpt lat="45.06278" lon="2.60512">
        <ele>1072.4000244141</ele>
        <time>2020-08-03T06:03:52.000Z</time>
      </trkpt>
      <trkpt lat="45.06277" lon="2.60512">
        <ele>1072.4000244141</ele>
        <time>2020-08-03T06:03:53.000Z</time>
      </trkpt>
      <trkpt lat="45.06275" lon="2.60514">
        <ele>1071.5999755859</ele>
        <time>2020-08-03T06:03:56.000Z</time>
      </trkpt>
      <trkpt lat="45.06275" lon="2.60516">
        <ele>1071.4000244141</ele>
        <time>2020-08-03T06:03:57.000Z</time>
      </trkpt>
      <trkpt lat="45.06274" lon="2.60518">
        <ele>1070.5999755859</ele>
        <time>2020-08-03T06:03:59.000Z</time>
      </trkpt>
      <trkpt lat="45.06272" lon="2.60521">
        <ele>1070.1999511719</ele>
        <time>2020-08-03T06:04:02.000Z</time>
      </trkpt>
      <trkpt lat="45.06272" lon="2.60523">
        <ele>1069.8000488281</ele>
        <time>2020-08-03T06:04:04.000Z</time>
      </trkpt>
      <trkpt lat="45.0627" lon="2.60525">
        <ele>1069.1999511719</ele>
        <time>2020-08-03T06:04:06.000Z</time>
      </trkpt>
      <trkpt lat="45.06269" lon="2.60525">
        <ele>1068.8000488281</ele>
        <time>2020-08-03T06:04:07.000Z</time>
      </trkpt>
      <trkpt lat="45.06268" lon="2.60525">
        <ele>1068.5999755859</ele>
        <time>2020-08-03T06:04:08.000Z</time>
      </trkpt>
      <trkpt lat="45.06267" lon="2.60527">
        <ele>1068.1999511719</ele>
        <time>2020-08-03T06:04:10.000Z</time>
      </trkpt>
      <trkpt lat="45.06266" lon="2.60528">
        <ele>1068</ele>
        <time>2020-08-03T06:04:11.000Z</time>
      </trkpt>
      <trkpt lat="45.06265" lon="2.6053">
        <ele>1067.8000488281</ele>
        <time>2020-08-03T06:04:13.000Z</time>
      </trkpt>
      <trkpt lat="45.06263" lon="2.60533">
        <ele>1067</ele>
        <time>2020-08-03T06:04:16.000Z</time>
      </trkpt>
      <trkpt lat="45.06258" lon="2.60537">
        <ele>1066</ele>
        <time>2020-08-03T06:04:22.000Z</time>
      </trkpt>
      <trkpt lat="45.06256" lon="2.60537">
        <ele>1066</ele>
        <time>2020-08-03T06:04:24.000Z</time>
      </trkpt>
      <trkpt lat="45.06254" lon="2.60539">
        <ele>1065.5999755859</ele>
        <time>2020-08-03T06:04:27.000Z</time>
      </trkpt>
      <trkpt lat="45.06253" lon="2.60542">
        <ele>1065.1999511719</ele>
        <time>2020-08-03T06:04:29.000Z</time>
      </trkpt>
      <trkpt lat="45.06253" lon="2.60545">
        <ele>1065</ele>
        <time>2020-08-03T06:04:31.000Z</time>
      </trkpt>
      <trkpt lat="45.06253" lon="2.60546">
        <ele>1064.8000488281</ele>
        <time>2020-08-03T06:04:32.000Z</time>
      </trkpt>
      <trkpt lat="45.06253" lon="2.60548">
        <ele>1064.8000488281</ele>
        <time>2020-08-03T06:04:33.000Z</time>
      </trkpt>
      <trkpt lat="45.06251" lon="2.60556">
        <ele>1064.1999511719</ele>
        <time>2020-08-03T06:04:38.000Z</time>
      </trkpt>
      <trkpt lat="45.0625" lon="2.60556">
        <ele>1064.1999511719</ele>
        <time>2020-08-03T06:04:39.000Z</time>
      </trkpt>
      <trkpt lat="45.06248" lon="2.60557">
        <ele>1063.5999755859</ele>
        <time>2020-08-03T06:04:41.000Z</time>
      </trkpt>
      <trkpt lat="45.06246" lon="2.60557">
        <ele>1062.4000244141</ele>
        <time>2020-08-03T06:04:43.000Z</time>
      </trkpt>
      <trkpt lat="45.06242" lon="2.60559">
        <ele>1061.4000244141</ele>
        <time>2020-08-03T06:04:47.000Z</time>
      </trkpt>
      <trkpt lat="45.0624" lon="2.60566">
        <ele>1060.8000488281</ele>
        <time>2020-08-03T06:04:52.000Z</time>
      </trkpt>
      <trkpt lat="45.06239" lon="2.60568">
        <ele>1060.1999511719</ele>
        <time>2020-08-03T06:04:54.000Z</time>
      </trkpt>
      <trkpt lat="45.06234" lon="2.60571">
        <ele>1059.1999511719</ele>
        <time>2020-08-03T06:04:59.000Z</time>
      </trkpt>
      <trkpt lat="45.06232" lon="2.60573">
        <ele>1058.4000244141</ele>
        <time>2020-08-03T06:05:01.000Z</time>
      </trkpt>
      <trkpt lat="45.06231" lon="2.60574">
        <ele>1058</ele>
        <time>2020-08-03T06:05:02.000Z</time>
      </trkpt>
      <trkpt lat="45.06229" lon="2.60577">
        <ele>1057.4000244141</ele>
        <time>2020-08-03T06:05:05.000Z</time>
      </trkpt>
      <trkpt lat="45.06228" lon="2.6058">
        <ele>1056.8000488281</ele>
        <time>2020-08-03T06:05:08.000Z</time>
      </trkpt>
      <trkpt lat="45.06226" lon="2.6058">
        <ele>1056.4000244141</ele>
        <time>2020-08-03T06:05:10.000Z</time>
      </trkpt>
      <trkpt lat="45.06224" lon="2.60579">
        <ele>1055.8000488281</ele>
        <time>2020-08-03T06:05:12.000Z</time>
      </trkpt>
      <trkpt lat="45.06223" lon="2.60579">
        <ele>1055.4000244141</ele>
        <time>2020-08-03T06:05:13.000Z</time>
      </trkpt>
      <trkpt lat="45.06222" lon="2.60579">
        <ele>1055.1999511719</ele>
        <time>2020-08-03T06:05:14.000Z</time>
      </trkpt>
      <trkpt lat="45.0622" lon="2.6058">
        <ele>1054.5999755859</ele>
        <time>2020-08-03T06:05:16.000Z</time>
      </trkpt>
      <trkpt lat="45.06218" lon="2.60582">
        <ele>1054</ele>
        <time>2020-08-03T06:05:20.000Z</time>
      </trkpt>
      <trkpt lat="45.06217" lon="2.60583">
        <ele>1053.5999755859</ele>
        <time>2020-08-03T06:05:24.000Z</time>
      </trkpt>
      <trkpt lat="45.06215" lon="2.60587">
        <ele>1053.5999755859</ele>
        <time>2020-08-03T06:05:27.000Z</time>
      </trkpt>
      <trkpt lat="45.06212" lon="2.60591">
        <ele>1053.4000244141</ele>
        <time>2020-08-03T06:05:30.000Z</time>
      </trkpt>
      <trkpt lat="45.06207" lon="2.60595">
        <ele>1052</ele>
        <time>2020-08-03T06:05:36.000Z</time>
      </trkpt>
      <trkpt lat="45.06206" lon="2.60596">
        <ele>1051.5999755859</ele>
        <time>2020-08-03T06:05:37.000Z</time>
      </trkpt>
      <trkpt lat="45.06205" lon="2.60596">
        <ele>1050.8000488281</ele>
        <time>2020-08-03T06:05:39.000Z</time>
      </trkpt>
      <trkpt lat="45.06201" lon="2.60598">
        <ele>1050</ele>
        <time>2020-08-03T06:05:44.000Z</time>
      </trkpt>
      <trkpt lat="45.062" lon="2.60599">
        <ele>1050</ele>
        <time>2020-08-03T06:05:45.000Z</time>
      </trkpt>
      <trkpt lat="45.06199" lon="2.606">
        <ele>1049.5999755859</ele>
        <time>2020-08-03T06:05:47.000Z</time>
      </trkpt>
      <trkpt lat="45.06197" lon="2.60602">
        <ele>1048.4000244141</ele>
        <time>2020-08-03T06:05:50.000Z</time>
      </trkpt>
      <trkpt lat="45.06196" lon="2.60602">
        <ele>1048</ele>
        <time>2020-08-03T06:05:51.000Z</time>
      </trkpt>
      <trkpt lat="45.06195" lon="2.60603">
        <ele>1047.8000488281</ele>
        <time>2020-08-03T06:05:52.000Z</time>
      </trkpt>
      <trkpt lat="45.06194" lon="2.60603">
        <ele>1047.1999511719</ele>
        <time>2020-08-03T06:05:54.000Z</time>
      </trkpt>
      <trkpt lat="45.0619" lon="2.60608">
        <ele>1045.8000488281</ele>
        <time>2020-08-03T06:05:59.000Z</time>
      </trkpt>
      <trkpt lat="45.06189" lon="2.60609">
        <ele>1045.5999755859</ele>
        <time>2020-08-03T06:06:00.000Z</time>
      </trkpt>
      <trkpt lat="45.06187" lon="2.60611">
        <ele>1044.5999755859</ele>
        <time>2020-08-03T06:06:03.000Z</time>
      </trkpt>
      <trkpt lat="45.06184" lon="2.60614">
        <ele>1044</ele>
        <time>2020-08-03T06:06:07.000Z</time>
      </trkpt>
      <trkpt lat="45.06182" lon="2.60615">
        <ele>1043.4000244141</ele>
        <time>2020-08-03T06:06:09.000Z</time>
      </trkpt>
      <trkpt lat="45.06178" lon="2.60619">
        <ele>1042.1999511719</ele>
        <time>2020-08-03T06:06:14.000Z</time>
      </trkpt>
      <trkpt lat="45.06177" lon="2.6062">
        <ele>1042.1999511719</ele>
        <time>2020-08-03T06:06:15.000Z</time>
      </trkpt>
      <trkpt lat="45.06173" lon="2.60629">
        <ele>1041.1999511719</ele>
        <time>2020-08-03T06:06:19.000Z</time>
      </trkpt>
      <trkpt lat="45.06169" lon="2.60633">
        <ele>1040</ele>
        <time>2020-08-03T06:06:22.000Z</time>
      </trkpt>
      <trkpt lat="45.06166" lon="2.60636">
        <ele>1039.1999511719</ele>
        <time>2020-08-03T06:06:25.000Z</time>
      </trkpt>
      <trkpt lat="45.06166" lon="2.60637">
        <ele>1039</ele>
        <time>2020-08-03T06:06:26.000Z</time>
      </trkpt>
      <trkpt lat="45.06161" lon="2.60642">
        <ele>1038.5999755859</ele>
        <time>2020-08-03T06:06:31.000Z</time>
      </trkpt>
      <trkpt lat="45.06159" lon="2.60643">
        <ele>1038.4000244141</ele>
        <time>2020-08-03T06:06:33.000Z</time>
      </trkpt>
      <trkpt lat="45.06154" lon="2.60645">
        <ele>1037.8000488281</ele>
        <time>2020-08-03T06:06:37.000Z</time>
      </trkpt>
      <trkpt lat="45.06152" lon="2.60648">
        <ele>1037.4000244141</ele>
        <time>2020-08-03T06:06:39.000Z</time>
      </trkpt>
      <trkpt lat="45.06151" lon="2.6065">
        <ele>1037</ele>
        <time>2020-08-03T06:06:41.000Z</time>
      </trkpt>
      <trkpt lat="45.06149" lon="2.60653">
        <ele>1036.8000488281</ele>
        <time>2020-08-03T06:06:42.000Z</time>
      </trkpt>
      <trkpt lat="45.0615" lon="2.60658">
        <ele>1036.4000244141</ele>
        <time>2020-08-03T06:06:45.000Z</time>
      </trkpt>
      <trkpt lat="45.06151" lon="2.60659">
        <ele>1036.1999511719</ele>
        <time>2020-08-03T06:06:46.000Z</time>
      </trkpt>
      <trkpt lat="45.06155" lon="2.60662">
        <ele>1035.5999755859</ele>
        <time>2020-08-03T06:06:51.000Z</time>
      </trkpt>
      <trkpt lat="45.06156" lon="2.60662">
        <ele>1035.1999511719</ele>
        <time>2020-08-03T06:06:52.000Z</time>
      </trkpt>
      <trkpt lat="45.06163" lon="2.60661">
        <ele>1034.5999755859</ele>
        <time>2020-08-03T06:06:58.000Z</time>
      </trkpt>
      <trkpt lat="45.06164" lon="2.6066">
        <ele>1034.1999511719</ele>
        <time>2020-08-03T06:07:00.000Z</time>
      </trkpt>
      <trkpt lat="45.06171" lon="2.60658">
        <ele>1034</ele>
        <time>2020-08-03T06:07:07.000Z</time>
      </trkpt>
      <trkpt lat="45.06179" lon="2.6066">
        <ele>1034.4000244141</ele>
        <time>2020-08-03T06:07:13.000Z</time>
      </trkpt>
      <trkpt lat="45.06185" lon="2.60664">
        <ele>1034.1999511719</ele>
        <time>2020-08-03T06:07:20.000Z</time>
      </trkpt>
      <trkpt lat="45.06187" lon="2.60665">
        <ele>1034</ele>
        <time>2020-08-03T06:07:22.000Z</time>
      </trkpt>
      <trkpt lat="45.06194" lon="2.6067">
        <ele>1033.5999755859</ele>
        <time>2020-08-03T06:07:28.000Z</time>
      </trkpt>
      <trkpt lat="45.06201" lon="2.6067">
        <ele>1033.5999755859</ele>
        <time>2020-08-03T06:07:33.000Z</time>
      </trkpt>
      <trkpt lat="45.06203" lon="2.6067">
        <ele>1033.4000244141</ele>
        <time>2020-08-03T06:07:34.000Z</time>
      </trkpt>
      <trkpt lat="45.06206" lon="2.60669">
        <ele>1033.4000244141</ele>
        <time>2020-08-03T06:07:36.000Z</time>
      </trkpt>
      <trkpt lat="45.06209" lon="2.60669">
        <ele>1033.4000244141</ele>
        <time>2020-08-03T06:07:38.000Z</time>
      </trkpt>
      <trkpt lat="45.06215" lon="2.60669">
        <ele>1033.1999511719</ele>
        <time>2020-08-03T06:07:44.000Z</time>
      </trkpt>
      <trkpt lat="45.06222" lon="2.60667">
        <ele>1032.1999511719</ele>
        <time>2020-08-03T06:07:50.000Z</time>
      </trkpt>
      <trkpt lat="45.06225" lon="2.60666">
        <ele>1032.1999511719</ele>
        <time>2020-08-03T06:07:52.000Z</time>
      </trkpt>
      <trkpt lat="45.0624" lon="2.60665">
        <ele>1032.1999511719</ele>
        <time>2020-08-03T06:08:00.000Z</time>
      </trkpt>
      <trkpt lat="45.06251" lon="2.60663">
        <ele>1032.5999755859</ele>
        <time>2020-08-03T06:08:07.000Z</time>
      </trkpt>
      <trkpt lat="45.06257" lon="2.60661">
        <ele>1032.1999511719</ele>
        <time>2020-08-03T06:08:14.000Z</time>
      </trkpt>
      <trkpt lat="45.0626" lon="2.60658">
        <ele>1032.1999511719</ele>
        <time>2020-08-03T06:08:21.000Z</time>
      </trkpt>
      <trkpt lat="45.06269" lon="2.60653">
        <ele>1031.8000488281</ele>
        <time>2020-08-03T06:08:29.000Z</time>
      </trkpt>
      <trkpt lat="45.06275" lon="2.60648">
        <ele>1031.1999511719</ele>
        <time>2020-08-03T06:08:35.000Z</time>
      </trkpt>
      <trkpt lat="45.06276" lon="2.60647">
        <ele>1031.1999511719</ele>
        <time>2020-08-03T06:08:36.000Z</time>
      </trkpt>
      <trkpt lat="45.06286" lon="2.60644">
        <ele>1031.1999511719</ele>
        <time>2020-08-03T06:08:44.000Z</time>
      </trkpt>
      <trkpt lat="45.06292" lon="2.60641">
        <ele>1030.5999755859</ele>
        <time>2020-08-03T06:08:51.000Z</time>
      </trkpt>
      <trkpt lat="45.06296" lon="2.60637">
        <ele>1030.1999511719</ele>
        <time>2020-08-03T06:08:57.000Z</time>
      </trkpt>
      <trkpt lat="45.06304" lon="2.60634">
        <ele>1029.1999511719</ele>
        <time>2020-08-03T06:09:04.000Z</time>
      </trkpt>
      <trkpt lat="45.06305" lon="2.60633">
        <ele>1029</ele>
        <time>2020-08-03T06:09:05.000Z</time>
      </trkpt>
      <trkpt lat="45.06311" lon="2.60631">
        <ele>1027.8000488281</ele>
        <time>2020-08-03T06:09:11.000Z</time>
      </trkpt>
      <trkpt lat="45.06316" lon="2.6063">
        <ele>1026.8000488281</ele>
        <time>2020-08-03T06:09:15.000Z</time>
      </trkpt>
      <trkpt lat="45.06322" lon="2.6063">
        <ele>1026.4000244141</ele>
        <time>2020-08-03T06:09:19.000Z</time>
      </trkpt>
      <trkpt lat="45.06329" lon="2.60632">
        <ele>1026</ele>
        <time>2020-08-03T06:09:26.000Z</time>
      </trkpt>
      <trkpt lat="45.0633" lon="2.60633">
        <ele>1025.8000488281</ele>
        <time>2020-08-03T06:09:27.000Z</time>
      </trkpt>
      <trkpt lat="45.06332" lon="2.60633">
        <ele>1025.5999755859</ele>
        <time>2020-08-03T06:09:29.000Z</time>
      </trkpt>
      <trkpt lat="45.06334" lon="2.60634">
        <ele>1025.4000244141</ele>
        <time>2020-08-03T06:09:31.000Z</time>
      </trkpt>
      <trkpt lat="45.0634" lon="2.60634">
        <ele>1025.1999511719</ele>
        <time>2020-08-03T06:09:37.000Z</time>
      </trkpt>
      <trkpt lat="45.06341" lon="2.60635">
        <ele>1025.1999511719</ele>
        <time>2020-08-03T06:09:39.000Z</time>
      </trkpt>
      <trkpt lat="45.06349" lon="2.60638">
        <ele>1025.5999755859</ele>
        <time>2020-08-03T06:09:44.000Z</time>
      </trkpt>
      <trkpt lat="45.06356" lon="2.6064">
        <ele>1025</ele>
        <time>2020-08-03T06:09:51.000Z</time>
      </trkpt>
      <trkpt lat="45.06357" lon="2.60641">
        <ele>1024.8000488281</ele>
        <time>2020-08-03T06:09:53.000Z</time>
      </trkpt>
      <trkpt lat="45.06358" lon="2.6064">
        <ele>1024.5999755859</ele>
        <time>2020-08-03T06:09:54.000Z</time>
      </trkpt>
      <trkpt lat="45.0636" lon="2.60641">
        <ele>1024.4000244141</ele>
        <time>2020-08-03T06:09:55.000Z</time>
      </trkpt>
      <trkpt lat="45.06361" lon="2.60644">
        <ele>1024</ele>
        <time>2020-08-03T06:09:57.000Z</time>
      </trkpt>
      <trkpt lat="45.06362" lon="2.60647">
        <ele>1023.5999755859</ele>
        <time>2020-08-03T06:10:00.000Z</time>
      </trkpt>
      <trkpt lat="45.06364" lon="2.60653">
        <ele>1024</ele>
        <time>2020-08-03T06:10:05.000Z</time>
      </trkpt>
      <trkpt lat="45.06367" lon="2.60659">
        <ele>1024.5999755859</ele>
        <time>2020-08-03T06:10:09.000Z</time>
      </trkpt>
      <trkpt lat="45.06369" lon="2.60662">
        <ele>1025</ele>
        <time>2020-08-03T06:10:12.000Z</time>
      </trkpt>
      <trkpt lat="45.0637" lon="2.60663">
        <ele>1025.1999511719</ele>
        <time>2020-08-03T06:10:18.000Z</time>
      </trkpt>
      <trkpt lat="45.0637" lon="2.60665">
        <ele>1025</ele>
        <time>2020-08-03T06:10:20.000Z</time>
      </trkpt>
      <trkpt lat="45.06374" lon="2.6067">
        <ele>1024.5999755859</ele>
        <time>2020-08-03T06:10:24.000Z</time>
      </trkpt>
      <trkpt lat="45.06381" lon="2.60671">
        <ele>1024.1999511719</ele>
        <time>2020-08-03T06:10:31.000Z</time>
      </trkpt>
      <trkpt lat="45.06382" lon="2.60671">
        <ele>1024</ele>
        <time>2020-08-03T06:10:32.000Z</time>
      </trkpt>
      <trkpt lat="45.06387" lon="2.60672">
        <ele>1023.799987793</ele>
        <time>2020-08-03T06:10:39.000Z</time>
      </trkpt>
      <trkpt lat="45.06389" lon="2.60671">
        <ele>1023.5999755859</ele>
        <time>2020-08-03T06:10:42.000Z</time>
      </trkpt>
      <trkpt lat="45.06394" lon="2.60672">
        <ele>1022.799987793</ele>
        <time>2020-08-03T06:10:47.000Z</time>
      </trkpt>
      <trkpt lat="45.06404" lon="2.60675">
        <ele>1022.799987793</ele>
        <time>2020-08-03T06:10:53.000Z</time>
      </trkpt>
      <trkpt lat="45.06411" lon="2.60681">
        <ele>1023</ele>
        <time>2020-08-03T06:10:59.000Z</time>
      </trkpt>
      <trkpt lat="45.06413" lon="2.60682">
        <ele>1022.799987793</ele>
        <time>2020-08-03T06:11:00.000Z</time>
      </trkpt>
      <trkpt lat="45.06415" lon="2.60685">
        <ele>1022.4000244141</ele>
        <time>2020-08-03T06:11:02.000Z</time>
      </trkpt>
      <trkpt lat="45.06419" lon="2.6069">
        <ele>1021.4000244141</ele>
        <time>2020-08-03T06:11:06.000Z</time>
      </trkpt>
      <trkpt lat="45.06419" lon="2.60691">
        <ele>1021.200012207</ele>
        <time>2020-08-03T06:11:07.000Z</time>
      </trkpt>
      <trkpt lat="45.06421" lon="2.60693">
        <ele>1020.4000244141</ele>
        <time>2020-08-03T06:11:12.000Z</time>
      </trkpt>
      <trkpt lat="45.06425" lon="2.60704">
        <ele>1020</ele>
        <time>2020-08-03T06:11:18.000Z</time>
      </trkpt>
      <trkpt lat="45.06429" lon="2.60708">
        <ele>1019.4000244141</ele>
        <time>2020-08-03T06:11:23.000Z</time>
      </trkpt>
      <trkpt lat="45.0643" lon="2.60709">
        <ele>1019.200012207</ele>
        <time>2020-08-03T06:11:24.000Z</time>
      </trkpt>
      <trkpt lat="45.06438" lon="2.60713">
        <ele>1018.200012207</ele>
        <time>2020-08-03T06:11:31.000Z</time>
      </trkpt>
      <trkpt lat="45.06439" lon="2.60714">
        <ele>1018.200012207</ele>
        <time>2020-08-03T06:11:32.000Z</time>
      </trkpt>
      <trkpt lat="45.06441" lon="2.60716">
        <ele>1018.200012207</ele>
        <time>2020-08-03T06:11:34.000Z</time>
      </trkpt>
      <trkpt lat="45.06445" lon="2.60717">
        <ele>1018.200012207</ele>
        <time>2020-08-03T06:11:38.000Z</time>
      </trkpt>
      <trkpt lat="45.06451" lon="2.60719">
        <ele>1018.200012207</ele>
        <time>2020-08-03T06:11:45.000Z</time>
      </trkpt>
      <trkpt lat="45.06456" lon="2.60724">
        <ele>1018.5999755859</ele>
        <time>2020-08-03T06:11:51.000Z</time>
      </trkpt>
      <trkpt lat="45.06465" lon="2.60725">
        <ele>1018.5999755859</ele>
        <time>2020-08-03T06:11:56.000Z</time>
      </trkpt>
      <trkpt lat="45.06477" lon="2.60725">
        <ele>1018.4000244141</ele>
        <time>2020-08-03T06:12:02.000Z</time>
      </trkpt>
      <trkpt lat="45.06485" lon="2.60724">
        <ele>1017.5999755859</ele>
        <time>2020-08-03T06:12:10.000Z</time>
      </trkpt>
      <trkpt lat="45.06487" lon="2.60724">
        <ele>1017.799987793</ele>
        <time>2020-08-03T06:12:12.000Z</time>
      </trkpt>
      <trkpt lat="45.0649" lon="2.60722">
        <ele>1017.799987793</ele>
        <time>2020-08-03T06:12:16.000Z</time>
      </trkpt>
      <trkpt lat="45.06493" lon="2.60723">
        <ele>1018</ele>
        <time>2020-08-03T06:12:20.000Z</time>
      </trkpt>
      <trkpt lat="45.06496" lon="2.60723">
        <ele>1018</ele>
        <time>2020-08-03T06:12:23.000Z</time>
      </trkpt>
      <trkpt lat="45.06503" lon="2.60716">
        <ele>1018.4000244141</ele>
        <time>2020-08-03T06:12:31.000Z</time>
      </trkpt>
      <trkpt lat="45.06505" lon="2.60716">
        <ele>1018.4000244141</ele>
        <time>2020-08-03T06:12:33.000Z</time>
      </trkpt>
      <trkpt lat="45.06515" lon="2.60712">
        <ele>1019</ele>
        <time>2020-08-03T06:12:38.000Z</time>
      </trkpt>
      <trkpt lat="45.06518" lon="2.60713">
        <ele>1019.200012207</ele>
        <time>2020-08-03T06:12:42.000Z</time>
      </trkpt>
      <trkpt lat="45.06521" lon="2.60712">
        <ele>1019.799987793</ele>
        <time>2020-08-03T06:12:45.000Z</time>
      </trkpt>
      <trkpt lat="45.06523" lon="2.60712">
        <ele>1020.4000244141</ele>
        <time>2020-08-03T06:12:48.000Z</time>
      </trkpt>
      <trkpt lat="45.06529" lon="2.60711">
        <ele>1021.200012207</ele>
        <time>2020-08-03T06:12:54.000Z</time>
      </trkpt>
      <trkpt lat="45.06531" lon="2.6071">
        <ele>1021.4000244141</ele>
        <time>2020-08-03T06:12:57.000Z</time>
      </trkpt>
      <trkpt lat="45.06534" lon="2.60711">
        <ele>1022.200012207</ele>
        <time>2020-08-03T06:13:03.000Z</time>
      </trkpt>
      <trkpt lat="45.06535" lon="2.6071">
        <ele>1022.5999755859</ele>
        <time>2020-08-03T06:13:05.000Z</time>
      </trkpt>
      <trkpt lat="45.0654" lon="2.6071">
        <ele>1023.4000244141</ele>
        <time>2020-08-03T06:13:13.000Z</time>
      </trkpt>
      <trkpt lat="45.06543" lon="2.60711">
        <ele>1023.5999755859</ele>
        <time>2020-08-03T06:13:17.000Z</time>
      </trkpt>
      <trkpt lat="45.0655" lon="2.60709">
        <ele>1024.1999511719</ele>
        <time>2020-08-03T06:13:21.000Z</time>
      </trkpt>
      <trkpt lat="45.06562" lon="2.60707">
        <ele>1024.4000244141</ele>
        <time>2020-08-03T06:13:27.000Z</time>
      </trkpt>
      <trkpt lat="45.06563" lon="2.60703">
        <ele>1024.5999755859</ele>
        <time>2020-08-03T06:13:29.000Z</time>
      </trkpt>
      <trkpt lat="45.06565" lon="2.60703">
        <ele>1024.5999755859</ele>
        <time>2020-08-03T06:13:31.000Z</time>
      </trkpt>
      <trkpt lat="45.06572" lon="2.60701">
        <ele>1023.799987793</ele>
        <time>2020-08-03T06:13:39.000Z</time>
      </trkpt>
      <trkpt lat="45.06572" lon="2.60702">
        <ele>1023.5999755859</ele>
        <time>2020-08-03T06:13:40.000Z</time>
      </trkpt>
      <trkpt lat="45.06575" lon="2.607">
        <ele>1023</ele>
        <time>2020-08-03T06:13:43.000Z</time>
      </trkpt>
      <trkpt lat="45.06579" lon="2.60701">
        <ele>1022.5999755859</ele>
        <time>2020-08-03T06:13:46.000Z</time>
      </trkpt>
      <trkpt lat="45.06583" lon="2.60705">
        <ele>1023</ele>
        <time>2020-08-03T06:13:51.000Z</time>
      </trkpt>
      <trkpt lat="45.06582" lon="2.60707">
        <ele>1023</ele>
        <time>2020-08-03T06:13:52.000Z</time>
      </trkpt>
      <trkpt lat="45.06593" lon="2.60709">
        <ele>1024</ele>
        <time>2020-08-03T06:13:59.000Z</time>
      </trkpt>
      <trkpt lat="45.06597" lon="2.60711">
        <ele>1024.5999755859</ele>
        <time>2020-08-03T06:14:06.000Z</time>
      </trkpt>
      <trkpt lat="45.06599" lon="2.60712">
        <ele>1025</ele>
        <time>2020-08-03T06:14:08.000Z</time>
      </trkpt>
      <trkpt lat="45.06604" lon="2.60717">
        <ele>1025.4000244141</ele>
        <time>2020-08-03T06:14:14.000Z</time>
      </trkpt>
      <trkpt lat="45.06606" lon="2.6072">
        <ele>1025.8000488281</ele>
        <time>2020-08-03T06:14:16.000Z</time>
      </trkpt>
      <trkpt lat="45.06604" lon="2.6073">
        <ele>1026.1999511719</ele>
        <time>2020-08-03T06:14:18.000Z</time>
      </trkpt>
      <trkpt lat="45.06605" lon="2.60734">
        <ele>1026.8000488281</ele>
        <time>2020-08-03T06:14:21.000Z</time>
      </trkpt>
      <trkpt lat="45.06608" lon="2.60738">
        <ele>1028</ele>
        <time>2020-08-03T06:14:28.000Z</time>
      </trkpt>
      <trkpt lat="45.06609" lon="2.60737">
        <ele>1028.5999755859</ele>
        <time>2020-08-03T06:14:31.000Z</time>
      </trkpt>
      <trkpt lat="45.06613" lon="2.60736">
        <ele>1029</ele>
        <time>2020-08-03T06:14:35.000Z</time>
      </trkpt>
      <trkpt lat="45.06616" lon="2.60738">
        <ele>1030.1999511719</ele>
        <time>2020-08-03T06:14:41.000Z</time>
      </trkpt>
      <trkpt lat="45.06629" lon="2.6074">
        <ele>1031</ele>
        <time>2020-08-03T06:14:49.000Z</time>
      </trkpt>
      <trkpt lat="45.06632" lon="2.6074">
        <ele>1031.1999511719</ele>
        <time>2020-08-03T06:14:50.000Z</time>
      </trkpt>
      <trkpt lat="45.0664" lon="2.6074">
        <ele>1032.1999511719</ele>
        <time>2020-08-03T06:14:56.000Z</time>
      </trkpt>
      <trkpt lat="45.06643" lon="2.60749">
        <ele>1033.1999511719</ele>
        <time>2020-08-03T06:15:04.000Z</time>
      </trkpt>
      <trkpt lat="45.06643" lon="2.60749">
        <ele>1033.4000244141</ele>
        <time>2020-08-03T06:15:06.000Z</time>
      </trkpt>
      <trkpt lat="45.06645" lon="2.60748">
        <ele>1034.4000244141</ele>
        <time>2020-08-03T06:15:11.000Z</time>
      </trkpt>
      <trkpt lat="45.06645" lon="2.60747">
        <ele>1035</ele>
        <time>2020-08-03T06:15:13.000Z</time>
      </trkpt>
      <trkpt lat="45.06647" lon="2.60745">
        <ele>1035.5999755859</ele>
        <time>2020-08-03T06:15:17.000Z</time>
      </trkpt>
      <trkpt lat="45.06648" lon="2.60744">
        <ele>1036.4000244141</ele>
        <time>2020-08-03T06:15:22.000Z</time>
      </trkpt>
      <trkpt lat="45.06648" lon="2.60744">
        <ele>1036.8000488281</ele>
        <time>2020-08-03T06:15:24.000Z</time>
      </trkpt>
      <trkpt lat="45.06654" lon="2.60745">
        <ele>1037.5999755859</ele>
        <time>2020-08-03T06:15:30.000Z</time>
      </trkpt>
      <trkpt lat="45.06653" lon="2.60748">
        <ele>1037.8000488281</ele>
        <time>2020-08-03T06:15:31.000Z</time>
      </trkpt>
      <trkpt lat="45.06652" lon="2.60748">
        <ele>1038.8000488281</ele>
        <time>2020-08-03T06:15:36.000Z</time>
      </trkpt>
      <trkpt lat="45.06653" lon="2.60747">
        <ele>1039</ele>
        <time>2020-08-03T06:15:38.000Z</time>
      </trkpt>
      <trkpt lat="45.06657" lon="2.60745">
        <ele>1039.8000488281</ele>
        <time>2020-08-03T06:15:44.000Z</time>
      </trkpt>
      <trkpt lat="45.06657" lon="2.60745">
        <ele>1040</ele>
        <time>2020-08-03T06:15:45.000Z</time>
      </trkpt>
      <trkpt lat="45.06664" lon="2.60739">
        <ele>1041.1999511719</ele>
        <time>2020-08-03T06:15:52.000Z</time>
      </trkpt>
      <trkpt lat="45.06667" lon="2.60736">
        <ele>1042.1999511719</ele>
        <time>2020-08-03T06:16:00.000Z</time>
      </trkpt>
      <trkpt lat="45.06667" lon="2.60735">
        <ele>1042.4000244141</ele>
        <time>2020-08-03T06:16:01.000Z</time>
      </trkpt>
      <trkpt lat="45.06669" lon="2.60737">
        <ele>1043.4000244141</ele>
        <time>2020-08-03T06:16:07.000Z</time>
      </trkpt>
      <trkpt lat="45.06675" lon="2.60738">
        <ele>1043.5999755859</ele>
        <time>2020-08-03T06:16:09.000Z</time>
      </trkpt>
      <trkpt lat="45.06682" lon="2.60736">
        <ele>1044.4000244141</ele>
        <time>2020-08-03T06:16:14.000Z</time>
      </trkpt>
      <trkpt lat="45.06686" lon="2.60738">
        <ele>1045.1999511719</ele>
        <time>2020-08-03T06:16:19.000Z</time>
      </trkpt>
      <trkpt lat="45.06687" lon="2.60738">
        <ele>1045.5999755859</ele>
        <time>2020-08-03T06:16:20.000Z</time>
      </trkpt>
      <trkpt lat="45.06686" lon="2.60736">
        <ele>1046.4000244141</ele>
        <time>2020-08-03T06:16:27.000Z</time>
      </trkpt>
      <trkpt lat="45.06686" lon="2.60736">
        <ele>1046.5999755859</ele>
        <time>2020-08-03T06:16:28.000Z</time>
      </trkpt>
      <trkpt lat="45.06688" lon="2.60729">
        <ele>1047.5999755859</ele>
        <time>2020-08-03T06:16:35.000Z</time>
      </trkpt>
      <trkpt lat="45.06688" lon="2.60726">
        <ele>1048.8000488281</ele>
        <time>2020-08-03T06:16:40.000Z</time>
      </trkpt>
      <trkpt lat="45.06686" lon="2.60727">
        <ele>1049.1999511719</ele>
        <time>2020-08-03T06:16:42.000Z</time>
      </trkpt>
      <trkpt lat="45.06686" lon="2.60724">
        <ele>1049.8000488281</ele>
        <time>2020-08-03T06:16:48.000Z</time>
      </trkpt>
      <trkpt lat="45.06688" lon="2.60724">
        <ele>1050.8000488281</ele>
        <time>2020-08-03T06:16:52.000Z</time>
      </trkpt>
      <trkpt lat="45.06691" lon="2.60722">
        <ele>1051</ele>
        <time>2020-08-03T06:16:55.000Z</time>
      </trkpt>
      <trkpt lat="45.06693" lon="2.60722">
        <ele>1051.1999511719</ele>
        <time>2020-08-03T06:17:00.000Z</time>
      </trkpt>
      <trkpt lat="45.06691" lon="2.60721">
        <ele>1051.1999511719</ele>
        <time>2020-08-03T06:17:10.000Z</time>
      </trkpt>
      <trkpt lat="45.06688" lon="2.60723">
        <ele>1051.4000244141</ele>
        <time>2020-08-03T06:17:16.000Z</time>
      </trkpt>
      <trkpt lat="45.06688" lon="2.60726">
        <ele>1049.5999755859</ele>
        <time>2020-08-03T06:17:20.000Z</time>
      </trkpt>
      <trkpt lat="45.06691" lon="2.60728">
        <ele>1049</ele>
        <time>2020-08-03T06:17:24.000Z</time>
      </trkpt>
      <trkpt lat="45.06694" lon="2.60726">
        <ele>1049.1999511719</ele>
        <time>2020-08-03T06:17:30.000Z</time>
      </trkpt>
      <trkpt lat="45.06712" lon="2.60727">
        <ele>1050.5999755859</ele>
        <time>2020-08-03T06:17:36.000Z</time>
      </trkpt>
      <trkpt lat="45.06714" lon="2.60726">
        <ele>1051.8000488281</ele>
        <time>2020-08-03T06:17:43.000Z</time>
      </trkpt>
      <trkpt lat="45.06714" lon="2.60725">
        <ele>1052.8000488281</ele>
        <time>2020-08-03T06:17:49.000Z</time>
      </trkpt>
      <trkpt lat="45.06715" lon="2.60724">
        <ele>1053</ele>
        <time>2020-08-03T06:17:50.000Z</time>
      </trkpt>
      <trkpt lat="45.06717" lon="2.60724">
        <ele>1053.8000488281</ele>
        <time>2020-08-03T06:17:55.000Z</time>
      </trkpt>
      <trkpt lat="45.0672" lon="2.60723">
        <ele>1054</ele>
        <time>2020-08-03T06:17:57.000Z</time>
      </trkpt>
      <trkpt lat="45.06721" lon="2.60722">
        <ele>1054.1999511719</ele>
        <time>2020-08-03T06:17:58.000Z</time>
      </trkpt>
      <trkpt lat="45.06724" lon="2.60721">
        <ele>1054.8000488281</ele>
        <time>2020-08-03T06:18:02.000Z</time>
      </trkpt>
      <trkpt lat="45.06725" lon="2.60723">
        <ele>1055.1999511719</ele>
        <time>2020-08-03T06:18:06.000Z</time>
      </trkpt>
      <trkpt lat="45.06731" lon="2.60722">
        <ele>1056</ele>
        <time>2020-08-03T06:18:11.000Z</time>
      </trkpt>
      <trkpt lat="45.06733" lon="2.60722">
        <ele>1056.4000244141</ele>
        <time>2020-08-03T06:18:13.000Z</time>
      </trkpt>
      <trkpt lat="45.06735" lon="2.60722">
        <ele>1057</ele>
        <time>2020-08-03T06:18:16.000Z</time>
      </trkpt>
      <trkpt lat="45.06734" lon="2.60723">
        <ele>1057.4000244141</ele>
        <time>2020-08-03T06:18:21.000Z</time>
      </trkpt>
      <trkpt lat="45.06734" lon="2.60725">
        <ele>1058</ele>
        <time>2020-08-03T06:18:23.000Z</time>
      </trkpt>
      <trkpt lat="45.06736" lon="2.6073">
        <ele>1059.1999511719</ele>
        <time>2020-08-03T06:18:29.000Z</time>
      </trkpt>
      <trkpt lat="45.06737" lon="2.60732">
        <ele>1059.5999755859</ele>
        <time>2020-08-03T06:18:31.000Z</time>
      </trkpt>
      <trkpt lat="45.06739" lon="2.60733">
        <ele>1060.1999511719</ele>
        <time>2020-08-03T06:18:35.000Z</time>
      </trkpt>
      <trkpt lat="45.06746" lon="2.60733">
        <ele>1061</ele>
        <time>2020-08-03T06:18:39.000Z</time>
      </trkpt>
      <trkpt lat="45.06745" lon="2.60735">
        <ele>1061.4000244141</ele>
        <time>2020-08-03T06:18:41.000Z</time>
      </trkpt>
      <trkpt lat="45.06746" lon="2.60736">
        <ele>1062.1999511719</ele>
        <time>2020-08-03T06:18:46.000Z</time>
      </trkpt>
      <trkpt lat="45.06746" lon="2.60736">
        <ele>1062.4000244141</ele>
        <time>2020-08-03T06:18:48.000Z</time>
      </trkpt>
      <trkpt lat="45.0675" lon="2.60736">
        <ele>1063</ele>
        <time>2020-08-03T06:18:55.000Z</time>
      </trkpt>
      <trkpt lat="45.06751" lon="2.6073">
        <ele>1063</ele>
        <time>2020-08-03T06:19:02.000Z</time>
      </trkpt>
      <trkpt lat="45.06748" lon="2.6073">
        <ele>1063.1999511719</ele>
        <time>2020-08-03T06:19:08.000Z</time>
      </trkpt>
      <trkpt lat="45.06746" lon="2.60746">
        <ele>1063.1999511719</ele>
        <time>2020-08-03T06:19:16.000Z</time>
      </trkpt>
      <trkpt lat="45.06745" lon="2.60751">
        <ele>1063.4000244141</ele>
        <time>2020-08-03T06:19:19.000Z</time>
      </trkpt>
      <trkpt lat="45.06744" lon="2.60754">
        <ele>1063.1999511719</ele>
        <time>2020-08-03T06:19:24.000Z</time>
      </trkpt>
      <trkpt lat="45.06746" lon="2.6075">
        <ele>1063</ele>
        <time>2020-08-03T06:19:31.000Z</time>
      </trkpt>
      <trkpt lat="45.06749" lon="2.60745">
        <ele>1062.8000488281</ele>
        <time>2020-08-03T06:19:40.000Z</time>
      </trkpt>
      <trkpt lat="45.06749" lon="2.60743">
        <ele>1063</ele>
        <time>2020-08-03T06:19:49.000Z</time>
      </trkpt>
      <trkpt lat="45.06747" lon="2.60742">
        <ele>1063</ele>
        <time>2020-08-03T06:19:58.000Z</time>
      </trkpt>
      <trkpt lat="45.06746" lon="2.6074">
        <ele>1063</ele>
        <time>2020-08-03T06:20:06.000Z</time>
      </trkpt>
      <trkpt lat="45.06747" lon="2.60739">
        <ele>1063</ele>
        <time>2020-08-03T06:20:11.000Z</time>
      </trkpt>
      <trkpt lat="45.0675" lon="2.60736">
        <ele>1063</ele>
        <time>2020-08-03T06:20:16.000Z</time>
      </trkpt>
      <trkpt lat="45.06751" lon="2.60735">
        <ele>1063</ele>
        <time>2020-08-03T06:20:17.000Z</time>
      </trkpt>
      <trkpt lat="45.06755" lon="2.6073">
        <ele>1062.5999755859</ele>
        <time>2020-08-03T06:20:24.000Z</time>
      </trkpt>
      <trkpt lat="45.06756" lon="2.60729">
        <ele>1062.8000488281</ele>
        <time>2020-08-03T06:20:25.000Z</time>
      </trkpt>
      <trkpt lat="45.06759" lon="2.60722">
        <ele>1063</ele>
        <time>2020-08-03T06:20:30.000Z</time>
      </trkpt>
      <trkpt lat="45.06766" lon="2.60717">
        <ele>1063.1999511719</ele>
        <time>2020-08-03T06:20:38.000Z</time>
      </trkpt>
      <trkpt lat="45.06777" lon="2.60713">
        <ele>1062.8000488281</ele>
        <time>2020-08-03T06:20:46.000Z</time>
      </trkpt>
      <trkpt lat="45.06783" lon="2.60703">
        <ele>1063</ele>
        <time>2020-08-03T06:20:56.000Z</time>
      </trkpt>
      <trkpt lat="45.06784" lon="2.60699">
        <ele>1062.4000244141</ele>
        <time>2020-08-03T06:21:00.000Z</time>
      </trkpt>
      <trkpt lat="45.06791" lon="2.60699">
        <ele>1062.1999511719</ele>
        <time>2020-08-03T06:21:04.000Z</time>
      </trkpt>
      <trkpt lat="45.06793" lon="2.60694">
        <ele>1062.4000244141</ele>
        <time>2020-08-03T06:21:08.000Z</time>
      </trkpt>
      <trkpt lat="45.06796" lon="2.60692">
        <ele>1062.4000244141</ele>
        <time>2020-08-03T06:21:10.000Z</time>
      </trkpt>
      <trkpt lat="45.06811" lon="2.6069">
        <ele>1062.1999511719</ele>
        <time>2020-08-03T06:21:19.000Z</time>
      </trkpt>
      <trkpt lat="45.06812" lon="2.60687">
        <ele>1062.4000244141</ele>
        <time>2020-08-03T06:21:26.000Z</time>
      </trkpt>
      <trkpt lat="45.06817" lon="2.60689">
        <ele>1062.4000244141</ele>
        <time>2020-08-03T06:21:32.000Z</time>
      </trkpt>
      <trkpt lat="45.0683" lon="2.60695">
        <ele>1062.4000244141</ele>
        <time>2020-08-03T06:21:40.000Z</time>
      </trkpt>
      <trkpt lat="45.06839" lon="2.60698">
        <ele>1062.4000244141</ele>
        <time>2020-08-03T06:21:47.000Z</time>
      </trkpt>
      <trkpt lat="45.06845" lon="2.60696">
        <ele>1062.4000244141</ele>
        <time>2020-08-03T06:21:54.000Z</time>
      </trkpt>
      <trkpt lat="45.06846" lon="2.60699">
        <ele>1062.4000244141</ele>
        <time>2020-08-03T06:22:02.000Z</time>
      </trkpt>
      <trkpt lat="45.06852" lon="2.60703">
        <ele>1062.4000244141</ele>
        <time>2020-08-03T06:22:10.000Z</time>
      </trkpt>
      <trkpt lat="45.0685" lon="2.60708">
        <ele>1062.4000244141</ele>
        <time>2020-08-03T06:22:18.000Z</time>
      </trkpt>
      <trkpt lat="45.06853" lon="2.60714">
        <ele>1070.4000244141</ele>
        <time>2020-08-03T06:22:26.000Z</time>
      </trkpt>
      <trkpt lat="45.06853" lon="2.60715">
        <ele>1070.1999511719</ele>
        <time>2020-08-03T06:22:27.000Z</time>
      </trkpt>
      <trkpt lat="45.06854" lon="2.60717">
        <ele>1071</ele>
        <time>2020-08-03T06:22:35.000Z</time>
      </trkpt>
      <trkpt lat="45.06854" lon="2.60721">
        <ele>1071.5999755859</ele>
        <time>2020-08-03T06:22:39.000Z</time>
      </trkpt>
      <trkpt lat="45.06854" lon="2.60722">
        <ele>1072.1999511719</ele>
        <time>2020-08-03T06:22:41.000Z</time>
      </trkpt>
      <trkpt lat="45.06855" lon="2.60727">
        <ele>1072.8000488281</ele>
        <time>2020-08-03T06:22:45.000Z</time>
      </trkpt>
      <trkpt lat="45.06856" lon="2.60728">
        <ele>1072.8000488281</ele>
        <time>2020-08-03T06:22:46.000Z</time>
      </trkpt>
      <trkpt lat="45.06856" lon="2.60731">
        <ele>1073</ele>
        <time>2020-08-03T06:22:48.000Z</time>
      </trkpt>
      <trkpt lat="45.06856" lon="2.60733">
        <ele>1073.4000244141</ele>
        <time>2020-08-03T06:22:49.000Z</time>
      </trkpt>
      <trkpt lat="45.06857" lon="2.60738">
        <ele>1074</ele>
        <time>2020-08-03T06:22:52.000Z</time>
      </trkpt>
      <trkpt lat="45.06858" lon="2.60742">
        <ele>1074.1999511719</ele>
        <time>2020-08-03T06:22:55.000Z</time>
      </trkpt>
      <trkpt lat="45.06858" lon="2.60748">
        <ele>1074.8000488281</ele>
        <time>2020-08-03T06:23:02.000Z</time>
      </trkpt>
      <trkpt lat="45.06859" lon="2.60752">
        <ele>1074.5999755859</ele>
        <time>2020-08-03T06:23:08.000Z</time>
      </trkpt>
      <trkpt lat="45.06859" lon="2.60754">
        <ele>1074.5999755859</ele>
        <time>2020-08-03T06:23:09.000Z</time>
      </trkpt>
      <trkpt lat="45.06862" lon="2.60764">
        <ele>1074.1999511719</ele>
        <time>2020-08-03T06:23:14.000Z</time>
      </trkpt>
      <trkpt lat="45.0687" lon="2.6077">
        <ele>1073.8000488281</ele>
        <time>2020-08-03T06:23:21.000Z</time>
      </trkpt>
      <trkpt lat="45.06876" lon="2.60771">
        <ele>1074.4000244141</ele>
        <time>2020-08-03T06:23:29.000Z</time>
      </trkpt>
      <trkpt lat="45.06882" lon="2.60774">
        <ele>1074</ele>
        <time>2020-08-03T06:23:34.000Z</time>
      </trkpt>
      <trkpt lat="45.06885" lon="2.60778">
        <ele>1074.5999755859</ele>
        <time>2020-08-03T06:23:40.000Z</time>
      </trkpt>
      <trkpt lat="45.06887" lon="2.60786">
        <ele>1074.8000488281</ele>
        <time>2020-08-03T06:23:48.000Z</time>
      </trkpt>
      <trkpt lat="45.06892" lon="2.60789">
        <ele>1074.8000488281</ele>
        <time>2020-08-03T06:23:55.000Z</time>
      </trkpt>
      <trkpt lat="45.06893" lon="2.60789">
        <ele>1074.8000488281</ele>
        <time>2020-08-03T06:23:56.000Z</time>
      </trkpt>
      <trkpt lat="45.06897" lon="2.6079">
        <ele>1075</ele>
        <time>2020-08-03T06:24:00.000Z</time>
      </trkpt>
      <trkpt lat="45.06899" lon="2.60791">
        <ele>1075.4000244141</ele>
        <time>2020-08-03T06:24:02.000Z</time>
      </trkpt>
      <trkpt lat="45.069" lon="2.60792">
        <ele>1075.4000244141</ele>
        <time>2020-08-03T06:24:03.000Z</time>
      </trkpt>
      <trkpt lat="45.06905" lon="2.60796">
        <ele>1076</ele>
        <time>2020-08-03T06:24:08.000Z</time>
      </trkpt>
      <trkpt lat="45.06907" lon="2.60797">
        <ele>1076.1999511719</ele>
        <time>2020-08-03T06:24:09.000Z</time>
      </trkpt>
      <trkpt lat="45.0691" lon="2.60798">
        <ele>1076.4000244141</ele>
        <time>2020-08-03T06:24:11.000Z</time>
      </trkpt>
      <trkpt lat="45.06913" lon="2.60799">
        <ele>1077.1999511719</ele>
        <time>2020-08-03T06:24:14.000Z</time>
      </trkpt>
      <trkpt lat="45.06917" lon="2.60796">
        <ele>1077.8000488281</ele>
        <time>2020-08-03T06:24:18.000Z</time>
      </trkpt>
      <trkpt lat="45.0692" lon="2.60794">
        <ele>1078.1999511719</ele>
        <time>2020-08-03T06:24:21.000Z</time>
      </trkpt>
      <trkpt lat="45.06922" lon="2.60791">
        <ele>1078</ele>
        <time>2020-08-03T06:24:25.000Z</time>
      </trkpt>
      <trkpt lat="45.06923" lon="2.60789">
        <ele>1078</ele>
        <time>2020-08-03T06:24:28.000Z</time>
      </trkpt>
      <trkpt lat="45.06928" lon="2.6079">
        <ele>1078.1999511719</ele>
        <time>2020-08-03T06:24:33.000Z</time>
      </trkpt>
      <trkpt lat="45.06938" lon="2.60795">
        <ele>1078</ele>
        <time>2020-08-03T06:24:41.000Z</time>
      </trkpt>
      <trkpt lat="45.06944" lon="2.60796">
        <ele>1077.4000244141</ele>
        <time>2020-08-03T06:24:48.000Z</time>
      </trkpt>
      <trkpt lat="45.06944" lon="2.60796">
        <ele>1077.1999511719</ele>
        <time>2020-08-03T06:24:49.000Z</time>
      </trkpt>
      <trkpt lat="45.06948" lon="2.60802">
        <ele>1076.4000244141</ele>
        <time>2020-08-03T06:24:56.000Z</time>
      </trkpt>
      <trkpt lat="45.06948" lon="2.60802">
        <ele>1076.4000244141</ele>
        <time>2020-08-03T06:25:00.000Z</time>
      </trkpt>
      <trkpt lat="45.0695" lon="2.60803">
        <ele>1076.4000244141</ele>
        <time>2020-08-03T06:25:03.000Z</time>
      </trkpt>
      <trkpt lat="45.06947" lon="2.60801">
        <ele>1076.1999511719</ele>
        <time>2020-08-03T06:25:09.000Z</time>
      </trkpt>
      <trkpt lat="45.06944" lon="2.60802">
        <ele>1076</ele>
        <time>2020-08-03T06:25:12.000Z</time>
      </trkpt>
      <trkpt lat="45.06943" lon="2.60801">
        <ele>1075.8000488281</ele>
        <time>2020-08-03T06:25:16.000Z</time>
      </trkpt>
      <trkpt lat="45.06942" lon="2.60801">
        <ele>1075.5999755859</ele>
        <time>2020-08-03T06:25:26.000Z</time>
      </trkpt>
      <trkpt lat="45.06943" lon="2.60803">
        <ele>1076.4000244141</ele>
        <time>2020-08-03T06:25:35.000Z</time>
      </trkpt>
      <trkpt lat="45.06944" lon="2.60806">
        <ele>1076.5999755859</ele>
        <time>2020-08-03T06:25:37.000Z</time>
      </trkpt>
      <trkpt lat="45.06946" lon="2.60814">
        <ele>1076.5999755859</ele>
        <time>2020-08-03T06:25:41.000Z</time>
      </trkpt>
      <trkpt lat="45.06947" lon="2.60818">
        <ele>1076.8000488281</ele>
        <time>2020-08-03T06:25:44.000Z</time>
      </trkpt>
      <trkpt lat="45.06945" lon="2.60821">
        <ele>1077.1999511719</ele>
        <time>2020-08-03T06:25:46.000Z</time>
      </trkpt>
      <trkpt lat="45.06944" lon="2.60823">
        <ele>1077.1999511719</ele>
        <time>2020-08-03T06:25:47.000Z</time>
      </trkpt>
      <trkpt lat="45.06943" lon="2.60832">
        <ele>1077.5999755859</ele>
        <time>2020-08-03T06:25:52.000Z</time>
      </trkpt>
      <trkpt lat="45.06943" lon="2.60839">
        <ele>1077.5999755859</ele>
        <time>2020-08-03T06:25:57.000Z</time>
      </trkpt>
      <trkpt lat="45.06943" lon="2.60842">
        <ele>1077.5999755859</ele>
        <time>2020-08-03T06:25:59.000Z</time>
      </trkpt>
      <trkpt lat="45.06943" lon="2.60845">
        <ele>1077.8000488281</ele>
        <time>2020-08-03T06:26:01.000Z</time>
      </trkpt>
      <trkpt lat="45.06941" lon="2.60848">
        <ele>1078</ele>
        <time>2020-08-03T06:26:04.000Z</time>
      </trkpt>
      <trkpt lat="45.0694" lon="2.60857">
        <ele>1078</ele>
        <time>2020-08-03T06:26:09.000Z</time>
      </trkpt>
      <trkpt lat="45.06937" lon="2.60862">
        <ele>1077.8000488281</ele>
        <time>2020-08-03T06:26:12.000Z</time>
      </trkpt>
      <trkpt lat="45.06935" lon="2.6087">
        <ele>1077</ele>
        <time>2020-08-03T06:26:18.000Z</time>
      </trkpt>
      <trkpt lat="45.06935" lon="2.60871">
        <ele>1077</ele>
        <time>2020-08-03T06:26:19.000Z</time>
      </trkpt>
      <trkpt lat="45.06939" lon="2.60878">
        <ele>1076</ele>
        <time>2020-08-03T06:26:25.000Z</time>
      </trkpt>
      <trkpt lat="45.06944" lon="2.60885">
        <ele>1074.8000488281</ele>
        <time>2020-08-03T06:26:31.000Z</time>
      </trkpt>
      <trkpt lat="45.06947" lon="2.60889">
        <ele>1073.4000244141</ele>
        <time>2020-08-03T06:26:37.000Z</time>
      </trkpt>
      <trkpt lat="45.06948" lon="2.60891">
        <ele>1072.5999755859</ele>
        <time>2020-08-03T06:26:39.000Z</time>
      </trkpt>
      <trkpt lat="45.06949" lon="2.60893">
        <ele>1072.4000244141</ele>
        <time>2020-08-03T06:26:40.000Z</time>
      </trkpt>
      <trkpt lat="45.06951" lon="2.60897">
        <ele>1071.4000244141</ele>
        <time>2020-08-03T06:26:43.000Z</time>
      </trkpt>
      <trkpt lat="45.06951" lon="2.60898">
        <ele>1071.1999511719</ele>
        <time>2020-08-03T06:26:44.000Z</time>
      </trkpt>
      <trkpt lat="45.06951" lon="2.60907">
        <ele>1071</ele>
        <time>2020-08-03T06:26:50.000Z</time>
      </trkpt>
      <trkpt lat="45.06951" lon="2.60908">
        <ele>1071</ele>
        <time>2020-08-03T06:26:51.000Z</time>
      </trkpt>
      <trkpt lat="45.06948" lon="2.60916">
        <ele>1071.1999511719</ele>
        <time>2020-08-03T06:26:58.000Z</time>
      </trkpt>
      <trkpt lat="45.06948" lon="2.60917">
        <ele>1071.1999511719</ele>
        <time>2020-08-03T06:26:59.000Z</time>
      </trkpt>
      <trkpt lat="45.06944" lon="2.60922">
        <ele>1071.1999511719</ele>
        <time>2020-08-03T06:27:02.000Z</time>
      </trkpt>
      <trkpt lat="45.06941" lon="2.60927">
        <ele>1071.1999511719</ele>
        <time>2020-08-03T06:27:07.000Z</time>
      </trkpt>
      <trkpt lat="45.0694" lon="2.60929">
        <ele>1071.1999511719</ele>
        <time>2020-08-03T06:27:08.000Z</time>
      </trkpt>
      <trkpt lat="45.06935" lon="2.60935">
        <ele>1071.1999511719</ele>
        <time>2020-08-03T06:27:12.000Z</time>
      </trkpt>
      <trkpt lat="45.0693" lon="2.60951">
        <ele>1071.1999511719</ele>
        <time>2020-08-03T06:27:20.000Z</time>
      </trkpt>
      <trkpt lat="45.06928" lon="2.60959">
        <ele>1070.4000244141</ele>
        <time>2020-08-03T06:27:25.000Z</time>
      </trkpt>
      <trkpt lat="45.06928" lon="2.6096">
        <ele>1070.4000244141</ele>
        <time>2020-08-03T06:27:26.000Z</time>
      </trkpt>
      <trkpt lat="45.06931" lon="2.60971">
        <ele>1070.1999511719</ele>
        <time>2020-08-03T06:27:32.000Z</time>
      </trkpt>
      <trkpt lat="45.06932" lon="2.60974">
        <ele>1070.1999511719</ele>
        <time>2020-08-03T06:27:34.000Z</time>
      </trkpt>
      <trkpt lat="45.06941" lon="2.60983">
        <ele>1070</ele>
        <time>2020-08-03T06:27:41.000Z</time>
      </trkpt>
      <trkpt lat="45.06941" lon="2.60987">
        <ele>1069.8000488281</ele>
        <time>2020-08-03T06:27:43.000Z</time>
      </trkpt>
      <trkpt lat="45.06942" lon="2.6099">
        <ele>1069.8000488281</ele>
        <time>2020-08-03T06:27:45.000Z</time>
      </trkpt>
      <trkpt lat="45.06943" lon="2.60991">
        <ele>1069.8000488281</ele>
        <time>2020-08-03T06:27:46.000Z</time>
      </trkpt>
      <trkpt lat="45.0695" lon="2.61001">
        <ele>1069.8000488281</ele>
        <time>2020-08-03T06:27:53.000Z</time>
      </trkpt>
      <trkpt lat="45.06951" lon="2.61004">
        <ele>1069.8000488281</ele>
        <time>2020-08-03T06:27:54.000Z</time>
      </trkpt>
      <trkpt lat="45.06954" lon="2.61012">
        <ele>1069.1999511719</ele>
        <time>2020-08-03T06:28:01.000Z</time>
      </trkpt>
      <trkpt lat="45.06955" lon="2.61013">
        <ele>1069</ele>
        <time>2020-08-03T06:28:02.000Z</time>
      </trkpt>
      <trkpt lat="45.0696" lon="2.61019">
        <ele>1068.5999755859</ele>
        <time>2020-08-03T06:28:08.000Z</time>
      </trkpt>
      <trkpt lat="45.06963" lon="2.61023">
        <ele>1068</ele>
        <time>2020-08-03T06:28:12.000Z</time>
      </trkpt>
      <trkpt lat="45.06965" lon="2.61025">
        <ele>1067.4000244141</ele>
        <time>2020-08-03T06:28:15.000Z</time>
      </trkpt>
      <trkpt lat="45.06967" lon="2.61031">
        <ele>1066.8000488281</ele>
        <time>2020-08-03T06:28:19.000Z</time>
      </trkpt>
      <trkpt lat="45.06968" lon="2.61037">
        <ele>1066</ele>
        <time>2020-08-03T06:28:22.000Z</time>
      </trkpt>
      <trkpt lat="45.06968" lon="2.61039">
        <ele>1065.8000488281</ele>
        <time>2020-08-03T06:28:23.000Z</time>
      </trkpt>
      <trkpt lat="45.06969" lon="2.61051">
        <ele>1065</ele>
        <time>2020-08-03T06:28:29.000Z</time>
      </trkpt>
      <trkpt lat="45.06971" lon="2.61053">
        <ele>1064.4000244141</ele>
        <time>2020-08-03T06:28:31.000Z</time>
      </trkpt>
      <trkpt lat="45.06973" lon="2.61055">
        <ele>1063.8000488281</ele>
        <time>2020-08-03T06:28:34.000Z</time>
      </trkpt>
      <trkpt lat="45.06977" lon="2.6106">
        <ele>1063.4000244141</ele>
        <time>2020-08-03T06:28:39.000Z</time>
      </trkpt>
      <trkpt lat="45.06978" lon="2.61062">
        <ele>1063.4000244141</ele>
        <time>2020-08-03T06:28:40.000Z</time>
      </trkpt>
      <trkpt lat="45.06987" lon="2.61074">
        <ele>1063</ele>
        <time>2020-08-03T06:28:42.000Z</time>
      </trkpt>
      <trkpt lat="45.06987" lon="2.61077">
        <ele>1063</ele>
        <time>2020-08-03T06:28:43.000Z</time>
      </trkpt>
      <trkpt lat="45.06986" lon="2.61086">
        <ele>1063.1999511719</ele>
        <time>2020-08-03T06:28:50.000Z</time>
      </trkpt>
      <trkpt lat="45.0698" lon="2.61087">
        <ele>1063.5999755859</ele>
        <time>2020-08-03T06:28:58.000Z</time>
      </trkpt>
      <trkpt lat="45.06977" lon="2.61086">
        <ele>1063.5999755859</ele>
        <time>2020-08-03T06:29:00.000Z</time>
      </trkpt>
      <trkpt lat="45.06971" lon="2.61084">
        <ele>1063.5999755859</ele>
        <time>2020-08-03T06:29:05.000Z</time>
      </trkpt>
      <trkpt lat="45.0697" lon="2.61085">
        <ele>1063.5999755859</ele>
        <time>2020-08-03T06:29:06.000Z</time>
      </trkpt>
      <trkpt lat="45.06973" lon="2.61083">
        <ele>1063.5999755859</ele>
        <time>2020-08-03T06:29:11.000Z</time>
      </trkpt>
      <trkpt lat="45.06978" lon="2.61075">
        <ele>1063.5999755859</ele>
        <time>2020-08-03T06:29:17.000Z</time>
      </trkpt>
      <trkpt lat="45.06979" lon="2.61071">
        <ele>1063.5999755859</ele>
        <time>2020-08-03T06:29:23.000Z</time>
      </trkpt>
      <trkpt lat="45.06976" lon="2.61072">
        <ele>1063.1999511719</ele>
        <time>2020-08-03T06:29:31.000Z</time>
      </trkpt>
      <trkpt lat="45.0697" lon="2.61073">
        <ele>1063.4000244141</ele>
        <time>2020-08-03T06:29:35.000Z</time>
      </trkpt>
      <trkpt lat="45.06963" lon="2.61073">
        <ele>1063.4000244141</ele>
        <time>2020-08-03T06:29:39.000Z</time>
      </trkpt>
      <trkpt lat="45.06956" lon="2.61072">
        <ele>1063.4000244141</ele>
        <time>2020-08-03T06:29:48.000Z</time>
      </trkpt>
      <trkpt lat="45.06951" lon="2.61068">
        <ele>1063.1999511719</ele>
        <time>2020-08-03T06:29:55.000Z</time>
      </trkpt>
      <trkpt lat="45.06946" lon="2.61063">
        <ele>1062.8000488281</ele>
        <time>2020-08-03T06:29:58.000Z</time>
      </trkpt>
      <trkpt lat="45.0694" lon="2.6106">
        <ele>1062.8000488281</ele>
        <time>2020-08-03T06:30:03.000Z</time>
      </trkpt>
      <trkpt lat="45.06932" lon="2.61058">
        <ele>1062.5999755859</ele>
        <time>2020-08-03T06:30:07.000Z</time>
      </trkpt>
      <trkpt lat="45.06929" lon="2.61057">
        <ele>1062.4000244141</ele>
        <time>2020-08-03T06:30:10.000Z</time>
      </trkpt>
      <trkpt lat="45.06922" lon="2.61054">
        <ele>1062.1999511719</ele>
        <time>2020-08-03T06:30:15.000Z</time>
      </trkpt>
      <trkpt lat="45.06915" lon="2.61061">
        <ele>1062</ele>
        <time>2020-08-03T06:30:18.000Z</time>
      </trkpt>
      <trkpt lat="45.06906" lon="2.61068">
        <ele>1061.1999511719</ele>
        <time>2020-08-03T06:30:24.000Z</time>
      </trkpt>
      <trkpt lat="45.06904" lon="2.61069">
        <ele>1061</ele>
        <time>2020-08-03T06:30:26.000Z</time>
      </trkpt>
      <trkpt lat="45.06896" lon="2.6107">
        <ele>1060.1999511719</ele>
        <time>2020-08-03T06:30:33.000Z</time>
      </trkpt>
      <trkpt lat="45.06894" lon="2.61073">
        <ele>1060</ele>
        <time>2020-08-03T06:30:34.000Z</time>
      </trkpt>
      <trkpt lat="45.06885" lon="2.61085">
        <ele>1059.1999511719</ele>
        <time>2020-08-03T06:30:40.000Z</time>
      </trkpt>
      <trkpt lat="45.06881" lon="2.61086">
        <ele>1058.8000488281</ele>
        <time>2020-08-03T06:30:43.000Z</time>
      </trkpt>
      <trkpt lat="45.06874" lon="2.61089">
        <ele>1058.5999755859</ele>
        <time>2020-08-03T06:30:50.000Z</time>
      </trkpt>
      <trkpt lat="45.06868" lon="2.61104">
        <ele>1058.1999511719</ele>
        <time>2020-08-03T06:30:59.000Z</time>
      </trkpt>
      <trkpt lat="45.06864" lon="2.61107">
        <ele>1059</ele>
        <time>2020-08-03T06:31:07.000Z</time>
      </trkpt>
      <trkpt lat="45.06857" lon="2.61109">
        <ele>1058</ele>
        <time>2020-08-03T06:31:17.000Z</time>
      </trkpt>
      <trkpt lat="45.06856" lon="2.6111">
        <ele>1057.8000488281</ele>
        <time>2020-08-03T06:31:19.000Z</time>
      </trkpt>
      <trkpt lat="45.06854" lon="2.61112">
        <ele>1057.1999511719</ele>
        <time>2020-08-03T06:31:23.000Z</time>
      </trkpt>
      <trkpt lat="45.06852" lon="2.61113">
        <ele>1056.8000488281</ele>
        <time>2020-08-03T06:31:25.000Z</time>
      </trkpt>
      <trkpt lat="45.06852" lon="2.61115">
        <ele>1056.4000244141</ele>
        <time>2020-08-03T06:31:26.000Z</time>
      </trkpt>
      <trkpt lat="45.0685" lon="2.6112">
        <ele>1055.8000488281</ele>
        <time>2020-08-03T06:31:30.000Z</time>
      </trkpt>
      <trkpt lat="45.0685" lon="2.61121">
        <ele>1055.5999755859</ele>
        <time>2020-08-03T06:31:31.000Z</time>
      </trkpt>
      <trkpt lat="45.0685" lon="2.61126">
        <ele>1055.1999511719</ele>
        <time>2020-08-03T06:31:34.000Z</time>
      </trkpt>
      <trkpt lat="45.06851" lon="2.61132">
        <ele>1054.5999755859</ele>
        <time>2020-08-03T06:31:37.000Z</time>
      </trkpt>
      <trkpt lat="45.06852" lon="2.61136">
        <ele>1054.4000244141</ele>
        <time>2020-08-03T06:31:39.000Z</time>
      </trkpt>
      <trkpt lat="45.06852" lon="2.61138">
        <ele>1054.1999511719</ele>
        <time>2020-08-03T06:31:40.000Z</time>
      </trkpt>
      <trkpt lat="45.06853" lon="2.61149">
        <ele>1053.4000244141</ele>
        <time>2020-08-03T06:31:46.000Z</time>
      </trkpt>
      <trkpt lat="45.06853" lon="2.61158">
        <ele>1052.1999511719</ele>
        <time>2020-08-03T06:31:51.000Z</time>
      </trkpt>
      <trkpt lat="45.06854" lon="2.61159">
        <ele>1052.1999511719</ele>
        <time>2020-08-03T06:31:52.000Z</time>
      </trkpt>
      <trkpt lat="45.06856" lon="2.6117">
        <ele>1051</ele>
        <time>2020-08-03T06:31:58.000Z</time>
      </trkpt>
      <trkpt lat="45.06856" lon="2.61173">
        <ele>1050.1999511719</ele>
        <time>2020-08-03T06:32:00.000Z</time>
      </trkpt>
      <trkpt lat="45.06855" lon="2.61174">
        <ele>1049.8000488281</ele>
        <time>2020-08-03T06:32:01.000Z</time>
      </trkpt>
      <trkpt lat="45.06854" lon="2.61178">
        <ele>1049.4000244141</ele>
        <time>2020-08-03T06:32:04.000Z</time>
      </trkpt>
      <trkpt lat="45.06853" lon="2.61185">
        <ele>1048.5999755859</ele>
        <time>2020-08-03T06:32:08.000Z</time>
      </trkpt>
      <trkpt lat="45.06855" lon="2.61189">
        <ele>1047.5999755859</ele>
        <time>2020-08-03T06:32:11.000Z</time>
      </trkpt>
      <trkpt lat="45.06857" lon="2.61193">
        <ele>1047.1999511719</ele>
        <time>2020-08-03T06:32:13.000Z</time>
      </trkpt>
      <trkpt lat="45.06858" lon="2.61199">
        <ele>1046.8000488281</ele>
        <time>2020-08-03T06:32:16.000Z</time>
      </trkpt>
      <trkpt lat="45.06859" lon="2.612">
        <ele>1046.4000244141</ele>
        <time>2020-08-03T06:32:17.000Z</time>
      </trkpt>
      <trkpt lat="45.0686" lon="2.61207">
        <ele>1045.4000244141</ele>
        <time>2020-08-03T06:32:22.000Z</time>
      </trkpt>
      <trkpt lat="45.0686" lon="2.61209">
        <ele>1045</ele>
        <time>2020-08-03T06:32:23.000Z</time>
      </trkpt>
      <trkpt lat="45.06861" lon="2.61213">
        <ele>1044.4000244141</ele>
        <time>2020-08-03T06:32:25.000Z</time>
      </trkpt>
      <trkpt lat="45.06859" lon="2.61222">
        <ele>1043.5999755859</ele>
        <time>2020-08-03T06:32:30.000Z</time>
      </trkpt>
      <trkpt lat="45.06859" lon="2.61235">
        <ele>1043.4000244141</ele>
        <time>2020-08-03T06:32:37.000Z</time>
      </trkpt>
      <trkpt lat="45.06857" lon="2.61242">
        <ele>1042.1999511719</ele>
        <time>2020-08-03T06:32:41.000Z</time>
      </trkpt>
      <trkpt lat="45.06856" lon="2.61247">
        <ele>1041.4000244141</ele>
        <time>2020-08-03T06:32:44.000Z</time>
      </trkpt>
      <trkpt lat="45.06855" lon="2.6125">
        <ele>1041.1999511719</ele>
        <time>2020-08-03T06:32:46.000Z</time>
      </trkpt>
      <trkpt lat="45.06854" lon="2.61259">
        <ele>1040.1999511719</ele>
        <time>2020-08-03T06:32:51.000Z</time>
      </trkpt>
      <trkpt lat="45.06853" lon="2.61261">
        <ele>1040</ele>
        <time>2020-08-03T06:32:52.000Z</time>
      </trkpt>
      <trkpt lat="45.06849" lon="2.6127">
        <ele>1039</ele>
        <time>2020-08-03T06:32:58.000Z</time>
      </trkpt>
      <trkpt lat="45.06848" lon="2.61272">
        <ele>1038.5999755859</ele>
        <time>2020-08-03T06:32:59.000Z</time>
      </trkpt>
      <trkpt lat="45.06848" lon="2.6128">
        <ele>1038</ele>
        <time>2020-08-03T06:33:04.000Z</time>
      </trkpt>
      <trkpt lat="45.06846" lon="2.61282">
        <ele>1037.1999511719</ele>
        <time>2020-08-03T06:33:06.000Z</time>
      </trkpt>
      <trkpt lat="45.06844" lon="2.61288">
        <ele>1036.8000488281</ele>
        <time>2020-08-03T06:33:10.000Z</time>
      </trkpt>
      <trkpt lat="45.0684" lon="2.61293">
        <ele>1036</ele>
        <time>2020-08-03T06:33:14.000Z</time>
      </trkpt>
      <trkpt lat="45.06839" lon="2.61294">
        <ele>1035.8000488281</ele>
        <time>2020-08-03T06:33:15.000Z</time>
      </trkpt>
      <trkpt lat="45.06835" lon="2.61295">
        <ele>1035.4000244141</ele>
        <time>2020-08-03T06:33:19.000Z</time>
      </trkpt>
      <trkpt lat="45.06833" lon="2.61295">
        <ele>1035.1999511719</ele>
        <time>2020-08-03T06:33:21.000Z</time>
      </trkpt>
      <trkpt lat="45.06829" lon="2.61297">
        <ele>1034.8000488281</ele>
        <time>2020-08-03T06:33:25.000Z</time>
      </trkpt>
      <trkpt lat="45.06828" lon="2.61296">
        <ele>1034.5999755859</ele>
        <time>2020-08-03T06:33:27.000Z</time>
      </trkpt>
      <trkpt lat="45.06828" lon="2.61296">
        <ele>1034.4000244141</ele>
        <time>2020-08-03T06:33:28.000Z</time>
      </trkpt>
      <trkpt lat="45.06826" lon="2.61296">
        <ele>1034</ele>
        <time>2020-08-03T06:33:31.000Z</time>
      </trkpt>
      <trkpt lat="45.06825" lon="2.613">
        <ele>1034</ele>
        <time>2020-08-03T06:33:39.000Z</time>
      </trkpt>
      <trkpt lat="45.06825" lon="2.61301">
        <ele>1033.8000488281</ele>
        <time>2020-08-03T06:33:42.000Z</time>
      </trkpt>
      <trkpt lat="45.06823" lon="2.61303">
        <ele>1034.1999511719</ele>
        <time>2020-08-03T06:33:46.000Z</time>
      </trkpt>
      <trkpt lat="45.06819" lon="2.61302">
        <ele>1034.1999511719</ele>
        <time>2020-08-03T06:33:50.000Z</time>
      </trkpt>
      <trkpt lat="45.06817" lon="2.61301">
        <ele>1034.1999511719</ele>
        <time>2020-08-03T06:33:52.000Z</time>
      </trkpt>
      <trkpt lat="45.06812" lon="2.61303">
        <ele>1034.4000244141</ele>
        <time>2020-08-03T06:33:57.000Z</time>
      </trkpt>
      <trkpt lat="45.06807" lon="2.613">
        <ele>1034.5999755859</ele>
        <time>2020-08-03T06:34:03.000Z</time>
      </trkpt>
      <trkpt lat="45.06804" lon="2.61297">
        <ele>1035.1999511719</ele>
        <time>2020-08-03T06:34:07.000Z</time>
      </trkpt>
      <trkpt lat="45.06802" lon="2.61294">
        <ele>1035.5999755859</ele>
        <time>2020-08-03T06:34:09.000Z</time>
      </trkpt>
      <trkpt lat="45.06795" lon="2.61283">
        <ele>1036.5999755859</ele>
        <time>2020-08-03T06:34:17.000Z</time>
      </trkpt>
      <trkpt lat="45.06793" lon="2.61282">
        <ele>1036.5999755859</ele>
        <time>2020-08-03T06:34:18.000Z</time>
      </trkpt>
      <trkpt lat="45.06789" lon="2.61277">
        <ele>1036.5999755859</ele>
        <time>2020-08-03T06:34:23.000Z</time>
      </trkpt>
      <trkpt lat="45.06784" lon="2.61277">
        <ele>1037.4000244141</ele>
        <time>2020-08-03T06:34:30.000Z</time>
      </trkpt>
      <trkpt lat="45.06782" lon="2.61274">
        <ele>1037.8000488281</ele>
        <time>2020-08-03T06:34:32.000Z</time>
      </trkpt>
      <trkpt lat="45.06781" lon="2.61273">
        <ele>1038</ele>
        <time>2020-08-03T06:34:33.000Z</time>
      </trkpt>
      <trkpt lat="45.06776" lon="2.61271">
        <ele>1038.4000244141</ele>
        <time>2020-08-03T06:34:37.000Z</time>
      </trkpt>
      <trkpt lat="45.06775" lon="2.61271">
        <ele>1038.5999755859</ele>
        <time>2020-08-03T06:34:38.000Z</time>
      </trkpt>
      <trkpt lat="45.06769" lon="2.61274">
        <ele>1038.8000488281</ele>
        <time>2020-08-03T06:34:44.000Z</time>
      </trkpt>
      <trkpt lat="45.06768" lon="2.61274">
        <ele>1039</ele>
        <time>2020-08-03T06:34:45.000Z</time>
      </trkpt>
      <trkpt lat="45.06765" lon="2.61275">
        <ele>1039.4000244141</ele>
        <time>2020-08-03T06:34:51.000Z</time>
      </trkpt>
      <trkpt lat="45.0676" lon="2.61276">
        <ele>1039.8000488281</ele>
        <time>2020-08-03T06:34:56.000Z</time>
      </trkpt>
      <trkpt lat="45.06759" lon="2.61276">
        <ele>1039.8000488281</ele>
        <time>2020-08-03T06:34:57.000Z</time>
      </trkpt>
      <trkpt lat="45.06754" lon="2.61273">
        <ele>1040.5999755859</ele>
        <time>2020-08-03T06:35:02.000Z</time>
      </trkpt>
      <trkpt lat="45.06752" lon="2.61273">
        <ele>1040.8000488281</ele>
        <time>2020-08-03T06:35:04.000Z</time>
      </trkpt>
      <trkpt lat="45.0675" lon="2.61272">
        <ele>1041</ele>
        <time>2020-08-03T06:35:06.000Z</time>
      </trkpt>
      <trkpt lat="45.06746" lon="2.6127">
        <ele>1041.5999755859</ele>
        <time>2020-08-03T06:35:10.000Z</time>
      </trkpt>
      <trkpt lat="45.06743" lon="2.61268">
        <ele>1042.1999511719</ele>
        <time>2020-08-03T06:35:13.000Z</time>
      </trkpt>
      <trkpt lat="45.0674" lon="2.61264">
        <ele>1042.5999755859</ele>
        <time>2020-08-03T06:35:17.000Z</time>
      </trkpt>
      <trkpt lat="45.06739" lon="2.61262">
        <ele>1042.8000488281</ele>
        <time>2020-08-03T06:35:18.000Z</time>
      </trkpt>
      <trkpt lat="45.06734" lon="2.61257">
        <ele>1043.1999511719</ele>
        <time>2020-08-03T06:35:21.000Z</time>
      </trkpt>
      <trkpt lat="45.06732" lon="2.61254">
        <ele>1043.4000244141</ele>
        <time>2020-08-03T06:35:24.000Z</time>
      </trkpt>
      <trkpt lat="45.06726" lon="2.61246">
        <ele>1043</ele>
        <time>2020-08-03T06:35:31.000Z</time>
      </trkpt>
      <trkpt lat="45.06721" lon="2.61239">
        <ele>1043.1999511719</ele>
        <time>2020-08-03T06:35:38.000Z</time>
      </trkpt>
      <trkpt lat="45.06712" lon="2.61231">
        <ele>1043.4000244141</ele>
        <time>2020-08-03T06:35:46.000Z</time>
      </trkpt>
      <trkpt lat="45.06704" lon="2.61227">
        <ele>1043.5999755859</ele>
        <time>2020-08-03T06:35:54.000Z</time>
      </trkpt>
      <trkpt lat="45.06698" lon="2.61222">
        <ele>1043.5999755859</ele>
        <time>2020-08-03T06:36:01.000Z</time>
      </trkpt>
      <trkpt lat="45.06691" lon="2.61215">
        <ele>1043.8000488281</ele>
        <time>2020-08-03T06:36:09.000Z</time>
      </trkpt>
      <trkpt lat="45.06689" lon="2.61213">
        <ele>1044.1999511719</ele>
        <time>2020-08-03T06:36:12.000Z</time>
      </trkpt>
      <trkpt lat="45.06687" lon="2.61209">
        <ele>1044.8000488281</ele>
        <time>2020-08-03T06:36:17.000Z</time>
      </trkpt>
      <trkpt lat="45.06685" lon="2.61206">
        <ele>1045.4000244141</ele>
        <time>2020-08-03T06:36:20.000Z</time>
      </trkpt>
      <trkpt lat="45.06679" lon="2.612">
        <ele>1046.5999755859</ele>
        <time>2020-08-03T06:36:25.000Z</time>
      </trkpt>
      <trkpt lat="45.06676" lon="2.61198">
        <ele>1047.8000488281</ele>
        <time>2020-08-03T06:36:29.000Z</time>
      </trkpt>
      <trkpt lat="45.06674" lon="2.61197">
        <ele>1048.1999511719</ele>
        <time>2020-08-03T06:36:31.000Z</time>
      </trkpt>
      <trkpt lat="45.06674" lon="2.61197">
        <ele>1048.4000244141</ele>
        <time>2020-08-03T06:36:32.000Z</time>
      </trkpt>
      <trkpt lat="45.06671" lon="2.61197">
        <ele>1048.8000488281</ele>
        <time>2020-08-03T06:36:35.000Z</time>
      </trkpt>
      <trkpt lat="45.0667" lon="2.61197">
        <ele>1049.1999511719</ele>
        <time>2020-08-03T06:36:39.000Z</time>
      </trkpt>
      <trkpt lat="45.06669" lon="2.61197">
        <ele>1049.8000488281</ele>
        <time>2020-08-03T06:36:43.000Z</time>
      </trkpt>
      <trkpt lat="45.06668" lon="2.61197">
        <ele>1049.8000488281</ele>
        <time>2020-08-03T06:36:44.000Z</time>
      </trkpt>
      <trkpt lat="45.06666" lon="2.61197">
        <ele>1049.1999511719</ele>
        <time>2020-08-03T06:36:46.000Z</time>
      </trkpt>
      <trkpt lat="45.06662" lon="2.61198">
        <ele>1048.5999755859</ele>
        <time>2020-08-03T06:36:49.000Z</time>
      </trkpt>
      <trkpt lat="45.06659" lon="2.61201">
        <ele>1047.5999755859</ele>
        <time>2020-08-03T06:36:53.000Z</time>
      </trkpt>
      <trkpt lat="45.06657" lon="2.61203">
        <ele>1047.4000244141</ele>
        <time>2020-08-03T06:36:55.000Z</time>
      </trkpt>
      <trkpt lat="45.06651" lon="2.61216">
        <ele>1046.8000488281</ele>
        <time>2020-08-03T06:37:03.000Z</time>
      </trkpt>
      <trkpt lat="45.06645" lon="2.6122">
        <ele>1046.5999755859</ele>
        <time>2020-08-03T06:37:09.000Z</time>
      </trkpt>
      <trkpt lat="45.06644" lon="2.6122">
        <ele>1046.5999755859</ele>
        <time>2020-08-03T06:37:10.000Z</time>
      </trkpt>
      <trkpt lat="45.06638" lon="2.61223">
        <ele>1045.8000488281</ele>
        <time>2020-08-03T06:37:18.000Z</time>
      </trkpt>
      <trkpt lat="45.06635" lon="2.61225">
        <ele>1045.5999755859</ele>
        <time>2020-08-03T06:37:24.000Z</time>
      </trkpt>
      <trkpt lat="45.06634" lon="2.61226">
        <ele>1045.5999755859</ele>
        <time>2020-08-03T06:37:25.000Z</time>
      </trkpt>
      <trkpt lat="45.06626" lon="2.61235">
        <ele>1045.4000244141</ele>
        <time>2020-08-03T06:37:33.000Z</time>
      </trkpt>
      <trkpt lat="45.06622" lon="2.6124">
        <ele>1045.1999511719</ele>
        <time>2020-08-03T06:37:38.000Z</time>
      </trkpt>
      <trkpt lat="45.0662" lon="2.61245">
        <ele>1045</ele>
        <time>2020-08-03T06:37:41.000Z</time>
      </trkpt>
      <trkpt lat="45.06616" lon="2.61251">
        <ele>1044.5999755859</ele>
        <time>2020-08-03T06:37:45.000Z</time>
      </trkpt>
      <trkpt lat="45.06613" lon="2.61256">
        <ele>1044</ele>
        <time>2020-08-03T06:37:49.000Z</time>
      </trkpt>
      <trkpt lat="45.06611" lon="2.61262">
        <ele>1043.5999755859</ele>
        <time>2020-08-03T06:37:53.000Z</time>
      </trkpt>
      <trkpt lat="45.06609" lon="2.61266">
        <ele>1043</ele>
        <time>2020-08-03T06:37:56.000Z</time>
      </trkpt>
      <trkpt lat="45.06605" lon="2.61273">
        <ele>1042.4000244141</ele>
        <time>2020-08-03T06:38:01.000Z</time>
      </trkpt>
      <trkpt lat="45.06605" lon="2.61274">
        <ele>1042</ele>
        <time>2020-08-03T06:38:02.000Z</time>
      </trkpt>
      <trkpt lat="45.066" lon="2.61275">
        <ele>1041.4000244141</ele>
        <time>2020-08-03T06:38:06.000Z</time>
      </trkpt>
      <trkpt lat="45.06597" lon="2.61274">
        <ele>1040.8000488281</ele>
        <time>2020-08-03T06:38:09.000Z</time>
      </trkpt>
      <trkpt lat="45.06593" lon="2.61276">
        <ele>1040.1999511719</ele>
        <time>2020-08-03T06:38:14.000Z</time>
      </trkpt>
      <trkpt lat="45.06591" lon="2.61278">
        <ele>1040</ele>
        <time>2020-08-03T06:38:16.000Z</time>
      </trkpt>
      <trkpt lat="45.06589" lon="2.6129">
        <ele>1039.1999511719</ele>
        <time>2020-08-03T06:38:21.000Z</time>
      </trkpt>
      <trkpt lat="45.06588" lon="2.61295">
        <ele>1039</ele>
        <time>2020-08-03T06:38:23.000Z</time>
      </trkpt>
      <trkpt lat="45.06587" lon="2.61304">
        <ele>1038</ele>
        <time>2020-08-03T06:38:28.000Z</time>
      </trkpt>
      <trkpt lat="45.06587" lon="2.61309">
        <ele>1037.5999755859</ele>
        <time>2020-08-03T06:38:31.000Z</time>
      </trkpt>
      <trkpt lat="45.06588" lon="2.61318">
        <ele>1036.8000488281</ele>
        <time>2020-08-03T06:38:36.000Z</time>
      </trkpt>
      <trkpt lat="45.06588" lon="2.61323">
        <ele>1036.5999755859</ele>
        <time>2020-08-03T06:38:38.000Z</time>
      </trkpt>
      <trkpt lat="45.06588" lon="2.61333">
        <ele>1036.1999511719</ele>
        <time>2020-08-03T06:38:44.000Z</time>
      </trkpt>
      <trkpt lat="45.06588" lon="2.61334">
        <ele>1036</ele>
        <time>2020-08-03T06:38:46.000Z</time>
      </trkpt>
      <trkpt lat="45.06588" lon="2.61335">
        <ele>1035.8000488281</ele>
        <time>2020-08-03T06:38:48.000Z</time>
      </trkpt>
      <trkpt lat="45.06589" lon="2.61336">
        <ele>1035.4000244141</ele>
        <time>2020-08-03T06:38:52.000Z</time>
      </trkpt>
      <trkpt lat="45.06589" lon="2.61338">
        <ele>1035.4000244141</ele>
        <time>2020-08-03T06:38:53.000Z</time>
      </trkpt>
      <trkpt lat="45.06589" lon="2.61347">
        <ele>1035.8000488281</ele>
        <time>2020-08-03T06:38:58.000Z</time>
      </trkpt>
      <trkpt lat="45.06589" lon="2.61355">
        <ele>1035.1999511719</ele>
        <time>2020-08-03T06:39:03.000Z</time>
      </trkpt>
      <trkpt lat="45.06589" lon="2.61356">
        <ele>1035</ele>
        <time>2020-08-03T06:39:04.000Z</time>
      </trkpt>
      <trkpt lat="45.0659" lon="2.61362">
        <ele>1034.5999755859</ele>
        <time>2020-08-03T06:39:08.000Z</time>
      </trkpt>
      <trkpt lat="45.0659" lon="2.61363">
        <ele>1034.5999755859</ele>
        <time>2020-08-03T06:39:09.000Z</time>
      </trkpt>
      <trkpt lat="45.06589" lon="2.61364">
        <ele>1034.4000244141</ele>
        <time>2020-08-03T06:39:11.000Z</time>
      </trkpt>
      <trkpt lat="45.06586" lon="2.61368">
        <ele>1033.5999755859</ele>
        <time>2020-08-03T06:39:15.000Z</time>
      </trkpt>
      <trkpt lat="45.06585" lon="2.61369">
        <ele>1033.4000244141</ele>
        <time>2020-08-03T06:39:16.000Z</time>
      </trkpt>
      <trkpt lat="45.06583" lon="2.61372">
        <ele>1032.5999755859</ele>
        <time>2020-08-03T06:39:19.000Z</time>
      </trkpt>
      <trkpt lat="45.06583" lon="2.61373">
        <ele>1032.4000244141</ele>
        <time>2020-08-03T06:39:20.000Z</time>
      </trkpt>
      <trkpt lat="45.06579" lon="2.61382">
        <ele>1031.8000488281</ele>
        <time>2020-08-03T06:39:26.000Z</time>
      </trkpt>
      <trkpt lat="45.06578" lon="2.61386">
        <ele>1031.4000244141</ele>
        <time>2020-08-03T06:39:28.000Z</time>
      </trkpt>
      <trkpt lat="45.06573" lon="2.61394">
        <ele>1031</ele>
        <time>2020-08-03T06:39:33.000Z</time>
      </trkpt>
      <trkpt lat="45.06567" lon="2.61401">
        <ele>1030.4000244141</ele>
        <time>2020-08-03T06:39:38.000Z</time>
      </trkpt>
      <trkpt lat="45.06565" lon="2.61402">
        <ele>1030.1999511719</ele>
        <time>2020-08-03T06:39:40.000Z</time>
      </trkpt>
      <trkpt lat="45.06556" lon="2.61404">
        <ele>1030.1999511719</ele>
        <time>2020-08-03T06:39:47.000Z</time>
      </trkpt>
      <trkpt lat="45.06549" lon="2.61401">
        <ele>1030.1999511719</ele>
        <time>2020-08-03T06:39:53.000Z</time>
      </trkpt>
      <trkpt lat="45.06541" lon="2.61395">
        <ele>1030.8000488281</ele>
        <time>2020-08-03T06:40:00.000Z</time>
      </trkpt>
      <trkpt lat="45.06532" lon="2.61392">
        <ele>1031</ele>
        <time>2020-08-03T06:40:08.000Z</time>
      </trkpt>
      <trkpt lat="45.06523" lon="2.61389">
        <ele>1031</ele>
        <time>2020-08-03T06:40:15.000Z</time>
      </trkpt>
      <trkpt lat="45.06516" lon="2.61388">
        <ele>1031.1999511719</ele>
        <time>2020-08-03T06:40:21.000Z</time>
      </trkpt>
      <trkpt lat="45.06508" lon="2.61385">
        <ele>1030.8000488281</ele>
        <time>2020-08-03T06:40:29.000Z</time>
      </trkpt>
      <trkpt lat="45.06499" lon="2.61383">
        <ele>1030.4000244141</ele>
        <time>2020-08-03T06:40:36.000Z</time>
      </trkpt>
      <trkpt lat="45.06491" lon="2.61379">
        <ele>1030.8000488281</ele>
        <time>2020-08-03T06:40:43.000Z</time>
      </trkpt>
      <trkpt lat="45.06478" lon="2.61379">
        <ele>1031.1999511719</ele>
        <time>2020-08-03T06:40:53.000Z</time>
      </trkpt>
      <trkpt lat="45.06474" lon="2.61378">
        <ele>1031.4000244141</ele>
        <time>2020-08-03T06:40:57.000Z</time>
      </trkpt>
      <trkpt lat="45.06472" lon="2.61378">
        <ele>1031.4000244141</ele>
        <time>2020-08-03T06:40:59.000Z</time>
      </trkpt>
      <trkpt lat="45.06462" lon="2.6138">
        <ele>1031.4000244141</ele>
        <time>2020-08-03T06:41:07.000Z</time>
      </trkpt>
      <trkpt lat="45.06453" lon="2.61384">
        <ele>1031.4000244141</ele>
        <time>2020-08-03T06:41:15.000Z</time>
      </trkpt>
      <trkpt lat="45.06447" lon="2.61382">
        <ele>1031.8000488281</ele>
        <time>2020-08-03T06:41:22.000Z</time>
      </trkpt>
      <trkpt lat="45.06441" lon="2.61383">
        <ele>1031.8000488281</ele>
        <time>2020-08-03T06:41:29.000Z</time>
      </trkpt>
      <trkpt lat="45.06441" lon="2.61383">
        <ele>1031.8000488281</ele>
        <time>2020-08-03T06:41:30.000Z</time>
      </trkpt>
      <trkpt lat="45.0644" lon="2.61386">
        <ele>1031.8000488281</ele>
        <time>2020-08-03T06:41:32.000Z</time>
      </trkpt>
      <trkpt lat="45.06437" lon="2.61387">
        <ele>1032</ele>
        <time>2020-08-03T06:41:36.000Z</time>
      </trkpt>
      <trkpt lat="45.06434" lon="2.61389">
        <ele>1032.1999511719</ele>
        <time>2020-08-03T06:41:39.000Z</time>
      </trkpt>
      <trkpt lat="45.06434" lon="2.61389">
        <ele>1032.5999755859</ele>
        <time>2020-08-03T06:41:40.000Z</time>
      </trkpt>
      <trkpt lat="45.06432" lon="2.61389">
        <ele>1033.4000244141</ele>
        <time>2020-08-03T06:41:44.000Z</time>
      </trkpt>
      <trkpt lat="45.06432" lon="2.61389">
        <ele>1033.5999755859</ele>
        <time>2020-08-03T06:41:45.000Z</time>
      </trkpt>
      <trkpt lat="45.06428" lon="2.61402">
        <ele>1033.8000488281</ele>
        <time>2020-08-03T06:41:50.000Z</time>
      </trkpt>
      <trkpt lat="45.06428" lon="2.61404">
        <ele>1033.4000244141</ele>
        <time>2020-08-03T06:41:59.000Z</time>
      </trkpt>
      <trkpt lat="45.06427" lon="2.61406">
        <ele>1034</ele>
        <time>2020-08-03T06:42:02.000Z</time>
      </trkpt>
      <trkpt lat="45.06426" lon="2.61408">
        <ele>1034.4000244141</ele>
        <time>2020-08-03T06:42:04.000Z</time>
      </trkpt>
      <trkpt lat="45.06423" lon="2.61411">
        <ele>1034.1999511719</ele>
        <time>2020-08-03T06:42:08.000Z</time>
      </trkpt>
      <trkpt lat="45.06419" lon="2.61417">
        <ele>1033.5999755859</ele>
        <time>2020-08-03T06:42:14.000Z</time>
      </trkpt>
      <trkpt lat="45.06417" lon="2.61419">
        <ele>1033.1999511719</ele>
        <time>2020-08-03T06:42:16.000Z</time>
      </trkpt>
      <trkpt lat="45.06416" lon="2.61422">
        <ele>1032.5999755859</ele>
        <time>2020-08-03T06:42:18.000Z</time>
      </trkpt>
      <trkpt lat="45.06415" lon="2.61427">
        <ele>1031.8000488281</ele>
        <time>2020-08-03T06:42:22.000Z</time>
      </trkpt>
      <trkpt lat="45.06415" lon="2.61428">
        <ele>1031.4000244141</ele>
        <time>2020-08-03T06:42:23.000Z</time>
      </trkpt>
      <trkpt lat="45.06415" lon="2.61434">
        <ele>1030.1999511719</ele>
        <time>2020-08-03T06:42:28.000Z</time>
      </trkpt>
      <trkpt lat="45.06415" lon="2.61436">
        <ele>1030</ele>
        <time>2020-08-03T06:42:29.000Z</time>
      </trkpt>
      <trkpt lat="45.06414" lon="2.61439">
        <ele>1029</ele>
        <time>2020-08-03T06:42:32.000Z</time>
      </trkpt>
      <trkpt lat="45.06413" lon="2.61442">
        <ele>1028</ele>
        <time>2020-08-03T06:42:34.000Z</time>
      </trkpt>
      <trkpt lat="45.06413" lon="2.61447">
        <ele>1026.8000488281</ele>
        <time>2020-08-03T06:42:37.000Z</time>
      </trkpt>
      <trkpt lat="45.06413" lon="2.61448">
        <ele>1026.5999755859</ele>
        <time>2020-08-03T06:42:38.000Z</time>
      </trkpt>
      <trkpt lat="45.06411" lon="2.61452">
        <ele>1025.5999755859</ele>
        <time>2020-08-03T06:42:41.000Z</time>
      </trkpt>
      <trkpt lat="45.0641" lon="2.61458">
        <ele>1024.5999755859</ele>
        <time>2020-08-03T06:42:45.000Z</time>
      </trkpt>
      <trkpt lat="45.06409" lon="2.61462">
        <ele>1023.4000244141</ele>
        <time>2020-08-03T06:42:49.000Z</time>
      </trkpt>
      <trkpt lat="45.06408" lon="2.61468">
        <ele>1022.4000244141</ele>
        <time>2020-08-03T06:42:53.000Z</time>
      </trkpt>
      <trkpt lat="45.06408" lon="2.61477">
        <ele>1021.4000244141</ele>
        <time>2020-08-03T06:42:59.000Z</time>
      </trkpt>
      <trkpt lat="45.06408" lon="2.61478">
        <ele>1021</ele>
        <time>2020-08-03T06:43:00.000Z</time>
      </trkpt>
      <trkpt lat="45.06408" lon="2.6148">
        <ele>1020.5999755859</ele>
        <time>2020-08-03T06:43:02.000Z</time>
      </trkpt>
      <trkpt lat="45.06407" lon="2.61481">
        <ele>1020.200012207</ele>
        <time>2020-08-03T06:43:03.000Z</time>
      </trkpt>
      <trkpt lat="45.06405" lon="2.61487">
        <ele>1019.799987793</ele>
        <time>2020-08-03T06:43:07.000Z</time>
      </trkpt>
      <trkpt lat="45.06404" lon="2.61488">
        <ele>1019.5999755859</ele>
        <time>2020-08-03T06:43:08.000Z</time>
      </trkpt>
      <trkpt lat="45.06403" lon="2.61498">
        <ele>1019.200012207</ele>
        <time>2020-08-03T06:43:14.000Z</time>
      </trkpt>
      <trkpt lat="45.06402" lon="2.6151">
        <ele>1018.200012207</ele>
        <time>2020-08-03T06:43:20.000Z</time>
      </trkpt>
      <trkpt lat="45.06402" lon="2.61511">
        <ele>1018.200012207</ele>
        <time>2020-08-03T06:43:21.000Z</time>
      </trkpt>
      <trkpt lat="45.06398" lon="2.61522">
        <ele>1017.4000244141</ele>
        <time>2020-08-03T06:43:29.000Z</time>
      </trkpt>
      <trkpt lat="45.06398" lon="2.61524">
        <ele>1017.200012207</ele>
        <time>2020-08-03T06:43:31.000Z</time>
      </trkpt>
      <trkpt lat="45.06396" lon="2.6153">
        <ele>1017</ele>
        <time>2020-08-03T06:43:36.000Z</time>
      </trkpt>
      <trkpt lat="45.06395" lon="2.61531">
        <ele>1017</ele>
        <time>2020-08-03T06:43:37.000Z</time>
      </trkpt>
      <trkpt lat="45.06391" lon="2.61538">
        <ele>1016.799987793</ele>
        <time>2020-08-03T06:43:42.000Z</time>
      </trkpt>
      <trkpt lat="45.06386" lon="2.61543">
        <ele>1016.200012207</ele>
        <time>2020-08-03T06:43:46.000Z</time>
      </trkpt>
      <trkpt lat="45.06385" lon="2.61546">
        <ele>1015.799987793</ele>
        <time>2020-08-03T06:43:49.000Z</time>
      </trkpt>
      <trkpt lat="45.06383" lon="2.61554">
        <ele>1015.799987793</ele>
        <time>2020-08-03T06:43:53.000Z</time>
      </trkpt>
      <trkpt lat="45.06382" lon="2.61557">
        <ele>1015.799987793</ele>
        <time>2020-08-03T06:43:57.000Z</time>
      </trkpt>
      <trkpt lat="45.06379" lon="2.6156">
        <ele>1015.5999755859</ele>
        <time>2020-08-03T06:44:01.000Z</time>
      </trkpt>
      <trkpt lat="45.06376" lon="2.61561">
        <ele>1015.4000244141</ele>
        <time>2020-08-03T06:44:03.000Z</time>
      </trkpt>
      <trkpt lat="45.06373" lon="2.61563">
        <ele>1015.200012207</ele>
        <time>2020-08-03T06:44:05.000Z</time>
      </trkpt>
      <trkpt lat="45.06367" lon="2.61567">
        <ele>1014.4000244141</ele>
        <time>2020-08-03T06:44:10.000Z</time>
      </trkpt>
      <trkpt lat="45.06366" lon="2.61569">
        <ele>1014</ele>
        <time>2020-08-03T06:44:12.000Z</time>
      </trkpt>
      <trkpt lat="45.06363" lon="2.6157">
        <ele>1013.799987793</ele>
        <time>2020-08-03T06:44:15.000Z</time>
      </trkpt>
      <trkpt lat="45.06362" lon="2.61571">
        <ele>1013.5999755859</ele>
        <time>2020-08-03T06:44:16.000Z</time>
      </trkpt>
      <trkpt lat="45.06357" lon="2.61582">
        <ele>1013.4000244141</ele>
        <time>2020-08-03T06:44:19.000Z</time>
      </trkpt>
      <trkpt lat="45.06356" lon="2.61588">
        <ele>1012.799987793</ele>
        <time>2020-08-03T06:44:21.000Z</time>
      </trkpt>
      <trkpt lat="45.06355" lon="2.6159">
        <ele>1012.4000244141</ele>
        <time>2020-08-03T06:44:22.000Z</time>
      </trkpt>
      <trkpt lat="45.06355" lon="2.61595">
        <ele>1011.5999755859</ele>
        <time>2020-08-03T06:44:26.000Z</time>
      </trkpt>
      <trkpt lat="45.06352" lon="2.61595">
        <ele>1010.799987793</ele>
        <time>2020-08-03T06:44:29.000Z</time>
      </trkpt>
      <trkpt lat="45.0635" lon="2.61595">
        <ele>1010.4000244141</ele>
        <time>2020-08-03T06:44:31.000Z</time>
      </trkpt>
      <trkpt lat="45.06347" lon="2.61597">
        <ele>1009.4000244141</ele>
        <time>2020-08-03T06:44:34.000Z</time>
      </trkpt>
      <trkpt lat="45.06346" lon="2.61597">
        <ele>1009.4000244141</ele>
        <time>2020-08-03T06:44:35.000Z</time>
      </trkpt>
      <trkpt lat="45.0634" lon="2.616">
        <ele>1008.200012207</ele>
        <time>2020-08-03T06:44:39.000Z</time>
      </trkpt>
      <trkpt lat="45.06337" lon="2.61601">
        <ele>1007.4000244141</ele>
        <time>2020-08-03T06:44:42.000Z</time>
      </trkpt>
      <trkpt lat="45.06335" lon="2.61599">
        <ele>1007.200012207</ele>
        <time>2020-08-03T06:44:44.000Z</time>
      </trkpt>
      <trkpt lat="45.06333" lon="2.61599">
        <ele>1007</ele>
        <time>2020-08-03T06:44:45.000Z</time>
      </trkpt>
      <trkpt lat="45.06331" lon="2.61599">
        <ele>1006.4000244141</ele>
        <time>2020-08-03T06:44:47.000Z</time>
      </trkpt>
      <trkpt lat="45.0633" lon="2.61598">
        <ele>1006</ele>
        <time>2020-08-03T06:44:48.000Z</time>
      </trkpt>
      <trkpt lat="45.06327" lon="2.61596">
        <ele>1004.799987793</ele>
        <time>2020-08-03T06:44:52.000Z</time>
      </trkpt>
      <trkpt lat="45.06324" lon="2.61594">
        <ele>1004.5999755859</ele>
        <time>2020-08-03T06:44:54.000Z</time>
      </trkpt>
      <trkpt lat="45.06321" lon="2.6159">
        <ele>1003.799987793</ele>
        <time>2020-08-03T06:44:58.000Z</time>
      </trkpt>
      <trkpt lat="45.06317" lon="2.61589">
        <ele>1002.5999755859</ele>
        <time>2020-08-03T06:45:01.000Z</time>
      </trkpt>
      <trkpt lat="45.06316" lon="2.61588">
        <ele>1002.4000244141</ele>
        <time>2020-08-03T06:45:02.000Z</time>
      </trkpt>
      <trkpt lat="45.06316" lon="2.61587">
        <ele>1002.200012207</ele>
        <time>2020-08-03T06:45:03.000Z</time>
      </trkpt>
      <trkpt lat="45.06314" lon="2.61585">
        <ele>1001.799987793</ele>
        <time>2020-08-03T06:45:05.000Z</time>
      </trkpt>
      <trkpt lat="45.06314" lon="2.61584">
        <ele>1001.5999755859</ele>
        <time>2020-08-03T06:45:06.000Z</time>
      </trkpt>
      <trkpt lat="45.06313" lon="2.61583">
        <ele>1001.4000244141</ele>
        <time>2020-08-03T06:45:07.000Z</time>
      </trkpt>
      <trkpt lat="45.06312" lon="2.61582">
        <ele>1001.200012207</ele>
        <time>2020-08-03T06:45:08.000Z</time>
      </trkpt>
      <trkpt lat="45.0631" lon="2.61583">
        <ele>1000.5999755859</ele>
        <time>2020-08-03T06:45:12.000Z</time>
      </trkpt>
      <trkpt lat="45.0631" lon="2.61586">
        <ele>1000.4000244141</ele>
        <time>2020-08-03T06:45:14.000Z</time>
      </trkpt>
      <trkpt lat="45.06308" lon="2.6159">
        <ele>1000</ele>
        <time>2020-08-03T06:45:21.000Z</time>
      </trkpt>
      <trkpt lat="45.06308" lon="2.61594">
        <ele>1000</ele>
        <time>2020-08-03T06:45:30.000Z</time>
      </trkpt>
      <trkpt lat="45.06305" lon="2.61597">
        <ele>999.79998779297</ele>
        <time>2020-08-03T06:45:33.000Z</time>
      </trkpt>
      <trkpt lat="45.06304" lon="2.61597">
        <ele>999.40002441406</ele>
        <time>2020-08-03T06:45:35.000Z</time>
      </trkpt>
      <trkpt lat="45.06299" lon="2.61597">
        <ele>998.20001220703</ele>
        <time>2020-08-03T06:45:41.000Z</time>
      </trkpt>
      <trkpt lat="45.06298" lon="2.61597">
        <ele>997.79998779297</ele>
        <time>2020-08-03T06:45:42.000Z</time>
      </trkpt>
      <trkpt lat="45.06296" lon="2.61597">
        <ele>997</ele>
        <time>2020-08-03T06:45:44.000Z</time>
      </trkpt>
      <trkpt lat="45.06289" lon="2.61596">
        <ele>996</ele>
        <time>2020-08-03T06:45:50.000Z</time>
      </trkpt>
      <trkpt lat="45.06285" lon="2.61596">
        <ele>994.59997558594</ele>
        <time>2020-08-03T06:45:54.000Z</time>
      </trkpt>
      <trkpt lat="45.06284" lon="2.61596">
        <ele>994.40002441406</ele>
        <time>2020-08-03T06:45:55.000Z</time>
      </trkpt>
      <trkpt lat="45.06283" lon="2.61596">
        <ele>994.20001220703</ele>
        <time>2020-08-03T06:45:56.000Z</time>
      </trkpt>
      <trkpt lat="45.0628" lon="2.616">
        <ele>994</ele>
        <time>2020-08-03T06:46:04.000Z</time>
      </trkpt>
      <trkpt lat="45.06278" lon="2.61606">
        <ele>994.40002441406</ele>
        <time>2020-08-03T06:46:11.000Z</time>
      </trkpt>
      <trkpt lat="45.0628" lon="2.61607">
        <ele>994.40002441406</ele>
        <time>2020-08-03T06:46:13.000Z</time>
      </trkpt>
      <trkpt lat="45.06284" lon="2.61611">
        <ele>994.20001220703</ele>
        <time>2020-08-03T06:46:16.000Z</time>
      </trkpt>
      <trkpt lat="45.06287" lon="2.61621">
        <ele>993.59997558594</ele>
        <time>2020-08-03T06:46:22.000Z</time>
      </trkpt>
      <trkpt lat="45.06287" lon="2.61622">
        <ele>993.40002441406</ele>
        <time>2020-08-03T06:46:23.000Z</time>
      </trkpt>
      <trkpt lat="45.06293" lon="2.61626">
        <ele>992.40002441406</ele>
        <time>2020-08-03T06:46:29.000Z</time>
      </trkpt>
      <trkpt lat="45.063" lon="2.61636">
        <ele>991.40002441406</ele>
        <time>2020-08-03T06:46:37.000Z</time>
      </trkpt>
      <trkpt lat="45.06309" lon="2.61643">
        <ele>990.79998779297</ele>
        <time>2020-08-03T06:46:44.000Z</time>
      </trkpt>
      <trkpt lat="45.06314" lon="2.6165">
        <ele>990.20001220703</ele>
        <time>2020-08-03T06:46:50.000Z</time>
      </trkpt>
      <trkpt lat="45.06316" lon="2.61651">
        <ele>990</ele>
        <time>2020-08-03T06:46:51.000Z</time>
      </trkpt>
      <trkpt lat="45.06325" lon="2.61657">
        <ele>989.20001220703</ele>
        <time>2020-08-03T06:46:59.000Z</time>
      </trkpt>
      <trkpt lat="45.06327" lon="2.61658">
        <ele>989.20001220703</ele>
        <time>2020-08-03T06:47:00.000Z</time>
      </trkpt>
      <trkpt lat="45.06334" lon="2.61662">
        <ele>989</ele>
        <time>2020-08-03T06:47:07.000Z</time>
      </trkpt>
      <trkpt lat="45.06343" lon="2.61667">
        <ele>988.40002441406</ele>
        <time>2020-08-03T06:47:15.000Z</time>
      </trkpt>
      <trkpt lat="45.0635" lon="2.61672">
        <ele>988</ele>
        <time>2020-08-03T06:47:23.000Z</time>
      </trkpt>
      <trkpt lat="45.06358" lon="2.61676">
        <ele>988</ele>
        <time>2020-08-03T06:47:30.000Z</time>
      </trkpt>
      <trkpt lat="45.06366" lon="2.61687">
        <ele>988</ele>
        <time>2020-08-03T06:47:37.000Z</time>
      </trkpt>
      <trkpt lat="45.06368" lon="2.61698">
        <ele>987.79998779297</ele>
        <time>2020-08-03T06:47:43.000Z</time>
      </trkpt>
      <trkpt lat="45.06369" lon="2.617">
        <ele>987.79998779297</ele>
        <time>2020-08-03T06:47:44.000Z</time>
      </trkpt>
      <trkpt lat="45.06371" lon="2.61702">
        <ele>987.79998779297</ele>
        <time>2020-08-03T06:47:48.000Z</time>
      </trkpt>
      <trkpt lat="45.06372" lon="2.61708">
        <ele>988</ele>
        <time>2020-08-03T06:47:55.000Z</time>
      </trkpt>
      <trkpt lat="45.06372" lon="2.61709">
        <ele>988</ele>
        <time>2020-08-03T06:47:56.000Z</time>
      </trkpt>
      <trkpt lat="45.06371" lon="2.61718">
        <ele>987.79998779297</ele>
        <time>2020-08-03T06:48:01.000Z</time>
      </trkpt>
      <trkpt lat="45.06372" lon="2.6172">
        <ele>987.79998779297</ele>
        <time>2020-08-03T06:48:02.000Z</time>
      </trkpt>
      <trkpt lat="45.06371" lon="2.61741">
        <ele>987.20001220703</ele>
        <time>2020-08-03T06:48:11.000Z</time>
      </trkpt>
      <trkpt lat="45.06372" lon="2.61744">
        <ele>987.20001220703</ele>
        <time>2020-08-03T06:48:13.000Z</time>
      </trkpt>
      <trkpt lat="45.06372" lon="2.61747">
        <ele>987</ele>
        <time>2020-08-03T06:48:14.000Z</time>
      </trkpt>
      <trkpt lat="45.06372" lon="2.61754">
        <ele>986.79998779297</ele>
        <time>2020-08-03T06:48:18.000Z</time>
      </trkpt>
      <trkpt lat="45.06372" lon="2.61756">
        <ele>986.79998779297</ele>
        <time>2020-08-03T06:48:21.000Z</time>
      </trkpt>
      <trkpt lat="45.06373" lon="2.61759">
        <ele>986.59997558594</ele>
        <time>2020-08-03T06:48:23.000Z</time>
      </trkpt>
      <trkpt lat="45.06375" lon="2.61772">
        <ele>986.20001220703</ele>
        <time>2020-08-03T06:48:30.000Z</time>
      </trkpt>
      <trkpt lat="45.06375" lon="2.61774">
        <ele>985.79998779297</ele>
        <time>2020-08-03T06:48:31.000Z</time>
      </trkpt>
      <trkpt lat="45.0638" lon="2.61788">
        <ele>985</ele>
        <time>2020-08-03T06:48:40.000Z</time>
      </trkpt>
      <trkpt lat="45.06381" lon="2.61789">
        <ele>984.79998779297</ele>
        <time>2020-08-03T06:48:41.000Z</time>
      </trkpt>
      <trkpt lat="45.06383" lon="2.61799">
        <ele>984.20001220703</ele>
        <time>2020-08-03T06:48:47.000Z</time>
      </trkpt>
      <trkpt lat="45.06388" lon="2.61815">
        <ele>984.40002441406</ele>
        <time>2020-08-03T06:48:57.000Z</time>
      </trkpt>
      <trkpt lat="45.06393" lon="2.61823">
        <ele>984.20001220703</ele>
        <time>2020-08-03T06:49:04.000Z</time>
      </trkpt>
      <trkpt lat="45.06394" lon="2.61839">
        <ele>984.20001220703</ele>
        <time>2020-08-03T06:49:13.000Z</time>
      </trkpt>
      <trkpt lat="45.06396" lon="2.61845">
        <ele>983.59997558594</ele>
        <time>2020-08-03T06:49:17.000Z</time>
      </trkpt>
      <trkpt lat="45.06397" lon="2.61851">
        <ele>983</ele>
        <time>2020-08-03T06:49:20.000Z</time>
      </trkpt>
      <trkpt lat="45.06399" lon="2.6186">
        <ele>982.40002441406</ele>
        <time>2020-08-03T06:49:25.000Z</time>
      </trkpt>
      <trkpt lat="45.064" lon="2.61866">
        <ele>982.20001220703</ele>
        <time>2020-08-03T06:49:28.000Z</time>
      </trkpt>
      <trkpt lat="45.06402" lon="2.61871">
        <ele>982</ele>
        <time>2020-08-03T06:49:31.000Z</time>
      </trkpt>
      <trkpt lat="45.06404" lon="2.61876">
        <ele>982</ele>
        <time>2020-08-03T06:49:35.000Z</time>
      </trkpt>
      <trkpt lat="45.06404" lon="2.61882">
        <ele>981.59997558594</ele>
        <time>2020-08-03T06:49:39.000Z</time>
      </trkpt>
      <trkpt lat="45.06403" lon="2.61886">
        <ele>981.59997558594</ele>
        <time>2020-08-03T06:49:41.000Z</time>
      </trkpt>
      <trkpt lat="45.064" lon="2.619">
        <ele>981.59997558594</ele>
        <time>2020-08-03T06:49:50.000Z</time>
      </trkpt>
      <trkpt lat="45.06396" lon="2.61913">
        <ele>981.59997558594</ele>
        <time>2020-08-03T06:50:01.000Z</time>
      </trkpt>
      <trkpt lat="45.06391" lon="2.61923">
        <ele>981.79998779297</ele>
        <time>2020-08-03T06:50:09.000Z</time>
      </trkpt>
      <trkpt lat="45.06384" lon="2.61936">
        <ele>981.59997558594</ele>
        <time>2020-08-03T06:50:18.000Z</time>
      </trkpt>
      <trkpt lat="45.06382" lon="2.61945">
        <ele>981.40002441406</ele>
        <time>2020-08-03T06:50:25.000Z</time>
      </trkpt>
      <trkpt lat="45.06381" lon="2.61946">
        <ele>981.40002441406</ele>
        <time>2020-08-03T06:50:26.000Z</time>
      </trkpt>
      <trkpt lat="45.06381" lon="2.61947">
        <ele>981.20001220703</ele>
        <time>2020-08-03T06:50:27.000Z</time>
      </trkpt>
      <trkpt lat="45.06379" lon="2.61958">
        <ele>980.59997558594</ele>
        <time>2020-08-03T06:50:34.000Z</time>
      </trkpt>
      <trkpt lat="45.06379" lon="2.61958">
        <ele>980.40002441406</ele>
        <time>2020-08-03T06:50:35.000Z</time>
      </trkpt>
      <trkpt lat="45.06379" lon="2.6196">
        <ele>980.20001220703</ele>
        <time>2020-08-03T06:50:36.000Z</time>
      </trkpt>
      <trkpt lat="45.0638" lon="2.61967">
        <ele>979.20001220703</ele>
        <time>2020-08-03T06:50:39.000Z</time>
      </trkpt>
      <trkpt lat="45.0638" lon="2.61969">
        <ele>979.20001220703</ele>
        <time>2020-08-03T06:50:40.000Z</time>
      </trkpt>
      <trkpt lat="45.06385" lon="2.61975">
        <ele>978.79998779297</ele>
        <time>2020-08-03T06:50:46.000Z</time>
      </trkpt>
      <trkpt lat="45.06387" lon="2.61975">
        <ele>978.20001220703</ele>
        <time>2020-08-03T06:50:48.000Z</time>
      </trkpt>
      <trkpt lat="45.06389" lon="2.61979">
        <ele>977.40002441406</ele>
        <time>2020-08-03T06:50:53.000Z</time>
      </trkpt>
      <trkpt lat="45.06391" lon="2.61983">
        <ele>977</ele>
        <time>2020-08-03T06:50:56.000Z</time>
      </trkpt>
      <trkpt lat="45.06395" lon="2.61986">
        <ele>976.79998779297</ele>
        <time>2020-08-03T06:51:00.000Z</time>
      </trkpt>
      <trkpt lat="45.06401" lon="2.62">
        <ele>976.40002441406</ele>
        <time>2020-08-03T06:51:08.000Z</time>
      </trkpt>
      <trkpt lat="45.06403" lon="2.62005">
        <ele>976</ele>
        <time>2020-08-03T06:51:13.000Z</time>
      </trkpt>
      <trkpt lat="45.06404" lon="2.62007">
        <ele>976</ele>
        <time>2020-08-03T06:51:14.000Z</time>
      </trkpt>
      <trkpt lat="45.06406" lon="2.6201">
        <ele>976</ele>
        <time>2020-08-03T06:51:16.000Z</time>
      </trkpt>
      <trkpt lat="45.0641" lon="2.62013">
        <ele>976</ele>
        <time>2020-08-03T06:51:20.000Z</time>
      </trkpt>
      <trkpt lat="45.06415" lon="2.62022">
        <ele>976</ele>
        <time>2020-08-03T06:51:26.000Z</time>
      </trkpt>
      <trkpt lat="45.06416" lon="2.62024">
        <ele>976</ele>
        <time>2020-08-03T06:51:27.000Z</time>
      </trkpt>
      <trkpt lat="45.06418" lon="2.62031">
        <ele>976</ele>
        <time>2020-08-03T06:51:31.000Z</time>
      </trkpt>
      <trkpt lat="45.06418" lon="2.62035">
        <ele>976</ele>
        <time>2020-08-03T06:51:33.000Z</time>
      </trkpt>
      <trkpt lat="45.06416" lon="2.62045">
        <ele>976</ele>
        <time>2020-08-03T06:51:40.000Z</time>
      </trkpt>
      <trkpt lat="45.06414" lon="2.62052">
        <ele>975.79998779297</ele>
        <time>2020-08-03T06:51:46.000Z</time>
      </trkpt>
      <trkpt lat="45.06413" lon="2.62055">
        <ele>975.79998779297</ele>
        <time>2020-08-03T06:51:50.000Z</time>
      </trkpt>
      <trkpt lat="45.06411" lon="2.62059">
        <ele>976</ele>
        <time>2020-08-03T06:51:53.000Z</time>
      </trkpt>
      <trkpt lat="45.06409" lon="2.62063">
        <ele>975.79998779297</ele>
        <time>2020-08-03T06:51:59.000Z</time>
      </trkpt>
      <trkpt lat="45.06409" lon="2.6207">
        <ele>974.79998779297</ele>
        <time>2020-08-03T06:52:04.000Z</time>
      </trkpt>
      <trkpt lat="45.06409" lon="2.62071">
        <ele>974.40002441406</ele>
        <time>2020-08-03T06:52:05.000Z</time>
      </trkpt>
      <trkpt lat="45.06404" lon="2.62078">
        <ele>973.79998779297</ele>
        <time>2020-08-03T06:52:13.000Z</time>
      </trkpt>
      <trkpt lat="45.06401" lon="2.62101">
        <ele>973</ele>
        <time>2020-08-03T06:52:18.000Z</time>
      </trkpt>
      <trkpt lat="45.06402" lon="2.62105">
        <ele>972.79998779297</ele>
        <time>2020-08-03T06:52:20.000Z</time>
      </trkpt>
      <trkpt lat="45.06402" lon="2.62105">
        <ele>972.59997558594</ele>
        <time>2020-08-03T06:52:21.000Z</time>
      </trkpt>
      <trkpt lat="45.06403" lon="2.62115">
        <ele>971.59997558594</ele>
        <time>2020-08-03T06:52:28.000Z</time>
      </trkpt>
      <trkpt lat="45.06402" lon="2.62117">
        <ele>971.40002441406</ele>
        <time>2020-08-03T06:52:29.000Z</time>
      </trkpt>
      <trkpt lat="45.06403" lon="2.62122">
        <ele>970.40002441406</ele>
        <time>2020-08-03T06:52:33.000Z</time>
      </trkpt>
      <trkpt lat="45.06404" lon="2.62125">
        <ele>970</ele>
        <time>2020-08-03T06:52:35.000Z</time>
      </trkpt>
      <trkpt lat="45.06398" lon="2.6215">
        <ele>969.79998779297</ele>
        <time>2020-08-03T06:52:42.000Z</time>
      </trkpt>
      <trkpt lat="45.064" lon="2.62156">
        <ele>969.20001220703</ele>
        <time>2020-08-03T06:52:45.000Z</time>
      </trkpt>
      <trkpt lat="45.06402" lon="2.62161">
        <ele>969</ele>
        <time>2020-08-03T06:52:49.000Z</time>
      </trkpt>
      <trkpt lat="45.06405" lon="2.62167">
        <ele>968.79998779297</ele>
        <time>2020-08-03T06:52:56.000Z</time>
      </trkpt>
      <trkpt lat="45.06407" lon="2.62183">
        <ele>968.40002441406</ele>
        <time>2020-08-03T06:53:05.000Z</time>
      </trkpt>
      <trkpt lat="45.06407" lon="2.62187">
        <ele>968.20001220703</ele>
        <time>2020-08-03T06:53:08.000Z</time>
      </trkpt>
      <trkpt lat="45.06409" lon="2.62189">
        <ele>968.20001220703</ele>
        <time>2020-08-03T06:53:11.000Z</time>
      </trkpt>
      <trkpt lat="45.06412" lon="2.62197">
        <ele>968.59997558594</ele>
        <time>2020-08-03T06:53:19.000Z</time>
      </trkpt>
      <trkpt lat="45.0642" lon="2.622">
        <ele>968.40002441406</ele>
        <time>2020-08-03T06:53:25.000Z</time>
      </trkpt>
      <trkpt lat="45.06421" lon="2.62204">
        <ele>968.59997558594</ele>
        <time>2020-08-03T06:53:32.000Z</time>
      </trkpt>
      <trkpt lat="45.06422" lon="2.62206">
        <ele>968.79998779297</ele>
        <time>2020-08-03T06:53:34.000Z</time>
      </trkpt>
      <trkpt lat="45.06425" lon="2.6221">
        <ele>968.40002441406</ele>
        <time>2020-08-03T06:53:38.000Z</time>
      </trkpt>
      <trkpt lat="45.06428" lon="2.62219">
        <ele>968.20001220703</ele>
        <time>2020-08-03T06:53:46.000Z</time>
      </trkpt>
      <trkpt lat="45.0643" lon="2.62222">
        <ele>968.20001220703</ele>
        <time>2020-08-03T06:53:48.000Z</time>
      </trkpt>
      <trkpt lat="45.06437" lon="2.62229">
        <ele>968.40002441406</ele>
        <time>2020-08-03T06:53:54.000Z</time>
      </trkpt>
      <trkpt lat="45.06444" lon="2.62236">
        <ele>968.40002441406</ele>
        <time>2020-08-03T06:54:01.000Z</time>
      </trkpt>
      <trkpt lat="45.06452" lon="2.62243">
        <ele>968.59997558594</ele>
        <time>2020-08-03T06:54:07.000Z</time>
      </trkpt>
      <trkpt lat="45.06453" lon="2.62247">
        <ele>968.79998779297</ele>
        <time>2020-08-03T06:54:10.000Z</time>
      </trkpt>
      <trkpt lat="45.06455" lon="2.6225">
        <ele>969</ele>
        <time>2020-08-03T06:54:12.000Z</time>
      </trkpt>
      <trkpt lat="45.06457" lon="2.62252">
        <ele>969.20001220703</ele>
        <time>2020-08-03T06:54:14.000Z</time>
      </trkpt>
      <trkpt lat="45.06458" lon="2.62254">
        <ele>969.40002441406</ele>
        <time>2020-08-03T06:54:16.000Z</time>
      </trkpt>
      <trkpt lat="45.06463" lon="2.6226">
        <ele>969.59997558594</ele>
        <time>2020-08-03T06:54:21.000Z</time>
      </trkpt>
      <trkpt lat="45.06467" lon="2.62262">
        <ele>969.59997558594</ele>
        <time>2020-08-03T06:54:24.000Z</time>
      </trkpt>
      <trkpt lat="45.06467" lon="2.62267">
        <ele>970</ele>
        <time>2020-08-03T06:54:28.000Z</time>
      </trkpt>
      <trkpt lat="45.06467" lon="2.62271">
        <ele>970.40002441406</ele>
        <time>2020-08-03T06:54:30.000Z</time>
      </trkpt>
      <trkpt lat="45.06466" lon="2.62277">
        <ele>970.40002441406</ele>
        <time>2020-08-03T06:54:32.000Z</time>
      </trkpt>
      <trkpt lat="45.06464" lon="2.62287">
        <ele>971.40002441406</ele>
        <time>2020-08-03T06:54:37.000Z</time>
      </trkpt>
      <trkpt lat="45.06462" lon="2.62293">
        <ele>971.59997558594</ele>
        <time>2020-08-03T06:54:40.000Z</time>
      </trkpt>
      <trkpt lat="45.06466" lon="2.62303">
        <ele>972</ele>
        <time>2020-08-03T06:54:48.000Z</time>
      </trkpt>
      <trkpt lat="45.06465" lon="2.62308">
        <ele>972.59997558594</ele>
        <time>2020-08-03T06:54:52.000Z</time>
      </trkpt>
      <trkpt lat="45.06466" lon="2.62314">
        <ele>973.40002441406</ele>
        <time>2020-08-03T06:54:56.000Z</time>
      </trkpt>
      <trkpt lat="45.06467" lon="2.62317">
        <ele>973.79998779297</ele>
        <time>2020-08-03T06:54:58.000Z</time>
      </trkpt>
      <trkpt lat="45.0647" lon="2.62323">
        <ele>974.79998779297</ele>
        <time>2020-08-03T06:55:04.000Z</time>
      </trkpt>
      <trkpt lat="45.06471" lon="2.62325">
        <ele>975</ele>
        <time>2020-08-03T06:55:05.000Z</time>
      </trkpt>
      <trkpt lat="45.06472" lon="2.62326">
        <ele>975.20001220703</ele>
        <time>2020-08-03T06:55:06.000Z</time>
      </trkpt>
      <trkpt lat="45.06474" lon="2.62331">
        <ele>976.20001220703</ele>
        <time>2020-08-03T06:55:10.000Z</time>
      </trkpt>
      <trkpt lat="45.06475" lon="2.62334">
        <ele>976.40002441406</ele>
        <time>2020-08-03T06:55:12.000Z</time>
      </trkpt>
      <trkpt lat="45.06476" lon="2.62342">
        <ele>977.40002441406</ele>
        <time>2020-08-03T06:55:18.000Z</time>
      </trkpt>
      <trkpt lat="45.06476" lon="2.62347">
        <ele>978</ele>
        <time>2020-08-03T06:55:23.000Z</time>
      </trkpt>
      <trkpt lat="45.06476" lon="2.6235">
        <ele>978.59997558594</ele>
        <time>2020-08-03T06:55:26.000Z</time>
      </trkpt>
      <trkpt lat="45.06476" lon="2.62357">
        <ele>979.40002441406</ele>
        <time>2020-08-03T06:55:31.000Z</time>
      </trkpt>
      <trkpt lat="45.06477" lon="2.62358">
        <ele>979.59997558594</ele>
        <time>2020-08-03T06:55:32.000Z</time>
      </trkpt>
      <trkpt lat="45.06477" lon="2.62359">
        <ele>979.79998779297</ele>
        <time>2020-08-03T06:55:33.000Z</time>
      </trkpt>
      <trkpt lat="45.0648" lon="2.62364">
        <ele>980.59997558594</ele>
        <time>2020-08-03T06:55:38.000Z</time>
      </trkpt>
      <trkpt lat="45.0648" lon="2.62365">
        <ele>980.59997558594</ele>
        <time>2020-08-03T06:55:39.000Z</time>
      </trkpt>
      <trkpt lat="45.06483" lon="2.62367">
        <ele>981</ele>
        <time>2020-08-03T06:55:41.000Z</time>
      </trkpt>
      <trkpt lat="45.06487" lon="2.6237">
        <ele>981.20001220703</ele>
        <time>2020-08-03T06:55:47.000Z</time>
      </trkpt>
      <trkpt lat="45.06488" lon="2.6237">
        <ele>981.20001220703</ele>
        <time>2020-08-03T06:55:48.000Z</time>
      </trkpt>
      <trkpt lat="45.06492" lon="2.62371">
        <ele>981.79998779297</ele>
        <time>2020-08-03T06:55:53.000Z</time>
      </trkpt>
      <trkpt lat="45.06492" lon="2.62372">
        <ele>982</ele>
        <time>2020-08-03T06:55:55.000Z</time>
      </trkpt>
      <trkpt lat="45.065" lon="2.62374">
        <ele>982.40002441406</ele>
        <time>2020-08-03T06:56:03.000Z</time>
      </trkpt>
      <trkpt lat="45.06508" lon="2.62379">
        <ele>982.20001220703</ele>
        <time>2020-08-03T06:56:11.000Z</time>
      </trkpt>
      <trkpt lat="45.06514" lon="2.62383">
        <ele>982.20001220703</ele>
        <time>2020-08-03T06:56:18.000Z</time>
      </trkpt>
      <trkpt lat="45.06516" lon="2.62383">
        <ele>982.20001220703</ele>
        <time>2020-08-03T06:56:19.000Z</time>
      </trkpt>
      <trkpt lat="45.06524" lon="2.62386">
        <ele>982</ele>
        <time>2020-08-03T06:56:27.000Z</time>
      </trkpt>
      <trkpt lat="45.06534" lon="2.62391">
        <ele>982</ele>
        <time>2020-08-03T06:56:35.000Z</time>
      </trkpt>
      <trkpt lat="45.06546" lon="2.62394">
        <ele>980.79998779297</ele>
        <time>2020-08-03T06:56:43.000Z</time>
      </trkpt>
      <trkpt lat="45.06548" lon="2.62395">
        <ele>980.79998779297</ele>
        <time>2020-08-03T06:56:44.000Z</time>
      </trkpt>
      <trkpt lat="45.06556" lon="2.62404">
        <ele>981</ele>
        <time>2020-08-03T06:56:51.000Z</time>
      </trkpt>
      <trkpt lat="45.06563" lon="2.62412">
        <ele>981</ele>
        <time>2020-08-03T06:56:59.000Z</time>
      </trkpt>
      <trkpt lat="45.06568" lon="2.62417">
        <ele>981.79998779297</ele>
        <time>2020-08-03T06:57:06.000Z</time>
      </trkpt>
      <trkpt lat="45.06569" lon="2.62417">
        <ele>981.79998779297</ele>
        <time>2020-08-03T06:57:07.000Z</time>
      </trkpt>
      <trkpt lat="45.06573" lon="2.62419">
        <ele>981.79998779297</ele>
        <time>2020-08-03T06:57:12.000Z</time>
      </trkpt>
      <trkpt lat="45.06574" lon="2.6242">
        <ele>981.79998779297</ele>
        <time>2020-08-03T06:57:13.000Z</time>
      </trkpt>
      <trkpt lat="45.06583" lon="2.62423">
        <ele>981.79998779297</ele>
        <time>2020-08-03T06:57:20.000Z</time>
      </trkpt>
      <trkpt lat="45.06592" lon="2.62425">
        <ele>982.40002441406</ele>
        <time>2020-08-03T06:57:29.000Z</time>
      </trkpt>
      <trkpt lat="45.06596" lon="2.62428">
        <ele>982.59997558594</ele>
        <time>2020-08-03T06:57:33.000Z</time>
      </trkpt>
      <trkpt lat="45.06597" lon="2.62431">
        <ele>982.40002441406</ele>
        <time>2020-08-03T06:57:35.000Z</time>
      </trkpt>
      <trkpt lat="45.06602" lon="2.62446">
        <ele>982.20001220703</ele>
        <time>2020-08-03T06:57:43.000Z</time>
      </trkpt>
      <trkpt lat="45.06606" lon="2.62458">
        <ele>981.59997558594</ele>
        <time>2020-08-03T06:57:50.000Z</time>
      </trkpt>
      <trkpt lat="45.06607" lon="2.6247">
        <ele>980.79998779297</ele>
        <time>2020-08-03T06:57:57.000Z</time>
      </trkpt>
      <trkpt lat="45.06607" lon="2.62481">
        <ele>980.20001220703</ele>
        <time>2020-08-03T06:58:04.000Z</time>
      </trkpt>
      <trkpt lat="45.06606" lon="2.62485">
        <ele>979.79998779297</ele>
        <time>2020-08-03T06:58:07.000Z</time>
      </trkpt>
      <trkpt lat="45.06604" lon="2.62492">
        <ele>979.40002441406</ele>
        <time>2020-08-03T06:58:11.000Z</time>
      </trkpt>
      <trkpt lat="45.06597" lon="2.62507">
        <ele>979</ele>
        <time>2020-08-03T06:58:20.000Z</time>
      </trkpt>
      <trkpt lat="45.06589" lon="2.62519">
        <ele>979.20001220703</ele>
        <time>2020-08-03T06:58:30.000Z</time>
      </trkpt>
      <trkpt lat="45.06584" lon="2.62527">
        <ele>978.79998779297</ele>
        <time>2020-08-03T06:58:35.000Z</time>
      </trkpt>
      <trkpt lat="45.06584" lon="2.62526">
        <ele>978.59997558594</ele>
        <time>2020-08-03T06:58:36.000Z</time>
      </trkpt>
      <trkpt lat="45.06583" lon="2.62525">
        <ele>978.40002441406</ele>
        <time>2020-08-03T06:58:40.000Z</time>
      </trkpt>
      <trkpt lat="45.06582" lon="2.62523">
        <ele>978.40002441406</ele>
        <time>2020-08-03T06:58:42.000Z</time>
      </trkpt>
      <trkpt lat="45.06581" lon="2.62519">
        <ele>977.79998779297</ele>
        <time>2020-08-03T06:58:53.000Z</time>
      </trkpt>
      <trkpt lat="45.06579" lon="2.62525">
        <ele>977.79998779297</ele>
        <time>2020-08-03T06:59:00.000Z</time>
      </trkpt>
      <trkpt lat="45.06579" lon="2.62524">
        <ele>977.79998779297</ele>
        <time>2020-08-03T06:59:05.000Z</time>
      </trkpt>
      <trkpt lat="45.0658" lon="2.62525">
        <ele>977.79998779297</ele>
        <time>2020-08-03T06:59:12.000Z</time>
      </trkpt>
      <trkpt lat="45.0658" lon="2.62525">
        <ele>977.40002441406</ele>
        <time>2020-08-03T06:59:13.000Z</time>
      </trkpt>
      <trkpt lat="45.0658" lon="2.62526">
        <ele>976.40002441406</ele>
        <time>2020-08-03T06:59:18.000Z</time>
      </trkpt>
      <trkpt lat="45.0658" lon="2.62526">
        <ele>976.40002441406</ele>
        <time>2020-08-03T06:59:21.000Z</time>
      </trkpt>
      <trkpt lat="45.06581" lon="2.62528">
        <ele>976.40002441406</ele>
        <time>2020-08-03T06:59:27.000Z</time>
      </trkpt>
      <trkpt lat="45.06582" lon="2.62528">
        <ele>976.59997558594</ele>
        <time>2020-08-03T06:59:37.000Z</time>
      </trkpt>
      <trkpt lat="45.06582" lon="2.62525">
        <ele>976.59997558594</ele>
        <time>2020-08-03T06:59:47.000Z</time>
      </trkpt>
      <trkpt lat="45.06582" lon="2.62528">
        <ele>977</ele>
        <time>2020-08-03T06:59:57.000Z</time>
      </trkpt>
      <trkpt lat="45.06582" lon="2.6253">
        <ele>976.40002441406</ele>
        <time>2020-08-03T07:00:04.000Z</time>
      </trkpt>
      <trkpt lat="45.06581" lon="2.62531">
        <ele>976.59997558594</ele>
        <time>2020-08-03T07:00:14.000Z</time>
      </trkpt>
      <trkpt lat="45.06583" lon="2.62534">
        <ele>976.59997558594</ele>
        <time>2020-08-03T07:00:25.000Z</time>
      </trkpt>
      <trkpt lat="45.06583" lon="2.62531">
        <ele>976.59997558594</ele>
        <time>2020-08-03T07:00:33.000Z</time>
      </trkpt>
      <trkpt lat="45.06578" lon="2.62528">
        <ele>976.59997558594</ele>
        <time>2020-08-03T07:00:41.000Z</time>
      </trkpt>
      <trkpt lat="45.06578" lon="2.62528">
        <ele>976.59997558594</ele>
        <time>2020-08-03T07:00:48.000Z</time>
      </trkpt>
      <trkpt lat="45.06578" lon="2.62527">
        <ele>976.59997558594</ele>
        <time>2020-08-03T07:00:56.000Z</time>
      </trkpt>
      <trkpt lat="45.06579" lon="2.62525">
        <ele>976.59997558594</ele>
        <time>2020-08-03T07:01:03.000Z</time>
      </trkpt>
      <trkpt lat="45.0658" lon="2.62525">
        <ele>976.59997558594</ele>
        <time>2020-08-03T07:01:11.000Z</time>
      </trkpt>
      <trkpt lat="45.0658" lon="2.62525">
        <ele>976.59997558594</ele>
        <time>2020-08-03T07:01:21.000Z</time>
      </trkpt>
      <trkpt lat="45.0658" lon="2.62525">
        <ele>976.59997558594</ele>
        <time>2020-08-03T07:01:29.000Z</time>
      </trkpt>
      <trkpt lat="45.0658" lon="2.62524">
        <ele>976.59997558594</ele>
        <time>2020-08-03T07:01:32.000Z</time>
      </trkpt>
      <trkpt lat="45.0658" lon="2.62524">
        <ele>976.59997558594</ele>
        <time>2020-08-03T07:01:39.000Z</time>
      </trkpt>
      <trkpt lat="45.06579" lon="2.62525">
        <ele>976.59997558594</ele>
        <time>2020-08-03T07:01:48.000Z</time>
      </trkpt>
      <trkpt lat="45.06578" lon="2.62525">
        <ele>976.59997558594</ele>
        <time>2020-08-03T07:01:55.000Z</time>
      </trkpt>
      <trkpt lat="45.06578" lon="2.62528">
        <ele>976.59997558594</ele>
        <time>2020-08-03T07:02:04.000Z</time>
      </trkpt>
      <trkpt lat="45.06581" lon="2.62526">
        <ele>976.59997558594</ele>
        <time>2020-08-03T07:02:13.000Z</time>
      </trkpt>
      <trkpt lat="45.06581" lon="2.62525">
        <ele>976.59997558594</ele>
        <time>2020-08-03T07:02:22.000Z</time>
      </trkpt>
      <trkpt lat="45.06582" lon="2.62528">
        <ele>976.59997558594</ele>
        <time>2020-08-03T07:02:28.000Z</time>
      </trkpt>
      <trkpt lat="45.06579" lon="2.62531">
        <ele>976.59997558594</ele>
        <time>2020-08-03T07:02:34.000Z</time>
      </trkpt>
      <trkpt lat="45.06578" lon="2.6253">
        <ele>976.40002441406</ele>
        <time>2020-08-03T07:02:41.000Z</time>
      </trkpt>
      <trkpt lat="45.06578" lon="2.62531">
        <ele>976.59997558594</ele>
        <time>2020-08-03T07:02:51.000Z</time>
      </trkpt>
      <trkpt lat="45.06577" lon="2.62535">
        <ele>976.40002441406</ele>
        <time>2020-08-03T07:02:55.000Z</time>
      </trkpt>
      <trkpt lat="45.06576" lon="2.6254">
        <ele>976.20001220703</ele>
        <time>2020-08-03T07:02:58.000Z</time>
      </trkpt>
      <trkpt lat="45.06571" lon="2.6255">
        <ele>976.40002441406</ele>
        <time>2020-08-03T07:03:05.000Z</time>
      </trkpt>
      <trkpt lat="45.06567" lon="2.62557">
        <ele>975.79998779297</ele>
        <time>2020-08-03T07:03:12.000Z</time>
      </trkpt>
      <trkpt lat="45.06561" lon="2.62562">
        <ele>975.40002441406</ele>
        <time>2020-08-03T07:03:19.000Z</time>
      </trkpt>
      <trkpt lat="45.06559" lon="2.62563">
        <ele>975</ele>
        <time>2020-08-03T07:03:21.000Z</time>
      </trkpt>
      <trkpt lat="45.06552" lon="2.62569">
        <ele>974.59997558594</ele>
        <time>2020-08-03T07:03:28.000Z</time>
      </trkpt>
      <trkpt lat="45.06545" lon="2.62572">
        <ele>974.20001220703</ele>
        <time>2020-08-03T07:03:34.000Z</time>
      </trkpt>
      <trkpt lat="45.06544" lon="2.62573">
        <ele>974</ele>
        <time>2020-08-03T07:03:35.000Z</time>
      </trkpt>
      <trkpt lat="45.06544" lon="2.62573">
        <ele>973</ele>
        <time>2020-08-03T07:03:40.000Z</time>
      </trkpt>
      <trkpt lat="45.06544" lon="2.62572">
        <ele>972.79998779297</ele>
        <time>2020-08-03T07:03:42.000Z</time>
      </trkpt>
      <trkpt lat="45.06543" lon="2.62573">
        <ele>973</ele>
        <time>2020-08-03T07:03:44.000Z</time>
      </trkpt>
      <trkpt lat="45.06539" lon="2.62577">
        <ele>973.20001220703</ele>
        <time>2020-08-03T07:03:48.000Z</time>
      </trkpt>
      <trkpt lat="45.06533" lon="2.6258">
        <ele>972.79998779297</ele>
        <time>2020-08-03T07:03:55.000Z</time>
      </trkpt>
      <trkpt lat="45.06532" lon="2.62582">
        <ele>972.79998779297</ele>
        <time>2020-08-03T07:03:56.000Z</time>
      </trkpt>
      <trkpt lat="45.06526" lon="2.62591">
        <ele>972.40002441406</ele>
        <time>2020-08-03T07:04:01.000Z</time>
      </trkpt>
      <trkpt lat="45.06524" lon="2.62592">
        <ele>972</ele>
        <time>2020-08-03T07:04:03.000Z</time>
      </trkpt>
      <trkpt lat="45.06519" lon="2.62595">
        <ele>971.40002441406</ele>
        <time>2020-08-03T07:04:08.000Z</time>
      </trkpt>
      <trkpt lat="45.06512" lon="2.62597">
        <ele>971</ele>
        <time>2020-08-03T07:04:13.000Z</time>
      </trkpt>
      <trkpt lat="45.06511" lon="2.62598">
        <ele>971</ele>
        <time>2020-08-03T07:04:14.000Z</time>
      </trkpt>
      <trkpt lat="45.06503" lon="2.62609">
        <ele>970.40002441406</ele>
        <time>2020-08-03T07:04:21.000Z</time>
      </trkpt>
      <trkpt lat="45.06494" lon="2.62618">
        <ele>970.20001220703</ele>
        <time>2020-08-03T07:04:29.000Z</time>
      </trkpt>
      <trkpt lat="45.06489" lon="2.6262">
        <ele>970</ele>
        <time>2020-08-03T07:04:35.000Z</time>
      </trkpt>
      <trkpt lat="45.06488" lon="2.6262">
        <ele>970</ele>
        <time>2020-08-03T07:04:37.000Z</time>
      </trkpt>
      <trkpt lat="45.06482" lon="2.62622">
        <ele>970</ele>
        <time>2020-08-03T07:04:43.000Z</time>
      </trkpt>
      <trkpt lat="45.06476" lon="2.62625">
        <ele>969.59997558594</ele>
        <time>2020-08-03T07:04:50.000Z</time>
      </trkpt>
      <trkpt lat="45.06472" lon="2.62634">
        <ele>969.59997558594</ele>
        <time>2020-08-03T07:04:57.000Z</time>
      </trkpt>
      <trkpt lat="45.06468" lon="2.62645">
        <ele>969.40002441406</ele>
        <time>2020-08-03T07:05:05.000Z</time>
      </trkpt>
      <trkpt lat="45.06465" lon="2.62657">
        <ele>969.20001220703</ele>
        <time>2020-08-03T07:05:12.000Z</time>
      </trkpt>
      <trkpt lat="45.06465" lon="2.62658">
        <ele>969.20001220703</ele>
        <time>2020-08-03T07:05:13.000Z</time>
      </trkpt>
      <trkpt lat="45.06462" lon="2.62667">
        <ele>969.40002441406</ele>
        <time>2020-08-03T07:05:19.000Z</time>
      </trkpt>
      <trkpt lat="45.06461" lon="2.62679">
        <ele>969.40002441406</ele>
        <time>2020-08-03T07:05:26.000Z</time>
      </trkpt>
      <trkpt lat="45.06461" lon="2.62694">
        <ele>969.20001220703</ele>
        <time>2020-08-03T07:05:34.000Z</time>
      </trkpt>
      <trkpt lat="45.06463" lon="2.62705">
        <ele>969.20001220703</ele>
        <time>2020-08-03T07:05:40.000Z</time>
      </trkpt>
      <trkpt lat="45.06464" lon="2.6271">
        <ele>968.79998779297</ele>
        <time>2020-08-03T07:05:43.000Z</time>
      </trkpt>
      <trkpt lat="45.06467" lon="2.62718">
        <ele>968.40002441406</ele>
        <time>2020-08-03T07:05:48.000Z</time>
      </trkpt>
      <trkpt lat="45.06469" lon="2.62729">
        <ele>968</ele>
        <time>2020-08-03T07:05:55.000Z</time>
      </trkpt>
      <trkpt lat="45.0647" lon="2.62731">
        <ele>967.79998779297</ele>
        <time>2020-08-03T07:05:57.000Z</time>
      </trkpt>
      <trkpt lat="45.06476" lon="2.62734">
        <ele>967.20001220703</ele>
        <time>2020-08-03T07:06:03.000Z</time>
      </trkpt>
      <trkpt lat="45.06479" lon="2.62742">
        <ele>966.59997558594</ele>
        <time>2020-08-03T07:06:08.000Z</time>
      </trkpt>
      <trkpt lat="45.0648" lon="2.62747">
        <ele>965.79998779297</ele>
        <time>2020-08-03T07:06:11.000Z</time>
      </trkpt>
      <trkpt lat="45.0648" lon="2.6275">
        <ele>965.59997558594</ele>
        <time>2020-08-03T07:06:13.000Z</time>
      </trkpt>
      <trkpt lat="45.06481" lon="2.62757">
        <ele>965</ele>
        <time>2020-08-03T07:06:18.000Z</time>
      </trkpt>
      <trkpt lat="45.06481" lon="2.62758">
        <ele>964.59997558594</ele>
        <time>2020-08-03T07:06:19.000Z</time>
      </trkpt>
      <trkpt lat="45.06482" lon="2.62758">
        <ele>964.40002441406</ele>
        <time>2020-08-03T07:06:20.000Z</time>
      </trkpt>
      <trkpt lat="45.06485" lon="2.62759">
        <ele>963.59997558594</ele>
        <time>2020-08-03T07:06:25.000Z</time>
      </trkpt>
      <trkpt lat="45.06486" lon="2.62759">
        <ele>963.20001220703</ele>
        <time>2020-08-03T07:06:26.000Z</time>
      </trkpt>
      <trkpt lat="45.06492" lon="2.6276">
        <ele>962</ele>
        <time>2020-08-03T07:06:33.000Z</time>
      </trkpt>
      <trkpt lat="45.06492" lon="2.62761">
        <ele>961.59997558594</ele>
        <time>2020-08-03T07:06:34.000Z</time>
      </trkpt>
      <trkpt lat="45.06493" lon="2.62763">
        <ele>961.40002441406</ele>
        <time>2020-08-03T07:06:35.000Z</time>
      </trkpt>
      <trkpt lat="45.06498" lon="2.62767">
        <ele>960.79998779297</ele>
        <time>2020-08-03T07:06:38.000Z</time>
      </trkpt>
      <trkpt lat="45.065" lon="2.62771">
        <ele>960.20001220703</ele>
        <time>2020-08-03T07:06:40.000Z</time>
      </trkpt>
      <trkpt lat="45.06506" lon="2.62776">
        <ele>959.79998779297</ele>
        <time>2020-08-03T07:06:44.000Z</time>
      </trkpt>
      <trkpt lat="45.06512" lon="2.62782">
        <ele>959</ele>
        <time>2020-08-03T07:06:48.000Z</time>
      </trkpt>
      <trkpt lat="45.06516" lon="2.62791">
        <ele>958.59997558594</ele>
        <time>2020-08-03T07:06:54.000Z</time>
      </trkpt>
      <trkpt lat="45.06516" lon="2.62793">
        <ele>958.40002441406</ele>
        <time>2020-08-03T07:06:55.000Z</time>
      </trkpt>
      <trkpt lat="45.06516" lon="2.62796">
        <ele>958</ele>
        <time>2020-08-03T07:06:57.000Z</time>
      </trkpt>
      <trkpt lat="45.06519" lon="2.62802">
        <ele>957.40002441406</ele>
        <time>2020-08-03T07:07:00.000Z</time>
      </trkpt>
      <trkpt lat="45.0652" lon="2.62806">
        <ele>957.20001220703</ele>
        <time>2020-08-03T07:07:02.000Z</time>
      </trkpt>
      <trkpt lat="45.06522" lon="2.62816">
        <ele>956.40002441406</ele>
        <time>2020-08-03T07:07:08.000Z</time>
      </trkpt>
      <trkpt lat="45.06523" lon="2.62818">
        <ele>956</ele>
        <time>2020-08-03T07:07:09.000Z</time>
      </trkpt>
      <trkpt lat="45.06524" lon="2.62819">
        <ele>955.40002441406</ele>
        <time>2020-08-03T07:07:11.000Z</time>
      </trkpt>
      <trkpt lat="45.06525" lon="2.62822">
        <ele>955</ele>
        <time>2020-08-03T07:07:14.000Z</time>
      </trkpt>
      <trkpt lat="45.06525" lon="2.62824">
        <ele>955</ele>
        <time>2020-08-03T07:07:15.000Z</time>
      </trkpt>
      <trkpt lat="45.06529" lon="2.62837">
        <ele>954.40002441406</ele>
        <time>2020-08-03T07:07:23.000Z</time>
      </trkpt>
      <trkpt lat="45.0653" lon="2.62838">
        <ele>954.40002441406</ele>
        <time>2020-08-03T07:07:24.000Z</time>
      </trkpt>
      <trkpt lat="45.06533" lon="2.62844">
        <ele>953.59997558594</ele>
        <time>2020-08-03T07:07:29.000Z</time>
      </trkpt>
      <trkpt lat="45.06533" lon="2.62845">
        <ele>953.20001220703</ele>
        <time>2020-08-03T07:07:30.000Z</time>
      </trkpt>
      <trkpt lat="45.06534" lon="2.62847">
        <ele>952.79998779297</ele>
        <time>2020-08-03T07:07:33.000Z</time>
      </trkpt>
      <trkpt lat="45.06533" lon="2.62851">
        <ele>952.40002441406</ele>
        <time>2020-08-03T07:07:36.000Z</time>
      </trkpt>
      <trkpt lat="45.06533" lon="2.62852">
        <ele>952.20001220703</ele>
        <time>2020-08-03T07:07:37.000Z</time>
      </trkpt>
      <trkpt lat="45.06535" lon="2.62856">
        <ele>951.40002441406</ele>
        <time>2020-08-03T07:07:41.000Z</time>
      </trkpt>
      <trkpt lat="45.06536" lon="2.62857">
        <ele>951.20001220703</ele>
        <time>2020-08-03T07:07:42.000Z</time>
      </trkpt>
      <trkpt lat="45.06537" lon="2.62859">
        <ele>951</ele>
        <time>2020-08-03T07:07:43.000Z</time>
      </trkpt>
      <trkpt lat="45.06543" lon="2.62864">
        <ele>950</ele>
        <time>2020-08-03T07:07:47.000Z</time>
      </trkpt>
      <trkpt lat="45.06544" lon="2.62866">
        <ele>949.59997558594</ele>
        <time>2020-08-03T07:07:49.000Z</time>
      </trkpt>
      <trkpt lat="45.06547" lon="2.62874">
        <ele>948.79998779297</ele>
        <time>2020-08-03T07:07:54.000Z</time>
      </trkpt>
      <trkpt lat="45.0655" lon="2.62877">
        <ele>948</ele>
        <time>2020-08-03T07:07:57.000Z</time>
      </trkpt>
      <trkpt lat="45.0655" lon="2.62878">
        <ele>947.59997558594</ele>
        <time>2020-08-03T07:07:58.000Z</time>
      </trkpt>
      <trkpt lat="45.0655" lon="2.62887">
        <ele>946.59997558594</ele>
        <time>2020-08-03T07:08:02.000Z</time>
      </trkpt>
      <trkpt lat="45.06549" lon="2.62889">
        <ele>946.20001220703</ele>
        <time>2020-08-03T07:08:03.000Z</time>
      </trkpt>
      <trkpt lat="45.06548" lon="2.62894">
        <ele>945.40002441406</ele>
        <time>2020-08-03T07:08:06.000Z</time>
      </trkpt>
      <trkpt lat="45.06547" lon="2.629">
        <ele>944.79998779297</ele>
        <time>2020-08-03T07:08:09.000Z</time>
      </trkpt>
      <trkpt lat="45.06547" lon="2.62902">
        <ele>944.40002441406</ele>
        <time>2020-08-03T07:08:10.000Z</time>
      </trkpt>
      <trkpt lat="45.06548" lon="2.62904">
        <ele>944.20001220703</ele>
        <time>2020-08-03T07:08:11.000Z</time>
      </trkpt>
      <trkpt lat="45.06549" lon="2.62912">
        <ele>943</ele>
        <time>2020-08-03T07:08:14.000Z</time>
      </trkpt>
      <trkpt lat="45.0655" lon="2.62922">
        <ele>942</ele>
        <time>2020-08-03T07:08:18.000Z</time>
      </trkpt>
      <trkpt lat="45.06551" lon="2.62926">
        <ele>941.40002441406</ele>
        <time>2020-08-03T07:08:20.000Z</time>
      </trkpt>
      <trkpt lat="45.06552" lon="2.62929">
        <ele>940.79998779297</ele>
        <time>2020-08-03T07:08:22.000Z</time>
      </trkpt>
      <trkpt lat="45.06554" lon="2.6293">
        <ele>940.20001220703</ele>
        <time>2020-08-03T07:08:24.000Z</time>
      </trkpt>
      <trkpt lat="45.06556" lon="2.62932">
        <ele>939.59997558594</ele>
        <time>2020-08-03T07:08:26.000Z</time>
      </trkpt>
      <trkpt lat="45.06559" lon="2.62937">
        <ele>938.40002441406</ele>
        <time>2020-08-03T07:08:30.000Z</time>
      </trkpt>
      <trkpt lat="45.06558" lon="2.62942">
        <ele>938</ele>
        <time>2020-08-03T07:08:33.000Z</time>
      </trkpt>
      <trkpt lat="45.06557" lon="2.6295">
        <ele>937.20001220703</ele>
        <time>2020-08-03T07:08:37.000Z</time>
      </trkpt>
      <trkpt lat="45.06557" lon="2.62951">
        <ele>936.79998779297</ele>
        <time>2020-08-03T07:08:38.000Z</time>
      </trkpt>
      <trkpt lat="45.06556" lon="2.62951">
        <ele>936.20001220703</ele>
        <time>2020-08-03T07:08:40.000Z</time>
      </trkpt>
      <trkpt lat="45.06554" lon="2.62952">
        <ele>935.59997558594</ele>
        <time>2020-08-03T07:08:42.000Z</time>
      </trkpt>
      <trkpt lat="45.06551" lon="2.62954">
        <ele>935.40002441406</ele>
        <time>2020-08-03T07:08:44.000Z</time>
      </trkpt>
      <trkpt lat="45.0655" lon="2.62955">
        <ele>935</ele>
        <time>2020-08-03T07:08:45.000Z</time>
      </trkpt>
      <trkpt lat="45.06548" lon="2.62956">
        <ele>933.79998779297</ele>
        <time>2020-08-03T07:08:48.000Z</time>
      </trkpt>
      <trkpt lat="45.06545" lon="2.62957">
        <ele>933</ele>
        <time>2020-08-03T07:08:51.000Z</time>
      </trkpt>
      <trkpt lat="45.06541" lon="2.62957">
        <ele>932.59997558594</ele>
        <time>2020-08-03T07:08:54.000Z</time>
      </trkpt>
      <trkpt lat="45.0654" lon="2.62956">
        <ele>931.40002441406</ele>
        <time>2020-08-03T07:08:56.000Z</time>
      </trkpt>
      <trkpt lat="45.06537" lon="2.62955">
        <ele>930.40002441406</ele>
        <time>2020-08-03T07:08:59.000Z</time>
      </trkpt>
      <trkpt lat="45.06531" lon="2.62957">
        <ele>929.20001220703</ele>
        <time>2020-08-03T07:09:05.000Z</time>
      </trkpt>
      <trkpt lat="45.0653" lon="2.62956">
        <ele>928.79998779297</ele>
        <time>2020-08-03T07:09:06.000Z</time>
      </trkpt>
      <trkpt lat="45.06528" lon="2.62956">
        <ele>928.59997558594</ele>
        <time>2020-08-03T07:09:07.000Z</time>
      </trkpt>
      <trkpt lat="45.06526" lon="2.62956">
        <ele>928</ele>
        <time>2020-08-03T07:09:09.000Z</time>
      </trkpt>
      <trkpt lat="45.06517" lon="2.6296">
        <ele>927.20001220703</ele>
        <time>2020-08-03T07:09:14.000Z</time>
      </trkpt>
      <trkpt lat="45.06511" lon="2.62966">
        <ele>926.79998779297</ele>
        <time>2020-08-03T07:09:20.000Z</time>
      </trkpt>
      <trkpt lat="45.0651" lon="2.62969">
        <ele>926.79998779297</ele>
        <time>2020-08-03T07:09:22.000Z</time>
      </trkpt>
      <trkpt lat="45.06506" lon="2.62982">
        <ele>926</ele>
        <time>2020-08-03T07:09:28.000Z</time>
      </trkpt>
      <trkpt lat="45.06506" lon="2.62984">
        <ele>925.79998779297</ele>
        <time>2020-08-03T07:09:29.000Z</time>
      </trkpt>
      <trkpt lat="45.06508" lon="2.62999">
        <ele>926.20001220703</ele>
        <time>2020-08-03T07:09:36.000Z</time>
      </trkpt>
      <trkpt lat="45.06505" lon="2.63013">
        <ele>926.20001220703</ele>
        <time>2020-08-03T07:09:44.000Z</time>
      </trkpt>
      <trkpt lat="45.06503" lon="2.63024">
        <ele>926.40002441406</ele>
        <time>2020-08-03T07:09:51.000Z</time>
      </trkpt>
      <trkpt lat="45.06501" lon="2.63029">
        <ele>926.79998779297</ele>
        <time>2020-08-03T07:09:56.000Z</time>
      </trkpt>
      <trkpt lat="45.06501" lon="2.63029">
        <ele>927</ele>
        <time>2020-08-03T07:09:57.000Z</time>
      </trkpt>
      <trkpt lat="45.06498" lon="2.63032">
        <ele>927.59997558594</ele>
        <time>2020-08-03T07:10:01.000Z</time>
      </trkpt>
      <trkpt lat="45.06494" lon="2.63036">
        <ele>928</ele>
        <time>2020-08-03T07:10:05.000Z</time>
      </trkpt>
      <trkpt lat="45.06494" lon="2.63037">
        <ele>928.20001220703</ele>
        <time>2020-08-03T07:10:06.000Z</time>
      </trkpt>
      <trkpt lat="45.06492" lon="2.63043">
        <ele>929</ele>
        <time>2020-08-03T07:10:12.000Z</time>
      </trkpt>
      <trkpt lat="45.06493" lon="2.63046">
        <ele>929.20001220703</ele>
        <time>2020-08-03T07:10:14.000Z</time>
      </trkpt>
      <trkpt lat="45.06492" lon="2.63064">
        <ele>929.40002441406</ele>
        <time>2020-08-03T07:10:22.000Z</time>
      </trkpt>
      <trkpt lat="45.06491" lon="2.63075">
        <ele>928.40002441406</ele>
        <time>2020-08-03T07:10:29.000Z</time>
      </trkpt>
      <trkpt lat="45.06491" lon="2.63078">
        <ele>928</ele>
        <time>2020-08-03T07:10:31.000Z</time>
      </trkpt>
      <trkpt lat="45.06489" lon="2.63085">
        <ele>927</ele>
        <time>2020-08-03T07:10:37.000Z</time>
      </trkpt>
      <trkpt lat="45.06488" lon="2.63085">
        <ele>926.79998779297</ele>
        <time>2020-08-03T07:10:39.000Z</time>
      </trkpt>
      <trkpt lat="45.06489" lon="2.63086">
        <ele>926.79998779297</ele>
        <time>2020-08-03T07:10:40.000Z</time>
      </trkpt>
      <trkpt lat="45.06488" lon="2.63091">
        <ele>926.40002441406</ele>
        <time>2020-08-03T07:10:43.000Z</time>
      </trkpt>
      <trkpt lat="45.06488" lon="2.63096">
        <ele>925.79998779297</ele>
        <time>2020-08-03T07:10:46.000Z</time>
      </trkpt>
      <trkpt lat="45.06487" lon="2.63106">
        <ele>924.79998779297</ele>
        <time>2020-08-03T07:10:52.000Z</time>
      </trkpt>
      <trkpt lat="45.06486" lon="2.63107">
        <ele>924.59997558594</ele>
        <time>2020-08-03T07:10:53.000Z</time>
      </trkpt>
      <trkpt lat="45.06484" lon="2.63117">
        <ele>923.79998779297</ele>
        <time>2020-08-03T07:11:00.000Z</time>
      </trkpt>
      <trkpt lat="45.06483" lon="2.63118">
        <ele>923.79998779297</ele>
        <time>2020-08-03T07:11:01.000Z</time>
      </trkpt>
      <trkpt lat="45.06481" lon="2.63128">
        <ele>922.59997558594</ele>
        <time>2020-08-03T07:11:08.000Z</time>
      </trkpt>
      <trkpt lat="45.06481" lon="2.63131">
        <ele>922.59997558594</ele>
        <time>2020-08-03T07:11:09.000Z</time>
      </trkpt>
      <trkpt lat="45.06478" lon="2.63146">
        <ele>921.59997558594</ele>
        <time>2020-08-03T07:11:18.000Z</time>
      </trkpt>
      <trkpt lat="45.06477" lon="2.63148">
        <ele>921.59997558594</ele>
        <time>2020-08-03T07:11:19.000Z</time>
      </trkpt>
      <trkpt lat="45.06475" lon="2.63164">
        <ele>920.59997558594</ele>
        <time>2020-08-03T07:11:28.000Z</time>
      </trkpt>
      <trkpt lat="45.06475" lon="2.6318">
        <ele>919.59997558594</ele>
        <time>2020-08-03T07:11:36.000Z</time>
      </trkpt>
      <trkpt lat="45.06472" lon="2.6319">
        <ele>918.40002441406</ele>
        <time>2020-08-03T07:11:42.000Z</time>
      </trkpt>
      <trkpt lat="45.06471" lon="2.63194">
        <ele>918.20001220703</ele>
        <time>2020-08-03T07:11:45.000Z</time>
      </trkpt>
      <trkpt lat="45.06467" lon="2.632">
        <ele>917.59997558594</ele>
        <time>2020-08-03T07:11:50.000Z</time>
      </trkpt>
      <trkpt lat="45.06467" lon="2.63203">
        <ele>917.40002441406</ele>
        <time>2020-08-03T07:11:52.000Z</time>
      </trkpt>
      <trkpt lat="45.06466" lon="2.63206">
        <ele>917.20001220703</ele>
        <time>2020-08-03T07:11:54.000Z</time>
      </trkpt>
      <trkpt lat="45.06464" lon="2.6322">
        <ele>917</ele>
        <time>2020-08-03T07:12:03.000Z</time>
      </trkpt>
      <trkpt lat="45.06466" lon="2.63224">
        <ele>916.40002441406</ele>
        <time>2020-08-03T07:12:09.000Z</time>
      </trkpt>
      <trkpt lat="45.06465" lon="2.63224">
        <ele>916.40002441406</ele>
        <time>2020-08-03T07:12:10.000Z</time>
      </trkpt>
      <trkpt lat="45.06468" lon="2.63222">
        <ele>915.40002441406</ele>
        <time>2020-08-03T07:12:19.000Z</time>
      </trkpt>
      <trkpt lat="45.06464" lon="2.6322">
        <ele>916</ele>
        <time>2020-08-03T07:12:28.000Z</time>
      </trkpt>
      <trkpt lat="45.06463" lon="2.63222">
        <ele>916.40002441406</ele>
        <time>2020-08-03T07:12:34.000Z</time>
      </trkpt>
      <trkpt lat="45.06462" lon="2.63224">
        <ele>916.40002441406</ele>
        <time>2020-08-03T07:12:35.000Z</time>
      </trkpt>
      <trkpt lat="45.0646" lon="2.63234">
        <ele>915.59997558594</ele>
        <time>2020-08-03T07:12:42.000Z</time>
      </trkpt>
      <trkpt lat="45.06459" lon="2.63237">
        <ele>915.20001220703</ele>
        <time>2020-08-03T07:12:44.000Z</time>
      </trkpt>
      <trkpt lat="45.06457" lon="2.63246">
        <ele>914.79998779297</ele>
        <time>2020-08-03T07:12:50.000Z</time>
      </trkpt>
      <trkpt lat="45.06456" lon="2.6325">
        <ele>914</ele>
        <time>2020-08-03T07:12:53.000Z</time>
      </trkpt>
      <trkpt lat="45.06456" lon="2.63254">
        <ele>913.59997558594</ele>
        <time>2020-08-03T07:12:57.000Z</time>
      </trkpt>
      <trkpt lat="45.06456" lon="2.63265">
        <ele>912.79998779297</ele>
        <time>2020-08-03T07:13:03.000Z</time>
      </trkpt>
      <trkpt lat="45.06456" lon="2.63266">
        <ele>912.59997558594</ele>
        <time>2020-08-03T07:13:04.000Z</time>
      </trkpt>
      <trkpt lat="45.06456" lon="2.63275">
        <ele>911.79998779297</ele>
        <time>2020-08-03T07:13:09.000Z</time>
      </trkpt>
      <trkpt lat="45.06456" lon="2.6328">
        <ele>911</ele>
        <time>2020-08-03T07:13:12.000Z</time>
      </trkpt>
      <trkpt lat="45.06456" lon="2.63284">
        <ele>910.59997558594</ele>
        <time>2020-08-03T07:13:14.000Z</time>
      </trkpt>
      <trkpt lat="45.0646" lon="2.63295">
        <ele>909.59997558594</ele>
        <time>2020-08-03T07:13:21.000Z</time>
      </trkpt>
      <trkpt lat="45.06463" lon="2.63305">
        <ele>908.40002441406</ele>
        <time>2020-08-03T07:13:28.000Z</time>
      </trkpt>
      <trkpt lat="45.06464" lon="2.63306">
        <ele>908.20001220703</ele>
        <time>2020-08-03T07:13:29.000Z</time>
      </trkpt>
      <trkpt lat="45.06468" lon="2.63315">
        <ele>907.40002441406</ele>
        <time>2020-08-03T07:13:36.000Z</time>
      </trkpt>
      <trkpt lat="45.06467" lon="2.63318">
        <ele>907.20001220703</ele>
        <time>2020-08-03T07:13:38.000Z</time>
      </trkpt>
      <trkpt lat="45.06471" lon="2.63325">
        <ele>906.20001220703</ele>
        <time>2020-08-03T07:13:43.000Z</time>
      </trkpt>
      <trkpt lat="45.0647" lon="2.63332">
        <ele>905.40002441406</ele>
        <time>2020-08-03T07:13:47.000Z</time>
      </trkpt>
      <trkpt lat="45.06469" lon="2.63333">
        <ele>905.20001220703</ele>
        <time>2020-08-03T07:13:48.000Z</time>
      </trkpt>
      <trkpt lat="45.06463" lon="2.63343">
        <ele>904.20001220703</ele>
        <time>2020-08-03T07:13:55.000Z</time>
      </trkpt>
      <trkpt lat="45.06463" lon="2.63344">
        <ele>904</ele>
        <time>2020-08-03T07:13:56.000Z</time>
      </trkpt>
      <trkpt lat="45.0646" lon="2.63351">
        <ele>903.20001220703</ele>
        <time>2020-08-03T07:14:02.000Z</time>
      </trkpt>
      <trkpt lat="45.06458" lon="2.63355">
        <ele>902.59997558594</ele>
        <time>2020-08-03T07:14:05.000Z</time>
      </trkpt>
      <trkpt lat="45.06453" lon="2.63365">
        <ele>902.20001220703</ele>
        <time>2020-08-03T07:14:12.000Z</time>
      </trkpt>
      <trkpt lat="45.06452" lon="2.63368">
        <ele>901.79998779297</ele>
        <time>2020-08-03T07:14:14.000Z</time>
      </trkpt>
      <trkpt lat="45.06447" lon="2.63379">
        <ele>901</ele>
        <time>2020-08-03T07:14:21.000Z</time>
      </trkpt>
      <trkpt lat="45.06447" lon="2.63381">
        <ele>901</ele>
        <time>2020-08-03T07:14:22.000Z</time>
      </trkpt>
      <trkpt lat="45.06445" lon="2.63385">
        <ele>900.20001220703</ele>
        <time>2020-08-03T07:14:26.000Z</time>
      </trkpt>
      <trkpt lat="45.06444" lon="2.63388">
        <ele>900.20001220703</ele>
        <time>2020-08-03T07:14:28.000Z</time>
      </trkpt>
      <trkpt lat="45.06443" lon="2.63391">
        <ele>900</ele>
        <time>2020-08-03T07:14:30.000Z</time>
      </trkpt>
      <trkpt lat="45.06441" lon="2.63399">
        <ele>899.40002441406</ele>
        <time>2020-08-03T07:14:35.000Z</time>
      </trkpt>
      <trkpt lat="45.06439" lon="2.63409">
        <ele>898.79998779297</ele>
        <time>2020-08-03T07:14:42.000Z</time>
      </trkpt>
      <trkpt lat="45.0644" lon="2.63411">
        <ele>898.59997558594</ele>
        <time>2020-08-03T07:14:44.000Z</time>
      </trkpt>
      <trkpt lat="45.06439" lon="2.63431">
        <ele>898</ele>
        <time>2020-08-03T07:14:52.000Z</time>
      </trkpt>
      <trkpt lat="45.06438" lon="2.63433">
        <ele>897.79998779297</ele>
        <time>2020-08-03T07:14:53.000Z</time>
      </trkpt>
      <trkpt lat="45.06436" lon="2.63447">
        <ele>897</ele>
        <time>2020-08-03T07:15:00.000Z</time>
      </trkpt>
      <trkpt lat="45.06436" lon="2.63448">
        <ele>896.79998779297</ele>
        <time>2020-08-03T07:15:02.000Z</time>
      </trkpt>
      <trkpt lat="45.06435" lon="2.63457">
        <ele>896.20001220703</ele>
        <time>2020-08-03T07:15:08.000Z</time>
      </trkpt>
      <trkpt lat="45.06434" lon="2.6346">
        <ele>895.79998779297</ele>
        <time>2020-08-03T07:15:10.000Z</time>
      </trkpt>
      <trkpt lat="45.06432" lon="2.63471">
        <ele>894.59997558594</ele>
        <time>2020-08-03T07:15:17.000Z</time>
      </trkpt>
      <trkpt lat="45.06432" lon="2.63473">
        <ele>894.59997558594</ele>
        <time>2020-08-03T07:15:18.000Z</time>
      </trkpt>
      <trkpt lat="45.06431" lon="2.63487">
        <ele>894.59997558594</ele>
        <time>2020-08-03T07:15:26.000Z</time>
      </trkpt>
      <trkpt lat="45.06433" lon="2.6349">
        <ele>894.59997558594</ele>
        <time>2020-08-03T07:15:28.000Z</time>
      </trkpt>
      <trkpt lat="45.06428" lon="2.63492">
        <ele>894.59997558594</ele>
        <time>2020-08-03T07:15:34.000Z</time>
      </trkpt>
      <trkpt lat="45.06429" lon="2.63494">
        <ele>894.20001220703</ele>
        <time>2020-08-03T07:15:39.000Z</time>
      </trkpt>
      <trkpt lat="45.06429" lon="2.63494">
        <ele>894.20001220703</ele>
        <time>2020-08-03T07:15:41.000Z</time>
      </trkpt>
      <trkpt lat="45.0643" lon="2.63497">
        <ele>893.79998779297</ele>
        <time>2020-08-03T07:15:46.000Z</time>
      </trkpt>
      <trkpt lat="45.06431" lon="2.63501">
        <ele>893.79998779297</ele>
        <time>2020-08-03T07:15:48.000Z</time>
      </trkpt>
      <trkpt lat="45.06432" lon="2.63512">
        <ele>894.59997558594</ele>
        <time>2020-08-03T07:15:54.000Z</time>
      </trkpt>
      <trkpt lat="45.06431" lon="2.63523">
        <ele>894.59997558594</ele>
        <time>2020-08-03T07:16:01.000Z</time>
      </trkpt>
      <trkpt lat="45.0643" lon="2.63534">
        <ele>893.79998779297</ele>
        <time>2020-08-03T07:16:08.000Z</time>
      </trkpt>
      <trkpt lat="45.0643" lon="2.63536">
        <ele>893.79998779297</ele>
        <time>2020-08-03T07:16:09.000Z</time>
      </trkpt>
      <trkpt lat="45.06429" lon="2.63548">
        <ele>893.79998779297</ele>
        <time>2020-08-03T07:16:15.000Z</time>
      </trkpt>
      <trkpt lat="45.06427" lon="2.63555">
        <ele>893.79998779297</ele>
        <time>2020-08-03T07:16:19.000Z</time>
      </trkpt>
      <trkpt lat="45.06425" lon="2.63567">
        <ele>893.79998779297</ele>
        <time>2020-08-03T07:16:25.000Z</time>
      </trkpt>
      <trkpt lat="45.06425" lon="2.63569">
        <ele>894</ele>
        <time>2020-08-03T07:16:26.000Z</time>
      </trkpt>
      <trkpt lat="45.06423" lon="2.63574">
        <ele>893.79998779297</ele>
        <time>2020-08-03T07:16:30.000Z</time>
      </trkpt>
      <trkpt lat="45.06422" lon="2.63579">
        <ele>893.79998779297</ele>
        <time>2020-08-03T07:16:33.000Z</time>
      </trkpt>
      <trkpt lat="45.0642" lon="2.63592">
        <ele>894</ele>
        <time>2020-08-03T07:16:42.000Z</time>
      </trkpt>
      <trkpt lat="45.06418" lon="2.6361">
        <ele>893.59997558594</ele>
        <time>2020-08-03T07:16:51.000Z</time>
      </trkpt>
      <trkpt lat="45.06416" lon="2.63626">
        <ele>894</ele>
        <time>2020-08-03T07:17:00.000Z</time>
      </trkpt>
      <trkpt lat="45.06414" lon="2.63638">
        <ele>893.59997558594</ele>
        <time>2020-08-03T07:17:08.000Z</time>
      </trkpt>
      <trkpt lat="45.06411" lon="2.63645">
        <ele>893.40002441406</ele>
        <time>2020-08-03T07:17:14.000Z</time>
      </trkpt>
      <trkpt lat="45.0641" lon="2.63646">
        <ele>893.79998779297</ele>
        <time>2020-08-03T07:17:17.000Z</time>
      </trkpt>
      <trkpt lat="45.06411" lon="2.6365">
        <ele>893.40002441406</ele>
        <time>2020-08-03T07:17:20.000Z</time>
      </trkpt>
      <trkpt lat="45.0641" lon="2.63665">
        <ele>893.59997558594</ele>
        <time>2020-08-03T07:17:28.000Z</time>
      </trkpt>
      <trkpt lat="45.06411" lon="2.6368">
        <ele>893.20001220703</ele>
        <time>2020-08-03T07:17:36.000Z</time>
      </trkpt>
      <trkpt lat="45.06411" lon="2.63694">
        <ele>893</ele>
        <time>2020-08-03T07:17:43.000Z</time>
      </trkpt>
      <trkpt lat="45.06412" lon="2.63709">
        <ele>893.20001220703</ele>
        <time>2020-08-03T07:17:51.000Z</time>
      </trkpt>
      <trkpt lat="45.06413" lon="2.63719">
        <ele>893</ele>
        <time>2020-08-03T07:17:57.000Z</time>
      </trkpt>
      <trkpt lat="45.06419" lon="2.63728">
        <ele>893.20001220703</ele>
        <time>2020-08-03T07:18:05.000Z</time>
      </trkpt>
      <trkpt lat="45.06426" lon="2.63735">
        <ele>892.79998779297</ele>
        <time>2020-08-03T07:18:12.000Z</time>
      </trkpt>
      <trkpt lat="45.06429" lon="2.63738">
        <ele>892.59997558594</ele>
        <time>2020-08-03T07:18:16.000Z</time>
      </trkpt>
      <trkpt lat="45.0643" lon="2.63738">
        <ele>892.40002441406</ele>
        <time>2020-08-03T07:18:18.000Z</time>
      </trkpt>
      <trkpt lat="45.06434" lon="2.63747">
        <ele>892</ele>
        <time>2020-08-03T07:18:26.000Z</time>
      </trkpt>
      <trkpt lat="45.06444" lon="2.63758">
        <ele>892</ele>
        <time>2020-08-03T07:18:35.000Z</time>
      </trkpt>
      <trkpt lat="45.06445" lon="2.63761">
        <ele>892</ele>
        <time>2020-08-03T07:18:36.000Z</time>
      </trkpt>
      <trkpt lat="45.06448" lon="2.63766">
        <ele>892</ele>
        <time>2020-08-03T07:18:41.000Z</time>
      </trkpt>
      <trkpt lat="45.06449" lon="2.63768">
        <ele>892.20001220703</ele>
        <time>2020-08-03T07:18:42.000Z</time>
      </trkpt>
      <trkpt lat="45.06457" lon="2.63777">
        <ele>891.79998779297</ele>
        <time>2020-08-03T07:18:50.000Z</time>
      </trkpt>
      <trkpt lat="45.06463" lon="2.63783">
        <ele>891.59997558594</ele>
        <time>2020-08-03T07:18:55.000Z</time>
      </trkpt>
      <trkpt lat="45.06467" lon="2.63787">
        <ele>891.59997558594</ele>
        <time>2020-08-03T07:18:58.000Z</time>
      </trkpt>
      <trkpt lat="45.06473" lon="2.63797">
        <ele>891.59997558594</ele>
        <time>2020-08-03T07:19:05.000Z</time>
      </trkpt>
      <trkpt lat="45.06473" lon="2.63804">
        <ele>891.20001220703</ele>
        <time>2020-08-03T07:19:11.000Z</time>
      </trkpt>
      <trkpt lat="45.06473" lon="2.63806">
        <ele>891</ele>
        <time>2020-08-03T07:19:12.000Z</time>
      </trkpt>
      <trkpt lat="45.06473" lon="2.63822">
        <ele>890.59997558594</ele>
        <time>2020-08-03T07:19:20.000Z</time>
      </trkpt>
      <trkpt lat="45.06473" lon="2.63839">
        <ele>890.79998779297</ele>
        <time>2020-08-03T07:19:29.000Z</time>
      </trkpt>
      <trkpt lat="45.06472" lon="2.63855">
        <ele>890.79998779297</ele>
        <time>2020-08-03T07:19:38.000Z</time>
      </trkpt>
      <trkpt lat="45.06472" lon="2.63869">
        <ele>890.40002441406</ele>
        <time>2020-08-03T07:19:47.000Z</time>
      </trkpt>
      <trkpt lat="45.06472" lon="2.63884">
        <ele>890.59997558594</ele>
        <time>2020-08-03T07:19:55.000Z</time>
      </trkpt>
      <trkpt lat="45.06471" lon="2.6389">
        <ele>890.59997558594</ele>
        <time>2020-08-03T07:19:58.000Z</time>
      </trkpt>
      <trkpt lat="45.06471" lon="2.63898">
        <ele>890.20001220703</ele>
        <time>2020-08-03T07:20:03.000Z</time>
      </trkpt>
      <trkpt lat="45.06467" lon="2.6391">
        <ele>890.59997558594</ele>
        <time>2020-08-03T07:20:12.000Z</time>
      </trkpt>
      <trkpt lat="45.06464" lon="2.63927">
        <ele>890.40002441406</ele>
        <time>2020-08-03T07:20:22.000Z</time>
      </trkpt>
      <trkpt lat="45.06463" lon="2.63941">
        <ele>890.40002441406</ele>
        <time>2020-08-03T07:20:31.000Z</time>
      </trkpt>
      <trkpt lat="45.0646" lon="2.63957">
        <ele>890.59997558594</ele>
        <time>2020-08-03T07:20:40.000Z</time>
      </trkpt>
      <trkpt lat="45.06458" lon="2.6397">
        <ele>890.40002441406</ele>
        <time>2020-08-03T07:20:48.000Z</time>
      </trkpt>
      <trkpt lat="45.06454" lon="2.63985">
        <ele>890.20001220703</ele>
        <time>2020-08-03T07:20:57.000Z</time>
      </trkpt>
      <trkpt lat="45.06451" lon="2.63996">
        <ele>890.79998779297</ele>
        <time>2020-08-03T07:21:05.000Z</time>
      </trkpt>
      <trkpt lat="45.06449" lon="2.63995">
        <ele>891.59997558594</ele>
        <time>2020-08-03T07:21:09.000Z</time>
      </trkpt>
      <trkpt lat="45.06443" lon="2.63993">
        <ele>891</ele>
        <time>2020-08-03T07:21:13.000Z</time>
      </trkpt>
      <trkpt lat="45.06438" lon="2.63992">
        <ele>890.40002441406</ele>
        <time>2020-08-03T07:21:15.000Z</time>
      </trkpt>
      <trkpt lat="45.06435" lon="2.6399">
        <ele>890.59997558594</ele>
        <time>2020-08-03T07:21:21.000Z</time>
      </trkpt>
      <trkpt lat="45.06435" lon="2.63987">
        <ele>890.79998779297</ele>
        <time>2020-08-03T07:21:30.000Z</time>
      </trkpt>
      <trkpt lat="45.06435" lon="2.63988">
        <ele>890.79998779297</ele>
        <time>2020-08-03T07:21:31.000Z</time>
      </trkpt>
      <trkpt lat="45.06436" lon="2.63997">
        <ele>891</ele>
        <time>2020-08-03T07:21:36.000Z</time>
      </trkpt>
      <trkpt lat="45.06436" lon="2.64007">
        <ele>891.40002441406</ele>
        <time>2020-08-03T07:21:42.000Z</time>
      </trkpt>
      <trkpt lat="45.06437" lon="2.64013">
        <ele>891.40002441406</ele>
        <time>2020-08-03T07:21:47.000Z</time>
      </trkpt>
      <trkpt lat="45.06438" lon="2.64014">
        <ele>891.40002441406</ele>
        <time>2020-08-03T07:21:48.000Z</time>
      </trkpt>
      <trkpt lat="45.06439" lon="2.64014">
        <ele>891.59997558594</ele>
        <time>2020-08-03T07:21:49.000Z</time>
      </trkpt>
      <trkpt lat="45.06445" lon="2.6401">
        <ele>892.40002441406</ele>
        <time>2020-08-03T07:21:55.000Z</time>
      </trkpt>
      <trkpt lat="45.06446" lon="2.64009">
        <ele>892.59997558594</ele>
        <time>2020-08-03T07:21:56.000Z</time>
      </trkpt>
      <trkpt lat="45.06452" lon="2.64006">
        <ele>893.79998779297</ele>
        <time>2020-08-03T07:22:03.000Z</time>
      </trkpt>
      <trkpt lat="45.06455" lon="2.64007">
        <ele>894.20001220703</ele>
        <time>2020-08-03T07:22:05.000Z</time>
      </trkpt>
      <trkpt lat="45.06456" lon="2.64008">
        <ele>894.40002441406</ele>
        <time>2020-08-03T07:22:06.000Z</time>
      </trkpt>
      <trkpt lat="45.0646" lon="2.64011">
        <ele>894.79998779297</ele>
        <time>2020-08-03T07:22:10.000Z</time>
      </trkpt>
      <trkpt lat="45.06463" lon="2.64013">
        <ele>895.79998779297</ele>
        <time>2020-08-03T07:22:13.000Z</time>
      </trkpt>
      <trkpt lat="45.06463" lon="2.64014">
        <ele>896</ele>
        <time>2020-08-03T07:22:14.000Z</time>
      </trkpt>
      <trkpt lat="45.06466" lon="2.6402">
        <ele>896.79998779297</ele>
        <time>2020-08-03T07:22:19.000Z</time>
      </trkpt>
      <trkpt lat="45.06467" lon="2.64026">
        <ele>897.40002441406</ele>
        <time>2020-08-03T07:22:23.000Z</time>
      </trkpt>
      <trkpt lat="45.06466" lon="2.64031">
        <ele>898</ele>
        <time>2020-08-03T07:22:26.000Z</time>
      </trkpt>
      <trkpt lat="45.06466" lon="2.64038">
        <ele>899</ele>
        <time>2020-08-03T07:22:31.000Z</time>
      </trkpt>
      <trkpt lat="45.06467" lon="2.64039">
        <ele>899.20001220703</ele>
        <time>2020-08-03T07:22:32.000Z</time>
      </trkpt>
      <trkpt lat="45.0647" lon="2.64046">
        <ele>900</ele>
        <time>2020-08-03T07:22:39.000Z</time>
      </trkpt>
      <trkpt lat="45.0647" lon="2.64048">
        <ele>900.40002441406</ele>
        <time>2020-08-03T07:22:41.000Z</time>
      </trkpt>
      <trkpt lat="45.0647" lon="2.64052">
        <ele>901</ele>
        <time>2020-08-03T07:22:44.000Z</time>
      </trkpt>
      <trkpt lat="45.06469" lon="2.6406">
        <ele>901.79998779297</ele>
        <time>2020-08-03T07:22:50.000Z</time>
      </trkpt>
      <trkpt lat="45.06468" lon="2.64064">
        <ele>902.20001220703</ele>
        <time>2020-08-03T07:22:53.000Z</time>
      </trkpt>
      <trkpt lat="45.06467" lon="2.64066">
        <ele>902.20001220703</ele>
        <time>2020-08-03T07:22:54.000Z</time>
      </trkpt>
      <trkpt lat="45.06466" lon="2.64068">
        <ele>902.40002441406</ele>
        <time>2020-08-03T07:22:56.000Z</time>
      </trkpt>
      <trkpt lat="45.06466" lon="2.64076">
        <ele>903.20001220703</ele>
        <time>2020-08-03T07:23:02.000Z</time>
      </trkpt>
      <trkpt lat="45.06466" lon="2.64077">
        <ele>903.40002441406</ele>
        <time>2020-08-03T07:23:03.000Z</time>
      </trkpt>
      <trkpt lat="45.06466" lon="2.64079">
        <ele>903.59997558594</ele>
        <time>2020-08-03T07:23:04.000Z</time>
      </trkpt>
      <trkpt lat="45.06471" lon="2.64084">
        <ele>904</ele>
        <time>2020-08-03T07:23:08.000Z</time>
      </trkpt>
      <trkpt lat="45.06472" lon="2.64087">
        <ele>904.20001220703</ele>
        <time>2020-08-03T07:23:10.000Z</time>
      </trkpt>
      <trkpt lat="45.06473" lon="2.64088">
        <ele>904.20001220703</ele>
        <time>2020-08-03T07:23:11.000Z</time>
      </trkpt>
      <trkpt lat="45.06479" lon="2.64093">
        <ele>905.40002441406</ele>
        <time>2020-08-03T07:23:16.000Z</time>
      </trkpt>
      <trkpt lat="45.0648" lon="2.64095">
        <ele>905.59997558594</ele>
        <time>2020-08-03T07:23:18.000Z</time>
      </trkpt>
      <trkpt lat="45.0648" lon="2.64097">
        <ele>905.59997558594</ele>
        <time>2020-08-03T07:23:19.000Z</time>
      </trkpt>
      <trkpt lat="45.0648" lon="2.64108">
        <ele>905.79998779297</ele>
        <time>2020-08-03T07:23:26.000Z</time>
      </trkpt>
      <trkpt lat="45.06483" lon="2.64113">
        <ele>906.40002441406</ele>
        <time>2020-08-03T07:23:31.000Z</time>
      </trkpt>
      <trkpt lat="45.06484" lon="2.64118">
        <ele>907</ele>
        <time>2020-08-03T07:23:36.000Z</time>
      </trkpt>
      <trkpt lat="45.06486" lon="2.64124">
        <ele>907.59997558594</ele>
        <time>2020-08-03T07:23:40.000Z</time>
      </trkpt>
      <trkpt lat="45.0649" lon="2.64132">
        <ele>908.40002441406</ele>
        <time>2020-08-03T07:23:46.000Z</time>
      </trkpt>
      <trkpt lat="45.0649" lon="2.64133">
        <ele>908.59997558594</ele>
        <time>2020-08-03T07:23:47.000Z</time>
      </trkpt>
      <trkpt lat="45.06491" lon="2.64135">
        <ele>908.79998779297</ele>
        <time>2020-08-03T07:23:49.000Z</time>
      </trkpt>
      <trkpt lat="45.06495" lon="2.64141">
        <ele>909.20001220703</ele>
        <time>2020-08-03T07:23:54.000Z</time>
      </trkpt>
      <trkpt lat="45.06498" lon="2.64145">
        <ele>909.59997558594</ele>
        <time>2020-08-03T07:23:58.000Z</time>
      </trkpt>
      <trkpt lat="45.06502" lon="2.64149">
        <ele>909.79998779297</ele>
        <time>2020-08-03T07:24:03.000Z</time>
      </trkpt>
      <trkpt lat="45.0651" lon="2.64148">
        <ele>910.40002441406</ele>
        <time>2020-08-03T07:24:11.000Z</time>
      </trkpt>
      <trkpt lat="45.06514" lon="2.64147">
        <ele>910.59997558594</ele>
        <time>2020-08-03T07:24:14.000Z</time>
      </trkpt>
      <trkpt lat="45.06519" lon="2.64143">
        <ele>911</ele>
        <time>2020-08-03T07:24:19.000Z</time>
      </trkpt>
      <trkpt lat="45.06527" lon="2.64138">
        <ele>911.59997558594</ele>
        <time>2020-08-03T07:24:26.000Z</time>
      </trkpt>
      <trkpt lat="45.06529" lon="2.64138">
        <ele>911.79998779297</ele>
        <time>2020-08-03T07:24:28.000Z</time>
      </trkpt>
      <trkpt lat="45.06532" lon="2.64137">
        <ele>911.79998779297</ele>
        <time>2020-08-03T07:24:35.000Z</time>
      </trkpt>
      <trkpt lat="45.06534" lon="2.64137">
        <ele>911.79998779297</ele>
        <time>2020-08-03T07:24:37.000Z</time>
      </trkpt>
      <trkpt lat="45.0654" lon="2.64137">
        <ele>912.40002441406</ele>
        <time>2020-08-03T07:24:43.000Z</time>
      </trkpt>
      <trkpt lat="45.0655" lon="2.64135">
        <ele>912.59997558594</ele>
        <time>2020-08-03T07:24:51.000Z</time>
      </trkpt>
      <trkpt lat="45.06558" lon="2.64133">
        <ele>912.59997558594</ele>
        <time>2020-08-03T07:25:00.000Z</time>
      </trkpt>
      <trkpt lat="45.06564" lon="2.64129">
        <ele>912.79998779297</ele>
        <time>2020-08-03T07:25:06.000Z</time>
      </trkpt>
      <trkpt lat="45.06567" lon="2.6413">
        <ele>912.79998779297</ele>
        <time>2020-08-03T07:25:09.000Z</time>
      </trkpt>
      <trkpt lat="45.06569" lon="2.64131">
        <ele>913</ele>
        <time>2020-08-03T07:25:12.000Z</time>
      </trkpt>
      <trkpt lat="45.06572" lon="2.64133">
        <ele>913.20001220703</ele>
        <time>2020-08-03T07:25:16.000Z</time>
      </trkpt>
      <trkpt lat="45.06573" lon="2.64134">
        <ele>913.40002441406</ele>
        <time>2020-08-03T07:25:17.000Z</time>
      </trkpt>
      <trkpt lat="45.06574" lon="2.64132">
        <ele>913.59997558594</ele>
        <time>2020-08-03T07:25:21.000Z</time>
      </trkpt>
      <trkpt lat="45.06574" lon="2.64132">
        <ele>913.79998779297</ele>
        <time>2020-08-03T07:25:22.000Z</time>
      </trkpt>
      <trkpt lat="45.06574" lon="2.64132">
        <ele>913.79998779297</ele>
        <time>2020-08-03T07:25:26.000Z</time>
      </trkpt>
      <trkpt lat="45.06573" lon="2.64132">
        <ele>913.79998779297</ele>
        <time>2020-08-03T07:25:31.000Z</time>
      </trkpt>
      <trkpt lat="45.06574" lon="2.64134">
        <ele>914</ele>
        <time>2020-08-03T07:25:32.000Z</time>
      </trkpt>
      <trkpt lat="45.06579" lon="2.64141">
        <ele>914</ele>
        <time>2020-08-03T07:25:36.000Z</time>
      </trkpt>
      <trkpt lat="45.06581" lon="2.64145">
        <ele>914.40002441406</ele>
        <time>2020-08-03T07:25:39.000Z</time>
      </trkpt>
      <trkpt lat="45.06584" lon="2.64149">
        <ele>914.59997558594</ele>
        <time>2020-08-03T07:25:42.000Z</time>
      </trkpt>
      <trkpt lat="45.06585" lon="2.64153">
        <ele>914.79998779297</ele>
        <time>2020-08-03T07:25:44.000Z</time>
      </trkpt>
      <trkpt lat="45.06588" lon="2.64156">
        <ele>915.79998779297</ele>
        <time>2020-08-03T07:25:48.000Z</time>
      </trkpt>
      <trkpt lat="45.06589" lon="2.64156">
        <ele>915.79998779297</ele>
        <time>2020-08-03T07:25:49.000Z</time>
      </trkpt>
      <trkpt lat="45.06589" lon="2.6416">
        <ele>916.59997558594</ele>
        <time>2020-08-03T07:25:53.000Z</time>
      </trkpt>
      <trkpt lat="45.0659" lon="2.64161">
        <ele>916.79998779297</ele>
        <time>2020-08-03T07:25:55.000Z</time>
      </trkpt>
      <trkpt lat="45.06589" lon="2.6416">
        <ele>917</ele>
        <time>2020-08-03T07:26:01.000Z</time>
      </trkpt>
      <trkpt lat="45.0659" lon="2.64162">
        <ele>917</ele>
        <time>2020-08-03T07:26:04.000Z</time>
      </trkpt>
      <trkpt lat="45.0659" lon="2.64166">
        <ele>917</ele>
        <time>2020-08-03T07:26:06.000Z</time>
      </trkpt>
      <trkpt lat="45.06591" lon="2.64176">
        <ele>917.79998779297</ele>
        <time>2020-08-03T07:26:11.000Z</time>
      </trkpt>
      <trkpt lat="45.0659" lon="2.6418">
        <ele>918</ele>
        <time>2020-08-03T07:26:13.000Z</time>
      </trkpt>
      <trkpt lat="45.0659" lon="2.64181">
        <ele>918</ele>
        <time>2020-08-03T07:26:14.000Z</time>
      </trkpt>
      <trkpt lat="45.06591" lon="2.64183">
        <ele>918.20001220703</ele>
        <time>2020-08-03T07:26:15.000Z</time>
      </trkpt>
      <trkpt lat="45.06594" lon="2.64191">
        <ele>918.40002441406</ele>
        <time>2020-08-03T07:26:20.000Z</time>
      </trkpt>
      <trkpt lat="45.06593" lon="2.64203">
        <ele>918.59997558594</ele>
        <time>2020-08-03T07:26:27.000Z</time>
      </trkpt>
      <trkpt lat="45.06593" lon="2.64211">
        <ele>919</ele>
        <time>2020-08-03T07:26:31.000Z</time>
      </trkpt>
      <trkpt lat="45.06593" lon="2.64216">
        <ele>919.20001220703</ele>
        <time>2020-08-03T07:26:34.000Z</time>
      </trkpt>
      <trkpt lat="45.06592" lon="2.6423">
        <ele>919.40002441406</ele>
        <time>2020-08-03T07:26:42.000Z</time>
      </trkpt>
      <trkpt lat="45.06593" lon="2.64237">
        <ele>920</ele>
        <time>2020-08-03T07:26:47.000Z</time>
      </trkpt>
      <trkpt lat="45.06593" lon="2.64244">
        <ele>920.20001220703</ele>
        <time>2020-08-03T07:26:51.000Z</time>
      </trkpt>
      <trkpt lat="45.06593" lon="2.64254">
        <ele>920.59997558594</ele>
        <time>2020-08-03T07:26:58.000Z</time>
      </trkpt>
      <trkpt lat="45.06592" lon="2.64265">
        <ele>921.20001220703</ele>
        <time>2020-08-03T07:27:05.000Z</time>
      </trkpt>
      <trkpt lat="45.06592" lon="2.64269">
        <ele>921.20001220703</ele>
        <time>2020-08-03T07:27:07.000Z</time>
      </trkpt>
      <trkpt lat="45.06592" lon="2.64279">
        <ele>921.59997558594</ele>
        <time>2020-08-03T07:27:13.000Z</time>
      </trkpt>
      <trkpt lat="45.06593" lon="2.64283">
        <ele>922.40002441406</ele>
        <time>2020-08-03T07:27:16.000Z</time>
      </trkpt>
      <trkpt lat="45.06594" lon="2.64284">
        <ele>922.40002441406</ele>
        <time>2020-08-03T07:27:17.000Z</time>
      </trkpt>
      <trkpt lat="45.06596" lon="2.64289">
        <ele>922.59997558594</ele>
        <time>2020-08-03T07:27:20.000Z</time>
      </trkpt>
      <trkpt lat="45.06598" lon="2.64295">
        <ele>922.20001220703</ele>
        <time>2020-08-03T07:27:25.000Z</time>
      </trkpt>
      <trkpt lat="45.06598" lon="2.64296">
        <ele>922.20001220703</ele>
        <time>2020-08-03T07:27:26.000Z</time>
      </trkpt>
      <trkpt lat="45.066" lon="2.64308">
        <ele>922.59997558594</ele>
        <time>2020-08-03T07:27:33.000Z</time>
      </trkpt>
      <trkpt lat="45.06602" lon="2.64313">
        <ele>922.59997558594</ele>
        <time>2020-08-03T07:27:36.000Z</time>
      </trkpt>
      <trkpt lat="45.06607" lon="2.64319">
        <ele>922.79998779297</ele>
        <time>2020-08-03T07:27:40.000Z</time>
      </trkpt>
      <trkpt lat="45.06609" lon="2.64322">
        <ele>922.59997558594</ele>
        <time>2020-08-03T07:27:42.000Z</time>
      </trkpt>
      <trkpt lat="45.06613" lon="2.6433">
        <ele>922.40002441406</ele>
        <time>2020-08-03T07:27:48.000Z</time>
      </trkpt>
      <trkpt lat="45.06618" lon="2.64342">
        <ele>922.59997558594</ele>
        <time>2020-08-03T07:27:56.000Z</time>
      </trkpt>
      <trkpt lat="45.06622" lon="2.64353">
        <ele>922.59997558594</ele>
        <time>2020-08-03T07:28:05.000Z</time>
      </trkpt>
      <trkpt lat="45.06626" lon="2.64364">
        <ele>922.79998779297</ele>
        <time>2020-08-03T07:28:13.000Z</time>
      </trkpt>
      <trkpt lat="45.06632" lon="2.64371">
        <ele>922.79998779297</ele>
        <time>2020-08-03T07:28:20.000Z</time>
      </trkpt>
      <trkpt lat="45.06634" lon="2.64373">
        <ele>923</ele>
        <time>2020-08-03T07:28:22.000Z</time>
      </trkpt>
      <trkpt lat="45.0664" lon="2.64374">
        <ele>923.20001220703</ele>
        <time>2020-08-03T07:28:27.000Z</time>
      </trkpt>
      <trkpt lat="45.06645" lon="2.64376">
        <ele>923.40002441406</ele>
        <time>2020-08-03T07:28:34.000Z</time>
      </trkpt>
      <trkpt lat="45.06652" lon="2.6438">
        <ele>923.59997558594</ele>
        <time>2020-08-03T07:28:42.000Z</time>
      </trkpt>
      <trkpt lat="45.06656" lon="2.64384">
        <ele>924</ele>
        <time>2020-08-03T07:28:48.000Z</time>
      </trkpt>
      <trkpt lat="45.0666" lon="2.64388">
        <ele>924.40002441406</ele>
        <time>2020-08-03T07:28:56.000Z</time>
      </trkpt>
      <trkpt lat="45.06663" lon="2.64395">
        <ele>924.59997558594</ele>
        <time>2020-08-03T07:29:04.000Z</time>
      </trkpt>
      <trkpt lat="45.06668" lon="2.64405">
        <ele>924.79998779297</ele>
        <time>2020-08-03T07:29:12.000Z</time>
      </trkpt>
      <trkpt lat="45.06669" lon="2.64409">
        <ele>924.59997558594</ele>
        <time>2020-08-03T07:29:15.000Z</time>
      </trkpt>
      <trkpt lat="45.0667" lon="2.64416">
        <ele>924.59997558594</ele>
        <time>2020-08-03T07:29:19.000Z</time>
      </trkpt>
      <trkpt lat="45.06669" lon="2.64421">
        <ele>924.79998779297</ele>
        <time>2020-08-03T07:29:21.000Z</time>
      </trkpt>
      <trkpt lat="45.0667" lon="2.64428">
        <ele>925</ele>
        <time>2020-08-03T07:29:25.000Z</time>
      </trkpt>
      <trkpt lat="45.06676" lon="2.64447">
        <ele>925</ele>
        <time>2020-08-03T07:29:32.000Z</time>
      </trkpt>
      <trkpt lat="45.06676" lon="2.64453">
        <ele>925.40002441406</ele>
        <time>2020-08-03T07:29:35.000Z</time>
      </trkpt>
      <trkpt lat="45.06676" lon="2.64456">
        <ele>925.40002441406</ele>
        <time>2020-08-03T07:29:36.000Z</time>
      </trkpt>
      <trkpt lat="45.06676" lon="2.64462">
        <ele>925.40002441406</ele>
        <time>2020-08-03T07:29:39.000Z</time>
      </trkpt>
      <trkpt lat="45.06678" lon="2.64466">
        <ele>925.59997558594</ele>
        <time>2020-08-03T07:29:42.000Z</time>
      </trkpt>
      <trkpt lat="45.0668" lon="2.6447">
        <ele>926</ele>
        <time>2020-08-03T07:29:45.000Z</time>
      </trkpt>
      <trkpt lat="45.06682" lon="2.64474">
        <ele>926.59997558594</ele>
        <time>2020-08-03T07:29:48.000Z</time>
      </trkpt>
      <trkpt lat="45.06684" lon="2.64478">
        <ele>927.40002441406</ele>
        <time>2020-08-03T07:29:52.000Z</time>
      </trkpt>
      <trkpt lat="45.06684" lon="2.6448">
        <ele>927.59997558594</ele>
        <time>2020-08-03T07:29:53.000Z</time>
      </trkpt>
      <trkpt lat="45.06687" lon="2.64486">
        <ele>928.59997558594</ele>
        <time>2020-08-03T07:29:59.000Z</time>
      </trkpt>
      <trkpt lat="45.06688" lon="2.64487">
        <ele>928.79998779297</ele>
        <time>2020-08-03T07:30:00.000Z</time>
      </trkpt>
      <trkpt lat="45.06688" lon="2.64489">
        <ele>929</ele>
        <time>2020-08-03T07:30:01.000Z</time>
      </trkpt>
      <trkpt lat="45.06689" lon="2.64495">
        <ele>929.79998779297</ele>
        <time>2020-08-03T07:30:05.000Z</time>
      </trkpt>
      <trkpt lat="45.06688" lon="2.64496">
        <ele>929.79998779297</ele>
        <time>2020-08-03T07:30:06.000Z</time>
      </trkpt>
      <trkpt lat="45.06686" lon="2.64503">
        <ele>930.79998779297</ele>
        <time>2020-08-03T07:30:13.000Z</time>
      </trkpt>
      <trkpt lat="45.06686" lon="2.64505">
        <ele>930.79998779297</ele>
        <time>2020-08-03T07:30:14.000Z</time>
      </trkpt>
      <trkpt lat="45.06687" lon="2.64515">
        <ele>931.59997558594</ele>
        <time>2020-08-03T07:30:21.000Z</time>
      </trkpt>
      <trkpt lat="45.06688" lon="2.64521">
        <ele>932</ele>
        <time>2020-08-03T07:30:25.000Z</time>
      </trkpt>
      <trkpt lat="45.0669" lon="2.64526">
        <ele>932.59997558594</ele>
        <time>2020-08-03T07:30:29.000Z</time>
      </trkpt>
      <trkpt lat="45.06693" lon="2.64531">
        <ele>933</ele>
        <time>2020-08-03T07:30:32.000Z</time>
      </trkpt>
      <trkpt lat="45.06694" lon="2.64536">
        <ele>933.20001220703</ele>
        <time>2020-08-03T07:30:36.000Z</time>
      </trkpt>
      <trkpt lat="45.06698" lon="2.64546">
        <ele>932.20001220703</ele>
        <time>2020-08-03T07:30:45.000Z</time>
      </trkpt>
      <trkpt lat="45.06699" lon="2.64549">
        <ele>931.79998779297</ele>
        <time>2020-08-03T07:30:48.000Z</time>
      </trkpt>
      <trkpt lat="45.067" lon="2.64555">
        <ele>931</ele>
        <time>2020-08-03T07:30:52.000Z</time>
      </trkpt>
      <trkpt lat="45.067" lon="2.64556">
        <ele>930.79998779297</ele>
        <time>2020-08-03T07:30:53.000Z</time>
      </trkpt>
      <trkpt lat="45.067" lon="2.64561">
        <ele>930.20001220703</ele>
        <time>2020-08-03T07:30:57.000Z</time>
      </trkpt>
      <trkpt lat="45.067" lon="2.64564">
        <ele>929.59997558594</ele>
        <time>2020-08-03T07:31:00.000Z</time>
      </trkpt>
      <trkpt lat="45.06702" lon="2.64573">
        <ele>929.20001220703</ele>
        <time>2020-08-03T07:31:04.000Z</time>
      </trkpt>
      <trkpt lat="45.06703" lon="2.64581">
        <ele>929</ele>
        <time>2020-08-03T07:31:08.000Z</time>
      </trkpt>
      <trkpt lat="45.06704" lon="2.64586">
        <ele>928.59997558594</ele>
        <time>2020-08-03T07:31:12.000Z</time>
      </trkpt>
      <trkpt lat="45.06705" lon="2.64589">
        <ele>928.40002441406</ele>
        <time>2020-08-03T07:31:14.000Z</time>
      </trkpt>
      <trkpt lat="45.06706" lon="2.64602">
        <ele>927.40002441406</ele>
        <time>2020-08-03T07:31:21.000Z</time>
      </trkpt>
      <trkpt lat="45.06706" lon="2.64605">
        <ele>927.40002441406</ele>
        <time>2020-08-03T07:31:23.000Z</time>
      </trkpt>
      <trkpt lat="45.06707" lon="2.64616">
        <ele>926.79998779297</ele>
        <time>2020-08-03T07:31:30.000Z</time>
      </trkpt>
      <trkpt lat="45.0671" lon="2.64624">
        <ele>926.40002441406</ele>
        <time>2020-08-03T07:31:36.000Z</time>
      </trkpt>
      <trkpt lat="45.0671" lon="2.64626">
        <ele>926.40002441406</ele>
        <time>2020-08-03T07:31:37.000Z</time>
      </trkpt>
      <trkpt lat="45.06717" lon="2.64635">
        <ele>926</ele>
        <time>2020-08-03T07:31:44.000Z</time>
      </trkpt>
      <trkpt lat="45.06717" lon="2.64639">
        <ele>925.79998779297</ele>
        <time>2020-08-03T07:31:46.000Z</time>
      </trkpt>
      <trkpt lat="45.06718" lon="2.64645">
        <ele>925.20001220703</ele>
        <time>2020-08-03T07:31:50.000Z</time>
      </trkpt>
      <trkpt lat="45.06718" lon="2.64646">
        <ele>925.20001220703</ele>
        <time>2020-08-03T07:31:51.000Z</time>
      </trkpt>
      <trkpt lat="45.06726" lon="2.64657">
        <ele>924.59997558594</ele>
        <time>2020-08-03T07:31:59.000Z</time>
      </trkpt>
      <trkpt lat="45.0673" lon="2.6467">
        <ele>924.40002441406</ele>
        <time>2020-08-03T07:32:07.000Z</time>
      </trkpt>
      <trkpt lat="45.06729" lon="2.64682">
        <ele>924.20001220703</ele>
        <time>2020-08-03T07:32:13.000Z</time>
      </trkpt>
      <trkpt lat="45.0673" lon="2.64685">
        <ele>924</ele>
        <time>2020-08-03T07:32:15.000Z</time>
      </trkpt>
      <trkpt lat="45.06735" lon="2.64697">
        <ele>923.59997558594</ele>
        <time>2020-08-03T07:32:24.000Z</time>
      </trkpt>
      <trkpt lat="45.06738" lon="2.64709">
        <ele>923.20001220703</ele>
        <time>2020-08-03T07:32:32.000Z</time>
      </trkpt>
      <trkpt lat="45.06744" lon="2.64721">
        <ele>923.20001220703</ele>
        <time>2020-08-03T07:32:40.000Z</time>
      </trkpt>
      <trkpt lat="45.06745" lon="2.64722">
        <ele>923.20001220703</ele>
        <time>2020-08-03T07:32:41.000Z</time>
      </trkpt>
      <trkpt lat="45.06748" lon="2.64736">
        <ele>923.40002441406</ele>
        <time>2020-08-03T07:32:49.000Z</time>
      </trkpt>
      <trkpt lat="45.0675" lon="2.6475">
        <ele>923.20001220703</ele>
        <time>2020-08-03T07:32:58.000Z</time>
      </trkpt>
      <trkpt lat="45.06751" lon="2.64765">
        <ele>923</ele>
        <time>2020-08-03T07:33:08.000Z</time>
      </trkpt>
      <trkpt lat="45.06751" lon="2.64773">
        <ele>922</ele>
        <time>2020-08-03T07:33:13.000Z</time>
      </trkpt>
      <trkpt lat="45.06752" lon="2.64776">
        <ele>921.79998779297</ele>
        <time>2020-08-03T07:33:15.000Z</time>
      </trkpt>
      <trkpt lat="45.06754" lon="2.64791">
        <ele>921.59997558594</ele>
        <time>2020-08-03T07:33:25.000Z</time>
      </trkpt>
      <trkpt lat="45.06755" lon="2.64794">
        <ele>921.59997558594</ele>
        <time>2020-08-03T07:33:27.000Z</time>
      </trkpt>
      <trkpt lat="45.06756" lon="2.648">
        <ele>921.40002441406</ele>
        <time>2020-08-03T07:33:31.000Z</time>
      </trkpt>
      <trkpt lat="45.06754" lon="2.6481">
        <ele>921</ele>
        <time>2020-08-03T07:33:37.000Z</time>
      </trkpt>
      <trkpt lat="45.06755" lon="2.64815">
        <ele>920.59997558594</ele>
        <time>2020-08-03T07:33:40.000Z</time>
      </trkpt>
      <trkpt lat="45.06756" lon="2.64823">
        <ele>919.79998779297</ele>
        <time>2020-08-03T07:33:45.000Z</time>
      </trkpt>
      <trkpt lat="45.06755" lon="2.64826">
        <ele>919.40002441406</ele>
        <time>2020-08-03T07:33:47.000Z</time>
      </trkpt>
      <trkpt lat="45.06755" lon="2.64831">
        <ele>919.20001220703</ele>
        <time>2020-08-03T07:33:50.000Z</time>
      </trkpt>
      <trkpt lat="45.06755" lon="2.64836">
        <ele>918.79998779297</ele>
        <time>2020-08-03T07:33:53.000Z</time>
      </trkpt>
      <trkpt lat="45.06756" lon="2.64838">
        <ele>918.79998779297</ele>
        <time>2020-08-03T07:33:54.000Z</time>
      </trkpt>
      <trkpt lat="45.06757" lon="2.64847">
        <ele>917.79998779297</ele>
        <time>2020-08-03T07:34:00.000Z</time>
      </trkpt>
      <trkpt lat="45.06757" lon="2.64849">
        <ele>917.59997558594</ele>
        <time>2020-08-03T07:34:01.000Z</time>
      </trkpt>
      <trkpt lat="45.06762" lon="2.64861">
        <ele>917</ele>
        <time>2020-08-03T07:34:09.000Z</time>
      </trkpt>
      <trkpt lat="45.06765" lon="2.64873">
        <ele>916.79998779297</ele>
        <time>2020-08-03T07:34:16.000Z</time>
      </trkpt>
      <trkpt lat="45.06764" lon="2.64878">
        <ele>916.79998779297</ele>
        <time>2020-08-03T07:34:18.000Z</time>
      </trkpt>
      <trkpt lat="45.06763" lon="2.64891">
        <ele>917.20001220703</ele>
        <time>2020-08-03T07:34:26.000Z</time>
      </trkpt>
      <trkpt lat="45.06764" lon="2.64905">
        <ele>918</ele>
        <time>2020-08-03T07:34:35.000Z</time>
      </trkpt>
      <trkpt lat="45.06765" lon="2.64908">
        <ele>918.20001220703</ele>
        <time>2020-08-03T07:34:37.000Z</time>
      </trkpt>
      <trkpt lat="45.06765" lon="2.64914">
        <ele>918.40002441406</ele>
        <time>2020-08-03T07:34:41.000Z</time>
      </trkpt>
      <trkpt lat="45.06763" lon="2.64917">
        <ele>918.79998779297</ele>
        <time>2020-08-03T07:34:44.000Z</time>
      </trkpt>
      <trkpt lat="45.06763" lon="2.64922">
        <ele>919.20001220703</ele>
        <time>2020-08-03T07:34:48.000Z</time>
      </trkpt>
      <trkpt lat="45.06762" lon="2.6493">
        <ele>919.79998779297</ele>
        <time>2020-08-03T07:34:55.000Z</time>
      </trkpt>
      <trkpt lat="45.06762" lon="2.64932">
        <ele>920</ele>
        <time>2020-08-03T07:34:57.000Z</time>
      </trkpt>
      <trkpt lat="45.06763" lon="2.64938">
        <ele>920</ele>
        <time>2020-08-03T07:35:02.000Z</time>
      </trkpt>
      <trkpt lat="45.06764" lon="2.64942">
        <ele>920.59997558594</ele>
        <time>2020-08-03T07:35:05.000Z</time>
      </trkpt>
      <trkpt lat="45.06768" lon="2.6495">
        <ele>920.79998779297</ele>
        <time>2020-08-03T07:35:12.000Z</time>
      </trkpt>
      <trkpt lat="45.06768" lon="2.64951">
        <ele>920.79998779297</ele>
        <time>2020-08-03T07:35:13.000Z</time>
      </trkpt>
      <trkpt lat="45.06773" lon="2.64962">
        <ele>921</ele>
        <time>2020-08-03T07:35:20.000Z</time>
      </trkpt>
      <trkpt lat="45.06776" lon="2.64972">
        <ele>921.40002441406</ele>
        <time>2020-08-03T07:35:27.000Z</time>
      </trkpt>
      <trkpt lat="45.06778" lon="2.64977">
        <ele>921.79998779297</ele>
        <time>2020-08-03T07:35:33.000Z</time>
      </trkpt>
      <trkpt lat="45.06778" lon="2.64978">
        <ele>922</ele>
        <time>2020-08-03T07:35:34.000Z</time>
      </trkpt>
      <trkpt lat="45.06779" lon="2.64981">
        <ele>922</ele>
        <time>2020-08-03T07:35:36.000Z</time>
      </trkpt>
      <trkpt lat="45.0678" lon="2.64987">
        <ele>922.20001220703</ele>
        <time>2020-08-03T07:35:41.000Z</time>
      </trkpt>
      <trkpt lat="45.06781" lon="2.6499">
        <ele>922</ele>
        <time>2020-08-03T07:35:47.000Z</time>
      </trkpt>
      <trkpt lat="45.06783" lon="2.64999">
        <ele>922</ele>
        <time>2020-08-03T07:35:52.000Z</time>
      </trkpt>
      <trkpt lat="45.06783" lon="2.65001">
        <ele>922</ele>
        <time>2020-08-03T07:35:53.000Z</time>
      </trkpt>
      <trkpt lat="45.06787" lon="2.65008">
        <ele>922.79998779297</ele>
        <time>2020-08-03T07:35:58.000Z</time>
      </trkpt>
      <trkpt lat="45.06788" lon="2.65009">
        <ele>924</ele>
        <time>2020-08-03T07:36:00.000Z</time>
      </trkpt>
      <trkpt lat="45.06789" lon="2.6501">
        <ele>924.20001220703</ele>
        <time>2020-08-03T07:36:01.000Z</time>
      </trkpt>
      <trkpt lat="45.06792" lon="2.65021">
        <ele>925</ele>
        <time>2020-08-03T07:36:08.000Z</time>
      </trkpt>
      <trkpt lat="45.06793" lon="2.65023">
        <ele>925.20001220703</ele>
        <time>2020-08-03T07:36:09.000Z</time>
      </trkpt>
      <trkpt lat="45.06797" lon="2.65029">
        <ele>925.59997558594</ele>
        <time>2020-08-03T07:36:13.000Z</time>
      </trkpt>
      <trkpt lat="45.06797" lon="2.65032">
        <ele>925.79998779297</ele>
        <time>2020-08-03T07:36:15.000Z</time>
      </trkpt>
      <trkpt lat="45.06799" lon="2.65036">
        <ele>926.20001220703</ele>
        <time>2020-08-03T07:36:19.000Z</time>
      </trkpt>
      <trkpt lat="45.06801" lon="2.65038">
        <ele>926.79998779297</ele>
        <time>2020-08-03T07:36:22.000Z</time>
      </trkpt>
      <trkpt lat="45.06803" lon="2.65041">
        <ele>927.20001220703</ele>
        <time>2020-08-03T07:36:27.000Z</time>
      </trkpt>
      <trkpt lat="45.06804" lon="2.65046">
        <ele>927.40002441406</ele>
        <time>2020-08-03T07:36:30.000Z</time>
      </trkpt>
      <trkpt lat="45.06807" lon="2.65056">
        <ele>927.59997558594</ele>
        <time>2020-08-03T07:36:38.000Z</time>
      </trkpt>
      <trkpt lat="45.06809" lon="2.65058">
        <ele>927.79998779297</ele>
        <time>2020-08-03T07:36:39.000Z</time>
      </trkpt>
      <trkpt lat="45.06813" lon="2.65064">
        <ele>928.20001220703</ele>
        <time>2020-08-03T07:36:45.000Z</time>
      </trkpt>
      <trkpt lat="45.06819" lon="2.65072">
        <ele>928.20001220703</ele>
        <time>2020-08-03T07:36:53.000Z</time>
      </trkpt>
      <trkpt lat="45.06822" lon="2.65082">
        <ele>928.20001220703</ele>
        <time>2020-08-03T07:37:01.000Z</time>
      </trkpt>
      <trkpt lat="45.06822" lon="2.65083">
        <ele>928.20001220703</ele>
        <time>2020-08-03T07:37:02.000Z</time>
      </trkpt>
      <trkpt lat="45.06825" lon="2.65087">
        <ele>928.40002441406</ele>
        <time>2020-08-03T07:37:05.000Z</time>
      </trkpt>
      <trkpt lat="45.06827" lon="2.65091">
        <ele>928.59997558594</ele>
        <time>2020-08-03T07:37:08.000Z</time>
      </trkpt>
      <trkpt lat="45.06828" lon="2.65092">
        <ele>928.59997558594</ele>
        <time>2020-08-03T07:37:09.000Z</time>
      </trkpt>
      <trkpt lat="45.06833" lon="2.65098">
        <ele>929.40002441406</ele>
        <time>2020-08-03T07:37:13.000Z</time>
      </trkpt>
      <trkpt lat="45.06834" lon="2.651">
        <ele>929.59997558594</ele>
        <time>2020-08-03T07:37:15.000Z</time>
      </trkpt>
      <trkpt lat="45.06836" lon="2.65106">
        <ele>930.40002441406</ele>
        <time>2020-08-03T07:37:19.000Z</time>
      </trkpt>
      <trkpt lat="45.06839" lon="2.65109">
        <ele>930.59997558594</ele>
        <time>2020-08-03T07:37:21.000Z</time>
      </trkpt>
      <trkpt lat="45.0684" lon="2.6511">
        <ele>930.59997558594</ele>
        <time>2020-08-03T07:37:22.000Z</time>
      </trkpt>
      <trkpt lat="45.06843" lon="2.65119">
        <ele>931.20001220703</ele>
        <time>2020-08-03T07:37:29.000Z</time>
      </trkpt>
      <trkpt lat="45.06844" lon="2.65122">
        <ele>931.20001220703</ele>
        <time>2020-08-03T07:37:31.000Z</time>
      </trkpt>
      <trkpt lat="45.06842" lon="2.65137">
        <ele>930.59997558594</ele>
        <time>2020-08-03T07:37:39.000Z</time>
      </trkpt>
      <trkpt lat="45.06842" lon="2.6515">
        <ele>930.20001220703</ele>
        <time>2020-08-03T07:37:46.000Z</time>
      </trkpt>
      <trkpt lat="45.06841" lon="2.65152">
        <ele>930</ele>
        <time>2020-08-03T07:37:52.000Z</time>
      </trkpt>
      <trkpt lat="45.06841" lon="2.65154">
        <ele>930.20001220703</ele>
        <time>2020-08-03T07:37:58.000Z</time>
      </trkpt>
      <trkpt lat="45.06841" lon="2.65157">
        <ele>930.20001220703</ele>
        <time>2020-08-03T07:38:00.000Z</time>
      </trkpt>
      <trkpt lat="45.06843" lon="2.65173">
        <ele>930</ele>
        <time>2020-08-03T07:38:09.000Z</time>
      </trkpt>
      <trkpt lat="45.06844" lon="2.65185">
        <ele>930</ele>
        <time>2020-08-03T07:38:17.000Z</time>
      </trkpt>
      <trkpt lat="45.06847" lon="2.65198">
        <ele>929.79998779297</ele>
        <time>2020-08-03T07:38:24.000Z</time>
      </trkpt>
      <trkpt lat="45.06847" lon="2.65201">
        <ele>930</ele>
        <time>2020-08-03T07:38:26.000Z</time>
      </trkpt>
      <trkpt lat="45.06849" lon="2.65209">
        <ele>930.20001220703</ele>
        <time>2020-08-03T07:38:31.000Z</time>
      </trkpt>
      <trkpt lat="45.06851" lon="2.65221">
        <ele>930.40002441406</ele>
        <time>2020-08-03T07:38:38.000Z</time>
      </trkpt>
      <trkpt lat="45.06851" lon="2.6523">
        <ele>930.20001220703</ele>
        <time>2020-08-03T07:38:45.000Z</time>
      </trkpt>
      <trkpt lat="45.06848" lon="2.65241">
        <ele>929.79998779297</ele>
        <time>2020-08-03T07:38:52.000Z</time>
      </trkpt>
      <trkpt lat="45.06847" lon="2.65243">
        <ele>929.79998779297</ele>
        <time>2020-08-03T07:38:54.000Z</time>
      </trkpt>
      <trkpt lat="45.06845" lon="2.65252">
        <ele>929.79998779297</ele>
        <time>2020-08-03T07:38:59.000Z</time>
      </trkpt>
      <trkpt lat="45.06847" lon="2.65258">
        <ele>929.79998779297</ele>
        <time>2020-08-03T07:39:04.000Z</time>
      </trkpt>
      <trkpt lat="45.06847" lon="2.65261">
        <ele>929.79998779297</ele>
        <time>2020-08-03T07:39:06.000Z</time>
      </trkpt>
      <trkpt lat="45.06847" lon="2.65264">
        <ele>929.79998779297</ele>
        <time>2020-08-03T07:39:09.000Z</time>
      </trkpt>
      <trkpt lat="45.06849" lon="2.6527">
        <ele>929.59997558594</ele>
        <time>2020-08-03T07:39:13.000Z</time>
      </trkpt>
      <trkpt lat="45.0685" lon="2.65271">
        <ele>929.40002441406</ele>
        <time>2020-08-03T07:39:14.000Z</time>
      </trkpt>
      <trkpt lat="45.06851" lon="2.65274">
        <ele>929.40002441406</ele>
        <time>2020-08-03T07:39:15.000Z</time>
      </trkpt>
      <trkpt lat="45.06852" lon="2.6528">
        <ele>929.20001220703</ele>
        <time>2020-08-03T07:39:19.000Z</time>
      </trkpt>
      <trkpt lat="45.06853" lon="2.65287">
        <ele>929.40002441406</ele>
        <time>2020-08-03T07:39:24.000Z</time>
      </trkpt>
      <trkpt lat="45.06853" lon="2.6529">
        <ele>929.59997558594</ele>
        <time>2020-08-03T07:39:26.000Z</time>
      </trkpt>
      <trkpt lat="45.06852" lon="2.65299">
        <ele>929.59997558594</ele>
        <time>2020-08-03T07:39:31.000Z</time>
      </trkpt>
      <trkpt lat="45.06852" lon="2.65303">
        <ele>929.79998779297</ele>
        <time>2020-08-03T07:39:33.000Z</time>
      </trkpt>
      <trkpt lat="45.06853" lon="2.65314">
        <ele>930.40002441406</ele>
        <time>2020-08-03T07:39:40.000Z</time>
      </trkpt>
      <trkpt lat="45.06854" lon="2.65316">
        <ele>930.40002441406</ele>
        <time>2020-08-03T07:39:41.000Z</time>
      </trkpt>
      <trkpt lat="45.06854" lon="2.65323">
        <ele>930.40002441406</ele>
        <time>2020-08-03T07:39:45.000Z</time>
      </trkpt>
      <trkpt lat="45.06854" lon="2.65327">
        <ele>930.40002441406</ele>
        <time>2020-08-03T07:39:47.000Z</time>
      </trkpt>
      <trkpt lat="45.06854" lon="2.65336">
        <ele>930.40002441406</ele>
        <time>2020-08-03T07:39:53.000Z</time>
      </trkpt>
      <trkpt lat="45.06854" lon="2.65338">
        <ele>930.40002441406</ele>
        <time>2020-08-03T07:39:54.000Z</time>
      </trkpt>
      <trkpt lat="45.06856" lon="2.65349">
        <ele>930.79998779297</ele>
        <time>2020-08-03T07:39:59.000Z</time>
      </trkpt>
      <trkpt lat="45.06859" lon="2.65361">
        <ele>931.40002441406</ele>
        <time>2020-08-03T07:40:06.000Z</time>
      </trkpt>
      <trkpt lat="45.06859" lon="2.65364">
        <ele>931.40002441406</ele>
        <time>2020-08-03T07:40:08.000Z</time>
      </trkpt>
      <trkpt lat="45.0686" lon="2.65366">
        <ele>931.40002441406</ele>
        <time>2020-08-03T07:40:09.000Z</time>
      </trkpt>
      <trkpt lat="45.06863" lon="2.65373">
        <ele>932</ele>
        <time>2020-08-03T07:40:13.000Z</time>
      </trkpt>
      <trkpt lat="45.06865" lon="2.65381">
        <ele>932.40002441406</ele>
        <time>2020-08-03T07:40:19.000Z</time>
      </trkpt>
      <trkpt lat="45.06865" lon="2.65382">
        <ele>932.59997558594</ele>
        <time>2020-08-03T07:40:20.000Z</time>
      </trkpt>
      <trkpt lat="45.06865" lon="2.65384">
        <ele>932.79998779297</ele>
        <time>2020-08-03T07:40:21.000Z</time>
      </trkpt>
      <trkpt lat="45.06866" lon="2.65389">
        <ele>933.59997558594</ele>
        <time>2020-08-03T07:40:24.000Z</time>
      </trkpt>
      <trkpt lat="45.06866" lon="2.65392">
        <ele>934</ele>
        <time>2020-08-03T07:40:27.000Z</time>
      </trkpt>
      <trkpt lat="45.06869" lon="2.65401">
        <ele>934.40002441406</ele>
        <time>2020-08-03T07:40:34.000Z</time>
      </trkpt>
      <trkpt lat="45.0687" lon="2.65405">
        <ele>934.59997558594</ele>
        <time>2020-08-03T07:40:37.000Z</time>
      </trkpt>
      <trkpt lat="45.06871" lon="2.6541">
        <ele>934.79998779297</ele>
        <time>2020-08-03T07:40:41.000Z</time>
      </trkpt>
      <trkpt lat="45.06872" lon="2.65412">
        <ele>934.79998779297</ele>
        <time>2020-08-03T07:40:42.000Z</time>
      </trkpt>
      <trkpt lat="45.06877" lon="2.65416">
        <ele>935.59997558594</ele>
        <time>2020-08-03T07:40:46.000Z</time>
      </trkpt>
      <trkpt lat="45.06879" lon="2.65418">
        <ele>935.79998779297</ele>
        <time>2020-08-03T07:40:48.000Z</time>
      </trkpt>
      <trkpt lat="45.06882" lon="2.65426">
        <ele>936.20001220703</ele>
        <time>2020-08-03T07:40:54.000Z</time>
      </trkpt>
      <trkpt lat="45.06884" lon="2.6543">
        <ele>936.59997558594</ele>
        <time>2020-08-03T07:40:58.000Z</time>
      </trkpt>
      <trkpt lat="45.06886" lon="2.65433">
        <ele>936.79998779297</ele>
        <time>2020-08-03T07:41:00.000Z</time>
      </trkpt>
      <trkpt lat="45.06892" lon="2.65442">
        <ele>937.40002441406</ele>
        <time>2020-08-03T07:41:08.000Z</time>
      </trkpt>
      <trkpt lat="45.06894" lon="2.65446">
        <ele>937</ele>
        <time>2020-08-03T07:41:14.000Z</time>
      </trkpt>
      <trkpt lat="45.06891" lon="2.65443">
        <ele>937</ele>
        <time>2020-08-03T07:41:24.000Z</time>
      </trkpt>
      <trkpt lat="45.06891" lon="2.65444">
        <ele>937</ele>
        <time>2020-08-03T07:41:26.000Z</time>
      </trkpt>
      <trkpt lat="45.06892" lon="2.65448">
        <ele>937</ele>
        <time>2020-08-03T07:41:28.000Z</time>
      </trkpt>
      <trkpt lat="45.06893" lon="2.65451">
        <ele>937</ele>
        <time>2020-08-03T07:41:30.000Z</time>
      </trkpt>
      <trkpt lat="45.06896" lon="2.65457">
        <ele>937</ele>
        <time>2020-08-03T07:41:35.000Z</time>
      </trkpt>
      <trkpt lat="45.06898" lon="2.6546">
        <ele>937.20001220703</ele>
        <time>2020-08-03T07:41:38.000Z</time>
      </trkpt>
      <trkpt lat="45.06901" lon="2.65468">
        <ele>937.59997558594</ele>
        <time>2020-08-03T07:41:43.000Z</time>
      </trkpt>
      <trkpt lat="45.06902" lon="2.65471">
        <ele>937.40002441406</ele>
        <time>2020-08-03T07:41:45.000Z</time>
      </trkpt>
      <trkpt lat="45.06912" lon="2.65486">
        <ele>936.79998779297</ele>
        <time>2020-08-03T07:41:56.000Z</time>
      </trkpt>
      <trkpt lat="45.06917" lon="2.65496">
        <ele>937</ele>
        <time>2020-08-03T07:42:05.000Z</time>
      </trkpt>
      <trkpt lat="45.06921" lon="2.65504">
        <ele>937.59997558594</ele>
        <time>2020-08-03T07:42:11.000Z</time>
      </trkpt>
      <trkpt lat="45.0693" lon="2.6551">
        <ele>937.59997558594</ele>
        <time>2020-08-03T07:42:18.000Z</time>
      </trkpt>
      <trkpt lat="45.06935" lon="2.65511">
        <ele>937.20001220703</ele>
        <time>2020-08-03T07:42:25.000Z</time>
      </trkpt>
      <trkpt lat="45.06936" lon="2.65512">
        <ele>937.20001220703</ele>
        <time>2020-08-03T07:42:34.000Z</time>
      </trkpt>
      <trkpt lat="45.06939" lon="2.65517">
        <ele>937.20001220703</ele>
        <time>2020-08-03T07:42:38.000Z</time>
      </trkpt>
      <trkpt lat="45.06944" lon="2.65519">
        <ele>936.40002441406</ele>
        <time>2020-08-03T07:42:42.000Z</time>
      </trkpt>
      <trkpt lat="45.06949" lon="2.65524">
        <ele>935.59997558594</ele>
        <time>2020-08-03T07:42:49.000Z</time>
      </trkpt>
      <trkpt lat="45.0695" lon="2.65524">
        <ele>935.59997558594</ele>
        <time>2020-08-03T07:42:50.000Z</time>
      </trkpt>
      <trkpt lat="45.06954" lon="2.65526">
        <ele>935.59997558594</ele>
        <time>2020-08-03T07:42:57.000Z</time>
      </trkpt>
      <trkpt lat="45.06961" lon="2.6553">
        <ele>935.20001220703</ele>
        <time>2020-08-03T07:43:06.000Z</time>
      </trkpt>
      <trkpt lat="45.06967" lon="2.65533">
        <ele>935.40002441406</ele>
        <time>2020-08-03T07:43:11.000Z</time>
      </trkpt>
      <trkpt lat="45.06969" lon="2.65534">
        <ele>935.40002441406</ele>
        <time>2020-08-03T07:43:13.000Z</time>
      </trkpt>
      <trkpt lat="45.06972" lon="2.65542">
        <ele>935.40002441406</ele>
        <time>2020-08-03T07:43:21.000Z</time>
      </trkpt>
      <trkpt lat="45.06978" lon="2.6555">
        <ele>936</ele>
        <time>2020-08-03T07:43:28.000Z</time>
      </trkpt>
      <trkpt lat="45.06983" lon="2.65555">
        <ele>936</ele>
        <time>2020-08-03T07:43:32.000Z</time>
      </trkpt>
      <trkpt lat="45.06987" lon="2.65563">
        <ele>936.20001220703</ele>
        <time>2020-08-03T07:43:37.000Z</time>
      </trkpt>
      <trkpt lat="45.06987" lon="2.65566">
        <ele>936.40002441406</ele>
        <time>2020-08-03T07:43:38.000Z</time>
      </trkpt>
      <trkpt lat="45.06988" lon="2.6557">
        <ele>936.79998779297</ele>
        <time>2020-08-03T07:43:40.000Z</time>
      </trkpt>
      <trkpt lat="45.06992" lon="2.65574">
        <ele>937.20001220703</ele>
        <time>2020-08-03T07:43:44.000Z</time>
      </trkpt>
      <trkpt lat="45.06995" lon="2.65579">
        <ele>937.40002441406</ele>
        <time>2020-08-03T07:43:48.000Z</time>
      </trkpt>
      <trkpt lat="45.06997" lon="2.65583">
        <ele>937</ele>
        <time>2020-08-03T07:43:51.000Z</time>
      </trkpt>
      <trkpt lat="45.07002" lon="2.65585">
        <ele>936.79998779297</ele>
        <time>2020-08-03T07:43:59.000Z</time>
      </trkpt>
      <trkpt lat="45.07004" lon="2.65586">
        <ele>936.79998779297</ele>
        <time>2020-08-03T07:44:08.000Z</time>
      </trkpt>
      <trkpt lat="45.07005" lon="2.65587">
        <ele>937</ele>
        <time>2020-08-03T07:44:11.000Z</time>
      </trkpt>
      <trkpt lat="45.07005" lon="2.6559">
        <ele>937.20001220703</ele>
        <time>2020-08-03T07:44:14.000Z</time>
      </trkpt>
      <trkpt lat="45.07007" lon="2.65596">
        <ele>936.20001220703</ele>
        <time>2020-08-03T07:44:21.000Z</time>
      </trkpt>
      <trkpt lat="45.07007" lon="2.656">
        <ele>935.59997558594</ele>
        <time>2020-08-03T07:44:24.000Z</time>
      </trkpt>
      <trkpt lat="45.07009" lon="2.65603">
        <ele>935</ele>
        <time>2020-08-03T07:44:28.000Z</time>
      </trkpt>
      <trkpt lat="45.0701" lon="2.65604">
        <ele>934.59997558594</ele>
        <time>2020-08-03T07:44:30.000Z</time>
      </trkpt>
      <trkpt lat="45.0701" lon="2.65606">
        <ele>933.59997558594</ele>
        <time>2020-08-03T07:44:32.000Z</time>
      </trkpt>
      <trkpt lat="45.0701" lon="2.65608">
        <ele>933</ele>
        <time>2020-08-03T07:44:33.000Z</time>
      </trkpt>
      <trkpt lat="45.0701" lon="2.6561">
        <ele>932.20001220703</ele>
        <time>2020-08-03T07:44:35.000Z</time>
      </trkpt>
      <trkpt lat="45.07015" lon="2.65616">
        <ele>931.20001220703</ele>
        <time>2020-08-03T07:44:40.000Z</time>
      </trkpt>
      <trkpt lat="45.07016" lon="2.65617">
        <ele>931</ele>
        <time>2020-08-03T07:44:41.000Z</time>
      </trkpt>
      <trkpt lat="45.07019" lon="2.65619">
        <ele>930.79998779297</ele>
        <time>2020-08-03T07:44:42.000Z</time>
      </trkpt>
      <trkpt lat="45.07025" lon="2.65621">
        <ele>929.79998779297</ele>
        <time>2020-08-03T07:44:46.000Z</time>
      </trkpt>
      <trkpt lat="45.07029" lon="2.65623">
        <ele>929</ele>
        <time>2020-08-03T07:44:49.000Z</time>
      </trkpt>
      <trkpt lat="45.07031" lon="2.65625">
        <ele>928.79998779297</ele>
        <time>2020-08-03T07:44:51.000Z</time>
      </trkpt>
      <trkpt lat="45.07036" lon="2.65632">
        <ele>927.79998779297</ele>
        <time>2020-08-03T07:44:57.000Z</time>
      </trkpt>
      <trkpt lat="45.07037" lon="2.65633">
        <ele>927.59997558594</ele>
        <time>2020-08-03T07:44:58.000Z</time>
      </trkpt>
      <trkpt lat="45.07039" lon="2.65647">
        <ele>926.59997558594</ele>
        <time>2020-08-03T07:45:05.000Z</time>
      </trkpt>
      <trkpt lat="45.07039" lon="2.65649">
        <ele>926.40002441406</ele>
        <time>2020-08-03T07:45:06.000Z</time>
      </trkpt>
      <trkpt lat="45.07039" lon="2.65655">
        <ele>925.59997558594</ele>
        <time>2020-08-03T07:45:09.000Z</time>
      </trkpt>
      <trkpt lat="45.07037" lon="2.65663">
        <ele>924.20001220703</ele>
        <time>2020-08-03T07:45:14.000Z</time>
      </trkpt>
      <trkpt lat="45.07036" lon="2.65665">
        <ele>923.79998779297</ele>
        <time>2020-08-03T07:45:16.000Z</time>
      </trkpt>
      <trkpt lat="45.07033" lon="2.6567">
        <ele>923.20001220703</ele>
        <time>2020-08-03T07:45:20.000Z</time>
      </trkpt>
      <trkpt lat="45.07029" lon="2.65673">
        <ele>922.59997558594</ele>
        <time>2020-08-03T07:45:24.000Z</time>
      </trkpt>
      <trkpt lat="45.07027" lon="2.65675">
        <ele>922.20001220703</ele>
        <time>2020-08-03T07:45:28.000Z</time>
      </trkpt>
      <trkpt lat="45.07025" lon="2.65676">
        <ele>921.79998779297</ele>
        <time>2020-08-03T07:45:31.000Z</time>
      </trkpt>
      <trkpt lat="45.07024" lon="2.65673">
        <ele>921.59997558594</ele>
        <time>2020-08-03T07:45:37.000Z</time>
      </trkpt>
      <trkpt lat="45.07022" lon="2.65675">
        <ele>921.20001220703</ele>
        <time>2020-08-03T07:45:39.000Z</time>
      </trkpt>
      <trkpt lat="45.07019" lon="2.65678">
        <ele>921</ele>
        <time>2020-08-03T07:45:41.000Z</time>
      </trkpt>
      <trkpt lat="45.07011" lon="2.65687">
        <ele>920.40002441406</ele>
        <time>2020-08-03T07:45:49.000Z</time>
      </trkpt>
      <trkpt lat="45.07008" lon="2.65691">
        <ele>920</ele>
        <time>2020-08-03T07:45:53.000Z</time>
      </trkpt>
      <trkpt lat="45.07002" lon="2.65697">
        <ele>919.79998779297</ele>
        <time>2020-08-03T07:45:58.000Z</time>
      </trkpt>
      <trkpt lat="45.06996" lon="2.65708">
        <ele>919</ele>
        <time>2020-08-03T07:46:07.000Z</time>
      </trkpt>
      <trkpt lat="45.06995" lon="2.6571">
        <ele>919</ele>
        <time>2020-08-03T07:46:09.000Z</time>
      </trkpt>
      <trkpt lat="45.06996" lon="2.65716">
        <ele>918.79998779297</ele>
        <time>2020-08-03T07:46:14.000Z</time>
      </trkpt>
      <trkpt lat="45.06997" lon="2.65717">
        <ele>918.79998779297</ele>
        <time>2020-08-03T07:46:16.000Z</time>
      </trkpt>
      <trkpt lat="45.07003" lon="2.65726">
        <ele>919.20001220703</ele>
        <time>2020-08-03T07:46:24.000Z</time>
      </trkpt>
      <trkpt lat="45.07004" lon="2.65733">
        <ele>919.79998779297</ele>
        <time>2020-08-03T07:46:29.000Z</time>
      </trkpt>
      <trkpt lat="45.07005" lon="2.65737">
        <ele>919.79998779297</ele>
        <time>2020-08-03T07:46:31.000Z</time>
      </trkpt>
      <trkpt lat="45.07006" lon="2.6574">
        <ele>919.79998779297</ele>
        <time>2020-08-03T07:46:33.000Z</time>
      </trkpt>
      <trkpt lat="45.07006" lon="2.65745">
        <ele>919.59997558594</ele>
        <time>2020-08-03T07:46:37.000Z</time>
      </trkpt>
      <trkpt lat="45.07012" lon="2.65752">
        <ele>918.79998779297</ele>
        <time>2020-08-03T07:46:46.000Z</time>
      </trkpt>
      <trkpt lat="45.07016" lon="2.65756">
        <ele>919</ele>
        <time>2020-08-03T07:46:54.000Z</time>
      </trkpt>
      <trkpt lat="45.07015" lon="2.65757">
        <ele>919</ele>
        <time>2020-08-03T07:47:03.000Z</time>
      </trkpt>
      <trkpt lat="45.07015" lon="2.65754">
        <ele>919</ele>
        <time>2020-08-03T07:47:08.000Z</time>
      </trkpt>
      <trkpt lat="45.07016" lon="2.65753">
        <ele>919.20001220703</ele>
        <time>2020-08-03T07:47:09.000Z</time>
      </trkpt>
      <trkpt lat="45.0705" lon="2.65713">
        <ele>922.40002441406</ele>
        <time>2020-08-03T07:52:25.000Z</time>
      </trkpt>
      <trkpt lat="45.07052" lon="2.65713">
        <ele>922.20001220703</ele>
        <time>2020-08-03T07:52:26.000Z</time>
      </trkpt>
      <trkpt lat="45.07015" lon="2.65746">
        <ele>918.79998779297</ele>
        <time>2020-08-03T08:27:54.000Z</time>
      </trkpt>
      <trkpt lat="45.07012" lon="2.65751">
        <ele>919.40002441406</ele>
        <time>2020-08-03T08:27:58.000Z</time>
      </trkpt>
      <trkpt lat="45.07009" lon="2.65749">
        <ele>919.59997558594</ele>
        <time>2020-08-03T08:28:00.000Z</time>
      </trkpt>
      <trkpt lat="45.07005" lon="2.6574">
        <ele>920.20001220703</ele>
        <time>2020-08-03T08:28:06.000Z</time>
      </trkpt>
      <trkpt lat="45.07001" lon="2.65737">
        <ele>920.40002441406</ele>
        <time>2020-08-03T08:28:09.000Z</time>
      </trkpt>
      <trkpt lat="45.06995" lon="2.65734">
        <ele>920.40002441406</ele>
        <time>2020-08-03T08:28:14.000Z</time>
      </trkpt>
      <trkpt lat="45.06993" lon="2.65737">
        <ele>920.40002441406</ele>
        <time>2020-08-03T08:28:17.000Z</time>
      </trkpt>
      <trkpt lat="45.06989" lon="2.65743">
        <ele>920</ele>
        <time>2020-08-03T08:28:22.000Z</time>
      </trkpt>
      <trkpt lat="45.06982" lon="2.65749">
        <ele>920.20001220703</ele>
        <time>2020-08-03T08:28:29.000Z</time>
      </trkpt>
      <trkpt lat="45.06979" lon="2.65754">
        <ele>920.20001220703</ele>
        <time>2020-08-03T08:28:34.000Z</time>
      </trkpt>
      <trkpt lat="45.06978" lon="2.65755">
        <ele>920</ele>
        <time>2020-08-03T08:28:35.000Z</time>
      </trkpt>
      <trkpt lat="45.06974" lon="2.6576">
        <ele>919.40002441406</ele>
        <time>2020-08-03T08:28:41.000Z</time>
      </trkpt>
      <trkpt lat="45.06972" lon="2.65764">
        <ele>919.20001220703</ele>
        <time>2020-08-03T08:28:44.000Z</time>
      </trkpt>
      <trkpt lat="45.06971" lon="2.65767">
        <ele>918.59997558594</ele>
        <time>2020-08-03T08:28:47.000Z</time>
      </trkpt>
      <trkpt lat="45.06971" lon="2.65769">
        <ele>918.59997558594</ele>
        <time>2020-08-03T08:28:48.000Z</time>
      </trkpt>
      <trkpt lat="45.06971" lon="2.65776">
        <ele>919.59997558594</ele>
        <time>2020-08-03T08:28:55.000Z</time>
      </trkpt>
      <trkpt lat="45.0697" lon="2.6578">
        <ele>919.59997558594</ele>
        <time>2020-08-03T08:29:03.000Z</time>
      </trkpt>
      <trkpt lat="45.0697" lon="2.6578">
        <ele>919.59997558594</ele>
        <time>2020-08-03T08:29:04.000Z</time>
      </trkpt>
      <trkpt lat="45.0697" lon="2.65783">
        <ele>920</ele>
        <time>2020-08-03T08:29:12.000Z</time>
      </trkpt>
      <trkpt lat="45.0697" lon="2.65783">
        <ele>920</ele>
        <time>2020-08-03T08:29:13.000Z</time>
      </trkpt>
      <trkpt lat="45.06965" lon="2.65779">
        <ele>920.20001220703</ele>
        <time>2020-08-03T08:29:17.000Z</time>
      </trkpt>
      <trkpt lat="45.0696" lon="2.65779">
        <ele>919.79998779297</ele>
        <time>2020-08-03T08:29:21.000Z</time>
      </trkpt>
      <trkpt lat="45.06958" lon="2.6578">
        <ele>919.59997558594</ele>
        <time>2020-08-03T08:29:23.000Z</time>
      </trkpt>
      <trkpt lat="45.06949" lon="2.6578">
        <ele>919.59997558594</ele>
        <time>2020-08-03T08:29:31.000Z</time>
      </trkpt>
      <trkpt lat="45.06942" lon="2.6578">
        <ele>919.79998779297</ele>
        <time>2020-08-03T08:29:37.000Z</time>
      </trkpt>
      <trkpt lat="45.06934" lon="2.65776">
        <ele>920.20001220703</ele>
        <time>2020-08-03T08:29:44.000Z</time>
      </trkpt>
      <trkpt lat="45.06933" lon="2.65774">
        <ele>920.20001220703</ele>
        <time>2020-08-03T08:29:45.000Z</time>
      </trkpt>
      <trkpt lat="45.06925" lon="2.65766">
        <ele>920.20001220703</ele>
        <time>2020-08-03T08:29:53.000Z</time>
      </trkpt>
      <trkpt lat="45.06922" lon="2.65762">
        <ele>919.79998779297</ele>
        <time>2020-08-03T08:29:58.000Z</time>
      </trkpt>
      <trkpt lat="45.06921" lon="2.65761">
        <ele>919.79998779297</ele>
        <time>2020-08-03T08:29:59.000Z</time>
      </trkpt>
      <trkpt lat="45.06914" lon="2.65757">
        <ele>920</ele>
        <time>2020-08-03T08:30:05.000Z</time>
      </trkpt>
      <trkpt lat="45.06912" lon="2.65762">
        <ele>920.79998779297</ele>
        <time>2020-08-03T08:30:10.000Z</time>
      </trkpt>
      <trkpt lat="45.06913" lon="2.65765">
        <ele>921.40002441406</ele>
        <time>2020-08-03T08:30:12.000Z</time>
      </trkpt>
      <trkpt lat="45.06913" lon="2.65767">
        <ele>921.59997558594</ele>
        <time>2020-08-03T08:30:13.000Z</time>
      </trkpt>
      <trkpt lat="45.06914" lon="2.65769">
        <ele>921.79998779297</ele>
        <time>2020-08-03T08:30:14.000Z</time>
      </trkpt>
      <trkpt lat="45.06916" lon="2.65774">
        <ele>922.79998779297</ele>
        <time>2020-08-03T08:30:20.000Z</time>
      </trkpt>
      <trkpt lat="45.06917" lon="2.65776">
        <ele>922.79998779297</ele>
        <time>2020-08-03T08:30:21.000Z</time>
      </trkpt>
      <trkpt lat="45.06922" lon="2.65781">
        <ele>923.40002441406</ele>
        <time>2020-08-03T08:30:24.000Z</time>
      </trkpt>
      <trkpt lat="45.06925" lon="2.65787">
        <ele>923.59997558594</ele>
        <time>2020-08-03T08:30:27.000Z</time>
      </trkpt>
      <trkpt lat="45.06927" lon="2.65791">
        <ele>923.59997558594</ele>
        <time>2020-08-03T08:30:30.000Z</time>
      </trkpt>
      <trkpt lat="45.06929" lon="2.65796">
        <ele>923.40002441406</ele>
        <time>2020-08-03T08:30:33.000Z</time>
      </trkpt>
      <trkpt lat="45.06929" lon="2.65805">
        <ele>924</ele>
        <time>2020-08-03T08:30:38.000Z</time>
      </trkpt>
      <trkpt lat="45.06929" lon="2.65806">
        <ele>924.40002441406</ele>
        <time>2020-08-03T08:30:39.000Z</time>
      </trkpt>
      <trkpt lat="45.06932" lon="2.65816">
        <ele>924.59997558594</ele>
        <time>2020-08-03T08:30:45.000Z</time>
      </trkpt>
      <trkpt lat="45.06929" lon="2.65821">
        <ele>925.20001220703</ele>
        <time>2020-08-03T08:30:49.000Z</time>
      </trkpt>
      <trkpt lat="45.06929" lon="2.65821">
        <ele>925.40002441406</ele>
        <time>2020-08-03T08:30:50.000Z</time>
      </trkpt>
      <trkpt lat="45.06929" lon="2.65823">
        <ele>925.59997558594</ele>
        <time>2020-08-03T08:30:52.000Z</time>
      </trkpt>
      <trkpt lat="45.06932" lon="2.65827">
        <ele>926.40002441406</ele>
        <time>2020-08-03T08:30:55.000Z</time>
      </trkpt>
      <trkpt lat="45.06936" lon="2.65834">
        <ele>926</ele>
        <time>2020-08-03T08:31:02.000Z</time>
      </trkpt>
      <trkpt lat="45.06937" lon="2.65836">
        <ele>926</ele>
        <time>2020-08-03T08:31:07.000Z</time>
      </trkpt>
      <trkpt lat="45.06939" lon="2.6584">
        <ele>925.20001220703</ele>
        <time>2020-08-03T08:31:10.000Z</time>
      </trkpt>
      <trkpt lat="45.06939" lon="2.65843">
        <ele>924.79998779297</ele>
        <time>2020-08-03T08:31:12.000Z</time>
      </trkpt>
      <trkpt lat="45.06945" lon="2.65854">
        <ele>926</ele>
        <time>2020-08-03T08:31:20.000Z</time>
      </trkpt>
      <trkpt lat="45.06946" lon="2.65856">
        <ele>926.40002441406</ele>
        <time>2020-08-03T08:31:21.000Z</time>
      </trkpt>
      <trkpt lat="45.06949" lon="2.65864">
        <ele>927.20001220703</ele>
        <time>2020-08-03T08:31:26.000Z</time>
      </trkpt>
      <trkpt lat="45.06952" lon="2.65875">
        <ele>926.59997558594</ele>
        <time>2020-08-03T08:31:32.000Z</time>
      </trkpt>
      <trkpt lat="45.06956" lon="2.65885">
        <ele>926.20001220703</ele>
        <time>2020-08-03T08:31:39.000Z</time>
      </trkpt>
      <trkpt lat="45.06957" lon="2.65888">
        <ele>926.40002441406</ele>
        <time>2020-08-03T08:31:41.000Z</time>
      </trkpt>
      <trkpt lat="45.06959" lon="2.65895">
        <ele>926.40002441406</ele>
        <time>2020-08-03T08:31:46.000Z</time>
      </trkpt>
      <trkpt lat="45.06961" lon="2.65901">
        <ele>926</ele>
        <time>2020-08-03T08:31:53.000Z</time>
      </trkpt>
      <trkpt lat="45.06961" lon="2.65902">
        <ele>926</ele>
        <time>2020-08-03T08:31:57.000Z</time>
      </trkpt>
      <trkpt lat="45.06961" lon="2.65903">
        <ele>926</ele>
        <time>2020-08-03T08:31:59.000Z</time>
      </trkpt>
      <trkpt lat="45.06962" lon="2.65905">
        <ele>926</ele>
        <time>2020-08-03T08:32:01.000Z</time>
      </trkpt>
      <trkpt lat="45.06966" lon="2.65909">
        <ele>926</ele>
        <time>2020-08-03T08:32:04.000Z</time>
      </trkpt>
      <trkpt lat="45.06967" lon="2.65913">
        <ele>926</ele>
        <time>2020-08-03T08:32:06.000Z</time>
      </trkpt>
      <trkpt lat="45.06968" lon="2.6592">
        <ele>926.20001220703</ele>
        <time>2020-08-03T08:32:11.000Z</time>
      </trkpt>
      <trkpt lat="45.06969" lon="2.65921">
        <ele>926.20001220703</ele>
        <time>2020-08-03T08:32:13.000Z</time>
      </trkpt>
      <trkpt lat="45.06967" lon="2.6593">
        <ele>926.20001220703</ele>
        <time>2020-08-03T08:32:18.000Z</time>
      </trkpt>
      <trkpt lat="45.06968" lon="2.65932">
        <ele>926.20001220703</ele>
        <time>2020-08-03T08:32:19.000Z</time>
      </trkpt>
      <trkpt lat="45.06969" lon="2.65952">
        <ele>926.20001220703</ele>
        <time>2020-08-03T08:32:27.000Z</time>
      </trkpt>
      <trkpt lat="45.06969" lon="2.65957">
        <ele>926.59997558594</ele>
        <time>2020-08-03T08:32:30.000Z</time>
      </trkpt>
      <trkpt lat="45.06971" lon="2.65965">
        <ele>926.59997558594</ele>
        <time>2020-08-03T08:32:34.000Z</time>
      </trkpt>
      <trkpt lat="45.06973" lon="2.65974">
        <ele>926.79998779297</ele>
        <time>2020-08-03T08:32:41.000Z</time>
      </trkpt>
      <trkpt lat="45.06976" lon="2.65984">
        <ele>925.79998779297</ele>
        <time>2020-08-03T08:32:49.000Z</time>
      </trkpt>
      <trkpt lat="45.06987" lon="2.65997">
        <ele>926</ele>
        <time>2020-08-03T08:32:57.000Z</time>
      </trkpt>
      <trkpt lat="45.06988" lon="2.65998">
        <ele>926.20001220703</ele>
        <time>2020-08-03T08:32:58.000Z</time>
      </trkpt>
      <trkpt lat="45.06995" lon="2.66006">
        <ele>926.59997558594</ele>
        <time>2020-08-03T08:33:02.000Z</time>
      </trkpt>
      <trkpt lat="45.06999" lon="2.66007">
        <ele>926.40002441406</ele>
        <time>2020-08-03T08:33:05.000Z</time>
      </trkpt>
      <trkpt lat="45.07001" lon="2.6601">
        <ele>926.59997558594</ele>
        <time>2020-08-03T08:33:07.000Z</time>
      </trkpt>
      <trkpt lat="45.07006" lon="2.66017">
        <ele>927</ele>
        <time>2020-08-03T08:33:13.000Z</time>
      </trkpt>
      <trkpt lat="45.07011" lon="2.66025">
        <ele>927.40002441406</ele>
        <time>2020-08-03T08:33:18.000Z</time>
      </trkpt>
      <trkpt lat="45.07012" lon="2.66029">
        <ele>927.79998779297</ele>
        <time>2020-08-03T08:33:20.000Z</time>
      </trkpt>
      <trkpt lat="45.07018" lon="2.66044">
        <ele>927.79998779297</ele>
        <time>2020-08-03T08:33:29.000Z</time>
      </trkpt>
      <trkpt lat="45.07012" lon="2.66044">
        <ele>928</ele>
        <time>2020-08-03T08:33:33.000Z</time>
      </trkpt>
      <trkpt lat="45.07009" lon="2.66045">
        <ele>928</ele>
        <time>2020-08-03T08:33:36.000Z</time>
      </trkpt>
      <trkpt lat="45.07009" lon="2.66047">
        <ele>927.59997558594</ele>
        <time>2020-08-03T08:33:38.000Z</time>
      </trkpt>
      <trkpt lat="45.07012" lon="2.66058">
        <ele>927.59997558594</ele>
        <time>2020-08-03T08:33:44.000Z</time>
      </trkpt>
      <trkpt lat="45.07012" lon="2.66068">
        <ele>927.20001220703</ele>
        <time>2020-08-03T08:33:50.000Z</time>
      </trkpt>
      <trkpt lat="45.07013" lon="2.66076">
        <ele>928.20001220703</ele>
        <time>2020-08-03T08:33:56.000Z</time>
      </trkpt>
      <trkpt lat="45.07013" lon="2.66078">
        <ele>928.59997558594</ele>
        <time>2020-08-03T08:33:57.000Z</time>
      </trkpt>
      <trkpt lat="45.07016" lon="2.66087">
        <ele>928.79998779297</ele>
        <time>2020-08-03T08:34:04.000Z</time>
      </trkpt>
      <trkpt lat="45.07017" lon="2.66088">
        <ele>928.79998779297</ele>
        <time>2020-08-03T08:34:05.000Z</time>
      </trkpt>
      <trkpt lat="45.07018" lon="2.66092">
        <ele>929</ele>
        <time>2020-08-03T08:34:11.000Z</time>
      </trkpt>
      <trkpt lat="45.07018" lon="2.66093">
        <ele>929</ele>
        <time>2020-08-03T08:34:12.000Z</time>
      </trkpt>
      <trkpt lat="45.07023" lon="2.66099">
        <ele>929.20001220703</ele>
        <time>2020-08-03T08:34:17.000Z</time>
      </trkpt>
      <trkpt lat="45.07028" lon="2.66099">
        <ele>929.40002441406</ele>
        <time>2020-08-03T08:34:24.000Z</time>
      </trkpt>
      <trkpt lat="45.07028" lon="2.66094">
        <ele>929.40002441406</ele>
        <time>2020-08-03T08:34:33.000Z</time>
      </trkpt>
      <trkpt lat="45.07029" lon="2.66094">
        <ele>929.59997558594</ele>
        <time>2020-08-03T08:34:34.000Z</time>
      </trkpt>
      <trkpt lat="45.07031" lon="2.66094">
        <ele>929.40002441406</ele>
        <time>2020-08-03T08:34:42.000Z</time>
      </trkpt>
      <trkpt lat="45.07032" lon="2.66097">
        <ele>929.79998779297</ele>
        <time>2020-08-03T08:34:50.000Z</time>
      </trkpt>
      <trkpt lat="45.07034" lon="2.66099">
        <ele>929.59997558594</ele>
        <time>2020-08-03T08:34:58.000Z</time>
      </trkpt>
      <trkpt lat="45.07035" lon="2.661">
        <ele>929.59997558594</ele>
        <time>2020-08-03T08:34:59.000Z</time>
      </trkpt>
      <trkpt lat="45.07039" lon="2.66104">
        <ele>930.20001220703</ele>
        <time>2020-08-03T08:35:03.000Z</time>
      </trkpt>
      <trkpt lat="45.07042" lon="2.66109">
        <ele>930.20001220703</ele>
        <time>2020-08-03T08:35:06.000Z</time>
      </trkpt>
      <trkpt lat="45.07043" lon="2.66114">
        <ele>930.20001220703</ele>
        <time>2020-08-03T08:35:09.000Z</time>
      </trkpt>
      <trkpt lat="45.07049" lon="2.66122">
        <ele>930.59997558594</ele>
        <time>2020-08-03T08:35:16.000Z</time>
      </trkpt>
      <trkpt lat="45.07044" lon="2.66121">
        <ele>930.40002441406</ele>
        <time>2020-08-03T08:35:24.000Z</time>
      </trkpt>
      <trkpt lat="45.07043" lon="2.66121">
        <ele>930.59997558594</ele>
        <time>2020-08-03T08:35:27.000Z</time>
      </trkpt>
      <trkpt lat="45.07043" lon="2.66121">
        <ele>930.79998779297</ele>
        <time>2020-08-03T08:35:32.000Z</time>
      </trkpt>
      <trkpt lat="45.07044" lon="2.6612">
        <ele>930</ele>
        <time>2020-08-03T08:35:39.000Z</time>
      </trkpt>
      <trkpt lat="45.07043" lon="2.66119">
        <ele>930</ele>
        <time>2020-08-03T08:35:45.000Z</time>
      </trkpt>
      <trkpt lat="45.07049" lon="2.66119">
        <ele>930</ele>
        <time>2020-08-03T08:35:53.000Z</time>
      </trkpt>
      <trkpt lat="45.07053" lon="2.6612">
        <ele>930</ele>
        <time>2020-08-03T08:36:03.000Z</time>
      </trkpt>
      <trkpt lat="45.07054" lon="2.66119">
        <ele>930</ele>
        <time>2020-08-03T08:36:13.000Z</time>
      </trkpt>
      <trkpt lat="45.07059" lon="2.66117">
        <ele>930</ele>
        <time>2020-08-03T08:36:20.000Z</time>
      </trkpt>
      <trkpt lat="45.07068" lon="2.66118">
        <ele>930</ele>
        <time>2020-08-03T08:36:28.000Z</time>
      </trkpt>
      <trkpt lat="45.07071" lon="2.66122">
        <ele>930</ele>
        <time>2020-08-03T08:36:36.000Z</time>
      </trkpt>
      <trkpt lat="45.07079" lon="2.66122">
        <ele>930</ele>
        <time>2020-08-03T08:36:43.000Z</time>
      </trkpt>
      <trkpt lat="45.07079" lon="2.66122">
        <ele>930</ele>
        <time>2020-08-03T08:36:52.000Z</time>
      </trkpt>
      <trkpt lat="45.07069" lon="2.66127">
        <ele>930</ele>
        <time>2020-08-03T08:37:01.000Z</time>
      </trkpt>
      <trkpt lat="45.07057" lon="2.6613">
        <ele>930</ele>
        <time>2020-08-03T08:37:09.000Z</time>
      </trkpt>
      <trkpt lat="45.07046" lon="2.66125">
        <ele>930</ele>
        <time>2020-08-03T08:37:19.000Z</time>
      </trkpt>
      <trkpt lat="45.07043" lon="2.66125">
        <ele>930</ele>
        <time>2020-08-03T08:37:28.000Z</time>
      </trkpt>
      <trkpt lat="45.07045" lon="2.66127">
        <ele>930</ele>
        <time>2020-08-03T08:37:36.000Z</time>
      </trkpt>
      <trkpt lat="45.07043" lon="2.66127">
        <ele>930</ele>
        <time>2020-08-03T08:37:45.000Z</time>
      </trkpt>
      <trkpt lat="45.07043" lon="2.66128">
        <ele>930</ele>
        <time>2020-08-03T08:37:55.000Z</time>
      </trkpt>
      <trkpt lat="45.07039" lon="2.66134">
        <ele>930</ele>
        <time>2020-08-03T08:38:02.000Z</time>
      </trkpt>
      <trkpt lat="45.07038" lon="2.66134">
        <ele>930</ele>
        <time>2020-08-03T08:38:03.000Z</time>
      </trkpt>
      <trkpt lat="45.07033" lon="2.66138">
        <ele>930.79998779297</ele>
        <time>2020-08-03T08:38:09.000Z</time>
      </trkpt>
      <trkpt lat="45.07032" lon="2.66139">
        <ele>931.79998779297</ele>
        <time>2020-08-03T08:38:12.000Z</time>
      </trkpt>
      <trkpt lat="45.07033" lon="2.66141">
        <ele>931.79998779297</ele>
        <time>2020-08-03T08:38:15.000Z</time>
      </trkpt>
      <trkpt lat="45.0703" lon="2.66141">
        <ele>931.59997558594</ele>
        <time>2020-08-03T08:38:24.000Z</time>
      </trkpt>
      <trkpt lat="45.07027" lon="2.66146">
        <ele>931.79998779297</ele>
        <time>2020-08-03T08:38:32.000Z</time>
      </trkpt>
      <trkpt lat="45.07026" lon="2.66147">
        <ele>931.79998779297</ele>
        <time>2020-08-03T08:38:40.000Z</time>
      </trkpt>
      <trkpt lat="45.07028" lon="2.66148">
        <ele>931.79998779297</ele>
        <time>2020-08-03T08:38:47.000Z</time>
      </trkpt>
      <trkpt lat="45.0703" lon="2.66153">
        <ele>931.79998779297</ele>
        <time>2020-08-03T08:38:55.000Z</time>
      </trkpt>
      <trkpt lat="45.07031" lon="2.66154">
        <ele>931.79998779297</ele>
        <time>2020-08-03T08:39:02.000Z</time>
      </trkpt>
      <trkpt lat="45.07033" lon="2.66153">
        <ele>931.79998779297</ele>
        <time>2020-08-03T08:39:07.000Z</time>
      </trkpt>
      <trkpt lat="45.07032" lon="2.66152">
        <ele>931.79998779297</ele>
        <time>2020-08-03T08:39:08.000Z</time>
      </trkpt>
      <trkpt lat="45.07033" lon="2.66146">
        <ele>931.79998779297</ele>
        <time>2020-08-03T08:39:13.000Z</time>
      </trkpt>
      <trkpt lat="45.07032" lon="2.66141">
        <ele>931.40002441406</ele>
        <time>2020-08-03T08:39:18.000Z</time>
      </trkpt>
      <trkpt lat="45.07032" lon="2.66139">
        <ele>931.59997558594</ele>
        <time>2020-08-03T08:39:24.000Z</time>
      </trkpt>
      <trkpt lat="45.07031" lon="2.66138">
        <ele>931.20001220703</ele>
        <time>2020-08-03T08:39:30.000Z</time>
      </trkpt>
      <trkpt lat="45.07033" lon="2.66138">
        <ele>931</ele>
        <time>2020-08-03T08:39:37.000Z</time>
      </trkpt>
      <trkpt lat="45.07032" lon="2.66139">
        <ele>931</ele>
        <time>2020-08-03T08:39:45.000Z</time>
      </trkpt>
      <trkpt lat="45.0703" lon="2.6614">
        <ele>931</ele>
        <time>2020-08-03T08:39:53.000Z</time>
      </trkpt>
      <trkpt lat="45.0703" lon="2.66142">
        <ele>930.59997558594</ele>
        <time>2020-08-03T08:39:56.000Z</time>
      </trkpt>
      <trkpt lat="45.07031" lon="2.66144">
        <ele>930.40002441406</ele>
        <time>2020-08-03T08:40:00.000Z</time>
      </trkpt>
      <trkpt lat="45.07031" lon="2.66145">
        <ele>930.40002441406</ele>
        <time>2020-08-03T08:40:02.000Z</time>
      </trkpt>
      <trkpt lat="45.07031" lon="2.66149">
        <ele>930.59997558594</ele>
        <time>2020-08-03T08:40:05.000Z</time>
      </trkpt>
      <trkpt lat="45.07032" lon="2.6615">
        <ele>930.59997558594</ele>
        <time>2020-08-03T08:40:06.000Z</time>
      </trkpt>
      <trkpt lat="45.07025" lon="2.66155">
        <ele>931.20001220703</ele>
        <time>2020-08-03T08:40:13.000Z</time>
      </trkpt>
      <trkpt lat="45.07017" lon="2.66164">
        <ele>931.40002441406</ele>
        <time>2020-08-03T08:40:22.000Z</time>
      </trkpt>
      <trkpt lat="45.07014" lon="2.66171">
        <ele>931.59997558594</ele>
        <time>2020-08-03T08:40:27.000Z</time>
      </trkpt>
      <trkpt lat="45.07014" lon="2.66172">
        <ele>931.79998779297</ele>
        <time>2020-08-03T08:40:28.000Z</time>
      </trkpt>
      <trkpt lat="45.07015" lon="2.66181">
        <ele>933</ele>
        <time>2020-08-03T08:40:33.000Z</time>
      </trkpt>
      <trkpt lat="45.07016" lon="2.66184">
        <ele>933.40002441406</ele>
        <time>2020-08-03T08:40:35.000Z</time>
      </trkpt>
      <trkpt lat="45.07016" lon="2.66188">
        <ele>934</ele>
        <time>2020-08-03T08:40:37.000Z</time>
      </trkpt>
      <trkpt lat="45.07016" lon="2.66197">
        <ele>934.59997558594</ele>
        <time>2020-08-03T08:40:42.000Z</time>
      </trkpt>
      <trkpt lat="45.07018" lon="2.66203">
        <ele>935</ele>
        <time>2020-08-03T08:40:45.000Z</time>
      </trkpt>
      <trkpt lat="45.07019" lon="2.66209">
        <ele>935.40002441406</ele>
        <time>2020-08-03T08:40:48.000Z</time>
      </trkpt>
      <trkpt lat="45.07019" lon="2.66211">
        <ele>935.40002441406</ele>
        <time>2020-08-03T08:40:49.000Z</time>
      </trkpt>
      <trkpt lat="45.07023" lon="2.66214">
        <ele>935.40002441406</ele>
        <time>2020-08-03T08:40:51.000Z</time>
      </trkpt>
      <trkpt lat="45.07024" lon="2.6622">
        <ele>936</ele>
        <time>2020-08-03T08:40:55.000Z</time>
      </trkpt>
      <trkpt lat="45.07024" lon="2.66222">
        <ele>936.20001220703</ele>
        <time>2020-08-03T08:40:56.000Z</time>
      </trkpt>
      <trkpt lat="45.07025" lon="2.66229">
        <ele>936.59997558594</ele>
        <time>2020-08-03T08:41:00.000Z</time>
      </trkpt>
      <trkpt lat="45.07025" lon="2.66232">
        <ele>936.59997558594</ele>
        <time>2020-08-03T08:41:02.000Z</time>
      </trkpt>
      <trkpt lat="45.07026" lon="2.6624">
        <ele>936.79998779297</ele>
        <time>2020-08-03T08:41:08.000Z</time>
      </trkpt>
      <trkpt lat="45.0703" lon="2.66247">
        <ele>937.40002441406</ele>
        <time>2020-08-03T08:41:11.000Z</time>
      </trkpt>
      <trkpt lat="45.07033" lon="2.66252">
        <ele>937.79998779297</ele>
        <time>2020-08-03T08:41:14.000Z</time>
      </trkpt>
      <trkpt lat="45.07035" lon="2.66254">
        <ele>937.79998779297</ele>
        <time>2020-08-03T08:41:15.000Z</time>
      </trkpt>
      <trkpt lat="45.07037" lon="2.66259">
        <ele>938.20001220703</ele>
        <time>2020-08-03T08:41:19.000Z</time>
      </trkpt>
      <trkpt lat="45.07039" lon="2.66263">
        <ele>938.59997558594</ele>
        <time>2020-08-03T08:41:22.000Z</time>
      </trkpt>
      <trkpt lat="45.07039" lon="2.66265">
        <ele>938.59997558594</ele>
        <time>2020-08-03T08:41:24.000Z</time>
      </trkpt>
      <trkpt lat="45.0704" lon="2.66268">
        <ele>939</ele>
        <time>2020-08-03T08:41:28.000Z</time>
      </trkpt>
      <trkpt lat="45.07042" lon="2.66272">
        <ele>939.40002441406</ele>
        <time>2020-08-03T08:41:31.000Z</time>
      </trkpt>
      <trkpt lat="45.07042" lon="2.66273">
        <ele>939.59997558594</ele>
        <time>2020-08-03T08:41:32.000Z</time>
      </trkpt>
      <trkpt lat="45.07045" lon="2.66276">
        <ele>939.40002441406</ele>
        <time>2020-08-03T08:41:36.000Z</time>
      </trkpt>
      <trkpt lat="45.07046" lon="2.66278">
        <ele>939.79998779297</ele>
        <time>2020-08-03T08:41:38.000Z</time>
      </trkpt>
      <trkpt lat="45.0705" lon="2.66283">
        <ele>940.40002441406</ele>
        <time>2020-08-03T08:41:43.000Z</time>
      </trkpt>
      <trkpt lat="45.07051" lon="2.66284">
        <ele>940.59997558594</ele>
        <time>2020-08-03T08:41:44.000Z</time>
      </trkpt>
      <trkpt lat="45.07052" lon="2.66287">
        <ele>941.20001220703</ele>
        <time>2020-08-03T08:41:47.000Z</time>
      </trkpt>
      <trkpt lat="45.07053" lon="2.66289">
        <ele>941.20001220703</ele>
        <time>2020-08-03T08:41:48.000Z</time>
      </trkpt>
      <trkpt lat="45.07054" lon="2.66292">
        <ele>941.79998779297</ele>
        <time>2020-08-03T08:41:50.000Z</time>
      </trkpt>
      <trkpt lat="45.07056" lon="2.66295">
        <ele>942.20001220703</ele>
        <time>2020-08-03T08:41:54.000Z</time>
      </trkpt>
      <trkpt lat="45.07059" lon="2.66297">
        <ele>942.79998779297</ele>
        <time>2020-08-03T08:41:57.000Z</time>
      </trkpt>
      <trkpt lat="45.07059" lon="2.66299">
        <ele>943.40002441406</ele>
        <time>2020-08-03T08:41:59.000Z</time>
      </trkpt>
      <trkpt lat="45.0706" lon="2.66302">
        <ele>943.79998779297</ele>
        <time>2020-08-03T08:42:01.000Z</time>
      </trkpt>
      <trkpt lat="45.0706" lon="2.66304">
        <ele>944</ele>
        <time>2020-08-03T08:42:02.000Z</time>
      </trkpt>
      <trkpt lat="45.07062" lon="2.66311">
        <ele>945</ele>
        <time>2020-08-03T08:42:08.000Z</time>
      </trkpt>
      <trkpt lat="45.07064" lon="2.66316">
        <ele>946</ele>
        <time>2020-08-03T08:42:12.000Z</time>
      </trkpt>
      <trkpt lat="45.07066" lon="2.66318">
        <ele>946.20001220703</ele>
        <time>2020-08-03T08:42:13.000Z</time>
      </trkpt>
      <trkpt lat="45.07067" lon="2.6632">
        <ele>946.40002441406</ele>
        <time>2020-08-03T08:42:15.000Z</time>
      </trkpt>
      <trkpt lat="45.07066" lon="2.66323">
        <ele>947</ele>
        <time>2020-08-03T08:42:18.000Z</time>
      </trkpt>
      <trkpt lat="45.07066" lon="2.66326">
        <ele>947.20001220703</ele>
        <time>2020-08-03T08:42:20.000Z</time>
      </trkpt>
      <trkpt lat="45.07066" lon="2.66327">
        <ele>947.40002441406</ele>
        <time>2020-08-03T08:42:21.000Z</time>
      </trkpt>
      <trkpt lat="45.07068" lon="2.66331">
        <ele>948.20001220703</ele>
        <time>2020-08-03T08:42:24.000Z</time>
      </trkpt>
      <trkpt lat="45.07071" lon="2.66333">
        <ele>948.20001220703</ele>
        <time>2020-08-03T08:42:26.000Z</time>
      </trkpt>
      <trkpt lat="45.07071" lon="2.66335">
        <ele>948.40002441406</ele>
        <time>2020-08-03T08:42:28.000Z</time>
      </trkpt>
      <trkpt lat="45.07073" lon="2.66347">
        <ele>948.79998779297</ele>
        <time>2020-08-03T08:42:36.000Z</time>
      </trkpt>
      <trkpt lat="45.07073" lon="2.66352">
        <ele>949.40002441406</ele>
        <time>2020-08-03T08:42:40.000Z</time>
      </trkpt>
      <trkpt lat="45.07074" lon="2.66353">
        <ele>949.79998779297</ele>
        <time>2020-08-03T08:42:41.000Z</time>
      </trkpt>
      <trkpt lat="45.07075" lon="2.66356">
        <ele>950.20001220703</ele>
        <time>2020-08-03T08:42:43.000Z</time>
      </trkpt>
      <trkpt lat="45.07077" lon="2.66358">
        <ele>950.59997558594</ele>
        <time>2020-08-03T08:42:46.000Z</time>
      </trkpt>
      <trkpt lat="45.0708" lon="2.66364">
        <ele>951.59997558594</ele>
        <time>2020-08-03T08:42:50.000Z</time>
      </trkpt>
      <trkpt lat="45.07081" lon="2.66366">
        <ele>951.59997558594</ele>
        <time>2020-08-03T08:42:51.000Z</time>
      </trkpt>
      <trkpt lat="45.07082" lon="2.66371">
        <ele>951.79998779297</ele>
        <time>2020-08-03T08:42:56.000Z</time>
      </trkpt>
      <trkpt lat="45.07081" lon="2.66371">
        <ele>952</ele>
        <time>2020-08-03T08:42:57.000Z</time>
      </trkpt>
      <trkpt lat="45.07085" lon="2.66376">
        <ele>952.79998779297</ele>
        <time>2020-08-03T08:43:03.000Z</time>
      </trkpt>
      <trkpt lat="45.07089" lon="2.66378">
        <ele>953.40002441406</ele>
        <time>2020-08-03T08:43:06.000Z</time>
      </trkpt>
      <trkpt lat="45.0709" lon="2.66382">
        <ele>954</ele>
        <time>2020-08-03T08:43:09.000Z</time>
      </trkpt>
      <trkpt lat="45.0709" lon="2.66387">
        <ele>955</ele>
        <time>2020-08-03T08:43:13.000Z</time>
      </trkpt>
      <trkpt lat="45.0709" lon="2.66389">
        <ele>955.40002441406</ele>
        <time>2020-08-03T08:43:15.000Z</time>
      </trkpt>
      <trkpt lat="45.07092" lon="2.66392">
        <ele>955.79998779297</ele>
        <time>2020-08-03T08:43:18.000Z</time>
      </trkpt>
      <trkpt lat="45.07095" lon="2.66394">
        <ele>956</ele>
        <time>2020-08-03T08:43:21.000Z</time>
      </trkpt>
      <trkpt lat="45.07096" lon="2.66395">
        <ele>956.20001220703</ele>
        <time>2020-08-03T08:43:22.000Z</time>
      </trkpt>
      <trkpt lat="45.07099" lon="2.66398">
        <ele>957</ele>
        <time>2020-08-03T08:43:25.000Z</time>
      </trkpt>
      <trkpt lat="45.07102" lon="2.66402">
        <ele>958</ele>
        <time>2020-08-03T08:43:29.000Z</time>
      </trkpt>
      <trkpt lat="45.07103" lon="2.66403">
        <ele>958.20001220703</ele>
        <time>2020-08-03T08:43:30.000Z</time>
      </trkpt>
      <trkpt lat="45.07104" lon="2.66404">
        <ele>958.59997558594</ele>
        <time>2020-08-03T08:43:32.000Z</time>
      </trkpt>
      <trkpt lat="45.07105" lon="2.66406">
        <ele>958.59997558594</ele>
        <time>2020-08-03T08:43:35.000Z</time>
      </trkpt>
      <trkpt lat="45.07107" lon="2.66409">
        <ele>959</ele>
        <time>2020-08-03T08:43:38.000Z</time>
      </trkpt>
      <trkpt lat="45.07109" lon="2.66412">
        <ele>959.20001220703</ele>
        <time>2020-08-03T08:43:40.000Z</time>
      </trkpt>
      <trkpt lat="45.07111" lon="2.66414">
        <ele>959.59997558594</ele>
        <time>2020-08-03T08:43:42.000Z</time>
      </trkpt>
      <trkpt lat="45.07114" lon="2.66417">
        <ele>960.20001220703</ele>
        <time>2020-08-03T08:43:45.000Z</time>
      </trkpt>
      <trkpt lat="45.07115" lon="2.66418">
        <ele>960.40002441406</ele>
        <time>2020-08-03T08:43:46.000Z</time>
      </trkpt>
      <trkpt lat="45.07119" lon="2.66424">
        <ele>961</ele>
        <time>2020-08-03T08:43:51.000Z</time>
      </trkpt>
      <trkpt lat="45.07123" lon="2.66426">
        <ele>961.40002441406</ele>
        <time>2020-08-03T08:43:53.000Z</time>
      </trkpt>
      <trkpt lat="45.07127" lon="2.66429">
        <ele>961.79998779297</ele>
        <time>2020-08-03T08:43:58.000Z</time>
      </trkpt>
      <trkpt lat="45.07129" lon="2.66431">
        <ele>962.40002441406</ele>
        <time>2020-08-03T08:44:03.000Z</time>
      </trkpt>
      <trkpt lat="45.0713" lon="2.66433">
        <ele>962.79998779297</ele>
        <time>2020-08-03T08:44:05.000Z</time>
      </trkpt>
      <trkpt lat="45.07131" lon="2.66436">
        <ele>963.59997558594</ele>
        <time>2020-08-03T08:44:08.000Z</time>
      </trkpt>
      <trkpt lat="45.07132" lon="2.66437">
        <ele>963.79998779297</ele>
        <time>2020-08-03T08:44:09.000Z</time>
      </trkpt>
      <trkpt lat="45.07134" lon="2.66439">
        <ele>964</ele>
        <time>2020-08-03T08:44:12.000Z</time>
      </trkpt>
      <trkpt lat="45.07134" lon="2.66439">
        <ele>964.20001220703</ele>
        <time>2020-08-03T08:44:13.000Z</time>
      </trkpt>
      <trkpt lat="45.07136" lon="2.66441">
        <ele>964.59997558594</ele>
        <time>2020-08-03T08:44:15.000Z</time>
      </trkpt>
      <trkpt lat="45.07136" lon="2.66443">
        <ele>965.20001220703</ele>
        <time>2020-08-03T08:44:17.000Z</time>
      </trkpt>
      <trkpt lat="45.07137" lon="2.66444">
        <ele>965.40002441406</ele>
        <time>2020-08-03T08:44:19.000Z</time>
      </trkpt>
      <trkpt lat="45.07138" lon="2.66444">
        <ele>965.59997558594</ele>
        <time>2020-08-03T08:44:20.000Z</time>
      </trkpt>
      <trkpt lat="45.0714" lon="2.66446">
        <ele>965.79998779297</ele>
        <time>2020-08-03T08:44:23.000Z</time>
      </trkpt>
      <trkpt lat="45.07142" lon="2.66447">
        <ele>966</ele>
        <time>2020-08-03T08:44:25.000Z</time>
      </trkpt>
      <trkpt lat="45.07145" lon="2.66453">
        <ele>966.59997558594</ele>
        <time>2020-08-03T08:44:29.000Z</time>
      </trkpt>
      <trkpt lat="45.07146" lon="2.66454">
        <ele>967.20001220703</ele>
        <time>2020-08-03T08:44:30.000Z</time>
      </trkpt>
      <trkpt lat="45.07149" lon="2.66456">
        <ele>968</ele>
        <time>2020-08-03T08:44:32.000Z</time>
      </trkpt>
      <trkpt lat="45.0715" lon="2.66457">
        <ele>968.20001220703</ele>
        <time>2020-08-03T08:44:33.000Z</time>
      </trkpt>
      <trkpt lat="45.07152" lon="2.6646">
        <ele>968.59997558594</ele>
        <time>2020-08-03T08:44:35.000Z</time>
      </trkpt>
      <trkpt lat="45.07154" lon="2.66462">
        <ele>968.79998779297</ele>
        <time>2020-08-03T08:44:37.000Z</time>
      </trkpt>
      <trkpt lat="45.07154" lon="2.66467">
        <ele>969.40002441406</ele>
        <time>2020-08-03T08:44:40.000Z</time>
      </trkpt>
      <trkpt lat="45.07154" lon="2.66469">
        <ele>969.59997558594</ele>
        <time>2020-08-03T08:44:41.000Z</time>
      </trkpt>
      <trkpt lat="45.07155" lon="2.66476">
        <ele>970.20001220703</ele>
        <time>2020-08-03T08:44:45.000Z</time>
      </trkpt>
      <trkpt lat="45.07156" lon="2.66477">
        <ele>970.40002441406</ele>
        <time>2020-08-03T08:44:46.000Z</time>
      </trkpt>
      <trkpt lat="45.07157" lon="2.66478">
        <ele>970.59997558594</ele>
        <time>2020-08-03T08:44:48.000Z</time>
      </trkpt>
      <trkpt lat="45.07158" lon="2.66484">
        <ele>971.59997558594</ele>
        <time>2020-08-03T08:44:52.000Z</time>
      </trkpt>
      <trkpt lat="45.0716" lon="2.66484">
        <ele>972</ele>
        <time>2020-08-03T08:44:53.000Z</time>
      </trkpt>
      <trkpt lat="45.07163" lon="2.66488">
        <ele>972.59997558594</ele>
        <time>2020-08-03T08:44:58.000Z</time>
      </trkpt>
      <trkpt lat="45.07164" lon="2.6649">
        <ele>972.79998779297</ele>
        <time>2020-08-03T08:45:00.000Z</time>
      </trkpt>
      <trkpt lat="45.07165" lon="2.66491">
        <ele>972.79998779297</ele>
        <time>2020-08-03T08:45:01.000Z</time>
      </trkpt>
      <trkpt lat="45.07168" lon="2.66495">
        <ele>973.79998779297</ele>
        <time>2020-08-03T08:45:05.000Z</time>
      </trkpt>
      <trkpt lat="45.07173" lon="2.66505">
        <ele>974.40002441406</ele>
        <time>2020-08-03T08:45:12.000Z</time>
      </trkpt>
      <trkpt lat="45.07175" lon="2.66508">
        <ele>974.79998779297</ele>
        <time>2020-08-03T08:45:14.000Z</time>
      </trkpt>
      <trkpt lat="45.07176" lon="2.66514">
        <ele>975.59997558594</ele>
        <time>2020-08-03T08:45:19.000Z</time>
      </trkpt>
      <trkpt lat="45.07178" lon="2.66517">
        <ele>976</ele>
        <time>2020-08-03T08:45:22.000Z</time>
      </trkpt>
      <trkpt lat="45.07181" lon="2.66521">
        <ele>976.40002441406</ele>
        <time>2020-08-03T08:45:25.000Z</time>
      </trkpt>
      <trkpt lat="45.07182" lon="2.66522">
        <ele>976.40002441406</ele>
        <time>2020-08-03T08:45:26.000Z</time>
      </trkpt>
      <trkpt lat="45.07187" lon="2.66528">
        <ele>976.20001220703</ele>
        <time>2020-08-03T08:45:31.000Z</time>
      </trkpt>
      <trkpt lat="45.07188" lon="2.66529">
        <ele>976.20001220703</ele>
        <time>2020-08-03T08:45:32.000Z</time>
      </trkpt>
      <trkpt lat="45.0719" lon="2.6653">
        <ele>976</ele>
        <time>2020-08-03T08:45:36.000Z</time>
      </trkpt>
      <trkpt lat="45.07192" lon="2.66532">
        <ele>976</ele>
        <time>2020-08-03T08:45:38.000Z</time>
      </trkpt>
      <trkpt lat="45.07197" lon="2.66535">
        <ele>976.59997558594</ele>
        <time>2020-08-03T08:45:44.000Z</time>
      </trkpt>
      <trkpt lat="45.07199" lon="2.66538">
        <ele>977</ele>
        <time>2020-08-03T08:45:47.000Z</time>
      </trkpt>
      <trkpt lat="45.07199" lon="2.6654">
        <ele>977</ele>
        <time>2020-08-03T08:45:48.000Z</time>
      </trkpt>
      <trkpt lat="45.07202" lon="2.66545">
        <ele>977.20001220703</ele>
        <time>2020-08-03T08:45:51.000Z</time>
      </trkpt>
      <trkpt lat="45.07202" lon="2.66547">
        <ele>977.20001220703</ele>
        <time>2020-08-03T08:45:52.000Z</time>
      </trkpt>
      <trkpt lat="45.07204" lon="2.66552">
        <ele>977</ele>
        <time>2020-08-03T08:45:58.000Z</time>
      </trkpt>
      <trkpt lat="45.07204" lon="2.66558">
        <ele>977.20001220703</ele>
        <time>2020-08-03T08:46:03.000Z</time>
      </trkpt>
      <trkpt lat="45.07205" lon="2.6656">
        <ele>977.40002441406</ele>
        <time>2020-08-03T08:46:05.000Z</time>
      </trkpt>
      <trkpt lat="45.07206" lon="2.66569">
        <ele>978</ele>
        <time>2020-08-03T08:46:13.000Z</time>
      </trkpt>
      <trkpt lat="45.07206" lon="2.66572">
        <ele>978.20001220703</ele>
        <time>2020-08-03T08:46:14.000Z</time>
      </trkpt>
      <trkpt lat="45.07206" lon="2.66579">
        <ele>979</ele>
        <time>2020-08-03T08:46:21.000Z</time>
      </trkpt>
      <trkpt lat="45.07206" lon="2.6658">
        <ele>979.20001220703</ele>
        <time>2020-08-03T08:46:22.000Z</time>
      </trkpt>
      <trkpt lat="45.07204" lon="2.66587">
        <ele>979.79998779297</ele>
        <time>2020-08-03T08:46:27.000Z</time>
      </trkpt>
      <trkpt lat="45.07202" lon="2.66594">
        <ele>980.40002441406</ele>
        <time>2020-08-03T08:46:32.000Z</time>
      </trkpt>
      <trkpt lat="45.07202" lon="2.66595">
        <ele>980.59997558594</ele>
        <time>2020-08-03T08:46:33.000Z</time>
      </trkpt>
      <trkpt lat="45.07201" lon="2.666">
        <ele>981.40002441406</ele>
        <time>2020-08-03T08:46:38.000Z</time>
      </trkpt>
      <trkpt lat="45.07201" lon="2.66603">
        <ele>981.79998779297</ele>
        <time>2020-08-03T08:46:40.000Z</time>
      </trkpt>
      <trkpt lat="45.07201" lon="2.66606">
        <ele>982</ele>
        <time>2020-08-03T08:46:42.000Z</time>
      </trkpt>
      <trkpt lat="45.072" lon="2.66612">
        <ele>982.59997558594</ele>
        <time>2020-08-03T08:46:46.000Z</time>
      </trkpt>
      <trkpt lat="45.07196" lon="2.66615">
        <ele>983.20001220703</ele>
        <time>2020-08-03T08:46:52.000Z</time>
      </trkpt>
      <trkpt lat="45.07194" lon="2.66618">
        <ele>983.59997558594</ele>
        <time>2020-08-03T08:46:56.000Z</time>
      </trkpt>
      <trkpt lat="45.07193" lon="2.6662">
        <ele>984</ele>
        <time>2020-08-03T08:46:59.000Z</time>
      </trkpt>
      <trkpt lat="45.07192" lon="2.66623">
        <ele>984.59997558594</ele>
        <time>2020-08-03T08:47:02.000Z</time>
      </trkpt>
      <trkpt lat="45.07191" lon="2.66626">
        <ele>985</ele>
        <time>2020-08-03T08:47:06.000Z</time>
      </trkpt>
      <trkpt lat="45.07191" lon="2.66628">
        <ele>985.20001220703</ele>
        <time>2020-08-03T08:47:07.000Z</time>
      </trkpt>
      <trkpt lat="45.07191" lon="2.66629">
        <ele>985.59997558594</ele>
        <time>2020-08-03T08:47:08.000Z</time>
      </trkpt>
      <trkpt lat="45.0719" lon="2.66632">
        <ele>986.40002441406</ele>
        <time>2020-08-03T08:47:11.000Z</time>
      </trkpt>
      <trkpt lat="45.0719" lon="2.66634">
        <ele>986.79998779297</ele>
        <time>2020-08-03T08:47:15.000Z</time>
      </trkpt>
      <trkpt lat="45.07191" lon="2.66635">
        <ele>987.59997558594</ele>
        <time>2020-08-03T08:47:18.000Z</time>
      </trkpt>
      <trkpt lat="45.07191" lon="2.66636">
        <ele>987.79998779297</ele>
        <time>2020-08-03T08:47:19.000Z</time>
      </trkpt>
      <trkpt lat="45.07193" lon="2.66635">
        <ele>988.20001220703</ele>
        <time>2020-08-03T08:47:26.000Z</time>
      </trkpt>
      <trkpt lat="45.07194" lon="2.66635">
        <ele>988.40002441406</ele>
        <time>2020-08-03T08:47:27.000Z</time>
      </trkpt>
      <trkpt lat="45.07196" lon="2.66635">
        <ele>989</ele>
        <time>2020-08-03T08:47:29.000Z</time>
      </trkpt>
      <trkpt lat="45.07196" lon="2.66635">
        <ele>989.20001220703</ele>
        <time>2020-08-03T08:47:30.000Z</time>
      </trkpt>
      <trkpt lat="45.072" lon="2.66637">
        <ele>989.79998779297</ele>
        <time>2020-08-03T08:47:33.000Z</time>
      </trkpt>
      <trkpt lat="45.07202" lon="2.66637">
        <ele>990</ele>
        <time>2020-08-03T08:47:34.000Z</time>
      </trkpt>
      <trkpt lat="45.07205" lon="2.66641">
        <ele>990.79998779297</ele>
        <time>2020-08-03T08:47:39.000Z</time>
      </trkpt>
      <trkpt lat="45.07206" lon="2.66642">
        <ele>991</ele>
        <time>2020-08-03T08:47:40.000Z</time>
      </trkpt>
      <trkpt lat="45.07207" lon="2.66643">
        <ele>991.20001220703</ele>
        <time>2020-08-03T08:47:41.000Z</time>
      </trkpt>
      <trkpt lat="45.07208" lon="2.66646">
        <ele>992</ele>
        <time>2020-08-03T08:47:45.000Z</time>
      </trkpt>
      <trkpt lat="45.07209" lon="2.66646">
        <ele>992.20001220703</ele>
        <time>2020-08-03T08:47:47.000Z</time>
      </trkpt>
      <trkpt lat="45.0721" lon="2.66647">
        <ele>992.40002441406</ele>
        <time>2020-08-03T08:47:48.000Z</time>
      </trkpt>
      <trkpt lat="45.07211" lon="2.66649">
        <ele>993.20001220703</ele>
        <time>2020-08-03T08:47:52.000Z</time>
      </trkpt>
      <trkpt lat="45.07212" lon="2.66651">
        <ele>993.59997558594</ele>
        <time>2020-08-03T08:47:56.000Z</time>
      </trkpt>
      <trkpt lat="45.07213" lon="2.66654">
        <ele>994</ele>
        <time>2020-08-03T08:47:59.000Z</time>
      </trkpt>
      <trkpt lat="45.07215" lon="2.66656">
        <ele>994.40002441406</ele>
        <time>2020-08-03T08:48:02.000Z</time>
      </trkpt>
      <trkpt lat="45.07218" lon="2.66661">
        <ele>995.20001220703</ele>
        <time>2020-08-03T08:48:06.000Z</time>
      </trkpt>
      <trkpt lat="45.07219" lon="2.66663">
        <ele>995.40002441406</ele>
        <time>2020-08-03T08:48:08.000Z</time>
      </trkpt>
      <trkpt lat="45.07219" lon="2.66664">
        <ele>995.59997558594</ele>
        <time>2020-08-03T08:48:09.000Z</time>
      </trkpt>
      <trkpt lat="45.07224" lon="2.66671">
        <ele>996.20001220703</ele>
        <time>2020-08-03T08:48:16.000Z</time>
      </trkpt>
      <trkpt lat="45.07225" lon="2.66673">
        <ele>996.40002441406</ele>
        <time>2020-08-03T08:48:19.000Z</time>
      </trkpt>
      <trkpt lat="45.07225" lon="2.66675">
        <ele>996.59997558594</ele>
        <time>2020-08-03T08:48:22.000Z</time>
      </trkpt>
      <trkpt lat="45.07227" lon="2.66677">
        <ele>997.20001220703</ele>
        <time>2020-08-03T08:48:24.000Z</time>
      </trkpt>
      <trkpt lat="45.07228" lon="2.66679">
        <ele>997.40002441406</ele>
        <time>2020-08-03T08:48:26.000Z</time>
      </trkpt>
      <trkpt lat="45.07228" lon="2.66679">
        <ele>997.59997558594</ele>
        <time>2020-08-03T08:48:27.000Z</time>
      </trkpt>
      <trkpt lat="45.07226" lon="2.66681">
        <ele>997.79998779297</ele>
        <time>2020-08-03T08:48:35.000Z</time>
      </trkpt>
      <trkpt lat="45.07228" lon="2.66687">
        <ele>998.59997558594</ele>
        <time>2020-08-03T08:48:41.000Z</time>
      </trkpt>
      <trkpt lat="45.07229" lon="2.66689">
        <ele>998.59997558594</ele>
        <time>2020-08-03T08:48:43.000Z</time>
      </trkpt>
      <trkpt lat="45.07228" lon="2.66699">
        <ele>999.59997558594</ele>
        <time>2020-08-03T08:48:49.000Z</time>
      </trkpt>
      <trkpt lat="45.07229" lon="2.66705">
        <ele>1000.799987793</ele>
        <time>2020-08-03T08:48:55.000Z</time>
      </trkpt>
      <trkpt lat="45.07229" lon="2.66708">
        <ele>1001.200012207</ele>
        <time>2020-08-03T08:48:57.000Z</time>
      </trkpt>
      <trkpt lat="45.07229" lon="2.66716">
        <ele>1002</ele>
        <time>2020-08-03T08:49:03.000Z</time>
      </trkpt>
      <trkpt lat="45.07227" lon="2.66721">
        <ele>1003.200012207</ele>
        <time>2020-08-03T08:49:09.000Z</time>
      </trkpt>
      <trkpt lat="45.07227" lon="2.66722">
        <ele>1003.200012207</ele>
        <time>2020-08-03T08:49:10.000Z</time>
      </trkpt>
      <trkpt lat="45.07227" lon="2.66725">
        <ele>1004.200012207</ele>
        <time>2020-08-03T08:49:15.000Z</time>
      </trkpt>
      <trkpt lat="45.0723" lon="2.6673">
        <ele>1005</ele>
        <time>2020-08-03T08:49:22.000Z</time>
      </trkpt>
      <trkpt lat="45.0723" lon="2.66732">
        <ele>1005.4000244141</ele>
        <time>2020-08-03T08:49:24.000Z</time>
      </trkpt>
      <trkpt lat="45.07228" lon="2.66735">
        <ele>1006.4000244141</ele>
        <time>2020-08-03T08:49:29.000Z</time>
      </trkpt>
      <trkpt lat="45.07228" lon="2.6674">
        <ele>1007</ele>
        <time>2020-08-03T08:49:35.000Z</time>
      </trkpt>
      <trkpt lat="45.07228" lon="2.66741">
        <ele>1007.4000244141</ele>
        <time>2020-08-03T08:49:36.000Z</time>
      </trkpt>
      <trkpt lat="45.07229" lon="2.66742">
        <ele>1008.5999755859</ele>
        <time>2020-08-03T08:49:39.000Z</time>
      </trkpt>
      <trkpt lat="45.07231" lon="2.66744">
        <ele>1008.799987793</ele>
        <time>2020-08-03T08:49:42.000Z</time>
      </trkpt>
      <trkpt lat="45.07232" lon="2.66745">
        <ele>1008.799987793</ele>
        <time>2020-08-03T08:49:43.000Z</time>
      </trkpt>
      <trkpt lat="45.07235" lon="2.66747">
        <ele>1009.4000244141</ele>
        <time>2020-08-03T08:49:48.000Z</time>
      </trkpt>
      <trkpt lat="45.07234" lon="2.66748">
        <ele>1009.5999755859</ele>
        <time>2020-08-03T08:49:49.000Z</time>
      </trkpt>
      <trkpt lat="45.07237" lon="2.66754">
        <ele>1010.5999755859</ele>
        <time>2020-08-03T08:49:57.000Z</time>
      </trkpt>
      <trkpt lat="45.07239" lon="2.66755">
        <ele>1011.5999755859</ele>
        <time>2020-08-03T08:50:02.000Z</time>
      </trkpt>
      <trkpt lat="45.07242" lon="2.66759">
        <ele>1012.799987793</ele>
        <time>2020-08-03T08:50:08.000Z</time>
      </trkpt>
      <trkpt lat="45.07244" lon="2.6676">
        <ele>1013.200012207</ele>
        <time>2020-08-03T08:50:10.000Z</time>
      </trkpt>
      <trkpt lat="45.07246" lon="2.66763">
        <ele>1013.5999755859</ele>
        <time>2020-08-03T08:50:14.000Z</time>
      </trkpt>
      <trkpt lat="45.07247" lon="2.66765">
        <ele>1013.799987793</ele>
        <time>2020-08-03T08:50:18.000Z</time>
      </trkpt>
      <trkpt lat="45.07248" lon="2.66767">
        <ele>1014.4000244141</ele>
        <time>2020-08-03T08:50:21.000Z</time>
      </trkpt>
      <trkpt lat="45.07249" lon="2.66767">
        <ele>1015</ele>
        <time>2020-08-03T08:50:23.000Z</time>
      </trkpt>
      <trkpt lat="45.0725" lon="2.6677">
        <ele>1016</ele>
        <time>2020-08-03T08:50:27.000Z</time>
      </trkpt>
      <trkpt lat="45.07253" lon="2.66773">
        <ele>1016.5999755859</ele>
        <time>2020-08-03T08:50:33.000Z</time>
      </trkpt>
      <trkpt lat="45.07254" lon="2.66775">
        <ele>1017.200012207</ele>
        <time>2020-08-03T08:50:35.000Z</time>
      </trkpt>
      <trkpt lat="45.07256" lon="2.66777">
        <ele>1017.5999755859</ele>
        <time>2020-08-03T08:50:40.000Z</time>
      </trkpt>
      <trkpt lat="45.07257" lon="2.66778">
        <ele>1018.200012207</ele>
        <time>2020-08-03T08:50:43.000Z</time>
      </trkpt>
      <trkpt lat="45.07258" lon="2.66779">
        <ele>1018.4000244141</ele>
        <time>2020-08-03T08:50:46.000Z</time>
      </trkpt>
      <trkpt lat="45.07262" lon="2.66782">
        <ele>1019.200012207</ele>
        <time>2020-08-03T08:50:54.000Z</time>
      </trkpt>
      <trkpt lat="45.07265" lon="2.66786">
        <ele>1019.4000244141</ele>
        <time>2020-08-03T08:50:57.000Z</time>
      </trkpt>
      <trkpt lat="45.07268" lon="2.66789">
        <ele>1020.200012207</ele>
        <time>2020-08-03T08:51:01.000Z</time>
      </trkpt>
      <trkpt lat="45.07269" lon="2.6679">
        <ele>1020.4000244141</ele>
        <time>2020-08-03T08:51:02.000Z</time>
      </trkpt>
      <trkpt lat="45.07269" lon="2.66791">
        <ele>1020.4000244141</ele>
        <time>2020-08-03T08:51:03.000Z</time>
      </trkpt>
      <trkpt lat="45.07272" lon="2.66797">
        <ele>1021.4000244141</ele>
        <time>2020-08-03T08:51:09.000Z</time>
      </trkpt>
      <trkpt lat="45.07273" lon="2.66797">
        <ele>1021.4000244141</ele>
        <time>2020-08-03T08:51:10.000Z</time>
      </trkpt>
      <trkpt lat="45.07274" lon="2.66803">
        <ele>1022</ele>
        <time>2020-08-03T08:51:16.000Z</time>
      </trkpt>
      <trkpt lat="45.07274" lon="2.66807">
        <ele>1022</ele>
        <time>2020-08-03T08:51:22.000Z</time>
      </trkpt>
      <trkpt lat="45.07273" lon="2.66805">
        <ele>1022.4000244141</ele>
        <time>2020-08-03T08:51:32.000Z</time>
      </trkpt>
      <trkpt lat="45.07273" lon="2.66804">
        <ele>1022.5999755859</ele>
        <time>2020-08-03T08:51:38.000Z</time>
      </trkpt>
      <trkpt lat="45.07272" lon="2.66805">
        <ele>1022.799987793</ele>
        <time>2020-08-03T08:51:39.000Z</time>
      </trkpt>
      <trkpt lat="45.07271" lon="2.66809">
        <ele>1022.799987793</ele>
        <time>2020-08-03T08:51:41.000Z</time>
      </trkpt>
      <trkpt lat="45.0727" lon="2.66813">
        <ele>1023</ele>
        <time>2020-08-03T08:51:44.000Z</time>
      </trkpt>
      <trkpt lat="45.07271" lon="2.66819">
        <ele>1023.4000244141</ele>
        <time>2020-08-03T08:51:47.000Z</time>
      </trkpt>
      <trkpt lat="45.07272" lon="2.66829">
        <ele>1023</ele>
        <time>2020-08-03T08:51:53.000Z</time>
      </trkpt>
      <trkpt lat="45.07272" lon="2.66839">
        <ele>1023.5999755859</ele>
        <time>2020-08-03T08:51:58.000Z</time>
      </trkpt>
      <trkpt lat="45.07272" lon="2.66842">
        <ele>1023.5999755859</ele>
        <time>2020-08-03T08:52:00.000Z</time>
      </trkpt>
      <trkpt lat="45.07275" lon="2.6685">
        <ele>1024.1999511719</ele>
        <time>2020-08-03T08:52:07.000Z</time>
      </trkpt>
      <trkpt lat="45.0728" lon="2.66853">
        <ele>1024.5999755859</ele>
        <time>2020-08-03T08:52:13.000Z</time>
      </trkpt>
      <trkpt lat="45.07281" lon="2.66853">
        <ele>1024.8000488281</ele>
        <time>2020-08-03T08:52:14.000Z</time>
      </trkpt>
      <trkpt lat="45.07283" lon="2.66856">
        <ele>1025.5999755859</ele>
        <time>2020-08-03T08:52:18.000Z</time>
      </trkpt>
      <trkpt lat="45.07284" lon="2.66857">
        <ele>1026</ele>
        <time>2020-08-03T08:52:19.000Z</time>
      </trkpt>
      <trkpt lat="45.07284" lon="2.66857">
        <ele>1026</ele>
        <time>2020-08-03T08:52:20.000Z</time>
      </trkpt>
      <trkpt lat="45.07287" lon="2.66864">
        <ele>1027</ele>
        <time>2020-08-03T08:52:26.000Z</time>
      </trkpt>
      <trkpt lat="45.07288" lon="2.66866">
        <ele>1027</ele>
        <time>2020-08-03T08:52:27.000Z</time>
      </trkpt>
      <trkpt lat="45.07288" lon="2.66871">
        <ele>1026.5999755859</ele>
        <time>2020-08-03T08:52:33.000Z</time>
      </trkpt>
      <trkpt lat="45.07293" lon="2.66875">
        <ele>1026.5999755859</ele>
        <time>2020-08-03T08:52:40.000Z</time>
      </trkpt>
      <trkpt lat="45.07295" lon="2.66875">
        <ele>1026.5999755859</ele>
        <time>2020-08-03T08:52:41.000Z</time>
      </trkpt>
      <trkpt lat="45.07297" lon="2.66876">
        <ele>1026.5999755859</ele>
        <time>2020-08-03T08:52:43.000Z</time>
      </trkpt>
      <trkpt lat="45.07303" lon="2.66878">
        <ele>1027.1999511719</ele>
        <time>2020-08-03T08:52:48.000Z</time>
      </trkpt>
      <trkpt lat="45.0731" lon="2.66883">
        <ele>1027.4000244141</ele>
        <time>2020-08-03T08:52:55.000Z</time>
      </trkpt>
      <trkpt lat="45.0731" lon="2.66884">
        <ele>1027.5999755859</ele>
        <time>2020-08-03T08:52:56.000Z</time>
      </trkpt>
      <trkpt lat="45.07314" lon="2.66886">
        <ele>1028</ele>
        <time>2020-08-03T08:53:00.000Z</time>
      </trkpt>
      <trkpt lat="45.07315" lon="2.66887">
        <ele>1028</ele>
        <time>2020-08-03T08:53:02.000Z</time>
      </trkpt>
      <trkpt lat="45.0732" lon="2.66892">
        <ele>1028.4000244141</ele>
        <time>2020-08-03T08:53:09.000Z</time>
      </trkpt>
      <trkpt lat="45.07326" lon="2.66903">
        <ele>1028.5999755859</ele>
        <time>2020-08-03T08:53:16.000Z</time>
      </trkpt>
      <trkpt lat="45.07331" lon="2.66911">
        <ele>1029</ele>
        <time>2020-08-03T08:53:23.000Z</time>
      </trkpt>
      <trkpt lat="45.07331" lon="2.66912">
        <ele>1029</ele>
        <time>2020-08-03T08:53:24.000Z</time>
      </trkpt>
      <trkpt lat="45.07333" lon="2.66923">
        <ele>1029.1999511719</ele>
        <time>2020-08-03T08:53:31.000Z</time>
      </trkpt>
      <trkpt lat="45.07328" lon="2.66932">
        <ele>1029.1999511719</ele>
        <time>2020-08-03T08:53:38.000Z</time>
      </trkpt>
      <trkpt lat="45.07329" lon="2.66932">
        <ele>1029.4000244141</ele>
        <time>2020-08-03T08:53:46.000Z</time>
      </trkpt>
      <trkpt lat="45.0733" lon="2.66932">
        <ele>1029</ele>
        <time>2020-08-03T08:53:54.000Z</time>
      </trkpt>
      <trkpt lat="45.07334" lon="2.66931">
        <ele>1028.5999755859</ele>
        <time>2020-08-03T08:54:02.000Z</time>
      </trkpt>
      <trkpt lat="45.07338" lon="2.66929">
        <ele>1028.8000488281</ele>
        <time>2020-08-03T08:54:13.000Z</time>
      </trkpt>
      <trkpt lat="45.07337" lon="2.66927">
        <ele>1029.4000244141</ele>
        <time>2020-08-03T08:54:21.000Z</time>
      </trkpt>
      <trkpt lat="45.07336" lon="2.66927">
        <ele>1029.4000244141</ele>
        <time>2020-08-03T08:54:30.000Z</time>
      </trkpt>
      <trkpt lat="45.07335" lon="2.66928">
        <ele>1029.8000488281</ele>
        <time>2020-08-03T08:54:40.000Z</time>
      </trkpt>
      <trkpt lat="45.07334" lon="2.66929">
        <ele>1029.8000488281</ele>
        <time>2020-08-03T08:54:41.000Z</time>
      </trkpt>
      <trkpt lat="45.07329" lon="2.66935">
        <ele>1030</ele>
        <time>2020-08-03T08:54:45.000Z</time>
      </trkpt>
      <trkpt lat="45.07329" lon="2.66937">
        <ele>1030.1999511719</ele>
        <time>2020-08-03T08:54:46.000Z</time>
      </trkpt>
      <trkpt lat="45.07326" lon="2.66946">
        <ele>1030.4000244141</ele>
        <time>2020-08-03T08:54:51.000Z</time>
      </trkpt>
      <trkpt lat="45.0732" lon="2.66959">
        <ele>1031</ele>
        <time>2020-08-03T08:54:59.000Z</time>
      </trkpt>
      <trkpt lat="45.07315" lon="2.66972">
        <ele>1031</ele>
        <time>2020-08-03T08:55:06.000Z</time>
      </trkpt>
      <trkpt lat="45.07313" lon="2.66975">
        <ele>1031</ele>
        <time>2020-08-03T08:55:11.000Z</time>
      </trkpt>
      <trkpt lat="45.07313" lon="2.66973">
        <ele>1031.1999511719</ele>
        <time>2020-08-03T08:55:13.000Z</time>
      </trkpt>
      <trkpt lat="45.0731" lon="2.66972">
        <ele>1031</ele>
        <time>2020-08-03T08:55:21.000Z</time>
      </trkpt>
      <trkpt lat="45.07313" lon="2.66972">
        <ele>1031.1999511719</ele>
        <time>2020-08-03T08:55:27.000Z</time>
      </trkpt>
      <trkpt lat="45.07316" lon="2.66972">
        <ele>1031</ele>
        <time>2020-08-03T08:55:34.000Z</time>
      </trkpt>
      <trkpt lat="45.07316" lon="2.66974">
        <ele>1031</ele>
        <time>2020-08-03T08:55:36.000Z</time>
      </trkpt>
      <trkpt lat="45.07315" lon="2.6698">
        <ele>1031.1999511719</ele>
        <time>2020-08-03T08:55:39.000Z</time>
      </trkpt>
      <trkpt lat="45.07313" lon="2.66991">
        <ele>1031.4000244141</ele>
        <time>2020-08-03T08:55:47.000Z</time>
      </trkpt>
      <trkpt lat="45.0731" lon="2.67001">
        <ele>1032</ele>
        <time>2020-08-03T08:55:53.000Z</time>
      </trkpt>
      <trkpt lat="45.07307" lon="2.67006">
        <ele>1032</ele>
        <time>2020-08-03T08:55:58.000Z</time>
      </trkpt>
      <trkpt lat="45.07304" lon="2.67008">
        <ele>1032.1999511719</ele>
        <time>2020-08-03T08:55:59.000Z</time>
      </trkpt>
      <trkpt lat="45.07304" lon="2.67008">
        <ele>1032.1999511719</ele>
        <time>2020-08-03T08:56:00.000Z</time>
      </trkpt>
      <trkpt lat="45.07301" lon="2.67016">
        <ele>1033.1999511719</ele>
        <time>2020-08-03T08:56:07.000Z</time>
      </trkpt>
      <trkpt lat="45.07301" lon="2.67017">
        <ele>1033.4000244141</ele>
        <time>2020-08-03T08:56:08.000Z</time>
      </trkpt>
      <trkpt lat="45.073" lon="2.67026">
        <ele>1034</ele>
        <time>2020-08-03T08:56:14.000Z</time>
      </trkpt>
      <trkpt lat="45.07297" lon="2.67036">
        <ele>1034.1999511719</ele>
        <time>2020-08-03T08:56:21.000Z</time>
      </trkpt>
      <trkpt lat="45.07296" lon="2.6704">
        <ele>1034.4000244141</ele>
        <time>2020-08-03T08:56:23.000Z</time>
      </trkpt>
      <trkpt lat="45.07295" lon="2.67048">
        <ele>1035</ele>
        <time>2020-08-03T08:56:28.000Z</time>
      </trkpt>
      <trkpt lat="45.07293" lon="2.67053">
        <ele>1035.5999755859</ele>
        <time>2020-08-03T08:56:32.000Z</time>
      </trkpt>
      <trkpt lat="45.07293" lon="2.67055">
        <ele>1035.8000488281</ele>
        <time>2020-08-03T08:56:33.000Z</time>
      </trkpt>
      <trkpt lat="45.07293" lon="2.67057">
        <ele>1036</ele>
        <time>2020-08-03T08:56:34.000Z</time>
      </trkpt>
      <trkpt lat="45.07292" lon="2.6706">
        <ele>1036.1999511719</ele>
        <time>2020-08-03T08:56:37.000Z</time>
      </trkpt>
      <trkpt lat="45.07292" lon="2.67063">
        <ele>1036.1999511719</ele>
        <time>2020-08-03T08:56:39.000Z</time>
      </trkpt>
      <trkpt lat="45.07294" lon="2.67066">
        <ele>1036.1999511719</ele>
        <time>2020-08-03T08:56:45.000Z</time>
      </trkpt>
      <trkpt lat="45.07292" lon="2.67068">
        <ele>1036.4000244141</ele>
        <time>2020-08-03T08:56:49.000Z</time>
      </trkpt>
      <trkpt lat="45.07292" lon="2.67069">
        <ele>1036.8000488281</ele>
        <time>2020-08-03T08:56:50.000Z</time>
      </trkpt>
      <trkpt lat="45.07292" lon="2.6707">
        <ele>1037</ele>
        <time>2020-08-03T08:56:51.000Z</time>
      </trkpt>
      <trkpt lat="45.07287" lon="2.67075">
        <ele>1037.4000244141</ele>
        <time>2020-08-03T08:56:56.000Z</time>
      </trkpt>
      <trkpt lat="45.07287" lon="2.67077">
        <ele>1037.5999755859</ele>
        <time>2020-08-03T08:56:57.000Z</time>
      </trkpt>
      <trkpt lat="45.07286" lon="2.6708">
        <ele>1037.5999755859</ele>
        <time>2020-08-03T08:56:59.000Z</time>
      </trkpt>
      <trkpt lat="45.07286" lon="2.67084">
        <ele>1037.8000488281</ele>
        <time>2020-08-03T08:57:02.000Z</time>
      </trkpt>
      <trkpt lat="45.07287" lon="2.67089">
        <ele>1038.1999511719</ele>
        <time>2020-08-03T08:57:06.000Z</time>
      </trkpt>
      <trkpt lat="45.07287" lon="2.67092">
        <ele>1038.1999511719</ele>
        <time>2020-08-03T08:57:08.000Z</time>
      </trkpt>
      <trkpt lat="45.07287" lon="2.67095">
        <ele>1038.5999755859</ele>
        <time>2020-08-03T08:57:11.000Z</time>
      </trkpt>
      <trkpt lat="45.07286" lon="2.67096">
        <ele>1038.8000488281</ele>
        <time>2020-08-03T08:57:12.000Z</time>
      </trkpt>
      <trkpt lat="45.07285" lon="2.67098">
        <ele>1039.1999511719</ele>
        <time>2020-08-03T08:57:14.000Z</time>
      </trkpt>
      <trkpt lat="45.07285" lon="2.67102">
        <ele>1039.8000488281</ele>
        <time>2020-08-03T08:57:17.000Z</time>
      </trkpt>
      <trkpt lat="45.07285" lon="2.67104">
        <ele>1040</ele>
        <time>2020-08-03T08:57:18.000Z</time>
      </trkpt>
      <trkpt lat="45.07286" lon="2.67105">
        <ele>1040.4000244141</ele>
        <time>2020-08-03T08:57:20.000Z</time>
      </trkpt>
      <trkpt lat="45.07286" lon="2.67112">
        <ele>1041.4000244141</ele>
        <time>2020-08-03T08:57:25.000Z</time>
      </trkpt>
      <trkpt lat="45.07285" lon="2.67114">
        <ele>1041.5999755859</ele>
        <time>2020-08-03T08:57:27.000Z</time>
      </trkpt>
      <trkpt lat="45.07284" lon="2.67119">
        <ele>1042.4000244141</ele>
        <time>2020-08-03T08:57:33.000Z</time>
      </trkpt>
      <trkpt lat="45.07284" lon="2.6712">
        <ele>1042.5999755859</ele>
        <time>2020-08-03T08:57:34.000Z</time>
      </trkpt>
      <trkpt lat="45.07284" lon="2.67122">
        <ele>1042.8000488281</ele>
        <time>2020-08-03T08:57:35.000Z</time>
      </trkpt>
      <trkpt lat="45.07283" lon="2.67125">
        <ele>1043.4000244141</ele>
        <time>2020-08-03T08:57:38.000Z</time>
      </trkpt>
      <trkpt lat="45.07282" lon="2.67126">
        <ele>1043.8000488281</ele>
        <time>2020-08-03T08:57:40.000Z</time>
      </trkpt>
      <trkpt lat="45.0728" lon="2.67128">
        <ele>1044.4000244141</ele>
        <time>2020-08-03T08:57:44.000Z</time>
      </trkpt>
      <trkpt lat="45.07279" lon="2.67129">
        <ele>1044.5999755859</ele>
        <time>2020-08-03T08:57:47.000Z</time>
      </trkpt>
      <trkpt lat="45.07278" lon="2.6713">
        <ele>1044.1999511719</ele>
        <time>2020-08-03T08:57:54.000Z</time>
      </trkpt>
      <trkpt lat="45.07269" lon="2.6714">
        <ele>1043.8000488281</ele>
        <time>2020-08-03T08:58:01.000Z</time>
      </trkpt>
      <trkpt lat="45.0727" lon="2.67141">
        <ele>1044</ele>
        <time>2020-08-03T08:58:10.000Z</time>
      </trkpt>
      <trkpt lat="45.07267" lon="2.67138">
        <ele>1044.8000488281</ele>
        <time>2020-08-03T08:58:15.000Z</time>
      </trkpt>
      <trkpt lat="45.07266" lon="2.67135">
        <ele>1045</ele>
        <time>2020-08-03T08:58:17.000Z</time>
      </trkpt>
      <trkpt lat="45.07266" lon="2.67133">
        <ele>1045.5999755859</ele>
        <time>2020-08-03T08:58:19.000Z</time>
      </trkpt>
      <trkpt lat="45.07264" lon="2.67128">
        <ele>1046</ele>
        <time>2020-08-03T08:58:24.000Z</time>
      </trkpt>
      <trkpt lat="45.07264" lon="2.67126">
        <ele>1046.1999511719</ele>
        <time>2020-08-03T08:58:25.000Z</time>
      </trkpt>
      <trkpt lat="45.07262" lon="2.67121">
        <ele>1046.5999755859</ele>
        <time>2020-08-03T08:58:29.000Z</time>
      </trkpt>
      <trkpt lat="45.07261" lon="2.6712">
        <ele>1046.8000488281</ele>
        <time>2020-08-03T08:58:30.000Z</time>
      </trkpt>
      <trkpt lat="45.07259" lon="2.67117">
        <ele>1047.5999755859</ele>
        <time>2020-08-03T08:58:34.000Z</time>
      </trkpt>
      <trkpt lat="45.07257" lon="2.67117">
        <ele>1048</ele>
        <time>2020-08-03T08:58:37.000Z</time>
      </trkpt>
      <trkpt lat="45.07252" lon="2.67117">
        <ele>1048.4000244141</ele>
        <time>2020-08-03T08:58:42.000Z</time>
      </trkpt>
      <trkpt lat="45.07251" lon="2.67117">
        <ele>1048.5999755859</ele>
        <time>2020-08-03T08:58:43.000Z</time>
      </trkpt>
      <trkpt lat="45.07248" lon="2.67118">
        <ele>1049.1999511719</ele>
        <time>2020-08-03T08:58:48.000Z</time>
      </trkpt>
      <trkpt lat="45.07246" lon="2.67118">
        <ele>1049.8000488281</ele>
        <time>2020-08-03T08:58:51.000Z</time>
      </trkpt>
      <trkpt lat="45.07244" lon="2.67117">
        <ele>1049.8000488281</ele>
        <time>2020-08-03T08:58:55.000Z</time>
      </trkpt>
      <trkpt lat="45.07242" lon="2.67117">
        <ele>1050.4000244141</ele>
        <time>2020-08-03T08:58:59.000Z</time>
      </trkpt>
      <trkpt lat="45.07241" lon="2.67117">
        <ele>1050.8000488281</ele>
        <time>2020-08-03T08:59:01.000Z</time>
      </trkpt>
      <trkpt lat="45.0723" lon="2.67114">
        <ele>1051.8000488281</ele>
        <time>2020-08-03T08:59:08.000Z</time>
      </trkpt>
      <trkpt lat="45.07229" lon="2.67114">
        <ele>1051.8000488281</ele>
        <time>2020-08-03T08:59:09.000Z</time>
      </trkpt>
      <trkpt lat="45.07225" lon="2.67114">
        <ele>1052.5999755859</ele>
        <time>2020-08-03T08:59:14.000Z</time>
      </trkpt>
      <trkpt lat="45.07223" lon="2.67115">
        <ele>1053</ele>
        <time>2020-08-03T08:59:17.000Z</time>
      </trkpt>
      <trkpt lat="45.07221" lon="2.67115">
        <ele>1053.4000244141</ele>
        <time>2020-08-03T08:59:20.000Z</time>
      </trkpt>
      <trkpt lat="45.0722" lon="2.67115">
        <ele>1053.5999755859</ele>
        <time>2020-08-03T08:59:21.000Z</time>
      </trkpt>
      <trkpt lat="45.07219" lon="2.67116">
        <ele>1054</ele>
        <time>2020-08-03T08:59:23.000Z</time>
      </trkpt>
      <trkpt lat="45.07217" lon="2.67118">
        <ele>1054.5999755859</ele>
        <time>2020-08-03T08:59:28.000Z</time>
      </trkpt>
      <trkpt lat="45.07216" lon="2.67119">
        <ele>1054.8000488281</ele>
        <time>2020-08-03T08:59:29.000Z</time>
      </trkpt>
      <trkpt lat="45.07214" lon="2.6712">
        <ele>1054.8000488281</ele>
        <time>2020-08-03T08:59:32.000Z</time>
      </trkpt>
      <trkpt lat="45.07213" lon="2.67121">
        <ele>1055</ele>
        <time>2020-08-03T08:59:34.000Z</time>
      </trkpt>
      <trkpt lat="45.07212" lon="2.67122">
        <ele>1055</ele>
        <time>2020-08-03T08:59:35.000Z</time>
      </trkpt>
      <trkpt lat="45.07211" lon="2.67125">
        <ele>1056</ele>
        <time>2020-08-03T08:59:39.000Z</time>
      </trkpt>
      <trkpt lat="45.07211" lon="2.67126">
        <ele>1056.1999511719</ele>
        <time>2020-08-03T08:59:40.000Z</time>
      </trkpt>
      <trkpt lat="45.07211" lon="2.67128">
        <ele>1056.4000244141</ele>
        <time>2020-08-03T08:59:42.000Z</time>
      </trkpt>
      <trkpt lat="45.0721" lon="2.67133">
        <ele>1057.1999511719</ele>
        <time>2020-08-03T08:59:46.000Z</time>
      </trkpt>
      <trkpt lat="45.07211" lon="2.67135">
        <ele>1057.1999511719</ele>
        <time>2020-08-03T08:59:49.000Z</time>
      </trkpt>
      <trkpt lat="45.07214" lon="2.67138">
        <ele>1057.8000488281</ele>
        <time>2020-08-03T08:59:56.000Z</time>
      </trkpt>
      <trkpt lat="45.07215" lon="2.67139">
        <ele>1058.1999511719</ele>
        <time>2020-08-03T08:59:58.000Z</time>
      </trkpt>
      <trkpt lat="45.07217" lon="2.67142">
        <ele>1058.8000488281</ele>
        <time>2020-08-03T09:00:03.000Z</time>
      </trkpt>
      <trkpt lat="45.07221" lon="2.67145">
        <ele>1059.4000244141</ele>
        <time>2020-08-03T09:00:08.000Z</time>
      </trkpt>
      <trkpt lat="45.07223" lon="2.67146">
        <ele>1059.5999755859</ele>
        <time>2020-08-03T09:00:10.000Z</time>
      </trkpt>
      <trkpt lat="45.07223" lon="2.67147">
        <ele>1059.5999755859</ele>
        <time>2020-08-03T09:00:11.000Z</time>
      </trkpt>
      <trkpt lat="45.07228" lon="2.67151">
        <ele>1060.4000244141</ele>
        <time>2020-08-03T09:00:17.000Z</time>
      </trkpt>
      <trkpt lat="45.07228" lon="2.67153">
        <ele>1060.5999755859</ele>
        <time>2020-08-03T09:00:19.000Z</time>
      </trkpt>
      <trkpt lat="45.07229" lon="2.67153">
        <ele>1060.5999755859</ele>
        <time>2020-08-03T09:00:20.000Z</time>
      </trkpt>
      <trkpt lat="45.07229" lon="2.67155">
        <ele>1061</ele>
        <time>2020-08-03T09:00:22.000Z</time>
      </trkpt>
      <trkpt lat="45.07229" lon="2.67158">
        <ele>1061.5999755859</ele>
        <time>2020-08-03T09:00:24.000Z</time>
      </trkpt>
      <trkpt lat="45.07228" lon="2.67159">
        <ele>1061.8000488281</ele>
        <time>2020-08-03T09:00:25.000Z</time>
      </trkpt>
      <trkpt lat="45.07228" lon="2.67165">
        <ele>1062.4000244141</ele>
        <time>2020-08-03T09:00:31.000Z</time>
      </trkpt>
      <trkpt lat="45.07228" lon="2.67168">
        <ele>1062.5999755859</ele>
        <time>2020-08-03T09:00:34.000Z</time>
      </trkpt>
      <trkpt lat="45.07229" lon="2.67171">
        <ele>1063.4000244141</ele>
        <time>2020-08-03T09:00:37.000Z</time>
      </trkpt>
      <trkpt lat="45.07229" lon="2.67175">
        <ele>1063.5999755859</ele>
        <time>2020-08-03T09:00:40.000Z</time>
      </trkpt>
      <trkpt lat="45.07228" lon="2.67178">
        <ele>1063.5999755859</ele>
        <time>2020-08-03T09:00:43.000Z</time>
      </trkpt>
      <trkpt lat="45.07228" lon="2.67179">
        <ele>1063.5999755859</ele>
        <time>2020-08-03T09:00:44.000Z</time>
      </trkpt>
      <trkpt lat="45.07228" lon="2.6718">
        <ele>1063.5999755859</ele>
        <time>2020-08-03T09:00:46.000Z</time>
      </trkpt>
      <trkpt lat="45.07228" lon="2.67182">
        <ele>1064</ele>
        <time>2020-08-03T09:00:48.000Z</time>
      </trkpt>
      <trkpt lat="45.07228" lon="2.67184">
        <ele>1064</ele>
        <time>2020-08-03T09:00:50.000Z</time>
      </trkpt>
      <trkpt lat="45.07229" lon="2.67188">
        <ele>1064.4000244141</ele>
        <time>2020-08-03T09:00:53.000Z</time>
      </trkpt>
      <trkpt lat="45.07228" lon="2.67189">
        <ele>1064.8000488281</ele>
        <time>2020-08-03T09:00:56.000Z</time>
      </trkpt>
      <trkpt lat="45.07227" lon="2.6719">
        <ele>1065</ele>
        <time>2020-08-03T09:00:57.000Z</time>
      </trkpt>
      <trkpt lat="45.07227" lon="2.67192">
        <ele>1065</ele>
        <time>2020-08-03T09:00:58.000Z</time>
      </trkpt>
      <trkpt lat="45.07225" lon="2.67196">
        <ele>1065.8000488281</ele>
        <time>2020-08-03T09:01:02.000Z</time>
      </trkpt>
      <trkpt lat="45.07225" lon="2.67197">
        <ele>1066</ele>
        <time>2020-08-03T09:01:03.000Z</time>
      </trkpt>
      <trkpt lat="45.07226" lon="2.67202">
        <ele>1066.4000244141</ele>
        <time>2020-08-03T09:01:09.000Z</time>
      </trkpt>
      <trkpt lat="45.07226" lon="2.67206">
        <ele>1066.8000488281</ele>
        <time>2020-08-03T09:01:12.000Z</time>
      </trkpt>
      <trkpt lat="45.07227" lon="2.67209">
        <ele>1067.1999511719</ele>
        <time>2020-08-03T09:01:16.000Z</time>
      </trkpt>
      <trkpt lat="45.07228" lon="2.67214">
        <ele>1067.4000244141</ele>
        <time>2020-08-03T09:01:20.000Z</time>
      </trkpt>
      <trkpt lat="45.07228" lon="2.67216">
        <ele>1067.8000488281</ele>
        <time>2020-08-03T09:01:22.000Z</time>
      </trkpt>
      <trkpt lat="45.07229" lon="2.67219">
        <ele>1068.4000244141</ele>
        <time>2020-08-03T09:01:25.000Z</time>
      </trkpt>
      <trkpt lat="45.0723" lon="2.67222">
        <ele>1068.5999755859</ele>
        <time>2020-08-03T09:01:28.000Z</time>
      </trkpt>
      <trkpt lat="45.0723" lon="2.67227">
        <ele>1069</ele>
        <time>2020-08-03T09:01:32.000Z</time>
      </trkpt>
      <trkpt lat="45.07231" lon="2.67231">
        <ele>1070</ele>
        <time>2020-08-03T09:01:36.000Z</time>
      </trkpt>
      <trkpt lat="45.07231" lon="2.67232">
        <ele>1070</ele>
        <time>2020-08-03T09:01:37.000Z</time>
      </trkpt>
      <trkpt lat="45.07229" lon="2.67236">
        <ele>1070.4000244141</ele>
        <time>2020-08-03T09:01:40.000Z</time>
      </trkpt>
      <trkpt lat="45.07226" lon="2.6724">
        <ele>1071</ele>
        <time>2020-08-03T09:01:44.000Z</time>
      </trkpt>
      <trkpt lat="45.07225" lon="2.67244">
        <ele>1071.8000488281</ele>
        <time>2020-08-03T09:01:48.000Z</time>
      </trkpt>
      <trkpt lat="45.07225" lon="2.67247">
        <ele>1072.1999511719</ele>
        <time>2020-08-03T09:01:50.000Z</time>
      </trkpt>
      <trkpt lat="45.07225" lon="2.67253">
        <ele>1073.1999511719</ele>
        <time>2020-08-03T09:01:56.000Z</time>
      </trkpt>
      <trkpt lat="45.07222" lon="2.67258">
        <ele>1073.4000244141</ele>
        <time>2020-08-03T09:02:01.000Z</time>
      </trkpt>
      <trkpt lat="45.07221" lon="2.6726">
        <ele>1073.5999755859</ele>
        <time>2020-08-03T09:02:03.000Z</time>
      </trkpt>
      <trkpt lat="45.07219" lon="2.67267">
        <ele>1074.1999511719</ele>
        <time>2020-08-03T09:02:11.000Z</time>
      </trkpt>
      <trkpt lat="45.07219" lon="2.67268">
        <ele>1074.1999511719</ele>
        <time>2020-08-03T09:02:12.000Z</time>
      </trkpt>
      <trkpt lat="45.07218" lon="2.67271">
        <ele>1074.8000488281</ele>
        <time>2020-08-03T09:02:15.000Z</time>
      </trkpt>
      <trkpt lat="45.07217" lon="2.67275">
        <ele>1075.1999511719</ele>
        <time>2020-08-03T09:02:18.000Z</time>
      </trkpt>
      <trkpt lat="45.07217" lon="2.67276">
        <ele>1075.4000244141</ele>
        <time>2020-08-03T09:02:19.000Z</time>
      </trkpt>
      <trkpt lat="45.07217" lon="2.6728">
        <ele>1076</ele>
        <time>2020-08-03T09:02:24.000Z</time>
      </trkpt>
      <trkpt lat="45.07216" lon="2.67282">
        <ele>1076.4000244141</ele>
        <time>2020-08-03T09:02:26.000Z</time>
      </trkpt>
      <trkpt lat="45.07216" lon="2.67285">
        <ele>1076.8000488281</ele>
        <time>2020-08-03T09:02:29.000Z</time>
      </trkpt>
      <trkpt lat="45.07216" lon="2.6729">
        <ele>1077.4000244141</ele>
        <time>2020-08-03T09:02:34.000Z</time>
      </trkpt>
      <trkpt lat="45.07216" lon="2.67291">
        <ele>1077.5999755859</ele>
        <time>2020-08-03T09:02:35.000Z</time>
      </trkpt>
      <trkpt lat="45.07213" lon="2.67299">
        <ele>1078.4000244141</ele>
        <time>2020-08-03T09:02:42.000Z</time>
      </trkpt>
      <trkpt lat="45.0721" lon="2.67301">
        <ele>1078.5999755859</ele>
        <time>2020-08-03T09:02:45.000Z</time>
      </trkpt>
      <trkpt lat="45.07207" lon="2.67304">
        <ele>1079</ele>
        <time>2020-08-03T09:02:48.000Z</time>
      </trkpt>
      <trkpt lat="45.07207" lon="2.67305">
        <ele>1079.4000244141</ele>
        <time>2020-08-03T09:02:50.000Z</time>
      </trkpt>
      <trkpt lat="45.07207" lon="2.67306">
        <ele>1079.5999755859</ele>
        <time>2020-08-03T09:02:51.000Z</time>
      </trkpt>
      <trkpt lat="45.07203" lon="2.67312">
        <ele>1080.1999511719</ele>
        <time>2020-08-03T09:02:57.000Z</time>
      </trkpt>
      <trkpt lat="45.07203" lon="2.67318">
        <ele>1080.5999755859</ele>
        <time>2020-08-03T09:03:02.000Z</time>
      </trkpt>
      <trkpt lat="45.07204" lon="2.6732">
        <ele>1080.8000488281</ele>
        <time>2020-08-03T09:03:04.000Z</time>
      </trkpt>
      <trkpt lat="45.072" lon="2.67327">
        <ele>1081.4000244141</ele>
        <time>2020-08-03T09:03:10.000Z</time>
      </trkpt>
      <trkpt lat="45.07199" lon="2.67331">
        <ele>1081.5999755859</ele>
        <time>2020-08-03T09:03:13.000Z</time>
      </trkpt>
      <trkpt lat="45.07198" lon="2.67332">
        <ele>1081.8000488281</ele>
        <time>2020-08-03T09:03:14.000Z</time>
      </trkpt>
      <trkpt lat="45.07198" lon="2.67335">
        <ele>1082</ele>
        <time>2020-08-03T09:03:17.000Z</time>
      </trkpt>
      <trkpt lat="45.07197" lon="2.67336">
        <ele>1082.1999511719</ele>
        <time>2020-08-03T09:03:19.000Z</time>
      </trkpt>
      <trkpt lat="45.07196" lon="2.6734">
        <ele>1082.1999511719</ele>
        <time>2020-08-03T09:03:22.000Z</time>
      </trkpt>
      <trkpt lat="45.07194" lon="2.67344">
        <ele>1082.4000244141</ele>
        <time>2020-08-03T09:03:25.000Z</time>
      </trkpt>
      <trkpt lat="45.07195" lon="2.67347">
        <ele>1082.5999755859</ele>
        <time>2020-08-03T09:03:27.000Z</time>
      </trkpt>
      <trkpt lat="45.07196" lon="2.67349">
        <ele>1082.8000488281</ele>
        <time>2020-08-03T09:03:29.000Z</time>
      </trkpt>
      <trkpt lat="45.07197" lon="2.67353">
        <ele>1083</ele>
        <time>2020-08-03T09:03:33.000Z</time>
      </trkpt>
      <trkpt lat="45.07196" lon="2.67358">
        <ele>1083</ele>
        <time>2020-08-03T09:03:36.000Z</time>
      </trkpt>
      <trkpt lat="45.07195" lon="2.6736">
        <ele>1083</ele>
        <time>2020-08-03T09:03:38.000Z</time>
      </trkpt>
      <trkpt lat="45.07196" lon="2.67366">
        <ele>1083</ele>
        <time>2020-08-03T09:03:42.000Z</time>
      </trkpt>
      <trkpt lat="45.07196" lon="2.67369">
        <ele>1083.1999511719</ele>
        <time>2020-08-03T09:03:44.000Z</time>
      </trkpt>
      <trkpt lat="45.07193" lon="2.67376">
        <ele>1083.4000244141</ele>
        <time>2020-08-03T09:03:50.000Z</time>
      </trkpt>
      <trkpt lat="45.07192" lon="2.67377">
        <ele>1083.4000244141</ele>
        <time>2020-08-03T09:03:51.000Z</time>
      </trkpt>
      <trkpt lat="45.0719" lon="2.67379">
        <ele>1083.8000488281</ele>
        <time>2020-08-03T09:03:53.000Z</time>
      </trkpt>
      <trkpt lat="45.07187" lon="2.67385">
        <ele>1084.4000244141</ele>
        <time>2020-08-03T09:03:59.000Z</time>
      </trkpt>
      <trkpt lat="45.07186" lon="2.67389">
        <ele>1085</ele>
        <time>2020-08-03T09:04:03.000Z</time>
      </trkpt>
      <trkpt lat="45.07184" lon="2.67391">
        <ele>1085.1999511719</ele>
        <time>2020-08-03T09:04:05.000Z</time>
      </trkpt>
      <trkpt lat="45.07183" lon="2.67392">
        <ele>1085.1999511719</ele>
        <time>2020-08-03T09:04:06.000Z</time>
      </trkpt>
      <trkpt lat="45.0718" lon="2.67396">
        <ele>1085</ele>
        <time>2020-08-03T09:04:11.000Z</time>
      </trkpt>
      <trkpt lat="45.07178" lon="2.67398">
        <ele>1085</ele>
        <time>2020-08-03T09:04:13.000Z</time>
      </trkpt>
      <trkpt lat="45.07177" lon="2.67399">
        <ele>1084.8000488281</ele>
        <time>2020-08-03T09:04:14.000Z</time>
      </trkpt>
      <trkpt lat="45.07173" lon="2.67403">
        <ele>1084.5999755859</ele>
        <time>2020-08-03T09:04:19.000Z</time>
      </trkpt>
      <trkpt lat="45.07172" lon="2.67411">
        <ele>1084</ele>
        <time>2020-08-03T09:04:24.000Z</time>
      </trkpt>
      <trkpt lat="45.07173" lon="2.67414">
        <ele>1083.8000488281</ele>
        <time>2020-08-03T09:04:25.000Z</time>
      </trkpt>
      <trkpt lat="45.07172" lon="2.67422">
        <ele>1083.8000488281</ele>
        <time>2020-08-03T09:04:30.000Z</time>
      </trkpt>
      <trkpt lat="45.0717" lon="2.67428">
        <ele>1084.4000244141</ele>
        <time>2020-08-03T09:04:34.000Z</time>
      </trkpt>
      <trkpt lat="45.07171" lon="2.67432">
        <ele>1084.4000244141</ele>
        <time>2020-08-03T09:04:36.000Z</time>
      </trkpt>
      <trkpt lat="45.07171" lon="2.67433">
        <ele>1084.5999755859</ele>
        <time>2020-08-03T09:04:37.000Z</time>
      </trkpt>
      <trkpt lat="45.07171" lon="2.67436">
        <ele>1085</ele>
        <time>2020-08-03T09:04:39.000Z</time>
      </trkpt>
      <trkpt lat="45.07169" lon="2.6744">
        <ele>1085.5999755859</ele>
        <time>2020-08-03T09:04:42.000Z</time>
      </trkpt>
      <trkpt lat="45.0717" lon="2.67445">
        <ele>1085.8000488281</ele>
        <time>2020-08-03T09:04:46.000Z</time>
      </trkpt>
      <trkpt lat="45.0717" lon="2.67448">
        <ele>1085.8000488281</ele>
        <time>2020-08-03T09:04:48.000Z</time>
      </trkpt>
      <trkpt lat="45.07171" lon="2.6745">
        <ele>1085.8000488281</ele>
        <time>2020-08-03T09:04:50.000Z</time>
      </trkpt>
      <trkpt lat="45.0717" lon="2.67454">
        <ele>1085.8000488281</ele>
        <time>2020-08-03T09:04:52.000Z</time>
      </trkpt>
      <trkpt lat="45.07169" lon="2.67457">
        <ele>1086</ele>
        <time>2020-08-03T09:04:55.000Z</time>
      </trkpt>
      <trkpt lat="45.07168" lon="2.6746">
        <ele>1086</ele>
        <time>2020-08-03T09:04:56.000Z</time>
      </trkpt>
      <trkpt lat="45.07167" lon="2.67467">
        <ele>1086.1999511719</ele>
        <time>2020-08-03T09:05:01.000Z</time>
      </trkpt>
      <trkpt lat="45.07167" lon="2.67468">
        <ele>1086.4000244141</ele>
        <time>2020-08-03T09:05:02.000Z</time>
      </trkpt>
      <trkpt lat="45.07166" lon="2.67471">
        <ele>1087</ele>
        <time>2020-08-03T09:05:05.000Z</time>
      </trkpt>
      <trkpt lat="45.07166" lon="2.67473">
        <ele>1087.1999511719</ele>
        <time>2020-08-03T09:05:07.000Z</time>
      </trkpt>
      <trkpt lat="45.07165" lon="2.67475">
        <ele>1087.4000244141</ele>
        <time>2020-08-03T09:05:09.000Z</time>
      </trkpt>
      <trkpt lat="45.07164" lon="2.67479">
        <ele>1088.1999511719</ele>
        <time>2020-08-03T09:05:14.000Z</time>
      </trkpt>
      <trkpt lat="45.07164" lon="2.6748">
        <ele>1088.5999755859</ele>
        <time>2020-08-03T09:05:16.000Z</time>
      </trkpt>
      <trkpt lat="45.07164" lon="2.67481">
        <ele>1088.5999755859</ele>
        <time>2020-08-03T09:05:17.000Z</time>
      </trkpt>
      <trkpt lat="45.07163" lon="2.67485">
        <ele>1089.1999511719</ele>
        <time>2020-08-03T09:05:21.000Z</time>
      </trkpt>
      <trkpt lat="45.0716" lon="2.67492">
        <ele>1090.4000244141</ele>
        <time>2020-08-03T09:05:27.000Z</time>
      </trkpt>
      <trkpt lat="45.07159" lon="2.67494">
        <ele>1090.5999755859</ele>
        <time>2020-08-03T09:05:29.000Z</time>
      </trkpt>
      <trkpt lat="45.07159" lon="2.67496">
        <ele>1090.8000488281</ele>
        <time>2020-08-03T09:05:31.000Z</time>
      </trkpt>
      <trkpt lat="45.07159" lon="2.675">
        <ele>1091.5999755859</ele>
        <time>2020-08-03T09:05:34.000Z</time>
      </trkpt>
      <trkpt lat="45.07158" lon="2.67502">
        <ele>1092.1999511719</ele>
        <time>2020-08-03T09:05:36.000Z</time>
      </trkpt>
      <trkpt lat="45.07157" lon="2.67504">
        <ele>1092.4000244141</ele>
        <time>2020-08-03T09:05:38.000Z</time>
      </trkpt>
      <trkpt lat="45.07157" lon="2.67507">
        <ele>1092.8000488281</ele>
        <time>2020-08-03T09:05:42.000Z</time>
      </trkpt>
      <trkpt lat="45.07156" lon="2.6751">
        <ele>1093</ele>
        <time>2020-08-03T09:05:44.000Z</time>
      </trkpt>
      <trkpt lat="45.07153" lon="2.67514">
        <ele>1093.8000488281</ele>
        <time>2020-08-03T09:05:50.000Z</time>
      </trkpt>
      <trkpt lat="45.07149" lon="2.67518">
        <ele>1094.5999755859</ele>
        <time>2020-08-03T09:05:57.000Z</time>
      </trkpt>
      <trkpt lat="45.07147" lon="2.6752">
        <ele>1094.8000488281</ele>
        <time>2020-08-03T09:05:59.000Z</time>
      </trkpt>
      <trkpt lat="45.07147" lon="2.67522">
        <ele>1095.4000244141</ele>
        <time>2020-08-03T09:06:05.000Z</time>
      </trkpt>
      <trkpt lat="45.07144" lon="2.67529">
        <ele>1095.8000488281</ele>
        <time>2020-08-03T09:06:10.000Z</time>
      </trkpt>
      <trkpt lat="45.07144" lon="2.6753">
        <ele>1096</ele>
        <time>2020-08-03T09:06:11.000Z</time>
      </trkpt>
      <trkpt lat="45.07142" lon="2.67536">
        <ele>1096.8000488281</ele>
        <time>2020-08-03T09:06:16.000Z</time>
      </trkpt>
      <trkpt lat="45.0714" lon="2.67537">
        <ele>1097</ele>
        <time>2020-08-03T09:06:17.000Z</time>
      </trkpt>
      <trkpt lat="45.07139" lon="2.67538">
        <ele>1097</ele>
        <time>2020-08-03T09:06:18.000Z</time>
      </trkpt>
      <trkpt lat="45.07137" lon="2.67544">
        <ele>1097.8000488281</ele>
        <time>2020-08-03T09:06:24.000Z</time>
      </trkpt>
      <trkpt lat="45.07136" lon="2.67546">
        <ele>1097.8000488281</ele>
        <time>2020-08-03T09:06:26.000Z</time>
      </trkpt>
      <trkpt lat="45.07135" lon="2.67549">
        <ele>1098</ele>
        <time>2020-08-03T09:06:28.000Z</time>
      </trkpt>
      <trkpt lat="45.07134" lon="2.67553">
        <ele>1098.8000488281</ele>
        <time>2020-08-03T09:06:31.000Z</time>
      </trkpt>
      <trkpt lat="45.07133" lon="2.67554">
        <ele>1098.8000488281</ele>
        <time>2020-08-03T09:06:32.000Z</time>
      </trkpt>
      <trkpt lat="45.07132" lon="2.67556">
        <ele>1099</ele>
        <time>2020-08-03T09:06:34.000Z</time>
      </trkpt>
      <trkpt lat="45.07131" lon="2.67559">
        <ele>1099.1999511719</ele>
        <time>2020-08-03T09:06:37.000Z</time>
      </trkpt>
      <trkpt lat="45.07131" lon="2.67561">
        <ele>1099.4000244141</ele>
        <time>2020-08-03T09:06:39.000Z</time>
      </trkpt>
      <trkpt lat="45.07131" lon="2.67566">
        <ele>1099.4000244141</ele>
        <time>2020-08-03T09:06:43.000Z</time>
      </trkpt>
      <trkpt lat="45.07132" lon="2.67571">
        <ele>1100.1999511719</ele>
        <time>2020-08-03T09:06:47.000Z</time>
      </trkpt>
      <trkpt lat="45.07131" lon="2.67576">
        <ele>1100.5999755859</ele>
        <time>2020-08-03T09:06:52.000Z</time>
      </trkpt>
      <trkpt lat="45.07133" lon="2.6758">
        <ele>1101</ele>
        <time>2020-08-03T09:06:58.000Z</time>
      </trkpt>
      <trkpt lat="45.07133" lon="2.67581">
        <ele>1101.4000244141</ele>
        <time>2020-08-03T09:06:59.000Z</time>
      </trkpt>
      <trkpt lat="45.07133" lon="2.67582">
        <ele>1101.4000244141</ele>
        <time>2020-08-03T09:07:00.000Z</time>
      </trkpt>
      <trkpt lat="45.0713" lon="2.67588">
        <ele>1101.5999755859</ele>
        <time>2020-08-03T09:07:04.000Z</time>
      </trkpt>
      <trkpt lat="45.07131" lon="2.67592">
        <ele>1101.8000488281</ele>
        <time>2020-08-03T09:07:06.000Z</time>
      </trkpt>
      <trkpt lat="45.07127" lon="2.676">
        <ele>1102</ele>
        <time>2020-08-03T09:07:11.000Z</time>
      </trkpt>
      <trkpt lat="45.07123" lon="2.6761">
        <ele>1102.4000244141</ele>
        <time>2020-08-03T09:07:18.000Z</time>
      </trkpt>
      <trkpt lat="45.07122" lon="2.67613">
        <ele>1102.8000488281</ele>
        <time>2020-08-03T09:07:20.000Z</time>
      </trkpt>
      <trkpt lat="45.07119" lon="2.67617">
        <ele>1103</ele>
        <time>2020-08-03T09:07:24.000Z</time>
      </trkpt>
      <trkpt lat="45.07116" lon="2.67622">
        <ele>1103.4000244141</ele>
        <time>2020-08-03T09:07:29.000Z</time>
      </trkpt>
      <trkpt lat="45.07116" lon="2.67624">
        <ele>1103.8000488281</ele>
        <time>2020-08-03T09:07:30.000Z</time>
      </trkpt>
      <trkpt lat="45.07113" lon="2.67629">
        <ele>1104.5999755859</ele>
        <time>2020-08-03T09:07:35.000Z</time>
      </trkpt>
      <trkpt lat="45.07113" lon="2.6763">
        <ele>1104.8000488281</ele>
        <time>2020-08-03T09:07:36.000Z</time>
      </trkpt>
      <trkpt lat="45.07112" lon="2.67631">
        <ele>1104.8000488281</ele>
        <time>2020-08-03T09:07:37.000Z</time>
      </trkpt>
      <trkpt lat="45.0711" lon="2.67634">
        <ele>1105.4000244141</ele>
        <time>2020-08-03T09:07:41.000Z</time>
      </trkpt>
      <trkpt lat="45.07109" lon="2.67635">
        <ele>1105.5999755859</ele>
        <time>2020-08-03T09:07:43.000Z</time>
      </trkpt>
      <trkpt lat="45.07104" lon="2.6764">
        <ele>1106.4000244141</ele>
        <time>2020-08-03T09:07:49.000Z</time>
      </trkpt>
      <trkpt lat="45.07101" lon="2.67642">
        <ele>1106.8000488281</ele>
        <time>2020-08-03T09:07:52.000Z</time>
      </trkpt>
      <trkpt lat="45.07098" lon="2.67643">
        <ele>1107.1999511719</ele>
        <time>2020-08-03T09:07:56.000Z</time>
      </trkpt>
      <trkpt lat="45.07096" lon="2.67644">
        <ele>1107.1999511719</ele>
        <time>2020-08-03T09:08:02.000Z</time>
      </trkpt>
      <trkpt lat="45.07096" lon="2.67645">
        <ele>1106.8000488281</ele>
        <time>2020-08-03T09:08:05.000Z</time>
      </trkpt>
      <trkpt lat="45.07091" lon="2.67648">
        <ele>1106.5999755859</ele>
        <time>2020-08-03T09:08:09.000Z</time>
      </trkpt>
      <trkpt lat="45.07083" lon="2.67651">
        <ele>1107.5999755859</ele>
        <time>2020-08-03T09:08:16.000Z</time>
      </trkpt>
      <trkpt lat="45.07082" lon="2.67652">
        <ele>1107.8000488281</ele>
        <time>2020-08-03T09:08:17.000Z</time>
      </trkpt>
      <trkpt lat="45.07078" lon="2.67654">
        <ele>1108.1999511719</ele>
        <time>2020-08-03T09:08:24.000Z</time>
      </trkpt>
      <trkpt lat="45.07075" lon="2.67654">
        <ele>1108.8000488281</ele>
        <time>2020-08-03T09:08:30.000Z</time>
      </trkpt>
      <trkpt lat="45.0707" lon="2.67655">
        <ele>1109.8000488281</ele>
        <time>2020-08-03T09:08:36.000Z</time>
      </trkpt>
      <trkpt lat="45.07069" lon="2.67655">
        <ele>1110</ele>
        <time>2020-08-03T09:08:37.000Z</time>
      </trkpt>
      <trkpt lat="45.07064" lon="2.67655">
        <ele>1111</ele>
        <time>2020-08-03T09:08:43.000Z</time>
      </trkpt>
      <trkpt lat="45.07062" lon="2.67656">
        <ele>1111</ele>
        <time>2020-08-03T09:08:44.000Z</time>
      </trkpt>
      <trkpt lat="45.07057" lon="2.67658">
        <ele>1111.5999755859</ele>
        <time>2020-08-03T09:08:50.000Z</time>
      </trkpt>
      <trkpt lat="45.07054" lon="2.67661">
        <ele>1112</ele>
        <time>2020-08-03T09:08:55.000Z</time>
      </trkpt>
      <trkpt lat="45.07054" lon="2.67664">
        <ele>1113.1999511719</ele>
        <time>2020-08-03T09:09:02.000Z</time>
      </trkpt>
      <trkpt lat="45.07054" lon="2.67665">
        <ele>1113.1999511719</ele>
        <time>2020-08-03T09:09:03.000Z</time>
      </trkpt>
      <trkpt lat="45.07057" lon="2.67666">
        <ele>1113.4000244141</ele>
        <time>2020-08-03T09:09:07.000Z</time>
      </trkpt>
      <trkpt lat="45.07058" lon="2.67671">
        <ele>1113.5999755859</ele>
        <time>2020-08-03T09:09:12.000Z</time>
      </trkpt>
      <trkpt lat="45.07059" lon="2.67673">
        <ele>1113.8000488281</ele>
        <time>2020-08-03T09:09:15.000Z</time>
      </trkpt>
      <trkpt lat="45.07059" lon="2.67674">
        <ele>1114.1999511719</ele>
        <time>2020-08-03T09:09:16.000Z</time>
      </trkpt>
      <trkpt lat="45.07058" lon="2.6768">
        <ele>1115.1999511719</ele>
        <time>2020-08-03T09:09:22.000Z</time>
      </trkpt>
      <trkpt lat="45.07058" lon="2.67683">
        <ele>1115.1999511719</ele>
        <time>2020-08-03T09:09:24.000Z</time>
      </trkpt>
      <trkpt lat="45.07057" lon="2.67685">
        <ele>1115.1999511719</ele>
        <time>2020-08-03T09:09:26.000Z</time>
      </trkpt>
      <trkpt lat="45.07054" lon="2.6769">
        <ele>1116</ele>
        <time>2020-08-03T09:09:31.000Z</time>
      </trkpt>
      <trkpt lat="45.07053" lon="2.67691">
        <ele>1116.1999511719</ele>
        <time>2020-08-03T09:09:32.000Z</time>
      </trkpt>
      <trkpt lat="45.0705" lon="2.67695">
        <ele>1116.8000488281</ele>
        <time>2020-08-03T09:09:38.000Z</time>
      </trkpt>
      <trkpt lat="45.07049" lon="2.67695">
        <ele>1116.8000488281</ele>
        <time>2020-08-03T09:09:39.000Z</time>
      </trkpt>
      <trkpt lat="45.07046" lon="2.67696">
        <ele>1117.1999511719</ele>
        <time>2020-08-03T09:09:42.000Z</time>
      </trkpt>
      <trkpt lat="45.07041" lon="2.67697">
        <ele>1118</ele>
        <time>2020-08-03T09:09:46.000Z</time>
      </trkpt>
      <trkpt lat="45.07034" lon="2.67701">
        <ele>1119.1999511719</ele>
        <time>2020-08-03T09:09:53.000Z</time>
      </trkpt>
      <trkpt lat="45.07032" lon="2.67702">
        <ele>1119.5999755859</ele>
        <time>2020-08-03T09:09:55.000Z</time>
      </trkpt>
      <trkpt lat="45.07029" lon="2.67704">
        <ele>1119.8000488281</ele>
        <time>2020-08-03T09:09:59.000Z</time>
      </trkpt>
      <trkpt lat="45.07028" lon="2.67705">
        <ele>1119.8000488281</ele>
        <time>2020-08-03T09:10:01.000Z</time>
      </trkpt>
      <trkpt lat="45.07026" lon="2.67706">
        <ele>1120.5999755859</ele>
        <time>2020-08-03T09:10:08.000Z</time>
      </trkpt>
      <trkpt lat="45.07028" lon="2.67708">
        <ele>1121.1999511719</ele>
        <time>2020-08-03T09:10:15.000Z</time>
      </trkpt>
      <trkpt lat="45.0703" lon="2.67712">
        <ele>1121.8000488281</ele>
        <time>2020-08-03T09:10:19.000Z</time>
      </trkpt>
      <trkpt lat="45.0703" lon="2.67713">
        <ele>1122</ele>
        <time>2020-08-03T09:10:20.000Z</time>
      </trkpt>
      <trkpt lat="45.07031" lon="2.67718">
        <ele>1122</ele>
        <time>2020-08-03T09:10:22.000Z</time>
      </trkpt>
      <trkpt lat="45.07032" lon="2.6772">
        <ele>1122</ele>
        <time>2020-08-03T09:10:23.000Z</time>
      </trkpt>
      <trkpt lat="45.07036" lon="2.67732">
        <ele>1122</ele>
        <time>2020-08-03T09:10:29.000Z</time>
      </trkpt>
      <trkpt lat="45.07032" lon="2.67743">
        <ele>1122.8000488281</ele>
        <time>2020-08-03T09:10:36.000Z</time>
      </trkpt>
      <trkpt lat="45.07031" lon="2.67746">
        <ele>1123.1999511719</ele>
        <time>2020-08-03T09:10:38.000Z</time>
      </trkpt>
      <trkpt lat="45.07031" lon="2.67748">
        <ele>1123.4000244141</ele>
        <time>2020-08-03T09:10:40.000Z</time>
      </trkpt>
      <trkpt lat="45.07029" lon="2.67755">
        <ele>1123.5999755859</ele>
        <time>2020-08-03T09:10:45.000Z</time>
      </trkpt>
      <trkpt lat="45.07028" lon="2.67758">
        <ele>1124</ele>
        <time>2020-08-03T09:10:48.000Z</time>
      </trkpt>
      <trkpt lat="45.07027" lon="2.67761">
        <ele>1124.8000488281</ele>
        <time>2020-08-03T09:10:52.000Z</time>
      </trkpt>
      <trkpt lat="45.07027" lon="2.67763">
        <ele>1125</ele>
        <time>2020-08-03T09:10:54.000Z</time>
      </trkpt>
      <trkpt lat="45.07026" lon="2.67766">
        <ele>1125.1999511719</ele>
        <time>2020-08-03T09:10:56.000Z</time>
      </trkpt>
      <trkpt lat="45.07026" lon="2.67768">
        <ele>1125.4000244141</ele>
        <time>2020-08-03T09:10:58.000Z</time>
      </trkpt>
      <trkpt lat="45.07024" lon="2.67777">
        <ele>1126</ele>
        <time>2020-08-03T09:11:04.000Z</time>
      </trkpt>
      <trkpt lat="45.07024" lon="2.67779">
        <ele>1126.1999511719</ele>
        <time>2020-08-03T09:11:05.000Z</time>
      </trkpt>
      <trkpt lat="45.07024" lon="2.6778">
        <ele>1126.4000244141</ele>
        <time>2020-08-03T09:11:06.000Z</time>
      </trkpt>
      <trkpt lat="45.07024" lon="2.67784">
        <ele>1127.1999511719</ele>
        <time>2020-08-03T09:11:09.000Z</time>
      </trkpt>
      <trkpt lat="45.07025" lon="2.67787">
        <ele>1127.8000488281</ele>
        <time>2020-08-03T09:11:13.000Z</time>
      </trkpt>
      <trkpt lat="45.07025" lon="2.6779">
        <ele>1128.1999511719</ele>
        <time>2020-08-03T09:11:17.000Z</time>
      </trkpt>
      <trkpt lat="45.07024" lon="2.67794">
        <ele>1128.5999755859</ele>
        <time>2020-08-03T09:11:20.000Z</time>
      </trkpt>
      <trkpt lat="45.07021" lon="2.67799">
        <ele>1129.4000244141</ele>
        <time>2020-08-03T09:11:27.000Z</time>
      </trkpt>
      <trkpt lat="45.07018" lon="2.67807">
        <ele>1130.1999511719</ele>
        <time>2020-08-03T09:11:36.000Z</time>
      </trkpt>
      <trkpt lat="45.07017" lon="2.6781">
        <ele>1130.5999755859</ele>
        <time>2020-08-03T09:11:39.000Z</time>
      </trkpt>
      <trkpt lat="45.07014" lon="2.67813">
        <ele>1131.5999755859</ele>
        <time>2020-08-03T09:11:42.000Z</time>
      </trkpt>
      <trkpt lat="45.07013" lon="2.67815">
        <ele>1132</ele>
        <time>2020-08-03T09:11:43.000Z</time>
      </trkpt>
      <trkpt lat="45.07011" lon="2.6782">
        <ele>1132.5999755859</ele>
        <time>2020-08-03T09:11:46.000Z</time>
      </trkpt>
      <trkpt lat="45.0701" lon="2.67822">
        <ele>1132.8000488281</ele>
        <time>2020-08-03T09:11:48.000Z</time>
      </trkpt>
      <trkpt lat="45.0701" lon="2.67824">
        <ele>1133.1999511719</ele>
        <time>2020-08-03T09:11:50.000Z</time>
      </trkpt>
      <trkpt lat="45.07009" lon="2.67828">
        <ele>1134</ele>
        <time>2020-08-03T09:11:54.000Z</time>
      </trkpt>
      <trkpt lat="45.07009" lon="2.67829">
        <ele>1134</ele>
        <time>2020-08-03T09:11:56.000Z</time>
      </trkpt>
      <trkpt lat="45.07009" lon="2.67835">
        <ele>1134.8000488281</ele>
        <time>2020-08-03T09:12:01.000Z</time>
      </trkpt>
      <trkpt lat="45.07009" lon="2.67836">
        <ele>1135</ele>
        <time>2020-08-03T09:12:02.000Z</time>
      </trkpt>
      <trkpt lat="45.07009" lon="2.67838">
        <ele>1135.1999511719</ele>
        <time>2020-08-03T09:12:03.000Z</time>
      </trkpt>
      <trkpt lat="45.07009" lon="2.67841">
        <ele>1135.5999755859</ele>
        <time>2020-08-03T09:12:06.000Z</time>
      </trkpt>
      <trkpt lat="45.07009" lon="2.67842">
        <ele>1136.4000244141</ele>
        <time>2020-08-03T09:12:08.000Z</time>
      </trkpt>
      <trkpt lat="45.0701" lon="2.67843">
        <ele>1136.8000488281</ele>
        <time>2020-08-03T09:12:10.000Z</time>
      </trkpt>
      <trkpt lat="45.07008" lon="2.67848">
        <ele>1137.5999755859</ele>
        <time>2020-08-03T09:12:15.000Z</time>
      </trkpt>
      <trkpt lat="45.07007" lon="2.6785">
        <ele>1137.8000488281</ele>
        <time>2020-08-03T09:12:17.000Z</time>
      </trkpt>
      <trkpt lat="45.07002" lon="2.67856">
        <ele>1138.4000244141</ele>
        <time>2020-08-03T09:12:22.000Z</time>
      </trkpt>
      <trkpt lat="45.07" lon="2.67861">
        <ele>1138.5999755859</ele>
        <time>2020-08-03T09:12:25.000Z</time>
      </trkpt>
      <trkpt lat="45.06997" lon="2.67867">
        <ele>1139.5999755859</ele>
        <time>2020-08-03T09:12:31.000Z</time>
      </trkpt>
      <trkpt lat="45.06997" lon="2.67868">
        <ele>1139.8000488281</ele>
        <time>2020-08-03T09:12:32.000Z</time>
      </trkpt>
      <trkpt lat="45.06999" lon="2.67876">
        <ele>1140.8000488281</ele>
        <time>2020-08-03T09:12:40.000Z</time>
      </trkpt>
      <trkpt lat="45.06998" lon="2.67874">
        <ele>1141.4000244141</ele>
        <time>2020-08-03T09:12:47.000Z</time>
      </trkpt>
      <trkpt lat="45.06994" lon="2.67865">
        <ele>1141.1999511719</ele>
        <time>2020-08-03T09:12:56.000Z</time>
      </trkpt>
      <trkpt lat="45.06996" lon="2.67863">
        <ele>1141.1999511719</ele>
        <time>2020-08-03T09:13:04.000Z</time>
      </trkpt>
      <trkpt lat="45.06995" lon="2.67864">
        <ele>1141.5999755859</ele>
        <time>2020-08-03T09:13:12.000Z</time>
      </trkpt>
      <trkpt lat="45.06998" lon="2.67869">
        <ele>1141.8000488281</ele>
        <time>2020-08-03T09:13:15.000Z</time>
      </trkpt>
      <trkpt lat="45.06999" lon="2.67873">
        <ele>1141.8000488281</ele>
        <time>2020-08-03T09:13:17.000Z</time>
      </trkpt>
      <trkpt lat="45.07" lon="2.67875">
        <ele>1142</ele>
        <time>2020-08-03T09:13:18.000Z</time>
      </trkpt>
      <trkpt lat="45.07001" lon="2.67887">
        <ele>1143</ele>
        <time>2020-08-03T09:13:26.000Z</time>
      </trkpt>
      <trkpt lat="45.07001" lon="2.67897">
        <ele>1144.1999511719</ele>
        <time>2020-08-03T09:13:33.000Z</time>
      </trkpt>
      <trkpt lat="45.06998" lon="2.67906">
        <ele>1145</ele>
        <time>2020-08-03T09:13:41.000Z</time>
      </trkpt>
      <trkpt lat="45.06997" lon="2.67908">
        <ele>1145.1999511719</ele>
        <time>2020-08-03T09:13:43.000Z</time>
      </trkpt>
      <trkpt lat="45.06993" lon="2.67914">
        <ele>1146</ele>
        <time>2020-08-03T09:13:49.000Z</time>
      </trkpt>
      <trkpt lat="45.06993" lon="2.67916">
        <ele>1146.1999511719</ele>
        <time>2020-08-03T09:13:51.000Z</time>
      </trkpt>
      <trkpt lat="45.06991" lon="2.67921">
        <ele>1147.1999511719</ele>
        <time>2020-08-03T09:13:56.000Z</time>
      </trkpt>
      <trkpt lat="45.0699" lon="2.67922">
        <ele>1147.1999511719</ele>
        <time>2020-08-03T09:13:57.000Z</time>
      </trkpt>
      <trkpt lat="45.06988" lon="2.67927">
        <ele>1148.1999511719</ele>
        <time>2020-08-03T09:14:03.000Z</time>
      </trkpt>
      <trkpt lat="45.06988" lon="2.67929">
        <ele>1148.1999511719</ele>
        <time>2020-08-03T09:14:04.000Z</time>
      </trkpt>
      <trkpt lat="45.06984" lon="2.67935">
        <ele>1149.4000244141</ele>
        <time>2020-08-03T09:14:11.000Z</time>
      </trkpt>
      <trkpt lat="45.06981" lon="2.67939">
        <ele>1149.8000488281</ele>
        <time>2020-08-03T09:14:17.000Z</time>
      </trkpt>
      <trkpt lat="45.06976" lon="2.67943">
        <ele>1150.1999511719</ele>
        <time>2020-08-03T09:14:23.000Z</time>
      </trkpt>
      <trkpt lat="45.06975" lon="2.67944">
        <ele>1150.4000244141</ele>
        <time>2020-08-03T09:14:25.000Z</time>
      </trkpt>
      <trkpt lat="45.0697" lon="2.67945">
        <ele>1150.8000488281</ele>
        <time>2020-08-03T09:14:29.000Z</time>
      </trkpt>
      <trkpt lat="45.06966" lon="2.67945">
        <ele>1151.4000244141</ele>
        <time>2020-08-03T09:14:33.000Z</time>
      </trkpt>
      <trkpt lat="45.06965" lon="2.67946">
        <ele>1151.5999755859</ele>
        <time>2020-08-03T09:14:34.000Z</time>
      </trkpt>
      <trkpt lat="45.06964" lon="2.67946">
        <ele>1151.8000488281</ele>
        <time>2020-08-03T09:14:35.000Z</time>
      </trkpt>
      <trkpt lat="45.06962" lon="2.67947">
        <ele>1152.1999511719</ele>
        <time>2020-08-03T09:14:37.000Z</time>
      </trkpt>
      <trkpt lat="45.06959" lon="2.67949">
        <ele>1152.5999755859</ele>
        <time>2020-08-03T09:14:40.000Z</time>
      </trkpt>
      <trkpt lat="45.06957" lon="2.6795">
        <ele>1153</ele>
        <time>2020-08-03T09:14:43.000Z</time>
      </trkpt>
      <trkpt lat="45.06953" lon="2.67953">
        <ele>1153.4000244141</ele>
        <time>2020-08-03T09:14:50.000Z</time>
      </trkpt>
      <trkpt lat="45.06951" lon="2.67954">
        <ele>1153.8000488281</ele>
        <time>2020-08-03T09:14:53.000Z</time>
      </trkpt>
      <trkpt lat="45.0695" lon="2.67955">
        <ele>1154.1999511719</ele>
        <time>2020-08-03T09:14:55.000Z</time>
      </trkpt>
      <trkpt lat="45.06948" lon="2.67958">
        <ele>1154.5999755859</ele>
        <time>2020-08-03T09:14:58.000Z</time>
      </trkpt>
      <trkpt lat="45.06947" lon="2.67961">
        <ele>1155</ele>
        <time>2020-08-03T09:15:01.000Z</time>
      </trkpt>
      <trkpt lat="45.06948" lon="2.67964">
        <ele>1155.5999755859</ele>
        <time>2020-08-03T09:15:05.000Z</time>
      </trkpt>
      <trkpt lat="45.06948" lon="2.67965">
        <ele>1156</ele>
        <time>2020-08-03T09:15:06.000Z</time>
      </trkpt>
      <trkpt lat="45.06949" lon="2.67967">
        <ele>1156.8000488281</ele>
        <time>2020-08-03T09:15:10.000Z</time>
      </trkpt>
      <trkpt lat="45.0695" lon="2.67968">
        <ele>1157</ele>
        <time>2020-08-03T09:15:11.000Z</time>
      </trkpt>
      <trkpt lat="45.06951" lon="2.67969">
        <ele>1157.1999511719</ele>
        <time>2020-08-03T09:15:12.000Z</time>
      </trkpt>
      <trkpt lat="45.06953" lon="2.6797">
        <ele>1157.1999511719</ele>
        <time>2020-08-03T09:15:13.000Z</time>
      </trkpt>
      <trkpt lat="45.06954" lon="2.67977">
        <ele>1158.1999511719</ele>
        <time>2020-08-03T09:15:20.000Z</time>
      </trkpt>
      <trkpt lat="45.0695" lon="2.67981">
        <ele>1159.1999511719</ele>
        <time>2020-08-03T09:15:27.000Z</time>
      </trkpt>
      <trkpt lat="45.06949" lon="2.67982">
        <ele>1159.1999511719</ele>
        <time>2020-08-03T09:15:28.000Z</time>
      </trkpt>
      <trkpt lat="45.06944" lon="2.67985">
        <ele>1159.1999511719</ele>
        <time>2020-08-03T09:15:33.000Z</time>
      </trkpt>
      <trkpt lat="45.06936" lon="2.67988">
        <ele>1160</ele>
        <time>2020-08-03T09:15:40.000Z</time>
      </trkpt>
      <trkpt lat="45.06933" lon="2.67989">
        <ele>1160.4000244141</ele>
        <time>2020-08-03T09:15:43.000Z</time>
      </trkpt>
      <trkpt lat="45.0693" lon="2.67992">
        <ele>1161.5999755859</ele>
        <time>2020-08-03T09:15:48.000Z</time>
      </trkpt>
      <trkpt lat="45.06929" lon="2.67994">
        <ele>1161.8000488281</ele>
        <time>2020-08-03T09:15:55.000Z</time>
      </trkpt>
      <trkpt lat="45.06928" lon="2.67992">
        <ele>1161.8000488281</ele>
        <time>2020-08-03T09:16:01.000Z</time>
      </trkpt>
      <trkpt lat="45.06928" lon="2.67992">
        <ele>1161.1999511719</ele>
        <time>2020-08-03T09:16:07.000Z</time>
      </trkpt>
      <trkpt lat="45.06928" lon="2.67993">
        <ele>1161.4000244141</ele>
        <time>2020-08-03T09:16:09.000Z</time>
      </trkpt>
      <trkpt lat="45.06927" lon="2.67997">
        <ele>1161.5999755859</ele>
        <time>2020-08-03T09:16:12.000Z</time>
      </trkpt>
      <trkpt lat="45.06924" lon="2.68001">
        <ele>1162.5999755859</ele>
        <time>2020-08-03T09:16:17.000Z</time>
      </trkpt>
      <trkpt lat="45.06923" lon="2.68002">
        <ele>1162.5999755859</ele>
        <time>2020-08-03T09:16:19.000Z</time>
      </trkpt>
      <trkpt lat="45.06919" lon="2.68007">
        <ele>1162.8000488281</ele>
        <time>2020-08-03T09:16:26.000Z</time>
      </trkpt>
      <trkpt lat="45.06916" lon="2.68011">
        <ele>1163.8000488281</ele>
        <time>2020-08-03T09:16:32.000Z</time>
      </trkpt>
      <trkpt lat="45.06913" lon="2.68017">
        <ele>1164.8000488281</ele>
        <time>2020-08-03T09:16:39.000Z</time>
      </trkpt>
      <trkpt lat="45.06912" lon="2.68018">
        <ele>1165</ele>
        <time>2020-08-03T09:16:40.000Z</time>
      </trkpt>
      <trkpt lat="45.0691" lon="2.68021">
        <ele>1165.8000488281</ele>
        <time>2020-08-03T09:16:46.000Z</time>
      </trkpt>
      <trkpt lat="45.0691" lon="2.68022">
        <ele>1166</ele>
        <time>2020-08-03T09:16:48.000Z</time>
      </trkpt>
      <trkpt lat="45.06908" lon="2.68027">
        <ele>1166.8000488281</ele>
        <time>2020-08-03T09:16:53.000Z</time>
      </trkpt>
      <trkpt lat="45.06907" lon="2.68029">
        <ele>1167.1999511719</ele>
        <time>2020-08-03T09:16:54.000Z</time>
      </trkpt>
      <trkpt lat="45.06906" lon="2.68035">
        <ele>1168</ele>
        <time>2020-08-03T09:17:00.000Z</time>
      </trkpt>
      <trkpt lat="45.06906" lon="2.68037">
        <ele>1168</ele>
        <time>2020-08-03T09:17:01.000Z</time>
      </trkpt>
      <trkpt lat="45.06905" lon="2.68038">
        <ele>1168.1999511719</ele>
        <time>2020-08-03T09:17:02.000Z</time>
      </trkpt>
      <trkpt lat="45.06905" lon="2.68039">
        <ele>1168.4000244141</ele>
        <time>2020-08-03T09:17:03.000Z</time>
      </trkpt>
      <trkpt lat="45.06905" lon="2.68041">
        <ele>1168.8000488281</ele>
        <time>2020-08-03T09:17:05.000Z</time>
      </trkpt>
      <trkpt lat="45.06903" lon="2.68047">
        <ele>1169</ele>
        <time>2020-08-03T09:17:11.000Z</time>
      </trkpt>
      <trkpt lat="45.06902" lon="2.68048">
        <ele>1169.1999511719</ele>
        <time>2020-08-03T09:17:12.000Z</time>
      </trkpt>
      <trkpt lat="45.06901" lon="2.68049">
        <ele>1169.4000244141</ele>
        <time>2020-08-03T09:17:13.000Z</time>
      </trkpt>
      <trkpt lat="45.069" lon="2.68052">
        <ele>1169.5999755859</ele>
        <time>2020-08-03T09:17:16.000Z</time>
      </trkpt>
      <trkpt lat="45.069" lon="2.68054">
        <ele>1169.5999755859</ele>
        <time>2020-08-03T09:17:17.000Z</time>
      </trkpt>
      <trkpt lat="45.06898" lon="2.6806">
        <ele>1170.1999511719</ele>
        <time>2020-08-03T09:17:23.000Z</time>
      </trkpt>
      <trkpt lat="45.06898" lon="2.68061">
        <ele>1170.1999511719</ele>
        <time>2020-08-03T09:17:24.000Z</time>
      </trkpt>
      <trkpt lat="45.06897" lon="2.68066">
        <ele>1171.4000244141</ele>
        <time>2020-08-03T09:17:30.000Z</time>
      </trkpt>
      <trkpt lat="45.06894" lon="2.68068">
        <ele>1172</ele>
        <time>2020-08-03T09:17:36.000Z</time>
      </trkpt>
      <trkpt lat="45.06892" lon="2.6807">
        <ele>1172.4000244141</ele>
        <time>2020-08-03T09:17:39.000Z</time>
      </trkpt>
      <trkpt lat="45.0689" lon="2.68073">
        <ele>1172.8000488281</ele>
        <time>2020-08-03T09:17:43.000Z</time>
      </trkpt>
      <trkpt lat="45.06886" lon="2.68077">
        <ele>1173.5999755859</ele>
        <time>2020-08-03T09:17:50.000Z</time>
      </trkpt>
      <trkpt lat="45.06885" lon="2.68078">
        <ele>1174</ele>
        <time>2020-08-03T09:17:52.000Z</time>
      </trkpt>
      <trkpt lat="45.06883" lon="2.6808">
        <ele>1174.5999755859</ele>
        <time>2020-08-03T09:17:56.000Z</time>
      </trkpt>
      <trkpt lat="45.06882" lon="2.68081">
        <ele>1174.8000488281</ele>
        <time>2020-08-03T09:17:57.000Z</time>
      </trkpt>
      <trkpt lat="45.06882" lon="2.68082">
        <ele>1174.8000488281</ele>
        <time>2020-08-03T09:17:58.000Z</time>
      </trkpt>
      <trkpt lat="45.06882" lon="2.68087">
        <ele>1175.4000244141</ele>
        <time>2020-08-03T09:18:04.000Z</time>
      </trkpt>
      <trkpt lat="45.0688" lon="2.68089">
        <ele>1175.5999755859</ele>
        <time>2020-08-03T09:18:07.000Z</time>
      </trkpt>
      <trkpt lat="45.06878" lon="2.68093">
        <ele>1176</ele>
        <time>2020-08-03T09:18:11.000Z</time>
      </trkpt>
      <trkpt lat="45.06876" lon="2.68097">
        <ele>1176.8000488281</ele>
        <time>2020-08-03T09:18:15.000Z</time>
      </trkpt>
      <trkpt lat="45.06875" lon="2.681">
        <ele>1177.1999511719</ele>
        <time>2020-08-03T09:18:17.000Z</time>
      </trkpt>
      <trkpt lat="45.06873" lon="2.68104">
        <ele>1177.8000488281</ele>
        <time>2020-08-03T09:18:22.000Z</time>
      </trkpt>
      <trkpt lat="45.06872" lon="2.68105">
        <ele>1178</ele>
        <time>2020-08-03T09:18:23.000Z</time>
      </trkpt>
      <trkpt lat="45.06868" lon="2.68115">
        <ele>1178.5999755859</ele>
        <time>2020-08-03T09:18:31.000Z</time>
      </trkpt>
      <trkpt lat="45.06866" lon="2.68118">
        <ele>1178.8000488281</ele>
        <time>2020-08-03T09:18:35.000Z</time>
      </trkpt>
      <trkpt lat="45.06865" lon="2.68119">
        <ele>1179</ele>
        <time>2020-08-03T09:18:36.000Z</time>
      </trkpt>
      <trkpt lat="45.06861" lon="2.6812">
        <ele>1180</ele>
        <time>2020-08-03T09:18:41.000Z</time>
      </trkpt>
      <trkpt lat="45.0686" lon="2.68122">
        <ele>1180.4000244141</ele>
        <time>2020-08-03T09:18:43.000Z</time>
      </trkpt>
      <trkpt lat="45.06857" lon="2.68125">
        <ele>1181.4000244141</ele>
        <time>2020-08-03T09:18:49.000Z</time>
      </trkpt>
      <trkpt lat="45.06856" lon="2.68126">
        <ele>1181.4000244141</ele>
        <time>2020-08-03T09:18:50.000Z</time>
      </trkpt>
      <trkpt lat="45.06849" lon="2.68131">
        <ele>1182.1999511719</ele>
        <time>2020-08-03T09:18:58.000Z</time>
      </trkpt>
      <trkpt lat="45.06848" lon="2.68132">
        <ele>1182.4000244141</ele>
        <time>2020-08-03T09:18:59.000Z</time>
      </trkpt>
      <trkpt lat="45.06847" lon="2.68132">
        <ele>1182.4000244141</ele>
        <time>2020-08-03T09:19:00.000Z</time>
      </trkpt>
      <trkpt lat="45.06844" lon="2.68134">
        <ele>1182.5999755859</ele>
        <time>2020-08-03T09:19:03.000Z</time>
      </trkpt>
      <trkpt lat="45.06839" lon="2.68137">
        <ele>1183.4000244141</ele>
        <time>2020-08-03T09:19:09.000Z</time>
      </trkpt>
      <trkpt lat="45.06838" lon="2.68137">
        <ele>1183.4000244141</ele>
        <time>2020-08-03T09:19:10.000Z</time>
      </trkpt>
      <trkpt lat="45.06834" lon="2.68136">
        <ele>1184.1999511719</ele>
        <time>2020-08-03T09:19:16.000Z</time>
      </trkpt>
      <trkpt lat="45.06833" lon="2.68135">
        <ele>1184.4000244141</ele>
        <time>2020-08-03T09:19:17.000Z</time>
      </trkpt>
      <trkpt lat="45.06832" lon="2.68135">
        <ele>1184.5999755859</ele>
        <time>2020-08-03T09:19:18.000Z</time>
      </trkpt>
      <trkpt lat="45.0683" lon="2.6813">
        <ele>1185</ele>
        <time>2020-08-03T09:19:22.000Z</time>
      </trkpt>
      <trkpt lat="45.06828" lon="2.68129">
        <ele>1185.5999755859</ele>
        <time>2020-08-03T09:19:27.000Z</time>
      </trkpt>
      <trkpt lat="45.06827" lon="2.68128">
        <ele>1185.8000488281</ele>
        <time>2020-08-03T09:19:29.000Z</time>
      </trkpt>
      <trkpt lat="45.06825" lon="2.68127">
        <ele>1186.1999511719</ele>
        <time>2020-08-03T09:19:31.000Z</time>
      </trkpt>
      <trkpt lat="45.06824" lon="2.68124">
        <ele>1186.1999511719</ele>
        <time>2020-08-03T09:19:33.000Z</time>
      </trkpt>
      <trkpt lat="45.06824" lon="2.68122">
        <ele>1186.4000244141</ele>
        <time>2020-08-03T09:19:35.000Z</time>
      </trkpt>
      <trkpt lat="45.06823" lon="2.68122">
        <ele>1186.5999755859</ele>
        <time>2020-08-03T09:19:36.000Z</time>
      </trkpt>
      <trkpt lat="45.0682" lon="2.68119">
        <ele>1187.4000244141</ele>
        <time>2020-08-03T09:19:40.000Z</time>
      </trkpt>
      <trkpt lat="45.06819" lon="2.68118">
        <ele>1187.4000244141</ele>
        <time>2020-08-03T09:19:41.000Z</time>
      </trkpt>
      <trkpt lat="45.06818" lon="2.68118">
        <ele>1187.4000244141</ele>
        <time>2020-08-03T09:19:47.000Z</time>
      </trkpt>
      <trkpt lat="45.06818" lon="2.68116">
        <ele>1187.8000488281</ele>
        <time>2020-08-03T09:19:50.000Z</time>
      </trkpt>
      <trkpt lat="45.06817" lon="2.6811">
        <ele>1188</ele>
        <time>2020-08-03T09:19:55.000Z</time>
      </trkpt>
      <trkpt lat="45.06813" lon="2.68097">
        <ele>1188.1999511719</ele>
        <time>2020-08-03T09:20:02.000Z</time>
      </trkpt>
      <trkpt lat="45.06813" lon="2.68092">
        <ele>1188.4000244141</ele>
        <time>2020-08-03T09:20:05.000Z</time>
      </trkpt>
      <trkpt lat="45.06811" lon="2.68089">
        <ele>1188.4000244141</ele>
        <time>2020-08-03T09:20:07.000Z</time>
      </trkpt>
      <trkpt lat="45.06809" lon="2.68088">
        <ele>1188.4000244141</ele>
        <time>2020-08-03T09:20:09.000Z</time>
      </trkpt>
      <trkpt lat="45.06808" lon="2.68086">
        <ele>1188.8000488281</ele>
        <time>2020-08-03T09:20:12.000Z</time>
      </trkpt>
      <trkpt lat="45.06806" lon="2.68085">
        <ele>1189</ele>
        <time>2020-08-03T09:20:14.000Z</time>
      </trkpt>
      <trkpt lat="45.06804" lon="2.68084">
        <ele>1189.1999511719</ele>
        <time>2020-08-03T09:20:16.000Z</time>
      </trkpt>
      <trkpt lat="45.06797" lon="2.68081">
        <ele>1189.8000488281</ele>
        <time>2020-08-03T09:20:22.000Z</time>
      </trkpt>
      <trkpt lat="45.06794" lon="2.6808">
        <ele>1190.1999511719</ele>
        <time>2020-08-03T09:20:24.000Z</time>
      </trkpt>
      <trkpt lat="45.06789" lon="2.68077">
        <ele>1190.8000488281</ele>
        <time>2020-08-03T09:20:30.000Z</time>
      </trkpt>
      <trkpt lat="45.06789" lon="2.68077">
        <ele>1190.8000488281</ele>
        <time>2020-08-03T09:20:31.000Z</time>
      </trkpt>
      <trkpt lat="45.06788" lon="2.68078">
        <ele>1190.8000488281</ele>
        <time>2020-08-03T09:20:32.000Z</time>
      </trkpt>
      <trkpt lat="45.06783" lon="2.68079">
        <ele>1191.8000488281</ele>
        <time>2020-08-03T09:20:38.000Z</time>
      </trkpt>
      <trkpt lat="45.06782" lon="2.68079">
        <ele>1192</ele>
        <time>2020-08-03T09:20:39.000Z</time>
      </trkpt>
      <trkpt lat="45.0678" lon="2.68078">
        <ele>1192.1999511719</ele>
        <time>2020-08-03T09:20:41.000Z</time>
      </trkpt>
      <trkpt lat="45.06779" lon="2.68076">
        <ele>1192.4000244141</ele>
        <time>2020-08-03T09:20:45.000Z</time>
      </trkpt>
      <trkpt lat="45.06778" lon="2.68076">
        <ele>1192</ele>
        <time>2020-08-03T09:20:54.000Z</time>
      </trkpt>
      <trkpt lat="45.06775" lon="2.68072">
        <ele>1192.4000244141</ele>
        <time>2020-08-03T09:21:04.000Z</time>
      </trkpt>
      <trkpt lat="45.06777" lon="2.68072">
        <ele>1192.1999511719</ele>
        <time>2020-08-03T09:21:17.000Z</time>
      </trkpt>
      <trkpt lat="45.06779" lon="2.68073">
        <ele>1192.4000244141</ele>
        <time>2020-08-03T09:21:29.000Z</time>
      </trkpt>
      <trkpt lat="45.06779" lon="2.68074">
        <ele>1192</ele>
        <time>2020-08-03T09:21:39.000Z</time>
      </trkpt>
      <trkpt lat="45.0678" lon="2.68074">
        <ele>1192</ele>
        <time>2020-08-03T09:21:49.000Z</time>
      </trkpt>
      <trkpt lat="45.06781" lon="2.68075">
        <ele>1192.8000488281</ele>
        <time>2020-08-03T09:21:57.000Z</time>
      </trkpt>
      <trkpt lat="45.0678" lon="2.68075">
        <ele>1192.8000488281</ele>
        <time>2020-08-03T09:21:59.000Z</time>
      </trkpt>
      <trkpt lat="45.06779" lon="2.68074">
        <ele>1192.8000488281</ele>
        <time>2020-08-03T09:22:02.000Z</time>
      </trkpt>
      <trkpt lat="45.06779" lon="2.68073">
        <ele>1192.8000488281</ele>
        <time>2020-08-03T09:22:03.000Z</time>
      </trkpt>
      <trkpt lat="45.06779" lon="2.68069">
        <ele>1192.4000244141</ele>
        <time>2020-08-03T09:22:08.000Z</time>
      </trkpt>
      <trkpt lat="45.06775" lon="2.68061">
        <ele>1193</ele>
        <time>2020-08-03T09:22:18.000Z</time>
      </trkpt>
      <trkpt lat="45.06775" lon="2.68055">
        <ele>1193.4000244141</ele>
        <time>2020-08-03T09:22:24.000Z</time>
      </trkpt>
      <trkpt lat="45.06774" lon="2.68055">
        <ele>1194</ele>
        <time>2020-08-03T09:22:26.000Z</time>
      </trkpt>
      <trkpt lat="45.06773" lon="2.68052">
        <ele>1194.8000488281</ele>
        <time>2020-08-03T09:22:29.000Z</time>
      </trkpt>
      <trkpt lat="45.06772" lon="2.68052">
        <ele>1195.1999511719</ele>
        <time>2020-08-03T09:22:31.000Z</time>
      </trkpt>
      <trkpt lat="45.06769" lon="2.6805">
        <ele>1196.1999511719</ele>
        <time>2020-08-03T09:22:38.000Z</time>
      </trkpt>
      <trkpt lat="45.06769" lon="2.6805">
        <ele>1196.1999511719</ele>
        <time>2020-08-03T09:22:39.000Z</time>
      </trkpt>
      <trkpt lat="45.06765" lon="2.68048">
        <ele>1196.8000488281</ele>
        <time>2020-08-03T09:22:44.000Z</time>
      </trkpt>
      <trkpt lat="45.06762" lon="2.68043">
        <ele>1197.1999511719</ele>
        <time>2020-08-03T09:22:49.000Z</time>
      </trkpt>
      <trkpt lat="45.06761" lon="2.68042">
        <ele>1197.1999511719</ele>
        <time>2020-08-03T09:22:51.000Z</time>
      </trkpt>
      <trkpt lat="45.06758" lon="2.68042">
        <ele>1197.4000244141</ele>
        <time>2020-08-03T09:22:58.000Z</time>
      </trkpt>
      <trkpt lat="45.06754" lon="2.68038">
        <ele>1198</ele>
        <time>2020-08-03T09:23:04.000Z</time>
      </trkpt>
      <trkpt lat="45.06754" lon="2.68037">
        <ele>1198.1999511719</ele>
        <time>2020-08-03T09:23:05.000Z</time>
      </trkpt>
      <trkpt lat="45.06754" lon="2.68036">
        <ele>1198.4000244141</ele>
        <time>2020-08-03T09:23:06.000Z</time>
      </trkpt>
      <trkpt lat="45.0675" lon="2.68031">
        <ele>1199</ele>
        <time>2020-08-03T09:23:12.000Z</time>
      </trkpt>
      <trkpt lat="45.06749" lon="2.68029">
        <ele>1199.5999755859</ele>
        <time>2020-08-03T09:23:14.000Z</time>
      </trkpt>
      <trkpt lat="45.06749" lon="2.68028">
        <ele>1200</ele>
        <time>2020-08-03T09:23:17.000Z</time>
      </trkpt>
      <trkpt lat="45.06745" lon="2.68019">
        <ele>1200.8000488281</ele>
        <time>2020-08-03T09:23:24.000Z</time>
      </trkpt>
      <trkpt lat="45.06746" lon="2.68007">
        <ele>1201.4000244141</ele>
        <time>2020-08-03T09:23:31.000Z</time>
      </trkpt>
      <trkpt lat="45.0675" lon="2.67999">
        <ele>1201.1999511719</ele>
        <time>2020-08-03T09:23:38.000Z</time>
      </trkpt>
      <trkpt lat="45.06751" lon="2.67988">
        <ele>1201.4000244141</ele>
        <time>2020-08-03T09:23:44.000Z</time>
      </trkpt>
      <trkpt lat="45.06752" lon="2.67978">
        <ele>1201.5999755859</ele>
        <time>2020-08-03T09:23:50.000Z</time>
      </trkpt>
      <trkpt lat="45.06753" lon="2.67971">
        <ele>1201.8000488281</ele>
        <time>2020-08-03T09:23:53.000Z</time>
      </trkpt>
      <trkpt lat="45.06753" lon="2.6797">
        <ele>1201.8000488281</ele>
        <time>2020-08-03T09:23:55.000Z</time>
      </trkpt>
      <trkpt lat="45.06753" lon="2.67969">
        <ele>1201.8000488281</ele>
        <time>2020-08-03T09:23:56.000Z</time>
      </trkpt>
      <trkpt lat="45.06754" lon="2.67965">
        <ele>1202.4000244141</ele>
        <time>2020-08-03T09:24:00.000Z</time>
      </trkpt>
      <trkpt lat="45.06753" lon="2.67957">
        <ele>1202.8000488281</ele>
        <time>2020-08-03T09:24:07.000Z</time>
      </trkpt>
      <trkpt lat="45.0675" lon="2.67948">
        <ele>1203.4000244141</ele>
        <time>2020-08-03T09:24:13.000Z</time>
      </trkpt>
      <trkpt lat="45.06748" lon="2.67945">
        <ele>1203.5999755859</ele>
        <time>2020-08-03T09:24:15.000Z</time>
      </trkpt>
      <trkpt lat="45.06749" lon="2.67943">
        <ele>1203.8000488281</ele>
        <time>2020-08-03T09:24:17.000Z</time>
      </trkpt>
      <trkpt lat="45.0675" lon="2.67937">
        <ele>1204.1999511719</ele>
        <time>2020-08-03T09:24:22.000Z</time>
      </trkpt>
      <trkpt lat="45.06744" lon="2.67928">
        <ele>1204.8000488281</ele>
        <time>2020-08-03T09:24:29.000Z</time>
      </trkpt>
      <trkpt lat="45.06744" lon="2.67929">
        <ele>1204.8000488281</ele>
        <time>2020-08-03T09:24:30.000Z</time>
      </trkpt>
      <trkpt lat="45.06739" lon="2.67927">
        <ele>1205.4000244141</ele>
        <time>2020-08-03T09:24:35.000Z</time>
      </trkpt>
      <trkpt lat="45.06736" lon="2.67926">
        <ele>1206</ele>
        <time>2020-08-03T09:24:39.000Z</time>
      </trkpt>
      <trkpt lat="45.06735" lon="2.67927">
        <ele>1206.1999511719</ele>
        <time>2020-08-03T09:24:41.000Z</time>
      </trkpt>
      <trkpt lat="45.06731" lon="2.67928">
        <ele>1207</ele>
        <time>2020-08-03T09:24:47.000Z</time>
      </trkpt>
      <trkpt lat="45.06729" lon="2.67934">
        <ele>1207.5999755859</ele>
        <time>2020-08-03T09:24:53.000Z</time>
      </trkpt>
      <trkpt lat="45.06728" lon="2.67938">
        <ele>1208.1999511719</ele>
        <time>2020-08-03T09:24:58.000Z</time>
      </trkpt>
      <trkpt lat="45.06727" lon="2.67939">
        <ele>1208.4000244141</ele>
        <time>2020-08-03T09:24:59.000Z</time>
      </trkpt>
      <trkpt lat="45.06725" lon="2.67942">
        <ele>1208.5999755859</ele>
        <time>2020-08-03T09:25:03.000Z</time>
      </trkpt>
      <trkpt lat="45.06726" lon="2.67945">
        <ele>1208.8000488281</ele>
        <time>2020-08-03T09:25:06.000Z</time>
      </trkpt>
      <trkpt lat="45.06725" lon="2.67949">
        <ele>1209.1999511719</ele>
        <time>2020-08-03T09:25:10.000Z</time>
      </trkpt>
      <trkpt lat="45.06725" lon="2.67951">
        <ele>1209.4000244141</ele>
        <time>2020-08-03T09:25:12.000Z</time>
      </trkpt>
      <trkpt lat="45.06722" lon="2.67957">
        <ele>1209.4000244141</ele>
        <time>2020-08-03T09:25:19.000Z</time>
      </trkpt>
      <trkpt lat="45.06718" lon="2.67961">
        <ele>1210.1999511719</ele>
        <time>2020-08-03T09:25:25.000Z</time>
      </trkpt>
      <trkpt lat="45.06717" lon="2.67962">
        <ele>1210.4000244141</ele>
        <time>2020-08-03T09:25:26.000Z</time>
      </trkpt>
      <trkpt lat="45.06715" lon="2.67967">
        <ele>1211.4000244141</ele>
        <time>2020-08-03T09:25:32.000Z</time>
      </trkpt>
      <trkpt lat="45.06711" lon="2.67973">
        <ele>1211.8000488281</ele>
        <time>2020-08-03T09:25:38.000Z</time>
      </trkpt>
      <trkpt lat="45.06708" lon="2.6798">
        <ele>1212.1999511719</ele>
        <time>2020-08-03T09:25:43.000Z</time>
      </trkpt>
      <trkpt lat="45.06707" lon="2.67982">
        <ele>1212.4000244141</ele>
        <time>2020-08-03T09:25:45.000Z</time>
      </trkpt>
      <trkpt lat="45.06706" lon="2.67983">
        <ele>1212.5999755859</ele>
        <time>2020-08-03T09:25:46.000Z</time>
      </trkpt>
      <trkpt lat="45.06703" lon="2.67986">
        <ele>1213.1999511719</ele>
        <time>2020-08-03T09:25:51.000Z</time>
      </trkpt>
      <trkpt lat="45.06702" lon="2.67986">
        <ele>1213.1999511719</ele>
        <time>2020-08-03T09:25:52.000Z</time>
      </trkpt>
      <trkpt lat="45.06698" lon="2.6799">
        <ele>1213.4000244141</ele>
        <time>2020-08-03T09:25:57.000Z</time>
      </trkpt>
      <trkpt lat="45.06697" lon="2.67991">
        <ele>1213.4000244141</ele>
        <time>2020-08-03T09:25:58.000Z</time>
      </trkpt>
      <trkpt lat="45.06696" lon="2.67991">
        <ele>1213.4000244141</ele>
        <time>2020-08-03T09:25:59.000Z</time>
      </trkpt>
      <trkpt lat="45.06694" lon="2.67995">
        <ele>1213.4000244141</ele>
        <time>2020-08-03T09:26:03.000Z</time>
      </trkpt>
      <trkpt lat="45.06692" lon="2.67997">
        <ele>1214</ele>
        <time>2020-08-03T09:26:05.000Z</time>
      </trkpt>
      <trkpt lat="45.0669" lon="2.67998">
        <ele>1214.4000244141</ele>
        <time>2020-08-03T09:26:07.000Z</time>
      </trkpt>
      <trkpt lat="45.06688" lon="2.68002">
        <ele>1215</ele>
        <time>2020-08-03T09:26:11.000Z</time>
      </trkpt>
      <trkpt lat="45.06687" lon="2.68004">
        <ele>1215</ele>
        <time>2020-08-03T09:26:13.000Z</time>
      </trkpt>
      <trkpt lat="45.06685" lon="2.68007">
        <ele>1215.4000244141</ele>
        <time>2020-08-03T09:26:16.000Z</time>
      </trkpt>
      <trkpt lat="45.06684" lon="2.68008">
        <ele>1215.5999755859</ele>
        <time>2020-08-03T09:26:17.000Z</time>
      </trkpt>
      <trkpt lat="45.06682" lon="2.68009">
        <ele>1215.8000488281</ele>
        <time>2020-08-03T09:26:19.000Z</time>
      </trkpt>
      <trkpt lat="45.06678" lon="2.68012">
        <ele>1216.5999755859</ele>
        <time>2020-08-03T09:26:25.000Z</time>
      </trkpt>
      <trkpt lat="45.06677" lon="2.68013">
        <ele>1216.5999755859</ele>
        <time>2020-08-03T09:26:27.000Z</time>
      </trkpt>
      <trkpt lat="45.06673" lon="2.68017">
        <ele>1217</ele>
        <time>2020-08-03T09:26:33.000Z</time>
      </trkpt>
      <trkpt lat="45.06672" lon="2.68019">
        <ele>1217.4000244141</ele>
        <time>2020-08-03T09:26:35.000Z</time>
      </trkpt>
      <trkpt lat="45.06671" lon="2.6802">
        <ele>1217.5999755859</ele>
        <time>2020-08-03T09:26:36.000Z</time>
      </trkpt>
      <trkpt lat="45.06671" lon="2.6802">
        <ele>1217.8000488281</ele>
        <time>2020-08-03T09:26:37.000Z</time>
      </trkpt>
      <trkpt lat="45.06669" lon="2.68024">
        <ele>1218.1999511719</ele>
        <time>2020-08-03T09:26:41.000Z</time>
      </trkpt>
      <trkpt lat="45.06668" lon="2.68025">
        <ele>1218.4000244141</ele>
        <time>2020-08-03T09:26:42.000Z</time>
      </trkpt>
      <trkpt lat="45.06667" lon="2.68027">
        <ele>1218.5999755859</ele>
        <time>2020-08-03T09:26:45.000Z</time>
      </trkpt>
      <trkpt lat="45.06664" lon="2.6803">
        <ele>1219</ele>
        <time>2020-08-03T09:26:49.000Z</time>
      </trkpt>
      <trkpt lat="45.06658" lon="2.68031">
        <ele>1219.8000488281</ele>
        <time>2020-08-03T09:26:57.000Z</time>
      </trkpt>
      <trkpt lat="45.06651" lon="2.68032">
        <ele>1220.1999511719</ele>
        <time>2020-08-03T09:27:03.000Z</time>
      </trkpt>
      <trkpt lat="45.06643" lon="2.68035">
        <ele>1220.4000244141</ele>
        <time>2020-08-03T09:27:10.000Z</time>
      </trkpt>
      <trkpt lat="45.06642" lon="2.68035">
        <ele>1220.4000244141</ele>
        <time>2020-08-03T09:27:11.000Z</time>
      </trkpt>
      <trkpt lat="45.06637" lon="2.68039">
        <ele>1220.8000488281</ele>
        <time>2020-08-03T09:27:16.000Z</time>
      </trkpt>
      <trkpt lat="45.06633" lon="2.68044">
        <ele>1221.1999511719</ele>
        <time>2020-08-03T09:27:22.000Z</time>
      </trkpt>
      <trkpt lat="45.06633" lon="2.68045">
        <ele>1221.4000244141</ele>
        <time>2020-08-03T09:27:23.000Z</time>
      </trkpt>
      <trkpt lat="45.0663" lon="2.68048">
        <ele>1222</ele>
        <time>2020-08-03T09:27:27.000Z</time>
      </trkpt>
      <trkpt lat="45.06627" lon="2.68047">
        <ele>1222.1999511719</ele>
        <time>2020-08-03T09:27:31.000Z</time>
      </trkpt>
      <trkpt lat="45.0662" lon="2.68046">
        <ele>1222.8000488281</ele>
        <time>2020-08-03T09:27:38.000Z</time>
      </trkpt>
      <trkpt lat="45.06618" lon="2.68046">
        <ele>1223.1999511719</ele>
        <time>2020-08-03T09:27:39.000Z</time>
      </trkpt>
      <trkpt lat="45.06618" lon="2.68043">
        <ele>1224</ele>
        <time>2020-08-03T09:27:44.000Z</time>
      </trkpt>
      <trkpt lat="45.06618" lon="2.68042">
        <ele>1224.1999511719</ele>
        <time>2020-08-03T09:27:45.000Z</time>
      </trkpt>
      <trkpt lat="45.06622" lon="2.68034">
        <ele>1224.5999755859</ele>
        <time>2020-08-03T09:27:51.000Z</time>
      </trkpt>
      <trkpt lat="45.06624" lon="2.68029">
        <ele>1225.1999511719</ele>
        <time>2020-08-03T09:27:55.000Z</time>
      </trkpt>
      <trkpt lat="45.06626" lon="2.68027">
        <ele>1225.5999755859</ele>
        <time>2020-08-03T09:27:57.000Z</time>
      </trkpt>
      <trkpt lat="45.0663" lon="2.68021">
        <ele>1225.8000488281</ele>
        <time>2020-08-03T09:28:02.000Z</time>
      </trkpt>
      <trkpt lat="45.06631" lon="2.68016">
        <ele>1226.4000244141</ele>
        <time>2020-08-03T09:28:06.000Z</time>
      </trkpt>
      <trkpt lat="45.06632" lon="2.68012">
        <ele>1226.8000488281</ele>
        <time>2020-08-03T09:28:09.000Z</time>
      </trkpt>
      <trkpt lat="45.06637" lon="2.68006">
        <ele>1227</ele>
        <time>2020-08-03T09:28:16.000Z</time>
      </trkpt>
      <trkpt lat="45.06638" lon="2.67998">
        <ele>1227</ele>
        <time>2020-08-03T09:28:22.000Z</time>
      </trkpt>
      <trkpt lat="45.0664" lon="2.67996">
        <ele>1227.5999755859</ele>
        <time>2020-08-03T09:28:26.000Z</time>
      </trkpt>
      <trkpt lat="45.0664" lon="2.67992">
        <ele>1227.5999755859</ele>
        <time>2020-08-03T09:28:28.000Z</time>
      </trkpt>
      <trkpt lat="45.06642" lon="2.67986">
        <ele>1228.1999511719</ele>
        <time>2020-08-03T09:28:34.000Z</time>
      </trkpt>
      <trkpt lat="45.06642" lon="2.67984">
        <ele>1228.5999755859</ele>
        <time>2020-08-03T09:28:36.000Z</time>
      </trkpt>
      <trkpt lat="45.06641" lon="2.67976">
        <ele>1229.4000244141</ele>
        <time>2020-08-03T09:28:42.000Z</time>
      </trkpt>
      <trkpt lat="45.0664" lon="2.67974">
        <ele>1229.8000488281</ele>
        <time>2020-08-03T09:28:44.000Z</time>
      </trkpt>
      <trkpt lat="45.06639" lon="2.67973">
        <ele>1229.8000488281</ele>
        <time>2020-08-03T09:28:45.000Z</time>
      </trkpt>
      <trkpt lat="45.06639" lon="2.6797">
        <ele>1229.8000488281</ele>
        <time>2020-08-03T09:28:47.000Z</time>
      </trkpt>
      <trkpt lat="45.06639" lon="2.67968">
        <ele>1229.8000488281</ele>
        <time>2020-08-03T09:28:48.000Z</time>
      </trkpt>
      <trkpt lat="45.06639" lon="2.67963">
        <ele>1229.8000488281</ele>
        <time>2020-08-03T09:28:53.000Z</time>
      </trkpt>
      <trkpt lat="45.06637" lon="2.67954">
        <ele>1230.1999511719</ele>
        <time>2020-08-03T09:29:00.000Z</time>
      </trkpt>
      <trkpt lat="45.06634" lon="2.67947">
        <ele>1230.5999755859</ele>
        <time>2020-08-03T09:29:06.000Z</time>
      </trkpt>
      <trkpt lat="45.06633" lon="2.67946">
        <ele>1231</ele>
        <time>2020-08-03T09:29:07.000Z</time>
      </trkpt>
      <trkpt lat="45.06633" lon="2.67938">
        <ele>1231.5999755859</ele>
        <time>2020-08-03T09:29:12.000Z</time>
      </trkpt>
      <trkpt lat="45.06633" lon="2.67936">
        <ele>1231.5999755859</ele>
        <time>2020-08-03T09:29:13.000Z</time>
      </trkpt>
      <trkpt lat="45.06633" lon="2.67932">
        <ele>1232.1999511719</ele>
        <time>2020-08-03T09:29:17.000Z</time>
      </trkpt>
      <trkpt lat="45.06633" lon="2.6793">
        <ele>1232.5999755859</ele>
        <time>2020-08-03T09:29:19.000Z</time>
      </trkpt>
      <trkpt lat="45.06633" lon="2.67923">
        <ele>1233</ele>
        <time>2020-08-03T09:29:26.000Z</time>
      </trkpt>
      <trkpt lat="45.06634" lon="2.67921">
        <ele>1233.1999511719</ele>
        <time>2020-08-03T09:29:27.000Z</time>
      </trkpt>
      <trkpt lat="45.06635" lon="2.67913">
        <ele>1233.1999511719</ele>
        <time>2020-08-03T09:29:34.000Z</time>
      </trkpt>
      <trkpt lat="45.06635" lon="2.67905">
        <ele>1233.8000488281</ele>
        <time>2020-08-03T09:29:39.000Z</time>
      </trkpt>
      <trkpt lat="45.06636" lon="2.67902">
        <ele>1234.1999511719</ele>
        <time>2020-08-03T09:29:42.000Z</time>
      </trkpt>
      <trkpt lat="45.06636" lon="2.67901">
        <ele>1234.1999511719</ele>
        <time>2020-08-03T09:29:43.000Z</time>
      </trkpt>
      <trkpt lat="45.06635" lon="2.67891">
        <ele>1235</ele>
        <time>2020-08-03T09:29:50.000Z</time>
      </trkpt>
      <trkpt lat="45.06635" lon="2.67889">
        <ele>1235.4000244141</ele>
        <time>2020-08-03T09:29:52.000Z</time>
      </trkpt>
      <trkpt lat="45.06633" lon="2.6788">
        <ele>1235.8000488281</ele>
        <time>2020-08-03T09:29:57.000Z</time>
      </trkpt>
      <trkpt lat="45.06632" lon="2.67879">
        <ele>1235.8000488281</ele>
        <time>2020-08-03T09:29:58.000Z</time>
      </trkpt>
      <trkpt lat="45.06631" lon="2.67875">
        <ele>1236</ele>
        <time>2020-08-03T09:30:01.000Z</time>
      </trkpt>
      <trkpt lat="45.0663" lon="2.67868">
        <ele>1236.4000244141</ele>
        <time>2020-08-03T09:30:06.000Z</time>
      </trkpt>
      <trkpt lat="45.06627" lon="2.67864">
        <ele>1236.5999755859</ele>
        <time>2020-08-03T09:30:10.000Z</time>
      </trkpt>
      <trkpt lat="45.06624" lon="2.67862">
        <ele>1236.4000244141</ele>
        <time>2020-08-03T09:30:13.000Z</time>
      </trkpt>
      <trkpt lat="45.06619" lon="2.67858">
        <ele>1236.5999755859</ele>
        <time>2020-08-03T09:30:19.000Z</time>
      </trkpt>
      <trkpt lat="45.06615" lon="2.67856">
        <ele>1237.4000244141</ele>
        <time>2020-08-03T09:30:26.000Z</time>
      </trkpt>
      <trkpt lat="45.06614" lon="2.67856">
        <ele>1237.5999755859</ele>
        <time>2020-08-03T09:30:27.000Z</time>
      </trkpt>
      <trkpt lat="45.0661" lon="2.67854">
        <ele>1238.4000244141</ele>
        <time>2020-08-03T09:30:32.000Z</time>
      </trkpt>
      <trkpt lat="45.0661" lon="2.67855">
        <ele>1238.5999755859</ele>
        <time>2020-08-03T09:30:33.000Z</time>
      </trkpt>
      <trkpt lat="45.06607" lon="2.67853">
        <ele>1239.4000244141</ele>
        <time>2020-08-03T09:30:39.000Z</time>
      </trkpt>
      <trkpt lat="45.06606" lon="2.67851">
        <ele>1239.5999755859</ele>
        <time>2020-08-03T09:30:42.000Z</time>
      </trkpt>
      <trkpt lat="45.06605" lon="2.67851">
        <ele>1240</ele>
        <time>2020-08-03T09:30:46.000Z</time>
      </trkpt>
      <trkpt lat="45.06609" lon="2.67855">
        <ele>1239.5999755859</ele>
        <time>2020-08-03T09:30:54.000Z</time>
      </trkpt>
      <trkpt lat="45.06609" lon="2.67864">
        <ele>1239.1999511719</ele>
        <time>2020-08-03T09:31:03.000Z</time>
      </trkpt>
      <trkpt lat="45.06608" lon="2.67859">
        <ele>1239.4000244141</ele>
        <time>2020-08-03T09:31:13.000Z</time>
      </trkpt>
      <trkpt lat="45.06607" lon="2.67858">
        <ele>1238.8000488281</ele>
        <time>2020-08-03T09:31:22.000Z</time>
      </trkpt>
      <trkpt lat="45.06608" lon="2.67864">
        <ele>1239.1999511719</ele>
        <time>2020-08-03T09:31:27.000Z</time>
      </trkpt>
      <trkpt lat="45.06607" lon="2.67867">
        <ele>1239.5999755859</ele>
        <time>2020-08-03T09:31:29.000Z</time>
      </trkpt>
      <trkpt lat="45.06607" lon="2.67869">
        <ele>1239.8000488281</ele>
        <time>2020-08-03T09:31:30.000Z</time>
      </trkpt>
      <trkpt lat="45.06605" lon="2.67873">
        <ele>1240.1999511719</ele>
        <time>2020-08-03T09:31:34.000Z</time>
      </trkpt>
      <trkpt lat="45.06605" lon="2.67875">
        <ele>1240.1999511719</ele>
        <time>2020-08-03T09:31:38.000Z</time>
      </trkpt>
      <trkpt lat="45.06604" lon="2.67878">
        <ele>1240</ele>
        <time>2020-08-03T09:31:40.000Z</time>
      </trkpt>
      <trkpt lat="45.06602" lon="2.6788">
        <ele>1240</ele>
        <time>2020-08-03T09:31:44.000Z</time>
      </trkpt>
      <trkpt lat="45.06598" lon="2.67889">
        <ele>1240.5999755859</ele>
        <time>2020-08-03T09:31:51.000Z</time>
      </trkpt>
      <trkpt lat="45.06596" lon="2.67897">
        <ele>1240.5999755859</ele>
        <time>2020-08-03T09:31:57.000Z</time>
      </trkpt>
      <trkpt lat="45.06595" lon="2.67898">
        <ele>1240.5999755859</ele>
        <time>2020-08-03T09:31:58.000Z</time>
      </trkpt>
      <trkpt lat="45.06593" lon="2.67901">
        <ele>1240.8000488281</ele>
        <time>2020-08-03T09:32:01.000Z</time>
      </trkpt>
      <trkpt lat="45.06589" lon="2.67907">
        <ele>1241.1999511719</ele>
        <time>2020-08-03T09:32:06.000Z</time>
      </trkpt>
      <trkpt lat="45.06588" lon="2.67909">
        <ele>1241.5999755859</ele>
        <time>2020-08-03T09:32:08.000Z</time>
      </trkpt>
      <trkpt lat="45.06588" lon="2.67911">
        <ele>1242</ele>
        <time>2020-08-03T09:32:09.000Z</time>
      </trkpt>
      <trkpt lat="45.06587" lon="2.67914">
        <ele>1242.1999511719</ele>
        <time>2020-08-03T09:32:12.000Z</time>
      </trkpt>
      <trkpt lat="45.06584" lon="2.67921">
        <ele>1242.8000488281</ele>
        <time>2020-08-03T09:32:18.000Z</time>
      </trkpt>
      <trkpt lat="45.06583" lon="2.67926">
        <ele>1242.5999755859</ele>
        <time>2020-08-03T09:32:21.000Z</time>
      </trkpt>
      <trkpt lat="45.06582" lon="2.67931">
        <ele>1242.5999755859</ele>
        <time>2020-08-03T09:32:25.000Z</time>
      </trkpt>
      <trkpt lat="45.06581" lon="2.67933">
        <ele>1242.5999755859</ele>
        <time>2020-08-03T09:32:27.000Z</time>
      </trkpt>
      <trkpt lat="45.06579" lon="2.67938">
        <ele>1242.4000244141</ele>
        <time>2020-08-03T09:32:31.000Z</time>
      </trkpt>
      <trkpt lat="45.06577" lon="2.67944">
        <ele>1242.4000244141</ele>
        <time>2020-08-03T09:32:37.000Z</time>
      </trkpt>
      <trkpt lat="45.06575" lon="2.67947">
        <ele>1243</ele>
        <time>2020-08-03T09:32:41.000Z</time>
      </trkpt>
      <trkpt lat="45.06576" lon="2.67948">
        <ele>1243.1999511719</ele>
        <time>2020-08-03T09:32:42.000Z</time>
      </trkpt>
      <trkpt lat="45.06576" lon="2.6795">
        <ele>1243.4000244141</ele>
        <time>2020-08-03T09:32:44.000Z</time>
      </trkpt>
      <trkpt lat="45.06576" lon="2.67959">
        <ele>1244</ele>
        <time>2020-08-03T09:32:50.000Z</time>
      </trkpt>
      <trkpt lat="45.06574" lon="2.67966">
        <ele>1244.5999755859</ele>
        <time>2020-08-03T09:32:58.000Z</time>
      </trkpt>
      <trkpt lat="45.06572" lon="2.67967">
        <ele>1244.8000488281</ele>
        <time>2020-08-03T09:33:00.000Z</time>
      </trkpt>
      <trkpt lat="45.06567" lon="2.67973">
        <ele>1245</ele>
        <time>2020-08-03T09:33:04.000Z</time>
      </trkpt>
      <trkpt lat="45.06565" lon="2.67974">
        <ele>1245.4000244141</ele>
        <time>2020-08-03T09:33:06.000Z</time>
      </trkpt>
      <trkpt lat="45.06565" lon="2.67975">
        <ele>1245.4000244141</ele>
        <time>2020-08-03T09:33:07.000Z</time>
      </trkpt>
      <trkpt lat="45.06561" lon="2.67976">
        <ele>1246</ele>
        <time>2020-08-03T09:33:11.000Z</time>
      </trkpt>
      <trkpt lat="45.06559" lon="2.67976">
        <ele>1246.1999511719</ele>
        <time>2020-08-03T09:33:12.000Z</time>
      </trkpt>
      <trkpt lat="45.06552" lon="2.67979">
        <ele>1247</ele>
        <time>2020-08-03T09:33:19.000Z</time>
      </trkpt>
      <trkpt lat="45.06551" lon="2.6798">
        <ele>1247.1999511719</ele>
        <time>2020-08-03T09:33:21.000Z</time>
      </trkpt>
      <trkpt lat="45.06546" lon="2.67988">
        <ele>1247.4000244141</ele>
        <time>2020-08-03T09:33:27.000Z</time>
      </trkpt>
      <trkpt lat="45.06546" lon="2.67992">
        <ele>1247.8000488281</ele>
        <time>2020-08-03T09:33:29.000Z</time>
      </trkpt>
      <trkpt lat="45.06545" lon="2.67996">
        <ele>1248.1999511719</ele>
        <time>2020-08-03T09:33:31.000Z</time>
      </trkpt>
      <trkpt lat="45.06545" lon="2.68">
        <ele>1248.5999755859</ele>
        <time>2020-08-03T09:33:33.000Z</time>
      </trkpt>
      <trkpt lat="45.06548" lon="2.68007">
        <ele>1248.8000488281</ele>
        <time>2020-08-03T09:33:39.000Z</time>
      </trkpt>
      <trkpt lat="45.06553" lon="2.68015">
        <ele>1249.1999511719</ele>
        <time>2020-08-03T09:33:46.000Z</time>
      </trkpt>
      <trkpt lat="45.06556" lon="2.68017">
        <ele>1249.1999511719</ele>
        <time>2020-08-03T09:33:49.000Z</time>
      </trkpt>
      <trkpt lat="45.06558" lon="2.6802">
        <ele>1249</ele>
        <time>2020-08-03T09:33:52.000Z</time>
      </trkpt>
      <trkpt lat="45.06558" lon="2.68021">
        <ele>1249</ele>
        <time>2020-08-03T09:33:53.000Z</time>
      </trkpt>
      <trkpt lat="45.0656" lon="2.68028">
        <ele>1249.4000244141</ele>
        <time>2020-08-03T09:33:58.000Z</time>
      </trkpt>
      <trkpt lat="45.0656" lon="2.68037">
        <ele>1249.4000244141</ele>
        <time>2020-08-03T09:34:05.000Z</time>
      </trkpt>
      <trkpt lat="45.0656" lon="2.68042">
        <ele>1249.5999755859</ele>
        <time>2020-08-03T09:34:10.000Z</time>
      </trkpt>
      <trkpt lat="45.06559" lon="2.68045">
        <ele>1249.8000488281</ele>
        <time>2020-08-03T09:34:12.000Z</time>
      </trkpt>
      <trkpt lat="45.0656" lon="2.68046">
        <ele>1250.1999511719</ele>
        <time>2020-08-03T09:34:16.000Z</time>
      </trkpt>
      <trkpt lat="45.06561" lon="2.68046">
        <ele>1250.4000244141</ele>
        <time>2020-08-03T09:34:19.000Z</time>
      </trkpt>
      <trkpt lat="45.06562" lon="2.68047">
        <ele>1250.4000244141</ele>
        <time>2020-08-03T09:34:20.000Z</time>
      </trkpt>
      <trkpt lat="45.06561" lon="2.68054">
        <ele>1250.5999755859</ele>
        <time>2020-08-03T09:34:25.000Z</time>
      </trkpt>
      <trkpt lat="45.06558" lon="2.68062">
        <ele>1251</ele>
        <time>2020-08-03T09:34:31.000Z</time>
      </trkpt>
      <trkpt lat="45.06557" lon="2.68066">
        <ele>1251.1999511719</ele>
        <time>2020-08-03T09:34:34.000Z</time>
      </trkpt>
      <trkpt lat="45.06556" lon="2.68073">
        <ele>1251.5999755859</ele>
        <time>2020-08-03T09:34:39.000Z</time>
      </trkpt>
      <trkpt lat="45.06555" lon="2.68078">
        <ele>1251.5999755859</ele>
        <time>2020-08-03T09:34:42.000Z</time>
      </trkpt>
      <trkpt lat="45.06554" lon="2.68081">
        <ele>1251.8000488281</ele>
        <time>2020-08-03T09:34:44.000Z</time>
      </trkpt>
      <trkpt lat="45.06548" lon="2.68088">
        <ele>1252.1999511719</ele>
        <time>2020-08-03T09:34:51.000Z</time>
      </trkpt>
      <trkpt lat="45.06548" lon="2.68089">
        <ele>1252</ele>
        <time>2020-08-03T09:34:52.000Z</time>
      </trkpt>
      <trkpt lat="45.06544" lon="2.68093">
        <ele>1252.1999511719</ele>
        <time>2020-08-03T09:34:55.000Z</time>
      </trkpt>
      <trkpt lat="45.06543" lon="2.68095">
        <ele>1252</ele>
        <time>2020-08-03T09:34:56.000Z</time>
      </trkpt>
      <trkpt lat="45.06539" lon="2.68097">
        <ele>1252.4000244141</ele>
        <time>2020-08-03T09:34:59.000Z</time>
      </trkpt>
      <trkpt lat="45.06538" lon="2.68101">
        <ele>1252.5999755859</ele>
        <time>2020-08-03T09:35:02.000Z</time>
      </trkpt>
      <trkpt lat="45.06537" lon="2.68106">
        <ele>1252.8000488281</ele>
        <time>2020-08-03T09:35:05.000Z</time>
      </trkpt>
      <trkpt lat="45.06537" lon="2.68109">
        <ele>1252.5999755859</ele>
        <time>2020-08-03T09:35:07.000Z</time>
      </trkpt>
      <trkpt lat="45.06537" lon="2.68116">
        <ele>1252.5999755859</ele>
        <time>2020-08-03T09:35:14.000Z</time>
      </trkpt>
      <trkpt lat="45.06537" lon="2.68117">
        <ele>1252.8000488281</ele>
        <time>2020-08-03T09:35:15.000Z</time>
      </trkpt>
      <trkpt lat="45.06539" lon="2.6812">
        <ele>1253.4000244141</ele>
        <time>2020-08-03T09:35:18.000Z</time>
      </trkpt>
      <trkpt lat="45.06539" lon="2.68121">
        <ele>1253.5999755859</ele>
        <time>2020-08-03T09:35:19.000Z</time>
      </trkpt>
      <trkpt lat="45.0654" lon="2.68124">
        <ele>1253.5999755859</ele>
        <time>2020-08-03T09:35:21.000Z</time>
      </trkpt>
      <trkpt lat="45.06541" lon="2.68125">
        <ele>1253.5999755859</ele>
        <time>2020-08-03T09:35:22.000Z</time>
      </trkpt>
      <trkpt lat="45.06544" lon="2.68135">
        <ele>1253.8000488281</ele>
        <time>2020-08-03T09:35:28.000Z</time>
      </trkpt>
      <trkpt lat="45.06547" lon="2.68144">
        <ele>1254.1999511719</ele>
        <time>2020-08-03T09:35:34.000Z</time>
      </trkpt>
      <trkpt lat="45.06548" lon="2.68156">
        <ele>1254</ele>
        <time>2020-08-03T09:35:41.000Z</time>
      </trkpt>
      <trkpt lat="45.06544" lon="2.68162">
        <ele>1254.4000244141</ele>
        <time>2020-08-03T09:35:48.000Z</time>
      </trkpt>
      <trkpt lat="45.06544" lon="2.68163">
        <ele>1254.1999511719</ele>
        <time>2020-08-03T09:35:49.000Z</time>
      </trkpt>
      <trkpt lat="45.06544" lon="2.68165">
        <ele>1254.4000244141</ele>
        <time>2020-08-03T09:35:51.000Z</time>
      </trkpt>
      <trkpt lat="45.06544" lon="2.68167">
        <ele>1254.4000244141</ele>
        <time>2020-08-03T09:35:52.000Z</time>
      </trkpt>
      <trkpt lat="45.06543" lon="2.68171">
        <ele>1254.8000488281</ele>
        <time>2020-08-03T09:35:55.000Z</time>
      </trkpt>
      <trkpt lat="45.06543" lon="2.68179">
        <ele>1255.4000244141</ele>
        <time>2020-08-03T09:36:01.000Z</time>
      </trkpt>
      <trkpt lat="45.06544" lon="2.68181">
        <ele>1255.5999755859</ele>
        <time>2020-08-03T09:36:05.000Z</time>
      </trkpt>
      <trkpt lat="45.06545" lon="2.68181">
        <ele>1255.8000488281</ele>
        <time>2020-08-03T09:36:07.000Z</time>
      </trkpt>
      <trkpt lat="45.06546" lon="2.68185">
        <ele>1255.8000488281</ele>
        <time>2020-08-03T09:36:13.000Z</time>
      </trkpt>
      <trkpt lat="45.06545" lon="2.68186">
        <ele>1255.8000488281</ele>
        <time>2020-08-03T09:36:16.000Z</time>
      </trkpt>
      <trkpt lat="45.06543" lon="2.68191">
        <ele>1255.8000488281</ele>
        <time>2020-08-03T09:36:19.000Z</time>
      </trkpt>
      <trkpt lat="45.0654" lon="2.68205">
        <ele>1255.8000488281</ele>
        <time>2020-08-03T09:36:26.000Z</time>
      </trkpt>
      <trkpt lat="45.06539" lon="2.6821">
        <ele>1256.4000244141</ele>
        <time>2020-08-03T09:36:30.000Z</time>
      </trkpt>
      <trkpt lat="45.06538" lon="2.68215">
        <ele>1256.5999755859</ele>
        <time>2020-08-03T09:36:33.000Z</time>
      </trkpt>
      <trkpt lat="45.06537" lon="2.68222">
        <ele>1257.1999511719</ele>
        <time>2020-08-03T09:36:40.000Z</time>
      </trkpt>
      <trkpt lat="45.06536" lon="2.68225">
        <ele>1257.4000244141</ele>
        <time>2020-08-03T09:36:43.000Z</time>
      </trkpt>
      <trkpt lat="45.06536" lon="2.68228">
        <ele>1257.5999755859</ele>
        <time>2020-08-03T09:36:45.000Z</time>
      </trkpt>
      <trkpt lat="45.06536" lon="2.6823">
        <ele>1257.8000488281</ele>
        <time>2020-08-03T09:36:46.000Z</time>
      </trkpt>
      <trkpt lat="45.06535" lon="2.68236">
        <ele>1258.4000244141</ele>
        <time>2020-08-03T09:36:52.000Z</time>
      </trkpt>
      <trkpt lat="45.06535" lon="2.6824">
        <ele>1258.8000488281</ele>
        <time>2020-08-03T09:36:57.000Z</time>
      </trkpt>
      <trkpt lat="45.06536" lon="2.68243">
        <ele>1259</ele>
        <time>2020-08-03T09:36:59.000Z</time>
      </trkpt>
      <trkpt lat="45.06536" lon="2.68251">
        <ele>1259.5999755859</ele>
        <time>2020-08-03T09:37:06.000Z</time>
      </trkpt>
      <trkpt lat="45.06535" lon="2.68254">
        <ele>1259.5999755859</ele>
        <time>2020-08-03T09:37:09.000Z</time>
      </trkpt>
      <trkpt lat="45.06534" lon="2.6826">
        <ele>1259.5999755859</ele>
        <time>2020-08-03T09:37:12.000Z</time>
      </trkpt>
      <trkpt lat="45.06531" lon="2.68269">
        <ele>1260</ele>
        <time>2020-08-03T09:37:18.000Z</time>
      </trkpt>
      <trkpt lat="45.0653" lon="2.68272">
        <ele>1260.5999755859</ele>
        <time>2020-08-03T09:37:20.000Z</time>
      </trkpt>
      <trkpt lat="45.06528" lon="2.68278">
        <ele>1260.8000488281</ele>
        <time>2020-08-03T09:37:25.000Z</time>
      </trkpt>
      <trkpt lat="45.06528" lon="2.68279">
        <ele>1260.8000488281</ele>
        <time>2020-08-03T09:37:26.000Z</time>
      </trkpt>
      <trkpt lat="45.06527" lon="2.68285">
        <ele>1261</ele>
        <time>2020-08-03T09:37:30.000Z</time>
      </trkpt>
      <trkpt lat="45.06528" lon="2.68291">
        <ele>1261.1999511719</ele>
        <time>2020-08-03T09:37:33.000Z</time>
      </trkpt>
      <trkpt lat="45.06529" lon="2.68299">
        <ele>1261.5999755859</ele>
        <time>2020-08-03T09:37:38.000Z</time>
      </trkpt>
      <trkpt lat="45.06531" lon="2.68304">
        <ele>1261.4000244141</ele>
        <time>2020-08-03T09:37:42.000Z</time>
      </trkpt>
      <trkpt lat="45.0653" lon="2.68312">
        <ele>1261.8000488281</ele>
        <time>2020-08-03T09:37:48.000Z</time>
      </trkpt>
      <trkpt lat="45.06529" lon="2.68321">
        <ele>1262</ele>
        <time>2020-08-03T09:37:54.000Z</time>
      </trkpt>
      <trkpt lat="45.06528" lon="2.68329">
        <ele>1262</ele>
        <time>2020-08-03T09:38:01.000Z</time>
      </trkpt>
      <trkpt lat="45.06528" lon="2.68331">
        <ele>1262.1999511719</ele>
        <time>2020-08-03T09:38:02.000Z</time>
      </trkpt>
      <trkpt lat="45.06532" lon="2.68339">
        <ele>1262.1999511719</ele>
        <time>2020-08-03T09:38:08.000Z</time>
      </trkpt>
      <trkpt lat="45.06532" lon="2.68343">
        <ele>1262.1999511719</ele>
        <time>2020-08-03T09:38:10.000Z</time>
      </trkpt>
      <trkpt lat="45.06533" lon="2.68348">
        <ele>1262.4000244141</ele>
        <time>2020-08-03T09:38:14.000Z</time>
      </trkpt>
      <trkpt lat="45.06534" lon="2.68356">
        <ele>1262.4000244141</ele>
        <time>2020-08-03T09:38:20.000Z</time>
      </trkpt>
      <trkpt lat="45.06534" lon="2.68357">
        <ele>1262.5999755859</ele>
        <time>2020-08-03T09:38:21.000Z</time>
      </trkpt>
      <trkpt lat="45.06534" lon="2.68364">
        <ele>1263.4000244141</ele>
        <time>2020-08-03T09:38:26.000Z</time>
      </trkpt>
      <trkpt lat="45.06536" lon="2.68367">
        <ele>1263.5999755859</ele>
        <time>2020-08-03T09:38:28.000Z</time>
      </trkpt>
      <trkpt lat="45.06536" lon="2.68369">
        <ele>1263.8000488281</ele>
        <time>2020-08-03T09:38:29.000Z</time>
      </trkpt>
      <trkpt lat="45.06537" lon="2.68374">
        <ele>1264</ele>
        <time>2020-08-03T09:38:34.000Z</time>
      </trkpt>
      <trkpt lat="45.06538" lon="2.68376">
        <ele>1264.1999511719</ele>
        <time>2020-08-03T09:38:35.000Z</time>
      </trkpt>
      <trkpt lat="45.06539" lon="2.6838">
        <ele>1264.4000244141</ele>
        <time>2020-08-03T09:38:38.000Z</time>
      </trkpt>
      <trkpt lat="45.06539" lon="2.68381">
        <ele>1264.5999755859</ele>
        <time>2020-08-03T09:38:39.000Z</time>
      </trkpt>
      <trkpt lat="45.06539" lon="2.68382">
        <ele>1264.5999755859</ele>
        <time>2020-08-03T09:38:40.000Z</time>
      </trkpt>
      <trkpt lat="45.06542" lon="2.68384">
        <ele>1264.8000488281</ele>
        <time>2020-08-03T09:38:42.000Z</time>
      </trkpt>
      <trkpt lat="45.06543" lon="2.68387">
        <ele>1265</ele>
        <time>2020-08-03T09:38:46.000Z</time>
      </trkpt>
      <trkpt lat="45.06544" lon="2.68388">
        <ele>1265</ele>
        <time>2020-08-03T09:38:47.000Z</time>
      </trkpt>
      <trkpt lat="45.06547" lon="2.68391">
        <ele>1265.1999511719</ele>
        <time>2020-08-03T09:38:50.000Z</time>
      </trkpt>
      <trkpt lat="45.06548" lon="2.68395">
        <ele>1265.5999755859</ele>
        <time>2020-08-03T09:38:53.000Z</time>
      </trkpt>
      <trkpt lat="45.06549" lon="2.68397">
        <ele>1265.8000488281</ele>
        <time>2020-08-03T09:38:55.000Z</time>
      </trkpt>
      <trkpt lat="45.06553" lon="2.68401">
        <ele>1265.8000488281</ele>
        <time>2020-08-03T09:38:59.000Z</time>
      </trkpt>
      <trkpt lat="45.06554" lon="2.68406">
        <ele>1266</ele>
        <time>2020-08-03T09:39:03.000Z</time>
      </trkpt>
      <trkpt lat="45.06555" lon="2.6841">
        <ele>1266.1999511719</ele>
        <time>2020-08-03T09:39:06.000Z</time>
      </trkpt>
      <trkpt lat="45.06557" lon="2.68416">
        <ele>1266.5999755859</ele>
        <time>2020-08-03T09:39:10.000Z</time>
      </trkpt>
      <trkpt lat="45.06558" lon="2.68419">
        <ele>1266.8000488281</ele>
        <time>2020-08-03T09:39:12.000Z</time>
      </trkpt>
      <trkpt lat="45.06559" lon="2.6843">
        <ele>1266.8000488281</ele>
        <time>2020-08-03T09:39:20.000Z</time>
      </trkpt>
      <trkpt lat="45.06559" lon="2.68437">
        <ele>1267</ele>
        <time>2020-08-03T09:39:26.000Z</time>
      </trkpt>
      <trkpt lat="45.06559" lon="2.6844">
        <ele>1267</ele>
        <time>2020-08-03T09:39:29.000Z</time>
      </trkpt>
      <trkpt lat="45.0656" lon="2.68445">
        <ele>1267.5999755859</ele>
        <time>2020-08-03T09:39:34.000Z</time>
      </trkpt>
      <trkpt lat="45.0656" lon="2.68447">
        <ele>1267.8000488281</ele>
        <time>2020-08-03T09:39:35.000Z</time>
      </trkpt>
      <trkpt lat="45.06561" lon="2.6845">
        <ele>1268.8000488281</ele>
        <time>2020-08-03T09:39:39.000Z</time>
      </trkpt>
      <trkpt lat="45.06562" lon="2.68452">
        <ele>1269</ele>
        <time>2020-08-03T09:39:40.000Z</time>
      </trkpt>
      <trkpt lat="45.06563" lon="2.68454">
        <ele>1268.8000488281</ele>
        <time>2020-08-03T09:39:42.000Z</time>
      </trkpt>
      <trkpt lat="45.06564" lon="2.68459">
        <ele>1268.8000488281</ele>
        <time>2020-08-03T09:39:46.000Z</time>
      </trkpt>
      <trkpt lat="45.06566" lon="2.68463">
        <ele>1268.5999755859</ele>
        <time>2020-08-03T09:39:48.000Z</time>
      </trkpt>
      <trkpt lat="45.06569" lon="2.68469">
        <ele>1268.8000488281</ele>
        <time>2020-08-03T09:39:52.000Z</time>
      </trkpt>
      <trkpt lat="45.06572" lon="2.68479">
        <ele>1269.1999511719</ele>
        <time>2020-08-03T09:39:59.000Z</time>
      </trkpt>
      <trkpt lat="45.06574" lon="2.68491">
        <ele>1270.1999511719</ele>
        <time>2020-08-03T09:40:07.000Z</time>
      </trkpt>
      <trkpt lat="45.06575" lon="2.68492">
        <ele>1270.1999511719</ele>
        <time>2020-08-03T09:40:08.000Z</time>
      </trkpt>
      <trkpt lat="45.06576" lon="2.68493">
        <ele>1270</ele>
        <time>2020-08-03T09:40:09.000Z</time>
      </trkpt>
      <trkpt lat="45.06577" lon="2.685">
        <ele>1270</ele>
        <time>2020-08-03T09:40:14.000Z</time>
      </trkpt>
      <trkpt lat="45.06577" lon="2.68506">
        <ele>1270.5999755859</ele>
        <time>2020-08-03T09:40:18.000Z</time>
      </trkpt>
      <trkpt lat="45.06578" lon="2.68508">
        <ele>1270.8000488281</ele>
        <time>2020-08-03T09:40:19.000Z</time>
      </trkpt>
      <trkpt lat="45.06577" lon="2.68513">
        <ele>1271.1999511719</ele>
        <time>2020-08-03T09:40:22.000Z</time>
      </trkpt>
      <trkpt lat="45.06577" lon="2.68517">
        <ele>1271.4000244141</ele>
        <time>2020-08-03T09:40:25.000Z</time>
      </trkpt>
      <trkpt lat="45.06578" lon="2.68524">
        <ele>1271.8000488281</ele>
        <time>2020-08-03T09:40:31.000Z</time>
      </trkpt>
      <trkpt lat="45.06579" lon="2.68529">
        <ele>1272.1999511719</ele>
        <time>2020-08-03T09:40:35.000Z</time>
      </trkpt>
      <trkpt lat="45.06579" lon="2.6853">
        <ele>1272.1999511719</ele>
        <time>2020-08-03T09:40:36.000Z</time>
      </trkpt>
      <trkpt lat="45.06578" lon="2.68536">
        <ele>1272.4000244141</ele>
        <time>2020-08-03T09:40:40.000Z</time>
      </trkpt>
      <trkpt lat="45.06579" lon="2.6854">
        <ele>1272.5999755859</ele>
        <time>2020-08-03T09:40:43.000Z</time>
      </trkpt>
      <trkpt lat="45.06581" lon="2.68549">
        <ele>1273</ele>
        <time>2020-08-03T09:40:48.000Z</time>
      </trkpt>
      <trkpt lat="45.06582" lon="2.68552">
        <ele>1273.4000244141</ele>
        <time>2020-08-03T09:40:50.000Z</time>
      </trkpt>
      <trkpt lat="45.06584" lon="2.68556">
        <ele>1274</ele>
        <time>2020-08-03T09:40:53.000Z</time>
      </trkpt>
      <trkpt lat="45.06585" lon="2.68559">
        <ele>1274.4000244141</ele>
        <time>2020-08-03T09:40:55.000Z</time>
      </trkpt>
      <trkpt lat="45.06587" lon="2.68569">
        <ele>1275</ele>
        <time>2020-08-03T09:41:02.000Z</time>
      </trkpt>
      <trkpt lat="45.06588" lon="2.68577">
        <ele>1275.4000244141</ele>
        <time>2020-08-03T09:41:08.000Z</time>
      </trkpt>
      <trkpt lat="45.06588" lon="2.68578">
        <ele>1275.5999755859</ele>
        <time>2020-08-03T09:41:09.000Z</time>
      </trkpt>
      <trkpt lat="45.06588" lon="2.6858">
        <ele>1276</ele>
        <time>2020-08-03T09:41:11.000Z</time>
      </trkpt>
      <trkpt lat="45.06589" lon="2.68587">
        <ele>1276.1999511719</ele>
        <time>2020-08-03T09:41:16.000Z</time>
      </trkpt>
      <trkpt lat="45.06588" lon="2.68593">
        <ele>1276.5999755859</ele>
        <time>2020-08-03T09:41:21.000Z</time>
      </trkpt>
      <trkpt lat="45.06587" lon="2.68596">
        <ele>1276.8000488281</ele>
        <time>2020-08-03T09:41:23.000Z</time>
      </trkpt>
      <trkpt lat="45.06583" lon="2.68606">
        <ele>1277</ele>
        <time>2020-08-03T09:41:30.000Z</time>
      </trkpt>
      <trkpt lat="45.06579" lon="2.68614">
        <ele>1277.4000244141</ele>
        <time>2020-08-03T09:41:37.000Z</time>
      </trkpt>
      <trkpt lat="45.06577" lon="2.68616">
        <ele>1277.5999755859</ele>
        <time>2020-08-03T09:41:40.000Z</time>
      </trkpt>
      <trkpt lat="45.06575" lon="2.68619">
        <ele>1277.5999755859</ele>
        <time>2020-08-03T09:41:43.000Z</time>
      </trkpt>
      <trkpt lat="45.06574" lon="2.6862">
        <ele>1277.8000488281</ele>
        <time>2020-08-03T09:41:44.000Z</time>
      </trkpt>
      <trkpt lat="45.06568" lon="2.68626">
        <ele>1278</ele>
        <time>2020-08-03T09:41:51.000Z</time>
      </trkpt>
      <trkpt lat="45.06562" lon="2.68633">
        <ele>1278.4000244141</ele>
        <time>2020-08-03T09:41:58.000Z</time>
      </trkpt>
      <trkpt lat="45.06561" lon="2.68635">
        <ele>1278.5999755859</ele>
        <time>2020-08-03T09:42:00.000Z</time>
      </trkpt>
      <trkpt lat="45.0656" lon="2.68635">
        <ele>1278.5999755859</ele>
        <time>2020-08-03T09:42:01.000Z</time>
      </trkpt>
      <trkpt lat="45.06557" lon="2.68637">
        <ele>1278.8000488281</ele>
        <time>2020-08-03T09:42:03.000Z</time>
      </trkpt>
      <trkpt lat="45.0655" lon="2.68642">
        <ele>1279.5999755859</ele>
        <time>2020-08-03T09:42:10.000Z</time>
      </trkpt>
      <trkpt lat="45.06549" lon="2.68643">
        <ele>1279.5999755859</ele>
        <time>2020-08-03T09:42:11.000Z</time>
      </trkpt>
      <trkpt lat="45.06545" lon="2.68648">
        <ele>1280</ele>
        <time>2020-08-03T09:42:16.000Z</time>
      </trkpt>
      <trkpt lat="45.06543" lon="2.68653">
        <ele>1280.8000488281</ele>
        <time>2020-08-03T09:42:19.000Z</time>
      </trkpt>
      <trkpt lat="45.0654" lon="2.68659">
        <ele>1281</ele>
        <time>2020-08-03T09:42:23.000Z</time>
      </trkpt>
      <trkpt lat="45.06536" lon="2.68665">
        <ele>1281.1999511719</ele>
        <time>2020-08-03T09:42:30.000Z</time>
      </trkpt>
      <trkpt lat="45.06535" lon="2.68666">
        <ele>1281.1999511719</ele>
        <time>2020-08-03T09:42:31.000Z</time>
      </trkpt>
      <trkpt lat="45.06531" lon="2.68669">
        <ele>1281.5999755859</ele>
        <time>2020-08-03T09:42:36.000Z</time>
      </trkpt>
      <trkpt lat="45.0653" lon="2.6867">
        <ele>1282</ele>
        <time>2020-08-03T09:42:37.000Z</time>
      </trkpt>
      <trkpt lat="45.06529" lon="2.68674">
        <ele>1282.4000244141</ele>
        <time>2020-08-03T09:42:40.000Z</time>
      </trkpt>
      <trkpt lat="45.06528" lon="2.68678">
        <ele>1282.5999755859</ele>
        <time>2020-08-03T09:42:43.000Z</time>
      </trkpt>
      <trkpt lat="45.06531" lon="2.68686">
        <ele>1282.8000488281</ele>
        <time>2020-08-03T09:42:49.000Z</time>
      </trkpt>
      <trkpt lat="45.06532" lon="2.68696">
        <ele>1282.8000488281</ele>
        <time>2020-08-03T09:42:55.000Z</time>
      </trkpt>
      <trkpt lat="45.06531" lon="2.68698">
        <ele>1282.5999755859</ele>
        <time>2020-08-03T09:42:56.000Z</time>
      </trkpt>
      <trkpt lat="45.06531" lon="2.68703">
        <ele>1283</ele>
        <time>2020-08-03T09:43:00.000Z</time>
      </trkpt>
      <trkpt lat="45.06532" lon="2.68707">
        <ele>1283.1999511719</ele>
        <time>2020-08-03T09:43:03.000Z</time>
      </trkpt>
      <trkpt lat="45.06533" lon="2.68717">
        <ele>1283.8000488281</ele>
        <time>2020-08-03T09:43:10.000Z</time>
      </trkpt>
      <trkpt lat="45.06533" lon="2.68726">
        <ele>1283.8000488281</ele>
        <time>2020-08-03T09:43:16.000Z</time>
      </trkpt>
      <trkpt lat="45.06533" lon="2.68727">
        <ele>1283.8000488281</ele>
        <time>2020-08-03T09:43:17.000Z</time>
      </trkpt>
      <trkpt lat="45.06533" lon="2.68732">
        <ele>1284</ele>
        <time>2020-08-03T09:43:21.000Z</time>
      </trkpt>
      <trkpt lat="45.06532" lon="2.68737">
        <ele>1284.4000244141</ele>
        <time>2020-08-03T09:43:24.000Z</time>
      </trkpt>
      <trkpt lat="45.06532" lon="2.6874">
        <ele>1284.4000244141</ele>
        <time>2020-08-03T09:43:26.000Z</time>
      </trkpt>
      <trkpt lat="45.0653" lon="2.68748">
        <ele>1284.8000488281</ele>
        <time>2020-08-03T09:43:33.000Z</time>
      </trkpt>
      <trkpt lat="45.06532" lon="2.68752">
        <ele>1285.1999511719</ele>
        <time>2020-08-03T09:43:36.000Z</time>
      </trkpt>
      <trkpt lat="45.06534" lon="2.68758">
        <ele>1285.4000244141</ele>
        <time>2020-08-03T09:43:40.000Z</time>
      </trkpt>
      <trkpt lat="45.06536" lon="2.68763">
        <ele>1285.8000488281</ele>
        <time>2020-08-03T09:43:44.000Z</time>
      </trkpt>
      <trkpt lat="45.06537" lon="2.68767">
        <ele>1285.8000488281</ele>
        <time>2020-08-03T09:43:46.000Z</time>
      </trkpt>
      <trkpt lat="45.06534" lon="2.68773">
        <ele>1285.8000488281</ele>
        <time>2020-08-03T09:43:52.000Z</time>
      </trkpt>
      <trkpt lat="45.0653" lon="2.68777">
        <ele>1285.8000488281</ele>
        <time>2020-08-03T09:43:55.000Z</time>
      </trkpt>
      <trkpt lat="45.06526" lon="2.68777">
        <ele>1285.5999755859</ele>
        <time>2020-08-03T09:43:59.000Z</time>
      </trkpt>
      <trkpt lat="45.06524" lon="2.68774">
        <ele>1285.5999755859</ele>
        <time>2020-08-03T09:44:05.000Z</time>
      </trkpt>
      <trkpt lat="45.06517" lon="2.68831">
        <ele>1287</ele>
        <time>2020-08-03T09:56:41.000Z</time>
      </trkpt>
      <trkpt lat="45.06516" lon="2.68844">
        <ele>1287</ele>
        <time>2020-08-03T09:56:49.000Z</time>
      </trkpt>
      <trkpt lat="45.0651" lon="2.68859">
        <ele>1288</ele>
        <time>2020-08-03T09:56:56.000Z</time>
      </trkpt>
      <trkpt lat="45.06508" lon="2.68867">
        <ele>1288.4000244141</ele>
        <time>2020-08-03T09:57:01.000Z</time>
      </trkpt>
      <trkpt lat="45.06508" lon="2.68869">
        <ele>1288.4000244141</ele>
        <time>2020-08-03T09:57:02.000Z</time>
      </trkpt>
      <trkpt lat="45.06509" lon="2.68874">
        <ele>1289.1999511719</ele>
        <time>2020-08-03T09:57:05.000Z</time>
      </trkpt>
      <trkpt lat="45.0651" lon="2.68879">
        <ele>1289.1999511719</ele>
        <time>2020-08-03T09:57:07.000Z</time>
      </trkpt>
      <trkpt lat="45.06513" lon="2.68883">
        <ele>1289.5999755859</ele>
        <time>2020-08-03T09:57:10.000Z</time>
      </trkpt>
      <trkpt lat="45.0652" lon="2.68888">
        <ele>1290</ele>
        <time>2020-08-03T09:57:14.000Z</time>
      </trkpt>
      <trkpt lat="45.06521" lon="2.68888">
        <ele>1290.1999511719</ele>
        <time>2020-08-03T09:57:15.000Z</time>
      </trkpt>
      <trkpt lat="45.06536" lon="2.68893">
        <ele>1290.5999755859</ele>
        <time>2020-08-03T09:57:22.000Z</time>
      </trkpt>
      <trkpt lat="45.06546" lon="2.68894">
        <ele>1291.4000244141</ele>
        <time>2020-08-03T09:57:29.000Z</time>
      </trkpt>
      <trkpt lat="45.06551" lon="2.68891">
        <ele>1291.8000488281</ele>
        <time>2020-08-03T09:57:37.000Z</time>
      </trkpt>
      <trkpt lat="45.06552" lon="2.6889">
        <ele>1292</ele>
        <time>2020-08-03T09:57:39.000Z</time>
      </trkpt>
      <trkpt lat="45.06556" lon="2.68892">
        <ele>1292.1999511719</ele>
        <time>2020-08-03T09:57:42.000Z</time>
      </trkpt>
      <trkpt lat="45.06557" lon="2.68893">
        <ele>1292.4000244141</ele>
        <time>2020-08-03T09:57:44.000Z</time>
      </trkpt>
      <trkpt lat="45.06558" lon="2.68892">
        <ele>1292.4000244141</ele>
        <time>2020-08-03T09:57:45.000Z</time>
      </trkpt>
      <trkpt lat="45.06559" lon="2.68892">
        <ele>1292.5999755859</ele>
        <time>2020-08-03T09:57:47.000Z</time>
      </trkpt>
      <trkpt lat="45.06561" lon="2.68892">
        <ele>1292.5999755859</ele>
        <time>2020-08-03T09:57:49.000Z</time>
      </trkpt>
      <trkpt lat="45.06564" lon="2.68895">
        <ele>1293</ele>
        <time>2020-08-03T09:57:52.000Z</time>
      </trkpt>
      <trkpt lat="45.06565" lon="2.68896">
        <ele>1293.1999511719</ele>
        <time>2020-08-03T09:57:53.000Z</time>
      </trkpt>
      <trkpt lat="45.06568" lon="2.68897">
        <ele>1293.4000244141</ele>
        <time>2020-08-03T09:57:54.000Z</time>
      </trkpt>
      <trkpt lat="45.06572" lon="2.68901">
        <ele>1294.1999511719</ele>
        <time>2020-08-03T09:57:58.000Z</time>
      </trkpt>
      <trkpt lat="45.06575" lon="2.68904">
        <ele>1294.4000244141</ele>
        <time>2020-08-03T09:58:01.000Z</time>
      </trkpt>
      <trkpt lat="45.06576" lon="2.68905">
        <ele>1294.5999755859</ele>
        <time>2020-08-03T09:58:02.000Z</time>
      </trkpt>
      <trkpt lat="45.06578" lon="2.68908">
        <ele>1295</ele>
        <time>2020-08-03T09:58:04.000Z</time>
      </trkpt>
      <trkpt lat="45.06586" lon="2.68916">
        <ele>1295.5999755859</ele>
        <time>2020-08-03T09:58:10.000Z</time>
      </trkpt>
      <trkpt lat="45.06591" lon="2.6892">
        <ele>1295.8000488281</ele>
        <time>2020-08-03T09:58:13.000Z</time>
      </trkpt>
      <trkpt lat="45.06597" lon="2.68924">
        <ele>1296.1999511719</ele>
        <time>2020-08-03T09:58:16.000Z</time>
      </trkpt>
      <trkpt lat="45.06603" lon="2.68934">
        <ele>1296.8000488281</ele>
        <time>2020-08-03T09:58:22.000Z</time>
      </trkpt>
      <trkpt lat="45.06606" lon="2.68939">
        <ele>1296.8000488281</ele>
        <time>2020-08-03T09:58:25.000Z</time>
      </trkpt>
      <trkpt lat="45.06616" lon="2.68949">
        <ele>1297.4000244141</ele>
        <time>2020-08-03T09:58:32.000Z</time>
      </trkpt>
      <trkpt lat="45.06618" lon="2.68954">
        <ele>1297.8000488281</ele>
        <time>2020-08-03T09:58:36.000Z</time>
      </trkpt>
      <trkpt lat="45.0662" lon="2.68958">
        <ele>1298</ele>
        <time>2020-08-03T09:58:39.000Z</time>
      </trkpt>
      <trkpt lat="45.06621" lon="2.68964">
        <ele>1299</ele>
        <time>2020-08-03T09:58:43.000Z</time>
      </trkpt>
      <trkpt lat="45.06623" lon="2.68971">
        <ele>1299</ele>
        <time>2020-08-03T09:58:48.000Z</time>
      </trkpt>
      <trkpt lat="45.06627" lon="2.68981">
        <ele>1299.4000244141</ele>
        <time>2020-08-03T09:58:54.000Z</time>
      </trkpt>
      <trkpt lat="45.06628" lon="2.68989">
        <ele>1299.5999755859</ele>
        <time>2020-08-03T09:58:58.000Z</time>
      </trkpt>
      <trkpt lat="45.06629" lon="2.68995">
        <ele>1299.5999755859</ele>
        <time>2020-08-03T09:59:01.000Z</time>
      </trkpt>
      <trkpt lat="45.06633" lon="2.69006">
        <ele>1299.8000488281</ele>
        <time>2020-08-03T09:59:08.000Z</time>
      </trkpt>
      <trkpt lat="45.06634" lon="2.69011">
        <ele>1300.1999511719</ele>
        <time>2020-08-03T09:59:11.000Z</time>
      </trkpt>
      <trkpt lat="45.06635" lon="2.69014">
        <ele>1300.4000244141</ele>
        <time>2020-08-03T09:59:13.000Z</time>
      </trkpt>
      <trkpt lat="45.06635" lon="2.69016">
        <ele>1300.4000244141</ele>
        <time>2020-08-03T09:59:14.000Z</time>
      </trkpt>
      <trkpt lat="45.06635" lon="2.6902">
        <ele>1300.4000244141</ele>
        <time>2020-08-03T09:59:17.000Z</time>
      </trkpt>
      <trkpt lat="45.06634" lon="2.69026">
        <ele>1301.4000244141</ele>
        <time>2020-08-03T09:59:20.000Z</time>
      </trkpt>
      <trkpt lat="45.06634" lon="2.69028">
        <ele>1301.5999755859</ele>
        <time>2020-08-03T09:59:21.000Z</time>
      </trkpt>
      <trkpt lat="45.06635" lon="2.69044">
        <ele>1302.4000244141</ele>
        <time>2020-08-03T09:59:29.000Z</time>
      </trkpt>
      <trkpt lat="45.06635" lon="2.69046">
        <ele>1302.4000244141</ele>
        <time>2020-08-03T09:59:30.000Z</time>
      </trkpt>
      <trkpt lat="45.06634" lon="2.6906">
        <ele>1302.8000488281</ele>
        <time>2020-08-03T09:59:37.000Z</time>
      </trkpt>
      <trkpt lat="45.06636" lon="2.69069">
        <ele>1303.4000244141</ele>
        <time>2020-08-03T09:59:42.000Z</time>
      </trkpt>
      <trkpt lat="45.06636" lon="2.69072">
        <ele>1303.4000244141</ele>
        <time>2020-08-03T09:59:44.000Z</time>
      </trkpt>
      <trkpt lat="45.06634" lon="2.69086">
        <ele>1303.1999511719</ele>
        <time>2020-08-03T09:59:51.000Z</time>
      </trkpt>
      <trkpt lat="45.06634" lon="2.69098">
        <ele>1302.4000244141</ele>
        <time>2020-08-03T09:59:58.000Z</time>
      </trkpt>
      <trkpt lat="45.06632" lon="2.69105">
        <ele>1302</ele>
        <time>2020-08-03T10:00:02.000Z</time>
      </trkpt>
      <trkpt lat="45.06631" lon="2.6911">
        <ele>1301.5999755859</ele>
        <time>2020-08-03T10:00:05.000Z</time>
      </trkpt>
      <trkpt lat="45.0663" lon="2.69112">
        <ele>1301.1999511719</ele>
        <time>2020-08-03T10:00:06.000Z</time>
      </trkpt>
      <trkpt lat="45.06627" lon="2.69119">
        <ele>1300.5999755859</ele>
        <time>2020-08-03T10:00:10.000Z</time>
      </trkpt>
      <trkpt lat="45.06625" lon="2.69123">
        <ele>1300.1999511719</ele>
        <time>2020-08-03T10:00:12.000Z</time>
      </trkpt>
      <trkpt lat="45.06623" lon="2.69128">
        <ele>1299.8000488281</ele>
        <time>2020-08-03T10:00:15.000Z</time>
      </trkpt>
      <trkpt lat="45.06622" lon="2.69129">
        <ele>1299.4000244141</ele>
        <time>2020-08-03T10:00:16.000Z</time>
      </trkpt>
      <trkpt lat="45.0662" lon="2.69132">
        <ele>1299</ele>
        <time>2020-08-03T10:00:18.000Z</time>
      </trkpt>
      <trkpt lat="45.06618" lon="2.69134">
        <ele>1298.5999755859</ele>
        <time>2020-08-03T10:00:20.000Z</time>
      </trkpt>
      <trkpt lat="45.06612" lon="2.69144">
        <ele>1298</ele>
        <time>2020-08-03T10:00:26.000Z</time>
      </trkpt>
      <trkpt lat="45.06611" lon="2.69145">
        <ele>1297.8000488281</ele>
        <time>2020-08-03T10:00:27.000Z</time>
      </trkpt>
      <trkpt lat="45.0661" lon="2.69147">
        <ele>1297</ele>
        <time>2020-08-03T10:00:30.000Z</time>
      </trkpt>
      <trkpt lat="45.0661" lon="2.69151">
        <ele>1296.1999511719</ele>
        <time>2020-08-03T10:00:35.000Z</time>
      </trkpt>
      <trkpt lat="45.06624" lon="2.69157">
        <ele>1296</ele>
        <time>2020-08-03T10:00:45.000Z</time>
      </trkpt>
      <trkpt lat="45.06627" lon="2.69157">
        <ele>1296.1999511719</ele>
        <time>2020-08-03T10:00:55.000Z</time>
      </trkpt>
      <trkpt lat="45.06626" lon="2.69157">
        <ele>1296.1999511719</ele>
        <time>2020-08-03T10:01:03.000Z</time>
      </trkpt>
      <trkpt lat="45.0662" lon="2.69153">
        <ele>1296</ele>
        <time>2020-08-03T10:01:10.000Z</time>
      </trkpt>
      <trkpt lat="45.06619" lon="2.69152">
        <ele>1296.4000244141</ele>
        <time>2020-08-03T10:01:17.000Z</time>
      </trkpt>
      <trkpt lat="45.06619" lon="2.69154">
        <ele>1296.1999511719</ele>
        <time>2020-08-03T10:01:19.000Z</time>
      </trkpt>
      <trkpt lat="45.06616" lon="2.69157">
        <ele>1296</ele>
        <time>2020-08-03T10:01:23.000Z</time>
      </trkpt>
      <trkpt lat="45.06615" lon="2.69161">
        <ele>1296</ele>
        <time>2020-08-03T10:01:26.000Z</time>
      </trkpt>
      <trkpt lat="45.06614" lon="2.69164">
        <ele>1295.8000488281</ele>
        <time>2020-08-03T10:01:29.000Z</time>
      </trkpt>
      <trkpt lat="45.06613" lon="2.69164">
        <ele>1295.5999755859</ele>
        <time>2020-08-03T10:01:37.000Z</time>
      </trkpt>
      <trkpt lat="45.06612" lon="2.69152">
        <ele>1296.4000244141</ele>
        <time>2020-08-03T10:01:46.000Z</time>
      </trkpt>
      <trkpt lat="45.06614" lon="2.69149">
        <ele>1296.4000244141</ele>
        <time>2020-08-03T10:01:54.000Z</time>
      </trkpt>
      <trkpt lat="45.06611" lon="2.69147">
        <ele>1296.4000244141</ele>
        <time>2020-08-03T10:02:03.000Z</time>
      </trkpt>
      <trkpt lat="45.0661" lon="2.69151">
        <ele>1296.4000244141</ele>
        <time>2020-08-03T10:02:12.000Z</time>
      </trkpt>
      <trkpt lat="45.06611" lon="2.69155">
        <ele>1296.4000244141</ele>
        <time>2020-08-03T10:02:19.000Z</time>
      </trkpt>
      <trkpt lat="45.06612" lon="2.69157">
        <ele>1296.4000244141</ele>
        <time>2020-08-03T10:02:21.000Z</time>
      </trkpt>
      <trkpt lat="45.06616" lon="2.6916">
        <ele>1295.5999755859</ele>
        <time>2020-08-03T10:02:25.000Z</time>
      </trkpt>
      <trkpt lat="45.06619" lon="2.69162">
        <ele>1295.5999755859</ele>
        <time>2020-08-03T10:02:32.000Z</time>
      </trkpt>
      <trkpt lat="45.06619" lon="2.69163">
        <ele>1296</ele>
        <time>2020-08-03T10:02:42.000Z</time>
      </trkpt>
      <trkpt lat="45.06622" lon="2.69167">
        <ele>1296</ele>
        <time>2020-08-03T10:02:46.000Z</time>
      </trkpt>
      <trkpt lat="45.06624" lon="2.6917">
        <ele>1296</ele>
        <time>2020-08-03T10:02:47.000Z</time>
      </trkpt>
      <trkpt lat="45.0663" lon="2.69174">
        <ele>1295.8000488281</ele>
        <time>2020-08-03T10:02:53.000Z</time>
      </trkpt>
      <trkpt lat="45.06635" lon="2.69177">
        <ele>1295.1999511719</ele>
        <time>2020-08-03T10:02:59.000Z</time>
      </trkpt>
      <trkpt lat="45.06639" lon="2.6918">
        <ele>1295.1999511719</ele>
        <time>2020-08-03T10:03:01.000Z</time>
      </trkpt>
      <trkpt lat="45.06642" lon="2.69184">
        <ele>1295.1999511719</ele>
        <time>2020-08-03T10:03:05.000Z</time>
      </trkpt>
      <trkpt lat="45.06645" lon="2.69186">
        <ele>1295.4000244141</ele>
        <time>2020-08-03T10:03:09.000Z</time>
      </trkpt>
      <trkpt lat="45.06648" lon="2.6919">
        <ele>1295.4000244141</ele>
        <time>2020-08-03T10:03:12.000Z</time>
      </trkpt>
      <trkpt lat="45.06649" lon="2.69191">
        <ele>1295.1999511719</ele>
        <time>2020-08-03T10:03:13.000Z</time>
      </trkpt>
      <trkpt lat="45.06654" lon="2.69196">
        <ele>1295.5999755859</ele>
        <time>2020-08-03T10:03:19.000Z</time>
      </trkpt>
      <trkpt lat="45.0666" lon="2.69201">
        <ele>1296.8000488281</ele>
        <time>2020-08-03T10:03:26.000Z</time>
      </trkpt>
      <trkpt lat="45.0666" lon="2.69202">
        <ele>1297</ele>
        <time>2020-08-03T10:03:27.000Z</time>
      </trkpt>
      <trkpt lat="45.06662" lon="2.69203">
        <ele>1298</ele>
        <time>2020-08-03T10:03:33.000Z</time>
      </trkpt>
      <trkpt lat="45.06663" lon="2.69203">
        <ele>1298</ele>
        <time>2020-08-03T10:03:34.000Z</time>
      </trkpt>
      <trkpt lat="45.06667" lon="2.69204">
        <ele>1298.8000488281</ele>
        <time>2020-08-03T10:03:41.000Z</time>
      </trkpt>
      <trkpt lat="45.06667" lon="2.69204">
        <ele>1299</ele>
        <time>2020-08-03T10:03:42.000Z</time>
      </trkpt>
      <trkpt lat="45.0667" lon="2.69205">
        <ele>1298.8000488281</ele>
        <time>2020-08-03T10:03:49.000Z</time>
      </trkpt>
      <trkpt lat="45.06673" lon="2.69207">
        <ele>1298.8000488281</ele>
        <time>2020-08-03T10:03:57.000Z</time>
      </trkpt>
      <trkpt lat="45.06675" lon="2.69209">
        <ele>1299.5999755859</ele>
        <time>2020-08-03T10:04:01.000Z</time>
      </trkpt>
      <trkpt lat="45.06676" lon="2.6921">
        <ele>1300</ele>
        <time>2020-08-03T10:04:03.000Z</time>
      </trkpt>
      <trkpt lat="45.06677" lon="2.69211">
        <ele>1300.4000244141</ele>
        <time>2020-08-03T10:04:05.000Z</time>
      </trkpt>
      <trkpt lat="45.06678" lon="2.69211">
        <ele>1301.1999511719</ele>
        <time>2020-08-03T10:04:07.000Z</time>
      </trkpt>
      <trkpt lat="45.06679" lon="2.69211">
        <ele>1301.4000244141</ele>
        <time>2020-08-03T10:04:08.000Z</time>
      </trkpt>
      <trkpt lat="45.06681" lon="2.69211">
        <ele>1302</ele>
        <time>2020-08-03T10:04:12.000Z</time>
      </trkpt>
      <trkpt lat="45.06683" lon="2.69212">
        <ele>1302.1999511719</ele>
        <time>2020-08-03T10:04:16.000Z</time>
      </trkpt>
      <trkpt lat="45.06684" lon="2.69213">
        <ele>1302.4000244141</ele>
        <time>2020-08-03T10:04:17.000Z</time>
      </trkpt>
      <trkpt lat="45.06686" lon="2.69216">
        <ele>1303</ele>
        <time>2020-08-03T10:04:20.000Z</time>
      </trkpt>
      <trkpt lat="45.06688" lon="2.69219">
        <ele>1303.5999755859</ele>
        <time>2020-08-03T10:04:23.000Z</time>
      </trkpt>
      <trkpt lat="45.06691" lon="2.69222">
        <ele>1304.4000244141</ele>
        <time>2020-08-03T10:04:26.000Z</time>
      </trkpt>
      <trkpt lat="45.06691" lon="2.69223">
        <ele>1304.5999755859</ele>
        <time>2020-08-03T10:04:27.000Z</time>
      </trkpt>
      <trkpt lat="45.06693" lon="2.69226">
        <ele>1305</ele>
        <time>2020-08-03T10:04:29.000Z</time>
      </trkpt>
      <trkpt lat="45.06696" lon="2.69231">
        <ele>1305.5999755859</ele>
        <time>2020-08-03T10:04:32.000Z</time>
      </trkpt>
      <trkpt lat="45.06697" lon="2.69233">
        <ele>1305.8000488281</ele>
        <time>2020-08-03T10:04:33.000Z</time>
      </trkpt>
      <trkpt lat="45.067" lon="2.69238">
        <ele>1306.5999755859</ele>
        <time>2020-08-03T10:04:38.000Z</time>
      </trkpt>
      <trkpt lat="45.06702" lon="2.6924">
        <ele>1307.1999511719</ele>
        <time>2020-08-03T10:04:40.000Z</time>
      </trkpt>
      <trkpt lat="45.06704" lon="2.69243">
        <ele>1307.8000488281</ele>
        <time>2020-08-03T10:04:43.000Z</time>
      </trkpt>
      <trkpt lat="45.06707" lon="2.69248">
        <ele>1308.1999511719</ele>
        <time>2020-08-03T10:04:47.000Z</time>
      </trkpt>
      <trkpt lat="45.06708" lon="2.69249">
        <ele>1308.1999511719</ele>
        <time>2020-08-03T10:04:48.000Z</time>
      </trkpt>
      <trkpt lat="45.0671" lon="2.69252">
        <ele>1308.4000244141</ele>
        <time>2020-08-03T10:04:50.000Z</time>
      </trkpt>
      <trkpt lat="45.06712" lon="2.69253">
        <ele>1308.8000488281</ele>
        <time>2020-08-03T10:04:52.000Z</time>
      </trkpt>
      <trkpt lat="45.06716" lon="2.69257">
        <ele>1309</ele>
        <time>2020-08-03T10:04:56.000Z</time>
      </trkpt>
      <trkpt lat="45.06717" lon="2.69259">
        <ele>1309.4000244141</ele>
        <time>2020-08-03T10:04:58.000Z</time>
      </trkpt>
      <trkpt lat="45.06718" lon="2.6926">
        <ele>1309.4000244141</ele>
        <time>2020-08-03T10:04:59.000Z</time>
      </trkpt>
      <trkpt lat="45.06724" lon="2.69267">
        <ele>1309.8000488281</ele>
        <time>2020-08-03T10:05:02.000Z</time>
      </trkpt>
      <trkpt lat="45.06725" lon="2.69268">
        <ele>1310</ele>
        <time>2020-08-03T10:05:03.000Z</time>
      </trkpt>
      <trkpt lat="45.06731" lon="2.69274">
        <ele>1310.4000244141</ele>
        <time>2020-08-03T10:05:09.000Z</time>
      </trkpt>
      <trkpt lat="45.06733" lon="2.69277">
        <ele>1310.1999511719</ele>
        <time>2020-08-03T10:05:11.000Z</time>
      </trkpt>
      <trkpt lat="45.06734" lon="2.69283">
        <ele>1310.1999511719</ele>
        <time>2020-08-03T10:05:15.000Z</time>
      </trkpt>
      <trkpt lat="45.06737" lon="2.69288">
        <ele>1310.5999755859</ele>
        <time>2020-08-03T10:05:21.000Z</time>
      </trkpt>
      <trkpt lat="45.0674" lon="2.69293">
        <ele>1310.8000488281</ele>
        <time>2020-08-03T10:05:26.000Z</time>
      </trkpt>
      <trkpt lat="45.0674" lon="2.69295">
        <ele>1310.8000488281</ele>
        <time>2020-08-03T10:05:28.000Z</time>
      </trkpt>
      <trkpt lat="45.06743" lon="2.69302">
        <ele>1311.8000488281</ele>
        <time>2020-08-03T10:05:33.000Z</time>
      </trkpt>
      <trkpt lat="45.06743" lon="2.69305">
        <ele>1312.1999511719</ele>
        <time>2020-08-03T10:05:35.000Z</time>
      </trkpt>
      <trkpt lat="45.06744" lon="2.69306">
        <ele>1312.1999511719</ele>
        <time>2020-08-03T10:05:36.000Z</time>
      </trkpt>
      <trkpt lat="45.06747" lon="2.69312">
        <ele>1312.8000488281</ele>
        <time>2020-08-03T10:05:41.000Z</time>
      </trkpt>
      <trkpt lat="45.06747" lon="2.69313">
        <ele>1313</ele>
        <time>2020-08-03T10:05:42.000Z</time>
      </trkpt>
      <trkpt lat="45.06747" lon="2.69314">
        <ele>1313.1999511719</ele>
        <time>2020-08-03T10:05:43.000Z</time>
      </trkpt>
      <trkpt lat="45.0675" lon="2.69321">
        <ele>1313.8000488281</ele>
        <time>2020-08-03T10:05:48.000Z</time>
      </trkpt>
      <trkpt lat="45.0675" lon="2.69325">
        <ele>1314.1999511719</ele>
        <time>2020-08-03T10:05:51.000Z</time>
      </trkpt>
      <trkpt lat="45.06753" lon="2.69333">
        <ele>1314.4000244141</ele>
        <time>2020-08-03T10:05:57.000Z</time>
      </trkpt>
      <trkpt lat="45.06754" lon="2.69339">
        <ele>1315.1999511719</ele>
        <time>2020-08-03T10:06:01.000Z</time>
      </trkpt>
      <trkpt lat="45.06754" lon="2.69341">
        <ele>1315.4000244141</ele>
        <time>2020-08-03T10:06:03.000Z</time>
      </trkpt>
      <trkpt lat="45.06756" lon="2.69346">
        <ele>1315.8000488281</ele>
        <time>2020-08-03T10:06:07.000Z</time>
      </trkpt>
      <trkpt lat="45.06756" lon="2.69348">
        <ele>1316.4000244141</ele>
        <time>2020-08-03T10:06:09.000Z</time>
      </trkpt>
      <trkpt lat="45.06757" lon="2.69349">
        <ele>1316.5999755859</ele>
        <time>2020-08-03T10:06:10.000Z</time>
      </trkpt>
      <trkpt lat="45.06759" lon="2.69353">
        <ele>1317</ele>
        <time>2020-08-03T10:06:13.000Z</time>
      </trkpt>
      <trkpt lat="45.06761" lon="2.69357">
        <ele>1317.1999511719</ele>
        <time>2020-08-03T10:06:16.000Z</time>
      </trkpt>
      <trkpt lat="45.06764" lon="2.69362">
        <ele>1317.4000244141</ele>
        <time>2020-08-03T10:06:20.000Z</time>
      </trkpt>
      <trkpt lat="45.06764" lon="2.69364">
        <ele>1317.8000488281</ele>
        <time>2020-08-03T10:06:22.000Z</time>
      </trkpt>
      <trkpt lat="45.06764" lon="2.69365">
        <ele>1318</ele>
        <time>2020-08-03T10:06:23.000Z</time>
      </trkpt>
      <trkpt lat="45.06765" lon="2.69371">
        <ele>1318.5999755859</ele>
        <time>2020-08-03T10:06:27.000Z</time>
      </trkpt>
      <trkpt lat="45.06766" lon="2.69374">
        <ele>1318.8000488281</ele>
        <time>2020-08-03T10:06:29.000Z</time>
      </trkpt>
      <trkpt lat="45.06769" lon="2.69382">
        <ele>1319.8000488281</ele>
        <time>2020-08-03T10:06:36.000Z</time>
      </trkpt>
      <trkpt lat="45.0677" lon="2.6939">
        <ele>1320.5999755859</ele>
        <time>2020-08-03T10:06:43.000Z</time>
      </trkpt>
      <trkpt lat="45.06769" lon="2.6939">
        <ele>1320.8000488281</ele>
        <time>2020-08-03T10:06:45.000Z</time>
      </trkpt>
      <trkpt lat="45.06768" lon="2.69392">
        <ele>1320.8000488281</ele>
        <time>2020-08-03T10:06:48.000Z</time>
      </trkpt>
      <trkpt lat="45.06769" lon="2.69394">
        <ele>1320.8000488281</ele>
        <time>2020-08-03T10:06:49.000Z</time>
      </trkpt>
      <trkpt lat="45.06769" lon="2.69406">
        <ele>1321.8000488281</ele>
        <time>2020-08-03T10:06:57.000Z</time>
      </trkpt>
      <trkpt lat="45.06769" lon="2.69415">
        <ele>1322.4000244141</ele>
        <time>2020-08-03T10:07:04.000Z</time>
      </trkpt>
      <trkpt lat="45.06769" lon="2.69417">
        <ele>1322.4000244141</ele>
        <time>2020-08-03T10:07:05.000Z</time>
      </trkpt>
      <trkpt lat="45.0677" lon="2.6942">
        <ele>1322.4000244141</ele>
        <time>2020-08-03T10:07:07.000Z</time>
      </trkpt>
      <trkpt lat="45.06772" lon="2.69424">
        <ele>1322.8000488281</ele>
        <time>2020-08-03T10:07:12.000Z</time>
      </trkpt>
      <trkpt lat="45.06773" lon="2.69424">
        <ele>1323</ele>
        <time>2020-08-03T10:07:14.000Z</time>
      </trkpt>
      <trkpt lat="45.06774" lon="2.69424">
        <ele>1323.1999511719</ele>
        <time>2020-08-03T10:07:15.000Z</time>
      </trkpt>
      <trkpt lat="45.06776" lon="2.69425">
        <ele>1323.8000488281</ele>
        <time>2020-08-03T10:07:18.000Z</time>
      </trkpt>
      <trkpt lat="45.06778" lon="2.69425">
        <ele>1324</ele>
        <time>2020-08-03T10:07:21.000Z</time>
      </trkpt>
      <trkpt lat="45.06779" lon="2.69425">
        <ele>1324.5999755859</ele>
        <time>2020-08-03T10:07:26.000Z</time>
      </trkpt>
      <trkpt lat="45.0678" lon="2.69427">
        <ele>1325.1999511719</ele>
        <time>2020-08-03T10:07:28.000Z</time>
      </trkpt>
      <trkpt lat="45.06785" lon="2.69431">
        <ele>1325.8000488281</ele>
        <time>2020-08-03T10:07:32.000Z</time>
      </trkpt>
      <trkpt lat="45.06787" lon="2.69432">
        <ele>1326.1999511719</ele>
        <time>2020-08-03T10:07:35.000Z</time>
      </trkpt>
      <trkpt lat="45.06787" lon="2.69434">
        <ele>1326.1999511719</ele>
        <time>2020-08-03T10:07:40.000Z</time>
      </trkpt>
      <trkpt lat="45.06788" lon="2.69436">
        <ele>1326.1999511719</ele>
        <time>2020-08-03T10:07:42.000Z</time>
      </trkpt>
      <trkpt lat="45.06792" lon="2.69439">
        <ele>1326.8000488281</ele>
        <time>2020-08-03T10:07:46.000Z</time>
      </trkpt>
      <trkpt lat="45.06793" lon="2.69442">
        <ele>1327.1999511719</ele>
        <time>2020-08-03T10:07:49.000Z</time>
      </trkpt>
      <trkpt lat="45.06795" lon="2.69446">
        <ele>1327.8000488281</ele>
        <time>2020-08-03T10:07:53.000Z</time>
      </trkpt>
      <trkpt lat="45.06795" lon="2.69451">
        <ele>1328.1999511719</ele>
        <time>2020-08-03T10:07:57.000Z</time>
      </trkpt>
      <trkpt lat="45.06796" lon="2.69454">
        <ele>1329</ele>
        <time>2020-08-03T10:08:00.000Z</time>
      </trkpt>
      <trkpt lat="45.06798" lon="2.69458">
        <ele>1329.4000244141</ele>
        <time>2020-08-03T10:08:03.000Z</time>
      </trkpt>
      <trkpt lat="45.06802" lon="2.69463">
        <ele>1329.5999755859</ele>
        <time>2020-08-03T10:08:07.000Z</time>
      </trkpt>
      <trkpt lat="45.06803" lon="2.69465">
        <ele>1330</ele>
        <time>2020-08-03T10:08:09.000Z</time>
      </trkpt>
      <trkpt lat="45.06803" lon="2.69466">
        <ele>1330.4000244141</ele>
        <time>2020-08-03T10:08:11.000Z</time>
      </trkpt>
      <trkpt lat="45.06804" lon="2.69469">
        <ele>1330.8000488281</ele>
        <time>2020-08-03T10:08:13.000Z</time>
      </trkpt>
      <trkpt lat="45.06806" lon="2.69474">
        <ele>1331.5999755859</ele>
        <time>2020-08-03T10:08:17.000Z</time>
      </trkpt>
      <trkpt lat="45.06808" lon="2.69478">
        <ele>1332.1999511719</ele>
        <time>2020-08-03T10:08:20.000Z</time>
      </trkpt>
      <trkpt lat="45.0681" lon="2.69485">
        <ele>1332.5999755859</ele>
        <time>2020-08-03T10:08:26.000Z</time>
      </trkpt>
      <trkpt lat="45.06811" lon="2.6949">
        <ele>1332.8000488281</ele>
        <time>2020-08-03T10:08:30.000Z</time>
      </trkpt>
      <trkpt lat="45.06814" lon="2.69494">
        <ele>1333.1999511719</ele>
        <time>2020-08-03T10:08:33.000Z</time>
      </trkpt>
      <trkpt lat="45.06814" lon="2.69496">
        <ele>1333.8000488281</ele>
        <time>2020-08-03T10:08:35.000Z</time>
      </trkpt>
      <trkpt lat="45.06815" lon="2.69502">
        <ele>1334.4000244141</ele>
        <time>2020-08-03T10:08:40.000Z</time>
      </trkpt>
      <trkpt lat="45.06816" lon="2.69504">
        <ele>1334.4000244141</ele>
        <time>2020-08-03T10:08:41.000Z</time>
      </trkpt>
      <trkpt lat="45.06815" lon="2.69508">
        <ele>1334.1999511719</ele>
        <time>2020-08-03T10:08:44.000Z</time>
      </trkpt>
      <trkpt lat="45.06817" lon="2.69512">
        <ele>1334.4000244141</ele>
        <time>2020-08-03T10:08:47.000Z</time>
      </trkpt>
      <trkpt lat="45.0682" lon="2.69515">
        <ele>1334.4000244141</ele>
        <time>2020-08-03T10:08:49.000Z</time>
      </trkpt>
      <trkpt lat="45.06823" lon="2.6952">
        <ele>1334.5999755859</ele>
        <time>2020-08-03T10:08:53.000Z</time>
      </trkpt>
      <trkpt lat="45.06824" lon="2.69523">
        <ele>1334.8000488281</ele>
        <time>2020-08-03T10:08:55.000Z</time>
      </trkpt>
      <trkpt lat="45.06824" lon="2.69528">
        <ele>1334.8000488281</ele>
        <time>2020-08-03T10:08:58.000Z</time>
      </trkpt>
      <trkpt lat="45.0683" lon="2.69538">
        <ele>1335.5999755859</ele>
        <time>2020-08-03T10:09:05.000Z</time>
      </trkpt>
      <trkpt lat="45.06831" lon="2.69541">
        <ele>1335.5999755859</ele>
        <time>2020-08-03T10:09:07.000Z</time>
      </trkpt>
      <trkpt lat="45.0683" lon="2.69547">
        <ele>1335.8000488281</ele>
        <time>2020-08-03T10:09:11.000Z</time>
      </trkpt>
      <trkpt lat="45.06832" lon="2.69548">
        <ele>1335.5999755859</ele>
        <time>2020-08-03T10:09:17.000Z</time>
      </trkpt>
      <trkpt lat="45.06832" lon="2.69547">
        <ele>1335.4000244141</ele>
        <time>2020-08-03T10:09:24.000Z</time>
      </trkpt>
      <trkpt lat="45.06833" lon="2.69549">
        <ele>1335.4000244141</ele>
        <time>2020-08-03T10:09:25.000Z</time>
      </trkpt>
      <trkpt lat="45.06834" lon="2.69556">
        <ele>1335.8000488281</ele>
        <time>2020-08-03T10:09:29.000Z</time>
      </trkpt>
      <trkpt lat="45.06835" lon="2.69557">
        <ele>1335.8000488281</ele>
        <time>2020-08-03T10:09:30.000Z</time>
      </trkpt>
      <trkpt lat="45.06841" lon="2.69568">
        <ele>1336.1999511719</ele>
        <time>2020-08-03T10:09:38.000Z</time>
      </trkpt>
      <trkpt lat="45.06846" lon="2.69575">
        <ele>1336.8000488281</ele>
        <time>2020-08-03T10:09:45.000Z</time>
      </trkpt>
      <trkpt lat="45.06842" lon="2.69578">
        <ele>1337</ele>
        <time>2020-08-03T10:09:52.000Z</time>
      </trkpt>
      <trkpt lat="45.06842" lon="2.6958">
        <ele>1337</ele>
        <time>2020-08-03T10:09:54.000Z</time>
      </trkpt>
      <trkpt lat="45.06841" lon="2.69582">
        <ele>1337.4000244141</ele>
        <time>2020-08-03T10:09:56.000Z</time>
      </trkpt>
      <trkpt lat="45.06841" lon="2.69586">
        <ele>1337.5999755859</ele>
        <time>2020-08-03T10:09:58.000Z</time>
      </trkpt>
      <trkpt lat="45.06841" lon="2.69591">
        <ele>1338</ele>
        <time>2020-08-03T10:10:02.000Z</time>
      </trkpt>
      <trkpt lat="45.06842" lon="2.69594">
        <ele>1338.1999511719</ele>
        <time>2020-08-03T10:10:04.000Z</time>
      </trkpt>
      <trkpt lat="45.06843" lon="2.69599">
        <ele>1338.4000244141</ele>
        <time>2020-08-03T10:10:07.000Z</time>
      </trkpt>
      <trkpt lat="45.06844" lon="2.69603">
        <ele>1338.8000488281</ele>
        <time>2020-08-03T10:10:09.000Z</time>
      </trkpt>
      <trkpt lat="45.06849" lon="2.69612">
        <ele>1339</ele>
        <time>2020-08-03T10:10:15.000Z</time>
      </trkpt>
      <trkpt lat="45.06849" lon="2.69614">
        <ele>1339</ele>
        <time>2020-08-03T10:10:16.000Z</time>
      </trkpt>
      <trkpt lat="45.06852" lon="2.69627">
        <ele>1339.4000244141</ele>
        <time>2020-08-03T10:10:23.000Z</time>
      </trkpt>
      <trkpt lat="45.06854" lon="2.69636">
        <ele>1339.8000488281</ele>
        <time>2020-08-03T10:10:29.000Z</time>
      </trkpt>
      <trkpt lat="45.06855" lon="2.69637">
        <ele>1340</ele>
        <time>2020-08-03T10:10:30.000Z</time>
      </trkpt>
      <trkpt lat="45.06854" lon="2.69639">
        <ele>1340.1999511719</ele>
        <time>2020-08-03T10:10:31.000Z</time>
      </trkpt>
      <trkpt lat="45.06857" lon="2.69647">
        <ele>1340.4000244141</ele>
        <time>2020-08-03T10:10:37.000Z</time>
      </trkpt>
      <trkpt lat="45.06858" lon="2.69653">
        <ele>1340.4000244141</ele>
        <time>2020-08-03T10:10:41.000Z</time>
      </trkpt>
      <trkpt lat="45.06858" lon="2.69656">
        <ele>1340.5999755859</ele>
        <time>2020-08-03T10:10:43.000Z</time>
      </trkpt>
      <trkpt lat="45.06857" lon="2.69666">
        <ele>1340.8000488281</ele>
        <time>2020-08-03T10:10:50.000Z</time>
      </trkpt>
      <trkpt lat="45.06857" lon="2.69672">
        <ele>1341.1999511719</ele>
        <time>2020-08-03T10:10:55.000Z</time>
      </trkpt>
      <trkpt lat="45.06857" lon="2.69675">
        <ele>1341.5999755859</ele>
        <time>2020-08-03T10:10:57.000Z</time>
      </trkpt>
      <trkpt lat="45.06859" lon="2.69685">
        <ele>1342.1999511719</ele>
        <time>2020-08-03T10:11:05.000Z</time>
      </trkpt>
      <trkpt lat="45.0686" lon="2.69687">
        <ele>1342.4000244141</ele>
        <time>2020-08-03T10:11:07.000Z</time>
      </trkpt>
      <trkpt lat="45.06865" lon="2.69692">
        <ele>1342.1999511719</ele>
        <time>2020-08-03T10:11:11.000Z</time>
      </trkpt>
      <trkpt lat="45.0687" lon="2.69699">
        <ele>1343</ele>
        <time>2020-08-03T10:11:17.000Z</time>
      </trkpt>
      <trkpt lat="45.06869" lon="2.69703">
        <ele>1343.4000244141</ele>
        <time>2020-08-03T10:11:22.000Z</time>
      </trkpt>
      <trkpt lat="45.06868" lon="2.69703">
        <ele>1343.4000244141</ele>
        <time>2020-08-03T10:11:23.000Z</time>
      </trkpt>
      <trkpt lat="45.06867" lon="2.69705">
        <ele>1343.4000244141</ele>
        <time>2020-08-03T10:11:30.000Z</time>
      </trkpt>
      <trkpt lat="45.06867" lon="2.69705">
        <ele>1343.4000244141</ele>
        <time>2020-08-03T10:11:33.000Z</time>
      </trkpt>
      <trkpt lat="45.06867" lon="2.69707">
        <ele>1343.1999511719</ele>
        <time>2020-08-03T10:11:36.000Z</time>
      </trkpt>
      <trkpt lat="45.06868" lon="2.69709">
        <ele>1343</ele>
        <time>2020-08-03T10:11:41.000Z</time>
      </trkpt>
      <trkpt lat="45.06867" lon="2.69711">
        <ele>1343</ele>
        <time>2020-08-03T10:11:43.000Z</time>
      </trkpt>
      <trkpt lat="45.06865" lon="2.69712">
        <ele>1343</ele>
        <time>2020-08-03T10:11:45.000Z</time>
      </trkpt>
      <trkpt lat="45.06861" lon="2.69711">
        <ele>1343.4000244141</ele>
        <time>2020-08-03T10:11:48.000Z</time>
      </trkpt>
      <trkpt lat="45.06853" lon="2.69711">
        <ele>1343.4000244141</ele>
        <time>2020-08-03T10:11:55.000Z</time>
      </trkpt>
      <trkpt lat="45.06857" lon="2.69712">
        <ele>1343.4000244141</ele>
        <time>2020-08-03T10:12:02.000Z</time>
      </trkpt>
      <trkpt lat="45.0686" lon="2.6971">
        <ele>1342.4000244141</ele>
        <time>2020-08-03T10:12:13.000Z</time>
      </trkpt>
      <trkpt lat="45.06862" lon="2.69709">
        <ele>1342.5999755859</ele>
        <time>2020-08-03T10:12:22.000Z</time>
      </trkpt>
      <trkpt lat="45.06869" lon="2.69709">
        <ele>1342.5999755859</ele>
        <time>2020-08-03T10:12:29.000Z</time>
      </trkpt>
      <trkpt lat="45.06885" lon="2.6971">
        <ele>1342.8000488281</ele>
        <time>2020-08-03T10:12:38.000Z</time>
      </trkpt>
      <trkpt lat="45.06894" lon="2.69712">
        <ele>1342.8000488281</ele>
        <time>2020-08-03T10:12:47.000Z</time>
      </trkpt>
      <trkpt lat="45.06893" lon="2.69716">
        <ele>1343</ele>
        <time>2020-08-03T10:12:57.000Z</time>
      </trkpt>
      <trkpt lat="45.06876" lon="2.69716">
        <ele>1342.8000488281</ele>
        <time>2020-08-03T10:13:07.000Z</time>
      </trkpt>
      <trkpt lat="45.06866" lon="2.69719">
        <ele>1342.8000488281</ele>
        <time>2020-08-03T10:13:16.000Z</time>
      </trkpt>
      <trkpt lat="45.06871" lon="2.69717">
        <ele>1342.5999755859</ele>
        <time>2020-08-03T10:13:25.000Z</time>
      </trkpt>
      <trkpt lat="45.06881" lon="2.69715">
        <ele>1342.5999755859</ele>
        <time>2020-08-03T10:13:32.000Z</time>
      </trkpt>
      <trkpt lat="45.06883" lon="2.69711">
        <ele>1342.5999755859</ele>
        <time>2020-08-03T10:13:41.000Z</time>
      </trkpt>
      <trkpt lat="45.06871" lon="2.69708">
        <ele>1342.5999755859</ele>
        <time>2020-08-03T10:13:48.000Z</time>
      </trkpt>
      <trkpt lat="45.06865" lon="2.69709">
        <ele>1342.5999755859</ele>
        <time>2020-08-03T10:13:55.000Z</time>
      </trkpt>
      <trkpt lat="45.06858" lon="2.69706">
        <ele>1342.5999755859</ele>
        <time>2020-08-03T10:14:04.000Z</time>
      </trkpt>
      <trkpt lat="45.06857" lon="2.69707">
        <ele>1342.5999755859</ele>
        <time>2020-08-03T10:14:11.000Z</time>
      </trkpt>
      <trkpt lat="45.06855" lon="2.69708">
        <ele>1342.5999755859</ele>
        <time>2020-08-03T10:14:19.000Z</time>
      </trkpt>
      <trkpt lat="45.0686" lon="2.69709">
        <ele>1342.5999755859</ele>
        <time>2020-08-03T10:14:28.000Z</time>
      </trkpt>
      <trkpt lat="45.0686" lon="2.69709">
        <ele>1342.5999755859</ele>
        <time>2020-08-03T10:14:35.000Z</time>
      </trkpt>
      <trkpt lat="45.06857" lon="2.6971">
        <ele>1342.5999755859</ele>
        <time>2020-08-03T10:14:43.000Z</time>
      </trkpt>
      <trkpt lat="45.06853" lon="2.69709">
        <ele>1342.5999755859</ele>
        <time>2020-08-03T10:14:51.000Z</time>
      </trkpt>
      <trkpt lat="45.06855" lon="2.69706">
        <ele>1342.5999755859</ele>
        <time>2020-08-03T10:14:56.000Z</time>
      </trkpt>
      <trkpt lat="45.06859" lon="2.69704">
        <ele>1342.5999755859</ele>
        <time>2020-08-03T10:15:03.000Z</time>
      </trkpt>
      <trkpt lat="45.06861" lon="2.69702">
        <ele>1342.5999755859</ele>
        <time>2020-08-03T10:15:11.000Z</time>
      </trkpt>
      <trkpt lat="45.06858" lon="2.69699">
        <ele>1342.5999755859</ele>
        <time>2020-08-03T10:15:20.000Z</time>
      </trkpt>
      <trkpt lat="45.06859" lon="2.69705">
        <ele>1342.5999755859</ele>
        <time>2020-08-03T10:15:26.000Z</time>
      </trkpt>
      <trkpt lat="45.06859" lon="2.69705">
        <ele>1342.5999755859</ele>
        <time>2020-08-03T10:15:34.000Z</time>
      </trkpt>
      <trkpt lat="45.06857" lon="2.69706">
        <ele>1342.5999755859</ele>
        <time>2020-08-03T10:15:41.000Z</time>
      </trkpt>
      <trkpt lat="45.06855" lon="2.69706">
        <ele>1342.5999755859</ele>
        <time>2020-08-03T10:15:47.000Z</time>
      </trkpt>
      <trkpt lat="45.06851" lon="2.69706">
        <ele>1342.5999755859</ele>
        <time>2020-08-03T10:15:55.000Z</time>
      </trkpt>
      <trkpt lat="45.06851" lon="2.69702">
        <ele>1342.5999755859</ele>
        <time>2020-08-03T10:16:02.000Z</time>
      </trkpt>
      <trkpt lat="45.06849" lon="2.69702">
        <ele>1342.5999755859</ele>
        <time>2020-08-03T10:16:09.000Z</time>
      </trkpt>
      <trkpt lat="45.06847" lon="2.69701">
        <ele>1342.5999755859</ele>
        <time>2020-08-03T10:16:17.000Z</time>
      </trkpt>
      <trkpt lat="45.06847" lon="2.69701">
        <ele>1342.5999755859</ele>
        <time>2020-08-03T10:16:24.000Z</time>
      </trkpt>
      <trkpt lat="45.0685" lon="2.69703">
        <ele>1342.5999755859</ele>
        <time>2020-08-03T10:16:26.000Z</time>
      </trkpt>
      <trkpt lat="45.06856" lon="2.69707">
        <ele>1342.8000488281</ele>
        <time>2020-08-03T10:16:32.000Z</time>
      </trkpt>
      <trkpt lat="45.06864" lon="2.69711">
        <ele>1342.8000488281</ele>
        <time>2020-08-03T10:16:38.000Z</time>
      </trkpt>
      <trkpt lat="45.06869" lon="2.69719">
        <ele>1342.5999755859</ele>
        <time>2020-08-03T10:16:43.000Z</time>
      </trkpt>
      <trkpt lat="45.06871" lon="2.69725">
        <ele>1342.4000244141</ele>
        <time>2020-08-03T10:16:47.000Z</time>
      </trkpt>
      <trkpt lat="45.06876" lon="2.69728">
        <ele>1341.8000488281</ele>
        <time>2020-08-03T10:16:51.000Z</time>
      </trkpt>
      <trkpt lat="45.06881" lon="2.6973">
        <ele>1341.5999755859</ele>
        <time>2020-08-03T10:16:55.000Z</time>
      </trkpt>
      <trkpt lat="45.06884" lon="2.69732">
        <ele>1341.4000244141</ele>
        <time>2020-08-03T10:16:58.000Z</time>
      </trkpt>
      <trkpt lat="45.06885" lon="2.69733">
        <ele>1341.4000244141</ele>
        <time>2020-08-03T10:16:59.000Z</time>
      </trkpt>
      <trkpt lat="45.06888" lon="2.69735">
        <ele>1341</ele>
        <time>2020-08-03T10:17:01.000Z</time>
      </trkpt>
      <trkpt lat="45.06894" lon="2.69738">
        <ele>1340.8000488281</ele>
        <time>2020-08-03T10:17:05.000Z</time>
      </trkpt>
      <trkpt lat="45.06898" lon="2.6974">
        <ele>1340.5999755859</ele>
        <time>2020-08-03T10:17:07.000Z</time>
      </trkpt>
      <trkpt lat="45.06901" lon="2.69741">
        <ele>1340.1999511719</ele>
        <time>2020-08-03T10:17:09.000Z</time>
      </trkpt>
      <trkpt lat="45.06904" lon="2.69741">
        <ele>1340</ele>
        <time>2020-08-03T10:17:10.000Z</time>
      </trkpt>
      <trkpt lat="45.06915" lon="2.69743">
        <ele>1339.8000488281</ele>
        <time>2020-08-03T10:17:18.000Z</time>
      </trkpt>
      <trkpt lat="45.06923" lon="2.69738">
        <ele>1339.1999511719</ele>
        <time>2020-08-03T10:17:25.000Z</time>
      </trkpt>
      <trkpt lat="45.06924" lon="2.69737">
        <ele>1339</ele>
        <time>2020-08-03T10:17:26.000Z</time>
      </trkpt>
      <trkpt lat="45.06932" lon="2.69733">
        <ele>1338</ele>
        <time>2020-08-03T10:17:32.000Z</time>
      </trkpt>
      <trkpt lat="45.06934" lon="2.69733">
        <ele>1337.8000488281</ele>
        <time>2020-08-03T10:17:34.000Z</time>
      </trkpt>
      <trkpt lat="45.06944" lon="2.69741">
        <ele>1337.1999511719</ele>
        <time>2020-08-03T10:17:42.000Z</time>
      </trkpt>
      <trkpt lat="45.06949" lon="2.69745">
        <ele>1337.1999511719</ele>
        <time>2020-08-03T10:17:46.000Z</time>
      </trkpt>
      <trkpt lat="45.0695" lon="2.69747">
        <ele>1337</ele>
        <time>2020-08-03T10:17:47.000Z</time>
      </trkpt>
      <trkpt lat="45.06951" lon="2.69749">
        <ele>1336.8000488281</ele>
        <time>2020-08-03T10:17:48.000Z</time>
      </trkpt>
      <trkpt lat="45.06958" lon="2.69759">
        <ele>1336</ele>
        <time>2020-08-03T10:17:55.000Z</time>
      </trkpt>
      <trkpt lat="45.0696" lon="2.6976">
        <ele>1335.8000488281</ele>
        <time>2020-08-03T10:17:57.000Z</time>
      </trkpt>
      <trkpt lat="45.06963" lon="2.6976">
        <ele>1335.8000488281</ele>
        <time>2020-08-03T10:17:59.000Z</time>
      </trkpt>
      <trkpt lat="45.06964" lon="2.6976">
        <ele>1335.8000488281</ele>
        <time>2020-08-03T10:18:00.000Z</time>
      </trkpt>
      <trkpt lat="45.06971" lon="2.69761">
        <ele>1335.4000244141</ele>
        <time>2020-08-03T10:18:06.000Z</time>
      </trkpt>
      <trkpt lat="45.06976" lon="2.69761">
        <ele>1334.8000488281</ele>
        <time>2020-08-03T10:18:10.000Z</time>
      </trkpt>
      <trkpt lat="45.06978" lon="2.69762">
        <ele>1334.5999755859</ele>
        <time>2020-08-03T10:18:12.000Z</time>
      </trkpt>
      <trkpt lat="45.06979" lon="2.69762">
        <ele>1334.4000244141</ele>
        <time>2020-08-03T10:18:13.000Z</time>
      </trkpt>
      <trkpt lat="45.06987" lon="2.69767">
        <ele>1334.1999511719</ele>
        <time>2020-08-03T10:18:19.000Z</time>
      </trkpt>
      <trkpt lat="45.06991" lon="2.69768">
        <ele>1333.8000488281</ele>
        <time>2020-08-03T10:18:22.000Z</time>
      </trkpt>
      <trkpt lat="45.06995" lon="2.6977">
        <ele>1333.1999511719</ele>
        <time>2020-08-03T10:18:26.000Z</time>
      </trkpt>
      <trkpt lat="45.07004" lon="2.69772">
        <ele>1333</ele>
        <time>2020-08-03T10:18:33.000Z</time>
      </trkpt>
      <trkpt lat="45.07007" lon="2.69775">
        <ele>1332.8000488281</ele>
        <time>2020-08-03T10:18:36.000Z</time>
      </trkpt>
      <trkpt lat="45.07015" lon="2.6978">
        <ele>1332.4000244141</ele>
        <time>2020-08-03T10:18:39.000Z</time>
      </trkpt>
      <trkpt lat="45.0702" lon="2.69795">
        <ele>1331.4000244141</ele>
        <time>2020-08-03T10:18:46.000Z</time>
      </trkpt>
      <trkpt lat="45.07025" lon="2.69803">
        <ele>1331.1999511719</ele>
        <time>2020-08-03T10:18:49.000Z</time>
      </trkpt>
      <trkpt lat="45.07027" lon="2.6981">
        <ele>1331</ele>
        <time>2020-08-03T10:18:52.000Z</time>
      </trkpt>
      <trkpt lat="45.0703" lon="2.6982">
        <ele>1330.8000488281</ele>
        <time>2020-08-03T10:18:58.000Z</time>
      </trkpt>
      <trkpt lat="45.07034" lon="2.69829">
        <ele>1331.4000244141</ele>
        <time>2020-08-03T10:19:05.000Z</time>
      </trkpt>
      <trkpt lat="45.07038" lon="2.69836">
        <ele>1331.4000244141</ele>
        <time>2020-08-03T10:19:11.000Z</time>
      </trkpt>
      <trkpt lat="45.07038" lon="2.69837">
        <ele>1331.4000244141</ele>
        <time>2020-08-03T10:19:12.000Z</time>
      </trkpt>
      <trkpt lat="45.07041" lon="2.69846">
        <ele>1331.8000488281</ele>
        <time>2020-08-03T10:19:17.000Z</time>
      </trkpt>
      <trkpt lat="45.07041" lon="2.69847">
        <ele>1332</ele>
        <time>2020-08-03T10:19:18.000Z</time>
      </trkpt>
      <trkpt lat="45.07042" lon="2.69853">
        <ele>1332.4000244141</ele>
        <time>2020-08-03T10:19:22.000Z</time>
      </trkpt>
      <trkpt lat="45.07041" lon="2.69857">
        <ele>1332.8000488281</ele>
        <time>2020-08-03T10:19:24.000Z</time>
      </trkpt>
      <trkpt lat="45.07044" lon="2.69864">
        <ele>1333</ele>
        <time>2020-08-03T10:19:30.000Z</time>
      </trkpt>
      <trkpt lat="45.07044" lon="2.69866">
        <ele>1333.4000244141</ele>
        <time>2020-08-03T10:19:33.000Z</time>
      </trkpt>
      <trkpt lat="45.07045" lon="2.69869">
        <ele>1333.5999755859</ele>
        <time>2020-08-03T10:19:36.000Z</time>
      </trkpt>
      <trkpt lat="45.07046" lon="2.6987">
        <ele>1333.8000488281</ele>
        <time>2020-08-03T10:19:37.000Z</time>
      </trkpt>
      <trkpt lat="45.07048" lon="2.69873">
        <ele>1334.5999755859</ele>
        <time>2020-08-03T10:19:42.000Z</time>
      </trkpt>
      <trkpt lat="45.07049" lon="2.69874">
        <ele>1334.8000488281</ele>
        <time>2020-08-03T10:19:44.000Z</time>
      </trkpt>
      <trkpt lat="45.07053" lon="2.6988">
        <ele>1335</ele>
        <time>2020-08-03T10:19:49.000Z</time>
      </trkpt>
      <trkpt lat="45.07057" lon="2.69888">
        <ele>1335.1999511719</ele>
        <time>2020-08-03T10:19:56.000Z</time>
      </trkpt>
      <trkpt lat="45.07058" lon="2.69893">
        <ele>1335.5999755859</ele>
        <time>2020-08-03T10:20:00.000Z</time>
      </trkpt>
      <trkpt lat="45.07059" lon="2.69895">
        <ele>1336.4000244141</ele>
        <time>2020-08-03T10:20:03.000Z</time>
      </trkpt>
      <trkpt lat="45.07059" lon="2.69897">
        <ele>1336.8000488281</ele>
        <time>2020-08-03T10:20:05.000Z</time>
      </trkpt>
      <trkpt lat="45.07062" lon="2.69899">
        <ele>1337.1999511719</ele>
        <time>2020-08-03T10:20:09.000Z</time>
      </trkpt>
      <trkpt lat="45.07067" lon="2.69903">
        <ele>1337.8000488281</ele>
        <time>2020-08-03T10:20:14.000Z</time>
      </trkpt>
      <trkpt lat="45.07068" lon="2.69904">
        <ele>1338</ele>
        <time>2020-08-03T10:20:15.000Z</time>
      </trkpt>
      <trkpt lat="45.07069" lon="2.69905">
        <ele>1338.1999511719</ele>
        <time>2020-08-03T10:20:17.000Z</time>
      </trkpt>
      <trkpt lat="45.07073" lon="2.69907">
        <ele>1338.8000488281</ele>
        <time>2020-08-03T10:20:21.000Z</time>
      </trkpt>
      <trkpt lat="45.07079" lon="2.69911">
        <ele>1339.4000244141</ele>
        <time>2020-08-03T10:20:29.000Z</time>
      </trkpt>
      <trkpt lat="45.07086" lon="2.69914">
        <ele>1339.5999755859</ele>
        <time>2020-08-03T10:20:37.000Z</time>
      </trkpt>
      <trkpt lat="45.07095" lon="2.69912">
        <ele>1338.8000488281</ele>
        <time>2020-08-03T10:20:45.000Z</time>
      </trkpt>
      <trkpt lat="45.07097" lon="2.69913">
        <ele>1338.8000488281</ele>
        <time>2020-08-03T10:20:47.000Z</time>
      </trkpt>
      <trkpt lat="45.07101" lon="2.69915">
        <ele>1338.4000244141</ele>
        <time>2020-08-03T10:20:51.000Z</time>
      </trkpt>
      <trkpt lat="45.07102" lon="2.69918">
        <ele>1338.1999511719</ele>
        <time>2020-08-03T10:20:55.000Z</time>
      </trkpt>
      <trkpt lat="45.07103" lon="2.69918">
        <ele>1338.1999511719</ele>
        <time>2020-08-03T10:20:57.000Z</time>
      </trkpt>
      <trkpt lat="45.07109" lon="2.69921">
        <ele>1338.5999755859</ele>
        <time>2020-08-03T10:21:06.000Z</time>
      </trkpt>
      <trkpt lat="45.07115" lon="2.69924">
        <ele>1338.1999511719</ele>
        <time>2020-08-03T10:21:13.000Z</time>
      </trkpt>
      <trkpt lat="45.07117" lon="2.69925">
        <ele>1338.4000244141</ele>
        <time>2020-08-03T10:21:14.000Z</time>
      </trkpt>
      <trkpt lat="45.07125" lon="2.69926">
        <ele>1338.8000488281</ele>
        <time>2020-08-03T10:21:20.000Z</time>
      </trkpt>
      <trkpt lat="45.0713" lon="2.69932">
        <ele>1339.5999755859</ele>
        <time>2020-08-03T10:21:26.000Z</time>
      </trkpt>
      <trkpt lat="45.07131" lon="2.69933">
        <ele>1340</ele>
        <time>2020-08-03T10:21:27.000Z</time>
      </trkpt>
      <trkpt lat="45.07136" lon="2.69939">
        <ele>1340.5999755859</ele>
        <time>2020-08-03T10:21:31.000Z</time>
      </trkpt>
      <trkpt lat="45.07139" lon="2.69942">
        <ele>1341</ele>
        <time>2020-08-03T10:21:34.000Z</time>
      </trkpt>
      <trkpt lat="45.07144" lon="2.69948">
        <ele>1341.8000488281</ele>
        <time>2020-08-03T10:21:39.000Z</time>
      </trkpt>
      <trkpt lat="45.07144" lon="2.69949">
        <ele>1342</ele>
        <time>2020-08-03T10:21:40.000Z</time>
      </trkpt>
      <trkpt lat="45.07145" lon="2.69951">
        <ele>1342.4000244141</ele>
        <time>2020-08-03T10:21:41.000Z</time>
      </trkpt>
      <trkpt lat="45.07145" lon="2.69954">
        <ele>1343.1999511719</ele>
        <time>2020-08-03T10:21:44.000Z</time>
      </trkpt>
      <trkpt lat="45.07145" lon="2.69955">
        <ele>1343.4000244141</ele>
        <time>2020-08-03T10:21:45.000Z</time>
      </trkpt>
      <trkpt lat="45.07147" lon="2.69957">
        <ele>1343.5999755859</ele>
        <time>2020-08-03T10:21:48.000Z</time>
      </trkpt>
      <trkpt lat="45.07147" lon="2.69959">
        <ele>1344.1999511719</ele>
        <time>2020-08-03T10:21:50.000Z</time>
      </trkpt>
      <trkpt lat="45.0715" lon="2.6996">
        <ele>1344.4000244141</ele>
        <time>2020-08-03T10:21:52.000Z</time>
      </trkpt>
      <trkpt lat="45.07153" lon="2.69962">
        <ele>1345</ele>
        <time>2020-08-03T10:21:55.000Z</time>
      </trkpt>
      <trkpt lat="45.07154" lon="2.69963">
        <ele>1345.1999511719</ele>
        <time>2020-08-03T10:21:56.000Z</time>
      </trkpt>
      <trkpt lat="45.07155" lon="2.69968">
        <ele>1345.8000488281</ele>
        <time>2020-08-03T10:21:59.000Z</time>
      </trkpt>
      <trkpt lat="45.07161" lon="2.69975">
        <ele>1346.1999511719</ele>
        <time>2020-08-03T10:22:06.000Z</time>
      </trkpt>
      <trkpt lat="45.07164" lon="2.69977">
        <ele>1346.4000244141</ele>
        <time>2020-08-03T10:22:07.000Z</time>
      </trkpt>
      <trkpt lat="45.07164" lon="2.69981">
        <ele>1346.5999755859</ele>
        <time>2020-08-03T10:22:10.000Z</time>
      </trkpt>
      <trkpt lat="45.07164" lon="2.69982">
        <ele>1346.5999755859</ele>
        <time>2020-08-03T10:22:11.000Z</time>
      </trkpt>
      <trkpt lat="45.07168" lon="2.69986">
        <ele>1347.4000244141</ele>
        <time>2020-08-03T10:22:16.000Z</time>
      </trkpt>
      <trkpt lat="45.0717" lon="2.69991">
        <ele>1348</ele>
        <time>2020-08-03T10:22:22.000Z</time>
      </trkpt>
      <trkpt lat="45.0717" lon="2.69993">
        <ele>1348.5999755859</ele>
        <time>2020-08-03T10:22:25.000Z</time>
      </trkpt>
      <trkpt lat="45.0717" lon="2.69996">
        <ele>1349.1999511719</ele>
        <time>2020-08-03T10:22:28.000Z</time>
      </trkpt>
      <trkpt lat="45.07171" lon="2.69996">
        <ele>1349.5999755859</ele>
        <time>2020-08-03T10:22:29.000Z</time>
      </trkpt>
      <trkpt lat="45.07172" lon="2.69997">
        <ele>1350.5999755859</ele>
        <time>2020-08-03T10:22:34.000Z</time>
      </trkpt>
      <trkpt lat="45.07173" lon="2.69995">
        <ele>1350.8000488281</ele>
        <time>2020-08-03T10:22:35.000Z</time>
      </trkpt>
      <trkpt lat="45.07176" lon="2.69994">
        <ele>1351.1999511719</ele>
        <time>2020-08-03T10:22:41.000Z</time>
      </trkpt>
      <trkpt lat="45.07177" lon="2.69994">
        <ele>1351.1999511719</ele>
        <time>2020-08-03T10:22:42.000Z</time>
      </trkpt>
      <trkpt lat="45.07182" lon="2.69991">
        <ele>1350.8000488281</ele>
        <time>2020-08-03T10:22:48.000Z</time>
      </trkpt>
      <trkpt lat="45.07183" lon="2.69989">
        <ele>1350.5999755859</ele>
        <time>2020-08-03T10:22:49.000Z</time>
      </trkpt>
      <trkpt lat="45.07189" lon="2.69985">
        <ele>1350.8000488281</ele>
        <time>2020-08-03T10:22:56.000Z</time>
      </trkpt>
      <trkpt lat="45.07192" lon="2.69982">
        <ele>1350.5999755859</ele>
        <time>2020-08-03T10:23:00.000Z</time>
      </trkpt>
      <trkpt lat="45.07194" lon="2.69981">
        <ele>1350.5999755859</ele>
        <time>2020-08-03T10:23:02.000Z</time>
      </trkpt>
      <trkpt lat="45.07197" lon="2.69977">
        <ele>1350.8000488281</ele>
        <time>2020-08-03T10:23:06.000Z</time>
      </trkpt>
      <trkpt lat="45.07199" lon="2.69975">
        <ele>1350.5999755859</ele>
        <time>2020-08-03T10:23:09.000Z</time>
      </trkpt>
      <trkpt lat="45.07204" lon="2.69973">
        <ele>1349.8000488281</ele>
        <time>2020-08-03T10:23:16.000Z</time>
      </trkpt>
      <trkpt lat="45.07205" lon="2.69973">
        <ele>1349.5999755859</ele>
        <time>2020-08-03T10:23:17.000Z</time>
      </trkpt>
      <trkpt lat="45.07207" lon="2.69971">
        <ele>1349.1999511719</ele>
        <time>2020-08-03T10:23:20.000Z</time>
      </trkpt>
      <trkpt lat="45.0721" lon="2.69969">
        <ele>1349</ele>
        <time>2020-08-03T10:23:23.000Z</time>
      </trkpt>
      <trkpt lat="45.07212" lon="2.69968">
        <ele>1348.5999755859</ele>
        <time>2020-08-03T10:23:25.000Z</time>
      </trkpt>
      <trkpt lat="45.07214" lon="2.69967">
        <ele>1348.5999755859</ele>
        <time>2020-08-03T10:23:26.000Z</time>
      </trkpt>
      <trkpt lat="45.0722" lon="2.69965">
        <ele>1347.8000488281</ele>
        <time>2020-08-03T10:23:31.000Z</time>
      </trkpt>
      <trkpt lat="45.07222" lon="2.69964">
        <ele>1347.5999755859</ele>
        <time>2020-08-03T10:23:33.000Z</time>
      </trkpt>
      <trkpt lat="45.07226" lon="2.69963">
        <ele>1347</ele>
        <time>2020-08-03T10:23:38.000Z</time>
      </trkpt>
      <trkpt lat="45.07227" lon="2.69963">
        <ele>1346.8000488281</ele>
        <time>2020-08-03T10:23:39.000Z</time>
      </trkpt>
      <trkpt lat="45.07229" lon="2.69963">
        <ele>1346.1999511719</ele>
        <time>2020-08-03T10:23:41.000Z</time>
      </trkpt>
      <trkpt lat="45.07231" lon="2.69964">
        <ele>1345.5999755859</ele>
        <time>2020-08-03T10:23:44.000Z</time>
      </trkpt>
      <trkpt lat="45.07234" lon="2.69964">
        <ele>1345.1999511719</ele>
        <time>2020-08-03T10:23:47.000Z</time>
      </trkpt>
      <trkpt lat="45.07238" lon="2.69967">
        <ele>1345</ele>
        <time>2020-08-03T10:23:51.000Z</time>
      </trkpt>
      <trkpt lat="45.07244" lon="2.69968">
        <ele>1344.1999511719</ele>
        <time>2020-08-03T10:23:55.000Z</time>
      </trkpt>
      <trkpt lat="45.07247" lon="2.69969">
        <ele>1344</ele>
        <time>2020-08-03T10:23:59.000Z</time>
      </trkpt>
      <trkpt lat="45.0725" lon="2.69976">
        <ele>1344.1999511719</ele>
        <time>2020-08-03T10:24:06.000Z</time>
      </trkpt>
      <trkpt lat="45.07256" lon="2.69977">
        <ele>1343.1999511719</ele>
        <time>2020-08-03T10:24:13.000Z</time>
      </trkpt>
      <trkpt lat="45.07259" lon="2.69977">
        <ele>1342</ele>
        <time>2020-08-03T10:24:19.000Z</time>
      </trkpt>
      <trkpt lat="45.07264" lon="2.69978">
        <ele>1341</ele>
        <time>2020-08-03T10:24:24.000Z</time>
      </trkpt>
      <trkpt lat="45.07266" lon="2.6998">
        <ele>1340.5999755859</ele>
        <time>2020-08-03T10:24:26.000Z</time>
      </trkpt>
      <trkpt lat="45.07267" lon="2.6998">
        <ele>1340.4000244141</ele>
        <time>2020-08-03T10:24:27.000Z</time>
      </trkpt>
      <trkpt lat="45.07268" lon="2.6998">
        <ele>1340</ele>
        <time>2020-08-03T10:24:28.000Z</time>
      </trkpt>
      <trkpt lat="45.07271" lon="2.69983">
        <ele>1339.5999755859</ele>
        <time>2020-08-03T10:24:33.000Z</time>
      </trkpt>
      <trkpt lat="45.07271" lon="2.69985">
        <ele>1339.4000244141</ele>
        <time>2020-08-03T10:24:34.000Z</time>
      </trkpt>
      <trkpt lat="45.07273" lon="2.69987">
        <ele>1338.8000488281</ele>
        <time>2020-08-03T10:24:36.000Z</time>
      </trkpt>
      <trkpt lat="45.07277" lon="2.69987">
        <ele>1338.1999511719</ele>
        <time>2020-08-03T10:24:39.000Z</time>
      </trkpt>
      <trkpt lat="45.07278" lon="2.6999">
        <ele>1337.5999755859</ele>
        <time>2020-08-03T10:24:41.000Z</time>
      </trkpt>
      <trkpt lat="45.0728" lon="2.69992">
        <ele>1336.4000244141</ele>
        <time>2020-08-03T10:24:45.000Z</time>
      </trkpt>
      <trkpt lat="45.0728" lon="2.69993">
        <ele>1335.8000488281</ele>
        <time>2020-08-03T10:24:46.000Z</time>
      </trkpt>
      <trkpt lat="45.07284" lon="2.69994">
        <ele>1335.1999511719</ele>
        <time>2020-08-03T10:24:48.000Z</time>
      </trkpt>
      <trkpt lat="45.07287" lon="2.69997">
        <ele>1334.5999755859</ele>
        <time>2020-08-03T10:24:51.000Z</time>
      </trkpt>
      <trkpt lat="45.07289" lon="2.69998">
        <ele>1334.1999511719</ele>
        <time>2020-08-03T10:24:53.000Z</time>
      </trkpt>
      <trkpt lat="45.07291" lon="2.69998">
        <ele>1334.1999511719</ele>
        <time>2020-08-03T10:24:54.000Z</time>
      </trkpt>
      <trkpt lat="45.07292" lon="2.69997">
        <ele>1334.1999511719</ele>
        <time>2020-08-03T10:24:55.000Z</time>
      </trkpt>
      <trkpt lat="45.07295" lon="2.69996">
        <ele>1334.1999511719</ele>
        <time>2020-08-03T10:24:57.000Z</time>
      </trkpt>
      <trkpt lat="45.07301" lon="2.69994">
        <ele>1334.4000244141</ele>
        <time>2020-08-03T10:25:03.000Z</time>
      </trkpt>
      <trkpt lat="45.07302" lon="2.69993">
        <ele>1334.4000244141</ele>
        <time>2020-08-03T10:25:04.000Z</time>
      </trkpt>
      <trkpt lat="45.07306" lon="2.69994">
        <ele>1335.1999511719</ele>
        <time>2020-08-03T10:25:10.000Z</time>
      </trkpt>
      <trkpt lat="45.07312" lon="2.70001">
        <ele>1335.5999755859</ele>
        <time>2020-08-03T10:25:19.000Z</time>
      </trkpt>
      <trkpt lat="45.07316" lon="2.70004">
        <ele>1335</ele>
        <time>2020-08-03T10:25:22.000Z</time>
      </trkpt>
      <trkpt lat="45.07317" lon="2.70006">
        <ele>1334.1999511719</ele>
        <time>2020-08-03T10:25:24.000Z</time>
      </trkpt>
      <trkpt lat="45.07317" lon="2.70007">
        <ele>1334</ele>
        <time>2020-08-03T10:25:25.000Z</time>
      </trkpt>
      <trkpt lat="45.0732" lon="2.7001">
        <ele>1333</ele>
        <time>2020-08-03T10:25:29.000Z</time>
      </trkpt>
      <trkpt lat="45.07321" lon="2.70012">
        <ele>1332.5999755859</ele>
        <time>2020-08-03T10:25:31.000Z</time>
      </trkpt>
      <trkpt lat="45.07322" lon="2.70014">
        <ele>1332.4000244141</ele>
        <time>2020-08-03T10:25:33.000Z</time>
      </trkpt>
      <trkpt lat="45.07325" lon="2.70016">
        <ele>1332</ele>
        <time>2020-08-03T10:25:37.000Z</time>
      </trkpt>
      <trkpt lat="45.07328" lon="2.70017">
        <ele>1332</ele>
        <time>2020-08-03T10:25:39.000Z</time>
      </trkpt>
      <trkpt lat="45.0733" lon="2.70018">
        <ele>1332</ele>
        <time>2020-08-03T10:25:41.000Z</time>
      </trkpt>
      <trkpt lat="45.07335" lon="2.70024">
        <ele>1332.1999511719</ele>
        <time>2020-08-03T10:25:49.000Z</time>
      </trkpt>
      <trkpt lat="45.07338" lon="2.70023">
        <ele>1333</ele>
        <time>2020-08-03T10:25:56.000Z</time>
      </trkpt>
      <trkpt lat="45.07342" lon="2.70025">
        <ele>1333.5999755859</ele>
        <time>2020-08-03T10:26:03.000Z</time>
      </trkpt>
      <trkpt lat="45.07348" lon="2.70029">
        <ele>1334</ele>
        <time>2020-08-03T10:26:09.000Z</time>
      </trkpt>
      <trkpt lat="45.07349" lon="2.7003">
        <ele>1334.1999511719</ele>
        <time>2020-08-03T10:26:10.000Z</time>
      </trkpt>
      <trkpt lat="45.07354" lon="2.70027">
        <ele>1334.4000244141</ele>
        <time>2020-08-03T10:26:16.000Z</time>
      </trkpt>
      <trkpt lat="45.07356" lon="2.70023">
        <ele>1335.1999511719</ele>
        <time>2020-08-03T10:26:22.000Z</time>
      </trkpt>
      <trkpt lat="45.07359" lon="2.70024">
        <ele>1336.1999511719</ele>
        <time>2020-08-03T10:26:26.000Z</time>
      </trkpt>
      <trkpt lat="45.0736" lon="2.70025">
        <ele>1336.8000488281</ele>
        <time>2020-08-03T10:26:29.000Z</time>
      </trkpt>
      <trkpt lat="45.07361" lon="2.70025">
        <ele>1337.4000244141</ele>
        <time>2020-08-03T10:26:31.000Z</time>
      </trkpt>
      <trkpt lat="45.07363" lon="2.70022">
        <ele>1338.5999755859</ele>
        <time>2020-08-03T10:26:34.000Z</time>
      </trkpt>
      <trkpt lat="45.07363" lon="2.70022">
        <ele>1339</ele>
        <time>2020-08-03T10:26:35.000Z</time>
      </trkpt>
      <trkpt lat="45.07364" lon="2.70021">
        <ele>1339.8000488281</ele>
        <time>2020-08-03T10:26:38.000Z</time>
      </trkpt>
      <trkpt lat="45.07366" lon="2.7002">
        <ele>1340.1999511719</ele>
        <time>2020-08-03T10:26:41.000Z</time>
      </trkpt>
      <trkpt lat="45.07369" lon="2.70023">
        <ele>1340.8000488281</ele>
        <time>2020-08-03T10:26:46.000Z</time>
      </trkpt>
      <trkpt lat="45.07371" lon="2.70023">
        <ele>1341.8000488281</ele>
        <time>2020-08-03T10:26:48.000Z</time>
      </trkpt>
      <trkpt lat="45.07375" lon="2.70024">
        <ele>1342.5999755859</ele>
        <time>2020-08-03T10:26:51.000Z</time>
      </trkpt>
      <trkpt lat="45.07378" lon="2.70025">
        <ele>1342.8000488281</ele>
        <time>2020-08-03T10:26:54.000Z</time>
      </trkpt>
      <trkpt lat="45.07383" lon="2.70023">
        <ele>1343.5999755859</ele>
        <time>2020-08-03T10:27:01.000Z</time>
      </trkpt>
      <trkpt lat="45.07386" lon="2.70024">
        <ele>1343.8000488281</ele>
        <time>2020-08-03T10:27:05.000Z</time>
      </trkpt>
      <trkpt lat="45.07388" lon="2.70027">
        <ele>1344.4000244141</ele>
        <time>2020-08-03T10:27:08.000Z</time>
      </trkpt>
      <trkpt lat="45.07388" lon="2.70028">
        <ele>1345</ele>
        <time>2020-08-03T10:27:10.000Z</time>
      </trkpt>
      <trkpt lat="45.07389" lon="2.70027">
        <ele>1345.5999755859</ele>
        <time>2020-08-03T10:27:14.000Z</time>
      </trkpt>
      <trkpt lat="45.07391" lon="2.70026">
        <ele>1346</ele>
        <time>2020-08-03T10:27:17.000Z</time>
      </trkpt>
      <trkpt lat="45.07394" lon="2.70028">
        <ele>1346.8000488281</ele>
        <time>2020-08-03T10:27:21.000Z</time>
      </trkpt>
      <trkpt lat="45.07395" lon="2.70028">
        <ele>1347.1999511719</ele>
        <time>2020-08-03T10:27:24.000Z</time>
      </trkpt>
      <trkpt lat="45.07397" lon="2.70027">
        <ele>1348.4000244141</ele>
        <time>2020-08-03T10:27:27.000Z</time>
      </trkpt>
      <trkpt lat="45.07398" lon="2.70026">
        <ele>1348.8000488281</ele>
        <time>2020-08-03T10:27:29.000Z</time>
      </trkpt>
      <trkpt lat="45.074" lon="2.70025">
        <ele>1349.4000244141</ele>
        <time>2020-08-03T10:27:32.000Z</time>
      </trkpt>
      <trkpt lat="45.07405" lon="2.70029">
        <ele>1350.1999511719</ele>
        <time>2020-08-03T10:27:38.000Z</time>
      </trkpt>
      <trkpt lat="45.07405" lon="2.70031">
        <ele>1350.4000244141</ele>
        <time>2020-08-03T10:27:40.000Z</time>
      </trkpt>
      <trkpt lat="45.07407" lon="2.70033">
        <ele>1351.1999511719</ele>
        <time>2020-08-03T10:27:44.000Z</time>
      </trkpt>
      <trkpt lat="45.0741" lon="2.70034">
        <ele>1351.1999511719</ele>
        <time>2020-08-03T10:27:50.000Z</time>
      </trkpt>
      <trkpt lat="45.07416" lon="2.70034">
        <ele>1351.4000244141</ele>
        <time>2020-08-03T10:27:56.000Z</time>
      </trkpt>
      <trkpt lat="45.07417" lon="2.70034">
        <ele>1351.5999755859</ele>
        <time>2020-08-03T10:27:57.000Z</time>
      </trkpt>
      <trkpt lat="45.07418" lon="2.70036">
        <ele>1352.4000244141</ele>
        <time>2020-08-03T10:28:04.000Z</time>
      </trkpt>
      <trkpt lat="45.07421" lon="2.70033">
        <ele>1351.8000488281</ele>
        <time>2020-08-03T10:28:14.000Z</time>
      </trkpt>
      <trkpt lat="45.07421" lon="2.70039">
        <ele>1352.5999755859</ele>
        <time>2020-08-03T10:28:21.000Z</time>
      </trkpt>
      <trkpt lat="45.07424" lon="2.7004">
        <ele>1353</ele>
        <time>2020-08-03T10:28:25.000Z</time>
      </trkpt>
      <trkpt lat="45.07425" lon="2.70042">
        <ele>1353.1999511719</ele>
        <time>2020-08-03T10:28:27.000Z</time>
      </trkpt>
      <trkpt lat="45.07429" lon="2.70043">
        <ele>1353.5999755859</ele>
        <time>2020-08-03T10:28:33.000Z</time>
      </trkpt>
      <trkpt lat="45.07429" lon="2.70043">
        <ele>1353.8000488281</ele>
        <time>2020-08-03T10:28:34.000Z</time>
      </trkpt>
      <trkpt lat="45.07434" lon="2.70046">
        <ele>1354.4000244141</ele>
        <time>2020-08-03T10:28:40.000Z</time>
      </trkpt>
      <trkpt lat="45.07434" lon="2.70046">
        <ele>1354.5999755859</ele>
        <time>2020-08-03T10:28:41.000Z</time>
      </trkpt>
      <trkpt lat="45.0744" lon="2.7005">
        <ele>1355.5999755859</ele>
        <time>2020-08-03T10:28:48.000Z</time>
      </trkpt>
      <trkpt lat="45.07444" lon="2.70052">
        <ele>1356.4000244141</ele>
        <time>2020-08-03T10:28:55.000Z</time>
      </trkpt>
      <trkpt lat="45.07446" lon="2.70054">
        <ele>1356.8000488281</ele>
        <time>2020-08-03T10:28:58.000Z</time>
      </trkpt>
      <trkpt lat="45.0745" lon="2.70057">
        <ele>1357.5999755859</ele>
        <time>2020-08-03T10:29:03.000Z</time>
      </trkpt>
      <trkpt lat="45.07451" lon="2.70057">
        <ele>1357.8000488281</ele>
        <time>2020-08-03T10:29:04.000Z</time>
      </trkpt>
      <trkpt lat="45.07456" lon="2.70061">
        <ele>1358.4000244141</ele>
        <time>2020-08-03T10:29:10.000Z</time>
      </trkpt>
      <trkpt lat="45.0746" lon="2.70063">
        <ele>1358.8000488281</ele>
        <time>2020-08-03T10:29:14.000Z</time>
      </trkpt>
      <trkpt lat="45.07462" lon="2.70062">
        <ele>1359.4000244141</ele>
        <time>2020-08-03T10:29:17.000Z</time>
      </trkpt>
      <trkpt lat="45.07462" lon="2.70056">
        <ele>1359.8000488281</ele>
        <time>2020-08-03T10:29:23.000Z</time>
      </trkpt>
      <trkpt lat="45.07462" lon="2.70055">
        <ele>1360</ele>
        <time>2020-08-03T10:29:24.000Z</time>
      </trkpt>
      <trkpt lat="45.0746" lon="2.70053">
        <ele>1361</ele>
        <time>2020-08-03T10:29:30.000Z</time>
      </trkpt>
      <trkpt lat="45.07459" lon="2.70048">
        <ele>1361.5999755859</ele>
        <time>2020-08-03T10:29:36.000Z</time>
      </trkpt>
      <trkpt lat="45.07459" lon="2.70046">
        <ele>1361.5999755859</ele>
        <time>2020-08-03T10:29:37.000Z</time>
      </trkpt>
      <trkpt lat="45.07457" lon="2.70044">
        <ele>1362</ele>
        <time>2020-08-03T10:29:40.000Z</time>
      </trkpt>
      <trkpt lat="45.07456" lon="2.70042">
        <ele>1362.4000244141</ele>
        <time>2020-08-03T10:29:43.000Z</time>
      </trkpt>
      <trkpt lat="45.07454" lon="2.70038">
        <ele>1362.5999755859</ele>
        <time>2020-08-03T10:29:48.000Z</time>
      </trkpt>
      <trkpt lat="45.07453" lon="2.70036">
        <ele>1362.5999755859</ele>
        <time>2020-08-03T10:29:50.000Z</time>
      </trkpt>
      <trkpt lat="45.07452" lon="2.70032">
        <ele>1363</ele>
        <time>2020-08-03T10:29:53.000Z</time>
      </trkpt>
      <trkpt lat="45.07451" lon="2.70031">
        <ele>1363.1999511719</ele>
        <time>2020-08-03T10:29:54.000Z</time>
      </trkpt>
      <trkpt lat="45.07449" lon="2.70029">
        <ele>1364.1999511719</ele>
        <time>2020-08-03T10:30:00.000Z</time>
      </trkpt>
      <trkpt lat="45.07449" lon="2.70025">
        <ele>1365.1999511719</ele>
        <time>2020-08-03T10:30:05.000Z</time>
      </trkpt>
      <trkpt lat="45.07449" lon="2.70024">
        <ele>1365.4000244141</ele>
        <time>2020-08-03T10:30:06.000Z</time>
      </trkpt>
      <trkpt lat="45.07446" lon="2.7002">
        <ele>1366</ele>
        <time>2020-08-03T10:30:11.000Z</time>
      </trkpt>
      <trkpt lat="45.07444" lon="2.70016">
        <ele>1366</ele>
        <time>2020-08-03T10:30:14.000Z</time>
      </trkpt>
      <trkpt lat="45.07443" lon="2.70015">
        <ele>1366.4000244141</ele>
        <time>2020-08-03T10:30:17.000Z</time>
      </trkpt>
      <trkpt lat="45.07443" lon="2.70008">
        <ele>1367.4000244141</ele>
        <time>2020-08-03T10:30:23.000Z</time>
      </trkpt>
      <trkpt lat="45.07443" lon="2.70007">
        <ele>1367.5999755859</ele>
        <time>2020-08-03T10:30:24.000Z</time>
      </trkpt>
      <trkpt lat="45.07446" lon="2.7">
        <ele>1367.5999755859</ele>
        <time>2020-08-03T10:30:31.000Z</time>
      </trkpt>
      <trkpt lat="45.07447" lon="2.69993">
        <ele>1368.5999755859</ele>
        <time>2020-08-03T10:30:37.000Z</time>
      </trkpt>
      <trkpt lat="45.07448" lon="2.69992">
        <ele>1368.8000488281</ele>
        <time>2020-08-03T10:30:39.000Z</time>
      </trkpt>
      <trkpt lat="45.07453" lon="2.69985">
        <ele>1369.4000244141</ele>
        <time>2020-08-03T10:30:47.000Z</time>
      </trkpt>
      <trkpt lat="45.07454" lon="2.69984">
        <ele>1369.5999755859</ele>
        <time>2020-08-03T10:30:48.000Z</time>
      </trkpt>
      <trkpt lat="45.07455" lon="2.69982">
        <ele>1370.1999511719</ele>
        <time>2020-08-03T10:30:50.000Z</time>
      </trkpt>
      <trkpt lat="45.07457" lon="2.69981">
        <ele>1370.4000244141</ele>
        <time>2020-08-03T10:30:52.000Z</time>
      </trkpt>
      <trkpt lat="45.07458" lon="2.6998">
        <ele>1370.4000244141</ele>
        <time>2020-08-03T10:30:53.000Z</time>
      </trkpt>
      <trkpt lat="45.07459" lon="2.69979">
        <ele>1370.8000488281</ele>
        <time>2020-08-03T10:30:55.000Z</time>
      </trkpt>
      <trkpt lat="45.07461" lon="2.69975">
        <ele>1371.1999511719</ele>
        <time>2020-08-03T10:30:59.000Z</time>
      </trkpt>
      <trkpt lat="45.07462" lon="2.69974">
        <ele>1371.4000244141</ele>
        <time>2020-08-03T10:31:00.000Z</time>
      </trkpt>
      <trkpt lat="45.07464" lon="2.69967">
        <ele>1371.5999755859</ele>
        <time>2020-08-03T10:31:05.000Z</time>
      </trkpt>
      <trkpt lat="45.07467" lon="2.69965">
        <ele>1371.8000488281</ele>
        <time>2020-08-03T10:31:08.000Z</time>
      </trkpt>
      <trkpt lat="45.07471" lon="2.69963">
        <ele>1372.1999511719</ele>
        <time>2020-08-03T10:31:11.000Z</time>
      </trkpt>
      <trkpt lat="45.07477" lon="2.69965">
        <ele>1372.4000244141</ele>
        <time>2020-08-03T10:31:18.000Z</time>
      </trkpt>
      <trkpt lat="45.07479" lon="2.69966">
        <ele>1372.4000244141</ele>
        <time>2020-08-03T10:31:20.000Z</time>
      </trkpt>
      <trkpt lat="45.07483" lon="2.69967">
        <ele>1372.4000244141</ele>
        <time>2020-08-03T10:31:24.000Z</time>
      </trkpt>
      <trkpt lat="45.07487" lon="2.6997">
        <ele>1373</ele>
        <time>2020-08-03T10:31:30.000Z</time>
      </trkpt>
      <trkpt lat="45.07489" lon="2.6997">
        <ele>1373.1999511719</ele>
        <time>2020-08-03T10:31:31.000Z</time>
      </trkpt>
      <trkpt lat="45.07495" lon="2.69975">
        <ele>1374</ele>
        <time>2020-08-03T10:31:37.000Z</time>
      </trkpt>
      <trkpt lat="45.07497" lon="2.69976">
        <ele>1374.1999511719</ele>
        <time>2020-08-03T10:31:38.000Z</time>
      </trkpt>
      <trkpt lat="45.07501" lon="2.69982">
        <ele>1375.1999511719</ele>
        <time>2020-08-03T10:31:43.000Z</time>
      </trkpt>
      <trkpt lat="45.07503" lon="2.69986">
        <ele>1375.8000488281</ele>
        <time>2020-08-03T10:31:46.000Z</time>
      </trkpt>
      <trkpt lat="45.07505" lon="2.69988">
        <ele>1376.4000244141</ele>
        <time>2020-08-03T10:31:49.000Z</time>
      </trkpt>
      <trkpt lat="45.07509" lon="2.69991">
        <ele>1377</ele>
        <time>2020-08-03T10:31:54.000Z</time>
      </trkpt>
      <trkpt lat="45.0751" lon="2.69994">
        <ele>1377.4000244141</ele>
        <time>2020-08-03T10:31:56.000Z</time>
      </trkpt>
      <trkpt lat="45.07512" lon="2.69994">
        <ele>1377.5999755859</ele>
        <time>2020-08-03T10:31:57.000Z</time>
      </trkpt>
      <trkpt lat="45.07514" lon="2.69999">
        <ele>1378.4000244141</ele>
        <time>2020-08-03T10:32:01.000Z</time>
      </trkpt>
      <trkpt lat="45.07516" lon="2.70007">
        <ele>1379.4000244141</ele>
        <time>2020-08-03T10:32:08.000Z</time>
      </trkpt>
      <trkpt lat="45.07517" lon="2.70008">
        <ele>1379.8000488281</ele>
        <time>2020-08-03T10:32:09.000Z</time>
      </trkpt>
      <trkpt lat="45.07518" lon="2.70012">
        <ele>1380.5999755859</ele>
        <time>2020-08-03T10:32:13.000Z</time>
      </trkpt>
      <trkpt lat="45.07519" lon="2.70014">
        <ele>1381</ele>
        <time>2020-08-03T10:32:16.000Z</time>
      </trkpt>
      <trkpt lat="45.0752" lon="2.70018">
        <ele>1381.8000488281</ele>
        <time>2020-08-03T10:32:20.000Z</time>
      </trkpt>
      <trkpt lat="45.07522" lon="2.70021">
        <ele>1382</ele>
        <time>2020-08-03T10:32:23.000Z</time>
      </trkpt>
      <trkpt lat="45.07525" lon="2.70024">
        <ele>1382.8000488281</ele>
        <time>2020-08-03T10:32:28.000Z</time>
      </trkpt>
      <trkpt lat="45.07525" lon="2.70025">
        <ele>1383</ele>
        <time>2020-08-03T10:32:29.000Z</time>
      </trkpt>
      <trkpt lat="45.07524" lon="2.70028">
        <ele>1383.8000488281</ele>
        <time>2020-08-03T10:32:33.000Z</time>
      </trkpt>
      <trkpt lat="45.07525" lon="2.70031">
        <ele>1384.5999755859</ele>
        <time>2020-08-03T10:32:37.000Z</time>
      </trkpt>
      <trkpt lat="45.07524" lon="2.70034">
        <ele>1384.8000488281</ele>
        <time>2020-08-03T10:32:39.000Z</time>
      </trkpt>
      <trkpt lat="45.07525" lon="2.70037">
        <ele>1385.8000488281</ele>
        <time>2020-08-03T10:32:44.000Z</time>
      </trkpt>
      <trkpt lat="45.07526" lon="2.70042">
        <ele>1386</ele>
        <time>2020-08-03T10:32:47.000Z</time>
      </trkpt>
      <trkpt lat="45.07526" lon="2.70044">
        <ele>1386.1999511719</ele>
        <time>2020-08-03T10:32:50.000Z</time>
      </trkpt>
      <trkpt lat="45.07527" lon="2.70046">
        <ele>1387</ele>
        <time>2020-08-03T10:32:53.000Z</time>
      </trkpt>
      <trkpt lat="45.07528" lon="2.7005">
        <ele>1387.8000488281</ele>
        <time>2020-08-03T10:32:59.000Z</time>
      </trkpt>
      <trkpt lat="45.07531" lon="2.70058">
        <ele>1387.8000488281</ele>
        <time>2020-08-03T10:33:06.000Z</time>
      </trkpt>
      <trkpt lat="45.07537" lon="2.70058">
        <ele>1388</ele>
        <time>2020-08-03T10:33:13.000Z</time>
      </trkpt>
      <trkpt lat="45.07537" lon="2.70059">
        <ele>1388</ele>
        <time>2020-08-03T10:33:14.000Z</time>
      </trkpt>
      <trkpt lat="45.07539" lon="2.7006">
        <ele>1388.5999755859</ele>
        <time>2020-08-03T10:33:19.000Z</time>
      </trkpt>
      <trkpt lat="45.0754" lon="2.7006">
        <ele>1389.1999511719</ele>
        <time>2020-08-03T10:33:21.000Z</time>
      </trkpt>
      <trkpt lat="45.07547" lon="2.70064">
        <ele>1389.4000244141</ele>
        <time>2020-08-03T10:33:27.000Z</time>
      </trkpt>
      <trkpt lat="45.0755" lon="2.70066">
        <ele>1390</ele>
        <time>2020-08-03T10:33:32.000Z</time>
      </trkpt>
      <trkpt lat="45.07551" lon="2.70067">
        <ele>1390.1999511719</ele>
        <time>2020-08-03T10:33:33.000Z</time>
      </trkpt>
      <trkpt lat="45.07553" lon="2.70068">
        <ele>1390.1999511719</ele>
        <time>2020-08-03T10:33:35.000Z</time>
      </trkpt>
      <trkpt lat="45.07558" lon="2.7007">
        <ele>1391.1999511719</ele>
        <time>2020-08-03T10:33:43.000Z</time>
      </trkpt>
      <trkpt lat="45.07561" lon="2.70072">
        <ele>1392.1999511719</ele>
        <time>2020-08-03T10:33:47.000Z</time>
      </trkpt>
      <trkpt lat="45.07563" lon="2.70074">
        <ele>1392.8000488281</ele>
        <time>2020-08-03T10:33:50.000Z</time>
      </trkpt>
      <trkpt lat="45.07566" lon="2.70074">
        <ele>1393.4000244141</ele>
        <time>2020-08-03T10:33:54.000Z</time>
      </trkpt>
      <trkpt lat="45.07568" lon="2.70074">
        <ele>1393.5999755859</ele>
        <time>2020-08-03T10:33:56.000Z</time>
      </trkpt>
      <trkpt lat="45.07573" lon="2.70075">
        <ele>1394.4000244141</ele>
        <time>2020-08-03T10:34:03.000Z</time>
      </trkpt>
      <trkpt lat="45.07573" lon="2.70076">
        <ele>1394.5999755859</ele>
        <time>2020-08-03T10:34:04.000Z</time>
      </trkpt>
      <trkpt lat="45.07577" lon="2.70079">
        <ele>1395.1999511719</ele>
        <time>2020-08-03T10:34:10.000Z</time>
      </trkpt>
      <trkpt lat="45.07578" lon="2.70081">
        <ele>1395.8000488281</ele>
        <time>2020-08-03T10:34:12.000Z</time>
      </trkpt>
      <trkpt lat="45.07583" lon="2.70086">
        <ele>1396.8000488281</ele>
        <time>2020-08-03T10:34:18.000Z</time>
      </trkpt>
      <trkpt lat="45.07584" lon="2.70086">
        <ele>1397</ele>
        <time>2020-08-03T10:34:19.000Z</time>
      </trkpt>
      <trkpt lat="45.07585" lon="2.70089">
        <ele>1397.4000244141</ele>
        <time>2020-08-03T10:34:22.000Z</time>
      </trkpt>
      <trkpt lat="45.07586" lon="2.70091">
        <ele>1397.5999755859</ele>
        <time>2020-08-03T10:34:24.000Z</time>
      </trkpt>
      <trkpt lat="45.07588" lon="2.70096">
        <ele>1398</ele>
        <time>2020-08-03T10:34:30.000Z</time>
      </trkpt>
      <trkpt lat="45.07589" lon="2.70097">
        <ele>1398.1999511719</ele>
        <time>2020-08-03T10:34:31.000Z</time>
      </trkpt>
      <trkpt lat="45.07591" lon="2.70105">
        <ele>1398.1999511719</ele>
        <time>2020-08-03T10:34:38.000Z</time>
      </trkpt>
      <trkpt lat="45.07594" lon="2.70111">
        <ele>1398.8000488281</ele>
        <time>2020-08-03T10:34:44.000Z</time>
      </trkpt>
      <trkpt lat="45.07596" lon="2.70114">
        <ele>1399</ele>
        <time>2020-08-03T10:34:47.000Z</time>
      </trkpt>
      <trkpt lat="45.07596" lon="2.70119">
        <ele>1399.1999511719</ele>
        <time>2020-08-03T10:34:50.000Z</time>
      </trkpt>
      <trkpt lat="45.07598" lon="2.7012">
        <ele>1400</ele>
        <time>2020-08-03T10:34:58.000Z</time>
      </trkpt>
      <trkpt lat="45.07599" lon="2.70121">
        <ele>1400</ele>
        <time>2020-08-03T10:35:00.000Z</time>
      </trkpt>
      <trkpt lat="45.076" lon="2.70123">
        <ele>1400.1999511719</ele>
        <time>2020-08-03T10:35:01.000Z</time>
      </trkpt>
      <trkpt lat="45.07599" lon="2.70126">
        <ele>1400</ele>
        <time>2020-08-03T10:35:03.000Z</time>
      </trkpt>
      <trkpt lat="45.07598" lon="2.70134">
        <ele>1400.8000488281</ele>
        <time>2020-08-03T10:35:11.000Z</time>
      </trkpt>
      <trkpt lat="45.07598" lon="2.7014">
        <ele>1401.1999511719</ele>
        <time>2020-08-03T10:35:15.000Z</time>
      </trkpt>
      <trkpt lat="45.07599" lon="2.70143">
        <ele>1401.4000244141</ele>
        <time>2020-08-03T10:35:17.000Z</time>
      </trkpt>
      <trkpt lat="45.07601" lon="2.70154">
        <ele>1402.1999511719</ele>
        <time>2020-08-03T10:35:25.000Z</time>
      </trkpt>
      <trkpt lat="45.07601" lon="2.70155">
        <ele>1402.1999511719</ele>
        <time>2020-08-03T10:35:26.000Z</time>
      </trkpt>
      <trkpt lat="45.07602" lon="2.70165">
        <ele>1402.1999511719</ele>
        <time>2020-08-03T10:35:33.000Z</time>
      </trkpt>
      <trkpt lat="45.07602" lon="2.70167">
        <ele>1402.1999511719</ele>
        <time>2020-08-03T10:35:34.000Z</time>
      </trkpt>
      <trkpt lat="45.07604" lon="2.70174">
        <ele>1402.5999755859</ele>
        <time>2020-08-03T10:35:40.000Z</time>
      </trkpt>
      <trkpt lat="45.07611" lon="2.70182">
        <ele>1403.1999511719</ele>
        <time>2020-08-03T10:35:47.000Z</time>
      </trkpt>
      <trkpt lat="45.07613" lon="2.70191">
        <ele>1404.1999511719</ele>
        <time>2020-08-03T10:35:53.000Z</time>
      </trkpt>
      <trkpt lat="45.07614" lon="2.70192">
        <ele>1404.4000244141</ele>
        <time>2020-08-03T10:35:54.000Z</time>
      </trkpt>
      <trkpt lat="45.07614" lon="2.702">
        <ele>1404.8000488281</ele>
        <time>2020-08-03T10:36:00.000Z</time>
      </trkpt>
      <trkpt lat="45.07615" lon="2.70202">
        <ele>1405</ele>
        <time>2020-08-03T10:36:01.000Z</time>
      </trkpt>
      <trkpt lat="45.07614" lon="2.70205">
        <ele>1405</ele>
        <time>2020-08-03T10:36:03.000Z</time>
      </trkpt>
      <trkpt lat="45.07612" lon="2.70208">
        <ele>1405.1999511719</ele>
        <time>2020-08-03T10:36:06.000Z</time>
      </trkpt>
      <trkpt lat="45.07612" lon="2.70209">
        <ele>1405.4000244141</ele>
        <time>2020-08-03T10:36:07.000Z</time>
      </trkpt>
      <trkpt lat="45.07611" lon="2.70214">
        <ele>1405.8000488281</ele>
        <time>2020-08-03T10:36:11.000Z</time>
      </trkpt>
      <trkpt lat="45.07611" lon="2.70216">
        <ele>1405.8000488281</ele>
        <time>2020-08-03T10:36:12.000Z</time>
      </trkpt>
      <trkpt lat="45.07611" lon="2.70218">
        <ele>1405.5999755859</ele>
        <time>2020-08-03T10:36:14.000Z</time>
      </trkpt>
      <trkpt lat="45.07611" lon="2.70221">
        <ele>1405.5999755859</ele>
        <time>2020-08-03T10:36:18.000Z</time>
      </trkpt>
      <trkpt lat="45.07609" lon="2.70223">
        <ele>1406</ele>
        <time>2020-08-03T10:36:27.000Z</time>
      </trkpt>
      <trkpt lat="45.07608" lon="2.70223">
        <ele>1405.8000488281</ele>
        <time>2020-08-03T10:36:36.000Z</time>
      </trkpt>
      <trkpt lat="45.07609" lon="2.70223">
        <ele>1406.4000244141</ele>
        <time>2020-08-03T10:36:42.000Z</time>
      </trkpt>
      <trkpt lat="45.07609" lon="2.70224">
        <ele>1406.4000244141</ele>
        <time>2020-08-03T10:36:43.000Z</time>
      </trkpt>
      <trkpt lat="45.0761" lon="2.70222">
        <ele>1406.5999755859</ele>
        <time>2020-08-03T10:36:50.000Z</time>
      </trkpt>
      <trkpt lat="45.07608" lon="2.70224">
        <ele>1406.5999755859</ele>
        <time>2020-08-03T10:37:01.000Z</time>
      </trkpt>
      <trkpt lat="45.07608" lon="2.70224">
        <ele>1407</ele>
        <time>2020-08-03T10:37:18.000Z</time>
      </trkpt>
      <trkpt lat="45.07608" lon="2.70223">
        <ele>1407.4000244141</ele>
        <time>2020-08-03T10:37:20.000Z</time>
      </trkpt>
      <trkpt lat="45.07609" lon="2.70221">
        <ele>1407.8000488281</ele>
        <time>2020-08-03T10:37:24.000Z</time>
      </trkpt>
      <trkpt lat="45.0761" lon="2.7022">
        <ele>1407.5999755859</ele>
        <time>2020-08-03T10:37:26.000Z</time>
      </trkpt>
      <trkpt lat="45.07611" lon="2.70219">
        <ele>1407.4000244141</ele>
        <time>2020-08-03T10:37:29.000Z</time>
      </trkpt>
      <trkpt lat="45.07614" lon="2.7022">
        <ele>1407.5999755859</ele>
        <time>2020-08-03T10:37:35.000Z</time>
      </trkpt>
      <trkpt lat="45.07615" lon="2.70221">
        <ele>1408</ele>
        <time>2020-08-03T10:37:37.000Z</time>
      </trkpt>
      <trkpt lat="45.07616" lon="2.70222">
        <ele>1408.5999755859</ele>
        <time>2020-08-03T10:37:39.000Z</time>
      </trkpt>
      <trkpt lat="45.07617" lon="2.70222">
        <ele>1408.8000488281</ele>
        <time>2020-08-03T10:37:40.000Z</time>
      </trkpt>
      <trkpt lat="45.07619" lon="2.70222">
        <ele>1409.5999755859</ele>
        <time>2020-08-03T10:37:44.000Z</time>
      </trkpt>
      <trkpt lat="45.07623" lon="2.70221">
        <ele>1410</ele>
        <time>2020-08-03T10:37:48.000Z</time>
      </trkpt>
      <trkpt lat="45.07627" lon="2.70221">
        <ele>1410.5999755859</ele>
        <time>2020-08-03T10:37:54.000Z</time>
      </trkpt>
      <trkpt lat="45.07628" lon="2.70221">
        <ele>1410.8000488281</ele>
        <time>2020-08-03T10:37:55.000Z</time>
      </trkpt>
      <trkpt lat="45.07633" lon="2.70224">
        <ele>1411.4000244141</ele>
        <time>2020-08-03T10:38:02.000Z</time>
      </trkpt>
      <trkpt lat="45.07639" lon="2.7023">
        <ele>1411.4000244141</ele>
        <time>2020-08-03T10:38:09.000Z</time>
      </trkpt>
      <trkpt lat="45.0764" lon="2.70233">
        <ele>1411.5999755859</ele>
        <time>2020-08-03T10:38:16.000Z</time>
      </trkpt>
      <trkpt lat="45.0764" lon="2.70233">
        <ele>1411.5999755859</ele>
        <time>2020-08-03T10:38:17.000Z</time>
      </trkpt>
      <trkpt lat="45.07641" lon="2.70233">
        <ele>1411</ele>
        <time>2020-08-03T10:38:28.000Z</time>
      </trkpt>
      <trkpt lat="45.07645" lon="2.70231">
        <ele>1411.5999755859</ele>
        <time>2020-08-03T10:38:34.000Z</time>
      </trkpt>
      <trkpt lat="45.07652" lon="2.70229">
        <ele>1412.8000488281</ele>
        <time>2020-08-03T10:38:40.000Z</time>
      </trkpt>
      <trkpt lat="45.07653" lon="2.7023">
        <ele>1413.1999511719</ele>
        <time>2020-08-03T10:38:42.000Z</time>
      </trkpt>
      <trkpt lat="45.07661" lon="2.70242">
        <ele>1412.1999511719</ele>
        <time>2020-08-03T10:38:52.000Z</time>
      </trkpt>
      <trkpt lat="45.07662" lon="2.70243">
        <ele>1411.5999755859</ele>
        <time>2020-08-03T10:38:54.000Z</time>
      </trkpt>
      <trkpt lat="45.07664" lon="2.70246">
        <ele>1411.1999511719</ele>
        <time>2020-08-03T10:38:56.000Z</time>
      </trkpt>
      <trkpt lat="45.07666" lon="2.70248">
        <ele>1411</ele>
        <time>2020-08-03T10:38:58.000Z</time>
      </trkpt>
      <trkpt lat="45.07675" lon="2.70254">
        <ele>1410.8000488281</ele>
        <time>2020-08-03T10:39:06.000Z</time>
      </trkpt>
      <trkpt lat="45.07678" lon="2.70255">
        <ele>1410.8000488281</ele>
        <time>2020-08-03T10:39:08.000Z</time>
      </trkpt>
      <trkpt lat="45.07679" lon="2.70255">
        <ele>1410.4000244141</ele>
        <time>2020-08-03T10:39:09.000Z</time>
      </trkpt>
      <trkpt lat="45.07682" lon="2.70255">
        <ele>1409.8000488281</ele>
        <time>2020-08-03T10:39:11.000Z</time>
      </trkpt>
      <trkpt lat="45.07683" lon="2.70255">
        <ele>1409.5999755859</ele>
        <time>2020-08-03T10:39:12.000Z</time>
      </trkpt>
      <trkpt lat="45.07691" lon="2.70254">
        <ele>1409.8000488281</ele>
        <time>2020-08-03T10:39:19.000Z</time>
      </trkpt>
      <trkpt lat="45.07698" lon="2.70251">
        <ele>1410.8000488281</ele>
        <time>2020-08-03T10:39:26.000Z</time>
      </trkpt>
      <trkpt lat="45.07702" lon="2.70254">
        <ele>1411.4000244141</ele>
        <time>2020-08-03T10:39:31.000Z</time>
      </trkpt>
      <trkpt lat="45.07705" lon="2.70256">
        <ele>1412</ele>
        <time>2020-08-03T10:39:35.000Z</time>
      </trkpt>
      <trkpt lat="45.07709" lon="2.70259">
        <ele>1412.4000244141</ele>
        <time>2020-08-03T10:39:39.000Z</time>
      </trkpt>
      <trkpt lat="45.07711" lon="2.7026">
        <ele>1412.4000244141</ele>
        <time>2020-08-03T10:39:40.000Z</time>
      </trkpt>
      <trkpt lat="45.07713" lon="2.70262">
        <ele>1412.8000488281</ele>
        <time>2020-08-03T10:39:42.000Z</time>
      </trkpt>
      <trkpt lat="45.07718" lon="2.70263">
        <ele>1413.1999511719</ele>
        <time>2020-08-03T10:39:47.000Z</time>
      </trkpt>
      <trkpt lat="45.07721" lon="2.70263">
        <ele>1413.4000244141</ele>
        <time>2020-08-03T10:39:49.000Z</time>
      </trkpt>
      <trkpt lat="45.07722" lon="2.70263">
        <ele>1413.5999755859</ele>
        <time>2020-08-03T10:39:50.000Z</time>
      </trkpt>
      <trkpt lat="45.07724" lon="2.70262">
        <ele>1413.5999755859</ele>
        <time>2020-08-03T10:39:52.000Z</time>
      </trkpt>
      <trkpt lat="45.07729" lon="2.70258">
        <ele>1413.8000488281</ele>
        <time>2020-08-03T10:39:56.000Z</time>
      </trkpt>
      <trkpt lat="45.07738" lon="2.70257">
        <ele>1414.1999511719</ele>
        <time>2020-08-03T10:40:03.000Z</time>
      </trkpt>
      <trkpt lat="45.07745" lon="2.70255">
        <ele>1414.5999755859</ele>
        <time>2020-08-03T10:40:09.000Z</time>
      </trkpt>
      <trkpt lat="45.07754" lon="2.70251">
        <ele>1415.4000244141</ele>
        <time>2020-08-03T10:40:17.000Z</time>
      </trkpt>
      <trkpt lat="45.07764" lon="2.70245">
        <ele>1415.1999511719</ele>
        <time>2020-08-03T10:40:25.000Z</time>
      </trkpt>
      <trkpt lat="45.07776" lon="2.70244">
        <ele>1415.4000244141</ele>
        <time>2020-08-03T10:40:33.000Z</time>
      </trkpt>
      <trkpt lat="45.07786" lon="2.70242">
        <ele>1415.5999755859</ele>
        <time>2020-08-03T10:40:41.000Z</time>
      </trkpt>
      <trkpt lat="45.07793" lon="2.70239">
        <ele>1415.4000244141</ele>
        <time>2020-08-03T10:40:47.000Z</time>
      </trkpt>
      <trkpt lat="45.07806" lon="2.70239">
        <ele>1416</ele>
        <time>2020-08-03T10:40:56.000Z</time>
      </trkpt>
      <trkpt lat="45.07814" lon="2.70239">
        <ele>1416</ele>
        <time>2020-08-03T10:41:02.000Z</time>
      </trkpt>
      <trkpt lat="45.07815" lon="2.70239">
        <ele>1416</ele>
        <time>2020-08-03T10:41:03.000Z</time>
      </trkpt>
      <trkpt lat="45.07819" lon="2.70237">
        <ele>1415.4000244141</ele>
        <time>2020-08-03T10:41:07.000Z</time>
      </trkpt>
      <trkpt lat="45.07822" lon="2.70236">
        <ele>1414.5999755859</ele>
        <time>2020-08-03T10:41:09.000Z</time>
      </trkpt>
      <trkpt lat="45.07823" lon="2.70235">
        <ele>1414.1999511719</ele>
        <time>2020-08-03T10:41:10.000Z</time>
      </trkpt>
      <trkpt lat="45.07824" lon="2.70233">
        <ele>1414</ele>
        <time>2020-08-03T10:41:11.000Z</time>
      </trkpt>
      <trkpt lat="45.07827" lon="2.70229">
        <ele>1413.4000244141</ele>
        <time>2020-08-03T10:41:14.000Z</time>
      </trkpt>
      <trkpt lat="45.07829" lon="2.70227">
        <ele>1413</ele>
        <time>2020-08-03T10:41:16.000Z</time>
      </trkpt>
      <trkpt lat="45.07832" lon="2.70227">
        <ele>1412.4000244141</ele>
        <time>2020-08-03T10:41:18.000Z</time>
      </trkpt>
      <trkpt lat="45.07837" lon="2.70221">
        <ele>1411.1999511719</ele>
        <time>2020-08-03T10:41:24.000Z</time>
      </trkpt>
      <trkpt lat="45.07841" lon="2.70216">
        <ele>1410.1999511719</ele>
        <time>2020-08-03T10:41:28.000Z</time>
      </trkpt>
      <trkpt lat="45.07845" lon="2.70215">
        <ele>1409.4000244141</ele>
        <time>2020-08-03T10:41:31.000Z</time>
      </trkpt>
      <trkpt lat="45.07848" lon="2.70213">
        <ele>1409.1999511719</ele>
        <time>2020-08-03T10:41:34.000Z</time>
      </trkpt>
      <trkpt lat="45.07852" lon="2.70211">
        <ele>1408.8000488281</ele>
        <time>2020-08-03T10:41:37.000Z</time>
      </trkpt>
      <trkpt lat="45.07853" lon="2.70212">
        <ele>1408.8000488281</ele>
        <time>2020-08-03T10:41:38.000Z</time>
      </trkpt>
      <trkpt lat="45.07859" lon="2.70211">
        <ele>1408</ele>
        <time>2020-08-03T10:41:43.000Z</time>
      </trkpt>
      <trkpt lat="45.07863" lon="2.7021">
        <ele>1407.4000244141</ele>
        <time>2020-08-03T10:41:46.000Z</time>
      </trkpt>
      <trkpt lat="45.07876" lon="2.70207">
        <ele>1408.1999511719</ele>
        <time>2020-08-03T10:41:55.000Z</time>
      </trkpt>
      <trkpt lat="45.07886" lon="2.70208">
        <ele>1408.1999511719</ele>
        <time>2020-08-03T10:42:02.000Z</time>
      </trkpt>
      <trkpt lat="45.07894" lon="2.70209">
        <ele>1408.1999511719</ele>
        <time>2020-08-03T10:42:08.000Z</time>
      </trkpt>
      <trkpt lat="45.07899" lon="2.70209">
        <ele>1408.5999755859</ele>
        <time>2020-08-03T10:42:13.000Z</time>
      </trkpt>
      <trkpt lat="45.07904" lon="2.7021">
        <ele>1408.5999755859</ele>
        <time>2020-08-03T10:42:16.000Z</time>
      </trkpt>
      <trkpt lat="45.07913" lon="2.7021">
        <ele>1408.5999755859</ele>
        <time>2020-08-03T10:42:23.000Z</time>
      </trkpt>
      <trkpt lat="45.07918" lon="2.70209">
        <ele>1408.1999511719</ele>
        <time>2020-08-03T10:42:27.000Z</time>
      </trkpt>
      <trkpt lat="45.07923" lon="2.70209">
        <ele>1408.1999511719</ele>
        <time>2020-08-03T10:42:30.000Z</time>
      </trkpt>
      <trkpt lat="45.07929" lon="2.70208">
        <ele>1408</ele>
        <time>2020-08-03T10:42:36.000Z</time>
      </trkpt>
      <trkpt lat="45.0793" lon="2.70209">
        <ele>1407.8000488281</ele>
        <time>2020-08-03T10:42:37.000Z</time>
      </trkpt>
      <trkpt lat="45.07935" lon="2.70208">
        <ele>1407.5999755859</ele>
        <time>2020-08-03T10:42:41.000Z</time>
      </trkpt>
      <trkpt lat="45.07939" lon="2.70203">
        <ele>1408.1999511719</ele>
        <time>2020-08-03T10:42:48.000Z</time>
      </trkpt>
      <trkpt lat="45.07941" lon="2.70204">
        <ele>1408.1999511719</ele>
        <time>2020-08-03T10:42:55.000Z</time>
      </trkpt>
      <trkpt lat="45.07943" lon="2.70205">
        <ele>1408.1999511719</ele>
        <time>2020-08-03T10:42:57.000Z</time>
      </trkpt>
      <trkpt lat="45.0795" lon="2.70201">
        <ele>1408.1999511719</ele>
        <time>2020-08-03T10:43:04.000Z</time>
      </trkpt>
      <trkpt lat="45.07957" lon="2.70197">
        <ele>1409.1999511719</ele>
        <time>2020-08-03T10:43:12.000Z</time>
      </trkpt>
      <trkpt lat="45.07967" lon="2.70195">
        <ele>1409.8000488281</ele>
        <time>2020-08-03T10:43:20.000Z</time>
      </trkpt>
      <trkpt lat="45.07971" lon="2.70196">
        <ele>1410.1999511719</ele>
        <time>2020-08-03T10:43:23.000Z</time>
      </trkpt>
      <trkpt lat="45.07978" lon="2.70194">
        <ele>1410.8000488281</ele>
        <time>2020-08-03T10:43:28.000Z</time>
      </trkpt>
      <trkpt lat="45.07985" lon="2.70193">
        <ele>1410.8000488281</ele>
        <time>2020-08-03T10:43:35.000Z</time>
      </trkpt>
      <trkpt lat="45.07986" lon="2.70193">
        <ele>1411</ele>
        <time>2020-08-03T10:43:36.000Z</time>
      </trkpt>
      <trkpt lat="45.07991" lon="2.70193">
        <ele>1411.1999511719</ele>
        <time>2020-08-03T10:43:40.000Z</time>
      </trkpt>
      <trkpt lat="45.07995" lon="2.70193">
        <ele>1411.4000244141</ele>
        <time>2020-08-03T10:43:43.000Z</time>
      </trkpt>
      <trkpt lat="45.08002" lon="2.70192">
        <ele>1412</ele>
        <time>2020-08-03T10:43:49.000Z</time>
      </trkpt>
      <trkpt lat="45.08011" lon="2.70192">
        <ele>1411.4000244141</ele>
        <time>2020-08-03T10:43:57.000Z</time>
      </trkpt>
      <trkpt lat="45.0802" lon="2.70192">
        <ele>1411.1999511719</ele>
        <time>2020-08-03T10:44:04.000Z</time>
      </trkpt>
      <trkpt lat="45.0803" lon="2.70192">
        <ele>1410.4000244141</ele>
        <time>2020-08-03T10:44:11.000Z</time>
      </trkpt>
      <trkpt lat="45.08037" lon="2.70191">
        <ele>1410.8000488281</ele>
        <time>2020-08-03T10:44:18.000Z</time>
      </trkpt>
      <trkpt lat="45.08046" lon="2.70195">
        <ele>1411.4000244141</ele>
        <time>2020-08-03T10:44:26.000Z</time>
      </trkpt>
      <trkpt lat="45.08053" lon="2.70196">
        <ele>1411.5999755859</ele>
        <time>2020-08-03T10:44:33.000Z</time>
      </trkpt>
      <trkpt lat="45.08062" lon="2.70198">
        <ele>1412</ele>
        <time>2020-08-03T10:44:40.000Z</time>
      </trkpt>
      <trkpt lat="45.08063" lon="2.70198">
        <ele>1412</ele>
        <time>2020-08-03T10:44:41.000Z</time>
      </trkpt>
      <trkpt lat="45.08068" lon="2.70198">
        <ele>1411.8000488281</ele>
        <time>2020-08-03T10:44:46.000Z</time>
      </trkpt>
      <trkpt lat="45.0807" lon="2.70199">
        <ele>1411.8000488281</ele>
        <time>2020-08-03T10:44:47.000Z</time>
      </trkpt>
      <trkpt lat="45.08073" lon="2.70201">
        <ele>1411.8000488281</ele>
        <time>2020-08-03T10:44:50.000Z</time>
      </trkpt>
      <trkpt lat="45.08076" lon="2.70205">
        <ele>1412.4000244141</ele>
        <time>2020-08-03T10:44:54.000Z</time>
      </trkpt>
      <trkpt lat="45.08077" lon="2.70205">
        <ele>1412.5999755859</ele>
        <time>2020-08-03T10:44:56.000Z</time>
      </trkpt>
      <trkpt lat="45.08082" lon="2.70207">
        <ele>1413.4000244141</ele>
        <time>2020-08-03T10:45:00.000Z</time>
      </trkpt>
      <trkpt lat="45.08085" lon="2.70209">
        <ele>1413.4000244141</ele>
        <time>2020-08-03T10:45:03.000Z</time>
      </trkpt>
      <trkpt lat="45.08092" lon="2.70212">
        <ele>1414</ele>
        <time>2020-08-03T10:45:09.000Z</time>
      </trkpt>
      <trkpt lat="45.08094" lon="2.70213">
        <ele>1414.1999511719</ele>
        <time>2020-08-03T10:45:12.000Z</time>
      </trkpt>
      <trkpt lat="45.08098" lon="2.70213">
        <ele>1414.4000244141</ele>
        <time>2020-08-03T10:45:13.000Z</time>
      </trkpt>
      <trkpt lat="45.08099" lon="2.70213">
        <ele>1414.4000244141</ele>
        <time>2020-08-03T10:45:14.000Z</time>
      </trkpt>
      <trkpt lat="45.08102" lon="2.70213">
        <ele>1414.4000244141</ele>
        <time>2020-08-03T10:45:16.000Z</time>
      </trkpt>
      <trkpt lat="45.08111" lon="2.70215">
        <ele>1414</ele>
        <time>2020-08-03T10:45:24.000Z</time>
      </trkpt>
      <trkpt lat="45.08123" lon="2.70217">
        <ele>1413.4000244141</ele>
        <time>2020-08-03T10:45:32.000Z</time>
      </trkpt>
      <trkpt lat="45.0813" lon="2.70216">
        <ele>1414.1999511719</ele>
        <time>2020-08-03T10:45:39.000Z</time>
      </trkpt>
      <trkpt lat="45.08137" lon="2.70217">
        <ele>1415</ele>
        <time>2020-08-03T10:45:46.000Z</time>
      </trkpt>
      <trkpt lat="45.08146" lon="2.70217">
        <ele>1414.8000488281</ele>
        <time>2020-08-03T10:45:53.000Z</time>
      </trkpt>
      <trkpt lat="45.08153" lon="2.70216">
        <ele>1415</ele>
        <time>2020-08-03T10:46:00.000Z</time>
      </trkpt>
      <trkpt lat="45.08156" lon="2.70217">
        <ele>1415.4000244141</ele>
        <time>2020-08-03T10:46:02.000Z</time>
      </trkpt>
      <trkpt lat="45.08161" lon="2.70219">
        <ele>1416</ele>
        <time>2020-08-03T10:46:07.000Z</time>
      </trkpt>
      <trkpt lat="45.08165" lon="2.70221">
        <ele>1416.8000488281</ele>
        <time>2020-08-03T10:46:11.000Z</time>
      </trkpt>
      <trkpt lat="45.08168" lon="2.70223">
        <ele>1417.1999511719</ele>
        <time>2020-08-03T10:46:14.000Z</time>
      </trkpt>
      <trkpt lat="45.08175" lon="2.70223">
        <ele>1417.8000488281</ele>
        <time>2020-08-03T10:46:22.000Z</time>
      </trkpt>
      <trkpt lat="45.08181" lon="2.70224">
        <ele>1418.4000244141</ele>
        <time>2020-08-03T10:46:28.000Z</time>
      </trkpt>
      <trkpt lat="45.08182" lon="2.70225">
        <ele>1418.4000244141</ele>
        <time>2020-08-03T10:46:30.000Z</time>
      </trkpt>
      <trkpt lat="45.08186" lon="2.70229">
        <ele>1419</ele>
        <time>2020-08-03T10:46:34.000Z</time>
      </trkpt>
      <trkpt lat="45.08187" lon="2.70229">
        <ele>1419.4000244141</ele>
        <time>2020-08-03T10:46:36.000Z</time>
      </trkpt>
      <trkpt lat="45.08188" lon="2.70231">
        <ele>1419.8000488281</ele>
        <time>2020-08-03T10:46:39.000Z</time>
      </trkpt>
      <trkpt lat="45.08189" lon="2.70232">
        <ele>1420.4000244141</ele>
        <time>2020-08-03T10:46:41.000Z</time>
      </trkpt>
      <trkpt lat="45.0819" lon="2.70235">
        <ele>1421.4000244141</ele>
        <time>2020-08-03T10:46:45.000Z</time>
      </trkpt>
      <trkpt lat="45.08191" lon="2.70236">
        <ele>1421.5999755859</ele>
        <time>2020-08-03T10:46:46.000Z</time>
      </trkpt>
      <trkpt lat="45.08193" lon="2.7024">
        <ele>1422.5999755859</ele>
        <time>2020-08-03T10:46:52.000Z</time>
      </trkpt>
      <trkpt lat="45.08194" lon="2.70241">
        <ele>1423</ele>
        <time>2020-08-03T10:46:54.000Z</time>
      </trkpt>
      <trkpt lat="45.08196" lon="2.70241">
        <ele>1423.5999755859</ele>
        <time>2020-08-03T10:46:58.000Z</time>
      </trkpt>
      <trkpt lat="45.08198" lon="2.70242">
        <ele>1424.1999511719</ele>
        <time>2020-08-03T10:47:02.000Z</time>
      </trkpt>
      <trkpt lat="45.08199" lon="2.70244">
        <ele>1424.8000488281</ele>
        <time>2020-08-03T10:47:04.000Z</time>
      </trkpt>
      <trkpt lat="45.08202" lon="2.70247">
        <ele>1425</ele>
        <time>2020-08-03T10:47:09.000Z</time>
      </trkpt>
      <trkpt lat="45.08204" lon="2.70251">
        <ele>1425.8000488281</ele>
        <time>2020-08-03T10:47:14.000Z</time>
      </trkpt>
      <trkpt lat="45.08204" lon="2.70252">
        <ele>1426</ele>
        <time>2020-08-03T10:47:15.000Z</time>
      </trkpt>
      <trkpt lat="45.08207" lon="2.70254">
        <ele>1426.8000488281</ele>
        <time>2020-08-03T10:47:19.000Z</time>
      </trkpt>
      <trkpt lat="45.08208" lon="2.70257">
        <ele>1427.4000244141</ele>
        <time>2020-08-03T10:47:22.000Z</time>
      </trkpt>
      <trkpt lat="45.0821" lon="2.70259">
        <ele>1428</ele>
        <time>2020-08-03T10:47:26.000Z</time>
      </trkpt>
      <trkpt lat="45.08211" lon="2.7026">
        <ele>1428.1999511719</ele>
        <time>2020-08-03T10:47:28.000Z</time>
      </trkpt>
      <trkpt lat="45.08212" lon="2.70261">
        <ele>1428.1999511719</ele>
        <time>2020-08-03T10:47:30.000Z</time>
      </trkpt>
      <trkpt lat="45.08213" lon="2.70264">
        <ele>1429</ele>
        <time>2020-08-03T10:47:34.000Z</time>
      </trkpt>
      <trkpt lat="45.08215" lon="2.70267">
        <ele>1429.4000244141</ele>
        <time>2020-08-03T10:47:38.000Z</time>
      </trkpt>
      <trkpt lat="45.08216" lon="2.70267">
        <ele>1430.4000244141</ele>
        <time>2020-08-03T10:47:40.000Z</time>
      </trkpt>
      <trkpt lat="45.08217" lon="2.70269">
        <ele>1431</ele>
        <time>2020-08-03T10:47:43.000Z</time>
      </trkpt>
      <trkpt lat="45.08218" lon="2.7027">
        <ele>1431.4000244141</ele>
        <time>2020-08-03T10:47:45.000Z</time>
      </trkpt>
      <trkpt lat="45.0822" lon="2.70271">
        <ele>1431.5999755859</ele>
        <time>2020-08-03T10:47:47.000Z</time>
      </trkpt>
      <trkpt lat="45.08221" lon="2.70272">
        <ele>1431.8000488281</ele>
        <time>2020-08-03T10:47:48.000Z</time>
      </trkpt>
      <trkpt lat="45.08224" lon="2.70275">
        <ele>1432</ele>
        <time>2020-08-03T10:47:53.000Z</time>
      </trkpt>
      <trkpt lat="45.08229" lon="2.70278">
        <ele>1432.4000244141</ele>
        <time>2020-08-03T10:47:59.000Z</time>
      </trkpt>
      <trkpt lat="45.08229" lon="2.70279">
        <ele>1432.5999755859</ele>
        <time>2020-08-03T10:48:00.000Z</time>
      </trkpt>
      <trkpt lat="45.08231" lon="2.70282">
        <ele>1433.4000244141</ele>
        <time>2020-08-03T10:48:05.000Z</time>
      </trkpt>
      <trkpt lat="45.08231" lon="2.70282">
        <ele>1433.5999755859</ele>
        <time>2020-08-03T10:48:06.000Z</time>
      </trkpt>
      <trkpt lat="45.08235" lon="2.70283">
        <ele>1434.4000244141</ele>
        <time>2020-08-03T10:48:11.000Z</time>
      </trkpt>
      <trkpt lat="45.08237" lon="2.70284">
        <ele>1434.5999755859</ele>
        <time>2020-08-03T10:48:13.000Z</time>
      </trkpt>
      <trkpt lat="45.08238" lon="2.70285">
        <ele>1434.8000488281</ele>
        <time>2020-08-03T10:48:14.000Z</time>
      </trkpt>
      <trkpt lat="45.0824" lon="2.70288">
        <ele>1435.5999755859</ele>
        <time>2020-08-03T10:48:19.000Z</time>
      </trkpt>
      <trkpt lat="45.08241" lon="2.70289">
        <ele>1435.5999755859</ele>
        <time>2020-08-03T10:48:20.000Z</time>
      </trkpt>
      <trkpt lat="45.08242" lon="2.70293">
        <ele>1436</ele>
        <time>2020-08-03T10:48:25.000Z</time>
      </trkpt>
      <trkpt lat="45.08242" lon="2.70294">
        <ele>1436.1999511719</ele>
        <time>2020-08-03T10:48:27.000Z</time>
      </trkpt>
      <trkpt lat="45.08244" lon="2.70297">
        <ele>1437</ele>
        <time>2020-08-03T10:48:32.000Z</time>
      </trkpt>
      <trkpt lat="45.08244" lon="2.70298">
        <ele>1437.4000244141</ele>
        <time>2020-08-03T10:48:33.000Z</time>
      </trkpt>
      <trkpt lat="45.08245" lon="2.70299">
        <ele>1437.5999755859</ele>
        <time>2020-08-03T10:48:34.000Z</time>
      </trkpt>
      <trkpt lat="45.08245" lon="2.70301">
        <ele>1438.1999511719</ele>
        <time>2020-08-03T10:48:36.000Z</time>
      </trkpt>
      <trkpt lat="45.08245" lon="2.70303">
        <ele>1438.8000488281</ele>
        <time>2020-08-03T10:48:39.000Z</time>
      </trkpt>
      <trkpt lat="45.08245" lon="2.70303">
        <ele>1439</ele>
        <time>2020-08-03T10:48:40.000Z</time>
      </trkpt>
      <trkpt lat="45.08245" lon="2.70305">
        <ele>1439.4000244141</ele>
        <time>2020-08-03T10:48:42.000Z</time>
      </trkpt>
      <trkpt lat="45.08247" lon="2.70308">
        <ele>1440.1999511719</ele>
        <time>2020-08-03T10:48:46.000Z</time>
      </trkpt>
      <trkpt lat="45.08247" lon="2.7031">
        <ele>1440.5999755859</ele>
        <time>2020-08-03T10:48:48.000Z</time>
      </trkpt>
      <trkpt lat="45.08249" lon="2.70313">
        <ele>1441.8000488281</ele>
        <time>2020-08-03T10:48:52.000Z</time>
      </trkpt>
      <trkpt lat="45.08249" lon="2.70313">
        <ele>1442.1999511719</ele>
        <time>2020-08-03T10:48:53.000Z</time>
      </trkpt>
      <trkpt lat="45.08249" lon="2.70316">
        <ele>1442.8000488281</ele>
        <time>2020-08-03T10:48:56.000Z</time>
      </trkpt>
      <trkpt lat="45.0825" lon="2.70318">
        <ele>1443</ele>
        <time>2020-08-03T10:49:00.000Z</time>
      </trkpt>
      <trkpt lat="45.08253" lon="2.70325">
        <ele>1443.4000244141</ele>
        <time>2020-08-03T10:49:08.000Z</time>
      </trkpt>
      <trkpt lat="45.08254" lon="2.70327">
        <ele>1444.1999511719</ele>
        <time>2020-08-03T10:49:10.000Z</time>
      </trkpt>
      <trkpt lat="45.08255" lon="2.70328">
        <ele>1444.5999755859</ele>
        <time>2020-08-03T10:49:12.000Z</time>
      </trkpt>
      <trkpt lat="45.08255" lon="2.70331">
        <ele>1445.4000244141</ele>
        <time>2020-08-03T10:49:15.000Z</time>
      </trkpt>
      <trkpt lat="45.08255" lon="2.70332">
        <ele>1445.4000244141</ele>
        <time>2020-08-03T10:49:16.000Z</time>
      </trkpt>
      <trkpt lat="45.08255" lon="2.70333">
        <ele>1445.5999755859</ele>
        <time>2020-08-03T10:49:18.000Z</time>
      </trkpt>
      <trkpt lat="45.08256" lon="2.70337">
        <ele>1445.5999755859</ele>
        <time>2020-08-03T10:49:22.000Z</time>
      </trkpt>
      <trkpt lat="45.08255" lon="2.70338">
        <ele>1445.8000488281</ele>
        <time>2020-08-03T10:49:23.000Z</time>
      </trkpt>
      <trkpt lat="45.08255" lon="2.70341">
        <ele>1446.5999755859</ele>
        <time>2020-08-03T10:49:26.000Z</time>
      </trkpt>
      <trkpt lat="45.08256" lon="2.70343">
        <ele>1447.1999511719</ele>
        <time>2020-08-03T10:49:28.000Z</time>
      </trkpt>
      <trkpt lat="45.08257" lon="2.70346">
        <ele>1447.8000488281</ele>
        <time>2020-08-03T10:49:32.000Z</time>
      </trkpt>
      <trkpt lat="45.08258" lon="2.70349">
        <ele>1448</ele>
        <time>2020-08-03T10:49:35.000Z</time>
      </trkpt>
      <trkpt lat="45.08259" lon="2.70351">
        <ele>1448.8000488281</ele>
        <time>2020-08-03T10:49:38.000Z</time>
      </trkpt>
      <trkpt lat="45.0826" lon="2.70353">
        <ele>1449.1999511719</ele>
        <time>2020-08-03T10:49:41.000Z</time>
      </trkpt>
      <trkpt lat="45.08259" lon="2.70353">
        <ele>1448.5999755859</ele>
        <time>2020-08-03T10:49:50.000Z</time>
      </trkpt>
      <trkpt lat="45.08259" lon="2.70355">
        <ele>1449</ele>
        <time>2020-08-03T10:50:01.000Z</time>
      </trkpt>
      <trkpt lat="45.08258" lon="2.70356">
        <ele>1448.8000488281</ele>
        <time>2020-08-03T10:50:12.000Z</time>
      </trkpt>
      <trkpt lat="45.0826" lon="2.70357">
        <ele>1448.5999755859</ele>
        <time>2020-08-03T10:50:17.000Z</time>
      </trkpt>
      <trkpt lat="45.08261" lon="2.7036">
        <ele>1449</ele>
        <time>2020-08-03T10:50:20.000Z</time>
      </trkpt>
      <trkpt lat="45.08261" lon="2.70364">
        <ele>1450</ele>
        <time>2020-08-03T10:50:24.000Z</time>
      </trkpt>
      <trkpt lat="45.0826" lon="2.70365">
        <ele>1450.5999755859</ele>
        <time>2020-08-03T10:50:26.000Z</time>
      </trkpt>
      <trkpt lat="45.08262" lon="2.70367">
        <ele>1451</ele>
        <time>2020-08-03T10:50:28.000Z</time>
      </trkpt>
      <trkpt lat="45.08263" lon="2.70371">
        <ele>1451.8000488281</ele>
        <time>2020-08-03T10:50:32.000Z</time>
      </trkpt>
      <trkpt lat="45.08263" lon="2.70372">
        <ele>1452</ele>
        <time>2020-08-03T10:50:33.000Z</time>
      </trkpt>
      <trkpt lat="45.08264" lon="2.70376">
        <ele>1452.5999755859</ele>
        <time>2020-08-03T10:50:38.000Z</time>
      </trkpt>
      <trkpt lat="45.08265" lon="2.70377">
        <ele>1453</ele>
        <time>2020-08-03T10:50:39.000Z</time>
      </trkpt>
      <trkpt lat="45.08265" lon="2.70378">
        <ele>1453.1999511719</ele>
        <time>2020-08-03T10:50:40.000Z</time>
      </trkpt>
      <trkpt lat="45.08267" lon="2.70383">
        <ele>1454.1999511719</ele>
        <time>2020-08-03T10:50:45.000Z</time>
      </trkpt>
      <trkpt lat="45.08268" lon="2.70386">
        <ele>1454.5999755859</ele>
        <time>2020-08-03T10:50:48.000Z</time>
      </trkpt>
      <trkpt lat="45.08268" lon="2.70391">
        <ele>1455.1999511719</ele>
        <time>2020-08-03T10:50:52.000Z</time>
      </trkpt>
      <trkpt lat="45.08268" lon="2.70393">
        <ele>1455.5999755859</ele>
        <time>2020-08-03T10:50:54.000Z</time>
      </trkpt>
      <trkpt lat="45.08269" lon="2.70396">
        <ele>1456.4000244141</ele>
        <time>2020-08-03T10:50:57.000Z</time>
      </trkpt>
      <trkpt lat="45.0827" lon="2.70399">
        <ele>1456.8000488281</ele>
        <time>2020-08-03T10:51:01.000Z</time>
      </trkpt>
      <trkpt lat="45.0827" lon="2.70404">
        <ele>1457.4000244141</ele>
        <time>2020-08-03T10:51:07.000Z</time>
      </trkpt>
      <trkpt lat="45.08271" lon="2.70406">
        <ele>1457.5999755859</ele>
        <time>2020-08-03T10:51:08.000Z</time>
      </trkpt>
      <trkpt lat="45.08271" lon="2.7041">
        <ele>1458.5999755859</ele>
        <time>2020-08-03T10:51:12.000Z</time>
      </trkpt>
      <trkpt lat="45.08272" lon="2.70411">
        <ele>1458.5999755859</ele>
        <time>2020-08-03T10:51:13.000Z</time>
      </trkpt>
      <trkpt lat="45.08272" lon="2.70414">
        <ele>1459</ele>
        <time>2020-08-03T10:51:15.000Z</time>
      </trkpt>
      <trkpt lat="45.08274" lon="2.7042">
        <ele>1459.8000488281</ele>
        <time>2020-08-03T10:51:21.000Z</time>
      </trkpt>
      <trkpt lat="45.08274" lon="2.70423">
        <ele>1460.1999511719</ele>
        <time>2020-08-03T10:51:24.000Z</time>
      </trkpt>
      <trkpt lat="45.08275" lon="2.70424">
        <ele>1460.5999755859</ele>
        <time>2020-08-03T10:51:26.000Z</time>
      </trkpt>
      <trkpt lat="45.08276" lon="2.70425">
        <ele>1460.5999755859</ele>
        <time>2020-08-03T10:51:27.000Z</time>
      </trkpt>
      <trkpt lat="45.08276" lon="2.70426">
        <ele>1460.8000488281</ele>
        <time>2020-08-03T10:51:28.000Z</time>
      </trkpt>
      <trkpt lat="45.08276" lon="2.70427">
        <ele>1460.8000488281</ele>
        <time>2020-08-03T10:51:29.000Z</time>
      </trkpt>
      <trkpt lat="45.08277" lon="2.70429">
        <ele>1460.8000488281</ele>
        <time>2020-08-03T10:51:30.000Z</time>
      </trkpt>
      <trkpt lat="45.08279" lon="2.70434">
        <ele>1461.4000244141</ele>
        <time>2020-08-03T10:51:36.000Z</time>
      </trkpt>
      <trkpt lat="45.0828" lon="2.70435">
        <ele>1461.8000488281</ele>
        <time>2020-08-03T10:51:37.000Z</time>
      </trkpt>
      <trkpt lat="45.08282" lon="2.70441">
        <ele>1463</ele>
        <time>2020-08-03T10:51:42.000Z</time>
      </trkpt>
      <trkpt lat="45.08283" lon="2.70444">
        <ele>1463.1999511719</ele>
        <time>2020-08-03T10:51:44.000Z</time>
      </trkpt>
      <trkpt lat="45.08285" lon="2.70446">
        <ele>1463.5999755859</ele>
        <time>2020-08-03T10:51:47.000Z</time>
      </trkpt>
      <trkpt lat="45.08286" lon="2.70449">
        <ele>1463.8000488281</ele>
        <time>2020-08-03T10:51:49.000Z</time>
      </trkpt>
      <trkpt lat="45.08286" lon="2.7045">
        <ele>1464</ele>
        <time>2020-08-03T10:51:50.000Z</time>
      </trkpt>
      <trkpt lat="45.08288" lon="2.70455">
        <ele>1465.1999511719</ele>
        <time>2020-08-03T10:51:55.000Z</time>
      </trkpt>
      <trkpt lat="45.08289" lon="2.70456">
        <ele>1465.1999511719</ele>
        <time>2020-08-03T10:51:56.000Z</time>
      </trkpt>
      <trkpt lat="45.08292" lon="2.70462">
        <ele>1465.4000244141</ele>
        <time>2020-08-03T10:52:01.000Z</time>
      </trkpt>
      <trkpt lat="45.08293" lon="2.70463">
        <ele>1465.4000244141</ele>
        <time>2020-08-03T10:52:02.000Z</time>
      </trkpt>
      <trkpt lat="45.08294" lon="2.70465">
        <ele>1465.4000244141</ele>
        <time>2020-08-03T10:52:03.000Z</time>
      </trkpt>
      <trkpt lat="45.08295" lon="2.70471">
        <ele>1466.1999511719</ele>
        <time>2020-08-03T10:52:08.000Z</time>
      </trkpt>
      <trkpt lat="45.08295" lon="2.70472">
        <ele>1466.1999511719</ele>
        <time>2020-08-03T10:52:09.000Z</time>
      </trkpt>
      <trkpt lat="45.08296" lon="2.70475">
        <ele>1467.4000244141</ele>
        <time>2020-08-03T10:52:13.000Z</time>
      </trkpt>
      <trkpt lat="45.08298" lon="2.70481">
        <ele>1468.5999755859</ele>
        <time>2020-08-03T10:52:18.000Z</time>
      </trkpt>
      <trkpt lat="45.08299" lon="2.70485">
        <ele>1469</ele>
        <time>2020-08-03T10:52:21.000Z</time>
      </trkpt>
      <trkpt lat="45.08299" lon="2.70488">
        <ele>1469.1999511719</ele>
        <time>2020-08-03T10:52:24.000Z</time>
      </trkpt>
      <trkpt lat="45.08299" lon="2.7049">
        <ele>1469.5999755859</ele>
        <time>2020-08-03T10:52:26.000Z</time>
      </trkpt>
      <trkpt lat="45.083" lon="2.70493">
        <ele>1470.4000244141</ele>
        <time>2020-08-03T10:52:29.000Z</time>
      </trkpt>
      <trkpt lat="45.083" lon="2.70495">
        <ele>1470.5999755859</ele>
        <time>2020-08-03T10:52:30.000Z</time>
      </trkpt>
      <trkpt lat="45.083" lon="2.70496">
        <ele>1470.8000488281</ele>
        <time>2020-08-03T10:52:31.000Z</time>
      </trkpt>
      <trkpt lat="45.083" lon="2.70497">
        <ele>1471</ele>
        <time>2020-08-03T10:52:32.000Z</time>
      </trkpt>
      <trkpt lat="45.08299" lon="2.705">
        <ele>1471.5999755859</ele>
        <time>2020-08-03T10:52:36.000Z</time>
      </trkpt>
      <trkpt lat="45.08298" lon="2.70501">
        <ele>1471.8000488281</ele>
        <time>2020-08-03T10:52:37.000Z</time>
      </trkpt>
      <trkpt lat="45.08298" lon="2.70502">
        <ele>1472</ele>
        <time>2020-08-03T10:52:38.000Z</time>
      </trkpt>
      <trkpt lat="45.08298" lon="2.70503">
        <ele>1472.1999511719</ele>
        <time>2020-08-03T10:52:39.000Z</time>
      </trkpt>
      <trkpt lat="45.08297" lon="2.70505">
        <ele>1472.4000244141</ele>
        <time>2020-08-03T10:52:41.000Z</time>
      </trkpt>
      <trkpt lat="45.08296" lon="2.70506">
        <ele>1473</ele>
        <time>2020-08-03T10:52:43.000Z</time>
      </trkpt>
      <trkpt lat="45.08296" lon="2.70507">
        <ele>1473.4000244141</ele>
        <time>2020-08-03T10:52:44.000Z</time>
      </trkpt>
      <trkpt lat="45.08296" lon="2.70508">
        <ele>1473.5999755859</ele>
        <time>2020-08-03T10:52:45.000Z</time>
      </trkpt>
      <trkpt lat="45.08295" lon="2.70511">
        <ele>1474.4000244141</ele>
        <time>2020-08-03T10:52:48.000Z</time>
      </trkpt>
      <trkpt lat="45.08295" lon="2.70513">
        <ele>1474.4000244141</ele>
        <time>2020-08-03T10:52:49.000Z</time>
      </trkpt>
      <trkpt lat="45.08295" lon="2.70519">
        <ele>1475.1999511719</ele>
        <time>2020-08-03T10:52:55.000Z</time>
      </trkpt>
      <trkpt lat="45.08295" lon="2.7052">
        <ele>1475.5999755859</ele>
        <time>2020-08-03T10:52:56.000Z</time>
      </trkpt>
      <trkpt lat="45.08295" lon="2.70522">
        <ele>1476.4000244141</ele>
        <time>2020-08-03T10:53:02.000Z</time>
      </trkpt>
      <trkpt lat="45.08298" lon="2.70524">
        <ele>1476.5999755859</ele>
        <time>2020-08-03T10:53:08.000Z</time>
      </trkpt>
      <trkpt lat="45.08298" lon="2.70526">
        <ele>1476.8000488281</ele>
        <time>2020-08-03T10:53:09.000Z</time>
      </trkpt>
      <trkpt lat="45.08298" lon="2.70528">
        <ele>1477.1999511719</ele>
        <time>2020-08-03T10:53:11.000Z</time>
      </trkpt>
      <trkpt lat="45.08297" lon="2.70531">
        <ele>1477.8000488281</ele>
        <time>2020-08-03T10:53:14.000Z</time>
      </trkpt>
      <trkpt lat="45.08297" lon="2.70532">
        <ele>1478</ele>
        <time>2020-08-03T10:53:15.000Z</time>
      </trkpt>
      <trkpt lat="45.08297" lon="2.70534">
        <ele>1478.5999755859</ele>
        <time>2020-08-03T10:53:17.000Z</time>
      </trkpt>
      <trkpt lat="45.08298" lon="2.70535">
        <ele>1478.8000488281</ele>
        <time>2020-08-03T10:53:18.000Z</time>
      </trkpt>
      <trkpt lat="45.08298" lon="2.70539">
        <ele>1479.4000244141</ele>
        <time>2020-08-03T10:53:22.000Z</time>
      </trkpt>
      <trkpt lat="45.08298" lon="2.7054">
        <ele>1479.5999755859</ele>
        <time>2020-08-03T10:53:23.000Z</time>
      </trkpt>
      <trkpt lat="45.08298" lon="2.70541">
        <ele>1479.8000488281</ele>
        <time>2020-08-03T10:53:24.000Z</time>
      </trkpt>
      <trkpt lat="45.08298" lon="2.70543">
        <ele>1480.1999511719</ele>
        <time>2020-08-03T10:53:26.000Z</time>
      </trkpt>
      <trkpt lat="45.08298" lon="2.70545">
        <ele>1480.4000244141</ele>
        <time>2020-08-03T10:53:28.000Z</time>
      </trkpt>
      <trkpt lat="45.08298" lon="2.70547">
        <ele>1481.1999511719</ele>
        <time>2020-08-03T10:53:31.000Z</time>
      </trkpt>
      <trkpt lat="45.08298" lon="2.7055">
        <ele>1481.8000488281</ele>
        <time>2020-08-03T10:53:35.000Z</time>
      </trkpt>
      <trkpt lat="45.08298" lon="2.70553">
        <ele>1482.1999511719</ele>
        <time>2020-08-03T10:53:38.000Z</time>
      </trkpt>
      <trkpt lat="45.08297" lon="2.70556">
        <ele>1483</ele>
        <time>2020-08-03T10:53:42.000Z</time>
      </trkpt>
      <trkpt lat="45.08297" lon="2.7056">
        <ele>1483.4000244141</ele>
        <time>2020-08-03T10:53:45.000Z</time>
      </trkpt>
      <trkpt lat="45.08295" lon="2.70563">
        <ele>1484.4000244141</ele>
        <time>2020-08-03T10:53:49.000Z</time>
      </trkpt>
      <trkpt lat="45.08295" lon="2.70563">
        <ele>1484.4000244141</ele>
        <time>2020-08-03T10:53:50.000Z</time>
      </trkpt>
      <trkpt lat="45.08296" lon="2.70563">
        <ele>1484.5999755859</ele>
        <time>2020-08-03T10:53:58.000Z</time>
      </trkpt>
      <trkpt lat="45.08296" lon="2.70563">
        <ele>1484</ele>
        <time>2020-08-03T10:54:08.000Z</time>
      </trkpt>
      <trkpt lat="45.08295" lon="2.70563">
        <ele>1484.8000488281</ele>
        <time>2020-08-03T10:54:25.000Z</time>
      </trkpt>
      <trkpt lat="45.08296" lon="2.70565">
        <ele>1485.1999511719</ele>
        <time>2020-08-03T10:54:31.000Z</time>
      </trkpt>
      <trkpt lat="45.08297" lon="2.70569">
        <ele>1485.4000244141</ele>
        <time>2020-08-03T10:54:35.000Z</time>
      </trkpt>
      <trkpt lat="45.08297" lon="2.7057">
        <ele>1485.4000244141</ele>
        <time>2020-08-03T10:54:36.000Z</time>
      </trkpt>
      <trkpt lat="45.08295" lon="2.70577">
        <ele>1486.4000244141</ele>
        <time>2020-08-03T10:54:43.000Z</time>
      </trkpt>
      <trkpt lat="45.08295" lon="2.70584">
        <ele>1487.4000244141</ele>
        <time>2020-08-03T10:54:48.000Z</time>
      </trkpt>
      <trkpt lat="45.08295" lon="2.70588">
        <ele>1488.1999511719</ele>
        <time>2020-08-03T10:54:51.000Z</time>
      </trkpt>
      <trkpt lat="45.08296" lon="2.7059">
        <ele>1488.5999755859</ele>
        <time>2020-08-03T10:54:53.000Z</time>
      </trkpt>
      <trkpt lat="45.08295" lon="2.70592">
        <ele>1488.5999755859</ele>
        <time>2020-08-03T10:54:55.000Z</time>
      </trkpt>
      <trkpt lat="45.08296" lon="2.70595">
        <ele>1489</ele>
        <time>2020-08-03T10:54:57.000Z</time>
      </trkpt>
      <trkpt lat="45.08295" lon="2.70599">
        <ele>1489.8000488281</ele>
        <time>2020-08-03T10:55:01.000Z</time>
      </trkpt>
      <trkpt lat="45.08294" lon="2.70602">
        <ele>1490</ele>
        <time>2020-08-03T10:55:04.000Z</time>
      </trkpt>
      <trkpt lat="45.08294" lon="2.70604">
        <ele>1489.8000488281</ele>
        <time>2020-08-03T10:55:10.000Z</time>
      </trkpt>
      <trkpt lat="45.08294" lon="2.70606">
        <ele>1489.5999755859</ele>
        <time>2020-08-03T10:55:11.000Z</time>
      </trkpt>
      <trkpt lat="45.08293" lon="2.70613">
        <ele>1490.8000488281</ele>
        <time>2020-08-03T10:55:17.000Z</time>
      </trkpt>
      <trkpt lat="45.08293" lon="2.70615">
        <ele>1491.1999511719</ele>
        <time>2020-08-03T10:55:19.000Z</time>
      </trkpt>
      <trkpt lat="45.08294" lon="2.70622">
        <ele>1492</ele>
        <time>2020-08-03T10:55:24.000Z</time>
      </trkpt>
      <trkpt lat="45.08295" lon="2.70625">
        <ele>1492.8000488281</ele>
        <time>2020-08-03T10:55:27.000Z</time>
      </trkpt>
      <trkpt lat="45.08295" lon="2.70627">
        <ele>1493.1999511719</ele>
        <time>2020-08-03T10:55:29.000Z</time>
      </trkpt>
      <trkpt lat="45.08294" lon="2.7063">
        <ele>1493.4000244141</ele>
        <time>2020-08-03T10:55:32.000Z</time>
      </trkpt>
      <trkpt lat="45.08294" lon="2.70631">
        <ele>1493.5999755859</ele>
        <time>2020-08-03T10:55:33.000Z</time>
      </trkpt>
      <trkpt lat="45.08293" lon="2.70633">
        <ele>1494.1999511719</ele>
        <time>2020-08-03T10:55:36.000Z</time>
      </trkpt>
      <trkpt lat="45.08293" lon="2.70636">
        <ele>1494.4000244141</ele>
        <time>2020-08-03T10:55:39.000Z</time>
      </trkpt>
      <trkpt lat="45.08292" lon="2.70638">
        <ele>1494.4000244141</ele>
        <time>2020-08-03T10:55:40.000Z</time>
      </trkpt>
      <trkpt lat="45.08292" lon="2.70639">
        <ele>1494.4000244141</ele>
        <time>2020-08-03T10:55:42.000Z</time>
      </trkpt>
      <trkpt lat="45.08289" lon="2.70642">
        <ele>1495.4000244141</ele>
        <time>2020-08-03T10:55:46.000Z</time>
      </trkpt>
      <trkpt lat="45.08287" lon="2.70647">
        <ele>1496.4000244141</ele>
        <time>2020-08-03T10:55:52.000Z</time>
      </trkpt>
      <trkpt lat="45.08287" lon="2.70647">
        <ele>1496.5999755859</ele>
        <time>2020-08-03T10:55:53.000Z</time>
      </trkpt>
      <trkpt lat="45.08286" lon="2.7065">
        <ele>1497.5999755859</ele>
        <time>2020-08-03T10:55:56.000Z</time>
      </trkpt>
      <trkpt lat="45.08286" lon="2.70653">
        <ele>1498.4000244141</ele>
        <time>2020-08-03T10:55:59.000Z</time>
      </trkpt>
      <trkpt lat="45.08286" lon="2.70654">
        <ele>1498.5999755859</ele>
        <time>2020-08-03T10:56:00.000Z</time>
      </trkpt>
      <trkpt lat="45.08286" lon="2.70655">
        <ele>1498.8000488281</ele>
        <time>2020-08-03T10:56:01.000Z</time>
      </trkpt>
      <trkpt lat="45.08285" lon="2.7066">
        <ele>1499.8000488281</ele>
        <time>2020-08-03T10:56:07.000Z</time>
      </trkpt>
      <trkpt lat="45.08284" lon="2.70663">
        <ele>1500.4000244141</ele>
        <time>2020-08-03T10:56:10.000Z</time>
      </trkpt>
      <trkpt lat="45.08286" lon="2.70664">
        <ele>1500.8000488281</ele>
        <time>2020-08-03T10:56:12.000Z</time>
      </trkpt>
      <trkpt lat="45.0829" lon="2.70666">
        <ele>1501.5999755859</ele>
        <time>2020-08-03T10:56:17.000Z</time>
      </trkpt>
      <trkpt lat="45.08291" lon="2.70667">
        <ele>1502</ele>
        <time>2020-08-03T10:56:19.000Z</time>
      </trkpt>
      <trkpt lat="45.08291" lon="2.7067">
        <ele>1502.4000244141</ele>
        <time>2020-08-03T10:56:23.000Z</time>
      </trkpt>
      <trkpt lat="45.0829" lon="2.70673">
        <ele>1503</ele>
        <time>2020-08-03T10:56:27.000Z</time>
      </trkpt>
      <trkpt lat="45.08291" lon="2.70675">
        <ele>1503.4000244141</ele>
        <time>2020-08-03T10:56:29.000Z</time>
      </trkpt>
      <trkpt lat="45.08291" lon="2.70676">
        <ele>1503.5999755859</ele>
        <time>2020-08-03T10:56:31.000Z</time>
      </trkpt>
      <trkpt lat="45.08291" lon="2.70678">
        <ele>1504.1999511719</ele>
        <time>2020-08-03T10:56:33.000Z</time>
      </trkpt>
      <trkpt lat="45.08292" lon="2.7068">
        <ele>1505</ele>
        <time>2020-08-03T10:56:35.000Z</time>
      </trkpt>
      <trkpt lat="45.08292" lon="2.70681">
        <ele>1505.1999511719</ele>
        <time>2020-08-03T10:56:36.000Z</time>
      </trkpt>
      <trkpt lat="45.08293" lon="2.70683">
        <ele>1505.8000488281</ele>
        <time>2020-08-03T10:56:38.000Z</time>
      </trkpt>
      <trkpt lat="45.08293" lon="2.70686">
        <ele>1506.4000244141</ele>
        <time>2020-08-03T10:56:41.000Z</time>
      </trkpt>
      <trkpt lat="45.08293" lon="2.70687">
        <ele>1506.5999755859</ele>
        <time>2020-08-03T10:56:42.000Z</time>
      </trkpt>
      <trkpt lat="45.08293" lon="2.7069">
        <ele>1507.1999511719</ele>
        <time>2020-08-03T10:56:46.000Z</time>
      </trkpt>
      <trkpt lat="45.08293" lon="2.70691">
        <ele>1507.5999755859</ele>
        <time>2020-08-03T10:56:47.000Z</time>
      </trkpt>
      <trkpt lat="45.08293" lon="2.70694">
        <ele>1508.1999511719</ele>
        <time>2020-08-03T10:56:49.000Z</time>
      </trkpt>
      <trkpt lat="45.08293" lon="2.70699">
        <ele>1508.5999755859</ele>
        <time>2020-08-03T10:56:53.000Z</time>
      </trkpt>
      <trkpt lat="45.08293" lon="2.70701">
        <ele>1508.8000488281</ele>
        <time>2020-08-03T10:56:55.000Z</time>
      </trkpt>
      <trkpt lat="45.08292" lon="2.70704">
        <ele>1509.5999755859</ele>
        <time>2020-08-03T10:56:58.000Z</time>
      </trkpt>
      <trkpt lat="45.08291" lon="2.70705">
        <ele>1509.5999755859</ele>
        <time>2020-08-03T10:56:59.000Z</time>
      </trkpt>
      <trkpt lat="45.0829" lon="2.70707">
        <ele>1510</ele>
        <time>2020-08-03T10:57:01.000Z</time>
      </trkpt>
      <trkpt lat="45.08289" lon="2.70717">
        <ele>1510.5999755859</ele>
        <time>2020-08-03T10:57:08.000Z</time>
      </trkpt>
      <trkpt lat="45.08288" lon="2.70719">
        <ele>1510.5999755859</ele>
        <time>2020-08-03T10:57:13.000Z</time>
      </trkpt>
      <trkpt lat="45.08287" lon="2.70719">
        <ele>1510.8000488281</ele>
        <time>2020-08-03T10:57:20.000Z</time>
      </trkpt>
      <trkpt lat="45.08287" lon="2.70719">
        <ele>1511</ele>
        <time>2020-08-03T10:57:22.000Z</time>
      </trkpt>
      <trkpt lat="45.08286" lon="2.70718">
        <ele>1511</ele>
        <time>2020-08-03T10:57:31.000Z</time>
      </trkpt>
      <trkpt lat="45.08284" lon="2.70718">
        <ele>1511</ele>
        <time>2020-08-03T10:57:39.000Z</time>
      </trkpt>
      <trkpt lat="45.08284" lon="2.7072">
        <ele>1510.8000488281</ele>
        <time>2020-08-03T10:57:48.000Z</time>
      </trkpt>
      <trkpt lat="45.08284" lon="2.70718">
        <ele>1510.5999755859</ele>
        <time>2020-08-03T10:57:55.000Z</time>
      </trkpt>
      <trkpt lat="45.08285" lon="2.70717">
        <ele>1510.8000488281</ele>
        <time>2020-08-03T10:57:56.000Z</time>
      </trkpt>
      <trkpt lat="45.08283" lon="2.70709">
        <ele>1511.1999511719</ele>
        <time>2020-08-03T10:58:01.000Z</time>
      </trkpt>
      <trkpt lat="45.08282" lon="2.70698">
        <ele>1510.1999511719</ele>
        <time>2020-08-03T10:58:08.000Z</time>
      </trkpt>
      <trkpt lat="45.08282" lon="2.70699">
        <ele>1510</ele>
        <time>2020-08-03T10:58:14.000Z</time>
      </trkpt>
      <trkpt lat="45.08282" lon="2.70699">
        <ele>1510.4000244141</ele>
        <time>2020-08-03T10:58:24.000Z</time>
      </trkpt>
      <trkpt lat="45.08282" lon="2.70698">
        <ele>1510.1999511719</ele>
        <time>2020-08-03T10:58:32.000Z</time>
      </trkpt>
      <trkpt lat="45.08282" lon="2.70698">
        <ele>1510.1999511719</ele>
        <time>2020-08-03T10:58:39.000Z</time>
      </trkpt>
      <trkpt lat="45.08282" lon="2.70698">
        <ele>1510.1999511719</ele>
        <time>2020-08-03T10:58:45.000Z</time>
      </trkpt>
      <trkpt lat="45.08282" lon="2.70698">
        <ele>1510.1999511719</ele>
        <time>2020-08-03T10:58:54.000Z</time>
      </trkpt>
      <trkpt lat="45.08281" lon="2.70698">
        <ele>1510</ele>
        <time>2020-08-03T10:59:02.000Z</time>
      </trkpt>
      <trkpt lat="45.0828" lon="2.70697">
        <ele>1510</ele>
        <time>2020-08-03T10:59:11.000Z</time>
      </trkpt>
      <trkpt lat="45.0828" lon="2.70698">
        <ele>1510.1999511719</ele>
        <time>2020-08-03T10:59:20.000Z</time>
      </trkpt>
      <trkpt lat="45.0828" lon="2.70697">
        <ele>1510.1999511719</ele>
        <time>2020-08-03T10:59:26.000Z</time>
      </trkpt>
      <trkpt lat="45.08281" lon="2.70697">
        <ele>1510.1999511719</ele>
        <time>2020-08-03T10:59:32.000Z</time>
      </trkpt>
      <trkpt lat="45.08281" lon="2.70699">
        <ele>1509.8000488281</ele>
        <time>2020-08-03T10:59:39.000Z</time>
      </trkpt>
      <trkpt lat="45.08281" lon="2.70698">
        <ele>1509.8000488281</ele>
        <time>2020-08-03T10:59:40.000Z</time>
      </trkpt>
      <trkpt lat="45.08281" lon="2.70699">
        <ele>1510</ele>
        <time>2020-08-03T10:59:46.000Z</time>
      </trkpt>
      <trkpt lat="45.08281" lon="2.707">
        <ele>1510.4000244141</ele>
        <time>2020-08-03T10:59:54.000Z</time>
      </trkpt>
      <trkpt lat="45.08281" lon="2.707">
        <ele>1510.4000244141</ele>
        <time>2020-08-03T11:00:03.000Z</time>
      </trkpt>
      <trkpt lat="45.08282" lon="2.707">
        <ele>1510.5999755859</ele>
        <time>2020-08-03T11:00:09.000Z</time>
      </trkpt>
      <trkpt lat="45.08282" lon="2.70701">
        <ele>1510.4000244141</ele>
        <time>2020-08-03T11:00:16.000Z</time>
      </trkpt>
      <trkpt lat="45.08282" lon="2.707">
        <ele>1510.1999511719</ele>
        <time>2020-08-03T11:00:21.000Z</time>
      </trkpt>
      <trkpt lat="45.08281" lon="2.707">
        <ele>1510.5999755859</ele>
        <time>2020-08-03T11:00:30.000Z</time>
      </trkpt>
      <trkpt lat="45.08281" lon="2.70699">
        <ele>1510</ele>
        <time>2020-08-03T11:00:40.000Z</time>
      </trkpt>
      <trkpt lat="45.08282" lon="2.70699">
        <ele>1509.5999755859</ele>
        <time>2020-08-03T11:00:50.000Z</time>
      </trkpt>
      <trkpt lat="45.08284" lon="2.70697">
        <ele>1509.4000244141</ele>
        <time>2020-08-03T11:00:59.000Z</time>
      </trkpt>
      <trkpt lat="45.08282" lon="2.70698">
        <ele>1510</ele>
        <time>2020-08-03T11:01:10.000Z</time>
      </trkpt>
      <trkpt lat="45.08282" lon="2.70699">
        <ele>1510.5999755859</ele>
        <time>2020-08-03T11:01:15.000Z</time>
      </trkpt>
      <trkpt lat="45.0828" lon="2.707">
        <ele>1509.4000244141</ele>
        <time>2020-08-03T11:01:21.000Z</time>
      </trkpt>
      <trkpt lat="45.0828" lon="2.707">
        <ele>1508.8000488281</ele>
        <time>2020-08-03T11:01:25.000Z</time>
      </trkpt>
      <trkpt lat="45.0828" lon="2.707">
        <ele>1508.8000488281</ele>
        <time>2020-08-03T11:01:30.000Z</time>
      </trkpt>
      <trkpt lat="45.0828" lon="2.707">
        <ele>1509.1999511719</ele>
        <time>2020-08-03T11:01:38.000Z</time>
      </trkpt>
      <trkpt lat="45.0828" lon="2.707">
        <ele>1509.5999755859</ele>
        <time>2020-08-03T11:01:46.000Z</time>
      </trkpt>
      <trkpt lat="45.0828" lon="2.707">
        <ele>1509.5999755859</ele>
        <time>2020-08-03T11:01:49.000Z</time>
      </trkpt>
      <trkpt lat="45.0828" lon="2.707">
        <ele>1509.4000244141</ele>
        <time>2020-08-03T11:01:59.000Z</time>
      </trkpt>
      <trkpt lat="45.08281" lon="2.70699">
        <ele>1509</ele>
        <time>2020-08-03T11:02:07.000Z</time>
      </trkpt>
      <trkpt lat="45.0828" lon="2.70698">
        <ele>1509</ele>
        <time>2020-08-03T11:02:14.000Z</time>
      </trkpt>
      <trkpt lat="45.08281" lon="2.70698">
        <ele>1509.4000244141</ele>
        <time>2020-08-03T11:02:28.000Z</time>
      </trkpt>
      <trkpt lat="45.08281" lon="2.70699">
        <ele>1509.1999511719</ele>
        <time>2020-08-03T11:02:37.000Z</time>
      </trkpt>
      <trkpt lat="45.0828" lon="2.70699">
        <ele>1508.8000488281</ele>
        <time>2020-08-03T11:02:52.000Z</time>
      </trkpt>
      <trkpt lat="45.0828" lon="2.70699">
        <ele>1508.5999755859</ele>
        <time>2020-08-03T11:03:00.000Z</time>
      </trkpt>
      <trkpt lat="45.0828" lon="2.70699">
        <ele>1508.8000488281</ele>
        <time>2020-08-03T11:03:21.000Z</time>
      </trkpt>
      <trkpt lat="45.0828" lon="2.70698">
        <ele>1509</ele>
        <time>2020-08-03T11:03:39.000Z</time>
      </trkpt>
      <trkpt lat="45.08281" lon="2.707">
        <ele>1509</ele>
        <time>2020-08-03T11:03:49.000Z</time>
      </trkpt>
      <trkpt lat="45.0828" lon="2.70699">
        <ele>1509</ele>
        <time>2020-08-03T11:03:54.000Z</time>
      </trkpt>
      <trkpt lat="45.08281" lon="2.707">
        <ele>1508.4000244141</ele>
        <time>2020-08-03T11:04:11.000Z</time>
      </trkpt>
      <trkpt lat="45.08281" lon="2.707">
        <ele>1508.8000488281</ele>
        <time>2020-08-03T11:04:15.000Z</time>
      </trkpt>
      <trkpt lat="45.0828" lon="2.70699">
        <ele>1509</ele>
        <time>2020-08-03T11:04:21.000Z</time>
      </trkpt>
      <trkpt lat="45.0828" lon="2.70698">
        <ele>1509</ele>
        <time>2020-08-03T11:04:30.000Z</time>
      </trkpt>
      <trkpt lat="45.0828" lon="2.70698">
        <ele>1509</ele>
        <time>2020-08-03T11:04:44.000Z</time>
      </trkpt>
      <trkpt lat="45.0828" lon="2.70698">
        <ele>1509</ele>
        <time>2020-08-03T11:05:02.000Z</time>
      </trkpt>
      <trkpt lat="45.0828" lon="2.70699">
        <ele>1509</ele>
        <time>2020-08-03T11:05:12.000Z</time>
      </trkpt>
      <trkpt lat="45.0828" lon="2.70699">
        <ele>1509</ele>
        <time>2020-08-03T11:05:20.000Z</time>
      </trkpt>
      <trkpt lat="45.0828" lon="2.70699">
        <ele>1509</ele>
        <time>2020-08-03T11:05:28.000Z</time>
      </trkpt>
      <trkpt lat="45.08281" lon="2.70699">
        <ele>1509</ele>
        <time>2020-08-03T11:05:37.000Z</time>
      </trkpt>
      <trkpt lat="45.08281" lon="2.70698">
        <ele>1509</ele>
        <time>2020-08-03T11:05:46.000Z</time>
      </trkpt>
      <trkpt lat="45.08281" lon="2.70697">
        <ele>1509</ele>
        <time>2020-08-03T11:05:56.000Z</time>
      </trkpt>
      <trkpt lat="45.08281" lon="2.70697">
        <ele>1509</ele>
        <time>2020-08-03T11:06:05.000Z</time>
      </trkpt>
      <trkpt lat="45.08281" lon="2.70697">
        <ele>1509</ele>
        <time>2020-08-03T11:06:11.000Z</time>
      </trkpt>
      <trkpt lat="45.08281" lon="2.70698">
        <ele>1509</ele>
        <time>2020-08-03T11:06:16.000Z</time>
      </trkpt>
      <trkpt lat="45.08281" lon="2.70699">
        <ele>1509</ele>
        <time>2020-08-03T11:06:27.000Z</time>
      </trkpt>
      <trkpt lat="45.0828" lon="2.70698">
        <ele>1509</ele>
        <time>2020-08-03T11:06:36.000Z</time>
      </trkpt>
      <trkpt lat="45.0828" lon="2.70697">
        <ele>1509</ele>
        <time>2020-08-03T11:06:43.000Z</time>
      </trkpt>
      <trkpt lat="45.0828" lon="2.70698">
        <ele>1509</ele>
        <time>2020-08-03T11:06:53.000Z</time>
      </trkpt>
      <trkpt lat="45.0828" lon="2.70698">
        <ele>1509</ele>
        <time>2020-08-03T11:07:02.000Z</time>
      </trkpt>
      <trkpt lat="45.0828" lon="2.70698">
        <ele>1509</ele>
        <time>2020-08-03T11:07:11.000Z</time>
      </trkpt>
      <trkpt lat="45.0828" lon="2.70698">
        <ele>1509</ele>
        <time>2020-08-03T11:07:15.000Z</time>
      </trkpt>
      <trkpt lat="45.0828" lon="2.70699">
        <ele>1509</ele>
        <time>2020-08-03T11:07:21.000Z</time>
      </trkpt>
      <trkpt lat="45.0828" lon="2.70699">
        <ele>1509</ele>
        <time>2020-08-03T11:07:28.000Z</time>
      </trkpt>
      <trkpt lat="45.08281" lon="2.70699">
        <ele>1509</ele>
        <time>2020-08-03T11:07:35.000Z</time>
      </trkpt>
      <trkpt lat="45.0828" lon="2.70696">
        <ele>1509</ele>
        <time>2020-08-03T11:07:44.000Z</time>
      </trkpt>
      <trkpt lat="45.0828" lon="2.70698">
        <ele>1509</ele>
        <time>2020-08-03T11:07:53.000Z</time>
      </trkpt>
      <trkpt lat="45.08281" lon="2.70698">
        <ele>1509</ele>
        <time>2020-08-03T11:08:07.000Z</time>
      </trkpt>
      <trkpt lat="45.0828" lon="2.70698">
        <ele>1509</ele>
        <time>2020-08-03T11:08:12.000Z</time>
      </trkpt>
      <trkpt lat="45.0828" lon="2.70697">
        <ele>1509</ele>
        <time>2020-08-03T11:08:18.000Z</time>
      </trkpt>
      <trkpt lat="45.0828" lon="2.70697">
        <ele>1509</ele>
        <time>2020-08-03T11:08:31.000Z</time>
      </trkpt>
      <trkpt lat="45.0828" lon="2.70696">
        <ele>1509</ele>
        <time>2020-08-03T11:08:37.000Z</time>
      </trkpt>
      <trkpt lat="45.0828" lon="2.70696">
        <ele>1509</ele>
        <time>2020-08-03T11:08:45.000Z</time>
      </trkpt>
      <trkpt lat="45.0828" lon="2.70696">
        <ele>1509</ele>
        <time>2020-08-03T11:08:51.000Z</time>
      </trkpt>
      <trkpt lat="45.0828" lon="2.70697">
        <ele>1509</ele>
        <time>2020-08-03T11:09:03.000Z</time>
      </trkpt>
      <trkpt lat="45.0828" lon="2.70697">
        <ele>1509</ele>
        <time>2020-08-03T11:09:18.000Z</time>
      </trkpt>
      <trkpt lat="45.0828" lon="2.70698">
        <ele>1509</ele>
        <time>2020-08-03T11:09:29.000Z</time>
      </trkpt>
      <trkpt lat="45.0828" lon="2.70698">
        <ele>1509</ele>
        <time>2020-08-03T11:09:40.000Z</time>
      </trkpt>
      <trkpt lat="45.0828" lon="2.70697">
        <ele>1509</ele>
        <time>2020-08-03T11:09:48.000Z</time>
      </trkpt>
      <trkpt lat="45.0828" lon="2.70697">
        <ele>1509</ele>
        <time>2020-08-03T11:09:56.000Z</time>
      </trkpt>
      <trkpt lat="45.0828" lon="2.70698">
        <ele>1509</ele>
        <time>2020-08-03T11:10:03.000Z</time>
      </trkpt>
      <trkpt lat="45.0828" lon="2.70698">
        <ele>1509</ele>
        <time>2020-08-03T11:10:14.000Z</time>
      </trkpt>
      <trkpt lat="45.0828" lon="2.70698">
        <ele>1509</ele>
        <time>2020-08-03T11:10:16.000Z</time>
      </trkpt>
      <trkpt lat="45.0828" lon="2.70698">
        <ele>1509</ele>
        <time>2020-08-03T11:10:25.000Z</time>
      </trkpt>
      <trkpt lat="45.0828" lon="2.70698">
        <ele>1509</ele>
        <time>2020-08-03T11:10:38.000Z</time>
      </trkpt>
      <trkpt lat="45.0828" lon="2.70698">
        <ele>1509</ele>
        <time>2020-08-03T11:10:49.000Z</time>
      </trkpt>
      <trkpt lat="45.08281" lon="2.70698">
        <ele>1509</ele>
        <time>2020-08-03T11:11:02.000Z</time>
      </trkpt>
      <trkpt lat="45.0828" lon="2.70698">
        <ele>1509</ele>
        <time>2020-08-03T11:11:13.000Z</time>
      </trkpt>
      <trkpt lat="45.0828" lon="2.70699">
        <ele>1509</ele>
        <time>2020-08-03T11:11:23.000Z</time>
      </trkpt>
      <trkpt lat="45.0828" lon="2.70699">
        <ele>1509</ele>
        <time>2020-08-03T11:11:41.000Z</time>
      </trkpt>
      <trkpt lat="45.0828" lon="2.70699">
        <ele>1509</ele>
        <time>2020-08-03T11:11:46.000Z</time>
      </trkpt>
      <trkpt lat="45.0828" lon="2.70698">
        <ele>1509</ele>
        <time>2020-08-03T11:12:10.000Z</time>
      </trkpt>
      <trkpt lat="45.0828" lon="2.70698">
        <ele>1509</ele>
        <time>2020-08-03T11:12:22.000Z</time>
      </trkpt>
      <trkpt lat="45.0828" lon="2.70697">
        <ele>1509</ele>
        <time>2020-08-03T11:12:32.000Z</time>
      </trkpt>
      <trkpt lat="45.0828" lon="2.70698">
        <ele>1509</ele>
        <time>2020-08-03T11:12:44.000Z</time>
      </trkpt>
      <trkpt lat="45.0828" lon="2.707">
        <ele>1509</ele>
        <time>2020-08-03T11:13:00.000Z</time>
      </trkpt>
      <trkpt lat="45.0828" lon="2.70699">
        <ele>1509</ele>
        <time>2020-08-03T11:13:09.000Z</time>
      </trkpt>
      <trkpt lat="45.0828" lon="2.70698">
        <ele>1509</ele>
        <time>2020-08-03T11:13:15.000Z</time>
      </trkpt>
      <trkpt lat="45.0828" lon="2.70698">
        <ele>1509</ele>
        <time>2020-08-03T11:13:25.000Z</time>
      </trkpt>
      <trkpt lat="45.0828" lon="2.70698">
        <ele>1509</ele>
        <time>2020-08-03T11:13:34.000Z</time>
      </trkpt>
      <trkpt lat="45.0828" lon="2.70699">
        <ele>1509</ele>
        <time>2020-08-03T11:13:47.000Z</time>
      </trkpt>
      <trkpt lat="45.0828" lon="2.70699">
        <ele>1509</ele>
        <time>2020-08-03T11:13:52.000Z</time>
      </trkpt>
      <trkpt lat="45.0828" lon="2.70699">
        <ele>1509</ele>
        <time>2020-08-03T11:14:00.000Z</time>
      </trkpt>
      <trkpt lat="45.0828" lon="2.70699">
        <ele>1509</ele>
        <time>2020-08-03T11:14:11.000Z</time>
      </trkpt>
      <trkpt lat="45.0828" lon="2.70699">
        <ele>1509</ele>
        <time>2020-08-03T11:14:19.000Z</time>
      </trkpt>
      <trkpt lat="45.08281" lon="2.70699">
        <ele>1509</ele>
        <time>2020-08-03T11:14:38.000Z</time>
      </trkpt>
      <trkpt lat="45.08281" lon="2.70699">
        <ele>1509</ele>
        <time>2020-08-03T11:15:01.000Z</time>
      </trkpt>
      <trkpt lat="45.08281" lon="2.70699">
        <ele>1509</ele>
        <time>2020-08-03T11:15:28.000Z</time>
      </trkpt>
      <trkpt lat="45.08281" lon="2.70699">
        <ele>1509</ele>
        <time>2020-08-03T11:15:34.000Z</time>
      </trkpt>
      <trkpt lat="45.08281" lon="2.70698">
        <ele>1509</ele>
        <time>2020-08-03T11:15:46.000Z</time>
      </trkpt>
      <trkpt lat="45.08281" lon="2.70699">
        <ele>1509</ele>
        <time>2020-08-03T11:15:52.000Z</time>
      </trkpt>
      <trkpt lat="45.08281" lon="2.70699">
        <ele>1509</ele>
        <time>2020-08-03T11:15:57.000Z</time>
      </trkpt>
      <trkpt lat="45.08281" lon="2.70698">
        <ele>1509</ele>
        <time>2020-08-03T11:16:06.000Z</time>
      </trkpt>
      <trkpt lat="45.08282" lon="2.70699">
        <ele>1509</ele>
        <time>2020-08-03T11:16:13.000Z</time>
      </trkpt>
      <trkpt lat="45.08282" lon="2.707">
        <ele>1509</ele>
        <time>2020-08-03T11:16:21.000Z</time>
      </trkpt>
      <trkpt lat="45.08282" lon="2.70699">
        <ele>1509</ele>
        <time>2020-08-03T11:16:28.000Z</time>
      </trkpt>
      <trkpt lat="45.08282" lon="2.70699">
        <ele>1509</ele>
        <time>2020-08-03T11:16:40.000Z</time>
      </trkpt>
      <trkpt lat="45.08282" lon="2.707">
        <ele>1509</ele>
        <time>2020-08-03T11:16:46.000Z</time>
      </trkpt>
      <trkpt lat="45.08281" lon="2.70699">
        <ele>1509</ele>
        <time>2020-08-03T11:16:54.000Z</time>
      </trkpt>
      <trkpt lat="45.08282" lon="2.70699">
        <ele>1509</ele>
        <time>2020-08-03T11:17:05.000Z</time>
      </trkpt>
      <trkpt lat="45.08282" lon="2.70699">
        <ele>1509</ele>
        <time>2020-08-03T11:17:16.000Z</time>
      </trkpt>
      <trkpt lat="45.08281" lon="2.70699">
        <ele>1509</ele>
        <time>2020-08-03T11:17:23.000Z</time>
      </trkpt>
      <trkpt lat="45.08281" lon="2.70699">
        <ele>1509</ele>
        <time>2020-08-03T11:17:29.000Z</time>
      </trkpt>
      <trkpt lat="45.08281" lon="2.70699">
        <ele>1509</ele>
        <time>2020-08-03T11:17:41.000Z</time>
      </trkpt>
      <trkpt lat="45.08281" lon="2.70699">
        <ele>1509</ele>
        <time>2020-08-03T11:17:49.000Z</time>
      </trkpt>
      <trkpt lat="45.08281" lon="2.70699">
        <ele>1509</ele>
        <time>2020-08-03T11:17:57.000Z</time>
      </trkpt>
      <trkpt lat="45.08281" lon="2.70698">
        <ele>1509</ele>
        <time>2020-08-03T11:18:06.000Z</time>
      </trkpt>
      <trkpt lat="45.08282" lon="2.70701">
        <ele>1509</ele>
        <time>2020-08-03T11:18:13.000Z</time>
      </trkpt>
      <trkpt lat="45.08283" lon="2.707">
        <ele>1509</ele>
        <time>2020-08-03T11:18:21.000Z</time>
      </trkpt>
      <trkpt lat="45.08282" lon="2.707">
        <ele>1509</ele>
        <time>2020-08-03T11:18:32.000Z</time>
      </trkpt>
      <trkpt lat="45.08282" lon="2.70701">
        <ele>1509</ele>
        <time>2020-08-03T11:18:42.000Z</time>
      </trkpt>
      <trkpt lat="45.08282" lon="2.707">
        <ele>1509</ele>
        <time>2020-08-03T11:18:52.000Z</time>
      </trkpt>
      <trkpt lat="45.08282" lon="2.70699">
        <ele>1509</ele>
        <time>2020-08-03T11:18:59.000Z</time>
      </trkpt>
      <trkpt lat="45.08281" lon="2.70701">
        <ele>1509</ele>
        <time>2020-08-03T11:19:07.000Z</time>
      </trkpt>
      <trkpt lat="45.08281" lon="2.70702">
        <ele>1509</ele>
        <time>2020-08-03T11:19:17.000Z</time>
      </trkpt>
      <trkpt lat="45.08281" lon="2.70702">
        <ele>1509</ele>
        <time>2020-08-03T11:19:25.000Z</time>
      </trkpt>
      <trkpt lat="45.08282" lon="2.70703">
        <ele>1509</ele>
        <time>2020-08-03T11:19:32.000Z</time>
      </trkpt>
      <trkpt lat="45.08282" lon="2.70703">
        <ele>1509</ele>
        <time>2020-08-03T11:19:44.000Z</time>
      </trkpt>
      <trkpt lat="45.08282" lon="2.70703">
        <ele>1509</ele>
        <time>2020-08-03T11:19:53.000Z</time>
      </trkpt>
      <trkpt lat="45.08282" lon="2.70702">
        <ele>1509</ele>
        <time>2020-08-03T11:20:00.000Z</time>
      </trkpt>
      <trkpt lat="45.08282" lon="2.70701">
        <ele>1509</ele>
        <time>2020-08-03T11:20:08.000Z</time>
      </trkpt>
      <trkpt lat="45.08281" lon="2.707">
        <ele>1509</ele>
        <time>2020-08-03T11:20:14.000Z</time>
      </trkpt>
      <trkpt lat="45.08282" lon="2.70699">
        <ele>1509</ele>
        <time>2020-08-03T11:20:22.000Z</time>
      </trkpt>
      <trkpt lat="45.08282" lon="2.707">
        <ele>1509</ele>
        <time>2020-08-03T11:20:31.000Z</time>
      </trkpt>
      <trkpt lat="45.08282" lon="2.70701">
        <ele>1509</ele>
        <time>2020-08-03T11:20:39.000Z</time>
      </trkpt>
      <trkpt lat="45.08283" lon="2.707">
        <ele>1509</ele>
        <time>2020-08-03T11:20:46.000Z</time>
      </trkpt>
      <trkpt lat="45.08285" lon="2.70699">
        <ele>1509</ele>
        <time>2020-08-03T11:20:53.000Z</time>
      </trkpt>
      <trkpt lat="45.08283" lon="2.70699">
        <ele>1509</ele>
        <time>2020-08-03T11:21:02.000Z</time>
      </trkpt>
      <trkpt lat="45.08282" lon="2.70699">
        <ele>1509</ele>
        <time>2020-08-03T11:21:10.000Z</time>
      </trkpt>
      <trkpt lat="45.08282" lon="2.70699">
        <ele>1509</ele>
        <time>2020-08-03T11:21:17.000Z</time>
      </trkpt>
      <trkpt lat="45.08281" lon="2.70698">
        <ele>1509</ele>
        <time>2020-08-03T11:21:25.000Z</time>
      </trkpt>
      <trkpt lat="45.08282" lon="2.70699">
        <ele>1509</ele>
        <time>2020-08-03T11:21:31.000Z</time>
      </trkpt>
      <trkpt lat="45.08282" lon="2.707">
        <ele>1509</ele>
        <time>2020-08-03T11:21:38.000Z</time>
      </trkpt>
      <trkpt lat="45.08282" lon="2.70702">
        <ele>1509</ele>
        <time>2020-08-03T11:21:48.000Z</time>
      </trkpt>
      <trkpt lat="45.08282" lon="2.70701">
        <ele>1509</ele>
        <time>2020-08-03T11:21:56.000Z</time>
      </trkpt>
      <trkpt lat="45.08283" lon="2.707">
        <ele>1509</ele>
        <time>2020-08-03T11:22:04.000Z</time>
      </trkpt>
      <trkpt lat="45.08282" lon="2.70699">
        <ele>1509</ele>
        <time>2020-08-03T11:22:12.000Z</time>
      </trkpt>
      <trkpt lat="45.08281" lon="2.70699">
        <ele>1509</ele>
        <time>2020-08-03T11:22:21.000Z</time>
      </trkpt>
      <trkpt lat="45.08282" lon="2.70698">
        <ele>1509</ele>
        <time>2020-08-03T11:22:29.000Z</time>
      </trkpt>
      <trkpt lat="45.08283" lon="2.70699">
        <ele>1509</ele>
        <time>2020-08-03T11:22:37.000Z</time>
      </trkpt>
      <trkpt lat="45.08282" lon="2.70699">
        <ele>1509</ele>
        <time>2020-08-03T11:22:44.000Z</time>
      </trkpt>
      <trkpt lat="45.0828" lon="2.70699">
        <ele>1509</ele>
        <time>2020-08-03T11:22:53.000Z</time>
      </trkpt>
      <trkpt lat="45.08282" lon="2.70703">
        <ele>1509</ele>
        <time>2020-08-03T11:23:00.000Z</time>
      </trkpt>
      <trkpt lat="45.08281" lon="2.70702">
        <ele>1509</ele>
        <time>2020-08-03T11:23:10.000Z</time>
      </trkpt>
      <trkpt lat="45.08283" lon="2.70701">
        <ele>1509</ele>
        <time>2020-08-03T11:23:16.000Z</time>
      </trkpt>
      <trkpt lat="45.08285" lon="2.707">
        <ele>1509</ele>
        <time>2020-08-03T11:23:23.000Z</time>
      </trkpt>
      <trkpt lat="45.08286" lon="2.70698">
        <ele>1509</ele>
        <time>2020-08-03T11:23:31.000Z</time>
      </trkpt>
      <trkpt lat="45.08288" lon="2.70698">
        <ele>1509</ele>
        <time>2020-08-03T11:23:38.000Z</time>
      </trkpt>
      <trkpt lat="45.08288" lon="2.70698">
        <ele>1509</ele>
        <time>2020-08-03T11:23:47.000Z</time>
      </trkpt>
      <trkpt lat="45.08289" lon="2.70698">
        <ele>1509</ele>
        <time>2020-08-03T11:23:55.000Z</time>
      </trkpt>
      <trkpt lat="45.08289" lon="2.70699">
        <ele>1509</ele>
        <time>2020-08-03T11:24:03.000Z</time>
      </trkpt>
      <trkpt lat="45.08288" lon="2.707">
        <ele>1509</ele>
        <time>2020-08-03T11:24:08.000Z</time>
      </trkpt>
      <trkpt lat="45.08288" lon="2.707">
        <ele>1509</ele>
        <time>2020-08-03T11:24:09.000Z</time>
      </trkpt>
      <trkpt lat="45.08288" lon="2.707">
        <ele>1509</ele>
        <time>2020-08-03T11:24:17.000Z</time>
      </trkpt>
      <trkpt lat="45.08287" lon="2.70699">
        <ele>1509</ele>
        <time>2020-08-03T11:24:25.000Z</time>
      </trkpt>
      <trkpt lat="45.08289" lon="2.70699">
        <ele>1509</ele>
        <time>2020-08-03T11:24:32.000Z</time>
      </trkpt>
      <trkpt lat="45.08287" lon="2.70699">
        <ele>1509</ele>
        <time>2020-08-03T11:24:38.000Z</time>
      </trkpt>
      <trkpt lat="45.08285" lon="2.70697">
        <ele>1509</ele>
        <time>2020-08-03T11:24:44.000Z</time>
      </trkpt>
      <trkpt lat="45.08284" lon="2.70698">
        <ele>1509</ele>
        <time>2020-08-03T11:24:51.000Z</time>
      </trkpt>
      <trkpt lat="45.08284" lon="2.70698">
        <ele>1509</ele>
        <time>2020-08-03T11:24:57.000Z</time>
      </trkpt>
      <trkpt lat="45.08287" lon="2.70697">
        <ele>1509</ele>
        <time>2020-08-03T11:25:05.000Z</time>
      </trkpt>
      <trkpt lat="45.08287" lon="2.70696">
        <ele>1509</ele>
        <time>2020-08-03T11:25:11.000Z</time>
      </trkpt>
      <trkpt lat="45.08289" lon="2.70696">
        <ele>1509</ele>
        <time>2020-08-03T11:25:20.000Z</time>
      </trkpt>
      <trkpt lat="45.08288" lon="2.70696">
        <ele>1509</ele>
        <time>2020-08-03T11:25:28.000Z</time>
      </trkpt>
      <trkpt lat="45.08287" lon="2.70698">
        <ele>1509</ele>
        <time>2020-08-03T11:25:33.000Z</time>
      </trkpt>
      <trkpt lat="45.08289" lon="2.70699">
        <ele>1509</ele>
        <time>2020-08-03T11:25:38.000Z</time>
      </trkpt>
      <trkpt lat="45.08286" lon="2.707">
        <ele>1509</ele>
        <time>2020-08-03T11:25:41.000Z</time>
      </trkpt>
      <trkpt lat="45.08286" lon="2.707">
        <ele>1509</ele>
        <time>2020-08-03T11:25:42.000Z</time>
      </trkpt>
      <trkpt lat="45.08287" lon="2.70699">
        <ele>1509</ele>
        <time>2020-08-03T11:25:50.000Z</time>
      </trkpt>
      <trkpt lat="45.08287" lon="2.70699">
        <ele>1509</ele>
        <time>2020-08-03T11:25:55.000Z</time>
      </trkpt>
      <trkpt lat="45.08289" lon="2.70699">
        <ele>1509</ele>
        <time>2020-08-03T11:26:02.000Z</time>
      </trkpt>
      <trkpt lat="45.08289" lon="2.707">
        <ele>1509</ele>
        <time>2020-08-03T11:26:09.000Z</time>
      </trkpt>
      <trkpt lat="45.08288" lon="2.707">
        <ele>1509</ele>
        <time>2020-08-03T11:26:15.000Z</time>
      </trkpt>
      <trkpt lat="45.0829" lon="2.70698">
        <ele>1509</ele>
        <time>2020-08-03T11:26:21.000Z</time>
      </trkpt>
      <trkpt lat="45.0829" lon="2.70697">
        <ele>1509</ele>
        <time>2020-08-03T11:26:29.000Z</time>
      </trkpt>
      <trkpt lat="45.08289" lon="2.70698">
        <ele>1509</ele>
        <time>2020-08-03T11:26:35.000Z</time>
      </trkpt>
      <trkpt lat="45.08289" lon="2.70699">
        <ele>1509</ele>
        <time>2020-08-03T11:26:43.000Z</time>
      </trkpt>
      <trkpt lat="45.08289" lon="2.70699">
        <ele>1509</ele>
        <time>2020-08-03T11:26:48.000Z</time>
      </trkpt>
      <trkpt lat="45.08288" lon="2.70698">
        <ele>1509</ele>
        <time>2020-08-03T11:26:53.000Z</time>
      </trkpt>
      <trkpt lat="45.08288" lon="2.70698">
        <ele>1509</ele>
        <time>2020-08-03T11:26:58.000Z</time>
      </trkpt>
      <trkpt lat="45.08289" lon="2.70697">
        <ele>1509</ele>
        <time>2020-08-03T11:27:05.000Z</time>
      </trkpt>
      <trkpt lat="45.08291" lon="2.70698">
        <ele>1509</ele>
        <time>2020-08-03T11:27:14.000Z</time>
      </trkpt>
      <trkpt lat="45.08291" lon="2.70697">
        <ele>1509</ele>
        <time>2020-08-03T11:27:21.000Z</time>
      </trkpt>
      <trkpt lat="45.08287" lon="2.70697">
        <ele>1509</ele>
        <time>2020-08-03T11:27:30.000Z</time>
      </trkpt>
      <trkpt lat="45.08286" lon="2.70697">
        <ele>1509</ele>
        <time>2020-08-03T11:27:36.000Z</time>
      </trkpt>
      <trkpt lat="45.08289" lon="2.70697">
        <ele>1509</ele>
        <time>2020-08-03T11:27:43.000Z</time>
      </trkpt>
      <trkpt lat="45.08291" lon="2.70698">
        <ele>1509</ele>
        <time>2020-08-03T11:27:53.000Z</time>
      </trkpt>
      <trkpt lat="45.08291" lon="2.70699">
        <ele>1509</ele>
        <time>2020-08-03T11:28:01.000Z</time>
      </trkpt>
      <trkpt lat="45.08287" lon="2.70697">
        <ele>1509</ele>
        <time>2020-08-03T11:28:06.000Z</time>
      </trkpt>
      <trkpt lat="45.08286" lon="2.70696">
        <ele>1509</ele>
        <time>2020-08-03T11:28:10.000Z</time>
      </trkpt>
      <trkpt lat="45.08285" lon="2.70695">
        <ele>1509</ele>
        <time>2020-08-03T11:28:15.000Z</time>
      </trkpt>
      <trkpt lat="45.08288" lon="2.70697">
        <ele>1509</ele>
        <time>2020-08-03T11:28:23.000Z</time>
      </trkpt>
      <trkpt lat="45.08292" lon="2.70697">
        <ele>1509</ele>
        <time>2020-08-03T11:28:30.000Z</time>
      </trkpt>
      <trkpt lat="45.08289" lon="2.70698">
        <ele>1509</ele>
        <time>2020-08-03T11:28:38.000Z</time>
      </trkpt>
      <trkpt lat="45.08287" lon="2.70697">
        <ele>1509</ele>
        <time>2020-08-03T11:28:45.000Z</time>
      </trkpt>
      <trkpt lat="45.08287" lon="2.70698">
        <ele>1509</ele>
        <time>2020-08-03T11:28:53.000Z</time>
      </trkpt>
      <trkpt lat="45.08288" lon="2.70698">
        <ele>1509</ele>
        <time>2020-08-03T11:29:02.000Z</time>
      </trkpt>
      <trkpt lat="45.08287" lon="2.70698">
        <ele>1509</ele>
        <time>2020-08-03T11:29:10.000Z</time>
      </trkpt>
      <trkpt lat="45.08287" lon="2.70697">
        <ele>1509</ele>
        <time>2020-08-03T11:29:23.000Z</time>
      </trkpt>
      <trkpt lat="45.08286" lon="2.70697">
        <ele>1509</ele>
        <time>2020-08-03T11:29:32.000Z</time>
      </trkpt>
      <trkpt lat="45.08286" lon="2.70697">
        <ele>1509</ele>
        <time>2020-08-03T11:29:41.000Z</time>
      </trkpt>
      <trkpt lat="45.08287" lon="2.70697">
        <ele>1509</ele>
        <time>2020-08-03T11:29:51.000Z</time>
      </trkpt>
      <trkpt lat="45.08287" lon="2.70697">
        <ele>1509</ele>
        <time>2020-08-03T11:30:01.000Z</time>
      </trkpt>
      <trkpt lat="45.08288" lon="2.70698">
        <ele>1509</ele>
        <time>2020-08-03T11:30:09.000Z</time>
      </trkpt>
      <trkpt lat="45.08288" lon="2.70698">
        <ele>1509</ele>
        <time>2020-08-03T11:30:19.000Z</time>
      </trkpt>
      <trkpt lat="45.0829" lon="2.70699">
        <ele>1509</ele>
        <time>2020-08-03T11:30:28.000Z</time>
      </trkpt>
      <trkpt lat="45.0829" lon="2.70697">
        <ele>1509</ele>
        <time>2020-08-03T11:30:36.000Z</time>
      </trkpt>
      <trkpt lat="45.08288" lon="2.70696">
        <ele>1509</ele>
        <time>2020-08-03T11:30:44.000Z</time>
      </trkpt>
      <trkpt lat="45.08289" lon="2.70696">
        <ele>1509</ele>
        <time>2020-08-03T11:30:50.000Z</time>
      </trkpt>
      <trkpt lat="45.08293" lon="2.70694">
        <ele>1509</ele>
        <time>2020-08-03T11:30:58.000Z</time>
      </trkpt>
      <trkpt lat="45.08294" lon="2.70694">
        <ele>1509</ele>
        <time>2020-08-03T11:31:06.000Z</time>
      </trkpt>
      <trkpt lat="45.08293" lon="2.70695">
        <ele>1509</ele>
        <time>2020-08-03T11:31:17.000Z</time>
      </trkpt>
      <trkpt lat="45.08293" lon="2.70696">
        <ele>1509</ele>
        <time>2020-08-03T11:31:27.000Z</time>
      </trkpt>
      <trkpt lat="45.08295" lon="2.70696">
        <ele>1509</ele>
        <time>2020-08-03T11:31:35.000Z</time>
      </trkpt>
      <trkpt lat="45.08292" lon="2.707">
        <ele>1509</ele>
        <time>2020-08-03T11:31:45.000Z</time>
      </trkpt>
      <trkpt lat="45.08286" lon="2.707">
        <ele>1509</ele>
        <time>2020-08-03T11:31:52.000Z</time>
      </trkpt>
      <trkpt lat="45.0829" lon="2.707">
        <ele>1509</ele>
        <time>2020-08-03T11:32:02.000Z</time>
      </trkpt>
      <trkpt lat="45.08288" lon="2.70696">
        <ele>1509</ele>
        <time>2020-08-03T11:32:10.000Z</time>
      </trkpt>
      <trkpt lat="45.08284" lon="2.70695">
        <ele>1509</ele>
        <time>2020-08-03T11:32:19.000Z</time>
      </trkpt>
      <trkpt lat="45.08286" lon="2.70697">
        <ele>1509</ele>
        <time>2020-08-03T11:32:29.000Z</time>
      </trkpt>
      <trkpt lat="45.08288" lon="2.70699">
        <ele>1509</ele>
        <time>2020-08-03T11:32:37.000Z</time>
      </trkpt>
      <trkpt lat="45.08291" lon="2.70699">
        <ele>1509</ele>
        <time>2020-08-03T11:32:44.000Z</time>
      </trkpt>
      <trkpt lat="45.08289" lon="2.70697">
        <ele>1509</ele>
        <time>2020-08-03T11:32:52.000Z</time>
      </trkpt>
      <trkpt lat="45.08287" lon="2.70696">
        <ele>1509</ele>
        <time>2020-08-03T11:32:59.000Z</time>
      </trkpt>
      <trkpt lat="45.08286" lon="2.70696">
        <ele>1509</ele>
        <time>2020-08-03T11:33:07.000Z</time>
      </trkpt>
      <trkpt lat="45.08286" lon="2.70697">
        <ele>1509</ele>
        <time>2020-08-03T11:33:16.000Z</time>
      </trkpt>
      <trkpt lat="45.08286" lon="2.70698">
        <ele>1509</ele>
        <time>2020-08-03T11:33:24.000Z</time>
      </trkpt>
      <trkpt lat="45.08287" lon="2.70697">
        <ele>1509</ele>
        <time>2020-08-03T11:33:29.000Z</time>
      </trkpt>
      <trkpt lat="45.08286" lon="2.70699">
        <ele>1509</ele>
        <time>2020-08-03T11:43:25.000Z</time>
      </trkpt>
      <trkpt lat="45.08287" lon="2.70699">
        <ele>1509</ele>
        <time>2020-08-03T11:43:28.000Z</time>
      </trkpt>
      <trkpt lat="45.08291" lon="2.707">
        <ele>1509.4000244141</ele>
        <time>2020-08-03T11:43:33.000Z</time>
      </trkpt>
      <trkpt lat="45.08294" lon="2.70703">
        <ele>1509.5999755859</ele>
        <time>2020-08-03T11:43:36.000Z</time>
      </trkpt>
      <trkpt lat="45.08294" lon="2.70708">
        <ele>1509.8000488281</ele>
        <time>2020-08-03T11:43:42.000Z</time>
      </trkpt>
      <trkpt lat="45.08293" lon="2.7071">
        <ele>1510.1999511719</ele>
        <time>2020-08-03T11:43:45.000Z</time>
      </trkpt>
      <trkpt lat="45.08292" lon="2.70714">
        <ele>1510.8000488281</ele>
        <time>2020-08-03T11:43:49.000Z</time>
      </trkpt>
      <trkpt lat="45.08292" lon="2.70718">
        <ele>1510.5999755859</ele>
        <time>2020-08-03T11:43:52.000Z</time>
      </trkpt>
      <trkpt lat="45.08293" lon="2.70721">
        <ele>1510.5999755859</ele>
        <time>2020-08-03T11:43:55.000Z</time>
      </trkpt>
      <trkpt lat="45.08293" lon="2.70723">
        <ele>1510.5999755859</ele>
        <time>2020-08-03T11:43:57.000Z</time>
      </trkpt>
      <trkpt lat="45.08293" lon="2.70728">
        <ele>1511</ele>
        <time>2020-08-03T11:44:01.000Z</time>
      </trkpt>
      <trkpt lat="45.08292" lon="2.70732">
        <ele>1511.8000488281</ele>
        <time>2020-08-03T11:44:05.000Z</time>
      </trkpt>
      <trkpt lat="45.08291" lon="2.70733">
        <ele>1512</ele>
        <time>2020-08-03T11:44:06.000Z</time>
      </trkpt>
      <trkpt lat="45.08291" lon="2.70735">
        <ele>1512.4000244141</ele>
        <time>2020-08-03T11:44:10.000Z</time>
      </trkpt>
      <trkpt lat="45.08291" lon="2.70736">
        <ele>1512.8000488281</ele>
        <time>2020-08-03T11:44:15.000Z</time>
      </trkpt>
      <trkpt lat="45.08288" lon="2.70739">
        <ele>1512.8000488281</ele>
        <time>2020-08-03T11:44:22.000Z</time>
      </trkpt>
      <trkpt lat="45.08287" lon="2.70741">
        <ele>1513.1999511719</ele>
        <time>2020-08-03T11:44:24.000Z</time>
      </trkpt>
      <trkpt lat="45.08286" lon="2.70744">
        <ele>1513.4000244141</ele>
        <time>2020-08-03T11:44:27.000Z</time>
      </trkpt>
      <trkpt lat="45.08284" lon="2.70745">
        <ele>1513.5999755859</ele>
        <time>2020-08-03T11:44:29.000Z</time>
      </trkpt>
      <trkpt lat="45.08283" lon="2.70746">
        <ele>1514.1999511719</ele>
        <time>2020-08-03T11:44:32.000Z</time>
      </trkpt>
      <trkpt lat="45.08282" lon="2.70748">
        <ele>1515.1999511719</ele>
        <time>2020-08-03T11:44:35.000Z</time>
      </trkpt>
      <trkpt lat="45.08282" lon="2.70749">
        <ele>1515.4000244141</ele>
        <time>2020-08-03T11:44:36.000Z</time>
      </trkpt>
      <trkpt lat="45.0828" lon="2.70752">
        <ele>1515.4000244141</ele>
        <time>2020-08-03T11:44:43.000Z</time>
      </trkpt>
      <trkpt lat="45.08278" lon="2.70755">
        <ele>1516.1999511719</ele>
        <time>2020-08-03T11:44:48.000Z</time>
      </trkpt>
      <trkpt lat="45.08277" lon="2.70755">
        <ele>1516.5999755859</ele>
        <time>2020-08-03T11:44:50.000Z</time>
      </trkpt>
      <trkpt lat="45.08276" lon="2.70757">
        <ele>1517</ele>
        <time>2020-08-03T11:44:52.000Z</time>
      </trkpt>
      <trkpt lat="45.08275" lon="2.70758">
        <ele>1517.1999511719</ele>
        <time>2020-08-03T11:44:55.000Z</time>
      </trkpt>
      <trkpt lat="45.08274" lon="2.70759">
        <ele>1517.4000244141</ele>
        <time>2020-08-03T11:44:56.000Z</time>
      </trkpt>
      <trkpt lat="45.0827" lon="2.70764">
        <ele>1518.4000244141</ele>
        <time>2020-08-03T11:45:03.000Z</time>
      </trkpt>
      <trkpt lat="45.08269" lon="2.70767">
        <ele>1519</ele>
        <time>2020-08-03T11:45:07.000Z</time>
      </trkpt>
      <trkpt lat="45.08268" lon="2.70769">
        <ele>1519.1999511719</ele>
        <time>2020-08-03T11:45:09.000Z</time>
      </trkpt>
      <trkpt lat="45.08268" lon="2.70769">
        <ele>1519.4000244141</ele>
        <time>2020-08-03T11:45:10.000Z</time>
      </trkpt>
      <trkpt lat="45.08267" lon="2.7077">
        <ele>1519.5999755859</ele>
        <time>2020-08-03T11:45:12.000Z</time>
      </trkpt>
      <trkpt lat="45.08266" lon="2.7077">
        <ele>1520</ele>
        <time>2020-08-03T11:45:15.000Z</time>
      </trkpt>
      <trkpt lat="45.08266" lon="2.70771">
        <ele>1520.4000244141</ele>
        <time>2020-08-03T11:45:19.000Z</time>
      </trkpt>
      <trkpt lat="45.08265" lon="2.70771">
        <ele>1520.5999755859</ele>
        <time>2020-08-03T11:45:22.000Z</time>
      </trkpt>
      <trkpt lat="45.08267" lon="2.70774">
        <ele>1519.8000488281</ele>
        <time>2020-08-03T11:45:28.000Z</time>
      </trkpt>
      <trkpt lat="45.08267" lon="2.70775">
        <ele>1519.5999755859</ele>
        <time>2020-08-03T11:45:30.000Z</time>
      </trkpt>
      <trkpt lat="45.08266" lon="2.70779">
        <ele>1520.5999755859</ele>
        <time>2020-08-03T11:45:34.000Z</time>
      </trkpt>
      <trkpt lat="45.08266" lon="2.7078">
        <ele>1520.8000488281</ele>
        <time>2020-08-03T11:45:35.000Z</time>
      </trkpt>
      <trkpt lat="45.08265" lon="2.70784">
        <ele>1521.5999755859</ele>
        <time>2020-08-03T11:45:39.000Z</time>
      </trkpt>
      <trkpt lat="45.08265" lon="2.70786">
        <ele>1521.8000488281</ele>
        <time>2020-08-03T11:45:41.000Z</time>
      </trkpt>
      <trkpt lat="45.08264" lon="2.70788">
        <ele>1522.1999511719</ele>
        <time>2020-08-03T11:45:43.000Z</time>
      </trkpt>
      <trkpt lat="45.08264" lon="2.7079">
        <ele>1522.5999755859</ele>
        <time>2020-08-03T11:45:45.000Z</time>
      </trkpt>
      <trkpt lat="45.08264" lon="2.70793">
        <ele>1523</ele>
        <time>2020-08-03T11:45:47.000Z</time>
      </trkpt>
      <trkpt lat="45.08262" lon="2.70796">
        <ele>1523.5999755859</ele>
        <time>2020-08-03T11:45:51.000Z</time>
      </trkpt>
      <trkpt lat="45.08262" lon="2.70798">
        <ele>1524.1999511719</ele>
        <time>2020-08-03T11:45:54.000Z</time>
      </trkpt>
      <trkpt lat="45.08261" lon="2.708">
        <ele>1524.4000244141</ele>
        <time>2020-08-03T11:45:56.000Z</time>
      </trkpt>
      <trkpt lat="45.08261" lon="2.70801">
        <ele>1524.8000488281</ele>
        <time>2020-08-03T11:45:57.000Z</time>
      </trkpt>
      <trkpt lat="45.08261" lon="2.70802">
        <ele>1525</ele>
        <time>2020-08-03T11:45:58.000Z</time>
      </trkpt>
      <trkpt lat="45.08261" lon="2.70804">
        <ele>1525.1999511719</ele>
        <time>2020-08-03T11:46:00.000Z</time>
      </trkpt>
      <trkpt lat="45.0826" lon="2.70808">
        <ele>1525.8000488281</ele>
        <time>2020-08-03T11:46:04.000Z</time>
      </trkpt>
      <trkpt lat="45.0826" lon="2.70809">
        <ele>1526.1999511719</ele>
        <time>2020-08-03T11:46:05.000Z</time>
      </trkpt>
      <trkpt lat="45.0826" lon="2.70812">
        <ele>1526.8000488281</ele>
        <time>2020-08-03T11:46:07.000Z</time>
      </trkpt>
      <trkpt lat="45.08261" lon="2.70813">
        <ele>1527</ele>
        <time>2020-08-03T11:46:08.000Z</time>
      </trkpt>
      <trkpt lat="45.08261" lon="2.70818">
        <ele>1527.8000488281</ele>
        <time>2020-08-03T11:46:12.000Z</time>
      </trkpt>
      <trkpt lat="45.0826" lon="2.70824">
        <ele>1528</ele>
        <time>2020-08-03T11:46:18.000Z</time>
      </trkpt>
      <trkpt lat="45.0826" lon="2.70826">
        <ele>1528.1999511719</ele>
        <time>2020-08-03T11:46:20.000Z</time>
      </trkpt>
      <trkpt lat="45.0826" lon="2.70827">
        <ele>1528.1999511719</ele>
        <time>2020-08-03T11:46:21.000Z</time>
      </trkpt>
      <trkpt lat="45.0826" lon="2.7083">
        <ele>1528.5999755859</ele>
        <time>2020-08-03T11:46:24.000Z</time>
      </trkpt>
      <trkpt lat="45.08259" lon="2.70833">
        <ele>1529.4000244141</ele>
        <time>2020-08-03T11:46:27.000Z</time>
      </trkpt>
      <trkpt lat="45.08259" lon="2.70835">
        <ele>1530</ele>
        <time>2020-08-03T11:46:29.000Z</time>
      </trkpt>
      <trkpt lat="45.08257" lon="2.70837">
        <ele>1530.5999755859</ele>
        <time>2020-08-03T11:46:32.000Z</time>
      </trkpt>
      <trkpt lat="45.08256" lon="2.70837">
        <ele>1531</ele>
        <time>2020-08-03T11:46:34.000Z</time>
      </trkpt>
      <trkpt lat="45.08256" lon="2.70838">
        <ele>1531.5999755859</ele>
        <time>2020-08-03T11:46:38.000Z</time>
      </trkpt>
      <trkpt lat="45.08256" lon="2.70839">
        <ele>1532</ele>
        <time>2020-08-03T11:46:40.000Z</time>
      </trkpt>
      <trkpt lat="45.08256" lon="2.7084">
        <ele>1532.1999511719</ele>
        <time>2020-08-03T11:46:41.000Z</time>
      </trkpt>
      <trkpt lat="45.08254" lon="2.70845">
        <ele>1532.5999755859</ele>
        <time>2020-08-03T11:46:46.000Z</time>
      </trkpt>
      <trkpt lat="45.08254" lon="2.70846">
        <ele>1532.8000488281</ele>
        <time>2020-08-03T11:46:47.000Z</time>
      </trkpt>
      <trkpt lat="45.08252" lon="2.70852">
        <ele>1533.8000488281</ele>
        <time>2020-08-03T11:46:52.000Z</time>
      </trkpt>
      <trkpt lat="45.08252" lon="2.70854">
        <ele>1534</ele>
        <time>2020-08-03T11:46:54.000Z</time>
      </trkpt>
      <trkpt lat="45.0825" lon="2.70859">
        <ele>1534.8000488281</ele>
        <time>2020-08-03T11:46:59.000Z</time>
      </trkpt>
      <trkpt lat="45.0825" lon="2.70859">
        <ele>1535</ele>
        <time>2020-08-03T11:47:00.000Z</time>
      </trkpt>
      <trkpt lat="45.0825" lon="2.70864">
        <ele>1536.1999511719</ele>
        <time>2020-08-03T11:47:05.000Z</time>
      </trkpt>
      <trkpt lat="45.0825" lon="2.70865">
        <ele>1536.1999511719</ele>
        <time>2020-08-03T11:47:06.000Z</time>
      </trkpt>
      <trkpt lat="45.08251" lon="2.7087">
        <ele>1536.5999755859</ele>
        <time>2020-08-03T11:47:09.000Z</time>
      </trkpt>
      <trkpt lat="45.08251" lon="2.70876">
        <ele>1537.1999511719</ele>
        <time>2020-08-03T11:47:15.000Z</time>
      </trkpt>
      <trkpt lat="45.08251" lon="2.70877">
        <ele>1537.1999511719</ele>
        <time>2020-08-03T11:47:17.000Z</time>
      </trkpt>
      <trkpt lat="45.08251" lon="2.70877">
        <ele>1537</ele>
        <time>2020-08-03T11:47:24.000Z</time>
      </trkpt>
      <trkpt lat="45.08252" lon="2.70885">
        <ele>1537.1999511719</ele>
        <time>2020-08-03T11:47:30.000Z</time>
      </trkpt>
      <trkpt lat="45.08252" lon="2.70889">
        <ele>1537.1999511719</ele>
        <time>2020-08-03T11:47:35.000Z</time>
      </trkpt>
      <trkpt lat="45.08253" lon="2.70891">
        <ele>1537.5999755859</ele>
        <time>2020-08-03T11:47:38.000Z</time>
      </trkpt>
      <trkpt lat="45.08253" lon="2.70896">
        <ele>1538</ele>
        <time>2020-08-03T11:47:41.000Z</time>
      </trkpt>
      <trkpt lat="45.08253" lon="2.70897">
        <ele>1538.1999511719</ele>
        <time>2020-08-03T11:47:42.000Z</time>
      </trkpt>
      <trkpt lat="45.08253" lon="2.70904">
        <ele>1538</ele>
        <time>2020-08-03T11:47:47.000Z</time>
      </trkpt>
      <trkpt lat="45.08254" lon="2.70907">
        <ele>1538.1999511719</ele>
        <time>2020-08-03T11:47:49.000Z</time>
      </trkpt>
      <trkpt lat="45.08256" lon="2.70913">
        <ele>1537.5999755859</ele>
        <time>2020-08-03T11:47:56.000Z</time>
      </trkpt>
      <trkpt lat="45.08257" lon="2.70914">
        <ele>1538.1999511719</ele>
        <time>2020-08-03T11:48:02.000Z</time>
      </trkpt>
      <trkpt lat="45.08259" lon="2.70917">
        <ele>1538.4000244141</ele>
        <time>2020-08-03T11:48:04.000Z</time>
      </trkpt>
      <trkpt lat="45.08262" lon="2.70925">
        <ele>1539</ele>
        <time>2020-08-03T11:48:10.000Z</time>
      </trkpt>
      <trkpt lat="45.08264" lon="2.70937">
        <ele>1539.1999511719</ele>
        <time>2020-08-03T11:48:19.000Z</time>
      </trkpt>
      <trkpt lat="45.08265" lon="2.70939">
        <ele>1539.4000244141</ele>
        <time>2020-08-03T11:48:20.000Z</time>
      </trkpt>
      <trkpt lat="45.08265" lon="2.70944">
        <ele>1539.8000488281</ele>
        <time>2020-08-03T11:48:24.000Z</time>
      </trkpt>
      <trkpt lat="45.08264" lon="2.70944">
        <ele>1539.8000488281</ele>
        <time>2020-08-03T11:48:25.000Z</time>
      </trkpt>
      <trkpt lat="45.08264" lon="2.70945">
        <ele>1539.1999511719</ele>
        <time>2020-08-03T11:48:34.000Z</time>
      </trkpt>
      <trkpt lat="45.08265" lon="2.70945">
        <ele>1539.1999511719</ele>
        <time>2020-08-03T11:48:35.000Z</time>
      </trkpt>
      <trkpt lat="45.08266" lon="2.70947">
        <ele>1539</ele>
        <time>2020-08-03T11:48:41.000Z</time>
      </trkpt>
      <trkpt lat="45.08267" lon="2.70949">
        <ele>1539.1999511719</ele>
        <time>2020-08-03T11:48:45.000Z</time>
      </trkpt>
      <trkpt lat="45.0827" lon="2.70953">
        <ele>1539</ele>
        <time>2020-08-03T11:48:48.000Z</time>
      </trkpt>
      <trkpt lat="45.08272" lon="2.70957">
        <ele>1538.4000244141</ele>
        <time>2020-08-03T11:48:55.000Z</time>
      </trkpt>
      <trkpt lat="45.08272" lon="2.70957">
        <ele>1537.5999755859</ele>
        <time>2020-08-03T11:49:06.000Z</time>
      </trkpt>
      <trkpt lat="45.08273" lon="2.70957">
        <ele>1537.5999755859</ele>
        <time>2020-08-03T11:49:12.000Z</time>
      </trkpt>
      <trkpt lat="45.08273" lon="2.70957">
        <ele>1537.4000244141</ele>
        <time>2020-08-03T11:49:16.000Z</time>
      </trkpt>
      <trkpt lat="45.08273" lon="2.70957">
        <ele>1538</ele>
        <time>2020-08-03T11:49:27.000Z</time>
      </trkpt>
      <trkpt lat="45.08272" lon="2.70957">
        <ele>1537.8000488281</ele>
        <time>2020-08-03T11:49:38.000Z</time>
      </trkpt>
      <trkpt lat="45.08273" lon="2.70958">
        <ele>1538.1999511719</ele>
        <time>2020-08-03T11:49:46.000Z</time>
      </trkpt>
      <trkpt lat="45.08274" lon="2.70959">
        <ele>1538</ele>
        <time>2020-08-03T11:49:47.000Z</time>
      </trkpt>
      <trkpt lat="45.08276" lon="2.70961">
        <ele>1538</ele>
        <time>2020-08-03T11:49:49.000Z</time>
      </trkpt>
      <trkpt lat="45.0828" lon="2.70966">
        <ele>1537.5999755859</ele>
        <time>2020-08-03T11:49:54.000Z</time>
      </trkpt>
      <trkpt lat="45.08281" lon="2.70968">
        <ele>1537.4000244141</ele>
        <time>2020-08-03T11:49:58.000Z</time>
      </trkpt>
      <trkpt lat="45.08283" lon="2.70969">
        <ele>1537.1999511719</ele>
        <time>2020-08-03T11:50:00.000Z</time>
      </trkpt>
      <trkpt lat="45.0829" lon="2.70976">
        <ele>1537.4000244141</ele>
        <time>2020-08-03T11:50:07.000Z</time>
      </trkpt>
      <trkpt lat="45.08297" lon="2.7098">
        <ele>1537.5999755859</ele>
        <time>2020-08-03T11:50:14.000Z</time>
      </trkpt>
      <trkpt lat="45.08306" lon="2.70984">
        <ele>1538.4000244141</ele>
        <time>2020-08-03T11:50:22.000Z</time>
      </trkpt>
      <trkpt lat="45.08308" lon="2.70985">
        <ele>1538.4000244141</ele>
        <time>2020-08-03T11:50:24.000Z</time>
      </trkpt>
      <trkpt lat="45.08318" lon="2.70989">
        <ele>1538</ele>
        <time>2020-08-03T11:50:32.000Z</time>
      </trkpt>
      <trkpt lat="45.08321" lon="2.7099">
        <ele>1537.8000488281</ele>
        <time>2020-08-03T11:50:34.000Z</time>
      </trkpt>
      <trkpt lat="45.08328" lon="2.70993">
        <ele>1537.8000488281</ele>
        <time>2020-08-03T11:50:40.000Z</time>
      </trkpt>
      <trkpt lat="45.08329" lon="2.70994">
        <ele>1537.8000488281</ele>
        <time>2020-08-03T11:50:41.000Z</time>
      </trkpt>
      <trkpt lat="45.08337" lon="2.70999">
        <ele>1537.8000488281</ele>
        <time>2020-08-03T11:50:49.000Z</time>
      </trkpt>
      <trkpt lat="45.08341" lon="2.71004">
        <ele>1537.1999511719</ele>
        <time>2020-08-03T11:50:53.000Z</time>
      </trkpt>
      <trkpt lat="45.08344" lon="2.71008">
        <ele>1536.5999755859</ele>
        <time>2020-08-03T11:50:57.000Z</time>
      </trkpt>
      <trkpt lat="45.08346" lon="2.71009">
        <ele>1536.1999511719</ele>
        <time>2020-08-03T11:50:59.000Z</time>
      </trkpt>
      <trkpt lat="45.08348" lon="2.71012">
        <ele>1535.5999755859</ele>
        <time>2020-08-03T11:51:03.000Z</time>
      </trkpt>
      <trkpt lat="45.08349" lon="2.71013">
        <ele>1535.5999755859</ele>
        <time>2020-08-03T11:51:07.000Z</time>
      </trkpt>
      <trkpt lat="45.08352" lon="2.71017">
        <ele>1535.1999511719</ele>
        <time>2020-08-03T11:51:10.000Z</time>
      </trkpt>
      <trkpt lat="45.08353" lon="2.71019">
        <ele>1535</ele>
        <time>2020-08-03T11:51:11.000Z</time>
      </trkpt>
      <trkpt lat="45.08357" lon="2.71026">
        <ele>1534</ele>
        <time>2020-08-03T11:51:17.000Z</time>
      </trkpt>
      <trkpt lat="45.08357" lon="2.71027">
        <ele>1533.8000488281</ele>
        <time>2020-08-03T11:51:18.000Z</time>
      </trkpt>
      <trkpt lat="45.08365" lon="2.71037">
        <ele>1532.8000488281</ele>
        <time>2020-08-03T11:51:26.000Z</time>
      </trkpt>
      <trkpt lat="45.08371" lon="2.71047">
        <ele>1532.8000488281</ele>
        <time>2020-08-03T11:51:34.000Z</time>
      </trkpt>
      <trkpt lat="45.08378" lon="2.71055">
        <ele>1532</ele>
        <time>2020-08-03T11:51:41.000Z</time>
      </trkpt>
      <trkpt lat="45.08384" lon="2.71063">
        <ele>1531.8000488281</ele>
        <time>2020-08-03T11:51:49.000Z</time>
      </trkpt>
      <trkpt lat="45.08392" lon="2.71067">
        <ele>1531.1999511719</ele>
        <time>2020-08-03T11:51:57.000Z</time>
      </trkpt>
      <trkpt lat="45.08401" lon="2.71071">
        <ele>1531</ele>
        <time>2020-08-03T11:52:05.000Z</time>
      </trkpt>
      <trkpt lat="45.08408" lon="2.71075">
        <ele>1531.8000488281</ele>
        <time>2020-08-03T11:52:12.000Z</time>
      </trkpt>
      <trkpt lat="45.08415" lon="2.71078">
        <ele>1532.8000488281</ele>
        <time>2020-08-03T11:52:19.000Z</time>
      </trkpt>
      <trkpt lat="45.08417" lon="2.71079">
        <ele>1533.1999511719</ele>
        <time>2020-08-03T11:52:21.000Z</time>
      </trkpt>
      <trkpt lat="45.08425" lon="2.71085">
        <ele>1534</ele>
        <time>2020-08-03T11:52:30.000Z</time>
      </trkpt>
      <trkpt lat="45.08433" lon="2.71089">
        <ele>1534.4000244141</ele>
        <time>2020-08-03T11:52:38.000Z</time>
      </trkpt>
      <trkpt lat="45.0844" lon="2.71094">
        <ele>1534.5999755859</ele>
        <time>2020-08-03T11:52:45.000Z</time>
      </trkpt>
      <trkpt lat="45.08449" lon="2.711">
        <ele>1534.4000244141</ele>
        <time>2020-08-03T11:52:53.000Z</time>
      </trkpt>
      <trkpt lat="45.08458" lon="2.71107">
        <ele>1534.1999511719</ele>
        <time>2020-08-03T11:53:01.000Z</time>
      </trkpt>
      <trkpt lat="45.08463" lon="2.71111">
        <ele>1534.1999511719</ele>
        <time>2020-08-03T11:53:08.000Z</time>
      </trkpt>
      <trkpt lat="45.08464" lon="2.7111">
        <ele>1534.4000244141</ele>
        <time>2020-08-03T11:53:14.000Z</time>
      </trkpt>
      <trkpt lat="45.08465" lon="2.7111">
        <ele>1534.4000244141</ele>
        <time>2020-08-03T11:53:24.000Z</time>
      </trkpt>
      <trkpt lat="45.08466" lon="2.71111">
        <ele>1534.4000244141</ele>
        <time>2020-08-03T11:53:26.000Z</time>
      </trkpt>
      <trkpt lat="45.08469" lon="2.71114">
        <ele>1534.4000244141</ele>
        <time>2020-08-03T11:53:29.000Z</time>
      </trkpt>
      <trkpt lat="45.08473" lon="2.7112">
        <ele>1533.8000488281</ele>
        <time>2020-08-03T11:53:35.000Z</time>
      </trkpt>
      <trkpt lat="45.08473" lon="2.71121">
        <ele>1533.8000488281</ele>
        <time>2020-08-03T11:53:38.000Z</time>
      </trkpt>
      <trkpt lat="45.08475" lon="2.71125">
        <ele>1533.8000488281</ele>
        <time>2020-08-03T11:53:41.000Z</time>
      </trkpt>
      <trkpt lat="45.08479" lon="2.71133">
        <ele>1534.1999511719</ele>
        <time>2020-08-03T11:53:49.000Z</time>
      </trkpt>
      <trkpt lat="45.0848" lon="2.71136">
        <ele>1534.1999511719</ele>
        <time>2020-08-03T11:53:51.000Z</time>
      </trkpt>
      <trkpt lat="45.08481" lon="2.71141">
        <ele>1533.5999755859</ele>
        <time>2020-08-03T11:53:55.000Z</time>
      </trkpt>
      <trkpt lat="45.08484" lon="2.71144">
        <ele>1533.4000244141</ele>
        <time>2020-08-03T11:54:00.000Z</time>
      </trkpt>
      <trkpt lat="45.08485" lon="2.71146">
        <ele>1533</ele>
        <time>2020-08-03T11:54:02.000Z</time>
      </trkpt>
      <trkpt lat="45.08486" lon="2.71146">
        <ele>1532.5999755859</ele>
        <time>2020-08-03T11:54:03.000Z</time>
      </trkpt>
      <trkpt lat="45.08487" lon="2.71149">
        <ele>1533</ele>
        <time>2020-08-03T11:54:07.000Z</time>
      </trkpt>
      <trkpt lat="45.08488" lon="2.71151">
        <ele>1533.1999511719</ele>
        <time>2020-08-03T11:54:16.000Z</time>
      </trkpt>
      <trkpt lat="45.08489" lon="2.71151">
        <ele>1533.1999511719</ele>
        <time>2020-08-03T11:54:18.000Z</time>
      </trkpt>
      <trkpt lat="45.08492" lon="2.71155">
        <ele>1533.1999511719</ele>
        <time>2020-08-03T11:54:22.000Z</time>
      </trkpt>
      <trkpt lat="45.08497" lon="2.71161">
        <ele>1533</ele>
        <time>2020-08-03T11:54:28.000Z</time>
      </trkpt>
      <trkpt lat="45.08505" lon="2.71171">
        <ele>1533</ele>
        <time>2020-08-03T11:54:36.000Z</time>
      </trkpt>
      <trkpt lat="45.08512" lon="2.71182">
        <ele>1533</ele>
        <time>2020-08-03T11:54:44.000Z</time>
      </trkpt>
      <trkpt lat="45.08515" lon="2.71189">
        <ele>1533.4000244141</ele>
        <time>2020-08-03T11:54:50.000Z</time>
      </trkpt>
      <trkpt lat="45.08515" lon="2.7119">
        <ele>1533.4000244141</ele>
        <time>2020-08-03T11:54:51.000Z</time>
      </trkpt>
      <trkpt lat="45.0852" lon="2.71199">
        <ele>1532.5999755859</ele>
        <time>2020-08-03T11:55:00.000Z</time>
      </trkpt>
      <trkpt lat="45.08526" lon="2.71203">
        <ele>1532.4000244141</ele>
        <time>2020-08-03T11:55:07.000Z</time>
      </trkpt>
      <trkpt lat="45.08531" lon="2.71206">
        <ele>1532.5999755859</ele>
        <time>2020-08-03T11:55:13.000Z</time>
      </trkpt>
      <trkpt lat="45.08534" lon="2.71205">
        <ele>1533</ele>
        <time>2020-08-03T11:55:16.000Z</time>
      </trkpt>
      <trkpt lat="45.08536" lon="2.71203">
        <ele>1533.1999511719</ele>
        <time>2020-08-03T11:55:19.000Z</time>
      </trkpt>
      <trkpt lat="45.08538" lon="2.71201">
        <ele>1533</ele>
        <time>2020-08-03T11:55:22.000Z</time>
      </trkpt>
      <trkpt lat="45.08539" lon="2.712">
        <ele>1533</ele>
        <time>2020-08-03T11:55:23.000Z</time>
      </trkpt>
      <trkpt lat="45.08542" lon="2.71201">
        <ele>1532.8000488281</ele>
        <time>2020-08-03T11:55:28.000Z</time>
      </trkpt>
      <trkpt lat="45.08543" lon="2.71201">
        <ele>1533</ele>
        <time>2020-08-03T11:55:30.000Z</time>
      </trkpt>
      <trkpt lat="45.08545" lon="2.71204">
        <ele>1533.8000488281</ele>
        <time>2020-08-03T11:55:33.000Z</time>
      </trkpt>
      <trkpt lat="45.08546" lon="2.71204">
        <ele>1533.8000488281</ele>
        <time>2020-08-03T11:55:34.000Z</time>
      </trkpt>
      <trkpt lat="45.08547" lon="2.71205">
        <ele>1534</ele>
        <time>2020-08-03T11:55:35.000Z</time>
      </trkpt>
      <trkpt lat="45.08552" lon="2.71204">
        <ele>1534.1999511719</ele>
        <time>2020-08-03T11:55:40.000Z</time>
      </trkpt>
      <trkpt lat="45.08561" lon="2.71204">
        <ele>1534</ele>
        <time>2020-08-03T11:55:49.000Z</time>
      </trkpt>
      <trkpt lat="45.08562" lon="2.71204">
        <ele>1534</ele>
        <time>2020-08-03T11:55:50.000Z</time>
      </trkpt>
      <trkpt lat="45.08565" lon="2.71204">
        <ele>1535</ele>
        <time>2020-08-03T11:55:53.000Z</time>
      </trkpt>
      <trkpt lat="45.08568" lon="2.71205">
        <ele>1535.4000244141</ele>
        <time>2020-08-03T11:55:56.000Z</time>
      </trkpt>
      <trkpt lat="45.08569" lon="2.71205">
        <ele>1536</ele>
        <time>2020-08-03T11:55:58.000Z</time>
      </trkpt>
      <trkpt lat="45.08569" lon="2.71205">
        <ele>1536</ele>
        <time>2020-08-03T11:56:00.000Z</time>
      </trkpt>
      <trkpt lat="45.08572" lon="2.71205">
        <ele>1535.4000244141</ele>
        <time>2020-08-03T11:56:03.000Z</time>
      </trkpt>
      <trkpt lat="45.08574" lon="2.71205">
        <ele>1534.8000488281</ele>
        <time>2020-08-03T11:56:05.000Z</time>
      </trkpt>
      <trkpt lat="45.08581" lon="2.71202">
        <ele>1534.4000244141</ele>
        <time>2020-08-03T11:56:12.000Z</time>
      </trkpt>
      <trkpt lat="45.08587" lon="2.71203">
        <ele>1534.4000244141</ele>
        <time>2020-08-03T11:56:18.000Z</time>
      </trkpt>
      <trkpt lat="45.08598" lon="2.71206">
        <ele>1534</ele>
        <time>2020-08-03T11:56:26.000Z</time>
      </trkpt>
      <trkpt lat="45.086" lon="2.71207">
        <ele>1533.5999755859</ele>
        <time>2020-08-03T11:56:28.000Z</time>
      </trkpt>
      <trkpt lat="45.08602" lon="2.71208">
        <ele>1532.8000488281</ele>
        <time>2020-08-03T11:56:32.000Z</time>
      </trkpt>
      <trkpt lat="45.08606" lon="2.71211">
        <ele>1532.4000244141</ele>
        <time>2020-08-03T11:56:35.000Z</time>
      </trkpt>
      <trkpt lat="45.0861" lon="2.71216">
        <ele>1532.4000244141</ele>
        <time>2020-08-03T11:56:39.000Z</time>
      </trkpt>
      <trkpt lat="45.08619" lon="2.71228">
        <ele>1531.4000244141</ele>
        <time>2020-08-03T11:56:48.000Z</time>
      </trkpt>
      <trkpt lat="45.0862" lon="2.7123">
        <ele>1531.1999511719</ele>
        <time>2020-08-03T11:56:49.000Z</time>
      </trkpt>
      <trkpt lat="45.08627" lon="2.71239">
        <ele>1530.5999755859</ele>
        <time>2020-08-03T11:56:58.000Z</time>
      </trkpt>
      <trkpt lat="45.08631" lon="2.71245">
        <ele>1530.4000244141</ele>
        <time>2020-08-03T11:57:04.000Z</time>
      </trkpt>
      <trkpt lat="45.08632" lon="2.71245">
        <ele>1530.1999511719</ele>
        <time>2020-08-03T11:57:05.000Z</time>
      </trkpt>
      <trkpt lat="45.08639" lon="2.71248">
        <ele>1529.5999755859</ele>
        <time>2020-08-03T11:57:11.000Z</time>
      </trkpt>
      <trkpt lat="45.08645" lon="2.71254">
        <ele>1529.8000488281</ele>
        <time>2020-08-03T11:57:18.000Z</time>
      </trkpt>
      <trkpt lat="45.08654" lon="2.71262">
        <ele>1529.4000244141</ele>
        <time>2020-08-03T11:57:27.000Z</time>
      </trkpt>
      <trkpt lat="45.08656" lon="2.71265">
        <ele>1529.1999511719</ele>
        <time>2020-08-03T11:57:30.000Z</time>
      </trkpt>
      <trkpt lat="45.08661" lon="2.71268">
        <ele>1529</ele>
        <time>2020-08-03T11:57:36.000Z</time>
      </trkpt>
      <trkpt lat="45.08669" lon="2.71271">
        <ele>1528.4000244141</ele>
        <time>2020-08-03T11:57:44.000Z</time>
      </trkpt>
      <trkpt lat="45.08673" lon="2.71272">
        <ele>1528</ele>
        <time>2020-08-03T11:57:48.000Z</time>
      </trkpt>
      <trkpt lat="45.08678" lon="2.71274">
        <ele>1528</ele>
        <time>2020-08-03T11:57:52.000Z</time>
      </trkpt>
      <trkpt lat="45.08682" lon="2.71274">
        <ele>1528</ele>
        <time>2020-08-03T11:57:56.000Z</time>
      </trkpt>
      <trkpt lat="45.08685" lon="2.71271">
        <ele>1528.4000244141</ele>
        <time>2020-08-03T11:57:59.000Z</time>
      </trkpt>
      <trkpt lat="45.08691" lon="2.71264">
        <ele>1528.5999755859</ele>
        <time>2020-08-03T11:58:07.000Z</time>
      </trkpt>
      <trkpt lat="45.08697" lon="2.71256">
        <ele>1528.4000244141</ele>
        <time>2020-08-03T11:58:15.000Z</time>
      </trkpt>
      <trkpt lat="45.08706" lon="2.71246">
        <ele>1527.8000488281</ele>
        <time>2020-08-03T11:58:25.000Z</time>
      </trkpt>
      <trkpt lat="45.08712" lon="2.71237">
        <ele>1527.8000488281</ele>
        <time>2020-08-03T11:58:33.000Z</time>
      </trkpt>
      <trkpt lat="45.08718" lon="2.71229">
        <ele>1528</ele>
        <time>2020-08-03T11:58:41.000Z</time>
      </trkpt>
      <trkpt lat="45.08719" lon="2.71228">
        <ele>1528</ele>
        <time>2020-08-03T11:58:42.000Z</time>
      </trkpt>
      <trkpt lat="45.08722" lon="2.71222">
        <ele>1529</ele>
        <time>2020-08-03T11:58:48.000Z</time>
      </trkpt>
      <trkpt lat="45.08722" lon="2.71221">
        <ele>1529.1999511719</ele>
        <time>2020-08-03T11:58:49.000Z</time>
      </trkpt>
      <trkpt lat="45.08723" lon="2.7122">
        <ele>1529.1999511719</ele>
        <time>2020-08-03T11:58:50.000Z</time>
      </trkpt>
      <trkpt lat="45.08728" lon="2.71218">
        <ele>1529.5999755859</ele>
        <time>2020-08-03T11:58:56.000Z</time>
      </trkpt>
      <trkpt lat="45.08736" lon="2.71216">
        <ele>1529.5999755859</ele>
        <time>2020-08-03T11:59:03.000Z</time>
      </trkpt>
      <trkpt lat="45.08742" lon="2.71209">
        <ele>1529.1999511719</ele>
        <time>2020-08-03T11:59:11.000Z</time>
      </trkpt>
      <trkpt lat="45.08741" lon="2.71207">
        <ele>1530</ele>
        <time>2020-08-03T11:59:18.000Z</time>
      </trkpt>
      <trkpt lat="45.0874" lon="2.71206">
        <ele>1529.8000488281</ele>
        <time>2020-08-03T11:59:27.000Z</time>
      </trkpt>
      <trkpt lat="45.0874" lon="2.71206">
        <ele>1530</ele>
        <time>2020-08-03T11:59:38.000Z</time>
      </trkpt>
      <trkpt lat="45.0874" lon="2.71206">
        <ele>1529.4000244141</ele>
        <time>2020-08-03T11:59:48.000Z</time>
      </trkpt>
      <trkpt lat="45.08741" lon="2.71208">
        <ele>1530</ele>
        <time>2020-08-03T12:00:00.000Z</time>
      </trkpt>
      <trkpt lat="45.08741" lon="2.7121">
        <ele>1530.4000244141</ele>
        <time>2020-08-03T12:00:02.000Z</time>
      </trkpt>
      <trkpt lat="45.08742" lon="2.71214">
        <ele>1530.5999755859</ele>
        <time>2020-08-03T12:00:06.000Z</time>
      </trkpt>
      <trkpt lat="45.08742" lon="2.71215">
        <ele>1530.1999511719</ele>
        <time>2020-08-03T12:00:12.000Z</time>
      </trkpt>
      <trkpt lat="45.08742" lon="2.71215">
        <ele>1529.8000488281</ele>
        <time>2020-08-03T12:00:21.000Z</time>
      </trkpt>
      <trkpt lat="45.08742" lon="2.71215">
        <ele>1530</ele>
        <time>2020-08-03T12:00:28.000Z</time>
      </trkpt>
      <trkpt lat="45.08742" lon="2.71215">
        <ele>1529.8000488281</ele>
        <time>2020-08-03T12:00:38.000Z</time>
      </trkpt>
      <trkpt lat="45.08743" lon="2.71215">
        <ele>1530</ele>
        <time>2020-08-03T12:00:50.000Z</time>
      </trkpt>
      <trkpt lat="45.08742" lon="2.71214">
        <ele>1529.4000244141</ele>
        <time>2020-08-03T12:00:57.000Z</time>
      </trkpt>
      <trkpt lat="45.08743" lon="2.71214">
        <ele>1529.5999755859</ele>
        <time>2020-08-03T12:00:58.000Z</time>
      </trkpt>
      <trkpt lat="45.08743" lon="2.71214">
        <ele>1529.1999511719</ele>
        <time>2020-08-03T12:01:06.000Z</time>
      </trkpt>
      <trkpt lat="45.08744" lon="2.71216">
        <ele>1529</ele>
        <time>2020-08-03T12:01:08.000Z</time>
      </trkpt>
      <trkpt lat="45.08748" lon="2.71217">
        <ele>1528.4000244141</ele>
        <time>2020-08-03T12:01:11.000Z</time>
      </trkpt>
      <trkpt lat="45.08748" lon="2.71218">
        <ele>1528.1999511719</ele>
        <time>2020-08-03T12:01:12.000Z</time>
      </trkpt>
      <trkpt lat="45.08749" lon="2.71219">
        <ele>1529.1999511719</ele>
        <time>2020-08-03T12:01:16.000Z</time>
      </trkpt>
      <trkpt lat="45.08751" lon="2.71221">
        <ele>1529.1999511719</ele>
        <time>2020-08-03T12:01:18.000Z</time>
      </trkpt>
      <trkpt lat="45.08752" lon="2.71223">
        <ele>1528.1999511719</ele>
        <time>2020-08-03T12:01:19.000Z</time>
      </trkpt>
      <trkpt lat="45.08754" lon="2.71226">
        <ele>1527</ele>
        <time>2020-08-03T12:01:21.000Z</time>
      </trkpt>
      <trkpt lat="45.08757" lon="2.7123">
        <ele>1527.1999511719</ele>
        <time>2020-08-03T12:01:23.000Z</time>
      </trkpt>
      <trkpt lat="45.08764" lon="2.71244">
        <ele>1526</ele>
        <time>2020-08-03T12:01:31.000Z</time>
      </trkpt>
      <trkpt lat="45.08765" lon="2.71246">
        <ele>1525.8000488281</ele>
        <time>2020-08-03T12:01:32.000Z</time>
      </trkpt>
      <trkpt lat="45.08771" lon="2.7126">
        <ele>1525.1999511719</ele>
        <time>2020-08-03T12:01:40.000Z</time>
      </trkpt>
      <trkpt lat="45.08773" lon="2.71263">
        <ele>1525</ele>
        <time>2020-08-03T12:01:42.000Z</time>
      </trkpt>
      <trkpt lat="45.08779" lon="2.71271">
        <ele>1524</ele>
        <time>2020-08-03T12:01:47.000Z</time>
      </trkpt>
      <trkpt lat="45.0878" lon="2.71273">
        <ele>1523.8000488281</ele>
        <time>2020-08-03T12:01:48.000Z</time>
      </trkpt>
      <trkpt lat="45.08787" lon="2.71287">
        <ele>1523</ele>
        <time>2020-08-03T12:01:56.000Z</time>
      </trkpt>
      <trkpt lat="45.08788" lon="2.71288">
        <ele>1522.8000488281</ele>
        <time>2020-08-03T12:01:57.000Z</time>
      </trkpt>
      <trkpt lat="45.08794" lon="2.71295">
        <ele>1521.5999755859</ele>
        <time>2020-08-03T12:02:02.000Z</time>
      </trkpt>
      <trkpt lat="45.08799" lon="2.713">
        <ele>1520.4000244141</ele>
        <time>2020-08-03T12:02:06.000Z</time>
      </trkpt>
      <trkpt lat="45.088" lon="2.71301">
        <ele>1520.4000244141</ele>
        <time>2020-08-03T12:02:07.000Z</time>
      </trkpt>
      <trkpt lat="45.08802" lon="2.71304">
        <ele>1520.4000244141</ele>
        <time>2020-08-03T12:02:09.000Z</time>
      </trkpt>
      <trkpt lat="45.08806" lon="2.71308">
        <ele>1519.8000488281</ele>
        <time>2020-08-03T12:02:12.000Z</time>
      </trkpt>
      <trkpt lat="45.0881" lon="2.71313">
        <ele>1519.4000244141</ele>
        <time>2020-08-03T12:02:16.000Z</time>
      </trkpt>
      <trkpt lat="45.08813" lon="2.71317">
        <ele>1518.5999755859</ele>
        <time>2020-08-03T12:02:19.000Z</time>
      </trkpt>
      <trkpt lat="45.08814" lon="2.71319">
        <ele>1518.4000244141</ele>
        <time>2020-08-03T12:02:20.000Z</time>
      </trkpt>
      <trkpt lat="45.0882" lon="2.71331">
        <ele>1517.4000244141</ele>
        <time>2020-08-03T12:02:27.000Z</time>
      </trkpt>
      <trkpt lat="45.0882" lon="2.71332">
        <ele>1517.4000244141</ele>
        <time>2020-08-03T12:02:28.000Z</time>
      </trkpt>
      <trkpt lat="45.08825" lon="2.71342">
        <ele>1516.5999755859</ele>
        <time>2020-08-03T12:02:34.000Z</time>
      </trkpt>
      <trkpt lat="45.08827" lon="2.71346">
        <ele>1516.1999511719</ele>
        <time>2020-08-03T12:02:36.000Z</time>
      </trkpt>
      <trkpt lat="45.08831" lon="2.71357">
        <ele>1515.8000488281</ele>
        <time>2020-08-03T12:02:42.000Z</time>
      </trkpt>
      <trkpt lat="45.08837" lon="2.7137">
        <ele>1515.5999755859</ele>
        <time>2020-08-03T12:02:49.000Z</time>
      </trkpt>
      <trkpt lat="45.08837" lon="2.71372">
        <ele>1515.1999511719</ele>
        <time>2020-08-03T12:02:50.000Z</time>
      </trkpt>
      <trkpt lat="45.08842" lon="2.71384">
        <ele>1514.1999511719</ele>
        <time>2020-08-03T12:02:57.000Z</time>
      </trkpt>
      <trkpt lat="45.08842" lon="2.71385">
        <ele>1514</ele>
        <time>2020-08-03T12:02:58.000Z</time>
      </trkpt>
      <trkpt lat="45.08844" lon="2.7139">
        <ele>1513.4000244141</ele>
        <time>2020-08-03T12:03:01.000Z</time>
      </trkpt>
      <trkpt lat="45.08845" lon="2.71394">
        <ele>1513</ele>
        <time>2020-08-03T12:03:03.000Z</time>
      </trkpt>
      <trkpt lat="45.08846" lon="2.71398">
        <ele>1512.5999755859</ele>
        <time>2020-08-03T12:03:05.000Z</time>
      </trkpt>
      <trkpt lat="45.08848" lon="2.71401">
        <ele>1512.4000244141</ele>
        <time>2020-08-03T12:03:07.000Z</time>
      </trkpt>
      <trkpt lat="45.08849" lon="2.71407">
        <ele>1511.8000488281</ele>
        <time>2020-08-03T12:03:10.000Z</time>
      </trkpt>
      <trkpt lat="45.08853" lon="2.71415">
        <ele>1510.8000488281</ele>
        <time>2020-08-03T12:03:15.000Z</time>
      </trkpt>
      <trkpt lat="45.08856" lon="2.71418">
        <ele>1510.8000488281</ele>
        <time>2020-08-03T12:03:17.000Z</time>
      </trkpt>
      <trkpt lat="45.08861" lon="2.71424">
        <ele>1510.8000488281</ele>
        <time>2020-08-03T12:03:22.000Z</time>
      </trkpt>
      <trkpt lat="45.08867" lon="2.71436">
        <ele>1511.1999511719</ele>
        <time>2020-08-03T12:03:29.000Z</time>
      </trkpt>
      <trkpt lat="45.08874" lon="2.71447">
        <ele>1511.4000244141</ele>
        <time>2020-08-03T12:03:36.000Z</time>
      </trkpt>
      <trkpt lat="45.08883" lon="2.71459">
        <ele>1510.4000244141</ele>
        <time>2020-08-03T12:03:45.000Z</time>
      </trkpt>
      <trkpt lat="45.0889" lon="2.71466">
        <ele>1509.8000488281</ele>
        <time>2020-08-03T12:03:51.000Z</time>
      </trkpt>
      <trkpt lat="45.08891" lon="2.71467">
        <ele>1509.8000488281</ele>
        <time>2020-08-03T12:03:52.000Z</time>
      </trkpt>
      <trkpt lat="45.08893" lon="2.7147">
        <ele>1509.4000244141</ele>
        <time>2020-08-03T12:03:54.000Z</time>
      </trkpt>
      <trkpt lat="45.08895" lon="2.71472">
        <ele>1509</ele>
        <time>2020-08-03T12:03:56.000Z</time>
      </trkpt>
      <trkpt lat="45.08899" lon="2.71476">
        <ele>1508.5999755859</ele>
        <time>2020-08-03T12:03:59.000Z</time>
      </trkpt>
      <trkpt lat="45.08904" lon="2.71481">
        <ele>1507.8000488281</ele>
        <time>2020-08-03T12:04:03.000Z</time>
      </trkpt>
      <trkpt lat="45.08905" lon="2.71483">
        <ele>1507.1999511719</ele>
        <time>2020-08-03T12:04:04.000Z</time>
      </trkpt>
      <trkpt lat="45.0891" lon="2.71494">
        <ele>1506.1999511719</ele>
        <time>2020-08-03T12:04:11.000Z</time>
      </trkpt>
      <trkpt lat="45.08911" lon="2.71495">
        <ele>1506.1999511719</ele>
        <time>2020-08-03T12:04:12.000Z</time>
      </trkpt>
      <trkpt lat="45.08914" lon="2.71504">
        <ele>1505.8000488281</ele>
        <time>2020-08-03T12:04:17.000Z</time>
      </trkpt>
      <trkpt lat="45.08917" lon="2.71506">
        <ele>1505.1999511719</ele>
        <time>2020-08-03T12:04:19.000Z</time>
      </trkpt>
      <trkpt lat="45.08921" lon="2.71511">
        <ele>1504</ele>
        <time>2020-08-03T12:04:23.000Z</time>
      </trkpt>
      <trkpt lat="45.08922" lon="2.71512">
        <ele>1503.5999755859</ele>
        <time>2020-08-03T12:04:24.000Z</time>
      </trkpt>
      <trkpt lat="45.08931" lon="2.71521">
        <ele>1503.8000488281</ele>
        <time>2020-08-03T12:04:32.000Z</time>
      </trkpt>
      <trkpt lat="45.08936" lon="2.71532">
        <ele>1504.1999511719</ele>
        <time>2020-08-03T12:04:39.000Z</time>
      </trkpt>
      <trkpt lat="45.08943" lon="2.71539">
        <ele>1503.5999755859</ele>
        <time>2020-08-03T12:04:45.000Z</time>
      </trkpt>
      <trkpt lat="45.0895" lon="2.71544">
        <ele>1503.8000488281</ele>
        <time>2020-08-03T12:04:51.000Z</time>
      </trkpt>
      <trkpt lat="45.08955" lon="2.71551">
        <ele>1504.1999511719</ele>
        <time>2020-08-03T12:04:56.000Z</time>
      </trkpt>
      <trkpt lat="45.08961" lon="2.71558">
        <ele>1504.4000244141</ele>
        <time>2020-08-03T12:05:03.000Z</time>
      </trkpt>
      <trkpt lat="45.08967" lon="2.71563">
        <ele>1504.4000244141</ele>
        <time>2020-08-03T12:05:10.000Z</time>
      </trkpt>
      <trkpt lat="45.08972" lon="2.71572">
        <ele>1505</ele>
        <time>2020-08-03T12:05:18.000Z</time>
      </trkpt>
      <trkpt lat="45.08973" lon="2.71573">
        <ele>1505.1999511719</ele>
        <time>2020-08-03T12:05:19.000Z</time>
      </trkpt>
      <trkpt lat="45.08974" lon="2.71574">
        <ele>1505.1999511719</ele>
        <time>2020-08-03T12:05:20.000Z</time>
      </trkpt>
      <trkpt lat="45.0898" lon="2.7158">
        <ele>1505.4000244141</ele>
        <time>2020-08-03T12:05:27.000Z</time>
      </trkpt>
      <trkpt lat="45.08987" lon="2.7159">
        <ele>1504.5999755859</ele>
        <time>2020-08-03T12:05:36.000Z</time>
      </trkpt>
      <trkpt lat="45.08994" lon="2.71597">
        <ele>1505</ele>
        <time>2020-08-03T12:05:44.000Z</time>
      </trkpt>
      <trkpt lat="45.08999" lon="2.71606">
        <ele>1504.1999511719</ele>
        <time>2020-08-03T12:05:52.000Z</time>
      </trkpt>
      <trkpt lat="45.09001" lon="2.71607">
        <ele>1504</ele>
        <time>2020-08-03T12:05:53.000Z</time>
      </trkpt>
      <trkpt lat="45.09005" lon="2.71612">
        <ele>1504</ele>
        <time>2020-08-03T12:05:58.000Z</time>
      </trkpt>
      <trkpt lat="45.09013" lon="2.71621">
        <ele>1504</ele>
        <time>2020-08-03T12:06:07.000Z</time>
      </trkpt>
      <trkpt lat="45.09018" lon="2.71633">
        <ele>1503.5999755859</ele>
        <time>2020-08-03T12:06:15.000Z</time>
      </trkpt>
      <trkpt lat="45.09022" lon="2.7164">
        <ele>1503.1999511719</ele>
        <time>2020-08-03T12:06:21.000Z</time>
      </trkpt>
      <trkpt lat="45.09026" lon="2.71649">
        <ele>1503.8000488281</ele>
        <time>2020-08-03T12:06:28.000Z</time>
      </trkpt>
      <trkpt lat="45.09031" lon="2.71654">
        <ele>1504.1999511719</ele>
        <time>2020-08-03T12:06:35.000Z</time>
      </trkpt>
      <trkpt lat="45.09037" lon="2.71659">
        <ele>1504.5999755859</ele>
        <time>2020-08-03T12:06:41.000Z</time>
      </trkpt>
      <trkpt lat="45.09041" lon="2.71665">
        <ele>1505.1999511719</ele>
        <time>2020-08-03T12:06:48.000Z</time>
      </trkpt>
      <trkpt lat="45.09042" lon="2.71666">
        <ele>1505.1999511719</ele>
        <time>2020-08-03T12:06:49.000Z</time>
      </trkpt>
      <trkpt lat="45.09046" lon="2.71669">
        <ele>1506.4000244141</ele>
        <time>2020-08-03T12:06:54.000Z</time>
      </trkpt>
      <trkpt lat="45.09049" lon="2.71672">
        <ele>1507.1999511719</ele>
        <time>2020-08-03T12:06:57.000Z</time>
      </trkpt>
      <trkpt lat="45.09057" lon="2.71675">
        <ele>1507.1999511719</ele>
        <time>2020-08-03T12:07:05.000Z</time>
      </trkpt>
      <trkpt lat="45.09063" lon="2.71681">
        <ele>1506.5999755859</ele>
        <time>2020-08-03T12:07:11.000Z</time>
      </trkpt>
      <trkpt lat="45.09063" lon="2.71683">
        <ele>1506.1999511719</ele>
        <time>2020-08-03T12:07:12.000Z</time>
      </trkpt>
      <trkpt lat="45.09063" lon="2.71687">
        <ele>1505.8000488281</ele>
        <time>2020-08-03T12:07:18.000Z</time>
      </trkpt>
      <trkpt lat="45.09063" lon="2.71687">
        <ele>1505</ele>
        <time>2020-08-03T12:07:20.000Z</time>
      </trkpt>
      <trkpt lat="45.09064" lon="2.71688">
        <ele>1505</ele>
        <time>2020-08-03T12:07:25.000Z</time>
      </trkpt>
      <trkpt lat="45.09065" lon="2.7169">
        <ele>1504.8000488281</ele>
        <time>2020-08-03T12:07:31.000Z</time>
      </trkpt>
      <trkpt lat="45.09067" lon="2.71693">
        <ele>1504.5999755859</ele>
        <time>2020-08-03T12:07:34.000Z</time>
      </trkpt>
      <trkpt lat="45.09068" lon="2.71698">
        <ele>1504.5999755859</ele>
        <time>2020-08-03T12:07:38.000Z</time>
      </trkpt>
      <trkpt lat="45.09069" lon="2.71702">
        <ele>1504</ele>
        <time>2020-08-03T12:07:41.000Z</time>
      </trkpt>
      <trkpt lat="45.0907" lon="2.71705">
        <ele>1503.5999755859</ele>
        <time>2020-08-03T12:07:44.000Z</time>
      </trkpt>
      <trkpt lat="45.09069" lon="2.71707">
        <ele>1503.1999511719</ele>
        <time>2020-08-03T12:07:46.000Z</time>
      </trkpt>
      <trkpt lat="45.09069" lon="2.71709">
        <ele>1503</ele>
        <time>2020-08-03T12:07:48.000Z</time>
      </trkpt>
      <trkpt lat="45.09068" lon="2.71714">
        <ele>1501.5999755859</ele>
        <time>2020-08-03T12:07:53.000Z</time>
      </trkpt>
      <trkpt lat="45.09068" lon="2.71718">
        <ele>1501</ele>
        <time>2020-08-03T12:07:58.000Z</time>
      </trkpt>
      <trkpt lat="45.09069" lon="2.71718">
        <ele>1500.8000488281</ele>
        <time>2020-08-03T12:07:59.000Z</time>
      </trkpt>
      <trkpt lat="45.0907" lon="2.71718">
        <ele>1500.5999755859</ele>
        <time>2020-08-03T12:08:00.000Z</time>
      </trkpt>
      <trkpt lat="45.09072" lon="2.7172">
        <ele>1499.4000244141</ele>
        <time>2020-08-03T12:08:03.000Z</time>
      </trkpt>
      <trkpt lat="45.09074" lon="2.7172">
        <ele>1498.5999755859</ele>
        <time>2020-08-03T12:08:06.000Z</time>
      </trkpt>
      <trkpt lat="45.09075" lon="2.7172">
        <ele>1498.4000244141</ele>
        <time>2020-08-03T12:08:07.000Z</time>
      </trkpt>
      <trkpt lat="45.09081" lon="2.71722">
        <ele>1497.1999511719</ele>
        <time>2020-08-03T12:08:12.000Z</time>
      </trkpt>
      <trkpt lat="45.09083" lon="2.71722">
        <ele>1497.1999511719</ele>
        <time>2020-08-03T12:08:14.000Z</time>
      </trkpt>
      <trkpt lat="45.0909" lon="2.71717">
        <ele>1497.4000244141</ele>
        <time>2020-08-03T12:08:22.000Z</time>
      </trkpt>
      <trkpt lat="45.09092" lon="2.71714">
        <ele>1497.5999755859</ele>
        <time>2020-08-03T12:08:26.000Z</time>
      </trkpt>
      <trkpt lat="45.09093" lon="2.71713">
        <ele>1498</ele>
        <time>2020-08-03T12:08:28.000Z</time>
      </trkpt>
      <trkpt lat="45.09094" lon="2.71712">
        <ele>1498.4000244141</ele>
        <time>2020-08-03T12:08:29.000Z</time>
      </trkpt>
      <trkpt lat="45.09095" lon="2.71712">
        <ele>1498.8000488281</ele>
        <time>2020-08-03T12:08:31.000Z</time>
      </trkpt>
      <trkpt lat="45.09099" lon="2.71712">
        <ele>1499.4000244141</ele>
        <time>2020-08-03T12:08:35.000Z</time>
      </trkpt>
      <trkpt lat="45.09099" lon="2.71711">
        <ele>1499.5999755859</ele>
        <time>2020-08-03T12:08:36.000Z</time>
      </trkpt>
      <trkpt lat="45.09105" lon="2.71709">
        <ele>1500.5999755859</ele>
        <time>2020-08-03T12:08:42.000Z</time>
      </trkpt>
      <trkpt lat="45.09106" lon="2.71709">
        <ele>1500.8000488281</ele>
        <time>2020-08-03T12:08:43.000Z</time>
      </trkpt>
      <trkpt lat="45.09107" lon="2.71709">
        <ele>1500.8000488281</ele>
        <time>2020-08-03T12:08:47.000Z</time>
      </trkpt>
      <trkpt lat="45.09107" lon="2.71709">
        <ele>1500.8000488281</ele>
        <time>2020-08-03T12:08:50.000Z</time>
      </trkpt>
      <trkpt lat="45.09109" lon="2.71708">
        <ele>1501.1999511719</ele>
        <time>2020-08-03T12:08:58.000Z</time>
      </trkpt>
      <trkpt lat="45.09109" lon="2.71706">
        <ele>1500.5999755859</ele>
        <time>2020-08-03T12:09:06.000Z</time>
      </trkpt>
      <trkpt lat="45.0911" lon="2.71705">
        <ele>1501</ele>
        <time>2020-08-03T12:09:16.000Z</time>
      </trkpt>
      <trkpt lat="45.0911" lon="2.71706">
        <ele>1500.5999755859</ele>
        <time>2020-08-03T12:09:28.000Z</time>
      </trkpt>
      <trkpt lat="45.09108" lon="2.71707">
        <ele>1501.5999755859</ele>
        <time>2020-08-03T12:09:35.000Z</time>
      </trkpt>
      <trkpt lat="45.09108" lon="2.71707">
        <ele>1501.8000488281</ele>
        <time>2020-08-03T12:09:37.000Z</time>
      </trkpt>
      <trkpt lat="45.09107" lon="2.71709">
        <ele>1501.1999511719</ele>
        <time>2020-08-03T12:09:47.000Z</time>
      </trkpt>
      <trkpt lat="45.09107" lon="2.71709">
        <ele>1500</ele>
        <time>2020-08-03T12:09:48.000Z</time>
      </trkpt>
      <trkpt lat="45.09109" lon="2.71708">
        <ele>1500</ele>
        <time>2020-08-03T12:09:58.000Z</time>
      </trkpt>
      <trkpt lat="45.0911" lon="2.71708">
        <ele>1500</ele>
        <time>2020-08-03T12:10:06.000Z</time>
      </trkpt>
      <trkpt lat="45.09111" lon="2.71708">
        <ele>1500</ele>
        <time>2020-08-03T12:10:09.000Z</time>
      </trkpt>
      <trkpt lat="45.09113" lon="2.71708">
        <ele>1500</ele>
        <time>2020-08-03T12:10:11.000Z</time>
      </trkpt>
      <trkpt lat="45.09119" lon="2.71708">
        <ele>1501</ele>
        <time>2020-08-03T12:10:18.000Z</time>
      </trkpt>
      <trkpt lat="45.09121" lon="2.71709">
        <ele>1501.1999511719</ele>
        <time>2020-08-03T12:10:19.000Z</time>
      </trkpt>
      <trkpt lat="45.09122" lon="2.71708">
        <ele>1501.5999755859</ele>
        <time>2020-08-03T12:10:21.000Z</time>
      </trkpt>
      <trkpt lat="45.09123" lon="2.71707">
        <ele>1502.1999511719</ele>
        <time>2020-08-03T12:10:23.000Z</time>
      </trkpt>
      <trkpt lat="45.09123" lon="2.71706">
        <ele>1502.5999755859</ele>
        <time>2020-08-03T12:10:24.000Z</time>
      </trkpt>
      <trkpt lat="45.09124" lon="2.71706">
        <ele>1503.1999511719</ele>
        <time>2020-08-03T12:10:26.000Z</time>
      </trkpt>
      <trkpt lat="45.09125" lon="2.71706">
        <ele>1503.4000244141</ele>
        <time>2020-08-03T12:10:27.000Z</time>
      </trkpt>
      <trkpt lat="45.09128" lon="2.71706">
        <ele>1503.8000488281</ele>
        <time>2020-08-03T12:10:30.000Z</time>
      </trkpt>
      <trkpt lat="45.09135" lon="2.71709">
        <ele>1503.5999755859</ele>
        <time>2020-08-03T12:10:37.000Z</time>
      </trkpt>
      <trkpt lat="45.09137" lon="2.71709">
        <ele>1504.4000244141</ele>
        <time>2020-08-03T12:10:39.000Z</time>
      </trkpt>
      <trkpt lat="45.0914" lon="2.71708">
        <ele>1505</ele>
        <time>2020-08-03T12:10:44.000Z</time>
      </trkpt>
      <trkpt lat="45.09141" lon="2.71708">
        <ele>1505</ele>
        <time>2020-08-03T12:10:48.000Z</time>
      </trkpt>
      <trkpt lat="45.09144" lon="2.71707">
        <ele>1505.1999511719</ele>
        <time>2020-08-03T12:10:51.000Z</time>
      </trkpt>
      <trkpt lat="45.09146" lon="2.71707">
        <ele>1505.5999755859</ele>
        <time>2020-08-03T12:10:53.000Z</time>
      </trkpt>
      <trkpt lat="45.09153" lon="2.71705">
        <ele>1506</ele>
        <time>2020-08-03T12:10:59.000Z</time>
      </trkpt>
      <trkpt lat="45.0916" lon="2.71702">
        <ele>1506.5999755859</ele>
        <time>2020-08-03T12:11:06.000Z</time>
      </trkpt>
      <trkpt lat="45.09161" lon="2.71702">
        <ele>1506.5999755859</ele>
        <time>2020-08-03T12:11:07.000Z</time>
      </trkpt>
      <trkpt lat="45.09168" lon="2.71702">
        <ele>1506.8000488281</ele>
        <time>2020-08-03T12:11:13.000Z</time>
      </trkpt>
      <trkpt lat="45.09169" lon="2.71702">
        <ele>1507</ele>
        <time>2020-08-03T12:11:15.000Z</time>
      </trkpt>
      <trkpt lat="45.09174" lon="2.71702">
        <ele>1507.5999755859</ele>
        <time>2020-08-03T12:11:19.000Z</time>
      </trkpt>
      <trkpt lat="45.09175" lon="2.71702">
        <ele>1507.5999755859</ele>
        <time>2020-08-03T12:11:20.000Z</time>
      </trkpt>
      <trkpt lat="45.09181" lon="2.71698">
        <ele>1508.4000244141</ele>
        <time>2020-08-03T12:11:28.000Z</time>
      </trkpt>
      <trkpt lat="45.09187" lon="2.71696">
        <ele>1507.8000488281</ele>
        <time>2020-08-03T12:11:35.000Z</time>
      </trkpt>
      <trkpt lat="45.09187" lon="2.71696">
        <ele>1508.5999755859</ele>
        <time>2020-08-03T12:11:40.000Z</time>
      </trkpt>
      <trkpt lat="45.09188" lon="2.71695">
        <ele>1508.8000488281</ele>
        <time>2020-08-03T12:11:47.000Z</time>
      </trkpt>
      <trkpt lat="45.09189" lon="2.71694">
        <ele>1509.4000244141</ele>
        <time>2020-08-03T12:11:56.000Z</time>
      </trkpt>
      <trkpt lat="45.0919" lon="2.71693">
        <ele>1509.1999511719</ele>
        <time>2020-08-03T12:11:59.000Z</time>
      </trkpt>
      <trkpt lat="45.09192" lon="2.71691">
        <ele>1508.8000488281</ele>
        <time>2020-08-03T12:12:02.000Z</time>
      </trkpt>
      <trkpt lat="45.09199" lon="2.71686">
        <ele>1509.1999511719</ele>
        <time>2020-08-03T12:12:09.000Z</time>
      </trkpt>
      <trkpt lat="45.09207" lon="2.71682">
        <ele>1509.8000488281</ele>
        <time>2020-08-03T12:12:16.000Z</time>
      </trkpt>
      <trkpt lat="45.09213" lon="2.71682">
        <ele>1510</ele>
        <time>2020-08-03T12:12:23.000Z</time>
      </trkpt>
      <trkpt lat="45.09215" lon="2.7168">
        <ele>1509.8000488281</ele>
        <time>2020-08-03T12:12:30.000Z</time>
      </trkpt>
      <trkpt lat="45.09218" lon="2.71679">
        <ele>1510.1999511719</ele>
        <time>2020-08-03T12:12:39.000Z</time>
      </trkpt>
      <trkpt lat="45.09227" lon="2.71677">
        <ele>1509.5999755859</ele>
        <time>2020-08-03T12:12:46.000Z</time>
      </trkpt>
      <trkpt lat="45.09234" lon="2.71673">
        <ele>1510.5999755859</ele>
        <time>2020-08-03T12:12:53.000Z</time>
      </trkpt>
      <trkpt lat="45.09235" lon="2.71672">
        <ele>1511</ele>
        <time>2020-08-03T12:12:57.000Z</time>
      </trkpt>
      <trkpt lat="45.09235" lon="2.71671">
        <ele>1512.1999511719</ele>
        <time>2020-08-03T12:12:59.000Z</time>
      </trkpt>
      <trkpt lat="45.09236" lon="2.71671">
        <ele>1512.4000244141</ele>
        <time>2020-08-03T12:13:03.000Z</time>
      </trkpt>
      <trkpt lat="45.09239" lon="2.71671">
        <ele>1511.4000244141</ele>
        <time>2020-08-03T12:13:06.000Z</time>
      </trkpt>
      <trkpt lat="45.09242" lon="2.71673">
        <ele>1511</ele>
        <time>2020-08-03T12:13:08.000Z</time>
      </trkpt>
      <trkpt lat="45.09247" lon="2.71675">
        <ele>1512</ele>
        <time>2020-08-03T12:13:14.000Z</time>
      </trkpt>
      <trkpt lat="45.09247" lon="2.71675">
        <ele>1512.1999511719</ele>
        <time>2020-08-03T12:13:15.000Z</time>
      </trkpt>
      <trkpt lat="45.09247" lon="2.71675">
        <ele>1513.8000488281</ele>
        <time>2020-08-03T12:13:18.000Z</time>
      </trkpt>
      <trkpt lat="45.09248" lon="2.71675">
        <ele>1514.4000244141</ele>
        <time>2020-08-03T12:13:25.000Z</time>
      </trkpt>
      <trkpt lat="45.09254" lon="2.71675">
        <ele>1515.4000244141</ele>
        <time>2020-08-03T12:13:32.000Z</time>
      </trkpt>
      <trkpt lat="45.09254" lon="2.71676">
        <ele>1517</ele>
        <time>2020-08-03T12:13:34.000Z</time>
      </trkpt>
      <trkpt lat="45.09255" lon="2.71676">
        <ele>1517.5999755859</ele>
        <time>2020-08-03T12:13:37.000Z</time>
      </trkpt>
      <trkpt lat="45.09256" lon="2.71677">
        <ele>1517</ele>
        <time>2020-08-03T12:13:38.000Z</time>
      </trkpt>
      <trkpt lat="45.09257" lon="2.71677">
        <ele>1515.1999511719</ele>
        <time>2020-08-03T12:13:39.000Z</time>
      </trkpt>
      <trkpt lat="45.09258" lon="2.71677">
        <ele>1513.5999755859</ele>
        <time>2020-08-03T12:13:40.000Z</time>
      </trkpt>
      <trkpt lat="45.0926" lon="2.71678">
        <ele>1512.4000244141</ele>
        <time>2020-08-03T12:13:42.000Z</time>
      </trkpt>
      <trkpt lat="45.09263" lon="2.71678">
        <ele>1512.4000244141</ele>
        <time>2020-08-03T12:13:45.000Z</time>
      </trkpt>
      <trkpt lat="45.0927" lon="2.71679">
        <ele>1513</ele>
        <time>2020-08-03T12:13:52.000Z</time>
      </trkpt>
      <trkpt lat="45.09271" lon="2.71679">
        <ele>1513.4000244141</ele>
        <time>2020-08-03T12:13:53.000Z</time>
      </trkpt>
      <trkpt lat="45.09272" lon="2.71679">
        <ele>1514</ele>
        <time>2020-08-03T12:13:54.000Z</time>
      </trkpt>
      <trkpt lat="45.09275" lon="2.71679">
        <ele>1515.1999511719</ele>
        <time>2020-08-03T12:13:57.000Z</time>
      </trkpt>
      <trkpt lat="45.09279" lon="2.71681">
        <ele>1515.5999755859</ele>
        <time>2020-08-03T12:14:01.000Z</time>
      </trkpt>
      <trkpt lat="45.09286" lon="2.71682">
        <ele>1516.1999511719</ele>
        <time>2020-08-03T12:14:08.000Z</time>
      </trkpt>
      <trkpt lat="45.0929" lon="2.71684">
        <ele>1517.5999755859</ele>
        <time>2020-08-03T12:14:14.000Z</time>
      </trkpt>
      <trkpt lat="45.09292" lon="2.71684">
        <ele>1518.5999755859</ele>
        <time>2020-08-03T12:14:17.000Z</time>
      </trkpt>
      <trkpt lat="45.09292" lon="2.71683">
        <ele>1519</ele>
        <time>2020-08-03T12:14:18.000Z</time>
      </trkpt>
      <trkpt lat="45.09293" lon="2.71682">
        <ele>1520</ele>
        <time>2020-08-03T12:14:20.000Z</time>
      </trkpt>
      <trkpt lat="45.09293" lon="2.7168">
        <ele>1521.4000244141</ele>
        <time>2020-08-03T12:14:22.000Z</time>
      </trkpt>
      <trkpt lat="45.09294" lon="2.71679">
        <ele>1521.8000488281</ele>
        <time>2020-08-03T12:14:24.000Z</time>
      </trkpt>
      <trkpt lat="45.09295" lon="2.71681">
        <ele>1521.8000488281</ele>
        <time>2020-08-03T12:14:29.000Z</time>
      </trkpt>
      <trkpt lat="45.09295" lon="2.71681">
        <ele>1521.8000488281</ele>
        <time>2020-08-03T12:14:30.000Z</time>
      </trkpt>
      <trkpt lat="45.09296" lon="2.71681">
        <ele>1521.4000244141</ele>
        <time>2020-08-03T12:14:41.000Z</time>
      </trkpt>
      <trkpt lat="45.09296" lon="2.7168">
        <ele>1521.5999755859</ele>
        <time>2020-08-03T12:14:44.000Z</time>
      </trkpt>
      <trkpt lat="45.09296" lon="2.71678">
        <ele>1521.1999511719</ele>
        <time>2020-08-03T12:14:46.000Z</time>
      </trkpt>
      <trkpt lat="45.09298" lon="2.71677">
        <ele>1520.8000488281</ele>
        <time>2020-08-03T12:14:48.000Z</time>
      </trkpt>
      <trkpt lat="45.093" lon="2.71678">
        <ele>1520.1999511719</ele>
        <time>2020-08-03T12:14:50.000Z</time>
      </trkpt>
      <trkpt lat="45.09301" lon="2.71678">
        <ele>1520</ele>
        <time>2020-08-03T12:14:51.000Z</time>
      </trkpt>
      <trkpt lat="45.09303" lon="2.7168">
        <ele>1519.8000488281</ele>
        <time>2020-08-03T12:14:54.000Z</time>
      </trkpt>
      <trkpt lat="45.09305" lon="2.71685">
        <ele>1520.4000244141</ele>
        <time>2020-08-03T12:14:58.000Z</time>
      </trkpt>
      <trkpt lat="45.09311" lon="2.71689">
        <ele>1521</ele>
        <time>2020-08-03T12:15:06.000Z</time>
      </trkpt>
      <trkpt lat="45.09317" lon="2.71697">
        <ele>1521</ele>
        <time>2020-08-03T12:15:13.000Z</time>
      </trkpt>
      <trkpt lat="45.09319" lon="2.71699">
        <ele>1521.4000244141</ele>
        <time>2020-08-03T12:15:15.000Z</time>
      </trkpt>
      <trkpt lat="45.09324" lon="2.71703">
        <ele>1521.4000244141</ele>
        <time>2020-08-03T12:15:20.000Z</time>
      </trkpt>
      <trkpt lat="45.09333" lon="2.7171">
        <ele>1521.8000488281</ele>
        <time>2020-08-03T12:15:28.000Z</time>
      </trkpt>
      <trkpt lat="45.09342" lon="2.71714">
        <ele>1522.1999511719</ele>
        <time>2020-08-03T12:15:36.000Z</time>
      </trkpt>
      <trkpt lat="45.0935" lon="2.71719">
        <ele>1521.1999511719</ele>
        <time>2020-08-03T12:15:43.000Z</time>
      </trkpt>
      <trkpt lat="45.09358" lon="2.71721">
        <ele>1522.1999511719</ele>
        <time>2020-08-03T12:15:50.000Z</time>
      </trkpt>
      <trkpt lat="45.09365" lon="2.71722">
        <ele>1520.5999755859</ele>
        <time>2020-08-03T12:15:57.000Z</time>
      </trkpt>
      <trkpt lat="45.09367" lon="2.71723">
        <ele>1520.1999511719</ele>
        <time>2020-08-03T12:15:59.000Z</time>
      </trkpt>
      <trkpt lat="45.09368" lon="2.71723">
        <ele>1520.1999511719</ele>
        <time>2020-08-03T12:16:00.000Z</time>
      </trkpt>
      <trkpt lat="45.09376" lon="2.71725">
        <ele>1520.5999755859</ele>
        <time>2020-08-03T12:16:09.000Z</time>
      </trkpt>
      <trkpt lat="45.09383" lon="2.71727">
        <ele>1520.1999511719</ele>
        <time>2020-08-03T12:16:16.000Z</time>
      </trkpt>
      <trkpt lat="45.09391" lon="2.71731">
        <ele>1521.5999755859</ele>
        <time>2020-08-03T12:16:22.000Z</time>
      </trkpt>
      <trkpt lat="45.09393" lon="2.71733">
        <ele>1522.8000488281</ele>
        <time>2020-08-03T12:16:24.000Z</time>
      </trkpt>
      <trkpt lat="45.09398" lon="2.71738">
        <ele>1521.4000244141</ele>
        <time>2020-08-03T12:16:30.000Z</time>
      </trkpt>
      <trkpt lat="45.09403" lon="2.7174">
        <ele>1522.1999511719</ele>
        <time>2020-08-03T12:16:34.000Z</time>
      </trkpt>
      <trkpt lat="45.09404" lon="2.71741">
        <ele>1522.4000244141</ele>
        <time>2020-08-03T12:16:35.000Z</time>
      </trkpt>
      <trkpt lat="45.09413" lon="2.71744">
        <ele>1521.5999755859</ele>
        <time>2020-08-03T12:16:42.000Z</time>
      </trkpt>
      <trkpt lat="45.09423" lon="2.71747">
        <ele>1521.4000244141</ele>
        <time>2020-08-03T12:16:50.000Z</time>
      </trkpt>
      <trkpt lat="45.09433" lon="2.71749">
        <ele>1522.1999511719</ele>
        <time>2020-08-03T12:16:58.000Z</time>
      </trkpt>
      <trkpt lat="45.09438" lon="2.71749">
        <ele>1522.4000244141</ele>
        <time>2020-08-03T12:17:02.000Z</time>
      </trkpt>
      <trkpt lat="45.09449" lon="2.71752">
        <ele>1522</ele>
        <time>2020-08-03T12:17:11.000Z</time>
      </trkpt>
      <trkpt lat="45.09459" lon="2.71758">
        <ele>1522.1999511719</ele>
        <time>2020-08-03T12:17:20.000Z</time>
      </trkpt>
      <trkpt lat="45.09464" lon="2.71763">
        <ele>1522.1999511719</ele>
        <time>2020-08-03T12:17:27.000Z</time>
      </trkpt>
      <trkpt lat="45.09465" lon="2.71762">
        <ele>1522.4000244141</ele>
        <time>2020-08-03T12:17:32.000Z</time>
      </trkpt>
      <trkpt lat="45.09465" lon="2.71762">
        <ele>1522.4000244141</ele>
        <time>2020-08-03T12:17:42.000Z</time>
      </trkpt>
      <trkpt lat="45.09466" lon="2.71762">
        <ele>1522.4000244141</ele>
        <time>2020-08-03T12:17:48.000Z</time>
      </trkpt>
      <trkpt lat="45.09466" lon="2.71762">
        <ele>1522.4000244141</ele>
        <time>2020-08-03T12:17:55.000Z</time>
      </trkpt>
      <trkpt lat="45.09466" lon="2.71761">
        <ele>1522.4000244141</ele>
        <time>2020-08-03T12:18:02.000Z</time>
      </trkpt>
      <trkpt lat="45.09466" lon="2.71761">
        <ele>1522.4000244141</ele>
        <time>2020-08-03T12:18:13.000Z</time>
      </trkpt>
      <trkpt lat="45.09466" lon="2.71761">
        <ele>1522.4000244141</ele>
        <time>2020-08-03T12:18:22.000Z</time>
      </trkpt>
      <trkpt lat="45.09467" lon="2.71761">
        <ele>1522.4000244141</ele>
        <time>2020-08-03T12:18:29.000Z</time>
      </trkpt>
      <trkpt lat="45.09468" lon="2.71762">
        <ele>1522.4000244141</ele>
        <time>2020-08-03T12:18:30.000Z</time>
      </trkpt>
      <trkpt lat="45.09478" lon="2.71764">
        <ele>1522.5999755859</ele>
        <time>2020-08-03T12:18:37.000Z</time>
      </trkpt>
      <trkpt lat="45.09487" lon="2.71766">
        <ele>1523.4000244141</ele>
        <time>2020-08-03T12:18:44.000Z</time>
      </trkpt>
      <trkpt lat="45.09488" lon="2.71766">
        <ele>1523.4000244141</ele>
        <time>2020-08-03T12:18:45.000Z</time>
      </trkpt>
      <trkpt lat="45.09495" lon="2.71768">
        <ele>1524</ele>
        <time>2020-08-03T12:18:51.000Z</time>
      </trkpt>
      <trkpt lat="45.09507" lon="2.71769">
        <ele>1523.8000488281</ele>
        <time>2020-08-03T12:19:00.000Z</time>
      </trkpt>
      <trkpt lat="45.09517" lon="2.71769">
        <ele>1524</ele>
        <time>2020-08-03T12:19:08.000Z</time>
      </trkpt>
      <trkpt lat="45.09531" lon="2.71768">
        <ele>1523.5999755859</ele>
        <time>2020-08-03T12:19:18.000Z</time>
      </trkpt>
      <trkpt lat="45.09536" lon="2.71769">
        <ele>1524.4000244141</ele>
        <time>2020-08-03T12:19:22.000Z</time>
      </trkpt>
      <trkpt lat="45.09541" lon="2.71769">
        <ele>1524.5999755859</ele>
        <time>2020-08-03T12:19:26.000Z</time>
      </trkpt>
      <trkpt lat="45.09548" lon="2.71767">
        <ele>1525.4000244141</ele>
        <time>2020-08-03T12:19:33.000Z</time>
      </trkpt>
      <trkpt lat="45.09557" lon="2.71762">
        <ele>1524.8000488281</ele>
        <time>2020-08-03T12:19:42.000Z</time>
      </trkpt>
      <trkpt lat="45.0956" lon="2.71763">
        <ele>1524.1999511719</ele>
        <time>2020-08-03T12:19:45.000Z</time>
      </trkpt>
      <trkpt lat="45.09566" lon="2.71763">
        <ele>1523.4000244141</ele>
        <time>2020-08-03T12:19:50.000Z</time>
      </trkpt>
      <trkpt lat="45.09574" lon="2.71762">
        <ele>1524</ele>
        <time>2020-08-03T12:19:58.000Z</time>
      </trkpt>
      <trkpt lat="45.09581" lon="2.7176">
        <ele>1523.4000244141</ele>
        <time>2020-08-03T12:20:05.000Z</time>
      </trkpt>
      <trkpt lat="45.09582" lon="2.7176">
        <ele>1523.4000244141</ele>
        <time>2020-08-03T12:20:06.000Z</time>
      </trkpt>
      <trkpt lat="45.09589" lon="2.7176">
        <ele>1524</ele>
        <time>2020-08-03T12:20:13.000Z</time>
      </trkpt>
      <trkpt lat="45.09598" lon="2.71763">
        <ele>1523.5999755859</ele>
        <time>2020-08-03T12:20:21.000Z</time>
      </trkpt>
      <trkpt lat="45.09601" lon="2.71763">
        <ele>1523.1999511719</ele>
        <time>2020-08-03T12:20:24.000Z</time>
      </trkpt>
      <trkpt lat="45.09606" lon="2.71763">
        <ele>1522.8000488281</ele>
        <time>2020-08-03T12:20:29.000Z</time>
      </trkpt>
      <trkpt lat="45.09613" lon="2.71763">
        <ele>1522.8000488281</ele>
        <time>2020-08-03T12:20:36.000Z</time>
      </trkpt>
      <trkpt lat="45.09622" lon="2.71763">
        <ele>1523.8000488281</ele>
        <time>2020-08-03T12:20:44.000Z</time>
      </trkpt>
      <trkpt lat="45.09626" lon="2.71763">
        <ele>1524.1999511719</ele>
        <time>2020-08-03T12:20:48.000Z</time>
      </trkpt>
      <trkpt lat="45.09629" lon="2.71763">
        <ele>1524</ele>
        <time>2020-08-03T12:20:51.000Z</time>
      </trkpt>
      <trkpt lat="45.09638" lon="2.71761">
        <ele>1523.1999511719</ele>
        <time>2020-08-03T12:20:59.000Z</time>
      </trkpt>
      <trkpt lat="45.09643" lon="2.71759">
        <ele>1523.1999511719</ele>
        <time>2020-08-03T12:21:05.000Z</time>
      </trkpt>
      <trkpt lat="45.09647" lon="2.71756">
        <ele>1524.4000244141</ele>
        <time>2020-08-03T12:21:09.000Z</time>
      </trkpt>
      <trkpt lat="45.09649" lon="2.71756">
        <ele>1524.8000488281</ele>
        <time>2020-08-03T12:21:11.000Z</time>
      </trkpt>
      <trkpt lat="45.09651" lon="2.71755">
        <ele>1525.4000244141</ele>
        <time>2020-08-03T12:21:13.000Z</time>
      </trkpt>
      <trkpt lat="45.09653" lon="2.71754">
        <ele>1525.5999755859</ele>
        <time>2020-08-03T12:21:15.000Z</time>
      </trkpt>
      <trkpt lat="45.09658" lon="2.71753">
        <ele>1525</ele>
        <time>2020-08-03T12:21:20.000Z</time>
      </trkpt>
      <trkpt lat="45.09657" lon="2.71751">
        <ele>1525</ele>
        <time>2020-08-03T12:21:27.000Z</time>
      </trkpt>
      <trkpt lat="45.09658" lon="2.71751">
        <ele>1525.1999511719</ele>
        <time>2020-08-03T12:21:38.000Z</time>
      </trkpt>
      <trkpt lat="45.09659" lon="2.7175">
        <ele>1525</ele>
        <time>2020-08-03T12:21:42.000Z</time>
      </trkpt>
      <trkpt lat="45.09661" lon="2.7175">
        <ele>1525.5999755859</ele>
        <time>2020-08-03T12:21:45.000Z</time>
      </trkpt>
      <trkpt lat="45.09661" lon="2.71751">
        <ele>1526.1999511719</ele>
        <time>2020-08-03T12:21:50.000Z</time>
      </trkpt>
      <trkpt lat="45.09662" lon="2.7175">
        <ele>1526</ele>
        <time>2020-08-03T12:21:51.000Z</time>
      </trkpt>
      <trkpt lat="45.09667" lon="2.71749">
        <ele>1525.4000244141</ele>
        <time>2020-08-03T12:21:57.000Z</time>
      </trkpt>
      <trkpt lat="45.09669" lon="2.7175">
        <ele>1525.8000488281</ele>
        <time>2020-08-03T12:21:59.000Z</time>
      </trkpt>
      <trkpt lat="45.09672" lon="2.71749">
        <ele>1526.1999511719</ele>
        <time>2020-08-03T12:22:01.000Z</time>
      </trkpt>
      <trkpt lat="45.09674" lon="2.71747">
        <ele>1526.1999511719</ele>
        <time>2020-08-03T12:22:03.000Z</time>
      </trkpt>
      <trkpt lat="45.09681" lon="2.71743">
        <ele>1526</ele>
        <time>2020-08-03T12:22:11.000Z</time>
      </trkpt>
      <trkpt lat="45.09686" lon="2.71739">
        <ele>1526.5999755859</ele>
        <time>2020-08-03T12:22:15.000Z</time>
      </trkpt>
      <trkpt lat="45.09686" lon="2.71739">
        <ele>1526.8000488281</ele>
        <time>2020-08-03T12:22:17.000Z</time>
      </trkpt>
      <trkpt lat="45.0969" lon="2.71736">
        <ele>1525.5999755859</ele>
        <time>2020-08-03T12:22:25.000Z</time>
      </trkpt>
      <trkpt lat="45.09691" lon="2.71735">
        <ele>1525.5999755859</ele>
        <time>2020-08-03T12:22:26.000Z</time>
      </trkpt>
      <trkpt lat="45.09695" lon="2.71735">
        <ele>1526</ele>
        <time>2020-08-03T12:22:32.000Z</time>
      </trkpt>
      <trkpt lat="45.09695" lon="2.71734">
        <ele>1526.1999511719</ele>
        <time>2020-08-03T12:22:36.000Z</time>
      </trkpt>
      <trkpt lat="45.09698" lon="2.71733">
        <ele>1525.8000488281</ele>
        <time>2020-08-03T12:22:38.000Z</time>
      </trkpt>
      <trkpt lat="45.09709" lon="2.71725">
        <ele>1525.8000488281</ele>
        <time>2020-08-03T12:22:47.000Z</time>
      </trkpt>
      <trkpt lat="45.09717" lon="2.71719">
        <ele>1525.4000244141</ele>
        <time>2020-08-03T12:22:54.000Z</time>
      </trkpt>
      <trkpt lat="45.0972" lon="2.71719">
        <ele>1525.4000244141</ele>
        <time>2020-08-03T12:22:57.000Z</time>
      </trkpt>
      <trkpt lat="45.09722" lon="2.71717">
        <ele>1525.4000244141</ele>
        <time>2020-08-03T12:22:59.000Z</time>
      </trkpt>
      <trkpt lat="45.09728" lon="2.71711">
        <ele>1525.1999511719</ele>
        <time>2020-08-03T12:23:05.000Z</time>
      </trkpt>
      <trkpt lat="45.09736" lon="2.71708">
        <ele>1524.4000244141</ele>
        <time>2020-08-03T12:23:11.000Z</time>
      </trkpt>
      <trkpt lat="45.09746" lon="2.71704">
        <ele>1523.5999755859</ele>
        <time>2020-08-03T12:23:18.000Z</time>
      </trkpt>
      <trkpt lat="45.09749" lon="2.71703">
        <ele>1523.4000244141</ele>
        <time>2020-08-03T12:23:20.000Z</time>
      </trkpt>
      <trkpt lat="45.09754" lon="2.71703">
        <ele>1523.1999511719</ele>
        <time>2020-08-03T12:23:24.000Z</time>
      </trkpt>
      <trkpt lat="45.09755" lon="2.71704">
        <ele>1523.1999511719</ele>
        <time>2020-08-03T12:23:25.000Z</time>
      </trkpt>
      <trkpt lat="45.09764" lon="2.71703">
        <ele>1524</ele>
        <time>2020-08-03T12:23:32.000Z</time>
      </trkpt>
      <trkpt lat="45.09773" lon="2.717">
        <ele>1523.4000244141</ele>
        <time>2020-08-03T12:23:40.000Z</time>
      </trkpt>
      <trkpt lat="45.09783" lon="2.71696">
        <ele>1522.1999511719</ele>
        <time>2020-08-03T12:23:47.000Z</time>
      </trkpt>
      <trkpt lat="45.09784" lon="2.71696">
        <ele>1522.1999511719</ele>
        <time>2020-08-03T12:23:48.000Z</time>
      </trkpt>
      <trkpt lat="45.09791" lon="2.71695">
        <ele>1521.5999755859</ele>
        <time>2020-08-03T12:23:54.000Z</time>
      </trkpt>
      <trkpt lat="45.09796" lon="2.71694">
        <ele>1521.1999511719</ele>
        <time>2020-08-03T12:23:58.000Z</time>
      </trkpt>
      <trkpt lat="45.09799" lon="2.71694">
        <ele>1521.4000244141</ele>
        <time>2020-08-03T12:24:01.000Z</time>
      </trkpt>
      <trkpt lat="45.09804" lon="2.71691">
        <ele>1521</ele>
        <time>2020-08-03T12:24:08.000Z</time>
      </trkpt>
      <trkpt lat="45.09807" lon="2.71691">
        <ele>1520.8000488281</ele>
        <time>2020-08-03T12:24:11.000Z</time>
      </trkpt>
      <trkpt lat="45.09811" lon="2.71692">
        <ele>1520</ele>
        <time>2020-08-03T12:24:14.000Z</time>
      </trkpt>
      <trkpt lat="45.09818" lon="2.71691">
        <ele>1519.8000488281</ele>
        <time>2020-08-03T12:24:22.000Z</time>
      </trkpt>
      <trkpt lat="45.09825" lon="2.71688">
        <ele>1520.4000244141</ele>
        <time>2020-08-03T12:24:29.000Z</time>
      </trkpt>
      <trkpt lat="45.09829" lon="2.71688">
        <ele>1520.4000244141</ele>
        <time>2020-08-03T12:24:33.000Z</time>
      </trkpt>
      <trkpt lat="45.0983" lon="2.71688">
        <ele>1520.4000244141</ele>
        <time>2020-08-03T12:24:35.000Z</time>
      </trkpt>
      <trkpt lat="45.0983" lon="2.71685">
        <ele>1519.8000488281</ele>
        <time>2020-08-03T12:24:42.000Z</time>
      </trkpt>
      <trkpt lat="45.0983" lon="2.71684">
        <ele>1519.5999755859</ele>
        <time>2020-08-03T12:24:45.000Z</time>
      </trkpt>
      <trkpt lat="45.09833" lon="2.71683">
        <ele>1519.5999755859</ele>
        <time>2020-08-03T12:24:48.000Z</time>
      </trkpt>
      <trkpt lat="45.09839" lon="2.71681">
        <ele>1519</ele>
        <time>2020-08-03T12:24:53.000Z</time>
      </trkpt>
      <trkpt lat="45.0984" lon="2.7168">
        <ele>1518.5999755859</ele>
        <time>2020-08-03T12:24:55.000Z</time>
      </trkpt>
      <trkpt lat="45.09842" lon="2.7168">
        <ele>1518.1999511719</ele>
        <time>2020-08-03T12:25:00.000Z</time>
      </trkpt>
      <trkpt lat="45.09843" lon="2.7168">
        <ele>1518</ele>
        <time>2020-08-03T12:25:06.000Z</time>
      </trkpt>
      <trkpt lat="45.09846" lon="2.71679">
        <ele>1518.5999755859</ele>
        <time>2020-08-03T12:25:09.000Z</time>
      </trkpt>
      <trkpt lat="45.09851" lon="2.71675">
        <ele>1518.5999755859</ele>
        <time>2020-08-03T12:25:15.000Z</time>
      </trkpt>
      <trkpt lat="45.09852" lon="2.71675">
        <ele>1518.5999755859</ele>
        <time>2020-08-03T12:25:16.000Z</time>
      </trkpt>
      <trkpt lat="45.09855" lon="2.71674">
        <ele>1519.1999511719</ele>
        <time>2020-08-03T12:25:20.000Z</time>
      </trkpt>
      <trkpt lat="45.09862" lon="2.71671">
        <ele>1519.4000244141</ele>
        <time>2020-08-03T12:25:27.000Z</time>
      </trkpt>
      <trkpt lat="45.0987" lon="2.71665">
        <ele>1519.4000244141</ele>
        <time>2020-08-03T12:25:35.000Z</time>
      </trkpt>
      <trkpt lat="45.09871" lon="2.71665">
        <ele>1519.4000244141</ele>
        <time>2020-08-03T12:25:36.000Z</time>
      </trkpt>
      <trkpt lat="45.09875" lon="2.71666">
        <ele>1519.8000488281</ele>
        <time>2020-08-03T12:25:40.000Z</time>
      </trkpt>
      <trkpt lat="45.09876" lon="2.71666">
        <ele>1519.8000488281</ele>
        <time>2020-08-03T12:25:41.000Z</time>
      </trkpt>
      <trkpt lat="45.09883" lon="2.71662">
        <ele>1518.5999755859</ele>
        <time>2020-08-03T12:25:49.000Z</time>
      </trkpt>
      <trkpt lat="45.0989" lon="2.71661">
        <ele>1519.5999755859</ele>
        <time>2020-08-03T12:25:56.000Z</time>
      </trkpt>
      <trkpt lat="45.09893" lon="2.71661">
        <ele>1518.8000488281</ele>
        <time>2020-08-03T12:25:59.000Z</time>
      </trkpt>
      <trkpt lat="45.09895" lon="2.71663">
        <ele>1518.4000244141</ele>
        <time>2020-08-03T12:26:01.000Z</time>
      </trkpt>
      <trkpt lat="45.09895" lon="2.71663">
        <ele>1518.4000244141</ele>
        <time>2020-08-03T12:26:02.000Z</time>
      </trkpt>
      <trkpt lat="45.09898" lon="2.71662">
        <ele>1519.5999755859</ele>
        <time>2020-08-03T12:26:05.000Z</time>
      </trkpt>
      <trkpt lat="45.099" lon="2.71661">
        <ele>1520</ele>
        <time>2020-08-03T12:26:07.000Z</time>
      </trkpt>
      <trkpt lat="45.09901" lon="2.7166">
        <ele>1520.1999511719</ele>
        <time>2020-08-03T12:26:08.000Z</time>
      </trkpt>
      <trkpt lat="45.09908" lon="2.71659">
        <ele>1520.1999511719</ele>
        <time>2020-08-03T12:26:16.000Z</time>
      </trkpt>
      <trkpt lat="45.09914" lon="2.7166">
        <ele>1520.1999511719</ele>
        <time>2020-08-03T12:26:21.000Z</time>
      </trkpt>
      <trkpt lat="45.09915" lon="2.71659">
        <ele>1520.1999511719</ele>
        <time>2020-08-03T12:26:22.000Z</time>
      </trkpt>
      <trkpt lat="45.09921" lon="2.71656">
        <ele>1519.4000244141</ele>
        <time>2020-08-03T12:26:28.000Z</time>
      </trkpt>
      <trkpt lat="45.09922" lon="2.71656">
        <ele>1519</ele>
        <time>2020-08-03T12:26:29.000Z</time>
      </trkpt>
      <trkpt lat="45.0993" lon="2.71653">
        <ele>1518.5999755859</ele>
        <time>2020-08-03T12:26:36.000Z</time>
      </trkpt>
      <trkpt lat="45.09937" lon="2.71651">
        <ele>1518.1999511719</ele>
        <time>2020-08-03T12:26:43.000Z</time>
      </trkpt>
      <trkpt lat="45.09944" lon="2.71652">
        <ele>1518</ele>
        <time>2020-08-03T12:26:50.000Z</time>
      </trkpt>
      <trkpt lat="45.09945" lon="2.71652">
        <ele>1518</ele>
        <time>2020-08-03T12:26:51.000Z</time>
      </trkpt>
      <trkpt lat="45.09948" lon="2.71653">
        <ele>1517.8000488281</ele>
        <time>2020-08-03T12:26:53.000Z</time>
      </trkpt>
      <trkpt lat="45.09951" lon="2.71652">
        <ele>1517.8000488281</ele>
        <time>2020-08-03T12:26:56.000Z</time>
      </trkpt>
      <trkpt lat="45.09954" lon="2.71652">
        <ele>1518</ele>
        <time>2020-08-03T12:26:59.000Z</time>
      </trkpt>
      <trkpt lat="45.09956" lon="2.71649">
        <ele>1518.1999511719</ele>
        <time>2020-08-03T12:27:02.000Z</time>
      </trkpt>
      <trkpt lat="45.09958" lon="2.71648">
        <ele>1518.1999511719</ele>
        <time>2020-08-03T12:27:07.000Z</time>
      </trkpt>
      <trkpt lat="45.09959" lon="2.71648">
        <ele>1518</ele>
        <time>2020-08-03T12:27:17.000Z</time>
      </trkpt>
      <trkpt lat="45.0996" lon="2.71647">
        <ele>1518</ele>
        <time>2020-08-03T12:27:18.000Z</time>
      </trkpt>
      <trkpt lat="45.09964" lon="2.71647">
        <ele>1518</ele>
        <time>2020-08-03T12:27:23.000Z</time>
      </trkpt>
      <trkpt lat="45.09965" lon="2.71646">
        <ele>1517.8000488281</ele>
        <time>2020-08-03T12:27:24.000Z</time>
      </trkpt>
      <trkpt lat="45.09966" lon="2.71646">
        <ele>1517.5999755859</ele>
        <time>2020-08-03T12:27:26.000Z</time>
      </trkpt>
      <trkpt lat="45.09969" lon="2.71646">
        <ele>1517.5999755859</ele>
        <time>2020-08-03T12:27:29.000Z</time>
      </trkpt>
      <trkpt lat="45.09975" lon="2.71646">
        <ele>1517.4000244141</ele>
        <time>2020-08-03T12:27:36.000Z</time>
      </trkpt>
      <trkpt lat="45.09977" lon="2.71646">
        <ele>1517.1999511719</ele>
        <time>2020-08-03T12:27:38.000Z</time>
      </trkpt>
      <trkpt lat="45.0998" lon="2.71646">
        <ele>1516.8000488281</ele>
        <time>2020-08-03T12:27:41.000Z</time>
      </trkpt>
      <trkpt lat="45.09983" lon="2.71646">
        <ele>1516.4000244141</ele>
        <time>2020-08-03T12:27:44.000Z</time>
      </trkpt>
      <trkpt lat="45.09991" lon="2.71647">
        <ele>1516.4000244141</ele>
        <time>2020-08-03T12:27:51.000Z</time>
      </trkpt>
      <trkpt lat="45.09998" lon="2.71652">
        <ele>1516.1999511719</ele>
        <time>2020-08-03T12:28:00.000Z</time>
      </trkpt>
      <trkpt lat="45.10003" lon="2.71654">
        <ele>1515.8000488281</ele>
        <time>2020-08-03T12:28:06.000Z</time>
      </trkpt>
      <trkpt lat="45.10004" lon="2.71654">
        <ele>1515.8000488281</ele>
        <time>2020-08-03T12:28:07.000Z</time>
      </trkpt>
      <trkpt lat="45.10006" lon="2.71655">
        <ele>1515.5999755859</ele>
        <time>2020-08-03T12:28:10.000Z</time>
      </trkpt>
      <trkpt lat="45.10008" lon="2.71655">
        <ele>1515.4000244141</ele>
        <time>2020-08-03T12:28:13.000Z</time>
      </trkpt>
      <trkpt lat="45.10009" lon="2.71655">
        <ele>1515.4000244141</ele>
        <time>2020-08-03T12:28:14.000Z</time>
      </trkpt>
      <trkpt lat="45.10014" lon="2.71653">
        <ele>1514.8000488281</ele>
        <time>2020-08-03T12:28:21.000Z</time>
      </trkpt>
      <trkpt lat="45.10016" lon="2.71653">
        <ele>1514.5999755859</ele>
        <time>2020-08-03T12:28:23.000Z</time>
      </trkpt>
      <trkpt lat="45.10021" lon="2.71655">
        <ele>1513.5999755859</ele>
        <time>2020-08-03T12:28:28.000Z</time>
      </trkpt>
      <trkpt lat="45.10028" lon="2.71656">
        <ele>1513.1999511719</ele>
        <time>2020-08-03T12:28:35.000Z</time>
      </trkpt>
      <trkpt lat="45.10032" lon="2.71657">
        <ele>1512.8000488281</ele>
        <time>2020-08-03T12:28:39.000Z</time>
      </trkpt>
      <trkpt lat="45.10035" lon="2.71658">
        <ele>1512.8000488281</ele>
        <time>2020-08-03T12:28:42.000Z</time>
      </trkpt>
      <trkpt lat="45.10041" lon="2.71656">
        <ele>1512.5999755859</ele>
        <time>2020-08-03T12:28:48.000Z</time>
      </trkpt>
      <trkpt lat="45.10042" lon="2.71656">
        <ele>1512.4000244141</ele>
        <time>2020-08-03T12:28:49.000Z</time>
      </trkpt>
      <trkpt lat="45.10049" lon="2.71659">
        <ele>1511.8000488281</ele>
        <time>2020-08-03T12:28:56.000Z</time>
      </trkpt>
      <trkpt lat="45.10054" lon="2.71659">
        <ele>1511.5999755859</ele>
        <time>2020-08-03T12:29:01.000Z</time>
      </trkpt>
      <trkpt lat="45.10055" lon="2.71659">
        <ele>1511.4000244141</ele>
        <time>2020-08-03T12:29:02.000Z</time>
      </trkpt>
      <trkpt lat="45.10057" lon="2.71661">
        <ele>1511.1999511719</ele>
        <time>2020-08-03T12:29:04.000Z</time>
      </trkpt>
      <trkpt lat="45.10062" lon="2.71665">
        <ele>1510.5999755859</ele>
        <time>2020-08-03T12:29:10.000Z</time>
      </trkpt>
      <trkpt lat="45.10063" lon="2.71665">
        <ele>1510.5999755859</ele>
        <time>2020-08-03T12:29:12.000Z</time>
      </trkpt>
      <trkpt lat="45.10072" lon="2.71667">
        <ele>1510.5999755859</ele>
        <time>2020-08-03T12:29:20.000Z</time>
      </trkpt>
      <trkpt lat="45.10074" lon="2.71667">
        <ele>1510.5999755859</ele>
        <time>2020-08-03T12:29:22.000Z</time>
      </trkpt>
      <trkpt lat="45.1008" lon="2.71667">
        <ele>1511</ele>
        <time>2020-08-03T12:29:28.000Z</time>
      </trkpt>
      <trkpt lat="45.10084" lon="2.71666">
        <ele>1511.1999511719</ele>
        <time>2020-08-03T12:29:33.000Z</time>
      </trkpt>
      <trkpt lat="45.10086" lon="2.71668">
        <ele>1511.4000244141</ele>
        <time>2020-08-03T12:29:35.000Z</time>
      </trkpt>
      <trkpt lat="45.10087" lon="2.71668">
        <ele>1511.5999755859</ele>
        <time>2020-08-03T12:29:36.000Z</time>
      </trkpt>
      <trkpt lat="45.10092" lon="2.71671">
        <ele>1511.5999755859</ele>
        <time>2020-08-03T12:29:43.000Z</time>
      </trkpt>
      <trkpt lat="45.10093" lon="2.71672">
        <ele>1511.4000244141</ele>
        <time>2020-08-03T12:29:49.000Z</time>
      </trkpt>
      <trkpt lat="45.10093" lon="2.71674">
        <ele>1510.8000488281</ele>
        <time>2020-08-03T12:29:59.000Z</time>
      </trkpt>
      <trkpt lat="45.10093" lon="2.71673">
        <ele>1510.5999755859</ele>
        <time>2020-08-03T12:30:04.000Z</time>
      </trkpt>
      <trkpt lat="45.10093" lon="2.71671">
        <ele>1510.5999755859</ele>
        <time>2020-08-03T12:30:05.000Z</time>
      </trkpt>
      <trkpt lat="45.10094" lon="2.71669">
        <ele>1510.4000244141</ele>
        <time>2020-08-03T12:30:06.000Z</time>
      </trkpt>
      <trkpt lat="45.10101" lon="2.71661">
        <ele>1510.4000244141</ele>
        <time>2020-08-03T12:30:13.000Z</time>
      </trkpt>
      <trkpt lat="45.10108" lon="2.71659">
        <ele>1510.4000244141</ele>
        <time>2020-08-03T12:30:20.000Z</time>
      </trkpt>
      <trkpt lat="45.10111" lon="2.71658">
        <ele>1510.1999511719</ele>
        <time>2020-08-03T12:30:23.000Z</time>
      </trkpt>
      <trkpt lat="45.10113" lon="2.71657">
        <ele>1510.1999511719</ele>
        <time>2020-08-03T12:30:25.000Z</time>
      </trkpt>
      <trkpt lat="45.10115" lon="2.71656">
        <ele>1510</ele>
        <time>2020-08-03T12:30:27.000Z</time>
      </trkpt>
      <trkpt lat="45.10124" lon="2.71655">
        <ele>1510.1999511719</ele>
        <time>2020-08-03T12:30:35.000Z</time>
      </trkpt>
      <trkpt lat="45.1013" lon="2.71651">
        <ele>1510</ele>
        <time>2020-08-03T12:30:42.000Z</time>
      </trkpt>
      <trkpt lat="45.10136" lon="2.71646">
        <ele>1509.8000488281</ele>
        <time>2020-08-03T12:30:49.000Z</time>
      </trkpt>
      <trkpt lat="45.10141" lon="2.71642">
        <ele>1510.1999511719</ele>
        <time>2020-08-03T12:30:55.000Z</time>
      </trkpt>
      <trkpt lat="45.10149" lon="2.71637">
        <ele>1510</ele>
        <time>2020-08-03T12:31:03.000Z</time>
      </trkpt>
      <trkpt lat="45.10156" lon="2.71634">
        <ele>1510.1999511719</ele>
        <time>2020-08-03T12:31:10.000Z</time>
      </trkpt>
      <trkpt lat="45.10163" lon="2.71632">
        <ele>1510.1999511719</ele>
        <time>2020-08-03T12:31:17.000Z</time>
      </trkpt>
      <trkpt lat="45.1017" lon="2.7163">
        <ele>1510.4000244141</ele>
        <time>2020-08-03T12:31:25.000Z</time>
      </trkpt>
      <trkpt lat="45.10177" lon="2.71628">
        <ele>1509.5999755859</ele>
        <time>2020-08-03T12:31:32.000Z</time>
      </trkpt>
      <trkpt lat="45.10178" lon="2.71628">
        <ele>1509.4000244141</ele>
        <time>2020-08-03T12:31:33.000Z</time>
      </trkpt>
      <trkpt lat="45.10181" lon="2.71631">
        <ele>1509.4000244141</ele>
        <time>2020-08-03T12:31:38.000Z</time>
      </trkpt>
      <trkpt lat="45.10184" lon="2.71631">
        <ele>1509.8000488281</ele>
        <time>2020-08-03T12:31:40.000Z</time>
      </trkpt>
      <trkpt lat="45.10191" lon="2.71629">
        <ele>1510</ele>
        <time>2020-08-03T12:31:47.000Z</time>
      </trkpt>
      <trkpt lat="45.10198" lon="2.71632">
        <ele>1510.5999755859</ele>
        <time>2020-08-03T12:31:53.000Z</time>
      </trkpt>
      <trkpt lat="45.102" lon="2.71632">
        <ele>1510.5999755859</ele>
        <time>2020-08-03T12:31:55.000Z</time>
      </trkpt>
      <trkpt lat="45.10206" lon="2.71631">
        <ele>1510.1999511719</ele>
        <time>2020-08-03T12:32:02.000Z</time>
      </trkpt>
      <trkpt lat="45.10216" lon="2.71632">
        <ele>1510</ele>
        <time>2020-08-03T12:32:11.000Z</time>
      </trkpt>
      <trkpt lat="45.10223" lon="2.71632">
        <ele>1509.4000244141</ele>
        <time>2020-08-03T12:32:18.000Z</time>
      </trkpt>
      <trkpt lat="45.10224" lon="2.71632">
        <ele>1509.4000244141</ele>
        <time>2020-08-03T12:32:19.000Z</time>
      </trkpt>
      <trkpt lat="45.1023" lon="2.71634">
        <ele>1508.8000488281</ele>
        <time>2020-08-03T12:32:25.000Z</time>
      </trkpt>
      <trkpt lat="45.10235" lon="2.71637">
        <ele>1508.4000244141</ele>
        <time>2020-08-03T12:32:30.000Z</time>
      </trkpt>
      <trkpt lat="45.10239" lon="2.71637">
        <ele>1508.4000244141</ele>
        <time>2020-08-03T12:32:34.000Z</time>
      </trkpt>
      <trkpt lat="45.10246" lon="2.71637">
        <ele>1508.8000488281</ele>
        <time>2020-08-03T12:32:41.000Z</time>
      </trkpt>
      <trkpt lat="45.1025" lon="2.71639">
        <ele>1509.5999755859</ele>
        <time>2020-08-03T12:32:45.000Z</time>
      </trkpt>
      <trkpt lat="45.10254" lon="2.7164">
        <ele>1509.5999755859</ele>
        <time>2020-08-03T12:32:49.000Z</time>
      </trkpt>
      <trkpt lat="45.10262" lon="2.71641">
        <ele>1509.4000244141</ele>
        <time>2020-08-03T12:32:57.000Z</time>
      </trkpt>
      <trkpt lat="45.1027" lon="2.71642">
        <ele>1509.1999511719</ele>
        <time>2020-08-03T12:33:04.000Z</time>
      </trkpt>
      <trkpt lat="45.10274" lon="2.71643">
        <ele>1509.5999755859</ele>
        <time>2020-08-03T12:33:09.000Z</time>
      </trkpt>
      <trkpt lat="45.10281" lon="2.71645">
        <ele>1509.1999511719</ele>
        <time>2020-08-03T12:33:15.000Z</time>
      </trkpt>
      <trkpt lat="45.10287" lon="2.71648">
        <ele>1508.5999755859</ele>
        <time>2020-08-03T12:33:21.000Z</time>
      </trkpt>
      <trkpt lat="45.10289" lon="2.71649">
        <ele>1508.5999755859</ele>
        <time>2020-08-03T12:33:23.000Z</time>
      </trkpt>
      <trkpt lat="45.10291" lon="2.71651">
        <ele>1508.5999755859</ele>
        <time>2020-08-03T12:33:25.000Z</time>
      </trkpt>
      <trkpt lat="45.10297" lon="2.71651">
        <ele>1508</ele>
        <time>2020-08-03T12:33:30.000Z</time>
      </trkpt>
      <trkpt lat="45.10302" lon="2.71652">
        <ele>1507.5999755859</ele>
        <time>2020-08-03T12:33:36.000Z</time>
      </trkpt>
      <trkpt lat="45.10303" lon="2.71653">
        <ele>1507.4000244141</ele>
        <time>2020-08-03T12:33:37.000Z</time>
      </trkpt>
      <trkpt lat="45.1031" lon="2.71659">
        <ele>1507.5999755859</ele>
        <time>2020-08-03T12:33:44.000Z</time>
      </trkpt>
      <trkpt lat="45.10316" lon="2.71667">
        <ele>1507.1999511719</ele>
        <time>2020-08-03T12:33:52.000Z</time>
      </trkpt>
      <trkpt lat="45.10322" lon="2.71677">
        <ele>1507.4000244141</ele>
        <time>2020-08-03T12:34:01.000Z</time>
      </trkpt>
      <trkpt lat="45.10327" lon="2.71688">
        <ele>1507.1999511719</ele>
        <time>2020-08-03T12:34:09.000Z</time>
      </trkpt>
      <trkpt lat="45.10329" lon="2.71696">
        <ele>1507</ele>
        <time>2020-08-03T12:34:15.000Z</time>
      </trkpt>
      <trkpt lat="45.10331" lon="2.71699">
        <ele>1506.4000244141</ele>
        <time>2020-08-03T12:34:20.000Z</time>
      </trkpt>
      <trkpt lat="45.10331" lon="2.71699">
        <ele>1506.4000244141</ele>
        <time>2020-08-03T12:34:21.000Z</time>
      </trkpt>
      <trkpt lat="45.10331" lon="2.71699">
        <ele>1506.8000488281</ele>
        <time>2020-08-03T12:34:29.000Z</time>
      </trkpt>
      <trkpt lat="45.1033" lon="2.71698">
        <ele>1507.5999755859</ele>
        <time>2020-08-03T12:34:35.000Z</time>
      </trkpt>
      <trkpt lat="45.1033" lon="2.71698">
        <ele>1507.4000244141</ele>
        <time>2020-08-03T12:34:36.000Z</time>
      </trkpt>
      <trkpt lat="45.1033" lon="2.71699">
        <ele>1506.5999755859</ele>
        <time>2020-08-03T12:34:43.000Z</time>
      </trkpt>
      <trkpt lat="45.1033" lon="2.71699">
        <ele>1506.1999511719</ele>
        <time>2020-08-03T12:34:45.000Z</time>
      </trkpt>
      <trkpt lat="45.1033" lon="2.71699">
        <ele>1506.8000488281</ele>
        <time>2020-08-03T12:34:56.000Z</time>
      </trkpt>
      <trkpt lat="45.1033" lon="2.71699">
        <ele>1507</ele>
        <time>2020-08-03T12:35:04.000Z</time>
      </trkpt>
      <trkpt lat="45.1033" lon="2.71698">
        <ele>1507</ele>
        <time>2020-08-03T12:35:10.000Z</time>
      </trkpt>
      <trkpt lat="45.10331" lon="2.717">
        <ele>1507</ele>
        <time>2020-08-03T12:35:15.000Z</time>
      </trkpt>
      <trkpt lat="45.1033" lon="2.717">
        <ele>1506</ele>
        <time>2020-08-03T12:35:26.000Z</time>
      </trkpt>
      <trkpt lat="45.1033" lon="2.717">
        <ele>1506</ele>
        <time>2020-08-03T12:35:33.000Z</time>
      </trkpt>
      <trkpt lat="45.10329" lon="2.71699">
        <ele>1506</ele>
        <time>2020-08-03T12:35:43.000Z</time>
      </trkpt>
      <trkpt lat="45.1033" lon="2.717">
        <ele>1506</ele>
        <time>2020-08-03T12:35:51.000Z</time>
      </trkpt>
      <trkpt lat="45.1033" lon="2.71699">
        <ele>1506</ele>
        <time>2020-08-03T12:36:01.000Z</time>
      </trkpt>
      <trkpt lat="45.1033" lon="2.71699">
        <ele>1506</ele>
        <time>2020-08-03T12:36:08.000Z</time>
      </trkpt>
      <trkpt lat="45.1033" lon="2.717">
        <ele>1506</ele>
        <time>2020-08-03T12:36:15.000Z</time>
      </trkpt>
      <trkpt lat="45.1033" lon="2.717">
        <ele>1506</ele>
        <time>2020-08-03T12:36:20.000Z</time>
      </trkpt>
      <trkpt lat="45.1033" lon="2.717">
        <ele>1506</ele>
        <time>2020-08-03T12:36:32.000Z</time>
      </trkpt>
      <trkpt lat="45.1033" lon="2.717">
        <ele>1506</ele>
        <time>2020-08-03T12:36:44.000Z</time>
      </trkpt>
      <trkpt lat="45.1033" lon="2.717">
        <ele>1506</ele>
        <time>2020-08-03T12:36:55.000Z</time>
      </trkpt>
      <trkpt lat="45.1033" lon="2.717">
        <ele>1506</ele>
        <time>2020-08-03T12:37:05.000Z</time>
      </trkpt>
      <trkpt lat="45.1033" lon="2.717">
        <ele>1506</ele>
        <time>2020-08-03T12:37:19.000Z</time>
      </trkpt>
      <trkpt lat="45.10329" lon="2.71699">
        <ele>1506</ele>
        <time>2020-08-03T12:37:28.000Z</time>
      </trkpt>
      <trkpt lat="45.1033" lon="2.71699">
        <ele>1506</ele>
        <time>2020-08-03T12:37:38.000Z</time>
      </trkpt>
      <trkpt lat="45.10331" lon="2.717">
        <ele>1506</ele>
        <time>2020-08-03T12:37:49.000Z</time>
      </trkpt>
      <trkpt lat="45.1033" lon="2.71699">
        <ele>1506</ele>
        <time>2020-08-03T12:37:57.000Z</time>
      </trkpt>
      <trkpt lat="45.10327" lon="2.71698">
        <ele>1506</ele>
        <time>2020-08-03T12:38:07.000Z</time>
      </trkpt>
      <trkpt lat="45.10328" lon="2.71697">
        <ele>1506</ele>
        <time>2020-08-03T12:38:16.000Z</time>
      </trkpt>
      <trkpt lat="45.10328" lon="2.71697">
        <ele>1506</ele>
        <time>2020-08-03T12:38:24.000Z</time>
      </trkpt>
      <trkpt lat="45.10327" lon="2.71698">
        <ele>1506</ele>
        <time>2020-08-03T12:38:34.000Z</time>
      </trkpt>
      <trkpt lat="45.10326" lon="2.71698">
        <ele>1506</ele>
        <time>2020-08-03T12:38:42.000Z</time>
      </trkpt>
      <trkpt lat="45.10325" lon="2.71697">
        <ele>1506</ele>
        <time>2020-08-03T12:38:50.000Z</time>
      </trkpt>
      <trkpt lat="45.10325" lon="2.71697">
        <ele>1506</ele>
        <time>2020-08-03T12:38:58.000Z</time>
      </trkpt>
      <trkpt lat="45.10326" lon="2.71695">
        <ele>1506</ele>
        <time>2020-08-03T12:39:07.000Z</time>
      </trkpt>
      <trkpt lat="45.10326" lon="2.71694">
        <ele>1506</ele>
        <time>2020-08-03T12:39:13.000Z</time>
      </trkpt>
      <trkpt lat="45.10326" lon="2.71694">
        <ele>1506</ele>
        <time>2020-08-03T12:39:17.000Z</time>
      </trkpt>
      <trkpt lat="45.10327" lon="2.7169">
        <ele>1506</ele>
        <time>2020-08-03T12:39:27.000Z</time>
      </trkpt>
      <trkpt lat="45.10326" lon="2.71697">
        <ele>1506</ele>
        <time>2020-08-03T12:39:33.000Z</time>
      </trkpt>
      <trkpt lat="45.10329" lon="2.71697">
        <ele>1506</ele>
        <time>2020-08-03T12:39:42.000Z</time>
      </trkpt>
      <trkpt lat="45.1033" lon="2.71697">
        <ele>1506</ele>
        <time>2020-08-03T12:39:51.000Z</time>
      </trkpt>
      <trkpt lat="45.10331" lon="2.71698">
        <ele>1506</ele>
        <time>2020-08-03T12:40:02.000Z</time>
      </trkpt>
      <trkpt lat="45.10331" lon="2.71698">
        <ele>1506</ele>
        <time>2020-08-03T12:40:05.000Z</time>
      </trkpt>
      <trkpt lat="45.10331" lon="2.71699">
        <ele>1508.8000488281</ele>
        <time>2020-08-03T12:47:52.000Z</time>
      </trkpt>
      <trkpt lat="45.10329" lon="2.71698">
        <ele>1508.5999755859</ele>
        <time>2020-08-03T12:47:55.000Z</time>
      </trkpt>
      <trkpt lat="45.10329" lon="2.71697">
        <ele>1508</ele>
        <time>2020-08-03T12:47:56.000Z</time>
      </trkpt>
      <trkpt lat="45.10328" lon="2.71696">
        <ele>1507.5999755859</ele>
        <time>2020-08-03T12:47:57.000Z</time>
      </trkpt>
      <trkpt lat="45.10328" lon="2.71691">
        <ele>1507.1999511719</ele>
        <time>2020-08-03T12:48:00.000Z</time>
      </trkpt>
      <trkpt lat="45.10325" lon="2.71681">
        <ele>1507.5999755859</ele>
        <time>2020-08-03T12:48:06.000Z</time>
      </trkpt>
      <trkpt lat="45.10319" lon="2.7167">
        <ele>1509</ele>
        <time>2020-08-03T12:48:14.000Z</time>
      </trkpt>
      <trkpt lat="45.10314" lon="2.71662">
        <ele>1508.5999755859</ele>
        <time>2020-08-03T12:48:20.000Z</time>
      </trkpt>
      <trkpt lat="45.10312" lon="2.71658">
        <ele>1508</ele>
        <time>2020-08-03T12:48:23.000Z</time>
      </trkpt>
      <trkpt lat="45.1031" lon="2.71654">
        <ele>1507.8000488281</ele>
        <time>2020-08-03T12:48:25.000Z</time>
      </trkpt>
      <trkpt lat="45.1031" lon="2.71652">
        <ele>1507.4000244141</ele>
        <time>2020-08-03T12:48:27.000Z</time>
      </trkpt>
      <trkpt lat="45.1031" lon="2.71651">
        <ele>1507.8000488281</ele>
        <time>2020-08-03T12:48:34.000Z</time>
      </trkpt>
      <trkpt lat="45.1031" lon="2.71651">
        <ele>1507.1999511719</ele>
        <time>2020-08-03T12:48:41.000Z</time>
      </trkpt>
      <trkpt lat="45.1031" lon="2.71651">
        <ele>1507</ele>
        <time>2020-08-03T12:48:43.000Z</time>
      </trkpt>
      <trkpt lat="45.1031" lon="2.71652">
        <ele>1506.5999755859</ele>
        <time>2020-08-03T12:48:51.000Z</time>
      </trkpt>
      <trkpt lat="45.1031" lon="2.71652">
        <ele>1506.4000244141</ele>
        <time>2020-08-03T12:49:03.000Z</time>
      </trkpt>
      <trkpt lat="45.1031" lon="2.71651">
        <ele>1506.4000244141</ele>
        <time>2020-08-03T12:49:12.000Z</time>
      </trkpt>
      <trkpt lat="45.1031" lon="2.71649">
        <ele>1506.4000244141</ele>
        <time>2020-08-03T12:49:13.000Z</time>
      </trkpt>
      <trkpt lat="45.10311" lon="2.71642">
        <ele>1506.4000244141</ele>
        <time>2020-08-03T12:49:18.000Z</time>
      </trkpt>
      <trkpt lat="45.10312" lon="2.71638">
        <ele>1507.4000244141</ele>
        <time>2020-08-03T12:49:25.000Z</time>
      </trkpt>
      <trkpt lat="45.10312" lon="2.71638">
        <ele>1507.8000488281</ele>
        <time>2020-08-03T12:49:32.000Z</time>
      </trkpt>
      <trkpt lat="45.10313" lon="2.71637">
        <ele>1507.1999511719</ele>
        <time>2020-08-03T12:49:42.000Z</time>
      </trkpt>
      <trkpt lat="45.10313" lon="2.71636">
        <ele>1507.5999755859</ele>
        <time>2020-08-03T12:49:52.000Z</time>
      </trkpt>
      <trkpt lat="45.10313" lon="2.71637">
        <ele>1506.8000488281</ele>
        <time>2020-08-03T12:50:02.000Z</time>
      </trkpt>
      <trkpt lat="45.10312" lon="2.71638">
        <ele>1507.4000244141</ele>
        <time>2020-08-03T12:50:08.000Z</time>
      </trkpt>
      <trkpt lat="45.10312" lon="2.71637">
        <ele>1507.5999755859</ele>
        <time>2020-08-03T12:50:16.000Z</time>
      </trkpt>
      <trkpt lat="45.10312" lon="2.71637">
        <ele>1506.8000488281</ele>
        <time>2020-08-03T12:50:24.000Z</time>
      </trkpt>
      <trkpt lat="45.10317" lon="2.71634">
        <ele>1507.5999755859</ele>
        <time>2020-08-03T12:50:30.000Z</time>
      </trkpt>
      <trkpt lat="45.10318" lon="2.71633">
        <ele>1508</ele>
        <time>2020-08-03T12:50:32.000Z</time>
      </trkpt>
      <trkpt lat="45.10319" lon="2.71633">
        <ele>1508.4000244141</ele>
        <time>2020-08-03T12:50:33.000Z</time>
      </trkpt>
      <trkpt lat="45.10322" lon="2.71631">
        <ele>1509</ele>
        <time>2020-08-03T12:50:37.000Z</time>
      </trkpt>
      <trkpt lat="45.10323" lon="2.7163">
        <ele>1509.8000488281</ele>
        <time>2020-08-03T12:50:39.000Z</time>
      </trkpt>
      <trkpt lat="45.10323" lon="2.7163">
        <ele>1510.1999511719</ele>
        <time>2020-08-03T12:50:40.000Z</time>
      </trkpt>
      <trkpt lat="45.10327" lon="2.71631">
        <ele>1511</ele>
        <time>2020-08-03T12:50:44.000Z</time>
      </trkpt>
      <trkpt lat="45.10328" lon="2.7163">
        <ele>1511.1999511719</ele>
        <time>2020-08-03T12:50:45.000Z</time>
      </trkpt>
      <trkpt lat="45.10329" lon="2.7163">
        <ele>1511.1999511719</ele>
        <time>2020-08-03T12:50:46.000Z</time>
      </trkpt>
      <trkpt lat="45.10334" lon="2.71628">
        <ele>1512.1999511719</ele>
        <time>2020-08-03T12:50:52.000Z</time>
      </trkpt>
      <trkpt lat="45.10335" lon="2.71627">
        <ele>1513</ele>
        <time>2020-08-03T12:50:54.000Z</time>
      </trkpt>
      <trkpt lat="45.10337" lon="2.71625">
        <ele>1513.4000244141</ele>
        <time>2020-08-03T12:50:56.000Z</time>
      </trkpt>
      <trkpt lat="45.10341" lon="2.71623">
        <ele>1513.8000488281</ele>
        <time>2020-08-03T12:51:00.000Z</time>
      </trkpt>
      <trkpt lat="45.10346" lon="2.71622">
        <ele>1514.4000244141</ele>
        <time>2020-08-03T12:51:04.000Z</time>
      </trkpt>
      <trkpt lat="45.1035" lon="2.71619">
        <ele>1514.1999511719</ele>
        <time>2020-08-03T12:51:08.000Z</time>
      </trkpt>
      <trkpt lat="45.10359" lon="2.71617">
        <ele>1514.1999511719</ele>
        <time>2020-08-03T12:51:17.000Z</time>
      </trkpt>
      <trkpt lat="45.10365" lon="2.71615">
        <ele>1514.4000244141</ele>
        <time>2020-08-03T12:51:21.000Z</time>
      </trkpt>
      <trkpt lat="45.10369" lon="2.71614">
        <ele>1514.8000488281</ele>
        <time>2020-08-03T12:51:25.000Z</time>
      </trkpt>
      <trkpt lat="45.10378" lon="2.71608">
        <ele>1514.1999511719</ele>
        <time>2020-08-03T12:51:32.000Z</time>
      </trkpt>
      <trkpt lat="45.10387" lon="2.71601">
        <ele>1513.5999755859</ele>
        <time>2020-08-03T12:51:40.000Z</time>
      </trkpt>
      <trkpt lat="45.1039" lon="2.71599">
        <ele>1513.4000244141</ele>
        <time>2020-08-03T12:51:43.000Z</time>
      </trkpt>
      <trkpt lat="45.10396" lon="2.71594">
        <ele>1513.1999511719</ele>
        <time>2020-08-03T12:51:49.000Z</time>
      </trkpt>
      <trkpt lat="45.10401" lon="2.7159">
        <ele>1513</ele>
        <time>2020-08-03T12:51:56.000Z</time>
      </trkpt>
      <trkpt lat="45.10401" lon="2.71592">
        <ele>1512.8000488281</ele>
        <time>2020-08-03T12:52:05.000Z</time>
      </trkpt>
      <trkpt lat="45.10401" lon="2.71591">
        <ele>1512.5999755859</ele>
        <time>2020-08-03T12:52:15.000Z</time>
      </trkpt>
      <trkpt lat="45.10401" lon="2.71591">
        <ele>1512.8000488281</ele>
        <time>2020-08-03T12:52:24.000Z</time>
      </trkpt>
      <trkpt lat="45.10402" lon="2.7159">
        <ele>1513</ele>
        <time>2020-08-03T12:52:27.000Z</time>
      </trkpt>
      <trkpt lat="45.10403" lon="2.71585">
        <ele>1512.8000488281</ele>
        <time>2020-08-03T12:52:30.000Z</time>
      </trkpt>
      <trkpt lat="45.10407" lon="2.71575">
        <ele>1512.5999755859</ele>
        <time>2020-08-03T12:52:37.000Z</time>
      </trkpt>
      <trkpt lat="45.1041" lon="2.71566">
        <ele>1512.8000488281</ele>
        <time>2020-08-03T12:52:46.000Z</time>
      </trkpt>
      <trkpt lat="45.10409" lon="2.71564">
        <ele>1513.5999755859</ele>
        <time>2020-08-03T12:52:58.000Z</time>
      </trkpt>
      <trkpt lat="45.10409" lon="2.71563">
        <ele>1513.5999755859</ele>
        <time>2020-08-03T12:52:59.000Z</time>
      </trkpt>
      <trkpt lat="45.10414" lon="2.71551">
        <ele>1514.4000244141</ele>
        <time>2020-08-03T12:53:07.000Z</time>
      </trkpt>
      <trkpt lat="45.10415" lon="2.7155">
        <ele>1514.4000244141</ele>
        <time>2020-08-03T12:53:08.000Z</time>
      </trkpt>
      <trkpt lat="45.10418" lon="2.71545">
        <ele>1514.8000488281</ele>
        <time>2020-08-03T12:53:13.000Z</time>
      </trkpt>
      <trkpt lat="45.10421" lon="2.71538">
        <ele>1515.4000244141</ele>
        <time>2020-08-03T12:53:18.000Z</time>
      </trkpt>
      <trkpt lat="45.10424" lon="2.71532">
        <ele>1516</ele>
        <time>2020-08-03T12:53:23.000Z</time>
      </trkpt>
      <trkpt lat="45.10427" lon="2.71522">
        <ele>1516.5999755859</ele>
        <time>2020-08-03T12:53:29.000Z</time>
      </trkpt>
      <trkpt lat="45.10427" lon="2.71518">
        <ele>1516.5999755859</ele>
        <time>2020-08-03T12:53:31.000Z</time>
      </trkpt>
      <trkpt lat="45.10432" lon="2.71501">
        <ele>1516.8000488281</ele>
        <time>2020-08-03T12:53:41.000Z</time>
      </trkpt>
      <trkpt lat="45.10435" lon="2.71489">
        <ele>1517.4000244141</ele>
        <time>2020-08-03T12:53:50.000Z</time>
      </trkpt>
      <trkpt lat="45.10436" lon="2.71487">
        <ele>1517.8000488281</ele>
        <time>2020-08-03T12:53:51.000Z</time>
      </trkpt>
      <trkpt lat="45.10439" lon="2.71476">
        <ele>1518.5999755859</ele>
        <time>2020-08-03T12:53:59.000Z</time>
      </trkpt>
      <trkpt lat="45.10439" lon="2.71475">
        <ele>1518.8000488281</ele>
        <time>2020-08-03T12:54:00.000Z</time>
      </trkpt>
      <trkpt lat="45.10441" lon="2.71464">
        <ele>1519.8000488281</ele>
        <time>2020-08-03T12:54:07.000Z</time>
      </trkpt>
      <trkpt lat="45.10441" lon="2.71459">
        <ele>1520</ele>
        <time>2020-08-03T12:54:11.000Z</time>
      </trkpt>
      <trkpt lat="45.10441" lon="2.71456">
        <ele>1520.4000244141</ele>
        <time>2020-08-03T12:54:14.000Z</time>
      </trkpt>
      <trkpt lat="45.10441" lon="2.71449">
        <ele>1521</ele>
        <time>2020-08-03T12:54:19.000Z</time>
      </trkpt>
      <trkpt lat="45.10441" lon="2.71448">
        <ele>1521.4000244141</ele>
        <time>2020-08-03T12:54:20.000Z</time>
      </trkpt>
      <trkpt lat="45.10442" lon="2.71446">
        <ele>1522</ele>
        <time>2020-08-03T12:54:23.000Z</time>
      </trkpt>
      <trkpt lat="45.10443" lon="2.71444">
        <ele>1522.4000244141</ele>
        <time>2020-08-03T12:54:26.000Z</time>
      </trkpt>
      <trkpt lat="45.10443" lon="2.71443">
        <ele>1522.5999755859</ele>
        <time>2020-08-03T12:54:27.000Z</time>
      </trkpt>
      <trkpt lat="45.10441" lon="2.71439">
        <ele>1523.1999511719</ele>
        <time>2020-08-03T12:54:30.000Z</time>
      </trkpt>
      <trkpt lat="45.10441" lon="2.71437">
        <ele>1523.5999755859</ele>
        <time>2020-08-03T12:54:32.000Z</time>
      </trkpt>
      <trkpt lat="45.1044" lon="2.71435">
        <ele>1524</ele>
        <time>2020-08-03T12:54:34.000Z</time>
      </trkpt>
      <trkpt lat="45.1044" lon="2.71434">
        <ele>1524.4000244141</ele>
        <time>2020-08-03T12:54:35.000Z</time>
      </trkpt>
      <trkpt lat="45.10437" lon="2.71428">
        <ele>1525.1999511719</ele>
        <time>2020-08-03T12:54:40.000Z</time>
      </trkpt>
      <trkpt lat="45.10436" lon="2.71426">
        <ele>1525.4000244141</ele>
        <time>2020-08-03T12:54:42.000Z</time>
      </trkpt>
      <trkpt lat="45.10436" lon="2.71425">
        <ele>1525.8000488281</ele>
        <time>2020-08-03T12:54:43.000Z</time>
      </trkpt>
      <trkpt lat="45.10437" lon="2.71423">
        <ele>1525.8000488281</ele>
        <time>2020-08-03T12:54:45.000Z</time>
      </trkpt>
      <trkpt lat="45.10438" lon="2.71419">
        <ele>1526.5999755859</ele>
        <time>2020-08-03T12:54:49.000Z</time>
      </trkpt>
      <trkpt lat="45.10439" lon="2.71419">
        <ele>1526.5999755859</ele>
        <time>2020-08-03T12:54:51.000Z</time>
      </trkpt>
      <trkpt lat="45.10438" lon="2.7142">
        <ele>1526.8000488281</ele>
        <time>2020-08-03T12:55:08.000Z</time>
      </trkpt>
      <trkpt lat="45.10439" lon="2.71417">
        <ele>1526.4000244141</ele>
        <time>2020-08-03T12:55:43.000Z</time>
      </trkpt>
      <trkpt lat="45.1044" lon="2.71415">
        <ele>1526</ele>
        <time>2020-08-03T12:56:03.000Z</time>
      </trkpt>
      <trkpt lat="45.10441" lon="2.71412">
        <ele>1526.5999755859</ele>
        <time>2020-08-03T12:56:06.000Z</time>
      </trkpt>
      <trkpt lat="45.1044" lon="2.71405">
        <ele>1527.1999511719</ele>
        <time>2020-08-03T12:56:10.000Z</time>
      </trkpt>
      <trkpt lat="45.10438" lon="2.71392">
        <ele>1527.1999511719</ele>
        <time>2020-08-03T12:56:18.000Z</time>
      </trkpt>
      <trkpt lat="45.10438" lon="2.71383">
        <ele>1527.5999755859</ele>
        <time>2020-08-03T12:56:23.000Z</time>
      </trkpt>
      <trkpt lat="45.10438" lon="2.7138">
        <ele>1528</ele>
        <time>2020-08-03T12:56:25.000Z</time>
      </trkpt>
      <trkpt lat="45.10437" lon="2.71369">
        <ele>1527.8000488281</ele>
        <time>2020-08-03T12:56:32.000Z</time>
      </trkpt>
      <trkpt lat="45.10438" lon="2.71363">
        <ele>1527.8000488281</ele>
        <time>2020-08-03T12:56:36.000Z</time>
      </trkpt>
      <trkpt lat="45.10438" lon="2.71361">
        <ele>1528</ele>
        <time>2020-08-03T12:56:38.000Z</time>
      </trkpt>
      <trkpt lat="45.10439" lon="2.71349">
        <ele>1527.8000488281</ele>
        <time>2020-08-03T12:56:45.000Z</time>
      </trkpt>
      <trkpt lat="45.10441" lon="2.71342">
        <ele>1528.8000488281</ele>
        <time>2020-08-03T12:56:50.000Z</time>
      </trkpt>
      <trkpt lat="45.10441" lon="2.71339">
        <ele>1529</ele>
        <time>2020-08-03T12:56:52.000Z</time>
      </trkpt>
      <trkpt lat="45.10445" lon="2.71331">
        <ele>1529.4000244141</ele>
        <time>2020-08-03T12:56:58.000Z</time>
      </trkpt>
      <trkpt lat="45.10447" lon="2.71328">
        <ele>1529.8000488281</ele>
        <time>2020-08-03T12:57:01.000Z</time>
      </trkpt>
      <trkpt lat="45.1045" lon="2.71326">
        <ele>1530.8000488281</ele>
        <time>2020-08-03T12:57:05.000Z</time>
      </trkpt>
      <trkpt lat="45.1045" lon="2.71326">
        <ele>1531</ele>
        <time>2020-08-03T12:57:06.000Z</time>
      </trkpt>
      <trkpt lat="45.10456" lon="2.71324">
        <ele>1532</ele>
        <time>2020-08-03T12:57:13.000Z</time>
      </trkpt>
      <trkpt lat="45.10457" lon="2.71325">
        <ele>1532</ele>
        <time>2020-08-03T12:57:14.000Z</time>
      </trkpt>
      <trkpt lat="45.10456" lon="2.71326">
        <ele>1533</ele>
        <time>2020-08-03T12:57:21.000Z</time>
      </trkpt>
      <trkpt lat="45.10457" lon="2.71325">
        <ele>1533</ele>
        <time>2020-08-03T12:57:27.000Z</time>
      </trkpt>
      <trkpt lat="45.1046" lon="2.71324">
        <ele>1532.8000488281</ele>
        <time>2020-08-03T12:57:29.000Z</time>
      </trkpt>
      <trkpt lat="45.10469" lon="2.71324">
        <ele>1533.1999511719</ele>
        <time>2020-08-03T12:57:37.000Z</time>
      </trkpt>
      <trkpt lat="45.10478" lon="2.71322">
        <ele>1533.8000488281</ele>
        <time>2020-08-03T12:57:45.000Z</time>
      </trkpt>
      <trkpt lat="45.10486" lon="2.71317">
        <ele>1533.4000244141</ele>
        <time>2020-08-03T12:57:53.000Z</time>
      </trkpt>
      <trkpt lat="45.10494" lon="2.71311">
        <ele>1534</ele>
        <time>2020-08-03T12:58:01.000Z</time>
      </trkpt>
      <trkpt lat="45.10495" lon="2.7131">
        <ele>1534.1999511719</ele>
        <time>2020-08-03T12:58:03.000Z</time>
      </trkpt>
      <trkpt lat="45.10502" lon="2.71308">
        <ele>1535</ele>
        <time>2020-08-03T12:58:10.000Z</time>
      </trkpt>
      <trkpt lat="45.10502" lon="2.71308">
        <ele>1535.1999511719</ele>
        <time>2020-08-03T12:58:11.000Z</time>
      </trkpt>
      <trkpt lat="45.10505" lon="2.71306">
        <ele>1535.5999755859</ele>
        <time>2020-08-03T12:58:15.000Z</time>
      </trkpt>
      <trkpt lat="45.10506" lon="2.71303">
        <ele>1535.8000488281</ele>
        <time>2020-08-03T12:58:18.000Z</time>
      </trkpt>
      <trkpt lat="45.10507" lon="2.71298">
        <ele>1536.4000244141</ele>
        <time>2020-08-03T12:58:21.000Z</time>
      </trkpt>
      <trkpt lat="45.10508" lon="2.71295">
        <ele>1537.1999511719</ele>
        <time>2020-08-03T12:58:24.000Z</time>
      </trkpt>
      <trkpt lat="45.10508" lon="2.71295">
        <ele>1537.1999511719</ele>
        <time>2020-08-03T12:58:25.000Z</time>
      </trkpt>
      <trkpt lat="45.10509" lon="2.71294">
        <ele>1537.5999755859</ele>
        <time>2020-08-03T12:58:26.000Z</time>
      </trkpt>
      <trkpt lat="45.10512" lon="2.71288">
        <ele>1538.4000244141</ele>
        <time>2020-08-03T12:58:32.000Z</time>
      </trkpt>
      <trkpt lat="45.10512" lon="2.71288">
        <ele>1538.5999755859</ele>
        <time>2020-08-03T12:58:33.000Z</time>
      </trkpt>
      <trkpt lat="45.10518" lon="2.71283">
        <ele>1539.8000488281</ele>
        <time>2020-08-03T12:58:40.000Z</time>
      </trkpt>
      <trkpt lat="45.10521" lon="2.7128">
        <ele>1541</ele>
        <time>2020-08-03T12:58:45.000Z</time>
      </trkpt>
      <trkpt lat="45.10522" lon="2.71277">
        <ele>1541</ele>
        <time>2020-08-03T12:58:47.000Z</time>
      </trkpt>
      <trkpt lat="45.10528" lon="2.71272">
        <ele>1541.1999511719</ele>
        <time>2020-08-03T12:58:55.000Z</time>
      </trkpt>
      <trkpt lat="45.10529" lon="2.71269">
        <ele>1541.8000488281</ele>
        <time>2020-08-03T12:58:58.000Z</time>
      </trkpt>
      <trkpt lat="45.1053" lon="2.71268">
        <ele>1542</ele>
        <time>2020-08-03T12:58:59.000Z</time>
      </trkpt>
      <trkpt lat="45.10531" lon="2.71266">
        <ele>1542.5999755859</ele>
        <time>2020-08-03T12:59:03.000Z</time>
      </trkpt>
      <trkpt lat="45.10532" lon="2.71265">
        <ele>1543</ele>
        <time>2020-08-03T12:59:08.000Z</time>
      </trkpt>
      <trkpt lat="45.10532" lon="2.71265">
        <ele>1543</ele>
        <time>2020-08-03T12:59:09.000Z</time>
      </trkpt>
      <trkpt lat="45.10532" lon="2.71265">
        <ele>1543.4000244141</ele>
        <time>2020-08-03T12:59:19.000Z</time>
      </trkpt>
      <trkpt lat="45.10532" lon="2.71264">
        <ele>1543.1999511719</ele>
        <time>2020-08-03T12:59:24.000Z</time>
      </trkpt>
      <trkpt lat="45.10532" lon="2.71262">
        <ele>1543.1999511719</ele>
        <time>2020-08-03T12:59:26.000Z</time>
      </trkpt>
      <trkpt lat="45.10535" lon="2.71254">
        <ele>1543.5999755859</ele>
        <time>2020-08-03T12:59:33.000Z</time>
      </trkpt>
      <trkpt lat="45.10536" lon="2.71252">
        <ele>1544.1999511719</ele>
        <time>2020-08-03T12:59:35.000Z</time>
      </trkpt>
      <trkpt lat="45.10538" lon="2.71249">
        <ele>1545.4000244141</ele>
        <time>2020-08-03T12:59:39.000Z</time>
      </trkpt>
      <trkpt lat="45.10538" lon="2.71247">
        <ele>1545.4000244141</ele>
        <time>2020-08-03T12:59:40.000Z</time>
      </trkpt>
      <trkpt lat="45.10541" lon="2.71236">
        <ele>1545.8000488281</ele>
        <time>2020-08-03T12:59:48.000Z</time>
      </trkpt>
      <trkpt lat="45.10546" lon="2.71228">
        <ele>1546</ele>
        <time>2020-08-03T12:59:56.000Z</time>
      </trkpt>
      <trkpt lat="45.10547" lon="2.71222">
        <ele>1546.5999755859</ele>
        <time>2020-08-03T13:00:02.000Z</time>
      </trkpt>
      <trkpt lat="45.10548" lon="2.71221">
        <ele>1546.8000488281</ele>
        <time>2020-08-03T13:00:03.000Z</time>
      </trkpt>
      <trkpt lat="45.10548" lon="2.7122">
        <ele>1547</ele>
        <time>2020-08-03T13:00:04.000Z</time>
      </trkpt>
      <trkpt lat="45.10549" lon="2.71216">
        <ele>1547.8000488281</ele>
        <time>2020-08-03T13:00:07.000Z</time>
      </trkpt>
      <trkpt lat="45.1055" lon="2.71214">
        <ele>1548</ele>
        <time>2020-08-03T13:00:09.000Z</time>
      </trkpt>
      <trkpt lat="45.1055" lon="2.71213">
        <ele>1548</ele>
        <time>2020-08-03T13:00:10.000Z</time>
      </trkpt>
      <trkpt lat="45.10557" lon="2.71209">
        <ele>1548.1999511719</ele>
        <time>2020-08-03T13:00:19.000Z</time>
      </trkpt>
      <trkpt lat="45.10561" lon="2.71209">
        <ele>1548.8000488281</ele>
        <time>2020-08-03T13:00:24.000Z</time>
      </trkpt>
      <trkpt lat="45.1056" lon="2.71207">
        <ele>1548.8000488281</ele>
        <time>2020-08-03T13:00:26.000Z</time>
      </trkpt>
      <trkpt lat="45.1056" lon="2.71207">
        <ele>1549.1999511719</ele>
        <time>2020-08-03T13:00:35.000Z</time>
      </trkpt>
      <trkpt lat="45.10561" lon="2.71208">
        <ele>1549.1999511719</ele>
        <time>2020-08-03T13:00:44.000Z</time>
      </trkpt>
      <trkpt lat="45.1056" lon="2.71209">
        <ele>1549</ele>
        <time>2020-08-03T13:00:52.000Z</time>
      </trkpt>
      <trkpt lat="45.10561" lon="2.71208">
        <ele>1549.1999511719</ele>
        <time>2020-08-03T13:00:56.000Z</time>
      </trkpt>
      <trkpt lat="45.10562" lon="2.71206">
        <ele>1549.4000244141</ele>
        <time>2020-08-03T13:00:58.000Z</time>
      </trkpt>
      <trkpt lat="45.10565" lon="2.71203">
        <ele>1549.8000488281</ele>
        <time>2020-08-03T13:01:02.000Z</time>
      </trkpt>
      <trkpt lat="45.10567" lon="2.712">
        <ele>1550.4000244141</ele>
        <time>2020-08-03T13:01:05.000Z</time>
      </trkpt>
      <trkpt lat="45.10568" lon="2.71199">
        <ele>1550.5999755859</ele>
        <time>2020-08-03T13:01:06.000Z</time>
      </trkpt>
      <trkpt lat="45.10569" lon="2.71196">
        <ele>1551</ele>
        <time>2020-08-03T13:01:08.000Z</time>
      </trkpt>
      <trkpt lat="45.10572" lon="2.71193">
        <ele>1551</ele>
        <time>2020-08-03T13:01:11.000Z</time>
      </trkpt>
      <trkpt lat="45.10574" lon="2.71188">
        <ele>1551</ele>
        <time>2020-08-03T13:01:16.000Z</time>
      </trkpt>
      <trkpt lat="45.10576" lon="2.71186">
        <ele>1551.1999511719</ele>
        <time>2020-08-03T13:01:19.000Z</time>
      </trkpt>
      <trkpt lat="45.10579" lon="2.71186">
        <ele>1552</ele>
        <time>2020-08-03T13:01:23.000Z</time>
      </trkpt>
      <trkpt lat="45.1058" lon="2.71183">
        <ele>1552.8000488281</ele>
        <time>2020-08-03T13:01:27.000Z</time>
      </trkpt>
      <trkpt lat="45.10581" lon="2.71183">
        <ele>1553.1999511719</ele>
        <time>2020-08-03T13:01:28.000Z</time>
      </trkpt>
      <trkpt lat="45.10581" lon="2.7118">
        <ele>1554</ele>
        <time>2020-08-03T13:01:31.000Z</time>
      </trkpt>
      <trkpt lat="45.10581" lon="2.71178">
        <ele>1554.1999511719</ele>
        <time>2020-08-03T13:01:32.000Z</time>
      </trkpt>
      <trkpt lat="45.10581" lon="2.71177">
        <ele>1554.4000244141</ele>
        <time>2020-08-03T13:01:33.000Z</time>
      </trkpt>
      <trkpt lat="45.10585" lon="2.71173">
        <ele>1555.1999511719</ele>
        <time>2020-08-03T13:01:40.000Z</time>
      </trkpt>
      <trkpt lat="45.10585" lon="2.71173">
        <ele>1555.4000244141</ele>
        <time>2020-08-03T13:01:41.000Z</time>
      </trkpt>
      <trkpt lat="45.10585" lon="2.71173">
        <ele>1555.4000244141</ele>
        <time>2020-08-03T13:01:49.000Z</time>
      </trkpt>
      <trkpt lat="45.10585" lon="2.71173">
        <ele>1555.8000488281</ele>
        <time>2020-08-03T13:01:57.000Z</time>
      </trkpt>
      <trkpt lat="45.10587" lon="2.71173">
        <ele>1555.5999755859</ele>
        <time>2020-08-03T13:02:04.000Z</time>
      </trkpt>
      <trkpt lat="45.10587" lon="2.71175">
        <ele>1555.5999755859</ele>
        <time>2020-08-03T13:02:11.000Z</time>
      </trkpt>
      <trkpt lat="45.10586" lon="2.71175">
        <ele>1555.8000488281</ele>
        <time>2020-08-03T13:02:18.000Z</time>
      </trkpt>
      <trkpt lat="45.10586" lon="2.71175">
        <ele>1555.8000488281</ele>
        <time>2020-08-03T13:02:26.000Z</time>
      </trkpt>
      <trkpt lat="45.10587" lon="2.71174">
        <ele>1556.4000244141</ele>
        <time>2020-08-03T13:02:32.000Z</time>
      </trkpt>
      <trkpt lat="45.10587" lon="2.71174">
        <ele>1556.1999511719</ele>
        <time>2020-08-03T13:02:33.000Z</time>
      </trkpt>
      <trkpt lat="45.10586" lon="2.71173">
        <ele>1556.8000488281</ele>
        <time>2020-08-03T13:02:42.000Z</time>
      </trkpt>
      <trkpt lat="45.10587" lon="2.71174">
        <ele>1557</ele>
        <time>2020-08-03T13:02:52.000Z</time>
      </trkpt>
      <trkpt lat="45.10588" lon="2.71173">
        <ele>1557.4000244141</ele>
        <time>2020-08-03T13:02:58.000Z</time>
      </trkpt>
      <trkpt lat="45.10588" lon="2.71171">
        <ele>1557.1999511719</ele>
        <time>2020-08-03T13:03:06.000Z</time>
      </trkpt>
      <trkpt lat="45.10588" lon="2.71168">
        <ele>1556.8000488281</ele>
        <time>2020-08-03T13:03:10.000Z</time>
      </trkpt>
      <trkpt lat="45.10587" lon="2.71164">
        <ele>1556.4000244141</ele>
        <time>2020-08-03T13:03:12.000Z</time>
      </trkpt>
      <trkpt lat="45.10589" lon="2.71151">
        <ele>1556.8000488281</ele>
        <time>2020-08-03T13:03:20.000Z</time>
      </trkpt>
      <trkpt lat="45.10591" lon="2.71144">
        <ele>1556.8000488281</ele>
        <time>2020-08-03T13:03:25.000Z</time>
      </trkpt>
      <trkpt lat="45.10592" lon="2.71141">
        <ele>1557.4000244141</ele>
        <time>2020-08-03T13:03:27.000Z</time>
      </trkpt>
      <trkpt lat="45.10593" lon="2.7114">
        <ele>1557.5999755859</ele>
        <time>2020-08-03T13:03:28.000Z</time>
      </trkpt>
      <trkpt lat="45.10596" lon="2.71135">
        <ele>1558.8000488281</ele>
        <time>2020-08-03T13:03:32.000Z</time>
      </trkpt>
      <trkpt lat="45.10597" lon="2.71133">
        <ele>1559.5999755859</ele>
        <time>2020-08-03T13:03:34.000Z</time>
      </trkpt>
      <trkpt lat="45.10605" lon="2.71128">
        <ele>1559</ele>
        <time>2020-08-03T13:03:41.000Z</time>
      </trkpt>
      <trkpt lat="45.10605" lon="2.71127">
        <ele>1558.8000488281</ele>
        <time>2020-08-03T13:03:42.000Z</time>
      </trkpt>
      <trkpt lat="45.10609" lon="2.71122">
        <ele>1558.5999755859</ele>
        <time>2020-08-03T13:03:46.000Z</time>
      </trkpt>
      <trkpt lat="45.10615" lon="2.7112">
        <ele>1558.8000488281</ele>
        <time>2020-08-03T13:03:53.000Z</time>
      </trkpt>
      <trkpt lat="45.1062" lon="2.71113">
        <ele>1559.1999511719</ele>
        <time>2020-08-03T13:04:00.000Z</time>
      </trkpt>
      <trkpt lat="45.10621" lon="2.71114">
        <ele>1559.1999511719</ele>
        <time>2020-08-03T13:04:08.000Z</time>
      </trkpt>
      <trkpt lat="45.10622" lon="2.71113">
        <ele>1559.4000244141</ele>
        <time>2020-08-03T13:04:11.000Z</time>
      </trkpt>
      <trkpt lat="45.10625" lon="2.71112">
        <ele>1559.5999755859</ele>
        <time>2020-08-03T13:04:14.000Z</time>
      </trkpt>
      <trkpt lat="45.10626" lon="2.7111">
        <ele>1559.8000488281</ele>
        <time>2020-08-03T13:04:16.000Z</time>
      </trkpt>
      <trkpt lat="45.10631" lon="2.71108">
        <ele>1560</ele>
        <time>2020-08-03T13:04:21.000Z</time>
      </trkpt>
      <trkpt lat="45.10637" lon="2.71103">
        <ele>1560</ele>
        <time>2020-08-03T13:04:29.000Z</time>
      </trkpt>
      <trkpt lat="45.10638" lon="2.71103">
        <ele>1560.1999511719</ele>
        <time>2020-08-03T13:04:30.000Z</time>
      </trkpt>
      <trkpt lat="45.10643" lon="2.71097">
        <ele>1560.8000488281</ele>
        <time>2020-08-03T13:04:37.000Z</time>
      </trkpt>
      <trkpt lat="45.10645" lon="2.71095">
        <ele>1561</ele>
        <time>2020-08-03T13:04:40.000Z</time>
      </trkpt>
      <trkpt lat="45.10647" lon="2.71094">
        <ele>1561</ele>
        <time>2020-08-03T13:04:42.000Z</time>
      </trkpt>
      <trkpt lat="45.10649" lon="2.71092">
        <ele>1561.1999511719</ele>
        <time>2020-08-03T13:04:45.000Z</time>
      </trkpt>
      <trkpt lat="45.10651" lon="2.71088">
        <ele>1561.4000244141</ele>
        <time>2020-08-03T13:04:48.000Z</time>
      </trkpt>
      <trkpt lat="45.10653" lon="2.71084">
        <ele>1561.8000488281</ele>
        <time>2020-08-03T13:04:52.000Z</time>
      </trkpt>
      <trkpt lat="45.10657" lon="2.71077">
        <ele>1562</ele>
        <time>2020-08-03T13:04:59.000Z</time>
      </trkpt>
      <trkpt lat="45.10661" lon="2.71073">
        <ele>1562</ele>
        <time>2020-08-03T13:05:04.000Z</time>
      </trkpt>
      <trkpt lat="45.10663" lon="2.71072">
        <ele>1562.4000244141</ele>
        <time>2020-08-03T13:05:07.000Z</time>
      </trkpt>
      <trkpt lat="45.10667" lon="2.71069">
        <ele>1562.8000488281</ele>
        <time>2020-08-03T13:05:11.000Z</time>
      </trkpt>
      <trkpt lat="45.1067" lon="2.71067">
        <ele>1563</ele>
        <time>2020-08-03T13:05:15.000Z</time>
      </trkpt>
      <trkpt lat="45.10673" lon="2.71067">
        <ele>1563</ele>
        <time>2020-08-03T13:05:19.000Z</time>
      </trkpt>
      <trkpt lat="45.10675" lon="2.71063">
        <ele>1563</ele>
        <time>2020-08-03T13:05:22.000Z</time>
      </trkpt>
      <trkpt lat="45.10677" lon="2.7106">
        <ele>1563.1999511719</ele>
        <time>2020-08-03T13:05:24.000Z</time>
      </trkpt>
      <trkpt lat="45.10679" lon="2.71053">
        <ele>1563.1999511719</ele>
        <time>2020-08-03T13:05:29.000Z</time>
      </trkpt>
      <trkpt lat="45.10682" lon="2.71047">
        <ele>1563.5999755859</ele>
        <time>2020-08-03T13:05:35.000Z</time>
      </trkpt>
      <trkpt lat="45.10683" lon="2.71045">
        <ele>1563.5999755859</ele>
        <time>2020-08-03T13:05:38.000Z</time>
      </trkpt>
      <trkpt lat="45.10684" lon="2.71041">
        <ele>1563.4000244141</ele>
        <time>2020-08-03T13:05:41.000Z</time>
      </trkpt>
      <trkpt lat="45.10684" lon="2.7104">
        <ele>1563.4000244141</ele>
        <time>2020-08-03T13:05:42.000Z</time>
      </trkpt>
      <trkpt lat="45.10684" lon="2.7104">
        <ele>1563.5999755859</ele>
        <time>2020-08-03T13:05:43.000Z</time>
      </trkpt>
      <trkpt lat="45.10684" lon="2.71037">
        <ele>1564</ele>
        <time>2020-08-03T13:05:47.000Z</time>
      </trkpt>
      <trkpt lat="45.10685" lon="2.71035">
        <ele>1564.1999511719</ele>
        <time>2020-08-03T13:05:48.000Z</time>
      </trkpt>
      <trkpt lat="45.10685" lon="2.71031">
        <ele>1564.5999755859</ele>
        <time>2020-08-03T13:05:51.000Z</time>
      </trkpt>
      <trkpt lat="45.10685" lon="2.71026">
        <ele>1565</ele>
        <time>2020-08-03T13:05:55.000Z</time>
      </trkpt>
      <trkpt lat="45.10686" lon="2.71022">
        <ele>1565</ele>
        <time>2020-08-03T13:05:58.000Z</time>
      </trkpt>
      <trkpt lat="45.10687" lon="2.71019">
        <ele>1565</ele>
        <time>2020-08-03T13:06:02.000Z</time>
      </trkpt>
      <trkpt lat="45.10686" lon="2.71014">
        <ele>1565</ele>
        <time>2020-08-03T13:06:09.000Z</time>
      </trkpt>
      <trkpt lat="45.10686" lon="2.71014">
        <ele>1565.4000244141</ele>
        <time>2020-08-03T13:06:13.000Z</time>
      </trkpt>
      <trkpt lat="45.10687" lon="2.71012">
        <ele>1565.4000244141</ele>
        <time>2020-08-03T13:06:15.000Z</time>
      </trkpt>
      <trkpt lat="45.10688" lon="2.71007">
        <ele>1564.8000488281</ele>
        <time>2020-08-03T13:06:21.000Z</time>
      </trkpt>
      <trkpt lat="45.10688" lon="2.71001">
        <ele>1565.5999755859</ele>
        <time>2020-08-03T13:06:28.000Z</time>
      </trkpt>
      <trkpt lat="45.10688" lon="2.70998">
        <ele>1566</ele>
        <time>2020-08-03T13:06:31.000Z</time>
      </trkpt>
      <trkpt lat="45.10689" lon="2.70995">
        <ele>1566</ele>
        <time>2020-08-03T13:06:35.000Z</time>
      </trkpt>
      <trkpt lat="45.1069" lon="2.70991">
        <ele>1566.5999755859</ele>
        <time>2020-08-03T13:06:41.000Z</time>
      </trkpt>
      <trkpt lat="45.10689" lon="2.70989">
        <ele>1566.8000488281</ele>
        <time>2020-08-03T13:06:43.000Z</time>
      </trkpt>
      <trkpt lat="45.10686" lon="2.70984">
        <ele>1567.5999755859</ele>
        <time>2020-08-03T13:06:48.000Z</time>
      </trkpt>
      <trkpt lat="45.10686" lon="2.70982">
        <ele>1567.8000488281</ele>
        <time>2020-08-03T13:06:49.000Z</time>
      </trkpt>
      <trkpt lat="45.10685" lon="2.70975">
        <ele>1568.5999755859</ele>
        <time>2020-08-03T13:06:56.000Z</time>
      </trkpt>
      <trkpt lat="45.10684" lon="2.70967">
        <ele>1568.4000244141</ele>
        <time>2020-08-03T13:07:03.000Z</time>
      </trkpt>
      <trkpt lat="45.10684" lon="2.70965">
        <ele>1568.5999755859</ele>
        <time>2020-08-03T13:07:05.000Z</time>
      </trkpt>
      <trkpt lat="45.10683" lon="2.70961">
        <ele>1569.4000244141</ele>
        <time>2020-08-03T13:07:09.000Z</time>
      </trkpt>
      <trkpt lat="45.10683" lon="2.70959">
        <ele>1569.4000244141</ele>
        <time>2020-08-03T13:07:10.000Z</time>
      </trkpt>
      <trkpt lat="45.10681" lon="2.70952">
        <ele>1568.5999755859</ele>
        <time>2020-08-03T13:07:17.000Z</time>
      </trkpt>
      <trkpt lat="45.10678" lon="2.7095">
        <ele>1567.8000488281</ele>
        <time>2020-08-03T13:07:21.000Z</time>
      </trkpt>
      <trkpt lat="45.10677" lon="2.70949">
        <ele>1567.4000244141</ele>
        <time>2020-08-03T13:07:22.000Z</time>
      </trkpt>
      <trkpt lat="45.10676" lon="2.70947">
        <ele>1566.8000488281</ele>
        <time>2020-08-03T13:07:24.000Z</time>
      </trkpt>
      <trkpt lat="45.10675" lon="2.70946">
        <ele>1566.4000244141</ele>
        <time>2020-08-03T13:07:26.000Z</time>
      </trkpt>
      <trkpt lat="45.10675" lon="2.70944">
        <ele>1566</ele>
        <time>2020-08-03T13:07:28.000Z</time>
      </trkpt>
      <trkpt lat="45.10672" lon="2.70942">
        <ele>1565.8000488281</ele>
        <time>2020-08-03T13:07:31.000Z</time>
      </trkpt>
      <trkpt lat="45.10671" lon="2.7094">
        <ele>1565.8000488281</ele>
        <time>2020-08-03T13:07:36.000Z</time>
      </trkpt>
      <trkpt lat="45.1067" lon="2.70935">
        <ele>1567.1999511719</ele>
        <time>2020-08-03T13:07:42.000Z</time>
      </trkpt>
      <trkpt lat="45.1067" lon="2.70934">
        <ele>1567.4000244141</ele>
        <time>2020-08-03T13:07:44.000Z</time>
      </trkpt>
      <trkpt lat="45.1067" lon="2.70932">
        <ele>1567.8000488281</ele>
        <time>2020-08-03T13:07:46.000Z</time>
      </trkpt>
      <trkpt lat="45.1067" lon="2.70929">
        <ele>1568.5999755859</ele>
        <time>2020-08-03T13:07:49.000Z</time>
      </trkpt>
      <trkpt lat="45.10674" lon="2.70922">
        <ele>1569.4000244141</ele>
        <time>2020-08-03T13:07:56.000Z</time>
      </trkpt>
      <trkpt lat="45.10675" lon="2.70921">
        <ele>1569.5999755859</ele>
        <time>2020-08-03T13:07:57.000Z</time>
      </trkpt>
      <trkpt lat="45.10678" lon="2.70915">
        <ele>1569.8000488281</ele>
        <time>2020-08-03T13:08:04.000Z</time>
      </trkpt>
      <trkpt lat="45.10679" lon="2.7091">
        <ele>1570.1999511719</ele>
        <time>2020-08-03T13:08:08.000Z</time>
      </trkpt>
      <trkpt lat="45.10681" lon="2.70907">
        <ele>1570.4000244141</ele>
        <time>2020-08-03T13:08:11.000Z</time>
      </trkpt>
      <trkpt lat="45.10685" lon="2.709">
        <ele>1569.5999755859</ele>
        <time>2020-08-03T13:08:18.000Z</time>
      </trkpt>
      <trkpt lat="45.10686" lon="2.70889">
        <ele>1569.4000244141</ele>
        <time>2020-08-03T13:08:26.000Z</time>
      </trkpt>
      <trkpt lat="45.10688" lon="2.70885">
        <ele>1569.1999511719</ele>
        <time>2020-08-03T13:08:30.000Z</time>
      </trkpt>
      <trkpt lat="45.10689" lon="2.70882">
        <ele>1569.5999755859</ele>
        <time>2020-08-03T13:08:33.000Z</time>
      </trkpt>
      <trkpt lat="45.10691" lon="2.70874">
        <ele>1570</ele>
        <time>2020-08-03T13:08:40.000Z</time>
      </trkpt>
      <trkpt lat="45.10691" lon="2.70872">
        <ele>1570.1999511719</ele>
        <time>2020-08-03T13:08:43.000Z</time>
      </trkpt>
      <trkpt lat="45.10692" lon="2.70867">
        <ele>1570.5999755859</ele>
        <time>2020-08-03T13:08:47.000Z</time>
      </trkpt>
      <trkpt lat="45.10693" lon="2.70866">
        <ele>1570.8000488281</ele>
        <time>2020-08-03T13:08:48.000Z</time>
      </trkpt>
      <trkpt lat="45.10695" lon="2.70859">
        <ele>1571</ele>
        <time>2020-08-03T13:08:54.000Z</time>
      </trkpt>
      <trkpt lat="45.10696" lon="2.70854">
        <ele>1571.4000244141</ele>
        <time>2020-08-03T13:08:59.000Z</time>
      </trkpt>
      <trkpt lat="45.10697" lon="2.7085">
        <ele>1571.4000244141</ele>
        <time>2020-08-03T13:09:02.000Z</time>
      </trkpt>
      <trkpt lat="45.10697" lon="2.70848">
        <ele>1571.5999755859</ele>
        <time>2020-08-03T13:09:06.000Z</time>
      </trkpt>
      <trkpt lat="45.10696" lon="2.70845">
        <ele>1571.5999755859</ele>
        <time>2020-08-03T13:09:08.000Z</time>
      </trkpt>
      <trkpt lat="45.10695" lon="2.70844">
        <ele>1571.5999755859</ele>
        <time>2020-08-03T13:09:09.000Z</time>
      </trkpt>
      <trkpt lat="45.10694" lon="2.70836">
        <ele>1572</ele>
        <time>2020-08-03T13:09:15.000Z</time>
      </trkpt>
      <trkpt lat="45.10692" lon="2.70828">
        <ele>1572.4000244141</ele>
        <time>2020-08-03T13:09:22.000Z</time>
      </trkpt>
      <trkpt lat="45.10689" lon="2.70817">
        <ele>1571.5999755859</ele>
        <time>2020-08-03T13:09:30.000Z</time>
      </trkpt>
      <trkpt lat="45.10692" lon="2.70806">
        <ele>1571.1999511719</ele>
        <time>2020-08-03T13:09:38.000Z</time>
      </trkpt>
      <trkpt lat="45.10694" lon="2.70797">
        <ele>1570.5999755859</ele>
        <time>2020-08-03T13:09:45.000Z</time>
      </trkpt>
      <trkpt lat="45.10693" lon="2.70795">
        <ele>1570.5999755859</ele>
        <time>2020-08-03T13:09:47.000Z</time>
      </trkpt>
      <trkpt lat="45.10693" lon="2.70791">
        <ele>1570.5999755859</ele>
        <time>2020-08-03T13:09:50.000Z</time>
      </trkpt>
      <trkpt lat="45.10694" lon="2.70788">
        <ele>1570.5999755859</ele>
        <time>2020-08-03T13:09:52.000Z</time>
      </trkpt>
      <trkpt lat="45.10693" lon="2.70782">
        <ele>1571</ele>
        <time>2020-08-03T13:09:57.000Z</time>
      </trkpt>
      <trkpt lat="45.10693" lon="2.70777">
        <ele>1570.8000488281</ele>
        <time>2020-08-03T13:10:00.000Z</time>
      </trkpt>
      <trkpt lat="45.10692" lon="2.70765">
        <ele>1570.8000488281</ele>
        <time>2020-08-03T13:10:08.000Z</time>
      </trkpt>
      <trkpt lat="45.10692" lon="2.70764">
        <ele>1570.5999755859</ele>
        <time>2020-08-03T13:10:09.000Z</time>
      </trkpt>
      <trkpt lat="45.10691" lon="2.70762">
        <ele>1570.5999755859</ele>
        <time>2020-08-03T13:10:11.000Z</time>
      </trkpt>
      <trkpt lat="45.1069" lon="2.70758">
        <ele>1570.4000244141</ele>
        <time>2020-08-03T13:10:14.000Z</time>
      </trkpt>
      <trkpt lat="45.10689" lon="2.7075">
        <ele>1570.5999755859</ele>
        <time>2020-08-03T13:10:21.000Z</time>
      </trkpt>
      <trkpt lat="45.10688" lon="2.70744">
        <ele>1570.8000488281</ele>
        <time>2020-08-03T13:10:26.000Z</time>
      </trkpt>
      <trkpt lat="45.10687" lon="2.70743">
        <ele>1570.8000488281</ele>
        <time>2020-08-03T13:10:27.000Z</time>
      </trkpt>
      <trkpt lat="45.10685" lon="2.70734">
        <ele>1570.1999511719</ele>
        <time>2020-08-03T13:10:34.000Z</time>
      </trkpt>
      <trkpt lat="45.10683" lon="2.70727">
        <ele>1570</ele>
        <time>2020-08-03T13:10:40.000Z</time>
      </trkpt>
      <trkpt lat="45.10683" lon="2.70725">
        <ele>1570</ele>
        <time>2020-08-03T13:10:42.000Z</time>
      </trkpt>
      <trkpt lat="45.10682" lon="2.70723">
        <ele>1570.1999511719</ele>
        <time>2020-08-03T13:10:44.000Z</time>
      </trkpt>
      <trkpt lat="45.10681" lon="2.7072">
        <ele>1570.4000244141</ele>
        <time>2020-08-03T13:10:47.000Z</time>
      </trkpt>
      <trkpt lat="45.10679" lon="2.70713">
        <ele>1571</ele>
        <time>2020-08-03T13:10:53.000Z</time>
      </trkpt>
      <trkpt lat="45.10676" lon="2.70703">
        <ele>1571.4000244141</ele>
        <time>2020-08-03T13:11:01.000Z</time>
      </trkpt>
      <trkpt lat="45.10675" lon="2.707">
        <ele>1571.1999511719</ele>
        <time>2020-08-03T13:11:08.000Z</time>
      </trkpt>
      <trkpt lat="45.10674" lon="2.707">
        <ele>1571.8000488281</ele>
        <time>2020-08-03T13:11:13.000Z</time>
      </trkpt>
      <trkpt lat="45.10675" lon="2.70701">
        <ele>1571.5999755859</ele>
        <time>2020-08-03T13:11:15.000Z</time>
      </trkpt>
      <trkpt lat="45.10673" lon="2.70701">
        <ele>1571.4000244141</ele>
        <time>2020-08-03T13:11:23.000Z</time>
      </trkpt>
      <trkpt lat="45.10673" lon="2.707">
        <ele>1571.4000244141</ele>
        <time>2020-08-03T13:11:32.000Z</time>
      </trkpt>
      <trkpt lat="45.10673" lon="2.707">
        <ele>1570.8000488281</ele>
        <time>2020-08-03T13:11:36.000Z</time>
      </trkpt>
      <trkpt lat="45.10674" lon="2.707">
        <ele>1570.1999511719</ele>
        <time>2020-08-03T13:11:42.000Z</time>
      </trkpt>
      <trkpt lat="45.10675" lon="2.707">
        <ele>1570.1999511719</ele>
        <time>2020-08-03T13:11:51.000Z</time>
      </trkpt>
      <trkpt lat="45.10675" lon="2.707">
        <ele>1571</ele>
        <time>2020-08-03T13:12:00.000Z</time>
      </trkpt>
      <trkpt lat="45.10676" lon="2.70699">
        <ele>1571.8000488281</ele>
        <time>2020-08-03T13:12:03.000Z</time>
      </trkpt>
      <trkpt lat="45.10676" lon="2.70698">
        <ele>1572.4000244141</ele>
        <time>2020-08-03T13:12:09.000Z</time>
      </trkpt>
      <trkpt lat="45.10675" lon="2.70697">
        <ele>1571.8000488281</ele>
        <time>2020-08-03T13:12:14.000Z</time>
      </trkpt>
      <trkpt lat="45.10673" lon="2.70695">
        <ele>1571.5999755859</ele>
        <time>2020-08-03T13:12:16.000Z</time>
      </trkpt>
      <trkpt lat="45.1067" lon="2.70689">
        <ele>1571.4000244141</ele>
        <time>2020-08-03T13:12:22.000Z</time>
      </trkpt>
      <trkpt lat="45.10666" lon="2.70684">
        <ele>1571.5999755859</ele>
        <time>2020-08-03T13:12:29.000Z</time>
      </trkpt>
      <trkpt lat="45.10664" lon="2.70682">
        <ele>1571.8000488281</ele>
        <time>2020-08-03T13:12:32.000Z</time>
      </trkpt>
      <trkpt lat="45.10662" lon="2.70681">
        <ele>1572.5999755859</ele>
        <time>2020-08-03T13:12:37.000Z</time>
      </trkpt>
      <trkpt lat="45.10662" lon="2.7068">
        <ele>1572.4000244141</ele>
        <time>2020-08-03T13:12:44.000Z</time>
      </trkpt>
      <trkpt lat="45.10661" lon="2.70679">
        <ele>1572.4000244141</ele>
        <time>2020-08-03T13:12:45.000Z</time>
      </trkpt>
      <trkpt lat="45.10655" lon="2.7067">
        <ele>1572.8000488281</ele>
        <time>2020-08-03T13:12:54.000Z</time>
      </trkpt>
      <trkpt lat="45.10654" lon="2.70669">
        <ele>1572.8000488281</ele>
        <time>2020-08-03T13:12:55.000Z</time>
      </trkpt>
      <trkpt lat="45.10653" lon="2.70667">
        <ele>1573.1999511719</ele>
        <time>2020-08-03T13:12:58.000Z</time>
      </trkpt>
      <trkpt lat="45.1065" lon="2.70665">
        <ele>1573.5999755859</ele>
        <time>2020-08-03T13:13:01.000Z</time>
      </trkpt>
      <trkpt lat="45.10649" lon="2.70664">
        <ele>1574</ele>
        <time>2020-08-03T13:13:02.000Z</time>
      </trkpt>
      <trkpt lat="45.10643" lon="2.70659">
        <ele>1574.4000244141</ele>
        <time>2020-08-03T13:13:09.000Z</time>
      </trkpt>
      <trkpt lat="45.10637" lon="2.70652">
        <ele>1574.4000244141</ele>
        <time>2020-08-03T13:13:17.000Z</time>
      </trkpt>
      <trkpt lat="45.10631" lon="2.70648">
        <ele>1574</ele>
        <time>2020-08-03T13:13:25.000Z</time>
      </trkpt>
      <trkpt lat="45.10627" lon="2.70645">
        <ele>1574.8000488281</ele>
        <time>2020-08-03T13:13:31.000Z</time>
      </trkpt>
      <trkpt lat="45.10625" lon="2.70644">
        <ele>1575</ele>
        <time>2020-08-03T13:13:33.000Z</time>
      </trkpt>
      <trkpt lat="45.10622" lon="2.70643">
        <ele>1575.5999755859</ele>
        <time>2020-08-03T13:13:38.000Z</time>
      </trkpt>
      <trkpt lat="45.1062" lon="2.70639">
        <ele>1576</ele>
        <time>2020-08-03T13:13:42.000Z</time>
      </trkpt>
      <trkpt lat="45.1062" lon="2.70638">
        <ele>1576.1999511719</ele>
        <time>2020-08-03T13:13:43.000Z</time>
      </trkpt>
      <trkpt lat="45.1062" lon="2.70637">
        <ele>1576.4000244141</ele>
        <time>2020-08-03T13:13:44.000Z</time>
      </trkpt>
      <trkpt lat="45.10614" lon="2.70628">
        <ele>1576.5999755859</ele>
        <time>2020-08-03T13:13:52.000Z</time>
      </trkpt>
      <trkpt lat="45.10612" lon="2.70625">
        <ele>1576.5999755859</ele>
        <time>2020-08-03T13:13:55.000Z</time>
      </trkpt>
      <trkpt lat="45.10611" lon="2.70622">
        <ele>1576.4000244141</ele>
        <time>2020-08-03T13:13:57.000Z</time>
      </trkpt>
      <trkpt lat="45.10611" lon="2.70621">
        <ele>1576.5999755859</ele>
        <time>2020-08-03T13:13:58.000Z</time>
      </trkpt>
      <trkpt lat="45.1061" lon="2.70618">
        <ele>1577.1999511719</ele>
        <time>2020-08-03T13:14:03.000Z</time>
      </trkpt>
      <trkpt lat="45.10608" lon="2.70618">
        <ele>1577.4000244141</ele>
        <time>2020-08-03T13:14:05.000Z</time>
      </trkpt>
      <trkpt lat="45.10606" lon="2.70615">
        <ele>1577.4000244141</ele>
        <time>2020-08-03T13:14:08.000Z</time>
      </trkpt>
      <trkpt lat="45.10603" lon="2.70607">
        <ele>1577.1999511719</ele>
        <time>2020-08-03T13:14:15.000Z</time>
      </trkpt>
      <trkpt lat="45.106" lon="2.706">
        <ele>1577.8000488281</ele>
        <time>2020-08-03T13:14:22.000Z</time>
      </trkpt>
      <trkpt lat="45.10596" lon="2.70593">
        <ele>1578.4000244141</ele>
        <time>2020-08-03T13:14:29.000Z</time>
      </trkpt>
      <trkpt lat="45.10593" lon="2.7059">
        <ele>1579.5999755859</ele>
        <time>2020-08-03T13:14:35.000Z</time>
      </trkpt>
      <trkpt lat="45.10592" lon="2.7059">
        <ele>1579.8000488281</ele>
        <time>2020-08-03T13:14:36.000Z</time>
      </trkpt>
      <trkpt lat="45.1059" lon="2.70589">
        <ele>1580.8000488281</ele>
        <time>2020-08-03T13:14:39.000Z</time>
      </trkpt>
      <trkpt lat="45.10589" lon="2.70589">
        <ele>1581</ele>
        <time>2020-08-03T13:14:41.000Z</time>
      </trkpt>
      <trkpt lat="45.10589" lon="2.70587">
        <ele>1581.1999511719</ele>
        <time>2020-08-03T13:14:44.000Z</time>
      </trkpt>
      <trkpt lat="45.10589" lon="2.70584">
        <ele>1581.8000488281</ele>
        <time>2020-08-03T13:14:48.000Z</time>
      </trkpt>
      <trkpt lat="45.10589" lon="2.70581">
        <ele>1582.5999755859</ele>
        <time>2020-08-03T13:14:52.000Z</time>
      </trkpt>
      <trkpt lat="45.10589" lon="2.70578">
        <ele>1582.5999755859</ele>
        <time>2020-08-03T13:14:54.000Z</time>
      </trkpt>
      <trkpt lat="45.10589" lon="2.70568">
        <ele>1582.5999755859</ele>
        <time>2020-08-03T13:15:00.000Z</time>
      </trkpt>
      <trkpt lat="45.10589" lon="2.70565">
        <ele>1582.8000488281</ele>
        <time>2020-08-03T13:15:07.000Z</time>
      </trkpt>
      <trkpt lat="45.10589" lon="2.70567">
        <ele>1582.4000244141</ele>
        <time>2020-08-03T13:15:14.000Z</time>
      </trkpt>
      <trkpt lat="45.10589" lon="2.70567">
        <ele>1582.5999755859</ele>
        <time>2020-08-03T13:15:21.000Z</time>
      </trkpt>
      <trkpt lat="45.10589" lon="2.70568">
        <ele>1583</ele>
        <time>2020-08-03T13:15:28.000Z</time>
      </trkpt>
      <trkpt lat="45.10589" lon="2.70569">
        <ele>1583</ele>
        <time>2020-08-03T13:15:29.000Z</time>
      </trkpt>
      <trkpt lat="45.10589" lon="2.70572">
        <ele>1583</ele>
        <time>2020-08-03T13:15:38.000Z</time>
      </trkpt>
      <trkpt lat="45.10588" lon="2.7057">
        <ele>1582.8000488281</ele>
        <time>2020-08-03T13:15:47.000Z</time>
      </trkpt>
      <trkpt lat="45.10588" lon="2.70567">
        <ele>1582.5999755859</ele>
        <time>2020-08-03T13:15:56.000Z</time>
      </trkpt>
      <trkpt lat="45.10592" lon="2.70564">
        <ele>1582.8000488281</ele>
        <time>2020-08-03T13:16:05.000Z</time>
      </trkpt>
      <trkpt lat="45.10591" lon="2.70565">
        <ele>1582.8000488281</ele>
        <time>2020-08-03T13:16:13.000Z</time>
      </trkpt>
      <trkpt lat="45.10591" lon="2.70564">
        <ele>1582.8000488281</ele>
        <time>2020-08-03T13:16:21.000Z</time>
      </trkpt>
      <trkpt lat="45.10589" lon="2.70561">
        <ele>1582.8000488281</ele>
        <time>2020-08-03T13:16:28.000Z</time>
      </trkpt>
      <trkpt lat="45.10589" lon="2.7056">
        <ele>1582.8000488281</ele>
        <time>2020-08-03T13:16:29.000Z</time>
      </trkpt>
      <trkpt lat="45.10588" lon="2.70556">
        <ele>1582.8000488281</ele>
        <time>2020-08-03T13:16:34.000Z</time>
      </trkpt>
      <trkpt lat="45.10589" lon="2.70557">
        <ele>1582.5999755859</ele>
        <time>2020-08-03T13:16:43.000Z</time>
      </trkpt>
      <trkpt lat="45.10589" lon="2.70553">
        <ele>1583</ele>
        <time>2020-08-03T13:16:50.000Z</time>
      </trkpt>
      <trkpt lat="45.10588" lon="2.70552">
        <ele>1583</ele>
        <time>2020-08-03T13:16:54.000Z</time>
      </trkpt>
      <trkpt lat="45.10588" lon="2.70549">
        <ele>1583.1999511719</ele>
        <time>2020-08-03T13:16:57.000Z</time>
      </trkpt>
      <trkpt lat="45.10589" lon="2.70538">
        <ele>1584</ele>
        <time>2020-08-03T13:17:05.000Z</time>
      </trkpt>
      <trkpt lat="45.10589" lon="2.70535">
        <ele>1584.1999511719</ele>
        <time>2020-08-03T13:17:07.000Z</time>
      </trkpt>
      <trkpt lat="45.10589" lon="2.70531">
        <ele>1584.5999755859</ele>
        <time>2020-08-03T13:17:10.000Z</time>
      </trkpt>
      <trkpt lat="45.10589" lon="2.7053">
        <ele>1584.8000488281</ele>
        <time>2020-08-03T13:17:11.000Z</time>
      </trkpt>
      <trkpt lat="45.10589" lon="2.70529">
        <ele>1585</ele>
        <time>2020-08-03T13:17:12.000Z</time>
      </trkpt>
      <trkpt lat="45.10589" lon="2.70523">
        <ele>1585.5999755859</ele>
        <time>2020-08-03T13:17:18.000Z</time>
      </trkpt>
      <trkpt lat="45.10589" lon="2.70521">
        <ele>1585.5999755859</ele>
        <time>2020-08-03T13:17:20.000Z</time>
      </trkpt>
      <trkpt lat="45.1059" lon="2.70518">
        <ele>1586.1999511719</ele>
        <time>2020-08-03T13:17:22.000Z</time>
      </trkpt>
      <trkpt lat="45.1059" lon="2.70515">
        <ele>1587</ele>
        <time>2020-08-03T13:17:25.000Z</time>
      </trkpt>
      <trkpt lat="45.1059" lon="2.70514">
        <ele>1587.1999511719</ele>
        <time>2020-08-03T13:17:26.000Z</time>
      </trkpt>
      <trkpt lat="45.10591" lon="2.70512">
        <ele>1587.4000244141</ele>
        <time>2020-08-03T13:17:27.000Z</time>
      </trkpt>
      <trkpt lat="45.10591" lon="2.70508">
        <ele>1588.4000244141</ele>
        <time>2020-08-03T13:17:31.000Z</time>
      </trkpt>
      <trkpt lat="45.10592" lon="2.70504">
        <ele>1588.5999755859</ele>
        <time>2020-08-03T13:17:34.000Z</time>
      </trkpt>
      <trkpt lat="45.10591" lon="2.70498">
        <ele>1589.4000244141</ele>
        <time>2020-08-03T13:17:38.000Z</time>
      </trkpt>
      <trkpt lat="45.10591" lon="2.70496">
        <ele>1590</ele>
        <time>2020-08-03T13:17:40.000Z</time>
      </trkpt>
      <trkpt lat="45.1059" lon="2.70489">
        <ele>1590.5999755859</ele>
        <time>2020-08-03T13:17:45.000Z</time>
      </trkpt>
      <trkpt lat="45.1059" lon="2.70488">
        <ele>1590.8000488281</ele>
        <time>2020-08-03T13:17:46.000Z</time>
      </trkpt>
      <trkpt lat="45.10587" lon="2.7048">
        <ele>1591.5999755859</ele>
        <time>2020-08-03T13:17:52.000Z</time>
      </trkpt>
      <trkpt lat="45.10587" lon="2.70479">
        <ele>1591.8000488281</ele>
        <time>2020-08-03T13:17:53.000Z</time>
      </trkpt>
      <trkpt lat="45.10587" lon="2.70471">
        <ele>1592.4000244141</ele>
        <time>2020-08-03T13:17:59.000Z</time>
      </trkpt>
      <trkpt lat="45.10587" lon="2.70469">
        <ele>1593</ele>
        <time>2020-08-03T13:18:03.000Z</time>
      </trkpt>
      <trkpt lat="45.10587" lon="2.70469">
        <ele>1593</ele>
        <time>2020-08-03T13:18:05.000Z</time>
      </trkpt>
      <trkpt lat="45.10589" lon="2.70469">
        <ele>1593.4000244141</ele>
        <time>2020-08-03T13:18:11.000Z</time>
      </trkpt>
      <trkpt lat="45.1059" lon="2.70467">
        <ele>1592.5999755859</ele>
        <time>2020-08-03T13:18:17.000Z</time>
      </trkpt>
      <trkpt lat="45.1059" lon="2.70465">
        <ele>1592.8000488281</ele>
        <time>2020-08-03T13:18:18.000Z</time>
      </trkpt>
      <trkpt lat="45.1059" lon="2.7045">
        <ele>1593.1999511719</ele>
        <time>2020-08-03T13:18:26.000Z</time>
      </trkpt>
      <trkpt lat="45.10589" lon="2.70444">
        <ele>1593.4000244141</ele>
        <time>2020-08-03T13:18:30.000Z</time>
      </trkpt>
      <trkpt lat="45.10588" lon="2.70441">
        <ele>1593.5999755859</ele>
        <time>2020-08-03T13:18:32.000Z</time>
      </trkpt>
      <trkpt lat="45.10587" lon="2.70437">
        <ele>1594</ele>
        <time>2020-08-03T13:18:35.000Z</time>
      </trkpt>
      <trkpt lat="45.10584" lon="2.70431">
        <ele>1594.4000244141</ele>
        <time>2020-08-03T13:18:39.000Z</time>
      </trkpt>
      <trkpt lat="45.10582" lon="2.70423">
        <ele>1594.5999755859</ele>
        <time>2020-08-03T13:18:45.000Z</time>
      </trkpt>
      <trkpt lat="45.10578" lon="2.7041">
        <ele>1594.4000244141</ele>
        <time>2020-08-03T13:18:53.000Z</time>
      </trkpt>
      <trkpt lat="45.10576" lon="2.70401">
        <ele>1594.5999755859</ele>
        <time>2020-08-03T13:19:00.000Z</time>
      </trkpt>
      <trkpt lat="45.10575" lon="2.70397">
        <ele>1595.1999511719</ele>
        <time>2020-08-03T13:19:03.000Z</time>
      </trkpt>
      <trkpt lat="45.10572" lon="2.70392">
        <ele>1595.8000488281</ele>
        <time>2020-08-03T13:19:08.000Z</time>
      </trkpt>
      <trkpt lat="45.10568" lon="2.70385">
        <ele>1596</ele>
        <time>2020-08-03T13:19:14.000Z</time>
      </trkpt>
      <trkpt lat="45.10567" lon="2.70381">
        <ele>1596.4000244141</ele>
        <time>2020-08-03T13:19:16.000Z</time>
      </trkpt>
      <trkpt lat="45.10563" lon="2.70374">
        <ele>1596.5999755859</ele>
        <time>2020-08-03T13:19:23.000Z</time>
      </trkpt>
      <trkpt lat="45.10558" lon="2.70367">
        <ele>1597.1999511719</ele>
        <time>2020-08-03T13:19:31.000Z</time>
      </trkpt>
      <trkpt lat="45.10558" lon="2.70366">
        <ele>1597.4000244141</ele>
        <time>2020-08-03T13:19:32.000Z</time>
      </trkpt>
      <trkpt lat="45.10555" lon="2.70363">
        <ele>1598.4000244141</ele>
        <time>2020-08-03T13:19:36.000Z</time>
      </trkpt>
      <trkpt lat="45.10555" lon="2.70362">
        <ele>1598.5999755859</ele>
        <time>2020-08-03T13:19:37.000Z</time>
      </trkpt>
      <trkpt lat="45.10553" lon="2.70359">
        <ele>1599</ele>
        <time>2020-08-03T13:19:41.000Z</time>
      </trkpt>
      <trkpt lat="45.10551" lon="2.70358">
        <ele>1598.8000488281</ele>
        <time>2020-08-03T13:19:44.000Z</time>
      </trkpt>
      <trkpt lat="45.10551" lon="2.70357">
        <ele>1598.8000488281</ele>
        <time>2020-08-03T13:19:45.000Z</time>
      </trkpt>
      <trkpt lat="45.1055" lon="2.70356">
        <ele>1599</ele>
        <time>2020-08-03T13:19:46.000Z</time>
      </trkpt>
      <trkpt lat="45.1055" lon="2.70354">
        <ele>1599.8000488281</ele>
        <time>2020-08-03T13:19:49.000Z</time>
      </trkpt>
      <trkpt lat="45.1055" lon="2.70354">
        <ele>1600</ele>
        <time>2020-08-03T13:19:50.000Z</time>
      </trkpt>
      <trkpt lat="45.10548" lon="2.70353">
        <ele>1600.1999511719</ele>
        <time>2020-08-03T13:19:53.000Z</time>
      </trkpt>
      <trkpt lat="45.10546" lon="2.7035">
        <ele>1600.5999755859</ele>
        <time>2020-08-03T13:19:56.000Z</time>
      </trkpt>
      <trkpt lat="45.10546" lon="2.70349">
        <ele>1601</ele>
        <time>2020-08-03T13:19:57.000Z</time>
      </trkpt>
      <trkpt lat="45.10544" lon="2.70345">
        <ele>1601.4000244141</ele>
        <time>2020-08-03T13:20:01.000Z</time>
      </trkpt>
      <trkpt lat="45.10544" lon="2.70343">
        <ele>1601.5999755859</ele>
        <time>2020-08-03T13:20:03.000Z</time>
      </trkpt>
      <trkpt lat="45.10543" lon="2.70342">
        <ele>1601.5999755859</ele>
        <time>2020-08-03T13:20:04.000Z</time>
      </trkpt>
      <trkpt lat="45.10543" lon="2.70338">
        <ele>1602</ele>
        <time>2020-08-03T13:20:07.000Z</time>
      </trkpt>
      <trkpt lat="45.10542" lon="2.70335">
        <ele>1602.1999511719</ele>
        <time>2020-08-03T13:20:09.000Z</time>
      </trkpt>
      <trkpt lat="45.1054" lon="2.70326">
        <ele>1602.5999755859</ele>
        <time>2020-08-03T13:20:16.000Z</time>
      </trkpt>
      <trkpt lat="45.1054" lon="2.70317">
        <ele>1603</ele>
        <time>2020-08-03T13:20:24.000Z</time>
      </trkpt>
      <trkpt lat="45.1054" lon="2.70316">
        <ele>1603</ele>
        <time>2020-08-03T13:20:25.000Z</time>
      </trkpt>
      <trkpt lat="45.1054" lon="2.70306">
        <ele>1603</ele>
        <time>2020-08-03T13:20:32.000Z</time>
      </trkpt>
      <trkpt lat="45.10542" lon="2.70297">
        <ele>1603</ele>
        <time>2020-08-03T13:20:40.000Z</time>
      </trkpt>
      <trkpt lat="45.10542" lon="2.7029">
        <ele>1602</ele>
        <time>2020-08-03T13:20:46.000Z</time>
      </trkpt>
      <trkpt lat="45.10542" lon="2.70286">
        <ele>1601.8000488281</ele>
        <time>2020-08-03T13:20:49.000Z</time>
      </trkpt>
      <trkpt lat="45.10545" lon="2.70277">
        <ele>1601.1999511719</ele>
        <time>2020-08-03T13:20:55.000Z</time>
      </trkpt>
      <trkpt lat="45.10548" lon="2.70269">
        <ele>1601.1999511719</ele>
        <time>2020-08-03T13:21:03.000Z</time>
      </trkpt>
      <trkpt lat="45.10548" lon="2.70268">
        <ele>1601</ele>
        <time>2020-08-03T13:21:10.000Z</time>
      </trkpt>
      <trkpt lat="45.10549" lon="2.70268">
        <ele>1601</ele>
        <time>2020-08-03T13:21:11.000Z</time>
      </trkpt>
      <trkpt lat="45.10549" lon="2.70263">
        <ele>1601.1999511719</ele>
        <time>2020-08-03T13:21:15.000Z</time>
      </trkpt>
      <trkpt lat="45.10549" lon="2.70261">
        <ele>1601.1999511719</ele>
        <time>2020-08-03T13:21:16.000Z</time>
      </trkpt>
      <trkpt lat="45.10549" lon="2.70256">
        <ele>1600.8000488281</ele>
        <time>2020-08-03T13:21:19.000Z</time>
      </trkpt>
      <trkpt lat="45.10549" lon="2.70249">
        <ele>1600.8000488281</ele>
        <time>2020-08-03T13:21:24.000Z</time>
      </trkpt>
      <trkpt lat="45.10548" lon="2.70239">
        <ele>1601.1999511719</ele>
        <time>2020-08-03T13:21:31.000Z</time>
      </trkpt>
      <trkpt lat="45.1055" lon="2.70227">
        <ele>1600.1999511719</ele>
        <time>2020-08-03T13:21:38.000Z</time>
      </trkpt>
      <trkpt lat="45.1055" lon="2.70216">
        <ele>1600</ele>
        <time>2020-08-03T13:21:46.000Z</time>
      </trkpt>
      <trkpt lat="45.10551" lon="2.70214">
        <ele>1599.8000488281</ele>
        <time>2020-08-03T13:21:48.000Z</time>
      </trkpt>
      <trkpt lat="45.10553" lon="2.7021">
        <ele>1599.8000488281</ele>
        <time>2020-08-03T13:21:52.000Z</time>
      </trkpt>
      <trkpt lat="45.10555" lon="2.7021">
        <ele>1600.4000244141</ele>
        <time>2020-08-03T13:21:58.000Z</time>
      </trkpt>
      <trkpt lat="45.10554" lon="2.70209">
        <ele>1599.5999755859</ele>
        <time>2020-08-03T13:22:06.000Z</time>
      </trkpt>
      <trkpt lat="45.10554" lon="2.70209">
        <ele>1599.5999755859</ele>
        <time>2020-08-03T13:22:15.000Z</time>
      </trkpt>
      <trkpt lat="45.10554" lon="2.70206">
        <ele>1600</ele>
        <time>2020-08-03T13:22:28.000Z</time>
      </trkpt>
      <trkpt lat="45.10554" lon="2.70205">
        <ele>1600.5999755859</ele>
        <time>2020-08-03T13:22:34.000Z</time>
      </trkpt>
      <trkpt lat="45.10555" lon="2.70202">
        <ele>1600.5999755859</ele>
        <time>2020-08-03T13:22:42.000Z</time>
      </trkpt>
      <trkpt lat="45.10556" lon="2.70202">
        <ele>1600.5999755859</ele>
        <time>2020-08-03T13:22:51.000Z</time>
      </trkpt>
      <trkpt lat="45.10556" lon="2.70202">
        <ele>1600.5999755859</ele>
        <time>2020-08-03T13:22:56.000Z</time>
      </trkpt>
      <trkpt lat="45.10555" lon="2.70201">
        <ele>1600.8000488281</ele>
        <time>2020-08-03T13:23:00.000Z</time>
      </trkpt>
      <trkpt lat="45.10555" lon="2.70201">
        <ele>1600.5999755859</ele>
        <time>2020-08-03T13:23:03.000Z</time>
      </trkpt>
      <trkpt lat="45.10555" lon="2.70201">
        <ele>1599.8000488281</ele>
        <time>2020-08-03T13:23:11.000Z</time>
      </trkpt>
      <trkpt lat="45.10554" lon="2.70201">
        <ele>1599.8000488281</ele>
        <time>2020-08-03T13:23:14.000Z</time>
      </trkpt>
      <trkpt lat="45.10554" lon="2.70201">
        <ele>1600.8000488281</ele>
        <time>2020-08-03T13:23:21.000Z</time>
      </trkpt>
      <trkpt lat="45.10554" lon="2.70201">
        <ele>1601</ele>
        <time>2020-08-03T13:23:22.000Z</time>
      </trkpt>
      <trkpt lat="45.10554" lon="2.70201">
        <ele>1601</ele>
        <time>2020-08-03T13:23:31.000Z</time>
      </trkpt>
      <trkpt lat="45.10555" lon="2.702">
        <ele>1601</ele>
        <time>2020-08-03T13:23:40.000Z</time>
      </trkpt>
      <trkpt lat="45.10555" lon="2.70202">
        <ele>1600.8000488281</ele>
        <time>2020-08-03T13:23:49.000Z</time>
      </trkpt>
      <trkpt lat="45.10555" lon="2.70202">
        <ele>1600.5999755859</ele>
        <time>2020-08-03T13:23:57.000Z</time>
      </trkpt>
      <trkpt lat="45.10555" lon="2.70197">
        <ele>1600.1999511719</ele>
        <time>2020-08-03T13:24:03.000Z</time>
      </trkpt>
      <trkpt lat="45.10556" lon="2.70196">
        <ele>1600.1999511719</ele>
        <time>2020-08-03T13:24:04.000Z</time>
      </trkpt>
      <trkpt lat="45.10557" lon="2.70186">
        <ele>1600.8000488281</ele>
        <time>2020-08-03T13:24:11.000Z</time>
      </trkpt>
      <trkpt lat="45.10557" lon="2.70186">
        <ele>1601</ele>
        <time>2020-08-03T13:24:12.000Z</time>
      </trkpt>
      <trkpt lat="45.10557" lon="2.70183">
        <ele>1601</ele>
        <time>2020-08-03T13:24:18.000Z</time>
      </trkpt>
      <trkpt lat="45.10557" lon="2.70173">
        <ele>1602</ele>
        <time>2020-08-03T13:24:25.000Z</time>
      </trkpt>
      <trkpt lat="45.10557" lon="2.70172">
        <ele>1601.8000488281</ele>
        <time>2020-08-03T13:24:26.000Z</time>
      </trkpt>
      <trkpt lat="45.10555" lon="2.70163">
        <ele>1602.5999755859</ele>
        <time>2020-08-03T13:24:33.000Z</time>
      </trkpt>
      <trkpt lat="45.10554" lon="2.7016">
        <ele>1602.5999755859</ele>
        <time>2020-08-03T13:24:36.000Z</time>
      </trkpt>
      <trkpt lat="45.10553" lon="2.70156">
        <ele>1602.8000488281</ele>
        <time>2020-08-03T13:24:39.000Z</time>
      </trkpt>
      <trkpt lat="45.10553" lon="2.70154">
        <ele>1603.1999511719</ele>
        <time>2020-08-03T13:24:40.000Z</time>
      </trkpt>
      <trkpt lat="45.10554" lon="2.70145">
        <ele>1604</ele>
        <time>2020-08-03T13:24:46.000Z</time>
      </trkpt>
      <trkpt lat="45.10556" lon="2.7014">
        <ele>1604.1999511719</ele>
        <time>2020-08-03T13:24:49.000Z</time>
      </trkpt>
      <trkpt lat="45.10555" lon="2.70133">
        <ele>1604.1999511719</ele>
        <time>2020-08-03T13:24:54.000Z</time>
      </trkpt>
      <trkpt lat="45.10555" lon="2.70124">
        <ele>1604.4000244141</ele>
        <time>2020-08-03T13:25:01.000Z</time>
      </trkpt>
      <trkpt lat="45.10553" lon="2.70117">
        <ele>1605</ele>
        <time>2020-08-03T13:25:07.000Z</time>
      </trkpt>
      <trkpt lat="45.10552" lon="2.70115">
        <ele>1605.1999511719</ele>
        <time>2020-08-03T13:25:10.000Z</time>
      </trkpt>
      <trkpt lat="45.10551" lon="2.70114">
        <ele>1605.1999511719</ele>
        <time>2020-08-03T13:25:12.000Z</time>
      </trkpt>
      <trkpt lat="45.1055" lon="2.7011">
        <ele>1605.1999511719</ele>
        <time>2020-08-03T13:25:14.000Z</time>
      </trkpt>
      <trkpt lat="45.10549" lon="2.701">
        <ele>1606.1999511719</ele>
        <time>2020-08-03T13:25:21.000Z</time>
      </trkpt>
      <trkpt lat="45.10549" lon="2.70097">
        <ele>1606.4000244141</ele>
        <time>2020-08-03T13:25:23.000Z</time>
      </trkpt>
      <trkpt lat="45.10547" lon="2.70091">
        <ele>1607.4000244141</ele>
        <time>2020-08-03T13:25:29.000Z</time>
      </trkpt>
      <trkpt lat="45.10546" lon="2.7009">
        <ele>1607.8000488281</ele>
        <time>2020-08-03T13:25:30.000Z</time>
      </trkpt>
      <trkpt lat="45.10545" lon="2.70085">
        <ele>1608.4000244141</ele>
        <time>2020-08-03T13:25:34.000Z</time>
      </trkpt>
      <trkpt lat="45.10545" lon="2.70083">
        <ele>1608.8000488281</ele>
        <time>2020-08-03T13:25:36.000Z</time>
      </trkpt>
      <trkpt lat="45.10544" lon="2.70081">
        <ele>1609.1999511719</ele>
        <time>2020-08-03T13:25:39.000Z</time>
      </trkpt>
      <trkpt lat="45.10543" lon="2.7008">
        <ele>1609.5999755859</ele>
        <time>2020-08-03T13:25:41.000Z</time>
      </trkpt>
      <trkpt lat="45.10542" lon="2.70079">
        <ele>1609.5999755859</ele>
        <time>2020-08-03T13:25:42.000Z</time>
      </trkpt>
      <trkpt lat="45.10542" lon="2.70077">
        <ele>1609.5999755859</ele>
        <time>2020-08-03T13:25:43.000Z</time>
      </trkpt>
      <trkpt lat="45.10542" lon="2.70073">
        <ele>1609.8000488281</ele>
        <time>2020-08-03T13:25:46.000Z</time>
      </trkpt>
      <trkpt lat="45.10543" lon="2.70072">
        <ele>1610.5999755859</ele>
        <time>2020-08-03T13:25:48.000Z</time>
      </trkpt>
      <trkpt lat="45.10542" lon="2.70068">
        <ele>1611.5999755859</ele>
        <time>2020-08-03T13:25:52.000Z</time>
      </trkpt>
      <trkpt lat="45.10541" lon="2.70067">
        <ele>1611.5999755859</ele>
        <time>2020-08-03T13:25:53.000Z</time>
      </trkpt>
      <trkpt lat="45.10541" lon="2.70067">
        <ele>1611.8000488281</ele>
        <time>2020-08-03T13:25:54.000Z</time>
      </trkpt>
      <trkpt lat="45.10541" lon="2.70068">
        <ele>1611.1999511719</ele>
        <time>2020-08-03T13:26:03.000Z</time>
      </trkpt>
      <trkpt lat="45.1054" lon="2.70068">
        <ele>1611.4000244141</ele>
        <time>2020-08-03T13:26:08.000Z</time>
      </trkpt>
      <trkpt lat="45.10539" lon="2.70065">
        <ele>1611.5999755859</ele>
        <time>2020-08-03T13:26:10.000Z</time>
      </trkpt>
      <trkpt lat="45.10538" lon="2.70062">
        <ele>1611.5999755859</ele>
        <time>2020-08-03T13:26:13.000Z</time>
      </trkpt>
      <trkpt lat="45.10539" lon="2.7006">
        <ele>1611.8000488281</ele>
        <time>2020-08-03T13:26:15.000Z</time>
      </trkpt>
      <trkpt lat="45.10539" lon="2.70053">
        <ele>1612.4000244141</ele>
        <time>2020-08-03T13:26:20.000Z</time>
      </trkpt>
      <trkpt lat="45.10539" lon="2.70051">
        <ele>1613.1999511719</ele>
        <time>2020-08-03T13:26:22.000Z</time>
      </trkpt>
      <trkpt lat="45.10538" lon="2.7005">
        <ele>1613.4000244141</ele>
        <time>2020-08-03T13:26:23.000Z</time>
      </trkpt>
      <trkpt lat="45.10538" lon="2.70047">
        <ele>1614.1999511719</ele>
        <time>2020-08-03T13:26:25.000Z</time>
      </trkpt>
      <trkpt lat="45.10538" lon="2.70043">
        <ele>1615.1999511719</ele>
        <time>2020-08-03T13:26:28.000Z</time>
      </trkpt>
      <trkpt lat="45.10538" lon="2.7004">
        <ele>1615.5999755859</ele>
        <time>2020-08-03T13:26:30.000Z</time>
      </trkpt>
      <trkpt lat="45.10535" lon="2.70035">
        <ele>1616.5999755859</ele>
        <time>2020-08-03T13:26:35.000Z</time>
      </trkpt>
      <trkpt lat="45.1053" lon="2.70029">
        <ele>1616.4000244141</ele>
        <time>2020-08-03T13:26:43.000Z</time>
      </trkpt>
      <trkpt lat="45.10528" lon="2.70024">
        <ele>1616.1999511719</ele>
        <time>2020-08-03T13:26:50.000Z</time>
      </trkpt>
      <trkpt lat="45.10527" lon="2.70024">
        <ele>1615.5999755859</ele>
        <time>2020-08-03T13:26:57.000Z</time>
      </trkpt>
      <trkpt lat="45.10528" lon="2.70025">
        <ele>1615.5999755859</ele>
        <time>2020-08-03T13:26:59.000Z</time>
      </trkpt>
      <trkpt lat="45.10531" lon="2.70031">
        <ele>1615.1999511719</ele>
        <time>2020-08-03T13:27:05.000Z</time>
      </trkpt>
      <trkpt lat="45.10532" lon="2.70031">
        <ele>1614.4000244141</ele>
        <time>2020-08-03T13:27:09.000Z</time>
      </trkpt>
      <trkpt lat="45.10533" lon="2.70034">
        <ele>1614.5999755859</ele>
        <time>2020-08-03T13:27:12.000Z</time>
      </trkpt>
      <trkpt lat="45.10533" lon="2.70034">
        <ele>1615.8000488281</ele>
        <time>2020-08-03T13:27:16.000Z</time>
      </trkpt>
      <trkpt lat="45.10534" lon="2.70035">
        <ele>1616.4000244141</ele>
        <time>2020-08-03T13:27:19.000Z</time>
      </trkpt>
      <trkpt lat="45.10534" lon="2.70037">
        <ele>1616</ele>
        <time>2020-08-03T13:27:25.000Z</time>
      </trkpt>
      <trkpt lat="45.10533" lon="2.70035">
        <ele>1615.5999755859</ele>
        <time>2020-08-03T13:27:34.000Z</time>
      </trkpt>
      <trkpt lat="45.10532" lon="2.70035">
        <ele>1615.1999511719</ele>
        <time>2020-08-03T13:27:41.000Z</time>
      </trkpt>
      <trkpt lat="45.10532" lon="2.70034">
        <ele>1616</ele>
        <time>2020-08-03T13:27:47.000Z</time>
      </trkpt>
      <trkpt lat="45.10531" lon="2.70032">
        <ele>1616.1999511719</ele>
        <time>2020-08-03T13:27:55.000Z</time>
      </trkpt>
      <trkpt lat="45.10531" lon="2.70031">
        <ele>1615.1999511719</ele>
        <time>2020-08-03T13:28:05.000Z</time>
      </trkpt>
      <trkpt lat="45.10531" lon="2.70032">
        <ele>1614.5999755859</ele>
        <time>2020-08-03T13:28:10.000Z</time>
      </trkpt>
      <trkpt lat="45.10531" lon="2.70032">
        <ele>1614.4000244141</ele>
        <time>2020-08-03T13:28:13.000Z</time>
      </trkpt>
      <trkpt lat="45.10532" lon="2.70032">
        <ele>1615.8000488281</ele>
        <time>2020-08-03T13:28:20.000Z</time>
      </trkpt>
      <trkpt lat="45.10532" lon="2.70032">
        <ele>1616</ele>
        <time>2020-08-03T13:28:21.000Z</time>
      </trkpt>
      <trkpt lat="45.10532" lon="2.70031">
        <ele>1615.5999755859</ele>
        <time>2020-08-03T13:28:26.000Z</time>
      </trkpt>
      <trkpt lat="45.10532" lon="2.70031">
        <ele>1615.4000244141</ele>
        <time>2020-08-03T13:28:32.000Z</time>
      </trkpt>
      <trkpt lat="45.10533" lon="2.70031">
        <ele>1615.8000488281</ele>
        <time>2020-08-03T13:28:39.000Z</time>
      </trkpt>
      <trkpt lat="45.10533" lon="2.70031">
        <ele>1615.4000244141</ele>
        <time>2020-08-03T13:28:48.000Z</time>
      </trkpt>
      <trkpt lat="45.10531" lon="2.7003">
        <ele>1615.5999755859</ele>
        <time>2020-08-03T13:28:53.000Z</time>
      </trkpt>
      <trkpt lat="45.10529" lon="2.70027">
        <ele>1615.5999755859</ele>
        <time>2020-08-03T13:28:55.000Z</time>
      </trkpt>
      <trkpt lat="45.10524" lon="2.70017">
        <ele>1616.1999511719</ele>
        <time>2020-08-03T13:29:02.000Z</time>
      </trkpt>
      <trkpt lat="45.10523" lon="2.70015">
        <ele>1616.1999511719</ele>
        <time>2020-08-03T13:29:03.000Z</time>
      </trkpt>
      <trkpt lat="45.10516" lon="2.70006">
        <ele>1616</ele>
        <time>2020-08-03T13:29:11.000Z</time>
      </trkpt>
      <trkpt lat="45.10513" lon="2.70002">
        <ele>1616.4000244141</ele>
        <time>2020-08-03T13:29:16.000Z</time>
      </trkpt>
      <trkpt lat="45.10512" lon="2.69999">
        <ele>1617</ele>
        <time>2020-08-03T13:29:19.000Z</time>
      </trkpt>
      <trkpt lat="45.10511" lon="2.69999">
        <ele>1617</ele>
        <time>2020-08-03T13:29:20.000Z</time>
      </trkpt>
      <trkpt lat="45.1051" lon="2.69998">
        <ele>1617</ele>
        <time>2020-08-03T13:29:21.000Z</time>
      </trkpt>
      <trkpt lat="45.10509" lon="2.69995">
        <ele>1618</ele>
        <time>2020-08-03T13:29:26.000Z</time>
      </trkpt>
      <trkpt lat="45.10508" lon="2.69994">
        <ele>1618</ele>
        <time>2020-08-03T13:29:28.000Z</time>
      </trkpt>
      <trkpt lat="45.10507" lon="2.69989">
        <ele>1618.4000244141</ele>
        <time>2020-08-03T13:29:31.000Z</time>
      </trkpt>
      <trkpt lat="45.10505" lon="2.69988">
        <ele>1619.4000244141</ele>
        <time>2020-08-03T13:29:33.000Z</time>
      </trkpt>
      <trkpt lat="45.10503" lon="2.69986">
        <ele>1620.1999511719</ele>
        <time>2020-08-03T13:29:36.000Z</time>
      </trkpt>
      <trkpt lat="45.10502" lon="2.69986">
        <ele>1620.4000244141</ele>
        <time>2020-08-03T13:29:37.000Z</time>
      </trkpt>
      <trkpt lat="45.105" lon="2.69983">
        <ele>1620.5999755859</ele>
        <time>2020-08-03T13:29:40.000Z</time>
      </trkpt>
      <trkpt lat="45.10496" lon="2.69978">
        <ele>1621.4000244141</ele>
        <time>2020-08-03T13:29:45.000Z</time>
      </trkpt>
      <trkpt lat="45.10496" lon="2.69977">
        <ele>1621.8000488281</ele>
        <time>2020-08-03T13:29:46.000Z</time>
      </trkpt>
      <trkpt lat="45.10489" lon="2.69971">
        <ele>1623</ele>
        <time>2020-08-03T13:29:53.000Z</time>
      </trkpt>
      <trkpt lat="45.10486" lon="2.69969">
        <ele>1624</ele>
        <time>2020-08-03T13:29:57.000Z</time>
      </trkpt>
      <trkpt lat="45.10484" lon="2.69966">
        <ele>1624.5999755859</ele>
        <time>2020-08-03T13:30:00.000Z</time>
      </trkpt>
      <trkpt lat="45.10482" lon="2.69965">
        <ele>1625.1999511719</ele>
        <time>2020-08-03T13:30:02.000Z</time>
      </trkpt>
      <trkpt lat="45.10479" lon="2.69962">
        <ele>1626.1999511719</ele>
        <time>2020-08-03T13:30:06.000Z</time>
      </trkpt>
      <trkpt lat="45.10478" lon="2.69961">
        <ele>1626.1999511719</ele>
        <time>2020-08-03T13:30:07.000Z</time>
      </trkpt>
      <trkpt lat="45.10475" lon="2.69957">
        <ele>1627.1999511719</ele>
        <time>2020-08-03T13:30:11.000Z</time>
      </trkpt>
      <trkpt lat="45.10473" lon="2.69954">
        <ele>1627.4000244141</ele>
        <time>2020-08-03T13:30:13.000Z</time>
      </trkpt>
      <trkpt lat="45.10469" lon="2.69947">
        <ele>1628.1999511719</ele>
        <time>2020-08-03T13:30:19.000Z</time>
      </trkpt>
      <trkpt lat="45.10468" lon="2.69946">
        <ele>1628.1999511719</ele>
        <time>2020-08-03T13:30:20.000Z</time>
      </trkpt>
      <trkpt lat="45.10466" lon="2.69943">
        <ele>1628.4000244141</ele>
        <time>2020-08-03T13:30:23.000Z</time>
      </trkpt>
      <trkpt lat="45.10463" lon="2.69938">
        <ele>1628.1999511719</ele>
        <time>2020-08-03T13:30:28.000Z</time>
      </trkpt>
      <trkpt lat="45.10461" lon="2.69937">
        <ele>1628.1999511719</ele>
        <time>2020-08-03T13:30:30.000Z</time>
      </trkpt>
      <trkpt lat="45.10458" lon="2.69934">
        <ele>1629.4000244141</ele>
        <time>2020-08-03T13:30:34.000Z</time>
      </trkpt>
      <trkpt lat="45.10455" lon="2.69931">
        <ele>1630.5999755859</ele>
        <time>2020-08-03T13:30:37.000Z</time>
      </trkpt>
      <trkpt lat="45.10451" lon="2.69927">
        <ele>1630.8000488281</ele>
        <time>2020-08-03T13:30:41.000Z</time>
      </trkpt>
      <trkpt lat="45.10445" lon="2.69923">
        <ele>1631</ele>
        <time>2020-08-03T13:30:47.000Z</time>
      </trkpt>
      <trkpt lat="45.10444" lon="2.69923">
        <ele>1631</ele>
        <time>2020-08-03T13:30:48.000Z</time>
      </trkpt>
      <trkpt lat="45.10442" lon="2.69924">
        <ele>1631.4000244141</ele>
        <time>2020-08-03T13:30:50.000Z</time>
      </trkpt>
      <trkpt lat="45.10441" lon="2.69922">
        <ele>1631.4000244141</ele>
        <time>2020-08-03T13:30:52.000Z</time>
      </trkpt>
      <trkpt lat="45.10441" lon="2.6992">
        <ele>1631.4000244141</ele>
        <time>2020-08-03T13:30:53.000Z</time>
      </trkpt>
      <trkpt lat="45.10441" lon="2.69916">
        <ele>1629.8000488281</ele>
        <time>2020-08-03T13:30:58.000Z</time>
      </trkpt>
      <trkpt lat="45.1044" lon="2.69915">
        <ele>1629.1999511719</ele>
        <time>2020-08-03T13:30:59.000Z</time>
      </trkpt>
      <trkpt lat="45.10439" lon="2.69914">
        <ele>1629.1999511719</ele>
        <time>2020-08-03T13:31:00.000Z</time>
      </trkpt>
      <trkpt lat="45.10432" lon="2.69905">
        <ele>1628.4000244141</ele>
        <time>2020-08-03T13:31:08.000Z</time>
      </trkpt>
      <trkpt lat="45.10431" lon="2.69904">
        <ele>1628.1999511719</ele>
        <time>2020-08-03T13:31:09.000Z</time>
      </trkpt>
      <trkpt lat="45.10426" lon="2.69895">
        <ele>1627.1999511719</ele>
        <time>2020-08-03T13:31:16.000Z</time>
      </trkpt>
      <trkpt lat="45.10425" lon="2.69893">
        <ele>1627</ele>
        <time>2020-08-03T13:31:17.000Z</time>
      </trkpt>
      <trkpt lat="45.10423" lon="2.69877">
        <ele>1626.1999511719</ele>
        <time>2020-08-03T13:31:27.000Z</time>
      </trkpt>
      <trkpt lat="45.10422" lon="2.69872">
        <ele>1626</ele>
        <time>2020-08-03T13:31:30.000Z</time>
      </trkpt>
      <trkpt lat="45.10421" lon="2.69866">
        <ele>1625.1999511719</ele>
        <time>2020-08-03T13:31:34.000Z</time>
      </trkpt>
      <trkpt lat="45.10421" lon="2.69865">
        <ele>1624.8000488281</ele>
        <time>2020-08-03T13:31:35.000Z</time>
      </trkpt>
      <trkpt lat="45.10419" lon="2.69859">
        <ele>1623.8000488281</ele>
        <time>2020-08-03T13:31:38.000Z</time>
      </trkpt>
      <trkpt lat="45.10417" lon="2.69854">
        <ele>1623.1999511719</ele>
        <time>2020-08-03T13:31:42.000Z</time>
      </trkpt>
      <trkpt lat="45.10413" lon="2.69842">
        <ele>1622.8000488281</ele>
        <time>2020-08-03T13:31:50.000Z</time>
      </trkpt>
      <trkpt lat="45.1041" lon="2.69833">
        <ele>1621.8000488281</ele>
        <time>2020-08-03T13:31:55.000Z</time>
      </trkpt>
      <trkpt lat="45.10409" lon="2.6983">
        <ele>1620.5999755859</ele>
        <time>2020-08-03T13:31:58.000Z</time>
      </trkpt>
      <trkpt lat="45.10407" lon="2.69825">
        <ele>1620.1999511719</ele>
        <time>2020-08-03T13:32:06.000Z</time>
      </trkpt>
      <trkpt lat="45.10406" lon="2.69823">
        <ele>1620.4000244141</ele>
        <time>2020-08-03T13:32:09.000Z</time>
      </trkpt>
      <trkpt lat="45.10405" lon="2.6982">
        <ele>1620.5999755859</ele>
        <time>2020-08-03T13:32:12.000Z</time>
      </trkpt>
      <trkpt lat="45.10406" lon="2.6982">
        <ele>1620.1999511719</ele>
        <time>2020-08-03T13:32:18.000Z</time>
      </trkpt>
      <trkpt lat="45.10405" lon="2.69821">
        <ele>1619.5999755859</ele>
        <time>2020-08-03T13:32:27.000Z</time>
      </trkpt>
      <trkpt lat="45.10405" lon="2.69819">
        <ele>1620.5999755859</ele>
        <time>2020-08-03T13:32:32.000Z</time>
      </trkpt>
      <trkpt lat="45.10405" lon="2.69817">
        <ele>1620.4000244141</ele>
        <time>2020-08-03T13:32:33.000Z</time>
      </trkpt>
      <trkpt lat="45.10404" lon="2.69814">
        <ele>1620.4000244141</ele>
        <time>2020-08-03T13:32:35.000Z</time>
      </trkpt>
      <trkpt lat="45.104" lon="2.69801">
        <ele>1619.5999755859</ele>
        <time>2020-08-03T13:32:42.000Z</time>
      </trkpt>
      <trkpt lat="45.10398" lon="2.69796">
        <ele>1619.4000244141</ele>
        <time>2020-08-03T13:32:46.000Z</time>
      </trkpt>
      <trkpt lat="45.10396" lon="2.69788">
        <ele>1618.1999511719</ele>
        <time>2020-08-03T13:32:51.000Z</time>
      </trkpt>
      <trkpt lat="45.10395" lon="2.69784">
        <ele>1618.4000244141</ele>
        <time>2020-08-03T13:32:53.000Z</time>
      </trkpt>
      <trkpt lat="45.1039" lon="2.69769">
        <ele>1618.1999511719</ele>
        <time>2020-08-03T13:33:02.000Z</time>
      </trkpt>
      <trkpt lat="45.10386" lon="2.69759">
        <ele>1618</ele>
        <time>2020-08-03T13:33:09.000Z</time>
      </trkpt>
      <trkpt lat="45.10383" lon="2.69751">
        <ele>1618.1999511719</ele>
        <time>2020-08-03T13:33:15.000Z</time>
      </trkpt>
      <trkpt lat="45.10384" lon="2.69748">
        <ele>1619</ele>
        <time>2020-08-03T13:33:18.000Z</time>
      </trkpt>
      <trkpt lat="45.10384" lon="2.69746">
        <ele>1619.5999755859</ele>
        <time>2020-08-03T13:33:19.000Z</time>
      </trkpt>
      <trkpt lat="45.10383" lon="2.69743">
        <ele>1620.4000244141</ele>
        <time>2020-08-03T13:33:22.000Z</time>
      </trkpt>
      <trkpt lat="45.10383" lon="2.6974">
        <ele>1620.5999755859</ele>
        <time>2020-08-03T13:33:24.000Z</time>
      </trkpt>
      <trkpt lat="45.10383" lon="2.69735">
        <ele>1621.8000488281</ele>
        <time>2020-08-03T13:33:28.000Z</time>
      </trkpt>
      <trkpt lat="45.10383" lon="2.69734">
        <ele>1621.8000488281</ele>
        <time>2020-08-03T13:33:29.000Z</time>
      </trkpt>
      <trkpt lat="45.10382" lon="2.69732">
        <ele>1622</ele>
        <time>2020-08-03T13:33:32.000Z</time>
      </trkpt>
      <trkpt lat="45.10382" lon="2.69726">
        <ele>1622.4000244141</ele>
        <time>2020-08-03T13:33:36.000Z</time>
      </trkpt>
      <trkpt lat="45.10382" lon="2.69723">
        <ele>1623</ele>
        <time>2020-08-03T13:33:38.000Z</time>
      </trkpt>
      <trkpt lat="45.1038" lon="2.69714">
        <ele>1623.4000244141</ele>
        <time>2020-08-03T13:33:43.000Z</time>
      </trkpt>
      <trkpt lat="45.10379" lon="2.69712">
        <ele>1623.4000244141</ele>
        <time>2020-08-03T13:33:44.000Z</time>
      </trkpt>
      <trkpt lat="45.10376" lon="2.697">
        <ele>1623.8000488281</ele>
        <time>2020-08-03T13:33:52.000Z</time>
      </trkpt>
      <trkpt lat="45.10372" lon="2.69685">
        <ele>1622.8000488281</ele>
        <time>2020-08-03T13:34:01.000Z</time>
      </trkpt>
      <trkpt lat="45.1037" lon="2.69681">
        <ele>1622.8000488281</ele>
        <time>2020-08-03T13:34:04.000Z</time>
      </trkpt>
      <trkpt lat="45.10366" lon="2.69671">
        <ele>1622.5999755859</ele>
        <time>2020-08-03T13:34:10.000Z</time>
      </trkpt>
      <trkpt lat="45.10365" lon="2.6967">
        <ele>1622.5999755859</ele>
        <time>2020-08-03T13:34:11.000Z</time>
      </trkpt>
      <trkpt lat="45.10364" lon="2.69664">
        <ele>1622.5999755859</ele>
        <time>2020-08-03T13:34:15.000Z</time>
      </trkpt>
      <trkpt lat="45.10364" lon="2.69663">
        <ele>1622.5999755859</ele>
        <time>2020-08-03T13:34:16.000Z</time>
      </trkpt>
      <trkpt lat="45.10363" lon="2.69657">
        <ele>1622</ele>
        <time>2020-08-03T13:34:21.000Z</time>
      </trkpt>
      <trkpt lat="45.10362" lon="2.69655">
        <ele>1622.1999511719</ele>
        <time>2020-08-03T13:34:24.000Z</time>
      </trkpt>
      <trkpt lat="45.1036" lon="2.69653">
        <ele>1622.1999511719</ele>
        <time>2020-08-03T13:34:31.000Z</time>
      </trkpt>
      <trkpt lat="45.10359" lon="2.69652">
        <ele>1622.1999511719</ele>
        <time>2020-08-03T13:34:39.000Z</time>
      </trkpt>
      <trkpt lat="45.10359" lon="2.6965">
        <ele>1622.4000244141</ele>
        <time>2020-08-03T13:34:48.000Z</time>
      </trkpt>
      <trkpt lat="45.10358" lon="2.69646">
        <ele>1621.5999755859</ele>
        <time>2020-08-03T13:34:51.000Z</time>
      </trkpt>
      <trkpt lat="45.10358" lon="2.69642">
        <ele>1621.1999511719</ele>
        <time>2020-08-03T13:34:54.000Z</time>
      </trkpt>
      <trkpt lat="45.10358" lon="2.6964">
        <ele>1621</ele>
        <time>2020-08-03T13:34:55.000Z</time>
      </trkpt>
      <trkpt lat="45.10356" lon="2.69635">
        <ele>1619.8000488281</ele>
        <time>2020-08-03T13:34:59.000Z</time>
      </trkpt>
      <trkpt lat="45.10355" lon="2.69633">
        <ele>1619.4000244141</ele>
        <time>2020-08-03T13:35:01.000Z</time>
      </trkpt>
      <trkpt lat="45.10354" lon="2.69631">
        <ele>1618.5999755859</ele>
        <time>2020-08-03T13:35:03.000Z</time>
      </trkpt>
      <trkpt lat="45.10352" lon="2.69625">
        <ele>1617.5999755859</ele>
        <time>2020-08-03T13:35:07.000Z</time>
      </trkpt>
      <trkpt lat="45.10352" lon="2.69624">
        <ele>1617.5999755859</ele>
        <time>2020-08-03T13:35:08.000Z</time>
      </trkpt>
      <trkpt lat="45.10351" lon="2.69611">
        <ele>1617.8000488281</ele>
        <time>2020-08-03T13:35:16.000Z</time>
      </trkpt>
      <trkpt lat="45.10348" lon="2.69597">
        <ele>1618</ele>
        <time>2020-08-03T13:35:24.000Z</time>
      </trkpt>
      <trkpt lat="45.10347" lon="2.69586">
        <ele>1617</ele>
        <time>2020-08-03T13:35:31.000Z</time>
      </trkpt>
      <trkpt lat="45.10347" lon="2.69584">
        <ele>1616.5999755859</ele>
        <time>2020-08-03T13:35:32.000Z</time>
      </trkpt>
      <trkpt lat="45.10348" lon="2.69576">
        <ele>1615.4000244141</ele>
        <time>2020-08-03T13:35:37.000Z</time>
      </trkpt>
      <trkpt lat="45.10348" lon="2.69574">
        <ele>1615</ele>
        <time>2020-08-03T13:35:38.000Z</time>
      </trkpt>
      <trkpt lat="45.10348" lon="2.69568">
        <ele>1614.4000244141</ele>
        <time>2020-08-03T13:35:42.000Z</time>
      </trkpt>
      <trkpt lat="45.10345" lon="2.69565">
        <ele>1613.8000488281</ele>
        <time>2020-08-03T13:35:45.000Z</time>
      </trkpt>
      <trkpt lat="45.10344" lon="2.69562">
        <ele>1613.1999511719</ele>
        <time>2020-08-03T13:35:47.000Z</time>
      </trkpt>
      <trkpt lat="45.10343" lon="2.69555">
        <ele>1612.1999511719</ele>
        <time>2020-08-03T13:35:53.000Z</time>
      </trkpt>
      <trkpt lat="45.10343" lon="2.69553">
        <ele>1612</ele>
        <time>2020-08-03T13:35:54.000Z</time>
      </trkpt>
      <trkpt lat="45.10345" lon="2.69549">
        <ele>1611.4000244141</ele>
        <time>2020-08-03T13:35:58.000Z</time>
      </trkpt>
      <trkpt lat="45.10345" lon="2.69548">
        <ele>1611</ele>
        <time>2020-08-03T13:35:59.000Z</time>
      </trkpt>
      <trkpt lat="45.10344" lon="2.69547">
        <ele>1610.4000244141</ele>
        <time>2020-08-03T13:36:10.000Z</time>
      </trkpt>
      <trkpt lat="45.1034" lon="2.69538">
        <ele>1611.4000244141</ele>
        <time>2020-08-03T13:36:16.000Z</time>
      </trkpt>
      <trkpt lat="45.10339" lon="2.69535">
        <ele>1611.4000244141</ele>
        <time>2020-08-03T13:36:19.000Z</time>
      </trkpt>
      <trkpt lat="45.10337" lon="2.69533">
        <ele>1611.4000244141</ele>
        <time>2020-08-03T13:36:21.000Z</time>
      </trkpt>
      <trkpt lat="45.10336" lon="2.69532">
        <ele>1612</ele>
        <time>2020-08-03T13:36:24.000Z</time>
      </trkpt>
      <trkpt lat="45.10334" lon="2.6953">
        <ele>1612.8000488281</ele>
        <time>2020-08-03T13:36:28.000Z</time>
      </trkpt>
      <trkpt lat="45.10332" lon="2.69529">
        <ele>1613</ele>
        <time>2020-08-03T13:36:30.000Z</time>
      </trkpt>
      <trkpt lat="45.10329" lon="2.69528">
        <ele>1614</ele>
        <time>2020-08-03T13:36:34.000Z</time>
      </trkpt>
      <trkpt lat="45.10329" lon="2.69528">
        <ele>1614.4000244141</ele>
        <time>2020-08-03T13:36:35.000Z</time>
      </trkpt>
      <trkpt lat="45.10326" lon="2.69527">
        <ele>1615.4000244141</ele>
        <time>2020-08-03T13:36:40.000Z</time>
      </trkpt>
      <trkpt lat="45.10325" lon="2.69526">
        <ele>1615.5999755859</ele>
        <time>2020-08-03T13:36:41.000Z</time>
      </trkpt>
      <trkpt lat="45.10323" lon="2.69524">
        <ele>1615.8000488281</ele>
        <time>2020-08-03T13:36:44.000Z</time>
      </trkpt>
      <trkpt lat="45.10322" lon="2.6952">
        <ele>1616.5999755859</ele>
        <time>2020-08-03T13:36:47.000Z</time>
      </trkpt>
      <trkpt lat="45.10321" lon="2.69519">
        <ele>1617</ele>
        <time>2020-08-03T13:36:49.000Z</time>
      </trkpt>
      <trkpt lat="45.10319" lon="2.69518">
        <ele>1617.8000488281</ele>
        <time>2020-08-03T13:36:53.000Z</time>
      </trkpt>
      <trkpt lat="45.10318" lon="2.69517">
        <ele>1618.4000244141</ele>
        <time>2020-08-03T13:36:55.000Z</time>
      </trkpt>
      <trkpt lat="45.10318" lon="2.69516">
        <ele>1619</ele>
        <time>2020-08-03T13:36:57.000Z</time>
      </trkpt>
      <trkpt lat="45.10316" lon="2.69516">
        <ele>1619.4000244141</ele>
        <time>2020-08-03T13:37:00.000Z</time>
      </trkpt>
      <trkpt lat="45.10315" lon="2.69515">
        <ele>1620</ele>
        <time>2020-08-03T13:37:03.000Z</time>
      </trkpt>
      <trkpt lat="45.10314" lon="2.69512">
        <ele>1621.4000244141</ele>
        <time>2020-08-03T13:37:06.000Z</time>
      </trkpt>
      <trkpt lat="45.10314" lon="2.69512">
        <ele>1622</ele>
        <time>2020-08-03T13:37:07.000Z</time>
      </trkpt>
      <trkpt lat="45.10314" lon="2.69512">
        <ele>1622.5999755859</ele>
        <time>2020-08-03T13:37:08.000Z</time>
      </trkpt>
      <trkpt lat="45.10311" lon="2.69509">
        <ele>1623.4000244141</ele>
        <time>2020-08-03T13:37:14.000Z</time>
      </trkpt>
      <trkpt lat="45.10311" lon="2.69509">
        <ele>1623.8000488281</ele>
        <time>2020-08-03T13:37:15.000Z</time>
      </trkpt>
      <trkpt lat="45.1031" lon="2.69508">
        <ele>1625</ele>
        <time>2020-08-03T13:37:18.000Z</time>
      </trkpt>
      <trkpt lat="45.10307" lon="2.69508">
        <ele>1625.8000488281</ele>
        <time>2020-08-03T13:37:21.000Z</time>
      </trkpt>
      <trkpt lat="45.10307" lon="2.69507">
        <ele>1626</ele>
        <time>2020-08-03T13:37:22.000Z</time>
      </trkpt>
      <trkpt lat="45.10305" lon="2.69505">
        <ele>1627.1999511719</ele>
        <time>2020-08-03T13:37:27.000Z</time>
      </trkpt>
      <trkpt lat="45.10305" lon="2.69505">
        <ele>1627.4000244141</ele>
        <time>2020-08-03T13:37:28.000Z</time>
      </trkpt>
      <trkpt lat="45.10303" lon="2.69505">
        <ele>1628.1999511719</ele>
        <time>2020-08-03T13:37:31.000Z</time>
      </trkpt>
      <trkpt lat="45.10302" lon="2.69501">
        <ele>1629</ele>
        <time>2020-08-03T13:37:34.000Z</time>
      </trkpt>
      <trkpt lat="45.10302" lon="2.69501">
        <ele>1629.1999511719</ele>
        <time>2020-08-03T13:37:35.000Z</time>
      </trkpt>
      <trkpt lat="45.10301" lon="2.69498">
        <ele>1630.5999755859</ele>
        <time>2020-08-03T13:37:39.000Z</time>
      </trkpt>
      <trkpt lat="45.10301" lon="2.69497">
        <ele>1630.8000488281</ele>
        <time>2020-08-03T13:37:40.000Z</time>
      </trkpt>
      <trkpt lat="45.10299" lon="2.69493">
        <ele>1631.4000244141</ele>
        <time>2020-08-03T13:37:46.000Z</time>
      </trkpt>
      <trkpt lat="45.10299" lon="2.69493">
        <ele>1631.4000244141</ele>
        <time>2020-08-03T13:37:47.000Z</time>
      </trkpt>
      <trkpt lat="45.10298" lon="2.69492">
        <ele>1631.5999755859</ele>
        <time>2020-08-03T13:37:48.000Z</time>
      </trkpt>
      <trkpt lat="45.10297" lon="2.6949">
        <ele>1632</ele>
        <time>2020-08-03T13:37:52.000Z</time>
      </trkpt>
      <trkpt lat="45.10295" lon="2.6949">
        <ele>1632.8000488281</ele>
        <time>2020-08-03T13:37:54.000Z</time>
      </trkpt>
      <trkpt lat="45.10292" lon="2.6949">
        <ele>1633.5999755859</ele>
        <time>2020-08-03T13:37:57.000Z</time>
      </trkpt>
      <trkpt lat="45.1029" lon="2.69488">
        <ele>1633.1999511719</ele>
        <time>2020-08-03T13:38:00.000Z</time>
      </trkpt>
      <trkpt lat="45.10287" lon="2.69487">
        <ele>1632.5999755859</ele>
        <time>2020-08-03T13:38:07.000Z</time>
      </trkpt>
      <trkpt lat="45.10287" lon="2.69487">
        <ele>1632.5999755859</ele>
        <time>2020-08-03T13:38:09.000Z</time>
      </trkpt>
      <trkpt lat="45.10287" lon="2.69486">
        <ele>1632.5999755859</ele>
        <time>2020-08-03T13:38:20.000Z</time>
      </trkpt>
      <trkpt lat="45.10287" lon="2.69483">
        <ele>1633.5999755859</ele>
        <time>2020-08-03T13:38:29.000Z</time>
      </trkpt>
      <trkpt lat="45.10285" lon="2.6948">
        <ele>1633.8000488281</ele>
        <time>2020-08-03T13:38:34.000Z</time>
      </trkpt>
      <trkpt lat="45.10284" lon="2.69479">
        <ele>1634</ele>
        <time>2020-08-03T13:38:36.000Z</time>
      </trkpt>
      <trkpt lat="45.1028" lon="2.69476">
        <ele>1635</ele>
        <time>2020-08-03T13:38:40.000Z</time>
      </trkpt>
      <trkpt lat="45.1028" lon="2.69475">
        <ele>1635.1999511719</ele>
        <time>2020-08-03T13:38:41.000Z</time>
      </trkpt>
      <trkpt lat="45.10279" lon="2.69474">
        <ele>1635.4000244141</ele>
        <time>2020-08-03T13:38:43.000Z</time>
      </trkpt>
      <trkpt lat="45.10276" lon="2.69472">
        <ele>1636.1999511719</ele>
        <time>2020-08-03T13:38:48.000Z</time>
      </trkpt>
      <trkpt lat="45.10275" lon="2.69471">
        <ele>1636.4000244141</ele>
        <time>2020-08-03T13:38:50.000Z</time>
      </trkpt>
      <trkpt lat="45.10274" lon="2.69467">
        <ele>1637.4000244141</ele>
        <time>2020-08-03T13:38:53.000Z</time>
      </trkpt>
      <trkpt lat="45.10273" lon="2.69465">
        <ele>1638</ele>
        <time>2020-08-03T13:38:56.000Z</time>
      </trkpt>
      <trkpt lat="45.10272" lon="2.69464">
        <ele>1638.5999755859</ele>
        <time>2020-08-03T13:38:58.000Z</time>
      </trkpt>
      <trkpt lat="45.10271" lon="2.69464">
        <ele>1639</ele>
        <time>2020-08-03T13:38:59.000Z</time>
      </trkpt>
      <trkpt lat="45.10271" lon="2.6946">
        <ele>1639.5999755859</ele>
        <time>2020-08-03T13:39:02.000Z</time>
      </trkpt>
      <trkpt lat="45.10271" lon="2.69459">
        <ele>1640</ele>
        <time>2020-08-03T13:39:03.000Z</time>
      </trkpt>
      <trkpt lat="45.1027" lon="2.69458">
        <ele>1640.4000244141</ele>
        <time>2020-08-03T13:39:05.000Z</time>
      </trkpt>
      <trkpt lat="45.10268" lon="2.69455">
        <ele>1641</ele>
        <time>2020-08-03T13:39:09.000Z</time>
      </trkpt>
      <trkpt lat="45.10268" lon="2.69452">
        <ele>1642.1999511719</ele>
        <time>2020-08-03T13:39:12.000Z</time>
      </trkpt>
      <trkpt lat="45.10268" lon="2.6945">
        <ele>1643.5999755859</ele>
        <time>2020-08-03T13:39:15.000Z</time>
      </trkpt>
      <trkpt lat="45.10267" lon="2.69446">
        <ele>1644.4000244141</ele>
        <time>2020-08-03T13:39:19.000Z</time>
      </trkpt>
      <trkpt lat="45.10267" lon="2.69443">
        <ele>1644.5999755859</ele>
        <time>2020-08-03T13:39:21.000Z</time>
      </trkpt>
      <trkpt lat="45.10266" lon="2.69434">
        <ele>1644.8000488281</ele>
        <time>2020-08-03T13:39:28.000Z</time>
      </trkpt>
      <trkpt lat="45.10266" lon="2.69432">
        <ele>1644.8000488281</ele>
        <time>2020-08-03T13:39:29.000Z</time>
      </trkpt>
      <trkpt lat="45.10264" lon="2.69429">
        <ele>1644.8000488281</ele>
        <time>2020-08-03T13:39:32.000Z</time>
      </trkpt>
      <trkpt lat="45.10263" lon="2.69427">
        <ele>1644.5999755859</ele>
        <time>2020-08-03T13:39:34.000Z</time>
      </trkpt>
      <trkpt lat="45.10259" lon="2.6942">
        <ele>1645</ele>
        <time>2020-08-03T13:39:41.000Z</time>
      </trkpt>
      <trkpt lat="45.10258" lon="2.69418">
        <ele>1645.8000488281</ele>
        <time>2020-08-03T13:39:43.000Z</time>
      </trkpt>
      <trkpt lat="45.10256" lon="2.69414">
        <ele>1646.1999511719</ele>
        <time>2020-08-03T13:39:47.000Z</time>
      </trkpt>
      <trkpt lat="45.10256" lon="2.69413">
        <ele>1646.5999755859</ele>
        <time>2020-08-03T13:39:48.000Z</time>
      </trkpt>
      <trkpt lat="45.10255" lon="2.69412">
        <ele>1647</ele>
        <time>2020-08-03T13:39:49.000Z</time>
      </trkpt>
      <trkpt lat="45.10255" lon="2.69411">
        <ele>1647.1999511719</ele>
        <time>2020-08-03T13:39:50.000Z</time>
      </trkpt>
      <trkpt lat="45.10252" lon="2.69404">
        <ele>1647</ele>
        <time>2020-08-03T13:39:55.000Z</time>
      </trkpt>
      <trkpt lat="45.1025" lon="2.69395">
        <ele>1647.4000244141</ele>
        <time>2020-08-03T13:40:02.000Z</time>
      </trkpt>
      <trkpt lat="45.10248" lon="2.69388">
        <ele>1648</ele>
        <time>2020-08-03T13:40:06.000Z</time>
      </trkpt>
      <trkpt lat="45.10247" lon="2.69383">
        <ele>1648.4000244141</ele>
        <time>2020-08-03T13:40:09.000Z</time>
      </trkpt>
      <trkpt lat="45.10245" lon="2.69379">
        <ele>1648.4000244141</ele>
        <time>2020-08-03T13:40:12.000Z</time>
      </trkpt>
      <trkpt lat="45.10244" lon="2.69373">
        <ele>1647.8000488281</ele>
        <time>2020-08-03T13:40:16.000Z</time>
      </trkpt>
      <trkpt lat="45.10238" lon="2.69365">
        <ele>1647.1999511719</ele>
        <time>2020-08-03T13:40:24.000Z</time>
      </trkpt>
      <trkpt lat="45.10238" lon="2.69353">
        <ele>1648.4000244141</ele>
        <time>2020-08-03T13:40:32.000Z</time>
      </trkpt>
      <trkpt lat="45.1024" lon="2.69349">
        <ele>1649.4000244141</ele>
        <time>2020-08-03T13:40:35.000Z</time>
      </trkpt>
      <trkpt lat="45.10242" lon="2.69344">
        <ele>1649.8000488281</ele>
        <time>2020-08-03T13:40:40.000Z</time>
      </trkpt>
      <trkpt lat="45.10243" lon="2.69331">
        <ele>1649</ele>
        <time>2020-08-03T13:40:48.000Z</time>
      </trkpt>
      <trkpt lat="45.10244" lon="2.69326">
        <ele>1648.8000488281</ele>
        <time>2020-08-03T13:40:52.000Z</time>
      </trkpt>
      <trkpt lat="45.10245" lon="2.69322">
        <ele>1649.1999511719</ele>
        <time>2020-08-03T13:40:55.000Z</time>
      </trkpt>
      <trkpt lat="45.10247" lon="2.69311">
        <ele>1649.1999511719</ele>
        <time>2020-08-03T13:41:02.000Z</time>
      </trkpt>
      <trkpt lat="45.10246" lon="2.69304">
        <ele>1648.1999511719</ele>
        <time>2020-08-03T13:41:07.000Z</time>
      </trkpt>
      <trkpt lat="45.10246" lon="2.69303">
        <ele>1648.1999511719</ele>
        <time>2020-08-03T13:41:08.000Z</time>
      </trkpt>
      <trkpt lat="45.10246" lon="2.69288">
        <ele>1647.4000244141</ele>
        <time>2020-08-03T13:41:17.000Z</time>
      </trkpt>
      <trkpt lat="45.10246" lon="2.69286">
        <ele>1647</ele>
        <time>2020-08-03T13:41:18.000Z</time>
      </trkpt>
      <trkpt lat="45.10245" lon="2.69281">
        <ele>1646.1999511719</ele>
        <time>2020-08-03T13:41:23.000Z</time>
      </trkpt>
      <trkpt lat="45.10245" lon="2.6928">
        <ele>1646</ele>
        <time>2020-08-03T13:41:25.000Z</time>
      </trkpt>
      <trkpt lat="45.10244" lon="2.6928">
        <ele>1646</ele>
        <time>2020-08-03T13:41:32.000Z</time>
      </trkpt>
      <trkpt lat="45.10244" lon="2.6928">
        <ele>1646.1999511719</ele>
        <time>2020-08-03T13:41:43.000Z</time>
      </trkpt>
      <trkpt lat="45.10244" lon="2.69278">
        <ele>1646.1999511719</ele>
        <time>2020-08-03T13:41:51.000Z</time>
      </trkpt>
      <trkpt lat="45.10246" lon="2.69275">
        <ele>1646.4000244141</ele>
        <time>2020-08-03T13:41:53.000Z</time>
      </trkpt>
      <trkpt lat="45.10246" lon="2.69274">
        <ele>1646.8000488281</ele>
        <time>2020-08-03T13:41:55.000Z</time>
      </trkpt>
      <trkpt lat="45.10248" lon="2.69272">
        <ele>1647.1999511719</ele>
        <time>2020-08-03T13:41:57.000Z</time>
      </trkpt>
      <trkpt lat="45.10249" lon="2.69262">
        <ele>1647.5999755859</ele>
        <time>2020-08-03T13:42:03.000Z</time>
      </trkpt>
      <trkpt lat="45.1025" lon="2.69261">
        <ele>1647.5999755859</ele>
        <time>2020-08-03T13:42:06.000Z</time>
      </trkpt>
      <trkpt lat="45.1025" lon="2.69259">
        <ele>1647.5999755859</ele>
        <time>2020-08-03T13:42:07.000Z</time>
      </trkpt>
      <trkpt lat="45.10251" lon="2.6925">
        <ele>1648.1999511719</ele>
        <time>2020-08-03T13:42:13.000Z</time>
      </trkpt>
      <trkpt lat="45.10251" lon="2.69249">
        <ele>1648.1999511719</ele>
        <time>2020-08-03T13:42:14.000Z</time>
      </trkpt>
      <trkpt lat="45.10253" lon="2.69239">
        <ele>1649</ele>
        <time>2020-08-03T13:42:21.000Z</time>
      </trkpt>
      <trkpt lat="45.10259" lon="2.69231">
        <ele>1648.5999755859</ele>
        <time>2020-08-03T13:42:28.000Z</time>
      </trkpt>
      <trkpt lat="45.10262" lon="2.69224">
        <ele>1649.4000244141</ele>
        <time>2020-08-03T13:42:34.000Z</time>
      </trkpt>
      <trkpt lat="45.10263" lon="2.69221">
        <ele>1649.4000244141</ele>
        <time>2020-08-03T13:42:36.000Z</time>
      </trkpt>
      <trkpt lat="45.10267" lon="2.69211">
        <ele>1649.5999755859</ele>
        <time>2020-08-03T13:42:43.000Z</time>
      </trkpt>
      <trkpt lat="45.10271" lon="2.69203">
        <ele>1649.4000244141</ele>
        <time>2020-08-03T13:42:49.000Z</time>
      </trkpt>
      <trkpt lat="45.10272" lon="2.69195">
        <ele>1649.1999511719</ele>
        <time>2020-08-03T13:42:54.000Z</time>
      </trkpt>
      <trkpt lat="45.10273" lon="2.69192">
        <ele>1649.1999511719</ele>
        <time>2020-08-03T13:42:56.000Z</time>
      </trkpt>
      <trkpt lat="45.10277" lon="2.6918">
        <ele>1648.1999511719</ele>
        <time>2020-08-03T13:43:03.000Z</time>
      </trkpt>
      <trkpt lat="45.10277" lon="2.69179">
        <ele>1648.1999511719</ele>
        <time>2020-08-03T13:43:04.000Z</time>
      </trkpt>
      <trkpt lat="45.10281" lon="2.69164">
        <ele>1647.5999755859</ele>
        <time>2020-08-03T13:43:13.000Z</time>
      </trkpt>
      <trkpt lat="45.10284" lon="2.69157">
        <ele>1647.1999511719</ele>
        <time>2020-08-03T13:43:18.000Z</time>
      </trkpt>
      <trkpt lat="45.10285" lon="2.69153">
        <ele>1647</ele>
        <time>2020-08-03T13:43:20.000Z</time>
      </trkpt>
      <trkpt lat="45.10289" lon="2.6914">
        <ele>1646.5999755859</ele>
        <time>2020-08-03T13:43:28.000Z</time>
      </trkpt>
      <trkpt lat="45.1029" lon="2.69135">
        <ele>1646.5999755859</ele>
        <time>2020-08-03T13:43:31.000Z</time>
      </trkpt>
      <trkpt lat="45.10292" lon="2.69133">
        <ele>1646</ele>
        <time>2020-08-03T13:43:33.000Z</time>
      </trkpt>
      <trkpt lat="45.10294" lon="2.6913">
        <ele>1645.5999755859</ele>
        <time>2020-08-03T13:43:35.000Z</time>
      </trkpt>
      <trkpt lat="45.10296" lon="2.69122">
        <ele>1644.8000488281</ele>
        <time>2020-08-03T13:43:40.000Z</time>
      </trkpt>
      <trkpt lat="45.10298" lon="2.69115">
        <ele>1644.4000244141</ele>
        <time>2020-08-03T13:43:44.000Z</time>
      </trkpt>
      <trkpt lat="45.10301" lon="2.69102">
        <ele>1643.8000488281</ele>
        <time>2020-08-03T13:43:52.000Z</time>
      </trkpt>
      <trkpt lat="45.10305" lon="2.69088">
        <ele>1642.5999755859</ele>
        <time>2020-08-03T13:44:00.000Z</time>
      </trkpt>
      <trkpt lat="45.10307" lon="2.69082">
        <ele>1641.5999755859</ele>
        <time>2020-08-03T13:44:04.000Z</time>
      </trkpt>
      <trkpt lat="45.10309" lon="2.69078">
        <ele>1641.5999755859</ele>
        <time>2020-08-03T13:44:07.000Z</time>
      </trkpt>
      <trkpt lat="45.1031" lon="2.69077">
        <ele>1640.8000488281</ele>
        <time>2020-08-03T13:44:12.000Z</time>
      </trkpt>
      <trkpt lat="45.1031" lon="2.69077">
        <ele>1640.4000244141</ele>
        <time>2020-08-03T13:44:13.000Z</time>
      </trkpt>
      <trkpt lat="45.10309" lon="2.69077">
        <ele>1640.8000488281</ele>
        <time>2020-08-03T13:44:22.000Z</time>
      </trkpt>
      <trkpt lat="45.10309" lon="2.69076">
        <ele>1641</ele>
        <time>2020-08-03T13:44:27.000Z</time>
      </trkpt>
      <trkpt lat="45.10311" lon="2.69073">
        <ele>1641</ele>
        <time>2020-08-03T13:44:29.000Z</time>
      </trkpt>
      <trkpt lat="45.10317" lon="2.69062">
        <ele>1640.4000244141</ele>
        <time>2020-08-03T13:44:37.000Z</time>
      </trkpt>
      <trkpt lat="45.1032" lon="2.69054">
        <ele>1639.8000488281</ele>
        <time>2020-08-03T13:44:43.000Z</time>
      </trkpt>
      <trkpt lat="45.10323" lon="2.69046">
        <ele>1639.4000244141</ele>
        <time>2020-08-03T13:44:48.000Z</time>
      </trkpt>
      <trkpt lat="45.10324" lon="2.69043">
        <ele>1639.1999511719</ele>
        <time>2020-08-03T13:44:50.000Z</time>
      </trkpt>
      <trkpt lat="45.10325" lon="2.69034">
        <ele>1638.4000244141</ele>
        <time>2020-08-03T13:44:55.000Z</time>
      </trkpt>
      <trkpt lat="45.10325" lon="2.69032">
        <ele>1638.1999511719</ele>
        <time>2020-08-03T13:44:56.000Z</time>
      </trkpt>
      <trkpt lat="45.10325" lon="2.69031">
        <ele>1638.4000244141</ele>
        <time>2020-08-03T13:44:57.000Z</time>
      </trkpt>
      <trkpt lat="45.10324" lon="2.69026">
        <ele>1639.5999755859</ele>
        <time>2020-08-03T13:45:00.000Z</time>
      </trkpt>
      <trkpt lat="45.10324" lon="2.69017">
        <ele>1639.8000488281</ele>
        <time>2020-08-03T13:45:05.000Z</time>
      </trkpt>
      <trkpt lat="45.10324" lon="2.69009">
        <ele>1638.5999755859</ele>
        <time>2020-08-03T13:45:10.000Z</time>
      </trkpt>
      <trkpt lat="45.10325" lon="2.69002">
        <ele>1638</ele>
        <time>2020-08-03T13:45:14.000Z</time>
      </trkpt>
      <trkpt lat="45.10325" lon="2.68996">
        <ele>1637.4000244141</ele>
        <time>2020-08-03T13:45:17.000Z</time>
      </trkpt>
      <trkpt lat="45.10326" lon="2.68991">
        <ele>1638.8000488281</ele>
        <time>2020-08-03T13:45:21.000Z</time>
      </trkpt>
      <trkpt lat="45.10326" lon="2.68985">
        <ele>1639.1999511719</ele>
        <time>2020-08-03T13:45:25.000Z</time>
      </trkpt>
      <trkpt lat="45.10326" lon="2.68983">
        <ele>1639.1999511719</ele>
        <time>2020-08-03T13:45:27.000Z</time>
      </trkpt>
      <trkpt lat="45.10325" lon="2.68981">
        <ele>1639.1999511719</ele>
        <time>2020-08-03T13:45:28.000Z</time>
      </trkpt>
      <trkpt lat="45.10324" lon="2.68977">
        <ele>1639.4000244141</ele>
        <time>2020-08-03T13:45:31.000Z</time>
      </trkpt>
      <trkpt lat="45.10324" lon="2.68975">
        <ele>1639.5999755859</ele>
        <time>2020-08-03T13:45:33.000Z</time>
      </trkpt>
      <trkpt lat="45.10324" lon="2.68973">
        <ele>1640</ele>
        <time>2020-08-03T13:45:35.000Z</time>
      </trkpt>
      <trkpt lat="45.10324" lon="2.68968">
        <ele>1640.8000488281</ele>
        <time>2020-08-03T13:45:39.000Z</time>
      </trkpt>
      <trkpt lat="45.10325" lon="2.68966">
        <ele>1641</ele>
        <time>2020-08-03T13:45:40.000Z</time>
      </trkpt>
      <trkpt lat="45.10325" lon="2.68964">
        <ele>1641.4000244141</ele>
        <time>2020-08-03T13:45:42.000Z</time>
      </trkpt>
      <trkpt lat="45.10327" lon="2.68961">
        <ele>1641.8000488281</ele>
        <time>2020-08-03T13:45:45.000Z</time>
      </trkpt>
      <trkpt lat="45.10328" lon="2.68958">
        <ele>1642.1999511719</ele>
        <time>2020-08-03T13:45:47.000Z</time>
      </trkpt>
      <trkpt lat="45.10328" lon="2.68956">
        <ele>1642.5999755859</ele>
        <time>2020-08-03T13:45:49.000Z</time>
      </trkpt>
      <trkpt lat="45.1033" lon="2.68954">
        <ele>1642.8000488281</ele>
        <time>2020-08-03T13:45:51.000Z</time>
      </trkpt>
      <trkpt lat="45.1033" lon="2.68952">
        <ele>1642.8000488281</ele>
        <time>2020-08-03T13:45:52.000Z</time>
      </trkpt>
      <trkpt lat="45.10332" lon="2.68948">
        <ele>1643.1999511719</ele>
        <time>2020-08-03T13:45:55.000Z</time>
      </trkpt>
      <trkpt lat="45.10334" lon="2.68945">
        <ele>1643.5999755859</ele>
        <time>2020-08-03T13:45:58.000Z</time>
      </trkpt>
      <trkpt lat="45.10337" lon="2.68938">
        <ele>1644.4000244141</ele>
        <time>2020-08-03T13:46:04.000Z</time>
      </trkpt>
      <trkpt lat="45.10337" lon="2.68936">
        <ele>1644.4000244141</ele>
        <time>2020-08-03T13:46:05.000Z</time>
      </trkpt>
      <trkpt lat="45.10341" lon="2.68927">
        <ele>1644.5999755859</ele>
        <time>2020-08-03T13:46:12.000Z</time>
      </trkpt>
      <trkpt lat="45.10342" lon="2.68926">
        <ele>1644.4000244141</ele>
        <time>2020-08-03T13:46:13.000Z</time>
      </trkpt>
      <trkpt lat="45.10347" lon="2.6892">
        <ele>1644.1999511719</ele>
        <time>2020-08-03T13:46:19.000Z</time>
      </trkpt>
      <trkpt lat="45.10352" lon="2.68915">
        <ele>1644.8000488281</ele>
        <time>2020-08-03T13:46:25.000Z</time>
      </trkpt>
      <trkpt lat="45.10353" lon="2.68914">
        <ele>1645</ele>
        <time>2020-08-03T13:46:26.000Z</time>
      </trkpt>
      <trkpt lat="45.10355" lon="2.68912">
        <ele>1645.5999755859</ele>
        <time>2020-08-03T13:46:29.000Z</time>
      </trkpt>
      <trkpt lat="45.10356" lon="2.6891">
        <ele>1646.5999755859</ele>
        <time>2020-08-03T13:46:31.000Z</time>
      </trkpt>
      <trkpt lat="45.10358" lon="2.68907">
        <ele>1647.4000244141</ele>
        <time>2020-08-03T13:46:35.000Z</time>
      </trkpt>
      <trkpt lat="45.10358" lon="2.68905">
        <ele>1647.4000244141</ele>
        <time>2020-08-03T13:46:37.000Z</time>
      </trkpt>
      <trkpt lat="45.10359" lon="2.68902">
        <ele>1647.5999755859</ele>
        <time>2020-08-03T13:46:40.000Z</time>
      </trkpt>
      <trkpt lat="45.1036" lon="2.68897">
        <ele>1648.5999755859</ele>
        <time>2020-08-03T13:46:44.000Z</time>
      </trkpt>
      <trkpt lat="45.10361" lon="2.68895">
        <ele>1648.5999755859</ele>
        <time>2020-08-03T13:46:45.000Z</time>
      </trkpt>
      <trkpt lat="45.10363" lon="2.68885">
        <ele>1648.5999755859</ele>
        <time>2020-08-03T13:46:52.000Z</time>
      </trkpt>
      <trkpt lat="45.10365" lon="2.68876">
        <ele>1648.4000244141</ele>
        <time>2020-08-03T13:46:58.000Z</time>
      </trkpt>
      <trkpt lat="45.1037" lon="2.68864">
        <ele>1647.8000488281</ele>
        <time>2020-08-03T13:47:06.000Z</time>
      </trkpt>
      <trkpt lat="45.10372" lon="2.68856">
        <ele>1648.1999511719</ele>
        <time>2020-08-03T13:47:12.000Z</time>
      </trkpt>
      <trkpt lat="45.10373" lon="2.68843">
        <ele>1648</ele>
        <time>2020-08-03T13:47:20.000Z</time>
      </trkpt>
      <trkpt lat="45.10374" lon="2.68839">
        <ele>1648</ele>
        <time>2020-08-03T13:47:23.000Z</time>
      </trkpt>
      <trkpt lat="45.10373" lon="2.68835">
        <ele>1647.5999755859</ele>
        <time>2020-08-03T13:47:26.000Z</time>
      </trkpt>
      <trkpt lat="45.10373" lon="2.68827">
        <ele>1646.5999755859</ele>
        <time>2020-08-03T13:47:31.000Z</time>
      </trkpt>
      <trkpt lat="45.10372" lon="2.68822">
        <ele>1646.4000244141</ele>
        <time>2020-08-03T13:47:34.000Z</time>
      </trkpt>
      <trkpt lat="45.10371" lon="2.68813">
        <ele>1645.8000488281</ele>
        <time>2020-08-03T13:47:39.000Z</time>
      </trkpt>
      <trkpt lat="45.1037" lon="2.68812">
        <ele>1645.4000244141</ele>
        <time>2020-08-03T13:47:40.000Z</time>
      </trkpt>
      <trkpt lat="45.10369" lon="2.6881">
        <ele>1645</ele>
        <time>2020-08-03T13:47:41.000Z</time>
      </trkpt>
      <trkpt lat="45.10367" lon="2.68804">
        <ele>1644.4000244141</ele>
        <time>2020-08-03T13:47:45.000Z</time>
      </trkpt>
      <trkpt lat="45.10366" lon="2.68796">
        <ele>1643.5999755859</ele>
        <time>2020-08-03T13:47:49.000Z</time>
      </trkpt>
      <trkpt lat="45.10366" lon="2.68793">
        <ele>1643.1999511719</ele>
        <time>2020-08-03T13:47:51.000Z</time>
      </trkpt>
      <trkpt lat="45.10366" lon="2.68787">
        <ele>1642.8000488281</ele>
        <time>2020-08-03T13:47:55.000Z</time>
      </trkpt>
      <trkpt lat="45.10365" lon="2.68781">
        <ele>1641.8000488281</ele>
        <time>2020-08-03T13:47:59.000Z</time>
      </trkpt>
      <trkpt lat="45.10365" lon="2.68779">
        <ele>1641.1999511719</ele>
        <time>2020-08-03T13:48:01.000Z</time>
      </trkpt>
      <trkpt lat="45.10365" lon="2.68778">
        <ele>1641</ele>
        <time>2020-08-03T13:48:02.000Z</time>
      </trkpt>
      <trkpt lat="45.10365" lon="2.68776">
        <ele>1640.8000488281</ele>
        <time>2020-08-03T13:48:03.000Z</time>
      </trkpt>
      <trkpt lat="45.10365" lon="2.6877">
        <ele>1640.1999511719</ele>
        <time>2020-08-03T13:48:08.000Z</time>
      </trkpt>
      <trkpt lat="45.10366" lon="2.68767">
        <ele>1639.8000488281</ele>
        <time>2020-08-03T13:48:10.000Z</time>
      </trkpt>
      <trkpt lat="45.10366" lon="2.68762">
        <ele>1638.5999755859</ele>
        <time>2020-08-03T13:48:14.000Z</time>
      </trkpt>
      <trkpt lat="45.10366" lon="2.68757">
        <ele>1638.8000488281</ele>
        <time>2020-08-03T13:48:19.000Z</time>
      </trkpt>
      <trkpt lat="45.10367" lon="2.68746">
        <ele>1637.8000488281</ele>
        <time>2020-08-03T13:48:27.000Z</time>
      </trkpt>
      <trkpt lat="45.10368" lon="2.68743">
        <ele>1637.4000244141</ele>
        <time>2020-08-03T13:48:29.000Z</time>
      </trkpt>
      <trkpt lat="45.10368" lon="2.68738">
        <ele>1636.5999755859</ele>
        <time>2020-08-03T13:48:33.000Z</time>
      </trkpt>
      <trkpt lat="45.10369" lon="2.68733">
        <ele>1636.4000244141</ele>
        <time>2020-08-03T13:48:36.000Z</time>
      </trkpt>
      <trkpt lat="45.10369" lon="2.68729">
        <ele>1636.4000244141</ele>
        <time>2020-08-03T13:48:39.000Z</time>
      </trkpt>
      <trkpt lat="45.10369" lon="2.68723">
        <ele>1635.1999511719</ele>
        <time>2020-08-03T13:48:43.000Z</time>
      </trkpt>
      <trkpt lat="45.10368" lon="2.68717">
        <ele>1634.4000244141</ele>
        <time>2020-08-03T13:48:47.000Z</time>
      </trkpt>
      <trkpt lat="45.10368" lon="2.68715">
        <ele>1634.1999511719</ele>
        <time>2020-08-03T13:48:49.000Z</time>
      </trkpt>
      <trkpt lat="45.10369" lon="2.68709">
        <ele>1633.5999755859</ele>
        <time>2020-08-03T13:48:53.000Z</time>
      </trkpt>
      <trkpt lat="45.10373" lon="2.68699">
        <ele>1633.4000244141</ele>
        <time>2020-08-03T13:49:00.000Z</time>
      </trkpt>
      <trkpt lat="45.10374" lon="2.68695">
        <ele>1633.1999511719</ele>
        <time>2020-08-03T13:49:03.000Z</time>
      </trkpt>
      <trkpt lat="45.10373" lon="2.6869">
        <ele>1632.4000244141</ele>
        <time>2020-08-03T13:49:07.000Z</time>
      </trkpt>
      <trkpt lat="45.10373" lon="2.68688">
        <ele>1632</ele>
        <time>2020-08-03T13:49:09.000Z</time>
      </trkpt>
      <trkpt lat="45.10374" lon="2.68684">
        <ele>1631.5999755859</ele>
        <time>2020-08-03T13:49:13.000Z</time>
      </trkpt>
      <trkpt lat="45.10374" lon="2.68681">
        <ele>1631.4000244141</ele>
        <time>2020-08-03T13:49:15.000Z</time>
      </trkpt>
      <trkpt lat="45.10375" lon="2.68677">
        <ele>1631</ele>
        <time>2020-08-03T13:49:18.000Z</time>
      </trkpt>
      <trkpt lat="45.10378" lon="2.68673">
        <ele>1630.1999511719</ele>
        <time>2020-08-03T13:49:23.000Z</time>
      </trkpt>
      <trkpt lat="45.10379" lon="2.68672">
        <ele>1629.8000488281</ele>
        <time>2020-08-03T13:49:26.000Z</time>
      </trkpt>
      <trkpt lat="45.10379" lon="2.68669">
        <ele>1629.4000244141</ele>
        <time>2020-08-03T13:49:29.000Z</time>
      </trkpt>
      <trkpt lat="45.10377" lon="2.68666">
        <ele>1629.1999511719</ele>
        <time>2020-08-03T13:49:31.000Z</time>
      </trkpt>
      <trkpt lat="45.10376" lon="2.68664">
        <ele>1628.8000488281</ele>
        <time>2020-08-03T13:49:33.000Z</time>
      </trkpt>
      <trkpt lat="45.10375" lon="2.68662">
        <ele>1628.4000244141</ele>
        <time>2020-08-03T13:49:35.000Z</time>
      </trkpt>
      <trkpt lat="45.10374" lon="2.6866">
        <ele>1628</ele>
        <time>2020-08-03T13:49:38.000Z</time>
      </trkpt>
      <trkpt lat="45.10374" lon="2.68658">
        <ele>1627.4000244141</ele>
        <time>2020-08-03T13:49:40.000Z</time>
      </trkpt>
      <trkpt lat="45.10375" lon="2.68655">
        <ele>1627</ele>
        <time>2020-08-03T13:49:42.000Z</time>
      </trkpt>
      <trkpt lat="45.10376" lon="2.68652">
        <ele>1627</ele>
        <time>2020-08-03T13:49:45.000Z</time>
      </trkpt>
      <trkpt lat="45.10378" lon="2.68646">
        <ele>1626.5999755859</ele>
        <time>2020-08-03T13:49:50.000Z</time>
      </trkpt>
      <trkpt lat="45.10378" lon="2.68645">
        <ele>1626.4000244141</ele>
        <time>2020-08-03T13:49:51.000Z</time>
      </trkpt>
      <trkpt lat="45.10379" lon="2.68641">
        <ele>1625.1999511719</ele>
        <time>2020-08-03T13:49:56.000Z</time>
      </trkpt>
      <trkpt lat="45.10378" lon="2.68639">
        <ele>1623.8000488281</ele>
        <time>2020-08-03T13:49:59.000Z</time>
      </trkpt>
      <trkpt lat="45.10376" lon="2.68636">
        <ele>1622.5999755859</ele>
        <time>2020-08-03T13:50:04.000Z</time>
      </trkpt>
      <trkpt lat="45.10375" lon="2.68633">
        <ele>1622</ele>
        <time>2020-08-03T13:50:08.000Z</time>
      </trkpt>
      <trkpt lat="45.10374" lon="2.6863">
        <ele>1621.5999755859</ele>
        <time>2020-08-03T13:50:13.000Z</time>
      </trkpt>
      <trkpt lat="45.10374" lon="2.68628">
        <ele>1621</ele>
        <time>2020-08-03T13:50:16.000Z</time>
      </trkpt>
      <trkpt lat="45.10375" lon="2.68626">
        <ele>1620.4000244141</ele>
        <time>2020-08-03T13:50:19.000Z</time>
      </trkpt>
      <trkpt lat="45.10375" lon="2.68621">
        <ele>1619.4000244141</ele>
        <time>2020-08-03T13:50:26.000Z</time>
      </trkpt>
      <trkpt lat="45.10375" lon="2.6862">
        <ele>1619</ele>
        <time>2020-08-03T13:50:27.000Z</time>
      </trkpt>
      <trkpt lat="45.10375" lon="2.68617">
        <ele>1618.1999511719</ele>
        <time>2020-08-03T13:50:31.000Z</time>
      </trkpt>
      <trkpt lat="45.10376" lon="2.68615">
        <ele>1617.8000488281</ele>
        <time>2020-08-03T13:50:34.000Z</time>
      </trkpt>
      <trkpt lat="45.10377" lon="2.68614">
        <ele>1617.1999511719</ele>
        <time>2020-08-03T13:50:39.000Z</time>
      </trkpt>
      <trkpt lat="45.10377" lon="2.68614">
        <ele>1616.8000488281</ele>
        <time>2020-08-03T13:50:41.000Z</time>
      </trkpt>
      <trkpt lat="45.10378" lon="2.68614">
        <ele>1616.1999511719</ele>
        <time>2020-08-03T13:50:46.000Z</time>
      </trkpt>
      <trkpt lat="45.10378" lon="2.68614">
        <ele>1615.8000488281</ele>
        <time>2020-08-03T13:50:48.000Z</time>
      </trkpt>
      <trkpt lat="45.10378" lon="2.68613">
        <ele>1615</ele>
        <time>2020-08-03T13:50:51.000Z</time>
      </trkpt>
      <trkpt lat="45.10378" lon="2.68611">
        <ele>1614.4000244141</ele>
        <time>2020-08-03T13:50:56.000Z</time>
      </trkpt>
      <trkpt lat="45.10377" lon="2.68611">
        <ele>1613.8000488281</ele>
        <time>2020-08-03T13:51:01.000Z</time>
      </trkpt>
      <trkpt lat="45.10377" lon="2.6861">
        <ele>1613.5999755859</ele>
        <time>2020-08-03T13:51:08.000Z</time>
      </trkpt>
      <trkpt lat="45.10377" lon="2.68608">
        <ele>1612.8000488281</ele>
        <time>2020-08-03T13:51:14.000Z</time>
      </trkpt>
      <trkpt lat="45.10377" lon="2.68608">
        <ele>1612.5999755859</ele>
        <time>2020-08-03T13:51:16.000Z</time>
      </trkpt>
      <trkpt lat="45.10377" lon="2.68606">
        <ele>1611.5999755859</ele>
        <time>2020-08-03T13:51:19.000Z</time>
      </trkpt>
      <trkpt lat="45.10378" lon="2.68605">
        <ele>1611.1999511719</ele>
        <time>2020-08-03T13:51:21.000Z</time>
      </trkpt>
      <trkpt lat="45.10379" lon="2.68603">
        <ele>1610.8000488281</ele>
        <time>2020-08-03T13:51:23.000Z</time>
      </trkpt>
      <trkpt lat="45.1038" lon="2.68602">
        <ele>1610.4000244141</ele>
        <time>2020-08-03T13:51:24.000Z</time>
      </trkpt>
      <trkpt lat="45.10379" lon="2.68599">
        <ele>1609.4000244141</ele>
        <time>2020-08-03T13:51:28.000Z</time>
      </trkpt>
      <trkpt lat="45.10379" lon="2.68599">
        <ele>1609</ele>
        <time>2020-08-03T13:51:30.000Z</time>
      </trkpt>
      <trkpt lat="45.10379" lon="2.686">
        <ele>1608.4000244141</ele>
        <time>2020-08-03T13:51:35.000Z</time>
      </trkpt>
      <trkpt lat="45.10379" lon="2.686">
        <ele>1608.1999511719</ele>
        <time>2020-08-03T13:51:37.000Z</time>
      </trkpt>
      <trkpt lat="45.10378" lon="2.68601">
        <ele>1608.1999511719</ele>
        <time>2020-08-03T13:51:44.000Z</time>
      </trkpt>
      <trkpt lat="45.10376" lon="2.68596">
        <ele>1607.4000244141</ele>
        <time>2020-08-03T13:51:50.000Z</time>
      </trkpt>
      <trkpt lat="45.10376" lon="2.68596">
        <ele>1607.4000244141</ele>
        <time>2020-08-03T13:51:51.000Z</time>
      </trkpt>
      <trkpt lat="45.10378" lon="2.68595">
        <ele>1607.1999511719</ele>
        <time>2020-08-03T13:51:57.000Z</time>
      </trkpt>
      <trkpt lat="45.10376" lon="2.68597">
        <ele>1606.4000244141</ele>
        <time>2020-08-03T13:52:01.000Z</time>
      </trkpt>
      <trkpt lat="45.10376" lon="2.68597">
        <ele>1605.4000244141</ele>
        <time>2020-08-03T13:52:04.000Z</time>
      </trkpt>
      <trkpt lat="45.10376" lon="2.68596">
        <ele>1605.1999511719</ele>
        <time>2020-08-03T13:52:05.000Z</time>
      </trkpt>
      <trkpt lat="45.10377" lon="2.68595">
        <ele>1604.4000244141</ele>
        <time>2020-08-03T13:52:09.000Z</time>
      </trkpt>
      <trkpt lat="45.10378" lon="2.68594">
        <ele>1604.1999511719</ele>
        <time>2020-08-03T13:52:10.000Z</time>
      </trkpt>
      <trkpt lat="45.10377" lon="2.68591">
        <ele>1604</ele>
        <time>2020-08-03T13:52:11.000Z</time>
      </trkpt>
      <trkpt lat="45.10372" lon="2.68581">
        <ele>1603.1999511719</ele>
        <time>2020-08-03T13:52:14.000Z</time>
      </trkpt>
      <trkpt lat="45.10372" lon="2.68581">
        <ele>1603</ele>
        <time>2020-08-03T13:52:15.000Z</time>
      </trkpt>
      <trkpt lat="45.10372" lon="2.68579">
        <ele>1602.8000488281</ele>
        <time>2020-08-03T13:52:17.000Z</time>
      </trkpt>
      <trkpt lat="45.10371" lon="2.68576">
        <ele>1602.8000488281</ele>
        <time>2020-08-03T13:52:20.000Z</time>
      </trkpt>
      <trkpt lat="45.10371" lon="2.68577">
        <ele>1603</ele>
        <time>2020-08-03T13:52:25.000Z</time>
      </trkpt>
      <trkpt lat="45.10371" lon="2.6858">
        <ele>1602.8000488281</ele>
        <time>2020-08-03T13:52:33.000Z</time>
      </trkpt>
      <trkpt lat="45.10369" lon="2.68583">
        <ele>1603</ele>
        <time>2020-08-03T13:52:43.000Z</time>
      </trkpt>
      <trkpt lat="45.1037" lon="2.68582">
        <ele>1602.5999755859</ele>
        <time>2020-08-03T13:52:49.000Z</time>
      </trkpt>
      <trkpt lat="45.10368" lon="2.68582">
        <ele>1602</ele>
        <time>2020-08-03T13:53:00.000Z</time>
      </trkpt>
      <trkpt lat="45.10368" lon="2.68581">
        <ele>1602</ele>
        <time>2020-08-03T13:53:02.000Z</time>
      </trkpt>
      <trkpt lat="45.10368" lon="2.68582">
        <ele>1602</ele>
        <time>2020-08-03T13:53:12.000Z</time>
      </trkpt>
      <trkpt lat="45.10367" lon="2.68581">
        <ele>1601.5999755859</ele>
        <time>2020-08-03T13:53:21.000Z</time>
      </trkpt>
      <trkpt lat="45.10367" lon="2.68579">
        <ele>1602.1999511719</ele>
        <time>2020-08-03T13:53:33.000Z</time>
      </trkpt>
      <trkpt lat="45.10367" lon="2.68579">
        <ele>1602.1999511719</ele>
        <time>2020-08-03T13:53:52.000Z</time>
      </trkpt>
      <trkpt lat="45.10367" lon="2.68579">
        <ele>1601.8000488281</ele>
        <time>2020-08-03T13:54:12.000Z</time>
      </trkpt>
      <trkpt lat="45.10367" lon="2.6858">
        <ele>1601.8000488281</ele>
        <time>2020-08-03T13:54:30.000Z</time>
      </trkpt>
      <trkpt lat="45.1037" lon="2.68582">
        <ele>1601.5999755859</ele>
        <time>2020-08-03T13:54:57.000Z</time>
      </trkpt>
      <trkpt lat="45.10369" lon="2.68581">
        <ele>1603</ele>
        <time>2020-08-03T13:55:28.000Z</time>
      </trkpt>
      <trkpt lat="45.10369" lon="2.68581">
        <ele>1604.1999511719</ele>
        <time>2020-08-03T13:55:35.000Z</time>
      </trkpt>
      <trkpt lat="45.10369" lon="2.68581">
        <ele>1604.1999511719</ele>
        <time>2020-08-03T13:55:36.000Z</time>
      </trkpt>
      <trkpt lat="45.10368" lon="2.68581">
        <ele>1602.5999755859</ele>
        <time>2020-08-03T13:55:44.000Z</time>
      </trkpt>
      <trkpt lat="45.10366" lon="2.68582">
        <ele>1602.5999755859</ele>
        <time>2020-08-03T13:56:20.000Z</time>
      </trkpt>
      <trkpt lat="45.10366" lon="2.68578">
        <ele>1602.5999755859</ele>
        <time>2020-08-03T13:56:53.000Z</time>
      </trkpt>
      <trkpt lat="45.1037" lon="2.6857">
        <ele>1602.5999755859</ele>
        <time>2020-08-03T13:57:13.000Z</time>
      </trkpt>
      <trkpt lat="45.10374" lon="2.68572">
        <ele>1602.5999755859</ele>
        <time>2020-08-03T13:57:30.000Z</time>
      </trkpt>
      <trkpt lat="45.10376" lon="2.68564">
        <ele>1602.5999755859</ele>
        <time>2020-08-03T13:57:43.000Z</time>
      </trkpt>
      <trkpt lat="45.10376" lon="2.68562">
        <ele>1616.5999755859</ele>
        <time>2020-08-03T13:57:46.000Z</time>
      </trkpt>
      <trkpt lat="45.10373" lon="2.68559">
        <ele>1616.4000244141</ele>
        <time>2020-08-03T13:57:56.000Z</time>
      </trkpt>
      <trkpt lat="45.10369" lon="2.68557">
        <ele>1616.8000488281</ele>
        <time>2020-08-03T13:58:04.000Z</time>
      </trkpt>
      <trkpt lat="45.10371" lon="2.68556">
        <ele>1616.5999755859</ele>
        <time>2020-08-03T13:58:12.000Z</time>
      </trkpt>
      <trkpt lat="45.1037" lon="2.68556">
        <ele>1617</ele>
        <time>2020-08-03T13:58:22.000Z</time>
      </trkpt>
      <trkpt lat="45.10371" lon="2.68556">
        <ele>1617</ele>
        <time>2020-08-03T13:58:31.000Z</time>
      </trkpt>
      <trkpt lat="45.1037" lon="2.68555">
        <ele>1617.8000488281</ele>
        <time>2020-08-03T13:58:36.000Z</time>
      </trkpt>
      <trkpt lat="45.1037" lon="2.68554">
        <ele>1618</ele>
        <time>2020-08-03T13:58:37.000Z</time>
      </trkpt>
      <trkpt lat="45.10372" lon="2.68553">
        <ele>1619</ele>
        <time>2020-08-03T13:58:40.000Z</time>
      </trkpt>
      <trkpt lat="45.10374" lon="2.68552">
        <ele>1620</ele>
        <time>2020-08-03T13:58:43.000Z</time>
      </trkpt>
      <trkpt lat="45.10376" lon="2.68551">
        <ele>1621</ele>
        <time>2020-08-03T13:58:45.000Z</time>
      </trkpt>
      <trkpt lat="45.10377" lon="2.68549">
        <ele>1622.1999511719</ele>
        <time>2020-08-03T13:58:47.000Z</time>
      </trkpt>
      <trkpt lat="45.10378" lon="2.68548">
        <ele>1622.4000244141</ele>
        <time>2020-08-03T13:58:48.000Z</time>
      </trkpt>
      <trkpt lat="45.1038" lon="2.68543">
        <ele>1623.1999511719</ele>
        <time>2020-08-03T13:58:51.000Z</time>
      </trkpt>
      <trkpt lat="45.10381" lon="2.68542">
        <ele>1623.4000244141</ele>
        <time>2020-08-03T13:58:52.000Z</time>
      </trkpt>
      <trkpt lat="45.10382" lon="2.6854">
        <ele>1623.8000488281</ele>
        <time>2020-08-03T13:58:54.000Z</time>
      </trkpt>
      <trkpt lat="45.10383" lon="2.68539">
        <ele>1624.4000244141</ele>
        <time>2020-08-03T13:58:57.000Z</time>
      </trkpt>
      <trkpt lat="45.10382" lon="2.68539">
        <ele>1624.4000244141</ele>
        <time>2020-08-03T13:59:00.000Z</time>
      </trkpt>
      <trkpt lat="45.10381" lon="2.68545">
        <ele>1624</ele>
        <time>2020-08-03T13:59:09.000Z</time>
      </trkpt>
      <trkpt lat="45.1038" lon="2.68547">
        <ele>1623.1999511719</ele>
        <time>2020-08-03T13:59:15.000Z</time>
      </trkpt>
      <trkpt lat="45.10381" lon="2.68544">
        <ele>1623.1999511719</ele>
        <time>2020-08-03T13:59:18.000Z</time>
      </trkpt>
      <trkpt lat="45.10382" lon="2.68543">
        <ele>1623.1999511719</ele>
        <time>2020-08-03T13:59:19.000Z</time>
      </trkpt>
      <trkpt lat="45.10384" lon="2.68538">
        <ele>1623.4000244141</ele>
        <time>2020-08-03T13:59:24.000Z</time>
      </trkpt>
      <trkpt lat="45.10385" lon="2.68537">
        <ele>1623.4000244141</ele>
        <time>2020-08-03T13:59:25.000Z</time>
      </trkpt>
      <trkpt lat="45.10391" lon="2.68527">
        <ele>1624.4000244141</ele>
        <time>2020-08-03T13:59:32.000Z</time>
      </trkpt>
      <trkpt lat="45.10392" lon="2.68526">
        <ele>1624.5999755859</ele>
        <time>2020-08-03T13:59:33.000Z</time>
      </trkpt>
      <trkpt lat="45.10395" lon="2.68518">
        <ele>1624</ele>
        <time>2020-08-03T13:59:40.000Z</time>
      </trkpt>
      <trkpt lat="45.10396" lon="2.68515">
        <ele>1623.5999755859</ele>
        <time>2020-08-03T13:59:46.000Z</time>
      </trkpt>
      <trkpt lat="45.10397" lon="2.68514">
        <ele>1623.8000488281</ele>
        <time>2020-08-03T13:59:47.000Z</time>
      </trkpt>
      <trkpt lat="45.10404" lon="2.68505">
        <ele>1624.4000244141</ele>
        <time>2020-08-03T13:59:55.000Z</time>
      </trkpt>
      <trkpt lat="45.10405" lon="2.68501">
        <ele>1623.8000488281</ele>
        <time>2020-08-03T13:59:59.000Z</time>
      </trkpt>
      <trkpt lat="45.10404" lon="2.68498">
        <ele>1623.5999755859</ele>
        <time>2020-08-03T14:00:01.000Z</time>
      </trkpt>
      <trkpt lat="45.10404" lon="2.68495">
        <ele>1623.5999755859</ele>
        <time>2020-08-03T14:00:05.000Z</time>
      </trkpt>
      <trkpt lat="45.10406" lon="2.68482">
        <ele>1624.1999511719</ele>
        <time>2020-08-03T14:00:14.000Z</time>
      </trkpt>
      <trkpt lat="45.10407" lon="2.68479">
        <ele>1624.1999511719</ele>
        <time>2020-08-03T14:00:16.000Z</time>
      </trkpt>
      <trkpt lat="45.10409" lon="2.68474">
        <ele>1624</ele>
        <time>2020-08-03T14:00:20.000Z</time>
      </trkpt>
      <trkpt lat="45.10409" lon="2.68473">
        <ele>1623.5999755859</ele>
        <time>2020-08-03T14:00:21.000Z</time>
      </trkpt>
      <trkpt lat="45.10409" lon="2.68471">
        <ele>1623.1999511719</ele>
        <time>2020-08-03T14:00:23.000Z</time>
      </trkpt>
      <trkpt lat="45.10409" lon="2.68468">
        <ele>1623</ele>
        <time>2020-08-03T14:00:25.000Z</time>
      </trkpt>
      <trkpt lat="45.10411" lon="2.68464">
        <ele>1622.1999511719</ele>
        <time>2020-08-03T14:00:28.000Z</time>
      </trkpt>
      <trkpt lat="45.10413" lon="2.68457">
        <ele>1621</ele>
        <time>2020-08-03T14:00:32.000Z</time>
      </trkpt>
      <trkpt lat="45.10414" lon="2.68455">
        <ele>1620.8000488281</ele>
        <time>2020-08-03T14:00:33.000Z</time>
      </trkpt>
      <trkpt lat="45.10417" lon="2.68447">
        <ele>1620.4000244141</ele>
        <time>2020-08-03T14:00:39.000Z</time>
      </trkpt>
      <trkpt lat="45.10419" lon="2.68446">
        <ele>1620.1999511719</ele>
        <time>2020-08-03T14:00:41.000Z</time>
      </trkpt>
      <trkpt lat="45.10419" lon="2.68444">
        <ele>1620</ele>
        <time>2020-08-03T14:00:42.000Z</time>
      </trkpt>
      <trkpt lat="45.10422" lon="2.68439">
        <ele>1619.4000244141</ele>
        <time>2020-08-03T14:00:46.000Z</time>
      </trkpt>
      <trkpt lat="45.10422" lon="2.68438">
        <ele>1618.8000488281</ele>
        <time>2020-08-03T14:00:50.000Z</time>
      </trkpt>
      <trkpt lat="45.10422" lon="2.68438">
        <ele>1618.5999755859</ele>
        <time>2020-08-03T14:00:52.000Z</time>
      </trkpt>
      <trkpt lat="45.10423" lon="2.68437">
        <ele>1618.4000244141</ele>
        <time>2020-08-03T14:01:01.000Z</time>
      </trkpt>
      <trkpt lat="45.10428" lon="2.68422">
        <ele>1618.5999755859</ele>
        <time>2020-08-03T14:01:09.000Z</time>
      </trkpt>
      <trkpt lat="45.10429" lon="2.68418">
        <ele>1618.8000488281</ele>
        <time>2020-08-03T14:01:13.000Z</time>
      </trkpt>
      <trkpt lat="45.1043" lon="2.68417">
        <ele>1619</ele>
        <time>2020-08-03T14:01:14.000Z</time>
      </trkpt>
      <trkpt lat="45.10436" lon="2.68407">
        <ele>1619</ele>
        <time>2020-08-03T14:01:21.000Z</time>
      </trkpt>
      <trkpt lat="45.10439" lon="2.68399">
        <ele>1618.8000488281</ele>
        <time>2020-08-03T14:01:27.000Z</time>
      </trkpt>
      <trkpt lat="45.10444" lon="2.68389">
        <ele>1617.8000488281</ele>
        <time>2020-08-03T14:01:35.000Z</time>
      </trkpt>
      <trkpt lat="45.10445" lon="2.68388">
        <ele>1617.5999755859</ele>
        <time>2020-08-03T14:01:36.000Z</time>
      </trkpt>
      <trkpt lat="45.10449" lon="2.68385">
        <ele>1616.4000244141</ele>
        <time>2020-08-03T14:01:40.000Z</time>
      </trkpt>
      <trkpt lat="45.1045" lon="2.68384">
        <ele>1616.4000244141</ele>
        <time>2020-08-03T14:01:41.000Z</time>
      </trkpt>
      <trkpt lat="45.10451" lon="2.68383">
        <ele>1616.1999511719</ele>
        <time>2020-08-03T14:01:42.000Z</time>
      </trkpt>
      <trkpt lat="45.10452" lon="2.68378">
        <ele>1615.4000244141</ele>
        <time>2020-08-03T14:01:46.000Z</time>
      </trkpt>
      <trkpt lat="45.10453" lon="2.68378">
        <ele>1615.1999511719</ele>
        <time>2020-08-03T14:01:47.000Z</time>
      </trkpt>
      <trkpt lat="45.10455" lon="2.68374">
        <ele>1614.1999511719</ele>
        <time>2020-08-03T14:01:51.000Z</time>
      </trkpt>
      <trkpt lat="45.10455" lon="2.68373">
        <ele>1614.1999511719</ele>
        <time>2020-08-03T14:01:52.000Z</time>
      </trkpt>
      <trkpt lat="45.10457" lon="2.68372">
        <ele>1613.8000488281</ele>
        <time>2020-08-03T14:01:54.000Z</time>
      </trkpt>
      <trkpt lat="45.10458" lon="2.6837">
        <ele>1613.1999511719</ele>
        <time>2020-08-03T14:01:58.000Z</time>
      </trkpt>
      <trkpt lat="45.10459" lon="2.68369">
        <ele>1612.8000488281</ele>
        <time>2020-08-03T14:01:59.000Z</time>
      </trkpt>
      <trkpt lat="45.1046" lon="2.68367">
        <ele>1612.4000244141</ele>
        <time>2020-08-03T14:02:01.000Z</time>
      </trkpt>
      <trkpt lat="45.10461" lon="2.68367">
        <ele>1612</ele>
        <time>2020-08-03T14:02:02.000Z</time>
      </trkpt>
      <trkpt lat="45.10462" lon="2.68365">
        <ele>1611.4000244141</ele>
        <time>2020-08-03T14:02:04.000Z</time>
      </trkpt>
      <trkpt lat="45.10463" lon="2.68364">
        <ele>1611</ele>
        <time>2020-08-03T14:02:05.000Z</time>
      </trkpt>
      <trkpt lat="45.10465" lon="2.68361">
        <ele>1610.4000244141</ele>
        <time>2020-08-03T14:02:08.000Z</time>
      </trkpt>
      <trkpt lat="45.10467" lon="2.6836">
        <ele>1610</ele>
        <time>2020-08-03T14:02:11.000Z</time>
      </trkpt>
      <trkpt lat="45.10468" lon="2.68356">
        <ele>1608.5999755859</ele>
        <time>2020-08-03T14:02:15.000Z</time>
      </trkpt>
      <trkpt lat="45.10469" lon="2.68354">
        <ele>1608</ele>
        <time>2020-08-03T14:02:17.000Z</time>
      </trkpt>
      <trkpt lat="45.10469" lon="2.68351">
        <ele>1607.5999755859</ele>
        <time>2020-08-03T14:02:20.000Z</time>
      </trkpt>
      <trkpt lat="45.10471" lon="2.6835">
        <ele>1606.8000488281</ele>
        <time>2020-08-03T14:02:23.000Z</time>
      </trkpt>
      <trkpt lat="45.10472" lon="2.6835">
        <ele>1606.4000244141</ele>
        <time>2020-08-03T14:02:24.000Z</time>
      </trkpt>
      <trkpt lat="45.10472" lon="2.68349">
        <ele>1606.1999511719</ele>
        <time>2020-08-03T14:02:25.000Z</time>
      </trkpt>
      <trkpt lat="45.10475" lon="2.68345">
        <ele>1605.1999511719</ele>
        <time>2020-08-03T14:02:29.000Z</time>
      </trkpt>
      <trkpt lat="45.10477" lon="2.6834">
        <ele>1604.1999511719</ele>
        <time>2020-08-03T14:02:33.000Z</time>
      </trkpt>
      <trkpt lat="45.10478" lon="2.68337">
        <ele>1603.8000488281</ele>
        <time>2020-08-03T14:02:35.000Z</time>
      </trkpt>
      <trkpt lat="45.10482" lon="2.68332">
        <ele>1603</ele>
        <time>2020-08-03T14:02:41.000Z</time>
      </trkpt>
      <trkpt lat="45.10482" lon="2.68332">
        <ele>1602.8000488281</ele>
        <time>2020-08-03T14:02:42.000Z</time>
      </trkpt>
      <trkpt lat="45.10483" lon="2.68331">
        <ele>1602.4000244141</ele>
        <time>2020-08-03T14:02:44.000Z</time>
      </trkpt>
      <trkpt lat="45.10486" lon="2.68329">
        <ele>1602.4000244141</ele>
        <time>2020-08-03T14:02:48.000Z</time>
      </trkpt>
      <trkpt lat="45.10488" lon="2.68325">
        <ele>1602.4000244141</ele>
        <time>2020-08-03T14:02:52.000Z</time>
      </trkpt>
      <trkpt lat="45.1049" lon="2.68323">
        <ele>1601.5999755859</ele>
        <time>2020-08-03T14:02:54.000Z</time>
      </trkpt>
      <trkpt lat="45.10491" lon="2.68322">
        <ele>1601.1999511719</ele>
        <time>2020-08-03T14:02:55.000Z</time>
      </trkpt>
      <trkpt lat="45.10493" lon="2.68321">
        <ele>1600.5999755859</ele>
        <time>2020-08-03T14:02:57.000Z</time>
      </trkpt>
      <trkpt lat="45.10496" lon="2.68318">
        <ele>1599.5999755859</ele>
        <time>2020-08-03T14:03:01.000Z</time>
      </trkpt>
      <trkpt lat="45.10498" lon="2.68314">
        <ele>1598.8000488281</ele>
        <time>2020-08-03T14:03:03.000Z</time>
      </trkpt>
      <trkpt lat="45.10498" lon="2.68313">
        <ele>1598.4000244141</ele>
        <time>2020-08-03T14:03:04.000Z</time>
      </trkpt>
      <trkpt lat="45.10499" lon="2.68308">
        <ele>1598.1999511719</ele>
        <time>2020-08-03T14:03:07.000Z</time>
      </trkpt>
      <trkpt lat="45.10502" lon="2.68301">
        <ele>1597.4000244141</ele>
        <time>2020-08-03T14:03:12.000Z</time>
      </trkpt>
      <trkpt lat="45.10504" lon="2.68296">
        <ele>1597.4000244141</ele>
        <time>2020-08-03T14:03:15.000Z</time>
      </trkpt>
      <trkpt lat="45.10511" lon="2.68288">
        <ele>1597.4000244141</ele>
        <time>2020-08-03T14:03:23.000Z</time>
      </trkpt>
      <trkpt lat="45.10513" lon="2.68286">
        <ele>1597.8000488281</ele>
        <time>2020-08-03T14:03:26.000Z</time>
      </trkpt>
      <trkpt lat="45.10514" lon="2.68283">
        <ele>1598.5999755859</ele>
        <time>2020-08-03T14:03:29.000Z</time>
      </trkpt>
      <trkpt lat="45.10516" lon="2.68282">
        <ele>1599.5999755859</ele>
        <time>2020-08-03T14:03:31.000Z</time>
      </trkpt>
      <trkpt lat="45.10518" lon="2.6828">
        <ele>1600.4000244141</ele>
        <time>2020-08-03T14:03:34.000Z</time>
      </trkpt>
      <trkpt lat="45.10519" lon="2.68279">
        <ele>1600.4000244141</ele>
        <time>2020-08-03T14:03:35.000Z</time>
      </trkpt>
      <trkpt lat="45.10521" lon="2.68276">
        <ele>1600.4000244141</ele>
        <time>2020-08-03T14:03:39.000Z</time>
      </trkpt>
      <trkpt lat="45.10525" lon="2.68273">
        <ele>1600.4000244141</ele>
        <time>2020-08-03T14:03:43.000Z</time>
      </trkpt>
      <trkpt lat="45.10526" lon="2.68272">
        <ele>1600.5999755859</ele>
        <time>2020-08-03T14:03:45.000Z</time>
      </trkpt>
      <trkpt lat="45.10531" lon="2.68268">
        <ele>1601.4000244141</ele>
        <time>2020-08-03T14:03:51.000Z</time>
      </trkpt>
      <trkpt lat="45.10539" lon="2.68261">
        <ele>1600.8000488281</ele>
        <time>2020-08-03T14:03:59.000Z</time>
      </trkpt>
      <trkpt lat="45.10547" lon="2.68255">
        <ele>1601.5999755859</ele>
        <time>2020-08-03T14:04:08.000Z</time>
      </trkpt>
      <trkpt lat="45.10548" lon="2.68254">
        <ele>1601.8000488281</ele>
        <time>2020-08-03T14:04:09.000Z</time>
      </trkpt>
      <trkpt lat="45.10547" lon="2.68254">
        <ele>1601.4000244141</ele>
        <time>2020-08-03T14:04:13.000Z</time>
      </trkpt>
      <trkpt lat="45.10546" lon="2.68254">
        <ele>1600.8000488281</ele>
        <time>2020-08-03T14:04:17.000Z</time>
      </trkpt>
      <trkpt lat="45.10546" lon="2.68255">
        <ele>1600.8000488281</ele>
        <time>2020-08-03T14:04:21.000Z</time>
      </trkpt>
      <trkpt lat="45.10549" lon="2.68251">
        <ele>1601.4000244141</ele>
        <time>2020-08-03T14:04:27.000Z</time>
      </trkpt>
      <trkpt lat="45.10554" lon="2.68246">
        <ele>1601.1999511719</ele>
        <time>2020-08-03T14:04:35.000Z</time>
      </trkpt>
      <trkpt lat="45.10558" lon="2.68242">
        <ele>1599.5999755859</ele>
        <time>2020-08-03T14:04:40.000Z</time>
      </trkpt>
      <trkpt lat="45.10559" lon="2.6824">
        <ele>1598.4000244141</ele>
        <time>2020-08-03T14:04:42.000Z</time>
      </trkpt>
      <trkpt lat="45.10559" lon="2.68239">
        <ele>1597</ele>
        <time>2020-08-03T14:04:44.000Z</time>
      </trkpt>
      <trkpt lat="45.10559" lon="2.68237">
        <ele>1596.5999755859</ele>
        <time>2020-08-03T14:04:45.000Z</time>
      </trkpt>
      <trkpt lat="45.10561" lon="2.68234">
        <ele>1596.1999511719</ele>
        <time>2020-08-03T14:04:49.000Z</time>
      </trkpt>
      <trkpt lat="45.10566" lon="2.68229">
        <ele>1596</ele>
        <time>2020-08-03T14:04:55.000Z</time>
      </trkpt>
      <trkpt lat="45.10567" lon="2.68227">
        <ele>1595.1999511719</ele>
        <time>2020-08-03T14:04:57.000Z</time>
      </trkpt>
      <trkpt lat="45.10568" lon="2.68226">
        <ele>1594.8000488281</ele>
        <time>2020-08-03T14:04:59.000Z</time>
      </trkpt>
      <trkpt lat="45.10571" lon="2.68221">
        <ele>1594.8000488281</ele>
        <time>2020-08-03T14:05:04.000Z</time>
      </trkpt>
      <trkpt lat="45.10572" lon="2.68218">
        <ele>1595</ele>
        <time>2020-08-03T14:05:06.000Z</time>
      </trkpt>
      <trkpt lat="45.10574" lon="2.68217">
        <ele>1594.8000488281</ele>
        <time>2020-08-03T14:05:10.000Z</time>
      </trkpt>
      <trkpt lat="45.10575" lon="2.68213">
        <ele>1594.1999511719</ele>
        <time>2020-08-03T14:05:14.000Z</time>
      </trkpt>
      <trkpt lat="45.10576" lon="2.68212">
        <ele>1593.5999755859</ele>
        <time>2020-08-03T14:05:16.000Z</time>
      </trkpt>
      <trkpt lat="45.10577" lon="2.68212">
        <ele>1593.4000244141</ele>
        <time>2020-08-03T14:05:17.000Z</time>
      </trkpt>
      <trkpt lat="45.10582" lon="2.68207">
        <ele>1593</ele>
        <time>2020-08-03T14:05:22.000Z</time>
      </trkpt>
      <trkpt lat="45.10586" lon="2.68202">
        <ele>1595</ele>
        <time>2020-08-03T14:05:26.000Z</time>
      </trkpt>
      <trkpt lat="45.10591" lon="2.68197">
        <ele>1596.4000244141</ele>
        <time>2020-08-03T14:05:31.000Z</time>
      </trkpt>
      <trkpt lat="45.10599" lon="2.6819">
        <ele>1596.1999511719</ele>
        <time>2020-08-03T14:05:39.000Z</time>
      </trkpt>
      <trkpt lat="45.10602" lon="2.68188">
        <ele>1595</ele>
        <time>2020-08-03T14:05:42.000Z</time>
      </trkpt>
      <trkpt lat="45.10603" lon="2.68187">
        <ele>1593.8000488281</ele>
        <time>2020-08-03T14:05:43.000Z</time>
      </trkpt>
      <trkpt lat="45.10604" lon="2.68185">
        <ele>1592.1999511719</ele>
        <time>2020-08-03T14:05:45.000Z</time>
      </trkpt>
      <trkpt lat="45.10605" lon="2.68183">
        <ele>1591.4000244141</ele>
        <time>2020-08-03T14:05:46.000Z</time>
      </trkpt>
      <trkpt lat="45.10606" lon="2.68182">
        <ele>1591</ele>
        <time>2020-08-03T14:05:47.000Z</time>
      </trkpt>
      <trkpt lat="45.10611" lon="2.68176">
        <ele>1592</ele>
        <time>2020-08-03T14:05:54.000Z</time>
      </trkpt>
      <trkpt lat="45.10617" lon="2.6817">
        <ele>1592.4000244141</ele>
        <time>2020-08-03T14:06:00.000Z</time>
      </trkpt>
      <trkpt lat="45.10624" lon="2.68161">
        <ele>1592.1999511719</ele>
        <time>2020-08-03T14:06:09.000Z</time>
      </trkpt>
      <trkpt lat="45.10626" lon="2.68159">
        <ele>1593</ele>
        <time>2020-08-03T14:06:12.000Z</time>
      </trkpt>
      <trkpt lat="45.1063" lon="2.68156">
        <ele>1592.5999755859</ele>
        <time>2020-08-03T14:06:16.000Z</time>
      </trkpt>
      <trkpt lat="45.1063" lon="2.68155">
        <ele>1592</ele>
        <time>2020-08-03T14:06:18.000Z</time>
      </trkpt>
      <trkpt lat="45.10629" lon="2.68155">
        <ele>1591.1999511719</ele>
        <time>2020-08-03T14:06:22.000Z</time>
      </trkpt>
      <trkpt lat="45.1063" lon="2.68154">
        <ele>1590.8000488281</ele>
        <time>2020-08-03T14:06:24.000Z</time>
      </trkpt>
      <trkpt lat="45.10633" lon="2.6815">
        <ele>1590.8000488281</ele>
        <time>2020-08-03T14:06:27.000Z</time>
      </trkpt>
      <trkpt lat="45.1064" lon="2.68142">
        <ele>1591.4000244141</ele>
        <time>2020-08-03T14:06:35.000Z</time>
      </trkpt>
      <trkpt lat="45.10645" lon="2.68134">
        <ele>1591.1999511719</ele>
        <time>2020-08-03T14:06:41.000Z</time>
      </trkpt>
      <trkpt lat="45.10649" lon="2.68126">
        <ele>1591.1999511719</ele>
        <time>2020-08-03T14:06:48.000Z</time>
      </trkpt>
      <trkpt lat="45.1065" lon="2.68123">
        <ele>1591.1999511719</ele>
        <time>2020-08-03T14:06:50.000Z</time>
      </trkpt>
      <trkpt lat="45.10652" lon="2.68119">
        <ele>1591.5999755859</ele>
        <time>2020-08-03T14:06:53.000Z</time>
      </trkpt>
      <trkpt lat="45.10653" lon="2.68116">
        <ele>1591.5999755859</ele>
        <time>2020-08-03T14:06:55.000Z</time>
      </trkpt>
      <trkpt lat="45.10655" lon="2.68113">
        <ele>1591.4000244141</ele>
        <time>2020-08-03T14:06:58.000Z</time>
      </trkpt>
      <trkpt lat="45.10658" lon="2.68104">
        <ele>1592.1999511719</ele>
        <time>2020-08-03T14:07:04.000Z</time>
      </trkpt>
      <trkpt lat="45.10659" lon="2.68103">
        <ele>1593</ele>
        <time>2020-08-03T14:07:05.000Z</time>
      </trkpt>
      <trkpt lat="45.10659" lon="2.68102">
        <ele>1593.1999511719</ele>
        <time>2020-08-03T14:07:06.000Z</time>
      </trkpt>
      <trkpt lat="45.10659" lon="2.68099">
        <ele>1592.4000244141</ele>
        <time>2020-08-03T14:07:10.000Z</time>
      </trkpt>
      <trkpt lat="45.10659" lon="2.68099">
        <ele>1591.8000488281</ele>
        <time>2020-08-03T14:07:11.000Z</time>
      </trkpt>
      <trkpt lat="45.10659" lon="2.68098">
        <ele>1590.8000488281</ele>
        <time>2020-08-03T14:07:15.000Z</time>
      </trkpt>
      <trkpt lat="45.10659" lon="2.68098">
        <ele>1590</ele>
        <time>2020-08-03T14:07:19.000Z</time>
      </trkpt>
      <trkpt lat="45.10659" lon="2.68096">
        <ele>1589.5999755859</ele>
        <time>2020-08-03T14:07:21.000Z</time>
      </trkpt>
      <trkpt lat="45.1066" lon="2.68091">
        <ele>1589.4000244141</ele>
        <time>2020-08-03T14:07:26.000Z</time>
      </trkpt>
      <trkpt lat="45.1066" lon="2.68091">
        <ele>1589.5999755859</ele>
        <time>2020-08-03T14:07:28.000Z</time>
      </trkpt>
      <trkpt lat="45.1066" lon="2.68092">
        <ele>1590.1999511719</ele>
        <time>2020-08-03T14:07:35.000Z</time>
      </trkpt>
      <trkpt lat="45.1066" lon="2.68092">
        <ele>1590.5999755859</ele>
        <time>2020-08-03T14:07:36.000Z</time>
      </trkpt>
      <trkpt lat="45.1066" lon="2.68095">
        <ele>1590.1999511719</ele>
        <time>2020-08-03T14:07:42.000Z</time>
      </trkpt>
      <trkpt lat="45.1066" lon="2.68095">
        <ele>1589.5999755859</ele>
        <time>2020-08-03T14:07:46.000Z</time>
      </trkpt>
      <trkpt lat="45.10659" lon="2.68094">
        <ele>1588.4000244141</ele>
        <time>2020-08-03T14:07:50.000Z</time>
      </trkpt>
      <trkpt lat="45.10659" lon="2.68094">
        <ele>1588.5999755859</ele>
        <time>2020-08-03T14:07:52.000Z</time>
      </trkpt>
      <trkpt lat="45.1066" lon="2.68093">
        <ele>1589.1999511719</ele>
        <time>2020-08-03T14:07:58.000Z</time>
      </trkpt>
      <trkpt lat="45.10661" lon="2.68091">
        <ele>1588.8000488281</ele>
        <time>2020-08-03T14:08:05.000Z</time>
      </trkpt>
      <trkpt lat="45.10661" lon="2.68091">
        <ele>1589.4000244141</ele>
        <time>2020-08-03T14:08:09.000Z</time>
      </trkpt>
      <trkpt lat="45.10661" lon="2.6809">
        <ele>1590.5999755859</ele>
        <time>2020-08-03T14:08:14.000Z</time>
      </trkpt>
      <trkpt lat="45.10661" lon="2.6809">
        <ele>1591.4000244141</ele>
        <time>2020-08-03T14:08:20.000Z</time>
      </trkpt>
      <trkpt lat="45.10661" lon="2.6809">
        <ele>1591.5999755859</ele>
        <time>2020-08-03T14:08:22.000Z</time>
      </trkpt>
      <trkpt lat="45.1066" lon="2.68089">
        <ele>1591</ele>
        <time>2020-08-03T14:08:27.000Z</time>
      </trkpt>
      <trkpt lat="45.10661" lon="2.68088">
        <ele>1590.5999755859</ele>
        <time>2020-08-03T14:08:28.000Z</time>
      </trkpt>
      <trkpt lat="45.10661" lon="2.68086">
        <ele>1590.5999755859</ele>
        <time>2020-08-03T14:08:30.000Z</time>
      </trkpt>
      <trkpt lat="45.10662" lon="2.68086">
        <ele>1590.4000244141</ele>
        <time>2020-08-03T14:08:33.000Z</time>
      </trkpt>
      <trkpt lat="45.1066" lon="2.68084">
        <ele>1589.8000488281</ele>
        <time>2020-08-03T14:08:40.000Z</time>
      </trkpt>
      <trkpt lat="45.1066" lon="2.68084">
        <ele>1589.4000244141</ele>
        <time>2020-08-03T14:08:44.000Z</time>
      </trkpt>
      <trkpt lat="45.1066" lon="2.68083">
        <ele>1589.5999755859</ele>
        <time>2020-08-03T14:08:49.000Z</time>
      </trkpt>
      <trkpt lat="45.1066" lon="2.68083">
        <ele>1590</ele>
        <time>2020-08-03T14:08:56.000Z</time>
      </trkpt>
      <trkpt lat="45.10661" lon="2.68084">
        <ele>1589.8000488281</ele>
        <time>2020-08-03T14:09:00.000Z</time>
      </trkpt>
      <trkpt lat="45.10661" lon="2.68084">
        <ele>1588.4000244141</ele>
        <time>2020-08-03T14:09:07.000Z</time>
      </trkpt>
      <trkpt lat="45.10662" lon="2.68084">
        <ele>1588.5999755859</ele>
        <time>2020-08-03T14:09:09.000Z</time>
      </trkpt>
      <trkpt lat="45.10662" lon="2.68084">
        <ele>1588.5999755859</ele>
        <time>2020-08-03T14:09:10.000Z</time>
      </trkpt>
      <trkpt lat="45.10666" lon="2.68083">
        <ele>1589.4000244141</ele>
        <time>2020-08-03T14:09:15.000Z</time>
      </trkpt>
      <trkpt lat="45.10666" lon="2.68083">
        <ele>1587.8000488281</ele>
        <time>2020-08-03T14:09:25.000Z</time>
      </trkpt>
      <trkpt lat="45.10665" lon="2.68083">
        <ele>1588.1999511719</ele>
        <time>2020-08-03T14:09:36.000Z</time>
      </trkpt>
      <trkpt lat="45.10666" lon="2.68082">
        <ele>1589.4000244141</ele>
        <time>2020-08-03T14:09:43.000Z</time>
      </trkpt>
      <trkpt lat="45.10666" lon="2.68082">
        <ele>1590.5999755859</ele>
        <time>2020-08-03T14:09:44.000Z</time>
      </trkpt>
      <trkpt lat="45.10666" lon="2.68082">
        <ele>1591.5999755859</ele>
        <time>2020-08-03T14:09:45.000Z</time>
      </trkpt>
      <trkpt lat="45.10666" lon="2.68082">
        <ele>1592.8000488281</ele>
        <time>2020-08-03T14:09:49.000Z</time>
      </trkpt>
      <trkpt lat="45.10667" lon="2.68083">
        <ele>1593</ele>
        <time>2020-08-03T14:09:53.000Z</time>
      </trkpt>
      <trkpt lat="45.10667" lon="2.68083">
        <ele>1593.1999511719</ele>
        <time>2020-08-03T14:10:05.000Z</time>
      </trkpt>
      <trkpt lat="45.10666" lon="2.68084">
        <ele>1591.1999511719</ele>
        <time>2020-08-03T14:10:23.000Z</time>
      </trkpt>
      <trkpt lat="45.10666" lon="2.68084">
        <ele>1590</ele>
        <time>2020-08-03T14:10:26.000Z</time>
      </trkpt>
      <trkpt lat="45.10666" lon="2.68084">
        <ele>1589</ele>
        <time>2020-08-03T14:10:29.000Z</time>
      </trkpt>
      <trkpt lat="45.10666" lon="2.68085">
        <ele>1589</ele>
        <time>2020-08-03T14:10:31.000Z</time>
      </trkpt>
      <trkpt lat="45.10666" lon="2.68084">
        <ele>1589.1999511719</ele>
        <time>2020-08-03T14:10:37.000Z</time>
      </trkpt>
      <trkpt lat="45.10667" lon="2.68083">
        <ele>1590.1999511719</ele>
        <time>2020-08-03T14:10:39.000Z</time>
      </trkpt>
      <trkpt lat="45.10667" lon="2.68083">
        <ele>1590.4000244141</ele>
        <time>2020-08-03T14:10:40.000Z</time>
      </trkpt>
      <trkpt lat="45.10667" lon="2.68083">
        <ele>1591.1999511719</ele>
        <time>2020-08-03T14:10:43.000Z</time>
      </trkpt>
      <trkpt lat="45.10666" lon="2.68083">
        <ele>1591.5999755859</ele>
        <time>2020-08-03T14:10:50.000Z</time>
      </trkpt>
      <trkpt lat="45.10666" lon="2.68083">
        <ele>1591.8000488281</ele>
        <time>2020-08-03T14:10:57.000Z</time>
      </trkpt>
      <trkpt lat="45.10666" lon="2.68084">
        <ele>1591.5999755859</ele>
        <time>2020-08-03T14:11:04.000Z</time>
      </trkpt>
      <trkpt lat="45.10667" lon="2.68082">
        <ele>1592.4000244141</ele>
        <time>2020-08-03T14:11:11.000Z</time>
      </trkpt>
      <trkpt lat="45.10667" lon="2.68082">
        <ele>1592.4000244141</ele>
        <time>2020-08-03T14:11:12.000Z</time>
      </trkpt>
      <trkpt lat="45.10667" lon="2.68082">
        <ele>1593.5999755859</ele>
        <time>2020-08-03T14:11:21.000Z</time>
      </trkpt>
      <trkpt lat="45.10667" lon="2.68082">
        <ele>1594.1999511719</ele>
        <time>2020-08-03T14:11:25.000Z</time>
      </trkpt>
      <trkpt lat="45.10667" lon="2.68082">
        <ele>1592.4000244141</ele>
        <time>2020-08-03T14:11:29.000Z</time>
      </trkpt>
      <trkpt lat="45.10667" lon="2.68082">
        <ele>1591.1999511719</ele>
        <time>2020-08-03T14:11:31.000Z</time>
      </trkpt>
      <trkpt lat="45.10667" lon="2.68083">
        <ele>1590</ele>
        <time>2020-08-03T14:11:40.000Z</time>
      </trkpt>
      <trkpt lat="45.10667" lon="2.68081">
        <ele>1589.5999755859</ele>
        <time>2020-08-03T14:11:46.000Z</time>
      </trkpt>
      <trkpt lat="45.10668" lon="2.68081">
        <ele>1589</ele>
        <time>2020-08-03T14:11:50.000Z</time>
      </trkpt>
      <trkpt lat="45.10668" lon="2.68081">
        <ele>1589</ele>
        <time>2020-08-03T14:11:51.000Z</time>
      </trkpt>
      <trkpt lat="45.10667" lon="2.6808">
        <ele>1588.8000488281</ele>
        <time>2020-08-03T14:12:02.000Z</time>
      </trkpt>
      <trkpt lat="45.10666" lon="2.68077">
        <ele>1589.4000244141</ele>
        <time>2020-08-03T14:12:05.000Z</time>
      </trkpt>
      <trkpt lat="45.10667" lon="2.68074">
        <ele>1589.8000488281</ele>
        <time>2020-08-03T14:12:07.000Z</time>
      </trkpt>
      <trkpt lat="45.10668" lon="2.68073">
        <ele>1590</ele>
        <time>2020-08-03T14:12:08.000Z</time>
      </trkpt>
      <trkpt lat="45.1067" lon="2.68066">
        <ele>1591.4000244141</ele>
        <time>2020-08-03T14:12:13.000Z</time>
      </trkpt>
      <trkpt lat="45.1067" lon="2.68064">
        <ele>1591.8000488281</ele>
        <time>2020-08-03T14:12:14.000Z</time>
      </trkpt>
      <trkpt lat="45.1067" lon="2.68063">
        <ele>1592.1999511719</ele>
        <time>2020-08-03T14:12:15.000Z</time>
      </trkpt>
      <trkpt lat="45.10671" lon="2.68062">
        <ele>1592.5999755859</ele>
        <time>2020-08-03T14:12:16.000Z</time>
      </trkpt>
      <trkpt lat="45.10672" lon="2.68057">
        <ele>1593.8000488281</ele>
        <time>2020-08-03T14:12:20.000Z</time>
      </trkpt>
      <trkpt lat="45.10672" lon="2.68054">
        <ele>1594.4000244141</ele>
        <time>2020-08-03T14:12:23.000Z</time>
      </trkpt>
      <trkpt lat="45.10672" lon="2.68053">
        <ele>1594.8000488281</ele>
        <time>2020-08-03T14:12:24.000Z</time>
      </trkpt>
      <trkpt lat="45.10672" lon="2.68049">
        <ele>1596.4000244141</ele>
        <time>2020-08-03T14:12:27.000Z</time>
      </trkpt>
      <trkpt lat="45.10673" lon="2.68046">
        <ele>1597.4000244141</ele>
        <time>2020-08-03T14:12:29.000Z</time>
      </trkpt>
      <trkpt lat="45.10675" lon="2.68042">
        <ele>1598.4000244141</ele>
        <time>2020-08-03T14:12:32.000Z</time>
      </trkpt>
      <trkpt lat="45.10677" lon="2.68038">
        <ele>1600</ele>
        <time>2020-08-03T14:12:36.000Z</time>
      </trkpt>
      <trkpt lat="45.10678" lon="2.68037">
        <ele>1601</ele>
        <time>2020-08-03T14:12:38.000Z</time>
      </trkpt>
      <trkpt lat="45.10682" lon="2.68033">
        <ele>1601.1999511719</ele>
        <time>2020-08-03T14:12:43.000Z</time>
      </trkpt>
      <trkpt lat="45.10683" lon="2.6803">
        <ele>1601</ele>
        <time>2020-08-03T14:12:47.000Z</time>
      </trkpt>
      <trkpt lat="45.10684" lon="2.68028">
        <ele>1601.1999511719</ele>
        <time>2020-08-03T14:12:49.000Z</time>
      </trkpt>
      <trkpt lat="45.10685" lon="2.68027">
        <ele>1601.4000244141</ele>
        <time>2020-08-03T14:12:51.000Z</time>
      </trkpt>
      <trkpt lat="45.10687" lon="2.68024">
        <ele>1602</ele>
        <time>2020-08-03T14:12:55.000Z</time>
      </trkpt>
      <trkpt lat="45.10687" lon="2.68023">
        <ele>1602.4000244141</ele>
        <time>2020-08-03T14:12:56.000Z</time>
      </trkpt>
      <trkpt lat="45.10689" lon="2.68022">
        <ele>1603.1999511719</ele>
        <time>2020-08-03T14:12:59.000Z</time>
      </trkpt>
      <trkpt lat="45.10689" lon="2.68021">
        <ele>1603.5999755859</ele>
        <time>2020-08-03T14:13:00.000Z</time>
      </trkpt>
      <trkpt lat="45.10691" lon="2.68019">
        <ele>1604</ele>
        <time>2020-08-03T14:13:03.000Z</time>
      </trkpt>
      <trkpt lat="45.10693" lon="2.68016">
        <ele>1604.4000244141</ele>
        <time>2020-08-03T14:13:09.000Z</time>
      </trkpt>
      <trkpt lat="45.10694" lon="2.68015">
        <ele>1605</ele>
        <time>2020-08-03T14:13:11.000Z</time>
      </trkpt>
      <trkpt lat="45.10696" lon="2.68014">
        <ele>1605.8000488281</ele>
        <time>2020-08-03T14:13:13.000Z</time>
      </trkpt>
      <trkpt lat="45.10696" lon="2.68013">
        <ele>1607.1999511719</ele>
        <time>2020-08-03T14:13:15.000Z</time>
      </trkpt>
      <trkpt lat="45.10697" lon="2.68012">
        <ele>1608.1999511719</ele>
        <time>2020-08-03T14:13:17.000Z</time>
      </trkpt>
      <trkpt lat="45.10697" lon="2.68012">
        <ele>1608.5999755859</ele>
        <time>2020-08-03T14:13:18.000Z</time>
      </trkpt>
      <trkpt lat="45.10698" lon="2.6801">
        <ele>1609.1999511719</ele>
        <time>2020-08-03T14:13:20.000Z</time>
      </trkpt>
      <trkpt lat="45.10699" lon="2.68006">
        <ele>1610.1999511719</ele>
        <time>2020-08-03T14:13:27.000Z</time>
      </trkpt>
      <trkpt lat="45.107" lon="2.68005">
        <ele>1610.4000244141</ele>
        <time>2020-08-03T14:13:28.000Z</time>
      </trkpt>
      <trkpt lat="45.10701" lon="2.68002">
        <ele>1611.5999755859</ele>
        <time>2020-08-03T14:13:32.000Z</time>
      </trkpt>
      <trkpt lat="45.10702" lon="2.68001">
        <ele>1612.8000488281</ele>
        <time>2020-08-03T14:13:35.000Z</time>
      </trkpt>
      <trkpt lat="45.10704" lon="2.67998">
        <ele>1613.5999755859</ele>
        <time>2020-08-03T14:13:38.000Z</time>
      </trkpt>
      <trkpt lat="45.10705" lon="2.67996">
        <ele>1614</ele>
        <time>2020-08-03T14:13:42.000Z</time>
      </trkpt>
      <trkpt lat="45.10705" lon="2.67996">
        <ele>1614</ele>
        <time>2020-08-03T14:13:43.000Z</time>
      </trkpt>
      <trkpt lat="45.10707" lon="2.67994">
        <ele>1614.5999755859</ele>
        <time>2020-08-03T14:13:46.000Z</time>
      </trkpt>
      <trkpt lat="45.10708" lon="2.67994">
        <ele>1615</ele>
        <time>2020-08-03T14:13:47.000Z</time>
      </trkpt>
      <trkpt lat="45.1071" lon="2.67988">
        <ele>1616</ele>
        <time>2020-08-03T14:13:53.000Z</time>
      </trkpt>
      <trkpt lat="45.10712" lon="2.67985">
        <ele>1617.1999511719</ele>
        <time>2020-08-03T14:13:57.000Z</time>
      </trkpt>
      <trkpt lat="45.10713" lon="2.67984">
        <ele>1618.1999511719</ele>
        <time>2020-08-03T14:13:59.000Z</time>
      </trkpt>
      <trkpt lat="45.10714" lon="2.67982">
        <ele>1618.8000488281</ele>
        <time>2020-08-03T14:14:00.000Z</time>
      </trkpt>
      <trkpt lat="45.10714" lon="2.67981">
        <ele>1619.1999511719</ele>
        <time>2020-08-03T14:14:01.000Z</time>
      </trkpt>
      <trkpt lat="45.10716" lon="2.67979">
        <ele>1619.1999511719</ele>
        <time>2020-08-03T14:14:03.000Z</time>
      </trkpt>
      <trkpt lat="45.10718" lon="2.67974">
        <ele>1619.1999511719</ele>
        <time>2020-08-03T14:14:07.000Z</time>
      </trkpt>
      <trkpt lat="45.10721" lon="2.67967">
        <ele>1619</ele>
        <time>2020-08-03T14:14:14.000Z</time>
      </trkpt>
      <trkpt lat="45.10724" lon="2.6796">
        <ele>1619.4000244141</ele>
        <time>2020-08-03T14:14:21.000Z</time>
      </trkpt>
      <trkpt lat="45.10726" lon="2.67957">
        <ele>1619.5999755859</ele>
        <time>2020-08-03T14:14:24.000Z</time>
      </trkpt>
      <trkpt lat="45.10727" lon="2.67955">
        <ele>1620</ele>
        <time>2020-08-03T14:14:26.000Z</time>
      </trkpt>
      <trkpt lat="45.10728" lon="2.67953">
        <ele>1620.4000244141</ele>
        <time>2020-08-03T14:14:28.000Z</time>
      </trkpt>
      <trkpt lat="45.1073" lon="2.67951">
        <ele>1621.1999511719</ele>
        <time>2020-08-03T14:14:31.000Z</time>
      </trkpt>
      <trkpt lat="45.10732" lon="2.67949">
        <ele>1622</ele>
        <time>2020-08-03T14:14:35.000Z</time>
      </trkpt>
      <trkpt lat="45.10732" lon="2.67948">
        <ele>1622.1999511719</ele>
        <time>2020-08-03T14:14:36.000Z</time>
      </trkpt>
      <trkpt lat="45.10732" lon="2.67947">
        <ele>1622.4000244141</ele>
        <time>2020-08-03T14:14:37.000Z</time>
      </trkpt>
      <trkpt lat="45.10732" lon="2.67945">
        <ele>1622.5999755859</ele>
        <time>2020-08-03T14:14:39.000Z</time>
      </trkpt>
      <trkpt lat="45.10732" lon="2.67942">
        <ele>1622.8000488281</ele>
        <time>2020-08-03T14:14:41.000Z</time>
      </trkpt>
      <trkpt lat="45.10734" lon="2.67939">
        <ele>1623.1999511719</ele>
        <time>2020-08-03T14:14:45.000Z</time>
      </trkpt>
      <trkpt lat="45.10735" lon="2.67938">
        <ele>1623.5999755859</ele>
        <time>2020-08-03T14:14:47.000Z</time>
      </trkpt>
      <trkpt lat="45.10736" lon="2.67938">
        <ele>1624.5999755859</ele>
        <time>2020-08-03T14:14:49.000Z</time>
      </trkpt>
      <trkpt lat="45.10738" lon="2.67936">
        <ele>1625</ele>
        <time>2020-08-03T14:14:53.000Z</time>
      </trkpt>
      <trkpt lat="45.10739" lon="2.67936">
        <ele>1625</ele>
        <time>2020-08-03T14:14:54.000Z</time>
      </trkpt>
      <trkpt lat="45.10743" lon="2.67936">
        <ele>1625.8000488281</ele>
        <time>2020-08-03T14:15:00.000Z</time>
      </trkpt>
      <trkpt lat="45.10745" lon="2.67935">
        <ele>1626.8000488281</ele>
        <time>2020-08-03T14:15:03.000Z</time>
      </trkpt>
      <trkpt lat="45.10744" lon="2.67932">
        <ele>1627.8000488281</ele>
        <time>2020-08-03T14:15:08.000Z</time>
      </trkpt>
      <trkpt lat="45.10744" lon="2.67931">
        <ele>1628</ele>
        <time>2020-08-03T14:15:09.000Z</time>
      </trkpt>
      <trkpt lat="45.10743" lon="2.67929">
        <ele>1628.1999511719</ele>
        <time>2020-08-03T14:15:10.000Z</time>
      </trkpt>
      <trkpt lat="45.10742" lon="2.67928">
        <ele>1628.5999755859</ele>
        <time>2020-08-03T14:15:11.000Z</time>
      </trkpt>
      <trkpt lat="45.10743" lon="2.67927">
        <ele>1629</ele>
        <time>2020-08-03T14:15:12.000Z</time>
      </trkpt>
      <trkpt lat="45.10744" lon="2.67926">
        <ele>1629.8000488281</ele>
        <time>2020-08-03T14:15:15.000Z</time>
      </trkpt>
      <trkpt lat="45.10745" lon="2.67927">
        <ele>1630.1999511719</ele>
        <time>2020-08-03T14:15:16.000Z</time>
      </trkpt>
      <trkpt lat="45.10748" lon="2.67927">
        <ele>1631.1999511719</ele>
        <time>2020-08-03T14:15:21.000Z</time>
      </trkpt>
      <trkpt lat="45.10749" lon="2.67926">
        <ele>1631.1999511719</ele>
        <time>2020-08-03T14:15:22.000Z</time>
      </trkpt>
      <trkpt lat="45.10749" lon="2.67925">
        <ele>1632.1999511719</ele>
        <time>2020-08-03T14:15:24.000Z</time>
      </trkpt>
      <trkpt lat="45.10749" lon="2.67923">
        <ele>1633.5999755859</ele>
        <time>2020-08-03T14:15:26.000Z</time>
      </trkpt>
      <trkpt lat="45.10751" lon="2.67922">
        <ele>1634.5999755859</ele>
        <time>2020-08-03T14:15:29.000Z</time>
      </trkpt>
      <trkpt lat="45.10751" lon="2.6792">
        <ele>1635.8000488281</ele>
        <time>2020-08-03T14:15:32.000Z</time>
      </trkpt>
      <trkpt lat="45.10752" lon="2.67918">
        <ele>1636.5999755859</ele>
        <time>2020-08-03T14:15:36.000Z</time>
      </trkpt>
      <trkpt lat="45.10753" lon="2.67918">
        <ele>1637</ele>
        <time>2020-08-03T14:15:38.000Z</time>
      </trkpt>
      <trkpt lat="45.10755" lon="2.67917">
        <ele>1638</ele>
        <time>2020-08-03T14:15:42.000Z</time>
      </trkpt>
      <trkpt lat="45.10755" lon="2.67915">
        <ele>1638.8000488281</ele>
        <time>2020-08-03T14:15:46.000Z</time>
      </trkpt>
      <trkpt lat="45.10756" lon="2.67913">
        <ele>1639</ele>
        <time>2020-08-03T14:15:48.000Z</time>
      </trkpt>
      <trkpt lat="45.10758" lon="2.67912">
        <ele>1640</ele>
        <time>2020-08-03T14:15:53.000Z</time>
      </trkpt>
      <trkpt lat="45.10759" lon="2.6791">
        <ele>1641.1999511719</ele>
        <time>2020-08-03T14:15:55.000Z</time>
      </trkpt>
      <trkpt lat="45.1076" lon="2.67906">
        <ele>1641.8000488281</ele>
        <time>2020-08-03T14:15:58.000Z</time>
      </trkpt>
      <trkpt lat="45.10762" lon="2.67905">
        <ele>1641.8000488281</ele>
        <time>2020-08-03T14:16:01.000Z</time>
      </trkpt>
      <trkpt lat="45.10764" lon="2.67902">
        <ele>1642.1999511719</ele>
        <time>2020-08-03T14:16:05.000Z</time>
      </trkpt>
      <trkpt lat="45.10765" lon="2.67901">
        <ele>1642.1999511719</ele>
        <time>2020-08-03T14:16:07.000Z</time>
      </trkpt>
      <trkpt lat="45.10766" lon="2.67901">
        <ele>1642.4000244141</ele>
        <time>2020-08-03T14:16:08.000Z</time>
      </trkpt>
      <trkpt lat="45.10772" lon="2.67897">
        <ele>1642.8000488281</ele>
        <time>2020-08-03T14:16:15.000Z</time>
      </trkpt>
      <trkpt lat="45.10774" lon="2.67896">
        <ele>1643.5999755859</ele>
        <time>2020-08-03T14:16:19.000Z</time>
      </trkpt>
      <trkpt lat="45.10776" lon="2.67895">
        <ele>1644.8000488281</ele>
        <time>2020-08-03T14:16:22.000Z</time>
      </trkpt>
      <trkpt lat="45.10777" lon="2.67893">
        <ele>1646</ele>
        <time>2020-08-03T14:16:26.000Z</time>
      </trkpt>
      <trkpt lat="45.10778" lon="2.6789">
        <ele>1646.5999755859</ele>
        <time>2020-08-03T14:16:29.000Z</time>
      </trkpt>
      <trkpt lat="45.10778" lon="2.67889">
        <ele>1647.1999511719</ele>
        <time>2020-08-03T14:16:31.000Z</time>
      </trkpt>
      <trkpt lat="45.10777" lon="2.67886">
        <ele>1647.8000488281</ele>
        <time>2020-08-03T14:16:33.000Z</time>
      </trkpt>
      <trkpt lat="45.10777" lon="2.67884">
        <ele>1648.1999511719</ele>
        <time>2020-08-03T14:16:35.000Z</time>
      </trkpt>
      <trkpt lat="45.10777" lon="2.67883">
        <ele>1648.5999755859</ele>
        <time>2020-08-03T14:16:36.000Z</time>
      </trkpt>
      <trkpt lat="45.10778" lon="2.67882">
        <ele>1649</ele>
        <time>2020-08-03T14:16:37.000Z</time>
      </trkpt>
      <trkpt lat="45.10778" lon="2.67881">
        <ele>1649.4000244141</ele>
        <time>2020-08-03T14:16:39.000Z</time>
      </trkpt>
      <trkpt lat="45.10779" lon="2.67881">
        <ele>1649.8000488281</ele>
        <time>2020-08-03T14:16:40.000Z</time>
      </trkpt>
      <trkpt lat="45.1078" lon="2.67881">
        <ele>1650</ele>
        <time>2020-08-03T14:16:41.000Z</time>
      </trkpt>
      <trkpt lat="45.10782" lon="2.67881">
        <ele>1650.8000488281</ele>
        <time>2020-08-03T14:16:43.000Z</time>
      </trkpt>
      <trkpt lat="45.10783" lon="2.67879">
        <ele>1651.8000488281</ele>
        <time>2020-08-03T14:16:47.000Z</time>
      </trkpt>
      <trkpt lat="45.10783" lon="2.67879">
        <ele>1652</ele>
        <time>2020-08-03T14:16:48.000Z</time>
      </trkpt>
      <trkpt lat="45.10784" lon="2.67878">
        <ele>1652.4000244141</ele>
        <time>2020-08-03T14:16:49.000Z</time>
      </trkpt>
      <trkpt lat="45.10785" lon="2.67876">
        <ele>1653.1999511719</ele>
        <time>2020-08-03T14:16:53.000Z</time>
      </trkpt>
      <trkpt lat="45.10786" lon="2.67876">
        <ele>1653.8000488281</ele>
        <time>2020-08-03T14:16:55.000Z</time>
      </trkpt>
      <trkpt lat="45.10787" lon="2.67875">
        <ele>1654.1999511719</ele>
        <time>2020-08-03T14:16:57.000Z</time>
      </trkpt>
      <trkpt lat="45.10788" lon="2.67873">
        <ele>1655</ele>
        <time>2020-08-03T14:17:01.000Z</time>
      </trkpt>
      <trkpt lat="45.10788" lon="2.67871">
        <ele>1655.4000244141</ele>
        <time>2020-08-03T14:17:02.000Z</time>
      </trkpt>
      <trkpt lat="45.10787" lon="2.67869">
        <ele>1656.1999511719</ele>
        <time>2020-08-03T14:17:05.000Z</time>
      </trkpt>
      <trkpt lat="45.10788" lon="2.67867">
        <ele>1656.4000244141</ele>
        <time>2020-08-03T14:17:07.000Z</time>
      </trkpt>
      <trkpt lat="45.10789" lon="2.67867">
        <ele>1656.5999755859</ele>
        <time>2020-08-03T14:17:08.000Z</time>
      </trkpt>
      <trkpt lat="45.10792" lon="2.67866">
        <ele>1657.5999755859</ele>
        <time>2020-08-03T14:17:14.000Z</time>
      </trkpt>
      <trkpt lat="45.10793" lon="2.67865">
        <ele>1657.8000488281</ele>
        <time>2020-08-03T14:17:15.000Z</time>
      </trkpt>
      <trkpt lat="45.10798" lon="2.67861">
        <ele>1658.8000488281</ele>
        <time>2020-08-03T14:17:23.000Z</time>
      </trkpt>
      <trkpt lat="45.10802" lon="2.67857">
        <ele>1659.8000488281</ele>
        <time>2020-08-03T14:17:30.000Z</time>
      </trkpt>
      <trkpt lat="45.10804" lon="2.67855">
        <ele>1660.8000488281</ele>
        <time>2020-08-03T14:17:33.000Z</time>
      </trkpt>
      <trkpt lat="45.10805" lon="2.67855">
        <ele>1661.1999511719</ele>
        <time>2020-08-03T14:17:34.000Z</time>
      </trkpt>
      <trkpt lat="45.10805" lon="2.67854">
        <ele>1661.5999755859</ele>
        <time>2020-08-03T14:17:35.000Z</time>
      </trkpt>
      <trkpt lat="45.10806" lon="2.67854">
        <ele>1662</ele>
        <time>2020-08-03T14:17:36.000Z</time>
      </trkpt>
      <trkpt lat="45.10806" lon="2.67853">
        <ele>1662.4000244141</ele>
        <time>2020-08-03T14:17:37.000Z</time>
      </trkpt>
      <trkpt lat="45.10806" lon="2.67851">
        <ele>1662.8000488281</ele>
        <time>2020-08-03T14:17:39.000Z</time>
      </trkpt>
      <trkpt lat="45.10807" lon="2.67849">
        <ele>1663.1999511719</ele>
        <time>2020-08-03T14:17:41.000Z</time>
      </trkpt>
      <trkpt lat="45.10807" lon="2.67848">
        <ele>1663.4000244141</ele>
        <time>2020-08-03T14:17:42.000Z</time>
      </trkpt>
      <trkpt lat="45.10807" lon="2.67846">
        <ele>1664</ele>
        <time>2020-08-03T14:17:44.000Z</time>
      </trkpt>
      <trkpt lat="45.10809" lon="2.67844">
        <ele>1664.5999755859</ele>
        <time>2020-08-03T14:17:47.000Z</time>
      </trkpt>
      <trkpt lat="45.10812" lon="2.67841">
        <ele>1665.8000488281</ele>
        <time>2020-08-03T14:17:53.000Z</time>
      </trkpt>
      <trkpt lat="45.10813" lon="2.67841">
        <ele>1666.4000244141</ele>
        <time>2020-08-03T14:17:54.000Z</time>
      </trkpt>
      <trkpt lat="45.10814" lon="2.67842">
        <ele>1667</ele>
        <time>2020-08-03T14:17:56.000Z</time>
      </trkpt>
      <trkpt lat="45.10815" lon="2.67841">
        <ele>1668.1999511719</ele>
        <time>2020-08-03T14:17:59.000Z</time>
      </trkpt>
      <trkpt lat="45.10816" lon="2.67839">
        <ele>1668.8000488281</ele>
        <time>2020-08-03T14:18:01.000Z</time>
      </trkpt>
      <trkpt lat="45.10815" lon="2.67838">
        <ele>1669.1999511719</ele>
        <time>2020-08-03T14:18:02.000Z</time>
      </trkpt>
      <trkpt lat="45.10815" lon="2.67836">
        <ele>1669.8000488281</ele>
        <time>2020-08-03T14:18:04.000Z</time>
      </trkpt>
      <trkpt lat="45.10816" lon="2.67834">
        <ele>1670.1999511719</ele>
        <time>2020-08-03T14:18:07.000Z</time>
      </trkpt>
      <trkpt lat="45.10816" lon="2.67833">
        <ele>1670.4000244141</ele>
        <time>2020-08-03T14:18:08.000Z</time>
      </trkpt>
      <trkpt lat="45.10818" lon="2.67832">
        <ele>1671.1999511719</ele>
        <time>2020-08-03T14:18:12.000Z</time>
      </trkpt>
      <trkpt lat="45.10819" lon="2.67833">
        <ele>1671.5999755859</ele>
        <time>2020-08-03T14:18:13.000Z</time>
      </trkpt>
      <trkpt lat="45.10823" lon="2.67832">
        <ele>1672.8000488281</ele>
        <time>2020-08-03T14:18:19.000Z</time>
      </trkpt>
      <trkpt lat="45.10825" lon="2.67829">
        <ele>1674</ele>
        <time>2020-08-03T14:18:25.000Z</time>
      </trkpt>
      <trkpt lat="45.10826" lon="2.6783">
        <ele>1675</ele>
        <time>2020-08-03T14:18:28.000Z</time>
      </trkpt>
      <trkpt lat="45.10828" lon="2.6783">
        <ele>1675.8000488281</ele>
        <time>2020-08-03T14:18:32.000Z</time>
      </trkpt>
      <trkpt lat="45.10828" lon="2.6783">
        <ele>1676.1999511719</ele>
        <time>2020-08-03T14:18:33.000Z</time>
      </trkpt>
      <trkpt lat="45.10829" lon="2.67827">
        <ele>1677.1999511719</ele>
        <time>2020-08-03T14:18:38.000Z</time>
      </trkpt>
      <trkpt lat="45.10828" lon="2.67824">
        <ele>1677.8000488281</ele>
        <time>2020-08-03T14:18:40.000Z</time>
      </trkpt>
      <trkpt lat="45.10827" lon="2.67822">
        <ele>1678.5999755859</ele>
        <time>2020-08-03T14:18:42.000Z</time>
      </trkpt>
      <trkpt lat="45.10827" lon="2.67819">
        <ele>1679.5999755859</ele>
        <time>2020-08-03T14:18:47.000Z</time>
      </trkpt>
      <trkpt lat="45.10827" lon="2.67818">
        <ele>1680.1999511719</ele>
        <time>2020-08-03T14:18:49.000Z</time>
      </trkpt>
      <trkpt lat="45.10828" lon="2.67817">
        <ele>1680.5999755859</ele>
        <time>2020-08-03T14:18:52.000Z</time>
      </trkpt>
      <trkpt lat="45.1083" lon="2.67817">
        <ele>1681.8000488281</ele>
        <time>2020-08-03T14:18:57.000Z</time>
      </trkpt>
      <trkpt lat="45.10831" lon="2.67817">
        <ele>1683</ele>
        <time>2020-08-03T14:19:01.000Z</time>
      </trkpt>
      <trkpt lat="45.10832" lon="2.67817">
        <ele>1683.4000244141</ele>
        <time>2020-08-03T14:19:03.000Z</time>
      </trkpt>
      <trkpt lat="45.10833" lon="2.67818">
        <ele>1684</ele>
        <time>2020-08-03T14:19:07.000Z</time>
      </trkpt>
      <trkpt lat="45.10834" lon="2.67818">
        <ele>1684.5999755859</ele>
        <time>2020-08-03T14:19:10.000Z</time>
      </trkpt>
      <trkpt lat="45.10835" lon="2.67818">
        <ele>1685.1999511719</ele>
        <time>2020-08-03T14:19:12.000Z</time>
      </trkpt>
      <trkpt lat="45.10834" lon="2.67816">
        <ele>1685.8000488281</ele>
        <time>2020-08-03T14:19:16.000Z</time>
      </trkpt>
      <trkpt lat="45.10837" lon="2.67808">
        <ele>1686.1999511719</ele>
        <time>2020-08-03T14:19:20.000Z</time>
      </trkpt>
      <trkpt lat="45.10837" lon="2.67807">
        <ele>1686.4000244141</ele>
        <time>2020-08-03T14:19:21.000Z</time>
      </trkpt>
      <trkpt lat="45.10838" lon="2.67806">
        <ele>1686.5999755859</ele>
        <time>2020-08-03T14:19:22.000Z</time>
      </trkpt>
      <trkpt lat="45.10842" lon="2.67805">
        <ele>1687.4000244141</ele>
        <time>2020-08-03T14:19:26.000Z</time>
      </trkpt>
      <trkpt lat="45.10844" lon="2.67805">
        <ele>1687.8000488281</ele>
        <time>2020-08-03T14:19:28.000Z</time>
      </trkpt>
      <trkpt lat="45.10846" lon="2.67804">
        <ele>1688.4000244141</ele>
        <time>2020-08-03T14:19:31.000Z</time>
      </trkpt>
      <trkpt lat="45.10849" lon="2.67805">
        <ele>1689.1999511719</ele>
        <time>2020-08-03T14:19:35.000Z</time>
      </trkpt>
      <trkpt lat="45.1085" lon="2.67805">
        <ele>1689.4000244141</ele>
        <time>2020-08-03T14:19:37.000Z</time>
      </trkpt>
      <trkpt lat="45.10852" lon="2.67803">
        <ele>1690.1999511719</ele>
        <time>2020-08-03T14:19:41.000Z</time>
      </trkpt>
      <trkpt lat="45.10853" lon="2.67803">
        <ele>1690.1999511719</ele>
        <time>2020-08-03T14:19:42.000Z</time>
      </trkpt>
      <trkpt lat="45.10854" lon="2.67801">
        <ele>1690.5999755859</ele>
        <time>2020-08-03T14:19:44.000Z</time>
      </trkpt>
      <trkpt lat="45.10855" lon="2.678">
        <ele>1691</ele>
        <time>2020-08-03T14:19:46.000Z</time>
      </trkpt>
      <trkpt lat="45.10856" lon="2.678">
        <ele>1691.4000244141</ele>
        <time>2020-08-03T14:19:48.000Z</time>
      </trkpt>
      <trkpt lat="45.10857" lon="2.67801">
        <ele>1691.8000488281</ele>
        <time>2020-08-03T14:19:49.000Z</time>
      </trkpt>
      <trkpt lat="45.1086" lon="2.678">
        <ele>1692.8000488281</ele>
        <time>2020-08-03T14:19:53.000Z</time>
      </trkpt>
      <trkpt lat="45.10861" lon="2.67799">
        <ele>1693.1999511719</ele>
        <time>2020-08-03T14:19:55.000Z</time>
      </trkpt>
      <trkpt lat="45.10863" lon="2.67797">
        <ele>1693.8000488281</ele>
        <time>2020-08-03T14:19:59.000Z</time>
      </trkpt>
      <trkpt lat="45.10863" lon="2.67795">
        <ele>1694.1999511719</ele>
        <time>2020-08-03T14:20:02.000Z</time>
      </trkpt>
      <trkpt lat="45.10865" lon="2.67794">
        <ele>1695</ele>
        <time>2020-08-03T14:20:06.000Z</time>
      </trkpt>
      <trkpt lat="45.10866" lon="2.67792">
        <ele>1695.5999755859</ele>
        <time>2020-08-03T14:20:09.000Z</time>
      </trkpt>
      <trkpt lat="45.10868" lon="2.67791">
        <ele>1696.1999511719</ele>
        <time>2020-08-03T14:20:12.000Z</time>
      </trkpt>
      <trkpt lat="45.10869" lon="2.6779">
        <ele>1697.4000244141</ele>
        <time>2020-08-03T14:20:15.000Z</time>
      </trkpt>
      <trkpt lat="45.10869" lon="2.67788">
        <ele>1698.4000244141</ele>
        <time>2020-08-03T14:20:18.000Z</time>
      </trkpt>
      <trkpt lat="45.10869" lon="2.67784">
        <ele>1698.8000488281</ele>
        <time>2020-08-03T14:20:21.000Z</time>
      </trkpt>
      <trkpt lat="45.10869" lon="2.67783">
        <ele>1699</ele>
        <time>2020-08-03T14:20:22.000Z</time>
      </trkpt>
      <trkpt lat="45.1087" lon="2.67781">
        <ele>1699.5999755859</ele>
        <time>2020-08-03T14:20:24.000Z</time>
      </trkpt>
      <trkpt lat="45.10871" lon="2.67781">
        <ele>1700.4000244141</ele>
        <time>2020-08-03T14:20:29.000Z</time>
      </trkpt>
      <trkpt lat="45.10872" lon="2.67781">
        <ele>1700.5999755859</ele>
        <time>2020-08-03T14:20:30.000Z</time>
      </trkpt>
      <trkpt lat="45.10874" lon="2.67781">
        <ele>1701.8000488281</ele>
        <time>2020-08-03T14:20:34.000Z</time>
      </trkpt>
      <trkpt lat="45.10876" lon="2.6778">
        <ele>1702.1999511719</ele>
        <time>2020-08-03T14:20:37.000Z</time>
      </trkpt>
      <trkpt lat="45.10877" lon="2.6778">
        <ele>1702.8000488281</ele>
        <time>2020-08-03T14:20:40.000Z</time>
      </trkpt>
      <trkpt lat="45.10878" lon="2.67779">
        <ele>1703</ele>
        <time>2020-08-03T14:20:43.000Z</time>
      </trkpt>
      <trkpt lat="45.10879" lon="2.6778">
        <ele>1703.8000488281</ele>
        <time>2020-08-03T14:20:47.000Z</time>
      </trkpt>
      <trkpt lat="45.10879" lon="2.6778">
        <ele>1704</ele>
        <time>2020-08-03T14:20:48.000Z</time>
      </trkpt>
      <trkpt lat="45.1088" lon="2.67778">
        <ele>1705</ele>
        <time>2020-08-03T14:20:51.000Z</time>
      </trkpt>
      <trkpt lat="45.1088" lon="2.67778">
        <ele>1705.1999511719</ele>
        <time>2020-08-03T14:20:52.000Z</time>
      </trkpt>
      <trkpt lat="45.10881" lon="2.67778">
        <ele>1705.8000488281</ele>
        <time>2020-08-03T14:20:54.000Z</time>
      </trkpt>
      <trkpt lat="45.10882" lon="2.67778">
        <ele>1706.1999511719</ele>
        <time>2020-08-03T14:20:55.000Z</time>
      </trkpt>
      <trkpt lat="45.10882" lon="2.67775">
        <ele>1707.4000244141</ele>
        <time>2020-08-03T14:20:59.000Z</time>
      </trkpt>
      <trkpt lat="45.10882" lon="2.67774">
        <ele>1707.4000244141</ele>
        <time>2020-08-03T14:21:00.000Z</time>
      </trkpt>
      <trkpt lat="45.10884" lon="2.67772">
        <ele>1708</ele>
        <time>2020-08-03T14:21:06.000Z</time>
      </trkpt>
      <trkpt lat="45.10885" lon="2.6777">
        <ele>1708.4000244141</ele>
        <time>2020-08-03T14:21:08.000Z</time>
      </trkpt>
      <trkpt lat="45.10886" lon="2.67769">
        <ele>1709.4000244141</ele>
        <time>2020-08-03T14:21:12.000Z</time>
      </trkpt>
      <trkpt lat="45.10888" lon="2.67766">
        <ele>1710.4000244141</ele>
        <time>2020-08-03T14:21:17.000Z</time>
      </trkpt>
      <trkpt lat="45.10888" lon="2.67765">
        <ele>1710.5999755859</ele>
        <time>2020-08-03T14:21:18.000Z</time>
      </trkpt>
      <trkpt lat="45.10889" lon="2.67762">
        <ele>1711.5999755859</ele>
        <time>2020-08-03T14:21:23.000Z</time>
      </trkpt>
      <trkpt lat="45.10889" lon="2.67762">
        <ele>1711.8000488281</ele>
        <time>2020-08-03T14:21:24.000Z</time>
      </trkpt>
      <trkpt lat="45.1089" lon="2.67759">
        <ele>1712.8000488281</ele>
        <time>2020-08-03T14:21:29.000Z</time>
      </trkpt>
      <trkpt lat="45.1089" lon="2.67759">
        <ele>1713</ele>
        <time>2020-08-03T14:21:30.000Z</time>
      </trkpt>
      <trkpt lat="45.1089" lon="2.6776">
        <ele>1714</ele>
        <time>2020-08-03T14:21:33.000Z</time>
      </trkpt>
      <trkpt lat="45.10892" lon="2.67762">
        <ele>1715</ele>
        <time>2020-08-03T14:21:37.000Z</time>
      </trkpt>
      <trkpt lat="45.10892" lon="2.67761">
        <ele>1715.1999511719</ele>
        <time>2020-08-03T14:21:38.000Z</time>
      </trkpt>
      <trkpt lat="45.10893" lon="2.67759">
        <ele>1716.1999511719</ele>
        <time>2020-08-03T14:21:42.000Z</time>
      </trkpt>
      <trkpt lat="45.10893" lon="2.67757">
        <ele>1716.4000244141</ele>
        <time>2020-08-03T14:21:44.000Z</time>
      </trkpt>
      <trkpt lat="45.10893" lon="2.67754">
        <ele>1717.1999511719</ele>
        <time>2020-08-03T14:21:50.000Z</time>
      </trkpt>
      <trkpt lat="45.10893" lon="2.67754">
        <ele>1717.5999755859</ele>
        <time>2020-08-03T14:21:51.000Z</time>
      </trkpt>
      <trkpt lat="45.10895" lon="2.67755">
        <ele>1718.8000488281</ele>
        <time>2020-08-03T14:21:56.000Z</time>
      </trkpt>
      <trkpt lat="45.10897" lon="2.67754">
        <ele>1719.8000488281</ele>
        <time>2020-08-03T14:22:01.000Z</time>
      </trkpt>
      <trkpt lat="45.10898" lon="2.67752">
        <ele>1720.4000244141</ele>
        <time>2020-08-03T14:22:04.000Z</time>
      </trkpt>
      <trkpt lat="45.10898" lon="2.67751">
        <ele>1721</ele>
        <time>2020-08-03T14:22:07.000Z</time>
      </trkpt>
      <trkpt lat="45.10899" lon="2.67751">
        <ele>1722.1999511719</ele>
        <time>2020-08-03T14:22:11.000Z</time>
      </trkpt>
      <trkpt lat="45.10898" lon="2.67748">
        <ele>1722.8000488281</ele>
        <time>2020-08-03T14:22:15.000Z</time>
      </trkpt>
      <trkpt lat="45.10898" lon="2.67746">
        <ele>1723</ele>
        <time>2020-08-03T14:22:17.000Z</time>
      </trkpt>
      <trkpt lat="45.10898" lon="2.67745">
        <ele>1723.4000244141</ele>
        <time>2020-08-03T14:22:19.000Z</time>
      </trkpt>
      <trkpt lat="45.109" lon="2.67745">
        <ele>1724.1999511719</ele>
        <time>2020-08-03T14:22:23.000Z</time>
      </trkpt>
      <trkpt lat="45.109" lon="2.67744">
        <ele>1724.5999755859</ele>
        <time>2020-08-03T14:22:24.000Z</time>
      </trkpt>
      <trkpt lat="45.10901" lon="2.67745">
        <ele>1725.8000488281</ele>
        <time>2020-08-03T14:22:28.000Z</time>
      </trkpt>
      <trkpt lat="45.10901" lon="2.67744">
        <ele>1726</ele>
        <time>2020-08-03T14:22:29.000Z</time>
      </trkpt>
      <trkpt lat="45.10902" lon="2.67743">
        <ele>1727</ele>
        <time>2020-08-03T14:22:33.000Z</time>
      </trkpt>
      <trkpt lat="45.10903" lon="2.67743">
        <ele>1727.5999755859</ele>
        <time>2020-08-03T14:22:35.000Z</time>
      </trkpt>
      <trkpt lat="45.10904" lon="2.67743">
        <ele>1728</ele>
        <time>2020-08-03T14:22:36.000Z</time>
      </trkpt>
      <trkpt lat="45.10906" lon="2.67743">
        <ele>1728.5999755859</ele>
        <time>2020-08-03T14:22:41.000Z</time>
      </trkpt>
      <trkpt lat="45.10907" lon="2.67742">
        <ele>1729.1999511719</ele>
        <time>2020-08-03T14:22:45.000Z</time>
      </trkpt>
      <trkpt lat="45.10907" lon="2.67741">
        <ele>1729.5999755859</ele>
        <time>2020-08-03T14:22:47.000Z</time>
      </trkpt>
      <trkpt lat="45.10909" lon="2.6774">
        <ele>1730.1999511719</ele>
        <time>2020-08-03T14:22:50.000Z</time>
      </trkpt>
      <trkpt lat="45.10911" lon="2.67741">
        <ele>1731.5999755859</ele>
        <time>2020-08-03T14:22:53.000Z</time>
      </trkpt>
      <trkpt lat="45.10912" lon="2.67741">
        <ele>1732.8000488281</ele>
        <time>2020-08-03T14:22:57.000Z</time>
      </trkpt>
      <trkpt lat="45.10911" lon="2.67741">
        <ele>1733.1999511719</ele>
        <time>2020-08-03T14:22:59.000Z</time>
      </trkpt>
      <trkpt lat="45.10909" lon="2.67739">
        <ele>1734</ele>
        <time>2020-08-03T14:23:03.000Z</time>
      </trkpt>
      <trkpt lat="45.10909" lon="2.67734">
        <ele>1734.1999511719</ele>
        <time>2020-08-03T14:23:05.000Z</time>
      </trkpt>
      <trkpt lat="45.1091" lon="2.67729">
        <ele>1735.1999511719</ele>
        <time>2020-08-03T14:23:11.000Z</time>
      </trkpt>
      <trkpt lat="45.10911" lon="2.67726">
        <ele>1736.1999511719</ele>
        <time>2020-08-03T14:23:16.000Z</time>
      </trkpt>
      <trkpt lat="45.10912" lon="2.67724">
        <ele>1736.5999755859</ele>
        <time>2020-08-03T14:23:18.000Z</time>
      </trkpt>
      <trkpt lat="45.10913" lon="2.67723">
        <ele>1737.4000244141</ele>
        <time>2020-08-03T14:23:21.000Z</time>
      </trkpt>
      <trkpt lat="45.10914" lon="2.67721">
        <ele>1738.4000244141</ele>
        <time>2020-08-03T14:23:24.000Z</time>
      </trkpt>
      <trkpt lat="45.10914" lon="2.67721">
        <ele>1738.5999755859</ele>
        <time>2020-08-03T14:23:25.000Z</time>
      </trkpt>
      <trkpt lat="45.10916" lon="2.67722">
        <ele>1739.5999755859</ele>
        <time>2020-08-03T14:23:30.000Z</time>
      </trkpt>
      <trkpt lat="45.10916" lon="2.67722">
        <ele>1739.8000488281</ele>
        <time>2020-08-03T14:23:31.000Z</time>
      </trkpt>
      <trkpt lat="45.10917" lon="2.67723">
        <ele>1740.8000488281</ele>
        <time>2020-08-03T14:23:35.000Z</time>
      </trkpt>
      <trkpt lat="45.10917" lon="2.67722">
        <ele>1741</ele>
        <time>2020-08-03T14:23:37.000Z</time>
      </trkpt>
      <trkpt lat="45.10917" lon="2.6772">
        <ele>1741.4000244141</ele>
        <time>2020-08-03T14:23:40.000Z</time>
      </trkpt>
      <trkpt lat="45.10918" lon="2.67715">
        <ele>1742</ele>
        <time>2020-08-03T14:23:44.000Z</time>
      </trkpt>
      <trkpt lat="45.1092" lon="2.67707">
        <ele>1742.8000488281</ele>
        <time>2020-08-03T14:23:50.000Z</time>
      </trkpt>
      <trkpt lat="45.1092" lon="2.67704">
        <ele>1743.1999511719</ele>
        <time>2020-08-03T14:23:52.000Z</time>
      </trkpt>
      <trkpt lat="45.10924" lon="2.67699">
        <ele>1743.4000244141</ele>
        <time>2020-08-03T14:23:57.000Z</time>
      </trkpt>
      <trkpt lat="45.10924" lon="2.67697">
        <ele>1743.5999755859</ele>
        <time>2020-08-03T14:23:59.000Z</time>
      </trkpt>
      <trkpt lat="45.10924" lon="2.67695">
        <ele>1744.4000244141</ele>
        <time>2020-08-03T14:24:01.000Z</time>
      </trkpt>
      <trkpt lat="45.10924" lon="2.67692">
        <ele>1744.5999755859</ele>
        <time>2020-08-03T14:24:03.000Z</time>
      </trkpt>
      <trkpt lat="45.10924" lon="2.67691">
        <ele>1744.5999755859</ele>
        <time>2020-08-03T14:24:04.000Z</time>
      </trkpt>
      <trkpt lat="45.10924" lon="2.67688">
        <ele>1744.4000244141</ele>
        <time>2020-08-03T14:24:08.000Z</time>
      </trkpt>
      <trkpt lat="45.10924" lon="2.67686">
        <ele>1744.4000244141</ele>
        <time>2020-08-03T14:24:09.000Z</time>
      </trkpt>
      <trkpt lat="45.10924" lon="2.67683">
        <ele>1744.8000488281</ele>
        <time>2020-08-03T14:24:11.000Z</time>
      </trkpt>
      <trkpt lat="45.10925" lon="2.67683">
        <ele>1745</ele>
        <time>2020-08-03T14:24:14.000Z</time>
      </trkpt>
      <trkpt lat="45.10925" lon="2.67681">
        <ele>1744.8000488281</ele>
        <time>2020-08-03T14:24:17.000Z</time>
      </trkpt>
      <trkpt lat="45.10925" lon="2.67678">
        <ele>1744.4000244141</ele>
        <time>2020-08-03T14:24:19.000Z</time>
      </trkpt>
      <trkpt lat="45.10927" lon="2.6767">
        <ele>1745.5999755859</ele>
        <time>2020-08-03T14:24:26.000Z</time>
      </trkpt>
      <trkpt lat="45.10927" lon="2.67669">
        <ele>1745.8000488281</ele>
        <time>2020-08-03T14:24:27.000Z</time>
      </trkpt>
      <trkpt lat="45.10927" lon="2.67667">
        <ele>1746.5999755859</ele>
        <time>2020-08-03T14:24:29.000Z</time>
      </trkpt>
      <trkpt lat="45.10928" lon="2.67664">
        <ele>1747</ele>
        <time>2020-08-03T14:24:31.000Z</time>
      </trkpt>
      <trkpt lat="45.10928" lon="2.6766">
        <ele>1747.4000244141</ele>
        <time>2020-08-03T14:24:34.000Z</time>
      </trkpt>
      <trkpt lat="45.10929" lon="2.67658">
        <ele>1747.8000488281</ele>
        <time>2020-08-03T14:24:36.000Z</time>
      </trkpt>
      <trkpt lat="45.10928" lon="2.67657">
        <ele>1748.1999511719</ele>
        <time>2020-08-03T14:24:38.000Z</time>
      </trkpt>
      <trkpt lat="45.10929" lon="2.67655">
        <ele>1748.5999755859</ele>
        <time>2020-08-03T14:24:40.000Z</time>
      </trkpt>
      <trkpt lat="45.10929" lon="2.67655">
        <ele>1748.8000488281</ele>
        <time>2020-08-03T14:24:41.000Z</time>
      </trkpt>
      <trkpt lat="45.10929" lon="2.67653">
        <ele>1749.5999755859</ele>
        <time>2020-08-03T14:24:44.000Z</time>
      </trkpt>
      <trkpt lat="45.10929" lon="2.67652">
        <ele>1750</ele>
        <time>2020-08-03T14:24:45.000Z</time>
      </trkpt>
      <trkpt lat="45.10929" lon="2.67651">
        <ele>1750.1999511719</ele>
        <time>2020-08-03T14:24:46.000Z</time>
      </trkpt>
      <trkpt lat="45.10929" lon="2.67648">
        <ele>1751.1999511719</ele>
        <time>2020-08-03T14:24:49.000Z</time>
      </trkpt>
      <trkpt lat="45.10931" lon="2.67643">
        <ele>1751.8000488281</ele>
        <time>2020-08-03T14:24:54.000Z</time>
      </trkpt>
      <trkpt lat="45.10932" lon="2.67641">
        <ele>1752.1999511719</ele>
        <time>2020-08-03T14:24:57.000Z</time>
      </trkpt>
      <trkpt lat="45.10933" lon="2.6764">
        <ele>1752.4000244141</ele>
        <time>2020-08-03T14:24:59.000Z</time>
      </trkpt>
      <trkpt lat="45.10934" lon="2.67638">
        <ele>1753.4000244141</ele>
        <time>2020-08-03T14:25:03.000Z</time>
      </trkpt>
      <trkpt lat="45.10935" lon="2.67638">
        <ele>1754.5999755859</ele>
        <time>2020-08-03T14:25:05.000Z</time>
      </trkpt>
      <trkpt lat="45.10936" lon="2.67637">
        <ele>1755.8000488281</ele>
        <time>2020-08-03T14:25:10.000Z</time>
      </trkpt>
      <trkpt lat="45.10936" lon="2.67636">
        <ele>1756</ele>
        <time>2020-08-03T14:25:11.000Z</time>
      </trkpt>
      <trkpt lat="45.10936" lon="2.67634">
        <ele>1757</ele>
        <time>2020-08-03T14:25:13.000Z</time>
      </trkpt>
      <trkpt lat="45.10936" lon="2.67633">
        <ele>1758</ele>
        <time>2020-08-03T14:25:15.000Z</time>
      </trkpt>
      <trkpt lat="45.10935" lon="2.67632">
        <ele>1758.8000488281</ele>
        <time>2020-08-03T14:25:18.000Z</time>
      </trkpt>
      <trkpt lat="45.10935" lon="2.67632">
        <ele>1759</ele>
        <time>2020-08-03T14:25:19.000Z</time>
      </trkpt>
      <trkpt lat="45.10934" lon="2.67627">
        <ele>1759.5999755859</ele>
        <time>2020-08-03T14:25:24.000Z</time>
      </trkpt>
      <trkpt lat="45.10933" lon="2.67625">
        <ele>1760</ele>
        <time>2020-08-03T14:25:26.000Z</time>
      </trkpt>
      <trkpt lat="45.10933" lon="2.67623">
        <ele>1760.1999511719</ele>
        <time>2020-08-03T14:25:28.000Z</time>
      </trkpt>
      <trkpt lat="45.10932" lon="2.67623">
        <ele>1760.1999511719</ele>
        <time>2020-08-03T14:25:29.000Z</time>
      </trkpt>
      <trkpt lat="45.10932" lon="2.67621">
        <ele>1760.4000244141</ele>
        <time>2020-08-03T14:25:30.000Z</time>
      </trkpt>
      <trkpt lat="45.10933" lon="2.67619">
        <ele>1760.5999755859</ele>
        <time>2020-08-03T14:25:32.000Z</time>
      </trkpt>
      <trkpt lat="45.10933" lon="2.67616">
        <ele>1760.8000488281</ele>
        <time>2020-08-03T14:25:35.000Z</time>
      </trkpt>
      <trkpt lat="45.10933" lon="2.67614">
        <ele>1761.1999511719</ele>
        <time>2020-08-03T14:25:37.000Z</time>
      </trkpt>
      <trkpt lat="45.10933" lon="2.67614">
        <ele>1762.4000244141</ele>
        <time>2020-08-03T14:25:39.000Z</time>
      </trkpt>
      <trkpt lat="45.10933" lon="2.67613">
        <ele>1763.1999511719</ele>
        <time>2020-08-03T14:25:41.000Z</time>
      </trkpt>
      <trkpt lat="45.10933" lon="2.67612">
        <ele>1763.4000244141</ele>
        <time>2020-08-03T14:25:42.000Z</time>
      </trkpt>
      <trkpt lat="45.10933" lon="2.67612">
        <ele>1762.1999511719</ele>
        <time>2020-08-03T14:25:45.000Z</time>
      </trkpt>
      <trkpt lat="45.10932" lon="2.67612">
        <ele>1761.8000488281</ele>
        <time>2020-08-03T14:25:47.000Z</time>
      </trkpt>
      <trkpt lat="45.10932" lon="2.67611">
        <ele>1762.4000244141</ele>
        <time>2020-08-03T14:25:55.000Z</time>
      </trkpt>
      <trkpt lat="45.10932" lon="2.67611">
        <ele>1763.1999511719</ele>
        <time>2020-08-03T14:26:05.000Z</time>
      </trkpt>
      <trkpt lat="45.10932" lon="2.6761">
        <ele>1760.8000488281</ele>
        <time>2020-08-03T14:26:15.000Z</time>
      </trkpt>
      <trkpt lat="45.10932" lon="2.6761">
        <ele>1760.4000244141</ele>
        <time>2020-08-03T14:26:16.000Z</time>
      </trkpt>
      <trkpt lat="45.10932" lon="2.67609">
        <ele>1760.8000488281</ele>
        <time>2020-08-03T14:26:29.000Z</time>
      </trkpt>
      <trkpt lat="45.10932" lon="2.67609">
        <ele>1761.8000488281</ele>
        <time>2020-08-03T14:26:40.000Z</time>
      </trkpt>
      <trkpt lat="45.10932" lon="2.67609">
        <ele>1761.8000488281</ele>
        <time>2020-08-03T14:26:41.000Z</time>
      </trkpt>
      <trkpt lat="45.10932" lon="2.67608">
        <ele>1761.8000488281</ele>
        <time>2020-08-03T14:26:51.000Z</time>
      </trkpt>
      <trkpt lat="45.10933" lon="2.67606">
        <ele>1761.1999511719</ele>
        <time>2020-08-03T14:26:55.000Z</time>
      </trkpt>
      <trkpt lat="45.10933" lon="2.67604">
        <ele>1761</ele>
        <time>2020-08-03T14:26:56.000Z</time>
      </trkpt>
      <trkpt lat="45.10935" lon="2.67603">
        <ele>1760.8000488281</ele>
        <time>2020-08-03T14:26:59.000Z</time>
      </trkpt>
      <trkpt lat="45.10937" lon="2.67601">
        <ele>1760</ele>
        <time>2020-08-03T14:27:02.000Z</time>
      </trkpt>
      <trkpt lat="45.10938" lon="2.67598">
        <ele>1759.8000488281</ele>
        <time>2020-08-03T14:27:04.000Z</time>
      </trkpt>
      <trkpt lat="45.10938" lon="2.67591">
        <ele>1759.5999755859</ele>
        <time>2020-08-03T14:27:09.000Z</time>
      </trkpt>
      <trkpt lat="45.10938" lon="2.67588">
        <ele>1758.5999755859</ele>
        <time>2020-08-03T14:27:16.000Z</time>
      </trkpt>
      <trkpt lat="45.10938" lon="2.67588">
        <ele>1757.4000244141</ele>
        <time>2020-08-03T14:27:25.000Z</time>
      </trkpt>
      <trkpt lat="45.10938" lon="2.67588">
        <ele>1757.4000244141</ele>
        <time>2020-08-03T14:27:27.000Z</time>
      </trkpt>
      <trkpt lat="45.10938" lon="2.67589">
        <ele>1757.4000244141</ele>
        <time>2020-08-03T14:27:37.000Z</time>
      </trkpt>
      <trkpt lat="45.10938" lon="2.6759">
        <ele>1757.8000488281</ele>
        <time>2020-08-03T14:27:45.000Z</time>
      </trkpt>
      <trkpt lat="45.10939" lon="2.67591">
        <ele>1757.5999755859</ele>
        <time>2020-08-03T14:27:55.000Z</time>
      </trkpt>
      <trkpt lat="45.10939" lon="2.6759">
        <ele>1758</ele>
        <time>2020-08-03T14:28:06.000Z</time>
      </trkpt>
      <trkpt lat="45.1094" lon="2.67586">
        <ele>1757.8000488281</ele>
        <time>2020-08-03T14:28:09.000Z</time>
      </trkpt>
      <trkpt lat="45.10941" lon="2.67583">
        <ele>1757.5999755859</ele>
        <time>2020-08-03T14:28:11.000Z</time>
      </trkpt>
      <trkpt lat="45.10941" lon="2.67582">
        <ele>1757.5999755859</ele>
        <time>2020-08-03T14:28:12.000Z</time>
      </trkpt>
      <trkpt lat="45.10945" lon="2.67574">
        <ele>1757.4000244141</ele>
        <time>2020-08-03T14:28:20.000Z</time>
      </trkpt>
      <trkpt lat="45.10946" lon="2.67571">
        <ele>1757</ele>
        <time>2020-08-03T14:28:23.000Z</time>
      </trkpt>
      <trkpt lat="45.10947" lon="2.67569">
        <ele>1756.5999755859</ele>
        <time>2020-08-03T14:28:25.000Z</time>
      </trkpt>
      <trkpt lat="45.10947" lon="2.67568">
        <ele>1756.1999511719</ele>
        <time>2020-08-03T14:28:26.000Z</time>
      </trkpt>
      <trkpt lat="45.10949" lon="2.67561">
        <ele>1755.5999755859</ele>
        <time>2020-08-03T14:28:32.000Z</time>
      </trkpt>
      <trkpt lat="45.10949" lon="2.6756">
        <ele>1755.4000244141</ele>
        <time>2020-08-03T14:28:33.000Z</time>
      </trkpt>
      <trkpt lat="45.1095" lon="2.67559">
        <ele>1755.1999511719</ele>
        <time>2020-08-03T14:28:34.000Z</time>
      </trkpt>
      <trkpt lat="45.10952" lon="2.67552">
        <ele>1753.4000244141</ele>
        <time>2020-08-03T14:28:39.000Z</time>
      </trkpt>
      <trkpt lat="45.10953" lon="2.67549">
        <ele>1752.4000244141</ele>
        <time>2020-08-03T14:28:41.000Z</time>
      </trkpt>
      <trkpt lat="45.10954" lon="2.67544">
        <ele>1751</ele>
        <time>2020-08-03T14:28:45.000Z</time>
      </trkpt>
      <trkpt lat="45.10955" lon="2.67538">
        <ele>1750</ele>
        <time>2020-08-03T14:28:50.000Z</time>
      </trkpt>
      <trkpt lat="45.10955" lon="2.67538">
        <ele>1750</ele>
        <time>2020-08-03T14:28:51.000Z</time>
      </trkpt>
      <trkpt lat="45.10954" lon="2.67533">
        <ele>1748.8000488281</ele>
        <time>2020-08-03T14:28:55.000Z</time>
      </trkpt>
      <trkpt lat="45.10952" lon="2.6753">
        <ele>1747.5999755859</ele>
        <time>2020-08-03T14:28:57.000Z</time>
      </trkpt>
      <trkpt lat="45.1095" lon="2.67527">
        <ele>1746.4000244141</ele>
        <time>2020-08-03T14:29:00.000Z</time>
      </trkpt>
      <trkpt lat="45.10945" lon="2.67522">
        <ele>1745.1999511719</ele>
        <time>2020-08-03T14:29:05.000Z</time>
      </trkpt>
      <trkpt lat="45.10942" lon="2.67521">
        <ele>1744.1999511719</ele>
        <time>2020-08-03T14:29:09.000Z</time>
      </trkpt>
      <trkpt lat="45.1094" lon="2.67521">
        <ele>1743</ele>
        <time>2020-08-03T14:29:12.000Z</time>
      </trkpt>
      <trkpt lat="45.1094" lon="2.6752">
        <ele>1742.5999755859</ele>
        <time>2020-08-03T14:29:13.000Z</time>
      </trkpt>
      <trkpt lat="45.10938" lon="2.67518">
        <ele>1741.8000488281</ele>
        <time>2020-08-03T14:29:16.000Z</time>
      </trkpt>
      <trkpt lat="45.10937" lon="2.67517">
        <ele>1740.5999755859</ele>
        <time>2020-08-03T14:29:18.000Z</time>
      </trkpt>
      <trkpt lat="45.10937" lon="2.67517">
        <ele>1739.5999755859</ele>
        <time>2020-08-03T14:29:20.000Z</time>
      </trkpt>
      <trkpt lat="45.10936" lon="2.67517">
        <ele>1738.8000488281</ele>
        <time>2020-08-03T14:29:21.000Z</time>
      </trkpt>
      <trkpt lat="45.10936" lon="2.67516">
        <ele>1738.1999511719</ele>
        <time>2020-08-03T14:29:22.000Z</time>
      </trkpt>
      <trkpt lat="45.10938" lon="2.67512">
        <ele>1737</ele>
        <time>2020-08-03T14:29:25.000Z</time>
      </trkpt>
      <trkpt lat="45.1094" lon="2.67511">
        <ele>1736.5999755859</ele>
        <time>2020-08-03T14:29:26.000Z</time>
      </trkpt>
      <trkpt lat="45.10942" lon="2.67511">
        <ele>1735.8000488281</ele>
        <time>2020-08-03T14:29:28.000Z</time>
      </trkpt>
      <trkpt lat="45.10944" lon="2.67511">
        <ele>1734.4000244141</ele>
        <time>2020-08-03T14:29:30.000Z</time>
      </trkpt>
      <trkpt lat="45.10947" lon="2.67512">
        <ele>1733.1999511719</ele>
        <time>2020-08-03T14:29:32.000Z</time>
      </trkpt>
      <trkpt lat="45.1095" lon="2.67511">
        <ele>1732</ele>
        <time>2020-08-03T14:29:35.000Z</time>
      </trkpt>
      <trkpt lat="45.10952" lon="2.6751">
        <ele>1731.1999511719</ele>
        <time>2020-08-03T14:29:38.000Z</time>
      </trkpt>
      <trkpt lat="45.10953" lon="2.6751">
        <ele>1730.8000488281</ele>
        <time>2020-08-03T14:29:39.000Z</time>
      </trkpt>
      <trkpt lat="45.10956" lon="2.67508">
        <ele>1729.5999755859</ele>
        <time>2020-08-03T14:29:42.000Z</time>
      </trkpt>
      <trkpt lat="45.10958" lon="2.67507">
        <ele>1728.5999755859</ele>
        <time>2020-08-03T14:29:44.000Z</time>
      </trkpt>
      <trkpt lat="45.10962" lon="2.67506">
        <ele>1727.4000244141</ele>
        <time>2020-08-03T14:29:47.000Z</time>
      </trkpt>
      <trkpt lat="45.10964" lon="2.67504">
        <ele>1727</ele>
        <time>2020-08-03T14:29:50.000Z</time>
      </trkpt>
      <trkpt lat="45.10966" lon="2.67503">
        <ele>1725.8000488281</ele>
        <time>2020-08-03T14:29:52.000Z</time>
      </trkpt>
      <trkpt lat="45.10968" lon="2.67502">
        <ele>1724.8000488281</ele>
        <time>2020-08-03T14:29:54.000Z</time>
      </trkpt>
      <trkpt lat="45.10971" lon="2.67501">
        <ele>1723.4000244141</ele>
        <time>2020-08-03T14:29:57.000Z</time>
      </trkpt>
      <trkpt lat="45.10972" lon="2.675">
        <ele>1723</ele>
        <time>2020-08-03T14:29:58.000Z</time>
      </trkpt>
      <trkpt lat="45.10974" lon="2.67499">
        <ele>1722</ele>
        <time>2020-08-03T14:30:00.000Z</time>
      </trkpt>
      <trkpt lat="45.10977" lon="2.67498">
        <ele>1720.4000244141</ele>
        <time>2020-08-03T14:30:02.000Z</time>
      </trkpt>
      <trkpt lat="45.1098" lon="2.67496">
        <ele>1719.4000244141</ele>
        <time>2020-08-03T14:30:06.000Z</time>
      </trkpt>
      <trkpt lat="45.10985" lon="2.67494">
        <ele>1718.8000488281</ele>
        <time>2020-08-03T14:30:10.000Z</time>
      </trkpt>
      <trkpt lat="45.10986" lon="2.67493">
        <ele>1718.1999511719</ele>
        <time>2020-08-03T14:30:13.000Z</time>
      </trkpt>
      <trkpt lat="45.10988" lon="2.67493">
        <ele>1717.8000488281</ele>
        <time>2020-08-03T14:30:16.000Z</time>
      </trkpt>
      <trkpt lat="45.10992" lon="2.67492">
        <ele>1717</ele>
        <time>2020-08-03T14:30:23.000Z</time>
      </trkpt>
      <trkpt lat="45.10992" lon="2.67492">
        <ele>1716.8000488281</ele>
        <time>2020-08-03T14:30:24.000Z</time>
      </trkpt>
      <trkpt lat="45.10993" lon="2.6749">
        <ele>1715.5999755859</ele>
        <time>2020-08-03T14:30:27.000Z</time>
      </trkpt>
      <trkpt lat="45.10993" lon="2.67489">
        <ele>1714.5999755859</ele>
        <time>2020-08-03T14:30:29.000Z</time>
      </trkpt>
      <trkpt lat="45.10993" lon="2.67488">
        <ele>1714</ele>
        <time>2020-08-03T14:30:30.000Z</time>
      </trkpt>
      <trkpt lat="45.10994" lon="2.67486">
        <ele>1713.4000244141</ele>
        <time>2020-08-03T14:30:32.000Z</time>
      </trkpt>
      <trkpt lat="45.10995" lon="2.67485">
        <ele>1712.4000244141</ele>
        <time>2020-08-03T14:30:34.000Z</time>
      </trkpt>
      <trkpt lat="45.10996" lon="2.67483">
        <ele>1711.5999755859</ele>
        <time>2020-08-03T14:30:36.000Z</time>
      </trkpt>
      <trkpt lat="45.10996" lon="2.67482">
        <ele>1711</ele>
        <time>2020-08-03T14:30:37.000Z</time>
      </trkpt>
      <trkpt lat="45.10997" lon="2.6748">
        <ele>1709.8000488281</ele>
        <time>2020-08-03T14:30:39.000Z</time>
      </trkpt>
      <trkpt lat="45.10999" lon="2.67479">
        <ele>1709</ele>
        <time>2020-08-03T14:30:41.000Z</time>
      </trkpt>
      <trkpt lat="45.11" lon="2.67479">
        <ele>1708.8000488281</ele>
        <time>2020-08-03T14:30:42.000Z</time>
      </trkpt>
      <trkpt lat="45.11003" lon="2.67479">
        <ele>1707.1999511719</ele>
        <time>2020-08-03T14:30:45.000Z</time>
      </trkpt>
      <trkpt lat="45.11004" lon="2.67479">
        <ele>1706.8000488281</ele>
        <time>2020-08-03T14:30:46.000Z</time>
      </trkpt>
      <trkpt lat="45.11006" lon="2.67479">
        <ele>1706.1999511719</ele>
        <time>2020-08-03T14:30:48.000Z</time>
      </trkpt>
      <trkpt lat="45.11007" lon="2.67478">
        <ele>1705.8000488281</ele>
        <time>2020-08-03T14:30:49.000Z</time>
      </trkpt>
      <trkpt lat="45.11009" lon="2.67477">
        <ele>1705.1999511719</ele>
        <time>2020-08-03T14:30:51.000Z</time>
      </trkpt>
      <trkpt lat="45.11011" lon="2.67476">
        <ele>1704.1999511719</ele>
        <time>2020-08-03T14:30:53.000Z</time>
      </trkpt>
      <trkpt lat="45.11012" lon="2.67475">
        <ele>1702.4000244141</ele>
        <time>2020-08-03T14:30:55.000Z</time>
      </trkpt>
      <trkpt lat="45.11013" lon="2.67472">
        <ele>1701.1999511719</ele>
        <time>2020-08-03T14:30:57.000Z</time>
      </trkpt>
      <trkpt lat="45.11014" lon="2.67472">
        <ele>1700.8000488281</ele>
        <time>2020-08-03T14:30:58.000Z</time>
      </trkpt>
      <trkpt lat="45.11016" lon="2.67469">
        <ele>1700.1999511719</ele>
        <time>2020-08-03T14:31:01.000Z</time>
      </trkpt>
      <trkpt lat="45.11016" lon="2.67468">
        <ele>1700</ele>
        <time>2020-08-03T14:31:02.000Z</time>
      </trkpt>
      <trkpt lat="45.11017" lon="2.67466">
        <ele>1698.8000488281</ele>
        <time>2020-08-03T14:31:04.000Z</time>
      </trkpt>
      <trkpt lat="45.11018" lon="2.67466">
        <ele>1698.1999511719</ele>
        <time>2020-08-03T14:31:05.000Z</time>
      </trkpt>
      <trkpt lat="45.1102" lon="2.67464">
        <ele>1697.4000244141</ele>
        <time>2020-08-03T14:31:07.000Z</time>
      </trkpt>
      <trkpt lat="45.11022" lon="2.67463">
        <ele>1696.4000244141</ele>
        <time>2020-08-03T14:31:10.000Z</time>
      </trkpt>
      <trkpt lat="45.11023" lon="2.67463">
        <ele>1696</ele>
        <time>2020-08-03T14:31:11.000Z</time>
      </trkpt>
      <trkpt lat="45.11025" lon="2.67461">
        <ele>1694.8000488281</ele>
        <time>2020-08-03T14:31:14.000Z</time>
      </trkpt>
      <trkpt lat="45.11027" lon="2.67461">
        <ele>1693.5999755859</ele>
        <time>2020-08-03T14:31:16.000Z</time>
      </trkpt>
      <trkpt lat="45.11031" lon="2.67458">
        <ele>1692.4000244141</ele>
        <time>2020-08-03T14:31:20.000Z</time>
      </trkpt>
      <trkpt lat="45.11032" lon="2.67457">
        <ele>1691.8000488281</ele>
        <time>2020-08-03T14:31:21.000Z</time>
      </trkpt>
      <trkpt lat="45.11032" lon="2.67456">
        <ele>1691.1999511719</ele>
        <time>2020-08-03T14:31:22.000Z</time>
      </trkpt>
      <trkpt lat="45.11034" lon="2.67455">
        <ele>1690</ele>
        <time>2020-08-03T14:31:25.000Z</time>
      </trkpt>
      <trkpt lat="45.11037" lon="2.67455">
        <ele>1688.5999755859</ele>
        <time>2020-08-03T14:31:28.000Z</time>
      </trkpt>
      <trkpt lat="45.11038" lon="2.67456">
        <ele>1688.1999511719</ele>
        <time>2020-08-03T14:31:29.000Z</time>
      </trkpt>
      <trkpt lat="45.11039" lon="2.67455">
        <ele>1687.5999755859</ele>
        <time>2020-08-03T14:31:31.000Z</time>
      </trkpt>
      <trkpt lat="45.1104" lon="2.67454">
        <ele>1687.1999511719</ele>
        <time>2020-08-03T14:31:32.000Z</time>
      </trkpt>
      <trkpt lat="45.11041" lon="2.67453">
        <ele>1686.1999511719</ele>
        <time>2020-08-03T14:31:34.000Z</time>
      </trkpt>
      <trkpt lat="45.11044" lon="2.67452">
        <ele>1685.1999511719</ele>
        <time>2020-08-03T14:31:37.000Z</time>
      </trkpt>
      <trkpt lat="45.11045" lon="2.67452">
        <ele>1685</ele>
        <time>2020-08-03T14:31:38.000Z</time>
      </trkpt>
      <trkpt lat="45.11048" lon="2.67453">
        <ele>1683.8000488281</ele>
        <time>2020-08-03T14:31:41.000Z</time>
      </trkpt>
      <trkpt lat="45.11051" lon="2.67455">
        <ele>1683.5999755859</ele>
        <time>2020-08-03T14:31:43.000Z</time>
      </trkpt>
      <trkpt lat="45.11057" lon="2.67457">
        <ele>1682.5999755859</ele>
        <time>2020-08-03T14:31:49.000Z</time>
      </trkpt>
      <trkpt lat="45.11058" lon="2.67456">
        <ele>1682.4000244141</ele>
        <time>2020-08-03T14:31:50.000Z</time>
      </trkpt>
      <trkpt lat="45.11058" lon="2.67455">
        <ele>1682.1999511719</ele>
        <time>2020-08-03T14:31:51.000Z</time>
      </trkpt>
      <trkpt lat="45.11062" lon="2.67453">
        <ele>1681.4000244141</ele>
        <time>2020-08-03T14:31:55.000Z</time>
      </trkpt>
      <trkpt lat="45.11063" lon="2.67452">
        <ele>1680.8000488281</ele>
        <time>2020-08-03T14:31:56.000Z</time>
      </trkpt>
      <trkpt lat="45.11063" lon="2.67451">
        <ele>1680.4000244141</ele>
        <time>2020-08-03T14:31:57.000Z</time>
      </trkpt>
      <trkpt lat="45.11063" lon="2.6745">
        <ele>1680</ele>
        <time>2020-08-03T14:31:58.000Z</time>
      </trkpt>
      <trkpt lat="45.11064" lon="2.67447">
        <ele>1679</ele>
        <time>2020-08-03T14:32:01.000Z</time>
      </trkpt>
      <trkpt lat="45.11065" lon="2.67444">
        <ele>1677.8000488281</ele>
        <time>2020-08-03T14:32:04.000Z</time>
      </trkpt>
      <trkpt lat="45.11065" lon="2.67441">
        <ele>1677.1999511719</ele>
        <time>2020-08-03T14:32:06.000Z</time>
      </trkpt>
      <trkpt lat="45.11066" lon="2.67439">
        <ele>1676.5999755859</ele>
        <time>2020-08-03T14:32:08.000Z</time>
      </trkpt>
      <trkpt lat="45.11065" lon="2.67435">
        <ele>1675.4000244141</ele>
        <time>2020-08-03T14:32:11.000Z</time>
      </trkpt>
      <trkpt lat="45.11066" lon="2.67432">
        <ele>1675.1999511719</ele>
        <time>2020-08-03T14:32:13.000Z</time>
      </trkpt>
      <trkpt lat="45.11068" lon="2.67431">
        <ele>1674.1999511719</ele>
        <time>2020-08-03T14:32:16.000Z</time>
      </trkpt>
      <trkpt lat="45.1107" lon="2.67431">
        <ele>1673.4000244141</ele>
        <time>2020-08-03T14:32:18.000Z</time>
      </trkpt>
      <trkpt lat="45.11071" lon="2.67431">
        <ele>1672.8000488281</ele>
        <time>2020-08-03T14:32:19.000Z</time>
      </trkpt>
      <trkpt lat="45.11072" lon="2.67431">
        <ele>1672.5999755859</ele>
        <time>2020-08-03T14:32:20.000Z</time>
      </trkpt>
      <trkpt lat="45.11073" lon="2.67429">
        <ele>1671.5999755859</ele>
        <time>2020-08-03T14:32:23.000Z</time>
      </trkpt>
      <trkpt lat="45.11074" lon="2.67427">
        <ele>1671.5999755859</ele>
        <time>2020-08-03T14:32:24.000Z</time>
      </trkpt>
      <trkpt lat="45.11075" lon="2.67426">
        <ele>1671</ele>
        <time>2020-08-03T14:32:26.000Z</time>
      </trkpt>
      <trkpt lat="45.11076" lon="2.67425">
        <ele>1670.4000244141</ele>
        <time>2020-08-03T14:32:27.000Z</time>
      </trkpt>
      <trkpt lat="45.11078" lon="2.67423">
        <ele>1669.4000244141</ele>
        <time>2020-08-03T14:32:30.000Z</time>
      </trkpt>
      <trkpt lat="45.11081" lon="2.67421">
        <ele>1668.5999755859</ele>
        <time>2020-08-03T14:32:34.000Z</time>
      </trkpt>
      <trkpt lat="45.11083" lon="2.6742">
        <ele>1668</ele>
        <time>2020-08-03T14:32:36.000Z</time>
      </trkpt>
      <trkpt lat="45.11085" lon="2.67418">
        <ele>1666.8000488281</ele>
        <time>2020-08-03T14:32:39.000Z</time>
      </trkpt>
      <trkpt lat="45.11087" lon="2.67415">
        <ele>1666.1999511719</ele>
        <time>2020-08-03T14:32:42.000Z</time>
      </trkpt>
      <trkpt lat="45.11087" lon="2.67414">
        <ele>1665.8000488281</ele>
        <time>2020-08-03T14:32:43.000Z</time>
      </trkpt>
      <trkpt lat="45.11088" lon="2.67411">
        <ele>1664.4000244141</ele>
        <time>2020-08-03T14:32:46.000Z</time>
      </trkpt>
      <trkpt lat="45.11089" lon="2.67409">
        <ele>1663.1999511719</ele>
        <time>2020-08-03T14:32:48.000Z</time>
      </trkpt>
      <trkpt lat="45.1109" lon="2.67409">
        <ele>1662.8000488281</ele>
        <time>2020-08-03T14:32:49.000Z</time>
      </trkpt>
      <trkpt lat="45.11092" lon="2.67408">
        <ele>1661.8000488281</ele>
        <time>2020-08-03T14:32:51.000Z</time>
      </trkpt>
      <trkpt lat="45.11094" lon="2.67406">
        <ele>1660.5999755859</ele>
        <time>2020-08-03T14:32:54.000Z</time>
      </trkpt>
      <trkpt lat="45.11095" lon="2.67404">
        <ele>1659.8000488281</ele>
        <time>2020-08-03T14:32:56.000Z</time>
      </trkpt>
      <trkpt lat="45.11096" lon="2.67403">
        <ele>1659.4000244141</ele>
        <time>2020-08-03T14:32:57.000Z</time>
      </trkpt>
      <trkpt lat="45.11098" lon="2.67402">
        <ele>1658.4000244141</ele>
        <time>2020-08-03T14:32:59.000Z</time>
      </trkpt>
      <trkpt lat="45.11101" lon="2.67399">
        <ele>1657.4000244141</ele>
        <time>2020-08-03T14:33:03.000Z</time>
      </trkpt>
      <trkpt lat="45.11102" lon="2.67398">
        <ele>1657.1999511719</ele>
        <time>2020-08-03T14:33:06.000Z</time>
      </trkpt>
      <trkpt lat="45.11103" lon="2.67397">
        <ele>1656.8000488281</ele>
        <time>2020-08-03T14:33:07.000Z</time>
      </trkpt>
      <trkpt lat="45.11104" lon="2.67396">
        <ele>1656</ele>
        <time>2020-08-03T14:33:09.000Z</time>
      </trkpt>
      <trkpt lat="45.11104" lon="2.67395">
        <ele>1655.5999755859</ele>
        <time>2020-08-03T14:33:10.000Z</time>
      </trkpt>
      <trkpt lat="45.11105" lon="2.67394">
        <ele>1654.5999755859</ele>
        <time>2020-08-03T14:33:12.000Z</time>
      </trkpt>
      <trkpt lat="45.11106" lon="2.67392">
        <ele>1654</ele>
        <time>2020-08-03T14:33:14.000Z</time>
      </trkpt>
      <trkpt lat="45.11106" lon="2.67391">
        <ele>1653.5999755859</ele>
        <time>2020-08-03T14:33:15.000Z</time>
      </trkpt>
      <trkpt lat="45.11107" lon="2.6739">
        <ele>1653.1999511719</ele>
        <time>2020-08-03T14:33:16.000Z</time>
      </trkpt>
      <trkpt lat="45.11109" lon="2.67389">
        <ele>1652.4000244141</ele>
        <time>2020-08-03T14:33:19.000Z</time>
      </trkpt>
      <trkpt lat="45.11109" lon="2.67389">
        <ele>1652</ele>
        <time>2020-08-03T14:33:20.000Z</time>
      </trkpt>
      <trkpt lat="45.11111" lon="2.67388">
        <ele>1651.4000244141</ele>
        <time>2020-08-03T14:33:22.000Z</time>
      </trkpt>
      <trkpt lat="45.11111" lon="2.67387">
        <ele>1651.1999511719</ele>
        <time>2020-08-03T14:33:23.000Z</time>
      </trkpt>
      <trkpt lat="45.11114" lon="2.67384">
        <ele>1650.1999511719</ele>
        <time>2020-08-03T14:33:26.000Z</time>
      </trkpt>
      <trkpt lat="45.11115" lon="2.67383">
        <ele>1648.8000488281</ele>
        <time>2020-08-03T14:33:28.000Z</time>
      </trkpt>
      <trkpt lat="45.11118" lon="2.67381">
        <ele>1647.5999755859</ele>
        <time>2020-08-03T14:33:31.000Z</time>
      </trkpt>
      <trkpt lat="45.11122" lon="2.67378">
        <ele>1646.4000244141</ele>
        <time>2020-08-03T14:33:35.000Z</time>
      </trkpt>
      <trkpt lat="45.11124" lon="2.67378">
        <ele>1646</ele>
        <time>2020-08-03T14:33:37.000Z</time>
      </trkpt>
      <trkpt lat="45.11126" lon="2.67377">
        <ele>1645.4000244141</ele>
        <time>2020-08-03T14:33:39.000Z</time>
      </trkpt>
      <trkpt lat="45.1113" lon="2.67376">
        <ele>1644.4000244141</ele>
        <time>2020-08-03T14:33:43.000Z</time>
      </trkpt>
      <trkpt lat="45.11133" lon="2.67375">
        <ele>1644</ele>
        <time>2020-08-03T14:33:45.000Z</time>
      </trkpt>
      <trkpt lat="45.11135" lon="2.67374">
        <ele>1642.8000488281</ele>
        <time>2020-08-03T14:33:47.000Z</time>
      </trkpt>
      <trkpt lat="45.11137" lon="2.67372">
        <ele>1641.8000488281</ele>
        <time>2020-08-03T14:33:49.000Z</time>
      </trkpt>
      <trkpt lat="45.1114" lon="2.67369">
        <ele>1641</ele>
        <time>2020-08-03T14:33:53.000Z</time>
      </trkpt>
      <trkpt lat="45.11143" lon="2.67367">
        <ele>1640.5999755859</ele>
        <time>2020-08-03T14:33:55.000Z</time>
      </trkpt>
      <trkpt lat="45.11146" lon="2.67364">
        <ele>1639.8000488281</ele>
        <time>2020-08-03T14:33:58.000Z</time>
      </trkpt>
      <trkpt lat="45.11146" lon="2.67362">
        <ele>1639.5999755859</ele>
        <time>2020-08-03T14:33:59.000Z</time>
      </trkpt>
      <trkpt lat="45.11146" lon="2.67359">
        <ele>1639.5999755859</ele>
        <time>2020-08-03T14:34:01.000Z</time>
      </trkpt>
      <trkpt lat="45.11148" lon="2.67354">
        <ele>1638.4000244141</ele>
        <time>2020-08-03T14:34:06.000Z</time>
      </trkpt>
      <trkpt lat="45.11148" lon="2.67353">
        <ele>1638</ele>
        <time>2020-08-03T14:34:08.000Z</time>
      </trkpt>
      <trkpt lat="45.11149" lon="2.67349">
        <ele>1637.4000244141</ele>
        <time>2020-08-03T14:34:13.000Z</time>
      </trkpt>
      <trkpt lat="45.11149" lon="2.67346">
        <ele>1637</ele>
        <time>2020-08-03T14:34:15.000Z</time>
      </trkpt>
      <trkpt lat="45.11151" lon="2.67345">
        <ele>1636.5999755859</ele>
        <time>2020-08-03T14:34:17.000Z</time>
      </trkpt>
      <trkpt lat="45.11152" lon="2.67344">
        <ele>1636.4000244141</ele>
        <time>2020-08-03T14:34:18.000Z</time>
      </trkpt>
      <trkpt lat="45.11155" lon="2.67339">
        <ele>1635</ele>
        <time>2020-08-03T14:34:22.000Z</time>
      </trkpt>
      <trkpt lat="45.11157" lon="2.67335">
        <ele>1634.1999511719</ele>
        <time>2020-08-03T14:34:25.000Z</time>
      </trkpt>
      <trkpt lat="45.11157" lon="2.67334">
        <ele>1633.8000488281</ele>
        <time>2020-08-03T14:34:26.000Z</time>
      </trkpt>
      <trkpt lat="45.11158" lon="2.67333">
        <ele>1633.4000244141</ele>
        <time>2020-08-03T14:34:27.000Z</time>
      </trkpt>
      <trkpt lat="45.11159" lon="2.67332">
        <ele>1632.5999755859</ele>
        <time>2020-08-03T14:34:29.000Z</time>
      </trkpt>
      <trkpt lat="45.11162" lon="2.67332">
        <ele>1631.8000488281</ele>
        <time>2020-08-03T14:34:31.000Z</time>
      </trkpt>
      <trkpt lat="45.11164" lon="2.67332">
        <ele>1631.1999511719</ele>
        <time>2020-08-03T14:34:33.000Z</time>
      </trkpt>
      <trkpt lat="45.11171" lon="2.67329">
        <ele>1630</ele>
        <time>2020-08-03T14:34:39.000Z</time>
      </trkpt>
      <trkpt lat="45.11177" lon="2.67326">
        <ele>1629</ele>
        <time>2020-08-03T14:34:45.000Z</time>
      </trkpt>
      <trkpt lat="45.11178" lon="2.67326">
        <ele>1628.8000488281</ele>
        <time>2020-08-03T14:34:46.000Z</time>
      </trkpt>
      <trkpt lat="45.11182" lon="2.67326">
        <ele>1627.4000244141</ele>
        <time>2020-08-03T14:34:49.000Z</time>
      </trkpt>
      <trkpt lat="45.11187" lon="2.67326">
        <ele>1626.1999511719</ele>
        <time>2020-08-03T14:34:54.000Z</time>
      </trkpt>
      <trkpt lat="45.1119" lon="2.67327">
        <ele>1625.1999511719</ele>
        <time>2020-08-03T14:34:57.000Z</time>
      </trkpt>
      <trkpt lat="45.11193" lon="2.67327">
        <ele>1624.1999511719</ele>
        <time>2020-08-03T14:35:00.000Z</time>
      </trkpt>
      <trkpt lat="45.11197" lon="2.67327">
        <ele>1622.8000488281</ele>
        <time>2020-08-03T14:35:04.000Z</time>
      </trkpt>
      <trkpt lat="45.11201" lon="2.67327">
        <ele>1621.4000244141</ele>
        <time>2020-08-03T14:35:07.000Z</time>
      </trkpt>
      <trkpt lat="45.11206" lon="2.67327">
        <ele>1620.4000244141</ele>
        <time>2020-08-03T14:35:12.000Z</time>
      </trkpt>
      <trkpt lat="45.11207" lon="2.67327">
        <ele>1620.1999511719</ele>
        <time>2020-08-03T14:35:13.000Z</time>
      </trkpt>
      <trkpt lat="45.1121" lon="2.67326">
        <ele>1619</ele>
        <time>2020-08-03T14:35:16.000Z</time>
      </trkpt>
      <trkpt lat="45.11214" lon="2.67326">
        <ele>1617.5999755859</ele>
        <time>2020-08-03T14:35:20.000Z</time>
      </trkpt>
      <trkpt lat="45.11215" lon="2.67325">
        <ele>1616.8000488281</ele>
        <time>2020-08-03T14:35:21.000Z</time>
      </trkpt>
      <trkpt lat="45.11215" lon="2.67324">
        <ele>1616.5999755859</ele>
        <time>2020-08-03T14:35:22.000Z</time>
      </trkpt>
      <trkpt lat="45.11216" lon="2.67321">
        <ele>1615.5999755859</ele>
        <time>2020-08-03T14:35:25.000Z</time>
      </trkpt>
      <trkpt lat="45.11217" lon="2.6732">
        <ele>1615.4000244141</ele>
        <time>2020-08-03T14:35:26.000Z</time>
      </trkpt>
      <trkpt lat="45.1122" lon="2.67318">
        <ele>1614.1999511719</ele>
        <time>2020-08-03T14:35:29.000Z</time>
      </trkpt>
      <trkpt lat="45.1122" lon="2.67318">
        <ele>1613.8000488281</ele>
        <time>2020-08-03T14:35:30.000Z</time>
      </trkpt>
      <trkpt lat="45.11223" lon="2.67315">
        <ele>1612.8000488281</ele>
        <time>2020-08-03T14:35:33.000Z</time>
      </trkpt>
      <trkpt lat="45.11227" lon="2.67311">
        <ele>1611.8000488281</ele>
        <time>2020-08-03T14:35:37.000Z</time>
      </trkpt>
      <trkpt lat="45.11229" lon="2.67308">
        <ele>1611.1999511719</ele>
        <time>2020-08-03T14:35:39.000Z</time>
      </trkpt>
      <trkpt lat="45.11233" lon="2.67306">
        <ele>1610.8000488281</ele>
        <time>2020-08-03T14:35:42.000Z</time>
      </trkpt>
      <trkpt lat="45.11239" lon="2.67305">
        <ele>1610.4000244141</ele>
        <time>2020-08-03T14:35:47.000Z</time>
      </trkpt>
      <trkpt lat="45.11248" lon="2.67309">
        <ele>1610.1999511719</ele>
        <time>2020-08-03T14:35:55.000Z</time>
      </trkpt>
      <trkpt lat="45.11249" lon="2.67308">
        <ele>1609.4000244141</ele>
        <time>2020-08-03T14:35:56.000Z</time>
      </trkpt>
      <trkpt lat="45.11252" lon="2.67308">
        <ele>1608</ele>
        <time>2020-08-03T14:35:58.000Z</time>
      </trkpt>
      <trkpt lat="45.11254" lon="2.67307">
        <ele>1607</ele>
        <time>2020-08-03T14:36:00.000Z</time>
      </trkpt>
      <trkpt lat="45.11255" lon="2.67305">
        <ele>1606.4000244141</ele>
        <time>2020-08-03T14:36:01.000Z</time>
      </trkpt>
      <trkpt lat="45.11256" lon="2.67304">
        <ele>1606</ele>
        <time>2020-08-03T14:36:02.000Z</time>
      </trkpt>
      <trkpt lat="45.11261" lon="2.67293">
        <ele>1605.1999511719</ele>
        <time>2020-08-03T14:36:10.000Z</time>
      </trkpt>
      <trkpt lat="45.11266" lon="2.67283">
        <ele>1604.5999755859</ele>
        <time>2020-08-03T14:36:17.000Z</time>
      </trkpt>
      <trkpt lat="45.11268" lon="2.67278">
        <ele>1604.1999511719</ele>
        <time>2020-08-03T14:36:20.000Z</time>
      </trkpt>
      <trkpt lat="45.1127" lon="2.67276">
        <ele>1603</ele>
        <time>2020-08-03T14:36:22.000Z</time>
      </trkpt>
      <trkpt lat="45.11272" lon="2.67274">
        <ele>1601.4000244141</ele>
        <time>2020-08-03T14:36:24.000Z</time>
      </trkpt>
      <trkpt lat="45.11274" lon="2.67273">
        <ele>1600.4000244141</ele>
        <time>2020-08-03T14:36:26.000Z</time>
      </trkpt>
      <trkpt lat="45.11274" lon="2.67272">
        <ele>1600</ele>
        <time>2020-08-03T14:36:27.000Z</time>
      </trkpt>
      <trkpt lat="45.11278" lon="2.67267">
        <ele>1599.1999511719</ele>
        <time>2020-08-03T14:36:31.000Z</time>
      </trkpt>
      <trkpt lat="45.11279" lon="2.67267">
        <ele>1598.5999755859</ele>
        <time>2020-08-03T14:36:32.000Z</time>
      </trkpt>
      <trkpt lat="45.11279" lon="2.67267">
        <ele>1598</ele>
        <time>2020-08-03T14:36:33.000Z</time>
      </trkpt>
      <trkpt lat="45.1128" lon="2.67267">
        <ele>1597.4000244141</ele>
        <time>2020-08-03T14:36:34.000Z</time>
      </trkpt>
      <trkpt lat="45.11281" lon="2.67266">
        <ele>1596.5999755859</ele>
        <time>2020-08-03T14:36:36.000Z</time>
      </trkpt>
      <trkpt lat="45.11282" lon="2.67264">
        <ele>1596.4000244141</ele>
        <time>2020-08-03T14:36:38.000Z</time>
      </trkpt>
      <trkpt lat="45.11283" lon="2.67263">
        <ele>1596.1999511719</ele>
        <time>2020-08-03T14:36:39.000Z</time>
      </trkpt>
      <trkpt lat="45.11286" lon="2.67261">
        <ele>1594.8000488281</ele>
        <time>2020-08-03T14:36:43.000Z</time>
      </trkpt>
      <trkpt lat="45.11287" lon="2.67259">
        <ele>1593.5999755859</ele>
        <time>2020-08-03T14:36:45.000Z</time>
      </trkpt>
      <trkpt lat="45.11292" lon="2.67254">
        <ele>1592.5999755859</ele>
        <time>2020-08-03T14:36:51.000Z</time>
      </trkpt>
      <trkpt lat="45.11294" lon="2.67252">
        <ele>1592.4000244141</ele>
        <time>2020-08-03T14:36:54.000Z</time>
      </trkpt>
      <trkpt lat="45.11298" lon="2.6725">
        <ele>1591.1999511719</ele>
        <time>2020-08-03T14:36:58.000Z</time>
      </trkpt>
      <trkpt lat="45.11301" lon="2.67248">
        <ele>1590.1999511719</ele>
        <time>2020-08-03T14:37:01.000Z</time>
      </trkpt>
      <trkpt lat="45.11303" lon="2.67248">
        <ele>1589.8000488281</ele>
        <time>2020-08-03T14:37:02.000Z</time>
      </trkpt>
      <trkpt lat="45.11306" lon="2.67246">
        <ele>1589</ele>
        <time>2020-08-03T14:37:05.000Z</time>
      </trkpt>
      <trkpt lat="45.1131" lon="2.67244">
        <ele>1587.8000488281</ele>
        <time>2020-08-03T14:37:09.000Z</time>
      </trkpt>
      <trkpt lat="45.11311" lon="2.67243">
        <ele>1587.5999755859</ele>
        <time>2020-08-03T14:37:10.000Z</time>
      </trkpt>
      <trkpt lat="45.11316" lon="2.67241">
        <ele>1586.5999755859</ele>
        <time>2020-08-03T14:37:15.000Z</time>
      </trkpt>
      <trkpt lat="45.1132" lon="2.67239">
        <ele>1585.5999755859</ele>
        <time>2020-08-03T14:37:19.000Z</time>
      </trkpt>
      <trkpt lat="45.11321" lon="2.67238">
        <ele>1585.4000244141</ele>
        <time>2020-08-03T14:37:20.000Z</time>
      </trkpt>
      <trkpt lat="45.11327" lon="2.67233">
        <ele>1584.1999511719</ele>
        <time>2020-08-03T14:37:26.000Z</time>
      </trkpt>
      <trkpt lat="45.11332" lon="2.67229">
        <ele>1582.8000488281</ele>
        <time>2020-08-03T14:37:31.000Z</time>
      </trkpt>
      <trkpt lat="45.11335" lon="2.67227">
        <ele>1582</ele>
        <time>2020-08-03T14:37:34.000Z</time>
      </trkpt>
      <trkpt lat="45.11338" lon="2.67225">
        <ele>1581.5999755859</ele>
        <time>2020-08-03T14:37:36.000Z</time>
      </trkpt>
      <trkpt lat="45.11343" lon="2.67221">
        <ele>1580.4000244141</ele>
        <time>2020-08-03T14:37:41.000Z</time>
      </trkpt>
      <trkpt lat="45.11345" lon="2.6722">
        <ele>1580.1999511719</ele>
        <time>2020-08-03T14:37:43.000Z</time>
      </trkpt>
      <trkpt lat="45.11351" lon="2.67216">
        <ele>1579.1999511719</ele>
        <time>2020-08-03T14:37:48.000Z</time>
      </trkpt>
      <trkpt lat="45.11355" lon="2.67213">
        <ele>1578.1999511719</ele>
        <time>2020-08-03T14:37:52.000Z</time>
      </trkpt>
      <trkpt lat="45.11356" lon="2.67212">
        <ele>1578.1999511719</ele>
        <time>2020-08-03T14:37:53.000Z</time>
      </trkpt>
      <trkpt lat="45.11363" lon="2.67208">
        <ele>1578</ele>
        <time>2020-08-03T14:38:00.000Z</time>
      </trkpt>
      <trkpt lat="45.11369" lon="2.67205">
        <ele>1576.8000488281</ele>
        <time>2020-08-03T14:38:06.000Z</time>
      </trkpt>
      <trkpt lat="45.11369" lon="2.67205">
        <ele>1576.5999755859</ele>
        <time>2020-08-03T14:38:08.000Z</time>
      </trkpt>
      <trkpt lat="45.1137" lon="2.67205">
        <ele>1577.4000244141</ele>
        <time>2020-08-03T14:38:17.000Z</time>
      </trkpt>
      <trkpt lat="45.11371" lon="2.67204">
        <ele>1576.1999511719</ele>
        <time>2020-08-03T14:38:23.000Z</time>
      </trkpt>
      <trkpt lat="45.11371" lon="2.67203">
        <ele>1575.5999755859</ele>
        <time>2020-08-03T14:38:24.000Z</time>
      </trkpt>
      <trkpt lat="45.11372" lon="2.67202">
        <ele>1575.1999511719</ele>
        <time>2020-08-03T14:38:25.000Z</time>
      </trkpt>
      <trkpt lat="45.11374" lon="2.67201">
        <ele>1575.4000244141</ele>
        <time>2020-08-03T14:38:31.000Z</time>
      </trkpt>
      <trkpt lat="45.11375" lon="2.672">
        <ele>1576.4000244141</ele>
        <time>2020-08-03T14:38:42.000Z</time>
      </trkpt>
      <trkpt lat="45.11376" lon="2.67201">
        <ele>1576.5999755859</ele>
        <time>2020-08-03T14:38:47.000Z</time>
      </trkpt>
      <trkpt lat="45.11377" lon="2.67199">
        <ele>1576.1999511719</ele>
        <time>2020-08-03T14:38:56.000Z</time>
      </trkpt>
      <trkpt lat="45.1138" lon="2.67198">
        <ele>1575.5999755859</ele>
        <time>2020-08-03T14:39:01.000Z</time>
      </trkpt>
      <trkpt lat="45.1138" lon="2.67197">
        <ele>1575.1999511719</ele>
        <time>2020-08-03T14:39:03.000Z</time>
      </trkpt>
      <trkpt lat="45.11381" lon="2.67196">
        <ele>1574.4000244141</ele>
        <time>2020-08-03T14:39:05.000Z</time>
      </trkpt>
      <trkpt lat="45.11382" lon="2.67196">
        <ele>1574.1999511719</ele>
        <time>2020-08-03T14:39:06.000Z</time>
      </trkpt>
      <trkpt lat="45.11384" lon="2.67195">
        <ele>1573.4000244141</ele>
        <time>2020-08-03T14:39:09.000Z</time>
      </trkpt>
      <trkpt lat="45.11384" lon="2.67195">
        <ele>1573</ele>
        <time>2020-08-03T14:39:10.000Z</time>
      </trkpt>
      <trkpt lat="45.11386" lon="2.67194">
        <ele>1572.4000244141</ele>
        <time>2020-08-03T14:39:16.000Z</time>
      </trkpt>
      <trkpt lat="45.11388" lon="2.67194">
        <ele>1572</ele>
        <time>2020-08-03T14:39:18.000Z</time>
      </trkpt>
      <trkpt lat="45.1139" lon="2.67192">
        <ele>1571.4000244141</ele>
        <time>2020-08-03T14:39:23.000Z</time>
      </trkpt>
      <trkpt lat="45.11391" lon="2.67191">
        <ele>1571.1999511719</ele>
        <time>2020-08-03T14:39:26.000Z</time>
      </trkpt>
      <trkpt lat="45.11395" lon="2.67189">
        <ele>1570.5999755859</ele>
        <time>2020-08-03T14:39:34.000Z</time>
      </trkpt>
      <trkpt lat="45.11396" lon="2.67188">
        <ele>1570.4000244141</ele>
        <time>2020-08-03T14:39:35.000Z</time>
      </trkpt>
      <trkpt lat="45.11396" lon="2.67185">
        <ele>1570.1999511719</ele>
        <time>2020-08-03T14:39:37.000Z</time>
      </trkpt>
      <trkpt lat="45.11398" lon="2.67182">
        <ele>1570</ele>
        <time>2020-08-03T14:39:42.000Z</time>
      </trkpt>
      <trkpt lat="45.11394" lon="2.67181">
        <ele>1569</ele>
        <time>2020-08-03T14:39:46.000Z</time>
      </trkpt>
      <trkpt lat="45.11395" lon="2.67185">
        <ele>1569</ele>
        <time>2020-08-03T14:39:49.000Z</time>
      </trkpt>
      <trkpt lat="45.11397" lon="2.67184">
        <ele>1569</ele>
        <time>2020-08-03T14:39:51.000Z</time>
      </trkpt>
      <trkpt lat="45.11403" lon="2.67178">
        <ele>1569.1999511719</ele>
        <time>2020-08-03T14:39:55.000Z</time>
      </trkpt>
      <trkpt lat="45.11405" lon="2.67179">
        <ele>1569.1999511719</ele>
        <time>2020-08-03T14:39:57.000Z</time>
      </trkpt>
      <trkpt lat="45.11403" lon="2.67187">
        <ele>1569.5999755859</ele>
        <time>2020-08-03T14:40:01.000Z</time>
      </trkpt>
      <trkpt lat="45.11399" lon="2.67193">
        <ele>1569.4000244141</ele>
        <time>2020-08-03T14:40:07.000Z</time>
      </trkpt>
      <trkpt lat="45.11395" lon="2.67195">
        <ele>1568.8000488281</ele>
        <time>2020-08-03T14:40:13.000Z</time>
      </trkpt>
      <trkpt lat="45.11395" lon="2.67197">
        <ele>1568</ele>
        <time>2020-08-03T14:40:20.000Z</time>
      </trkpt>
      <trkpt lat="45.11395" lon="2.67199">
        <ele>1568</ele>
        <time>2020-08-03T14:40:22.000Z</time>
      </trkpt>
      <trkpt lat="45.11398" lon="2.67205">
        <ele>1568</ele>
        <time>2020-08-03T14:40:26.000Z</time>
      </trkpt>
      <trkpt lat="45.11401" lon="2.67208">
        <ele>1568.5999755859</ele>
        <time>2020-08-03T14:40:35.000Z</time>
      </trkpt>
      <trkpt lat="45.114" lon="2.67209">
        <ele>1568.4000244141</ele>
        <time>2020-08-03T14:40:44.000Z</time>
      </trkpt>
      <trkpt lat="45.11401" lon="2.6721">
        <ele>1568.4000244141</ele>
        <time>2020-08-03T14:40:45.000Z</time>
      </trkpt>
      <trkpt lat="45.11402" lon="2.6721">
        <ele>1568.8000488281</ele>
        <time>2020-08-03T14:40:50.000Z</time>
      </trkpt>
      <trkpt lat="45.11402" lon="2.6721">
        <ele>1569</ele>
        <time>2020-08-03T14:40:52.000Z</time>
      </trkpt>
      <trkpt lat="45.11401" lon="2.67207">
        <ele>1568.5999755859</ele>
        <time>2020-08-03T14:40:57.000Z</time>
      </trkpt>
      <trkpt lat="45.11401" lon="2.67206">
        <ele>1568.1999511719</ele>
        <time>2020-08-03T14:41:01.000Z</time>
      </trkpt>
      <trkpt lat="45.114" lon="2.67206">
        <ele>1568</ele>
        <time>2020-08-03T14:41:04.000Z</time>
      </trkpt>
      <trkpt lat="45.114" lon="2.67205">
        <ele>1568.1999511719</ele>
        <time>2020-08-03T14:41:06.000Z</time>
      </trkpt>
      <trkpt lat="45.114" lon="2.67204">
        <ele>1568.8000488281</ele>
        <time>2020-08-03T14:41:13.000Z</time>
      </trkpt>
      <trkpt lat="45.11398" lon="2.67203">
        <ele>1567.8000488281</ele>
        <time>2020-08-03T14:41:18.000Z</time>
      </trkpt>
      <trkpt lat="45.11397" lon="2.67201">
        <ele>1568</ele>
        <time>2020-08-03T14:41:24.000Z</time>
      </trkpt>
      <trkpt lat="45.11389" lon="2.67196">
        <ele>1567.5999755859</ele>
        <time>2020-08-03T14:41:32.000Z</time>
      </trkpt>
    </trkseg>
  </trk>
</gpx>